<?xml version="1.0" encoding="UTF-8"?>
<gpx version="1.1" creator="https://www.youtrack.es" xsi:schemaLocation="http://www.topografix.com/GPX/1/1 http://www.topografix.com/GPX/1/1/gpx.xsd http://www.garmin.com/xmlschemas/GpxExtensions/v3 http://www.garmin.com/xmlschemas/GpxExtensionsv3.xsd http://www.garmin.com/xmlschemas/TrackPointExtension/v1 http://www.garmin.com/xmlschemas/TrackPointExtensionv1.xsd" xmlns:gpxtpx="http://www.garmin.com/xmlschemas/TrackPointExtension/v1" xmlns:gpxx="http://www.garmin.com/xmlschemas/GpxExtensions/v3" xmlns:xsi="http://www.w3.org/2001/XMLSchema-instance">
  <metadata>
    <link href="https://www.youtrack.es">
      <text>YouTrack.es</text>
    </link>
    <time>2026-05-08T08:25:47Z</time>
  </metadata>
  <trk>
    <src>https://www.youtrack.es</src>
    <link href="https://www.youtrack.es/ruta/718-soplao-2018">
      <text>YouTrack.es</text>
    </link>
    <trkseg>
      <trkpt lat="43.3079642337" lon="-4.2334324121">
        <ele>131.84</ele>
        <time>2018-05-19T05:59:47Z</time>
      </trkpt>
      <trkpt lat="43.3079105057" lon="-4.2335562967">
        <ele>133.28</ele>
        <time>2018-05-19T06:03:50Z</time>
      </trkpt>
      <trkpt lat="43.3079138584" lon="-4.2336898204">
        <ele>133.28</ele>
        <time>2018-05-19T06:04:14Z</time>
      </trkpt>
      <trkpt lat="43.3079268504" lon="-4.2338292953">
        <ele>133.28</ele>
        <time>2018-05-19T06:04:29Z</time>
      </trkpt>
      <trkpt lat="43.3079079911" lon="-4.2339974362">
        <ele>133.28</ele>
        <time>2018-05-19T06:04:41Z</time>
      </trkpt>
      <trkpt lat="43.3079065662" lon="-4.2341450416">
        <ele>133.28</ele>
        <time>2018-05-19T06:04:53Z</time>
      </trkpt>
      <trkpt lat="43.3079090808" lon="-4.2342931498">
        <ele>133.28</ele>
        <time>2018-05-19T06:05:06Z</time>
      </trkpt>
      <trkpt lat="43.3079155348" lon="-4.2344570160">
        <ele>134.72</ele>
        <time>2018-05-19T06:05:19Z</time>
      </trkpt>
      <trkpt lat="43.3079292811" lon="-4.2346135061">
        <ele>134.72</ele>
        <time>2018-05-19T06:05:27Z</time>
      </trkpt>
      <trkpt lat="43.3079409320" lon="-4.2347526457">
        <ele>134.72</ele>
        <time>2018-05-19T06:05:32Z</time>
      </trkpt>
      <trkpt lat="43.3079471346" lon="-4.2348857503">
        <ele>134.72</ele>
        <time>2018-05-19T06:05:38Z</time>
      </trkpt>
      <trkpt lat="43.3079561871" lon="-4.2350285780">
        <ele>134.72</ele>
        <time>2018-05-19T06:05:44Z</time>
      </trkpt>
      <trkpt lat="43.3079711068" lon="-4.2351768538">
        <ele>135.20</ele>
        <time>2018-05-19T06:05:49Z</time>
      </trkpt>
      <trkpt lat="43.3079869486" lon="-4.2353282310">
        <ele>135.20</ele>
        <time>2018-05-19T06:05:54Z</time>
      </trkpt>
      <trkpt lat="43.3080019522" lon="-4.2354818713">
        <ele>135.20</ele>
        <time>2018-05-19T06:06:01Z</time>
      </trkpt>
      <trkpt lat="43.3080161177" lon="-4.2356252018">
        <ele>135.20</ele>
        <time>2018-05-19T06:06:06Z</time>
      </trkpt>
      <trkpt lat="43.3080280200" lon="-4.2357780039">
        <ele>135.20</ele>
        <time>2018-05-19T06:06:11Z</time>
      </trkpt>
      <trkpt lat="43.3080688398" lon="-4.2359203286">
        <ele>135.20</ele>
        <time>2018-05-19T06:06:16Z</time>
      </trkpt>
      <trkpt lat="43.3081689198" lon="-4.2359707039">
        <ele>135.20</ele>
        <time>2018-05-19T06:06:20Z</time>
      </trkpt>
      <trkpt lat="43.3082762919" lon="-4.2359941732">
        <ele>135.20</ele>
        <time>2018-05-19T06:06:24Z</time>
      </trkpt>
      <trkpt lat="43.3083925489" lon="-4.2360370047">
        <ele>135.20</ele>
        <time>2018-05-19T06:06:28Z</time>
      </trkpt>
      <trkpt lat="43.3084983286" lon="-4.2360227555">
        <ele>135.20</ele>
        <time>2018-05-19T06:06:31Z</time>
      </trkpt>
      <trkpt lat="43.3086124063" lon="-4.2359664291">
        <ele>135.20</ele>
        <time>2018-05-19T06:06:34Z</time>
      </trkpt>
      <trkpt lat="43.3086906094" lon="-4.2358871363">
        <ele>135.20</ele>
        <time>2018-05-19T06:06:36Z</time>
      </trkpt>
      <trkpt lat="43.3087739255" lon="-4.2357720528">
        <ele>134.24</ele>
        <time>2018-05-19T06:06:39Z</time>
      </trkpt>
      <trkpt lat="43.3088707365" lon="-4.2356292251">
        <ele>134.24</ele>
        <time>2018-05-19T06:06:42Z</time>
      </trkpt>
      <trkpt lat="43.3089475986" lon="-4.2355237808">
        <ele>134.24</ele>
        <time>2018-05-19T06:06:45Z</time>
      </trkpt>
      <trkpt lat="43.3090392966" lon="-4.2354726512">
        <ele>134.24</ele>
        <time>2018-05-19T06:06:48Z</time>
      </trkpt>
      <trkpt lat="43.3091185894" lon="-4.2355423048">
        <ele>134.24</ele>
        <time>2018-05-19T06:06:50Z</time>
      </trkpt>
      <trkpt lat="43.3091841359" lon="-4.2356301472">
        <ele>134.24</ele>
        <time>2018-05-19T06:06:52Z</time>
      </trkpt>
      <trkpt lat="43.3092637639" lon="-4.2357246950">
        <ele>133.76</ele>
        <time>2018-05-19T06:06:55Z</time>
      </trkpt>
      <trkpt lat="43.3093502652" lon="-4.2358077597">
        <ele>133.76</ele>
        <time>2018-05-19T06:06:57Z</time>
      </trkpt>
      <trkpt lat="43.3094142191" lon="-4.2359065823">
        <ele>134.24</ele>
        <time>2018-05-19T06:07:00Z</time>
      </trkpt>
      <trkpt lat="43.3094226010" lon="-4.2360405251">
        <ele>133.76</ele>
        <time>2018-05-19T06:07:02Z</time>
      </trkpt>
      <trkpt lat="43.3094226010" lon="-4.2362277769">
        <ele>133.76</ele>
        <time>2018-05-19T06:07:05Z</time>
      </trkpt>
      <trkpt lat="43.3094158955" lon="-4.2363530863">
        <ele>135.20</ele>
        <time>2018-05-19T06:07:07Z</time>
      </trkpt>
      <trkpt lat="43.3094128780" lon="-4.2364783958">
        <ele>135.20</ele>
        <time>2018-05-19T06:07:09Z</time>
      </trkpt>
      <trkpt lat="43.3094024844" lon="-4.2366139311">
        <ele>135.20</ele>
        <time>2018-05-19T06:07:11Z</time>
      </trkpt>
      <trkpt lat="43.3093899116" lon="-4.2367396597">
        <ele>135.68</ele>
        <time>2018-05-19T06:07:13Z</time>
      </trkpt>
      <trkpt lat="43.3093663584" lon="-4.2368698306">
        <ele>135.68</ele>
        <time>2018-05-19T06:07:15Z</time>
      </trkpt>
      <trkpt lat="43.3093354292" lon="-4.2370078806">
        <ele>135.68</ele>
        <time>2018-05-19T06:07:17Z</time>
      </trkpt>
      <trkpt lat="43.3092796896" lon="-4.2371836491">
        <ele>135.68</ele>
        <time>2018-05-19T06:07:20Z</time>
      </trkpt>
      <trkpt lat="43.3092356008" lon="-4.2372943740">
        <ele>135.68</ele>
        <time>2018-05-19T06:07:21Z</time>
      </trkpt>
      <trkpt lat="43.3091632649" lon="-4.2374422308">
        <ele>135.68</ele>
        <time>2018-05-19T06:07:23Z</time>
      </trkpt>
      <trkpt lat="43.3090648614" lon="-4.2375474237">
        <ele>135.68</ele>
        <time>2018-05-19T06:07:26Z</time>
      </trkpt>
      <trkpt lat="43.3089447487" lon="-4.2375916801">
        <ele>135.68</ele>
        <time>2018-05-19T06:07:28Z</time>
      </trkpt>
      <trkpt lat="43.3088483568" lon="-4.2375814542">
        <ele>135.68</ele>
        <time>2018-05-19T06:07:30Z</time>
      </trkpt>
      <trkpt lat="43.3087309264" lon="-4.2375480942">
        <ele>135.68</ele>
        <time>2018-05-19T06:07:32Z</time>
      </trkpt>
      <trkpt lat="43.3085902780" lon="-4.2375237867">
        <ele>135.68</ele>
        <time>2018-05-19T06:07:35Z</time>
      </trkpt>
      <trkpt lat="43.3084807266" lon="-4.2375118006">
        <ele>135.68</ele>
        <time>2018-05-19T06:07:37Z</time>
      </trkpt>
      <trkpt lat="43.3083694987" lon="-4.2375095375">
        <ele>135.68</ele>
        <time>2018-05-19T06:07:39Z</time>
      </trkpt>
      <trkpt lat="43.3082604501" lon="-4.2375039216">
        <ele>135.68</ele>
        <time>2018-05-19T06:07:41Z</time>
      </trkpt>
      <trkpt lat="43.3081620466" lon="-4.2375118844">
        <ele>136.16</ele>
        <time>2018-05-19T06:07:43Z</time>
      </trkpt>
      <trkpt lat="43.3080681693" lon="-4.2375380360">
        <ele>136.16</ele>
        <time>2018-05-19T06:07:45Z</time>
      </trkpt>
      <trkpt lat="43.3079676703" lon="-4.2375518661">
        <ele>136.16</ele>
        <time>2018-05-19T06:07:47Z</time>
      </trkpt>
      <trkpt lat="43.3078690153" lon="-4.2375698034">
        <ele>136.64</ele>
        <time>2018-05-19T06:07:49Z</time>
      </trkpt>
      <trkpt lat="43.3077659179" lon="-4.2376095336">
        <ele>136.64</ele>
        <time>2018-05-19T06:07:51Z</time>
      </trkpt>
      <trkpt lat="43.3076813444" lon="-4.2376594059">
        <ele>136.64</ele>
        <time>2018-05-19T06:07:53Z</time>
      </trkpt>
      <trkpt lat="43.3075915743" lon="-4.2377154808">
        <ele>136.64</ele>
        <time>2018-05-19T06:07:55Z</time>
      </trkpt>
      <trkpt lat="43.3074962720" lon="-4.2377538700">
        <ele>137.13</ele>
        <time>2018-05-19T06:07:57Z</time>
      </trkpt>
      <trkpt lat="43.3074029814" lon="-4.2377958633">
        <ele>137.13</ele>
        <time>2018-05-19T06:07:59Z</time>
      </trkpt>
      <trkpt lat="43.3073121216" lon="-4.2378469929">
        <ele>137.13</ele>
        <time>2018-05-19T06:08:01Z</time>
      </trkpt>
      <trkpt lat="43.3071766701" lon="-4.2379033193">
        <ele>137.61</ele>
        <time>2018-05-19T06:08:04Z</time>
      </trkpt>
      <trkpt lat="43.3070816193" lon="-4.2379511800">
        <ele>137.61</ele>
        <time>2018-05-19T06:08:06Z</time>
      </trkpt>
      <trkpt lat="43.3069796115" lon="-4.2379968613">
        <ele>137.61</ele>
        <time>2018-05-19T06:08:08Z</time>
      </trkpt>
      <trkpt lat="43.3068727423" lon="-4.2380364239">
        <ele>137.61</ele>
        <time>2018-05-19T06:08:10Z</time>
      </trkpt>
      <trkpt lat="43.3067495283" lon="-4.2380774114">
        <ele>137.61</ele>
        <time>2018-05-19T06:08:12Z</time>
      </trkpt>
      <trkpt lat="43.3066502865" lon="-4.2381063290">
        <ele>137.61</ele>
        <time>2018-05-19T06:08:14Z</time>
      </trkpt>
      <trkpt lat="43.3065356221" lon="-4.2381331511">
        <ele>137.61</ele>
        <time>2018-05-19T06:08:16Z</time>
      </trkpt>
      <trkpt lat="43.3064154256" lon="-4.2381613143">
        <ele>137.61</ele>
        <time>2018-05-19T06:08:18Z</time>
      </trkpt>
      <trkpt lat="43.3063079696" lon="-4.2381886393">
        <ele>137.61</ele>
        <time>2018-05-19T06:08:20Z</time>
      </trkpt>
      <trkpt lat="43.3061632980" lon="-4.2382245138">
        <ele>137.61</ele>
        <time>2018-05-19T06:08:22Z</time>
      </trkpt>
      <trkpt lat="43.3060636371" lon="-4.2382407747">
        <ele>137.61</ele>
        <time>2018-05-19T06:08:24Z</time>
      </trkpt>
      <trkpt lat="43.3059402555" lon="-4.2382499948">
        <ele>137.61</ele>
        <time>2018-05-19T06:08:26Z</time>
      </trkpt>
      <trkpt lat="43.3058123477" lon="-4.2382358294">
        <ele>137.61</ele>
        <time>2018-05-19T06:08:28Z</time>
      </trkpt>
      <trkpt lat="43.3056944981" lon="-4.2382033076">
        <ele>137.61</ele>
        <time>2018-05-19T06:08:30Z</time>
      </trkpt>
      <trkpt lat="43.3055729605" lon="-4.2381681874">
        <ele>137.61</ele>
        <time>2018-05-19T06:08:32Z</time>
      </trkpt>
      <trkpt lat="43.3054526802" lon="-4.2381317262">
        <ele>137.61</ele>
        <time>2018-05-19T06:08:34Z</time>
      </trkpt>
      <trkpt lat="43.3053328190" lon="-4.2380927503">
        <ele>137.61</ele>
        <time>2018-05-19T06:08:36Z</time>
      </trkpt>
      <trkpt lat="43.3052175678" lon="-4.2380566243">
        <ele>137.61</ele>
        <time>2018-05-19T06:08:38Z</time>
      </trkpt>
      <trkpt lat="43.3050868940" lon="-4.2380158044">
        <ele>137.13</ele>
        <time>2018-05-19T06:08:40Z</time>
      </trkpt>
      <trkpt lat="43.3049845509" lon="-4.2379803490">
        <ele>138.09</ele>
        <time>2018-05-19T06:08:42Z</time>
      </trkpt>
      <trkpt lat="43.3048716467" lon="-4.2379320692">
        <ele>138.09</ele>
        <time>2018-05-19T06:08:44Z</time>
      </trkpt>
      <trkpt lat="43.3047525398" lon="-4.2378906626">
        <ele>138.09</ele>
        <time>2018-05-19T06:08:46Z</time>
      </trkpt>
      <trkpt lat="43.3046319243" lon="-4.2378632538">
        <ele>138.09</ele>
        <time>2018-05-19T06:08:48Z</time>
      </trkpt>
      <trkpt lat="43.3045097161" lon="-4.2378369346">
        <ele>138.09</ele>
        <time>2018-05-19T06:08:50Z</time>
      </trkpt>
      <trkpt lat="43.3043870050" lon="-4.2378141358">
        <ele>138.09</ele>
        <time>2018-05-19T06:08:52Z</time>
      </trkpt>
      <trkpt lat="43.3042626176" lon="-4.2377912533">
        <ele>138.09</ele>
        <time>2018-05-19T06:08:54Z</time>
      </trkpt>
      <trkpt lat="43.3041364700" lon="-4.2377657723">
        <ele>138.09</ele>
        <time>2018-05-19T06:08:56Z</time>
      </trkpt>
      <trkpt lat="43.3040036168" lon="-4.2377376091">
        <ele>138.09</ele>
        <time>2018-05-19T06:08:58Z</time>
      </trkpt>
      <trkpt lat="43.3038854320" lon="-4.2377199233">
        <ele>138.57</ele>
        <time>2018-05-19T06:09:00Z</time>
      </trkpt>
      <trkpt lat="43.3037622180" lon="-4.2377019022">
        <ele>138.57</ele>
        <time>2018-05-19T06:09:02Z</time>
      </trkpt>
      <trkpt lat="43.3036338072" lon="-4.2376863956">
        <ele>138.57</ele>
        <time>2018-05-19T06:09:04Z</time>
      </trkpt>
      <trkpt lat="43.3035064861" lon="-4.2376867309">
        <ele>139.05</ele>
        <time>2018-05-19T06:09:06Z</time>
      </trkpt>
      <trkpt lat="43.3033722080" lon="-4.2376973759">
        <ele>139.05</ele>
        <time>2018-05-19T06:09:08Z</time>
      </trkpt>
      <trkpt lat="43.3032443840" lon="-4.2377070151">
        <ele>139.05</ele>
        <time>2018-05-19T06:09:10Z</time>
      </trkpt>
      <trkpt lat="43.3031386882" lon="-4.2377179954">
        <ele>139.53</ele>
        <time>2018-05-19T06:09:12Z</time>
      </trkpt>
      <trkpt lat="43.3030180726" lon="-4.2377279699">
        <ele>139.53</ele>
        <time>2018-05-19T06:09:14Z</time>
      </trkpt>
      <trkpt lat="43.3028967865" lon="-4.2377335858">
        <ele>139.53</ele>
        <time>2018-05-19T06:09:16Z</time>
      </trkpt>
      <trkpt lat="43.3027767576" lon="-4.2377433926">
        <ele>140.01</ele>
        <time>2018-05-19T06:09:18Z</time>
      </trkpt>
      <trkpt lat="43.3026320022" lon="-4.2377668619">
        <ele>140.01</ele>
        <time>2018-05-19T06:09:20Z</time>
      </trkpt>
      <trkpt lat="43.3025328442" lon="-4.2377783451">
        <ele>140.49</ele>
        <time>2018-05-19T06:09:22Z</time>
      </trkpt>
      <trkpt lat="43.3024229575" lon="-4.2377918400">
        <ele>140.49</ele>
        <time>2018-05-19T06:09:24Z</time>
      </trkpt>
      <trkpt lat="43.3023032639" lon="-4.2378030717">
        <ele>140.49</ele>
        <time>2018-05-19T06:09:26Z</time>
      </trkpt>
      <trkpt lat="43.3021813072" lon="-4.2378143035">
        <ele>140.97</ele>
        <time>2018-05-19T06:09:28Z</time>
      </trkpt>
      <trkpt lat="43.3020735160" lon="-4.2378264572">
        <ele>140.97</ele>
        <time>2018-05-19T06:09:30Z</time>
      </trkpt>
      <trkpt lat="43.3019556664" lon="-4.2378393654">
        <ele>140.97</ele>
        <time>2018-05-19T06:09:32Z</time>
      </trkpt>
      <trkpt lat="43.3018384036" lon="-4.2378550395">
        <ele>141.45</ele>
        <time>2018-05-19T06:09:34Z</time>
      </trkpt>
      <trkpt lat="43.3017239068" lon="-4.2378661036">
        <ele>140.97</ele>
        <time>2018-05-19T06:09:36Z</time>
      </trkpt>
      <trkpt lat="43.3015918918" lon="-4.2378785927">
        <ele>141.45</ele>
        <time>2018-05-19T06:09:38Z</time>
      </trkpt>
      <trkpt lat="43.3014854416" lon="-4.2378874775">
        <ele>141.45</ele>
        <time>2018-05-19T06:09:40Z</time>
      </trkpt>
      <trkpt lat="43.3013696875" lon="-4.2379017267">
        <ele>141.45</ele>
        <time>2018-05-19T06:09:42Z</time>
      </trkpt>
      <trkpt lat="43.3012435399" lon="-4.2379166465">
        <ele>141.45</ele>
        <time>2018-05-19T06:09:44Z</time>
      </trkpt>
      <trkpt lat="43.3011315577" lon="-4.2379279621">
        <ele>141.45</ele>
        <time>2018-05-19T06:09:46Z</time>
      </trkpt>
      <trkpt lat="43.3010056615" lon="-4.2379380204">
        <ele>141.45</ele>
        <time>2018-05-19T06:09:48Z</time>
      </trkpt>
      <trkpt lat="43.3009034861" lon="-4.2379474081">
        <ele>141.45</ele>
        <time>2018-05-19T06:09:50Z</time>
      </trkpt>
      <trkpt lat="43.3007853851" lon="-4.2379584722">
        <ele>141.45</ele>
        <time>2018-05-19T06:09:52Z</time>
      </trkpt>
      <trkpt lat="43.3006697148" lon="-4.2379698716">
        <ele>141.45</ele>
        <time>2018-05-19T06:09:54Z</time>
      </trkpt>
      <trkpt lat="43.3005589899" lon="-4.2379791755">
        <ele>141.93</ele>
        <time>2018-05-19T06:09:56Z</time>
      </trkpt>
      <trkpt lat="43.3004340995" lon="-4.2379938439">
        <ele>141.93</ele>
        <time>2018-05-19T06:09:58Z</time>
      </trkpt>
      <trkpt lat="43.3003266435" lon="-4.2380069196">
        <ele>141.93</ele>
        <time>2018-05-19T06:10:00Z</time>
      </trkpt>
      <trkpt lat="43.3001978137" lon="-4.2380194087">
        <ele>141.93</ele>
        <time>2018-05-19T06:10:02Z</time>
      </trkpt>
      <trkpt lat="43.3000899386" lon="-4.2380286288">
        <ele>142.41</ele>
        <time>2018-05-19T06:10:04Z</time>
      </trkpt>
      <trkpt lat="43.2999730948" lon="-4.2380376812">
        <ele>142.41</ele>
        <time>2018-05-19T06:10:06Z</time>
      </trkpt>
      <trkpt lat="43.2998343743" lon="-4.2380557861">
        <ele>142.41</ele>
        <time>2018-05-19T06:10:08Z</time>
      </trkpt>
      <trkpt lat="43.2997077238" lon="-4.2380699515">
        <ele>142.41</ele>
        <time>2018-05-19T06:10:10Z</time>
      </trkpt>
      <trkpt lat="43.2996134274" lon="-4.2380779982">
        <ele>142.41</ele>
        <time>2018-05-19T06:10:12Z</time>
      </trkpt>
      <trkpt lat="43.2994925603" lon="-4.2380867153">
        <ele>142.89</ele>
        <time>2018-05-19T06:10:14Z</time>
      </trkpt>
      <trkpt lat="43.2993659098" lon="-4.2380988691">
        <ele>142.89</ele>
        <time>2018-05-19T06:10:16Z</time>
      </trkpt>
      <trkpt lat="43.2992461324" lon="-4.2381121125">
        <ele>142.89</ele>
        <time>2018-05-19T06:10:18Z</time>
      </trkpt>
      <trkpt lat="43.2991468068" lon="-4.2381226737">
        <ele>142.89</ele>
        <time>2018-05-19T06:10:20Z</time>
      </trkpt>
      <trkpt lat="43.2990066614" lon="-4.2381360848">
        <ele>143.37</ele>
        <time>2018-05-19T06:10:22Z</time>
      </trkpt>
      <trkpt lat="43.2988847885" lon="-4.2381481547">
        <ele>143.37</ele>
        <time>2018-05-19T06:10:24Z</time>
      </trkpt>
      <trkpt lat="43.2987670228" lon="-4.2381599732">
        <ele>143.85</ele>
        <time>2018-05-19T06:10:26Z</time>
      </trkpt>
      <trkpt lat="43.2986423001" lon="-4.2381721269">
        <ele>143.85</ele>
        <time>2018-05-19T06:10:28Z</time>
      </trkpt>
      <trkpt lat="43.2985117100" lon="-4.2381831072">
        <ele>143.85</ele>
        <time>2018-05-19T06:10:30Z</time>
      </trkpt>
      <trkpt lat="43.2984119654" lon="-4.2381874658">
        <ele>143.85</ele>
        <time>2018-05-19T06:10:32Z</time>
      </trkpt>
      <trkpt lat="43.2982955407" lon="-4.2381904833">
        <ele>143.85</ele>
        <time>2018-05-19T06:10:34Z</time>
      </trkpt>
      <trkpt lat="43.2981782779" lon="-4.2382017151">
        <ele>143.85</ele>
        <time>2018-05-19T06:10:36Z</time>
      </trkpt>
      <trkpt lat="43.2980523817" lon="-4.2382117733">
        <ele>143.85</ele>
        <time>2018-05-19T06:10:38Z</time>
      </trkpt>
      <trkpt lat="43.2979355380" lon="-4.2382216640">
        <ele>143.85</ele>
        <time>2018-05-19T06:10:40Z</time>
      </trkpt>
      <trkpt lat="43.2978096418" lon="-4.2382358294">
        <ele>144.34</ele>
        <time>2018-05-19T06:10:42Z</time>
      </trkpt>
      <trkpt lat="43.2976936363" lon="-4.2382463068">
        <ele>144.34</ele>
        <time>2018-05-19T06:10:44Z</time>
      </trkpt>
      <trkpt lat="43.2975731883" lon="-4.2382598016">
        <ele>144.34</ele>
        <time>2018-05-19T06:10:46Z</time>
      </trkpt>
      <trkpt lat="43.2974467054" lon="-4.2382742185">
        <ele>144.34</ele>
        <time>2018-05-19T06:10:48Z</time>
      </trkpt>
      <trkpt lat="43.2973156124" lon="-4.2382881325">
        <ele>144.34</ele>
        <time>2018-05-19T06:10:50Z</time>
      </trkpt>
      <trkpt lat="43.2972120121" lon="-4.2382963467">
        <ele>144.34</ele>
        <time>2018-05-19T06:10:52Z</time>
      </trkpt>
      <trkpt lat="43.2970884629" lon="-4.2383069918">
        <ele>144.34</ele>
        <time>2018-05-19T06:10:54Z</time>
      </trkpt>
      <trkpt lat="43.2969656680" lon="-4.2383152060">
        <ele>144.34</ele>
        <time>2018-05-19T06:10:56Z</time>
      </trkpt>
      <trkpt lat="43.2968340721" lon="-4.2383283656">
        <ele>144.82</ele>
        <time>2018-05-19T06:10:58Z</time>
      </trkpt>
      <trkpt lat="43.2967146300" lon="-4.2383423634">
        <ele>144.82</ele>
        <time>2018-05-19T06:11:00Z</time>
      </trkpt>
      <trkpt lat="43.2965930086" lon="-4.2383516673">
        <ele>145.30</ele>
        <time>2018-05-19T06:11:02Z</time>
      </trkpt>
      <trkpt lat="43.2964706328" lon="-4.2383632343">
        <ele>145.30</ele>
        <time>2018-05-19T06:11:04Z</time>
      </trkpt>
      <trkpt lat="43.2963474188" lon="-4.2383679282">
        <ele>145.30</ele>
        <time>2018-05-19T06:11:06Z</time>
      </trkpt>
      <trkpt lat="43.2962201815" lon="-4.2383598816">
        <ele>145.30</ele>
        <time>2018-05-19T06:11:08Z</time>
      </trkpt>
      <trkpt lat="43.2961018290" lon="-4.2383475602">
        <ele>145.30</ele>
        <time>2018-05-19T06:11:10Z</time>
      </trkpt>
      <trkpt lat="43.2959816325" lon="-4.2383277789">
        <ele>145.30</ele>
        <time>2018-05-19T06:11:12Z</time>
      </trkpt>
      <trkpt lat="43.2958611846" lon="-4.2383026332">
        <ele>145.30</ele>
        <time>2018-05-19T06:11:14Z</time>
      </trkpt>
      <trkpt lat="43.2957470231" lon="-4.2382615618">
        <ele>146.26</ele>
        <time>2018-05-19T06:11:16Z</time>
      </trkpt>
      <trkpt lat="43.2956214622" lon="-4.2381949257">
        <ele>146.26</ele>
        <time>2018-05-19T06:11:18Z</time>
      </trkpt>
      <trkpt lat="43.2955264114" lon="-4.2381340731">
        <ele>146.74</ele>
        <time>2018-05-19T06:11:20Z</time>
      </trkpt>
      <trkpt lat="43.2954244036" lon="-4.2380642518">
        <ele>146.74</ele>
        <time>2018-05-19T06:11:22Z</time>
      </trkpt>
      <trkpt lat="43.2953046262" lon="-4.2379887309">
        <ele>146.74</ele>
        <time>2018-05-19T06:11:24Z</time>
      </trkpt>
      <trkpt lat="43.2952077314" lon="-4.2379277106">
        <ele>146.74</ele>
        <time>2018-05-19T06:11:26Z</time>
      </trkpt>
      <trkpt lat="43.2950889599" lon="-4.2378562968">
        <ele>146.26</ele>
        <time>2018-05-19T06:11:28Z</time>
      </trkpt>
      <trkpt lat="43.2949929032" lon="-4.2377954442">
        <ele>146.26</ele>
        <time>2018-05-19T06:11:30Z</time>
      </trkpt>
      <trkpt lat="43.2949061505" lon="-4.2377442308">
        <ele>146.26</ele>
        <time>2018-05-19T06:11:32Z</time>
      </trkpt>
      <trkpt lat="43.2948106807" lon="-4.2376860604">
        <ele>146.26</ele>
        <time>2018-05-19T06:11:34Z</time>
      </trkpt>
      <trkpt lat="43.2947096787" lon="-4.2376154847">
        <ele>146.26</ele>
        <time>2018-05-19T06:11:36Z</time>
      </trkpt>
      <trkpt lat="43.2946049888" lon="-4.2375359405">
        <ele>146.26</ele>
        <time>2018-05-19T06:11:38Z</time>
      </trkpt>
      <trkpt lat="43.2945098542" lon="-4.2374247964">
        <ele>146.26</ele>
        <time>2018-05-19T06:11:40Z</time>
      </trkpt>
      <trkpt lat="43.2944472414" lon="-4.2373101320">
        <ele>146.26</ele>
        <time>2018-05-19T06:11:42Z</time>
      </trkpt>
      <trkpt lat="43.2943776716" lon="-4.2371821404">
        <ele>146.26</ele>
        <time>2018-05-19T06:11:44Z</time>
      </trkpt>
      <trkpt lat="43.2942961995" lon="-4.2370599322">
        <ele>146.26</ele>
        <time>2018-05-19T06:11:46Z</time>
      </trkpt>
      <trkpt lat="43.2942029927" lon="-4.2369576730">
        <ele>146.26</ele>
        <time>2018-05-19T06:11:48Z</time>
      </trkpt>
      <trkpt lat="43.2940912619" lon="-4.2368531507">
        <ele>146.74</ele>
        <time>2018-05-19T06:11:50Z</time>
      </trkpt>
      <trkpt lat="43.2939966302" lon="-4.2367777135">
        <ele>146.74</ele>
        <time>2018-05-19T06:11:52Z</time>
      </trkpt>
      <trkpt lat="43.2938847318" lon="-4.2367011029">
        <ele>146.74</ele>
        <time>2018-05-19T06:11:54Z</time>
      </trkpt>
      <trkpt lat="43.2937749289" lon="-4.2366251629">
        <ele>146.74</ele>
        <time>2018-05-19T06:11:56Z</time>
      </trkpt>
      <trkpt lat="43.2936600130" lon="-4.2365498096">
        <ele>146.74</ele>
        <time>2018-05-19T06:11:58Z</time>
      </trkpt>
      <trkpt lat="43.2935354579" lon="-4.2364672478">
        <ele>146.74</ele>
        <time>2018-05-19T06:12:00Z</time>
      </trkpt>
      <trkpt lat="43.2934331987" lon="-4.2363949958">
        <ele>147.22</ele>
        <time>2018-05-19T06:12:02Z</time>
      </trkpt>
      <trkpt lat="43.2933194563" lon="-4.2363186367">
        <ele>147.22</ele>
        <time>2018-05-19T06:12:04Z</time>
      </trkpt>
      <trkpt lat="43.2932039537" lon="-4.2362423614">
        <ele>147.22</ele>
        <time>2018-05-19T06:12:06Z</time>
      </trkpt>
      <trkpt lat="43.2930889539" lon="-4.2361669242">
        <ele>147.22</ele>
        <time>2018-05-19T06:12:08Z</time>
      </trkpt>
      <trkpt lat="43.2929784805" lon="-4.2360955942">
        <ele>147.22</ele>
        <time>2018-05-19T06:12:10Z</time>
      </trkpt>
      <trkpt lat="43.2928684261" lon="-4.2360252701">
        <ele>147.22</ele>
        <time>2018-05-19T06:12:12Z</time>
      </trkpt>
      <trkpt lat="43.2927456312" lon="-4.2359656747">
        <ele>147.22</ele>
        <time>2018-05-19T06:12:14Z</time>
      </trkpt>
      <trkpt lat="43.2926272787" lon="-4.2359160539">
        <ele>147.22</ele>
        <time>2018-05-19T06:12:16Z</time>
      </trkpt>
      <trkpt lat="43.2924934197" lon="-4.2358779162">
        <ele>147.70</ele>
        <time>2018-05-19T06:12:18Z</time>
      </trkpt>
      <trkpt lat="43.2923911605" lon="-4.2358666006">
        <ele>147.70</ele>
        <time>2018-05-19T06:12:20Z</time>
      </trkpt>
      <trkpt lat="43.2922417112" lon="-4.2358604819">
        <ele>148.66</ele>
        <time>2018-05-19T06:12:23Z</time>
      </trkpt>
      <trkpt lat="43.2920940220" lon="-4.2358728871">
        <ele>148.66</ele>
        <time>2018-05-19T06:12:25Z</time>
      </trkpt>
      <trkpt lat="43.2919765916" lon="-4.2358769942">
        <ele>148.66</ele>
        <time>2018-05-19T06:12:27Z</time>
      </trkpt>
      <trkpt lat="43.2918631006" lon="-4.2358820233">
        <ele>149.14</ele>
        <time>2018-05-19T06:12:29Z</time>
      </trkpt>
      <trkpt lat="43.2917473465" lon="-4.2358842026">
        <ele>149.14</ele>
        <time>2018-05-19T06:12:31Z</time>
      </trkpt>
      <trkpt lat="43.2916234620" lon="-4.2358832806">
        <ele>149.14</ele>
        <time>2018-05-19T06:12:33Z</time>
      </trkpt>
      <trkpt lat="43.2915015053" lon="-4.2358822748">
        <ele>149.62</ele>
        <time>2018-05-19T06:12:35Z</time>
      </trkpt>
      <trkpt lat="43.2913763635" lon="-4.2358811013">
        <ele>149.62</ele>
        <time>2018-05-19T06:12:37Z</time>
      </trkpt>
      <trkpt lat="43.2912618667" lon="-4.2358811852">
        <ele>149.62</ele>
        <time>2018-05-19T06:12:39Z</time>
      </trkpt>
      <trkpt lat="43.2911441848" lon="-4.2358810175">
        <ele>149.62</ele>
        <time>2018-05-19T06:12:41Z</time>
      </trkpt>
      <trkpt lat="43.2910208870" lon="-4.2358829454">
        <ele>149.62</ele>
        <time>2018-05-19T06:12:43Z</time>
      </trkpt>
      <trkpt lat="43.2909005228" lon="-4.2358847056">
        <ele>149.62</ele>
        <time>2018-05-19T06:12:45Z</time>
      </trkpt>
      <trkpt lat="43.2907798234" lon="-4.2358868849">
        <ele>149.62</ele>
        <time>2018-05-19T06:12:47Z</time>
      </trkpt>
      <trkpt lat="43.2906561904" lon="-4.2358891480">
        <ele>150.58</ele>
        <time>2018-05-19T06:12:49Z</time>
      </trkpt>
      <trkpt lat="43.2905345690" lon="-4.2358916625">
        <ele>151.06</ele>
        <time>2018-05-19T06:12:51Z</time>
      </trkpt>
      <trkpt lat="43.2904071640" lon="-4.2358909920">
        <ele>151.06</ele>
        <time>2018-05-19T06:12:53Z</time>
      </trkpt>
      <trkpt lat="43.2902817708" lon="-4.2358906567">
        <ele>151.06</ele>
        <time>2018-05-19T06:12:55Z</time>
      </trkpt>
      <trkpt lat="43.2901486661" lon="-4.2358926684">
        <ele>151.06</ele>
        <time>2018-05-19T06:12:57Z</time>
      </trkpt>
      <trkpt lat="43.2900340855" lon="-4.2358989548">
        <ele>151.06</ele>
        <time>2018-05-19T06:12:59Z</time>
      </trkpt>
      <trkpt lat="43.2899084408" lon="-4.2359011341">
        <ele>151.06</ele>
        <time>2018-05-19T06:13:01Z</time>
      </trkpt>
      <trkpt lat="43.2897879090" lon="-4.2359045707">
        <ele>151.54</ele>
        <time>2018-05-19T06:13:03Z</time>
      </trkpt>
      <trkpt lat="43.2896639407" lon="-4.2359054927">
        <ele>151.54</ele>
        <time>2018-05-19T06:13:05Z</time>
      </trkpt>
      <trkpt lat="43.2895313390" lon="-4.2359119467">
        <ele>151.54</ele>
        <time>2018-05-19T06:13:07Z</time>
      </trkpt>
      <trkpt lat="43.2894306723" lon="-4.2359140422">
        <ele>151.54</ele>
        <time>2018-05-19T06:13:09Z</time>
      </trkpt>
      <trkpt lat="43.2893108949" lon="-4.2359133717">
        <ele>151.54</ele>
        <time>2018-05-19T06:13:11Z</time>
      </trkpt>
      <trkpt lat="43.2891856693" lon="-4.2359180655">
        <ele>152.51</ele>
        <time>2018-05-19T06:13:13Z</time>
      </trkpt>
      <trkpt lat="43.2890940551" lon="-4.2359223403">
        <ele>152.51</ele>
        <time>2018-05-19T06:13:15Z</time>
      </trkpt>
      <trkpt lat="43.2890013512" lon="-4.2359529343">
        <ele>152.99</ele>
        <time>2018-05-19T06:13:17Z</time>
      </trkpt>
      <trkpt lat="43.2889258303" lon="-4.2360655032">
        <ele>152.99</ele>
        <time>2018-05-19T06:13:19Z</time>
      </trkpt>
      <trkpt lat="43.2888928894" lon="-4.2361836042">
        <ele>151.54</ele>
        <time>2018-05-19T06:13:21Z</time>
      </trkpt>
      <trkpt lat="43.2888528239" lon="-4.2363213189">
        <ele>151.54</ele>
        <time>2018-05-19T06:13:23Z</time>
      </trkpt>
      <trkpt lat="43.2888094895" lon="-4.2364507355">
        <ele>151.54</ele>
        <time>2018-05-19T06:13:25Z</time>
      </trkpt>
      <trkpt lat="43.2887607906" lon="-4.2365857679">
        <ele>151.54</ele>
        <time>2018-05-19T06:13:27Z</time>
      </trkpt>
      <trkpt lat="43.2887177914" lon="-4.2367171124">
        <ele>151.54</ele>
        <time>2018-05-19T06:13:29Z</time>
      </trkpt>
      <trkpt lat="43.2886731159" lon="-4.2368534859">
        <ele>151.54</ele>
        <time>2018-05-19T06:13:31Z</time>
      </trkpt>
      <trkpt lat="43.2886366546" lon="-4.2369991634">
        <ele>152.99</ele>
        <time>2018-05-19T06:13:33Z</time>
      </trkpt>
      <trkpt lat="43.2886145264" lon="-4.2371596768">
        <ele>152.99</ele>
        <time>2018-05-19T06:13:35Z</time>
      </trkpt>
      <trkpt lat="43.2886074018" lon="-4.2373165023">
        <ele>152.99</ele>
        <time>2018-05-19T06:13:37Z</time>
      </trkpt>
      <trkpt lat="43.2885974273" lon="-4.2374877445">
        <ele>152.99</ele>
        <time>2018-05-19T06:13:39Z</time>
      </trkpt>
      <trkpt lat="43.2885786518" lon="-4.2376392055">
        <ele>152.99</ele>
        <time>2018-05-19T06:13:41Z</time>
      </trkpt>
      <trkpt lat="43.2885468844" lon="-4.2377944384">
        <ele>152.99</ele>
        <time>2018-05-19T06:13:43Z</time>
      </trkpt>
      <trkpt lat="43.2885022927" lon="-4.2379407864">
        <ele>152.99</ele>
        <time>2018-05-19T06:13:45Z</time>
      </trkpt>
      <trkpt lat="43.2884515822" lon="-4.2381094303">
        <ele>152.99</ele>
        <time>2018-05-19T06:13:48Z</time>
      </trkpt>
      <trkpt lat="43.2883978542" lon="-4.2382673454">
        <ele>152.99</ele>
        <time>2018-05-19T06:13:51Z</time>
      </trkpt>
      <trkpt lat="43.2883240934" lon="-4.2384239193">
        <ele>152.99</ele>
        <time>2018-05-19T06:13:54Z</time>
      </trkpt>
      <trkpt lat="43.2882411964" lon="-4.2385827564">
        <ele>153.47</ele>
        <time>2018-05-19T06:13:57Z</time>
      </trkpt>
      <trkpt lat="43.2881855406" lon="-4.2386982590">
        <ele>153.47</ele>
        <time>2018-05-19T06:14:00Z</time>
      </trkpt>
      <trkpt lat="43.2881350815" lon="-4.2388381530">
        <ele>153.47</ele>
        <time>2018-05-19T06:14:03Z</time>
      </trkpt>
      <trkpt lat="43.2881003805" lon="-4.2389688268">
        <ele>153.47</ele>
        <time>2018-05-19T06:14:06Z</time>
      </trkpt>
      <trkpt lat="43.2880691160" lon="-4.2391191144">
        <ele>153.47</ele>
        <time>2018-05-19T06:14:09Z</time>
      </trkpt>
      <trkpt lat="43.2880385220" lon="-4.2392360419">
        <ele>153.47</ele>
        <time>2018-05-19T06:14:13Z</time>
      </trkpt>
      <trkpt lat="43.2880011387" lon="-4.2393756844">
        <ele>153.95</ele>
        <time>2018-05-19T06:14:18Z</time>
      </trkpt>
      <trkpt lat="43.2879585586" lon="-4.2395035923">
        <ele>153.95</ele>
        <time>2018-05-19T06:14:25Z</time>
      </trkpt>
      <trkpt lat="43.2879178226" lon="-4.2396234535">
        <ele>153.95</ele>
        <time>2018-05-19T06:14:34Z</time>
      </trkpt>
      <trkpt lat="43.2878780086" lon="-4.2397399619">
        <ele>154.91</ele>
        <time>2018-05-19T06:14:43Z</time>
      </trkpt>
      <trkpt lat="43.2878250349" lon="-4.2398569733">
        <ele>155.39</ele>
        <time>2018-05-19T06:14:53Z</time>
      </trkpt>
      <trkpt lat="43.2877805270" lon="-4.2399920058">
        <ele>155.87</ele>
        <time>2018-05-19T06:15:02Z</time>
      </trkpt>
      <trkpt lat="43.2877324149" lon="-4.2401289660">
        <ele>155.87</ele>
        <time>2018-05-19T06:15:08Z</time>
      </trkpt>
      <trkpt lat="43.2876998093" lon="-4.2402727995">
        <ele>155.87</ele>
        <time>2018-05-19T06:15:14Z</time>
      </trkpt>
      <trkpt lat="43.2876800280" lon="-4.2403890565">
        <ele>155.87</ele>
        <time>2018-05-19T06:15:27Z</time>
      </trkpt>
      <trkpt lat="43.2876550499" lon="-4.2405106779">
        <ele>155.87</ele>
        <time>2018-05-19T06:16:00Z</time>
      </trkpt>
      <trkpt lat="43.2876312453" lon="-4.2406350654">
        <ele>155.39</ele>
        <time>2018-05-19T06:16:31Z</time>
      </trkpt>
      <trkpt lat="43.2876523677" lon="-4.2407688405">
        <ele>155.39</ele>
        <time>2018-05-19T06:17:09Z</time>
      </trkpt>
      <trkpt lat="43.2876391243" lon="-4.2408669088">
        <ele>155.39</ele>
        <time>2018-05-19T06:17:50Z</time>
      </trkpt>
      <trkpt lat="43.2876173314" lon="-4.2409835011">
        <ele>155.39</ele>
        <time>2018-05-19T06:18:09Z</time>
      </trkpt>
      <trkpt lat="43.2875850610" lon="-4.2411197908">
        <ele>155.39</ele>
        <time>2018-05-19T06:18:18Z</time>
      </trkpt>
      <trkpt lat="43.2875542156" lon="-4.2412440944">
        <ele>155.39</ele>
        <time>2018-05-19T06:18:23Z</time>
      </trkpt>
      <trkpt lat="43.2875390444" lon="-4.2413770314">
        <ele>155.39</ele>
        <time>2018-05-19T06:18:27Z</time>
      </trkpt>
      <trkpt lat="43.2875252981" lon="-4.2415007483">
        <ele>155.87</ele>
        <time>2018-05-19T06:18:30Z</time>
      </trkpt>
      <trkpt lat="43.2875071093" lon="-4.2416448332">
        <ele>155.87</ele>
        <time>2018-05-19T06:18:33Z</time>
      </trkpt>
      <trkpt lat="43.2874881662" lon="-4.2417796981">
        <ele>155.87</ele>
        <time>2018-05-19T06:18:36Z</time>
      </trkpt>
      <trkpt lat="43.2874776889" lon="-4.2419216875">
        <ele>155.87</ele>
        <time>2018-05-19T06:18:39Z</time>
      </trkpt>
      <trkpt lat="43.2874647807" lon="-4.2420847993">
        <ele>156.35</ele>
        <time>2018-05-19T06:18:42Z</time>
      </trkpt>
      <trkpt lat="43.2874531299" lon="-4.2422442231">
        <ele>156.35</ele>
        <time>2018-05-19T06:18:45Z</time>
      </trkpt>
      <trkpt lat="43.2874232903" lon="-4.2424163036">
        <ele>156.83</ele>
        <time>2018-05-19T06:18:48Z</time>
      </trkpt>
      <trkpt lat="43.2874081191" lon="-4.2425914854">
        <ele>156.83</ele>
        <time>2018-05-19T06:18:51Z</time>
      </trkpt>
      <trkpt lat="43.2874251343" lon="-4.2427125201">
        <ele>157.31</ele>
        <time>2018-05-19T06:18:54Z</time>
      </trkpt>
      <trkpt lat="43.2874633558" lon="-4.2428379133">
        <ele>157.79</ele>
        <time>2018-05-19T06:18:59Z</time>
      </trkpt>
      <trkpt lat="43.2875086181" lon="-4.2429576069">
        <ele>158.27</ele>
        <time>2018-05-19T06:19:09Z</time>
      </trkpt>
      <trkpt lat="43.2875562273" lon="-4.2430619616">
        <ele>158.27</ele>
        <time>2018-05-19T06:19:19Z</time>
      </trkpt>
      <trkpt lat="43.2875640225" lon="-4.2431677412">
        <ele>158.75</ele>
        <time>2018-05-19T06:19:35Z</time>
      </trkpt>
      <trkpt lat="43.2874987274" lon="-4.2432536557">
        <ele>158.27</ele>
        <time>2018-05-19T06:19:53Z</time>
      </trkpt>
      <trkpt lat="43.2874247152" lon="-4.2433302663">
        <ele>158.75</ele>
        <time>2018-05-19T06:20:17Z</time>
      </trkpt>
      <trkpt lat="43.2873448357" lon="-4.2433789652">
        <ele>158.75</ele>
        <time>2018-05-19T06:20:35Z</time>
      </trkpt>
      <trkpt lat="43.2872858271" lon="-4.2434662208">
        <ele>158.75</ele>
        <time>2018-05-19T06:20:45Z</time>
      </trkpt>
      <trkpt lat="43.2872488629" lon="-4.2435885128">
        <ele>160.68</ele>
        <time>2018-05-19T06:20:57Z</time>
      </trkpt>
      <trkpt lat="43.2872017566" lon="-4.2437040154">
        <ele>162.60</ele>
        <time>2018-05-19T06:21:08Z</time>
      </trkpt>
      <trkpt lat="43.2871502079" lon="-4.2438242119">
        <ele>164.52</ele>
        <time>2018-05-19T06:21:19Z</time>
      </trkpt>
      <trkpt lat="43.2870875113" lon="-4.2439406365">
        <ele>165.96</ele>
        <time>2018-05-19T06:21:29Z</time>
      </trkpt>
      <trkpt lat="43.2870658021" lon="-4.2440613359">
        <ele>166.45</ele>
        <time>2018-05-19T06:21:40Z</time>
      </trkpt>
      <trkpt lat="43.2870757766" lon="-4.2442052532">
        <ele>166.45</ele>
        <time>2018-05-19T06:21:52Z</time>
      </trkpt>
      <trkpt lat="43.2871082984" lon="-4.2443330772">
        <ele>166.45</ele>
        <time>2018-05-19T06:22:04Z</time>
      </trkpt>
      <trkpt lat="43.2871485315" lon="-4.2444612365">
        <ele>166.93</ele>
        <time>2018-05-19T06:22:17Z</time>
      </trkpt>
      <trkpt lat="43.2871917821" lon="-4.2446012143">
        <ele>167.41</ele>
        <time>2018-05-19T06:22:27Z</time>
      </trkpt>
      <trkpt lat="43.2872417383" lon="-4.2447279487">
        <ele>167.89</ele>
        <time>2018-05-19T06:22:36Z</time>
      </trkpt>
      <trkpt lat="43.2872906886" lon="-4.2448349856">
        <ele>167.89</ele>
        <time>2018-05-19T06:22:45Z</time>
      </trkpt>
      <trkpt lat="43.2873600069" lon="-4.2449375801">
        <ele>167.89</ele>
        <time>2018-05-19T06:22:56Z</time>
      </trkpt>
      <trkpt lat="43.2874213625" lon="-4.2450389173">
        <ele>167.89</ele>
        <time>2018-05-19T06:23:05Z</time>
      </trkpt>
      <trkpt lat="43.2874954585" lon="-4.2451321241">
        <ele>167.89</ele>
        <time>2018-05-19T06:23:16Z</time>
      </trkpt>
      <trkpt lat="43.2875580713" lon="-4.2452490516">
        <ele>167.89</ele>
        <time>2018-05-19T06:23:31Z</time>
      </trkpt>
      <trkpt lat="43.2875926886" lon="-4.2453729361">
        <ele>168.37</ele>
        <time>2018-05-19T06:23:44Z</time>
      </trkpt>
      <trkpt lat="43.2875772659" lon="-4.2454926297">
        <ele>169.33</ele>
        <time>2018-05-19T06:23:59Z</time>
      </trkpt>
      <trkpt lat="43.2875154912" lon="-4.2456110660">
        <ele>170.77</ele>
        <time>2018-05-19T06:24:12Z</time>
      </trkpt>
      <trkpt lat="43.2874550577" lon="-4.2457017582">
        <ele>172.21</ele>
        <time>2018-05-19T06:24:21Z</time>
      </trkpt>
      <trkpt lat="43.2873855717" lon="-4.2457874212">
        <ele>173.66</ele>
        <time>2018-05-19T06:24:29Z</time>
      </trkpt>
      <trkpt lat="43.2873070333" lon="-4.2458883394">
        <ele>175.58</ele>
        <time>2018-05-19T06:24:37Z</time>
      </trkpt>
      <trkpt lat="43.2872530539" lon="-4.2459973041">
        <ele>177.98</ele>
        <time>2018-05-19T06:24:45Z</time>
      </trkpt>
      <trkpt lat="43.2872036006" lon="-4.2461132258">
        <ele>179.90</ele>
        <time>2018-05-19T06:24:54Z</time>
      </trkpt>
      <trkpt lat="43.2871884294" lon="-4.2462699674">
        <ele>181.35</ele>
        <time>2018-05-19T06:25:04Z</time>
      </trkpt>
      <trkpt lat="43.2871898543" lon="-4.2463957798">
        <ele>183.27</ele>
        <time>2018-05-19T06:25:12Z</time>
      </trkpt>
      <trkpt lat="43.2871838193" lon="-4.2465453967">
        <ele>184.71</ele>
        <time>2018-05-19T06:25:20Z</time>
      </trkpt>
      <trkpt lat="43.2871740963" lon="-4.2466817703">
        <ele>187.11</ele>
        <time>2018-05-19T06:25:29Z</time>
      </trkpt>
      <trkpt lat="43.2871463522" lon="-4.2468244303">
        <ele>188.08</ele>
        <time>2018-05-19T06:25:39Z</time>
      </trkpt>
      <trkpt lat="43.2871146686" lon="-4.2469610553">
        <ele>189.52</ele>
        <time>2018-05-19T06:25:49Z</time>
      </trkpt>
      <trkpt lat="43.2870742679" lon="-4.2470921483">
        <ele>190.48</ele>
        <time>2018-05-19T06:26:00Z</time>
      </trkpt>
      <trkpt lat="43.2870188635" lon="-4.2472091597">
        <ele>192.40</ele>
        <time>2018-05-19T06:26:10Z</time>
      </trkpt>
      <trkpt lat="43.2869753614" lon="-4.2473349720">
        <ele>193.36</ele>
        <time>2018-05-19T06:26:20Z</time>
      </trkpt>
      <trkpt lat="43.2869223878" lon="-4.2474668194">
        <ele>194.80</ele>
        <time>2018-05-19T06:26:30Z</time>
      </trkpt>
      <trkpt lat="43.2868790533" lon="-4.2475847527">
        <ele>196.25</ele>
        <time>2018-05-19T06:26:37Z</time>
      </trkpt>
      <trkpt lat="43.2868337072" lon="-4.2477251496">
        <ele>197.69</ele>
        <time>2018-05-19T06:26:45Z</time>
      </trkpt>
      <trkpt lat="43.2867933903" lon="-4.2478389759">
        <ele>198.65</ele>
        <time>2018-05-19T06:26:53Z</time>
      </trkpt>
      <trkpt lat="43.2867488824" lon="-4.2479622737">
        <ele>200.09</ele>
        <time>2018-05-19T06:27:01Z</time>
      </trkpt>
      <trkpt lat="43.2866935618" lon="-4.2480811290">
        <ele>202.01</ele>
        <time>2018-05-19T06:27:09Z</time>
      </trkpt>
      <trkpt lat="43.2866420969" lon="-4.2481975537">
        <ele>203.94</ele>
        <time>2018-05-19T06:27:17Z</time>
      </trkpt>
      <trkpt lat="43.2865881175" lon="-4.2483134754">
        <ele>206.34</ele>
        <time>2018-05-19T06:27:26Z</time>
      </trkpt>
      <trkpt lat="43.2865395863" lon="-4.2484283913">
        <ele>207.78</ele>
        <time>2018-05-19T06:27:34Z</time>
      </trkpt>
      <trkpt lat="43.2865022030" lon="-4.2485654354">
        <ele>209.22</ele>
        <time>2018-05-19T06:27:44Z</time>
      </trkpt>
      <trkpt lat="43.2864911389" lon="-4.2486992944">
        <ele>210.67</ele>
        <time>2018-05-19T06:27:55Z</time>
      </trkpt>
      <trkpt lat="43.2865022868" lon="-4.2488282081">
        <ele>212.11</ele>
        <time>2018-05-19T06:28:06Z</time>
      </trkpt>
      <trkpt lat="43.2865343895" lon="-4.2489471473">
        <ele>213.55</ele>
        <time>2018-05-19T06:28:18Z</time>
      </trkpt>
      <trkpt lat="43.2865669113" lon="-4.2490613926">
        <ele>214.99</ele>
        <time>2018-05-19T06:28:28Z</time>
      </trkpt>
      <trkpt lat="43.2866002712" lon="-4.2491811700">
        <ele>216.43</ele>
        <time>2018-05-19T06:28:37Z</time>
      </trkpt>
      <trkpt lat="43.2866342179" lon="-4.2493199743">
        <ele>218.36</ele>
        <time>2018-05-19T06:28:46Z</time>
      </trkpt>
      <trkpt lat="43.2866732776" lon="-4.2494475469">
        <ele>219.80</ele>
        <time>2018-05-19T06:28:54Z</time>
      </trkpt>
      <trkpt lat="43.2867130078" lon="-4.2495621275">
        <ele>220.76</ele>
        <time>2018-05-19T06:29:01Z</time>
      </trkpt>
      <trkpt lat="43.2867586054" lon="-4.2496745288">
        <ele>222.68</ele>
        <time>2018-05-19T06:29:08Z</time>
      </trkpt>
      <trkpt lat="43.2868140936" lon="-4.2497855052">
        <ele>224.12</ele>
        <time>2018-05-19T06:29:15Z</time>
      </trkpt>
      <trkpt lat="43.2868680730" lon="-4.2499026004">
        <ele>226.05</ele>
        <time>2018-05-19T06:29:22Z</time>
      </trkpt>
      <trkpt lat="43.2868956495" lon="-4.2500383034">
        <ele>227.49</ele>
        <time>2018-05-19T06:29:29Z</time>
      </trkpt>
      <trkpt lat="43.2868891116" lon="-4.2501635291">
        <ele>229.41</ele>
        <time>2018-05-19T06:29:36Z</time>
      </trkpt>
      <trkpt lat="43.2868663967" lon="-4.2502970528">
        <ele>231.33</ele>
        <time>2018-05-19T06:29:44Z</time>
      </trkpt>
      <trkpt lat="43.2868343778" lon="-4.2504313309">
        <ele>232.78</ele>
        <time>2018-05-19T06:29:53Z</time>
      </trkpt>
      <trkpt lat="43.2867960725" lon="-4.2505629268">
        <ele>235.18</ele>
        <time>2018-05-19T06:30:01Z</time>
      </trkpt>
      <trkpt lat="43.2867536601" lon="-4.2506938521">
        <ele>236.62</ele>
        <time>2018-05-19T06:30:08Z</time>
      </trkpt>
      <trkpt lat="43.2867166959" lon="-4.2508335784">
        <ele>238.06</ele>
        <time>2018-05-19T06:30:14Z</time>
      </trkpt>
      <trkpt lat="43.2866891194" lon="-4.2509793397">
        <ele>239.51</ele>
        <time>2018-05-19T06:30:21Z</time>
      </trkpt>
      <trkpt lat="43.2866785582" lon="-4.2511277832">
        <ele>240.47</ele>
        <time>2018-05-19T06:30:28Z</time>
      </trkpt>
      <trkpt lat="43.2866949867" lon="-4.2512918171">
        <ele>242.39</ele>
        <time>2018-05-19T06:30:35Z</time>
      </trkpt>
      <trkpt lat="43.2867311966" lon="-4.2514423560">
        <ele>243.83</ele>
        <time>2018-05-19T06:30:42Z</time>
      </trkpt>
      <trkpt lat="43.2867724355" lon="-4.2515863571">
        <ele>245.75</ele>
        <time>2018-05-19T06:30:49Z</time>
      </trkpt>
      <trkpt lat="43.2868227270" lon="-4.2517056316">
        <ele>246.72</ele>
        <time>2018-05-19T06:30:55Z</time>
      </trkpt>
      <trkpt lat="43.2868856750" lon="-4.2518311087">
        <ele>248.64</ele>
        <time>2018-05-19T06:31:01Z</time>
      </trkpt>
      <trkpt lat="43.2869485393" lon="-4.2519341223">
        <ele>249.60</ele>
        <time>2018-05-19T06:31:06Z</time>
      </trkpt>
      <trkpt lat="43.2870234735" lon="-4.2520421650">
        <ele>250.08</ele>
        <time>2018-05-19T06:31:11Z</time>
      </trkpt>
      <trkpt lat="43.2871077955" lon="-4.2521356232">
        <ele>250.56</ele>
        <time>2018-05-19T06:31:16Z</time>
      </trkpt>
      <trkpt lat="43.2871907763" lon="-4.2522006668">
        <ele>251.52</ele>
        <time>2018-05-19T06:31:21Z</time>
      </trkpt>
      <trkpt lat="43.2872931194" lon="-4.2522491142">
        <ele>252.00</ele>
        <time>2018-05-19T06:31:25Z</time>
      </trkpt>
      <trkpt lat="43.2874001563" lon="-4.2522820551">
        <ele>252.96</ele>
        <time>2018-05-19T06:31:29Z</time>
      </trkpt>
      <trkpt lat="43.2875076961" lon="-4.2523298319">
        <ele>253.93</ele>
        <time>2018-05-19T06:31:34Z</time>
      </trkpt>
      <trkpt lat="43.2876182534" lon="-4.2524142377">
        <ele>255.85</ele>
        <time>2018-05-19T06:31:40Z</time>
      </trkpt>
      <trkpt lat="43.2877026591" lon="-4.2525103781">
        <ele>257.29</ele>
        <time>2018-05-19T06:31:45Z</time>
      </trkpt>
      <trkpt lat="43.2877677027" lon="-4.2526385374">
        <ele>258.25</ele>
        <time>2018-05-19T06:31:50Z</time>
      </trkpt>
      <trkpt lat="43.2878096960" lon="-4.2527802754">
        <ele>259.69</ele>
        <time>2018-05-19T06:31:55Z</time>
      </trkpt>
      <trkpt lat="43.2878358476" lon="-4.2529218458">
        <ele>260.65</ele>
        <time>2018-05-19T06:31:59Z</time>
      </trkpt>
      <trkpt lat="43.2878401224" lon="-4.2530484963">
        <ele>261.14</ele>
        <time>2018-05-19T06:32:03Z</time>
      </trkpt>
      <trkpt lat="43.2877984643" lon="-4.2531713750">
        <ele>261.62</ele>
        <time>2018-05-19T06:32:07Z</time>
      </trkpt>
      <trkpt lat="43.2877234463" lon="-4.2532591335">
        <ele>262.10</ele>
        <time>2018-05-19T06:32:11Z</time>
      </trkpt>
      <trkpt lat="43.2876248751" lon="-4.2533528432">
        <ele>262.10</ele>
        <time>2018-05-19T06:32:15Z</time>
      </trkpt>
      <trkpt lat="43.2875385415" lon="-4.2534453794">
        <ele>262.58</ele>
        <time>2018-05-19T06:32:18Z</time>
      </trkpt>
      <trkpt lat="43.2874613442" lon="-4.2535289470">
        <ele>262.58</ele>
        <time>2018-05-19T06:32:21Z</time>
      </trkpt>
      <trkpt lat="43.2874015812" lon="-4.2536327988">
        <ele>263.06</ele>
        <time>2018-05-19T06:32:24Z</time>
      </trkpt>
      <trkpt lat="43.2873760164" lon="-4.2537534144">
        <ele>263.54</ele>
        <time>2018-05-19T06:32:27Z</time>
      </trkpt>
      <trkpt lat="43.2873856556" lon="-4.2539179511">
        <ele>264.98</ele>
        <time>2018-05-19T06:32:31Z</time>
      </trkpt>
      <trkpt lat="43.2874194346" lon="-4.2540778778">
        <ele>265.46</ele>
        <time>2018-05-19T06:32:35Z</time>
      </trkpt>
      <trkpt lat="43.2874651160" lon="-4.2541939672">
        <ele>265.94</ele>
        <time>2018-05-19T06:32:38Z</time>
      </trkpt>
      <trkpt lat="43.2875185926" lon="-4.2543405667">
        <ele>266.42</ele>
        <time>2018-05-19T06:32:42Z</time>
      </trkpt>
      <trkpt lat="43.2875673752" lon="-4.2544682231">
        <ele>266.90</ele>
        <time>2018-05-19T06:32:45Z</time>
      </trkpt>
      <trkpt lat="43.2876107097" lon="-4.2546235397">
        <ele>266.90</ele>
        <time>2018-05-19T06:32:48Z</time>
      </trkpt>
      <trkpt lat="43.2876575645" lon="-4.2547598295">
        <ele>267.38</ele>
        <time>2018-05-19T06:32:51Z</time>
      </trkpt>
      <trkpt lat="43.2877056766" lon="-4.2549101170">
        <ele>267.86</ele>
        <time>2018-05-19T06:32:54Z</time>
      </trkpt>
      <trkpt lat="43.2877571415" lon="-4.2550846282">
        <ele>267.86</ele>
        <time>2018-05-19T06:32:57Z</time>
      </trkpt>
      <trkpt lat="43.2878073491" lon="-4.2552486621">
        <ele>267.86</ele>
        <time>2018-05-19T06:33:00Z</time>
      </trkpt>
      <trkpt lat="43.2878375240" lon="-4.2553748097">
        <ele>267.86</ele>
        <time>2018-05-19T06:33:02Z</time>
      </trkpt>
      <trkpt lat="43.2878522761" lon="-4.2555301264">
        <ele>267.86</ele>
        <time>2018-05-19T06:33:05Z</time>
      </trkpt>
      <trkpt lat="43.2878403738" lon="-4.2556532566">
        <ele>267.86</ele>
        <time>2018-05-19T06:33:10Z</time>
      </trkpt>
      <trkpt lat="43.2878272980" lon="-4.2557845172">
        <ele>267.86</ele>
        <time>2018-05-19T06:33:13Z</time>
      </trkpt>
      <trkpt lat="43.2878064271" lon="-4.2559686676">
        <ele>267.86</ele>
        <time>2018-05-19T06:33:16Z</time>
      </trkpt>
      <trkpt lat="43.2877866458" lon="-4.2561002634">
        <ele>266.90</ele>
        <time>2018-05-19T06:33:18Z</time>
      </trkpt>
      <trkpt lat="43.2877729833" lon="-4.2562467791">
        <ele>265.94</ele>
        <time>2018-05-19T06:33:20Z</time>
      </trkpt>
      <trkpt lat="43.2877964526" lon="-4.2564016767">
        <ele>264.98</ele>
        <time>2018-05-19T06:33:22Z</time>
      </trkpt>
      <trkpt lat="43.2878591493" lon="-4.2565548979">
        <ele>263.54</ele>
        <time>2018-05-19T06:33:24Z</time>
      </trkpt>
      <trkpt lat="43.2879573852" lon="-4.2567236256">
        <ele>262.58</ele>
        <time>2018-05-19T06:33:26Z</time>
      </trkpt>
      <trkpt lat="43.2880194951" lon="-4.2568227835">
        <ele>261.62</ele>
        <time>2018-05-19T06:33:27Z</time>
      </trkpt>
      <trkpt lat="43.2881084271" lon="-4.2569932714">
        <ele>259.69</ele>
        <time>2018-05-19T06:33:29Z</time>
      </trkpt>
      <trkpt lat="43.2881515939" lon="-4.2571077682">
        <ele>258.73</ele>
        <time>2018-05-19T06:33:30Z</time>
      </trkpt>
      <trkpt lat="43.2882098481" lon="-4.2573397793">
        <ele>258.73</ele>
        <time>2018-05-19T06:33:32Z</time>
      </trkpt>
      <trkpt lat="43.2882449683" lon="-4.2575840279">
        <ele>257.77</ele>
        <time>2018-05-19T06:33:34Z</time>
      </trkpt>
      <trkpt lat="43.2882852014" lon="-4.2578234989">
        <ele>257.77</ele>
        <time>2018-05-19T06:33:36Z</time>
      </trkpt>
      <trkpt lat="43.2883071620" lon="-4.2579373252">
        <ele>257.77</ele>
        <time>2018-05-19T06:33:37Z</time>
      </trkpt>
      <trkpt lat="43.2883311342" lon="-4.2581176199">
        <ele>257.77</ele>
        <time>2018-05-19T06:33:39Z</time>
      </trkpt>
      <trkpt lat="43.2883430365" lon="-4.2583005130">
        <ele>257.77</ele>
        <time>2018-05-19T06:33:41Z</time>
      </trkpt>
      <trkpt lat="43.2883306313" lon="-4.2584694922">
        <ele>259.21</ele>
        <time>2018-05-19T06:33:43Z</time>
      </trkpt>
      <trkpt lat="43.2882904820" lon="-4.2586137448">
        <ele>259.21</ele>
        <time>2018-05-19T06:33:45Z</time>
      </trkpt>
      <trkpt lat="43.2882375922" lon="-4.2587433290">
        <ele>259.69</ele>
        <time>2018-05-19T06:33:47Z</time>
      </trkpt>
      <trkpt lat="43.2881883066" lon="-4.2588467617">
        <ele>260.65</ele>
        <time>2018-05-19T06:33:49Z</time>
      </trkpt>
      <trkpt lat="43.2881312259" lon="-4.2589564808">
        <ele>262.10</ele>
        <time>2018-05-19T06:33:51Z</time>
      </trkpt>
      <trkpt lat="43.2880707923" lon="-4.2590850592">
        <ele>263.54</ele>
        <time>2018-05-19T06:33:54Z</time>
      </trkpt>
      <trkpt lat="43.2880101912" lon="-4.2591970414">
        <ele>264.02</ele>
        <time>2018-05-19T06:33:57Z</time>
      </trkpt>
      <trkpt lat="43.2879522722" lon="-4.2593023181">
        <ele>264.50</ele>
        <time>2018-05-19T06:34:00Z</time>
      </trkpt>
      <trkpt lat="43.2878969517" lon="-4.2594173178">
        <ele>264.98</ele>
        <time>2018-05-19T06:34:03Z</time>
      </trkpt>
      <trkpt lat="43.2878458221" lon="-4.2595220078">
        <ele>265.94</ele>
        <time>2018-05-19T06:34:06Z</time>
      </trkpt>
      <trkpt lat="43.2877896633" lon="-4.2596327327">
        <ele>266.42</ele>
        <time>2018-05-19T06:34:09Z</time>
      </trkpt>
      <trkpt lat="43.2877314929" lon="-4.2597328965">
        <ele>266.90</ele>
        <time>2018-05-19T06:34:12Z</time>
      </trkpt>
      <trkpt lat="43.2876643538" lon="-4.2598215770">
        <ele>267.38</ele>
        <time>2018-05-19T06:34:15Z</time>
      </trkpt>
      <trkpt lat="43.2875831332" lon="-4.2599064019">
        <ele>267.86</ele>
        <time>2018-05-19T06:34:18Z</time>
      </trkpt>
      <trkpt lat="43.2874987274" lon="-4.2599798273">
        <ele>268.83</ele>
        <time>2018-05-19T06:34:21Z</time>
      </trkpt>
      <trkpt lat="43.2874139864" lon="-4.2600583658">
        <ele>269.31</ele>
        <time>2018-05-19T06:34:24Z</time>
      </trkpt>
      <trkpt lat="43.2873174269" lon="-4.2601316236">
        <ele>269.79</ele>
        <time>2018-05-19T06:34:28Z</time>
      </trkpt>
      <trkpt lat="43.2872251421" lon="-4.2602117546">
        <ele>270.27</ele>
        <time>2018-05-19T06:34:32Z</time>
      </trkpt>
      <trkpt lat="43.2871523034" lon="-4.2603001837">
        <ele>270.75</ele>
        <time>2018-05-19T06:34:37Z</time>
      </trkpt>
      <trkpt lat="43.2870855834" lon="-4.2604141776">
        <ele>272.19</ele>
        <time>2018-05-19T06:34:44Z</time>
      </trkpt>
      <trkpt lat="43.2870291732" lon="-4.2605256569">
        <ele>274.11</ele>
        <time>2018-05-19T06:34:51Z</time>
      </trkpt>
      <trkpt lat="43.2869910356" lon="-4.2606414948">
        <ele>275.56</ele>
        <time>2018-05-19T06:34:58Z</time>
      </trkpt>
      <trkpt lat="43.2869699132" lon="-4.2607885972">
        <ele>277.00</ele>
        <time>2018-05-19T06:35:05Z</time>
      </trkpt>
      <trkpt lat="43.2869665604" lon="-4.2609282397">
        <ele>279.40</ele>
        <time>2018-05-19T06:35:12Z</time>
      </trkpt>
      <trkpt lat="43.2869859226" lon="-4.2610745877">
        <ele>280.84</ele>
        <time>2018-05-19T06:35:18Z</time>
      </trkpt>
      <trkpt lat="43.2870039437" lon="-4.2612107936">
        <ele>282.28</ele>
        <time>2018-05-19T06:35:24Z</time>
      </trkpt>
      <trkpt lat="43.2870212942" lon="-4.2613399588">
        <ele>283.73</ele>
        <time>2018-05-19T06:35:30Z</time>
      </trkpt>
      <trkpt lat="43.2870513853" lon="-4.2614628375">
        <ele>285.17</ele>
        <time>2018-05-19T06:35:36Z</time>
      </trkpt>
      <trkpt lat="43.2870762795" lon="-4.2615862191">
        <ele>287.09</ele>
        <time>2018-05-19T06:35:42Z</time>
      </trkpt>
      <trkpt lat="43.2871116512" lon="-4.2617120314">
        <ele>288.53</ele>
        <time>2018-05-19T06:35:48Z</time>
      </trkpt>
      <trkpt lat="43.2871597633" lon="-4.2618332338">
        <ele>290.46</ele>
        <time>2018-05-19T06:35:54Z</time>
      </trkpt>
      <trkpt lat="43.2872153353" lon="-4.2619563639">
        <ele>291.90</ele>
        <time>2018-05-19T06:36:01Z</time>
      </trkpt>
      <trkpt lat="43.2872750144" lon="-4.2620674241">
        <ele>292.86</ele>
        <time>2018-05-19T06:36:07Z</time>
      </trkpt>
      <trkpt lat="43.2873386331" lon="-4.2621717788">
        <ele>294.30</ele>
        <time>2018-05-19T06:36:13Z</time>
      </trkpt>
      <trkpt lat="43.2874053530" lon="-4.2622828390">
        <ele>295.26</ele>
        <time>2018-05-19T06:36:19Z</time>
      </trkpt>
      <trkpt lat="43.2874648646" lon="-4.2624011077">
        <ele>296.70</ele>
        <time>2018-05-19T06:36:25Z</time>
      </trkpt>
      <trkpt lat="43.2875287347" lon="-4.2625141796">
        <ele>297.67</ele>
        <time>2018-05-19T06:36:31Z</time>
      </trkpt>
      <trkpt lat="43.2875866536" lon="-4.2626135889">
        <ele>298.63</ele>
        <time>2018-05-19T06:36:37Z</time>
      </trkpt>
      <trkpt lat="43.2876462489" lon="-4.2627200391">
        <ele>300.55</ele>
        <time>2018-05-19T06:36:43Z</time>
      </trkpt>
      <trkpt lat="43.2876376994" lon="-4.2628443427">
        <ele>301.51</ele>
        <time>2018-05-19T06:36:49Z</time>
      </trkpt>
      <trkpt lat="43.2875522040" lon="-4.2628103960">
        <ele>303.43</ele>
        <time>2018-05-19T06:36:56Z</time>
      </trkpt>
      <trkpt lat="43.2874723244" lon="-4.2627264932">
        <ele>304.88</ele>
        <time>2018-05-19T06:37:03Z</time>
      </trkpt>
      <trkpt lat="43.2873732504" lon="-4.2626797222">
        <ele>306.32</ele>
        <time>2018-05-19T06:37:10Z</time>
      </trkpt>
      <trkpt lat="43.2872852404" lon="-4.2627116572">
        <ele>307.28</ele>
        <time>2018-05-19T06:37:17Z</time>
      </trkpt>
      <trkpt lat="43.2872108929" lon="-4.2627974879">
        <ele>309.20</ele>
        <time>2018-05-19T06:37:24Z</time>
      </trkpt>
      <trkpt lat="43.2871495374" lon="-4.2628999148">
        <ele>310.64</ele>
        <time>2018-05-19T06:37:31Z</time>
      </trkpt>
      <trkpt lat="43.2870880142" lon="-4.2630154174">
        <ele>312.57</ele>
        <time>2018-05-19T06:37:38Z</time>
      </trkpt>
      <trkpt lat="43.2870293409" lon="-4.2631402239">
        <ele>314.49</ele>
        <time>2018-05-19T06:37:45Z</time>
      </trkpt>
      <trkpt lat="43.2869894430" lon="-4.2632730771">
        <ele>316.41</ele>
        <time>2018-05-19T06:37:52Z</time>
      </trkpt>
      <trkpt lat="43.2869514730" lon="-4.2634030804">
        <ele>317.85</ele>
        <time>2018-05-19T06:37:59Z</time>
      </trkpt>
      <trkpt lat="43.2869215496" lon="-4.2635298986">
        <ele>318.81</ele>
        <time>2018-05-19T06:38:05Z</time>
      </trkpt>
      <trkpt lat="43.2868824899" lon="-4.2636459880">
        <ele>319.78</ele>
        <time>2018-05-19T06:38:11Z</time>
      </trkpt>
      <trkpt lat="43.2868280075" lon="-4.2637739796">
        <ele>321.22</ele>
        <time>2018-05-19T06:38:17Z</time>
      </trkpt>
      <trkpt lat="43.2867668197" lon="-4.2639028933">
        <ele>322.18</ele>
        <time>2018-05-19T06:38:23Z</time>
      </trkpt>
      <trkpt lat="43.2867133431" lon="-4.2640116904">
        <ele>322.66</ele>
        <time>2018-05-19T06:38:28Z</time>
      </trkpt>
      <trkpt lat="43.2866543345" lon="-4.2641372513">
        <ele>323.14</ele>
        <time>2018-05-19T06:38:34Z</time>
      </trkpt>
      <trkpt lat="43.2866097428" lon="-4.2642493173">
        <ele>323.62</ele>
        <time>2018-05-19T06:38:39Z</time>
      </trkpt>
      <trkpt lat="43.2865447830" lon="-4.2643815000">
        <ele>324.58</ele>
        <time>2018-05-19T06:38:45Z</time>
      </trkpt>
      <trkpt lat="43.2864824217" lon="-4.2645013612">
        <ele>325.54</ele>
        <time>2018-05-19T06:38:51Z</time>
      </trkpt>
      <trkpt lat="43.2864301186" lon="-4.2646201327">
        <ele>326.50</ele>
        <time>2018-05-19T06:38:57Z</time>
      </trkpt>
      <trkpt lat="43.2863746304" lon="-4.2647269182">
        <ele>327.47</ele>
        <time>2018-05-19T06:39:02Z</time>
      </trkpt>
      <trkpt lat="43.2863315474" lon="-4.2648488749">
        <ele>328.43</ele>
        <time>2018-05-19T06:39:07Z</time>
      </trkpt>
      <trkpt lat="43.2862867881" lon="-4.2649613600">
        <ele>329.39</ele>
        <time>2018-05-19T06:39:12Z</time>
      </trkpt>
      <trkpt lat="43.2862293720" lon="-4.2650751024">
        <ele>330.83</ele>
        <time>2018-05-19T06:39:17Z</time>
      </trkpt>
      <trkpt lat="43.2861741353" lon="-4.2651797086">
        <ele>331.31</ele>
        <time>2018-05-19T06:39:22Z</time>
      </trkpt>
      <trkpt lat="43.2860979438" lon="-4.2652892601">
        <ele>332.27</ele>
        <time>2018-05-19T06:39:27Z</time>
      </trkpt>
      <trkpt lat="43.2860253565" lon="-4.2653875798">
        <ele>332.27</ele>
        <time>2018-05-19T06:39:31Z</time>
      </trkpt>
      <trkpt lat="43.2859625760" lon="-4.2654821277">
        <ele>332.27</ele>
        <time>2018-05-19T06:39:34Z</time>
      </trkpt>
      <trkpt lat="43.2858926710" lon="-4.2655912600">
        <ele>333.23</ele>
        <time>2018-05-19T06:39:38Z</time>
      </trkpt>
      <trkpt lat="43.2858338300" lon="-4.2657096125">
        <ele>333.71</ele>
        <time>2018-05-19T06:39:42Z</time>
      </trkpt>
      <trkpt lat="43.2857681997" lon="-4.2658324074">
        <ele>334.20</ele>
        <time>2018-05-19T06:39:46Z</time>
      </trkpt>
      <trkpt lat="43.2857058384" lon="-4.2659365945">
        <ele>334.68</ele>
        <time>2018-05-19T06:39:50Z</time>
      </trkpt>
      <trkpt lat="43.2856287248" lon="-4.2660269514">
        <ele>334.68</ele>
        <time>2018-05-19T06:39:54Z</time>
      </trkpt>
      <trkpt lat="43.2855345961" lon="-4.2661129497">
        <ele>334.68</ele>
        <time>2018-05-19T06:39:58Z</time>
      </trkpt>
      <trkpt lat="43.2854422275" lon="-4.2661686894">
        <ele>334.68</ele>
        <time>2018-05-19T06:40:01Z</time>
      </trkpt>
      <trkpt lat="43.2853411417" lon="-4.2662241776">
        <ele>334.68</ele>
        <time>2018-05-19T06:40:04Z</time>
      </trkpt>
      <trkpt lat="43.2852523774" lon="-4.2662660033">
        <ele>333.23</ele>
        <time>2018-05-19T06:40:06Z</time>
      </trkpt>
      <trkpt lat="43.2851589192" lon="-4.2663126066">
        <ele>332.75</ele>
        <time>2018-05-19T06:40:08Z</time>
      </trkpt>
      <trkpt lat="43.2850668021" lon="-4.2663714476">
        <ele>332.75</ele>
        <time>2018-05-19T06:40:10Z</time>
      </trkpt>
      <trkpt lat="43.2849855814" lon="-4.2664239183">
        <ele>332.75</ele>
        <time>2018-05-19T06:40:12Z</time>
      </trkpt>
      <trkpt lat="43.2849079650" lon="-4.2664910574">
        <ele>332.75</ele>
        <time>2018-05-19T06:40:14Z</time>
      </trkpt>
      <trkpt lat="43.2848009281" lon="-4.2665752955">
        <ele>333.71</ele>
        <time>2018-05-19T06:40:17Z</time>
      </trkpt>
      <trkpt lat="43.2847233117" lon="-4.2666907981">
        <ele>334.20</ele>
        <time>2018-05-19T06:40:20Z</time>
      </trkpt>
      <trkpt lat="43.2846531551" lon="-4.2667812388">
        <ele>335.16</ele>
        <time>2018-05-19T06:40:23Z</time>
      </trkpt>
      <trkpt lat="43.2845830824" lon="-4.2668962386">
        <ele>336.12</ele>
        <time>2018-05-19T06:40:27Z</time>
      </trkpt>
      <trkpt lat="43.2845092379" lon="-4.2670051195">
        <ele>337.08</ele>
        <time>2018-05-19T06:40:31Z</time>
      </trkpt>
      <trkpt lat="43.2844537497" lon="-4.2671066243">
        <ele>337.56</ele>
        <time>2018-05-19T06:40:35Z</time>
      </trkpt>
      <trkpt lat="43.2843945734" lon="-4.2672139965">
        <ele>338.52</ele>
        <time>2018-05-19T06:40:39Z</time>
      </trkpt>
      <trkpt lat="43.2843223214" lon="-4.2673289962">
        <ele>340.44</ele>
        <time>2018-05-19T06:40:44Z</time>
      </trkpt>
      <trkpt lat="43.2842654921" lon="-4.2674184311">
        <ele>341.41</ele>
        <time>2018-05-19T06:40:48Z</time>
      </trkpt>
      <trkpt lat="43.2842063159" lon="-4.2675261386">
        <ele>342.37</ele>
        <time>2018-05-19T06:40:53Z</time>
      </trkpt>
      <trkpt lat="43.2841447089" lon="-4.2676331755">
        <ele>343.81</ele>
        <time>2018-05-19T06:40:58Z</time>
      </trkpt>
      <trkpt lat="43.2840978540" lon="-4.2677417211">
        <ele>345.25</ele>
        <time>2018-05-19T06:41:03Z</time>
      </trkpt>
      <trkpt lat="43.2840498257" lon="-4.2678569723">
        <ele>346.21</ele>
        <time>2018-05-19T06:41:08Z</time>
      </trkpt>
      <trkpt lat="43.2840100117" lon="-4.2679856345">
        <ele>347.17</ele>
        <time>2018-05-19T06:41:13Z</time>
      </trkpt>
      <trkpt lat="43.2839789987" lon="-4.2681070045">
        <ele>349.10</ele>
        <time>2018-05-19T06:41:18Z</time>
      </trkpt>
      <trkpt lat="43.2839652523" lon="-4.2682308052">
        <ele>349.58</ele>
        <time>2018-05-19T06:41:23Z</time>
      </trkpt>
      <trkpt lat="43.2839520928" lon="-4.2683511693">
        <ele>350.54</ele>
        <time>2018-05-19T06:41:28Z</time>
      </trkpt>
      <trkpt lat="43.2839468960" lon="-4.2684836872">
        <ele>351.50</ele>
        <time>2018-05-19T06:41:33Z</time>
      </trkpt>
      <trkpt lat="43.2839446329" lon="-4.2686129361">
        <ele>352.46</ele>
        <time>2018-05-19T06:41:38Z</time>
      </trkpt>
      <trkpt lat="43.2839405257" lon="-4.2687486392">
        <ele>353.42</ele>
        <time>2018-05-19T06:41:43Z</time>
      </trkpt>
      <trkpt lat="43.2839492429" lon="-4.2688851804">
        <ele>353.90</ele>
        <time>2018-05-19T06:41:48Z</time>
      </trkpt>
      <trkpt lat="43.2839595526" lon="-4.2690392397">
        <ele>354.38</ele>
        <time>2018-05-19T06:41:53Z</time>
      </trkpt>
      <trkpt lat="43.2839624863" lon="-4.2691716738">
        <ele>354.86</ele>
        <time>2018-05-19T06:41:58Z</time>
      </trkpt>
      <trkpt lat="43.2839634921" lon="-4.2693053652">
        <ele>356.31</ele>
        <time>2018-05-19T06:42:03Z</time>
      </trkpt>
      <trkpt lat="43.2839655038" lon="-4.2694451753">
        <ele>357.27</ele>
        <time>2018-05-19T06:42:09Z</time>
      </trkpt>
      <trkpt lat="43.2839511707" lon="-4.2695672996">
        <ele>357.75</ele>
        <time>2018-05-19T06:42:14Z</time>
      </trkpt>
      <trkpt lat="43.2839251030" lon="-4.2696906812">
        <ele>359.67</ele>
        <time>2018-05-19T06:42:19Z</time>
      </trkpt>
      <trkpt lat="43.2838966884" lon="-4.2698153201">
        <ele>360.63</ele>
        <time>2018-05-19T06:42:25Z</time>
      </trkpt>
      <trkpt lat="43.2838742249" lon="-4.2699552141">
        <ele>362.07</ele>
        <time>2018-05-19T06:42:31Z</time>
      </trkpt>
      <trkpt lat="43.2838512585" lon="-4.2700879835">
        <ele>363.52</ele>
        <time>2018-05-19T06:42:37Z</time>
      </trkpt>
      <trkpt lat="43.2838355005" lon="-4.2702110298">
        <ele>364.96</ele>
        <time>2018-05-19T06:42:43Z</time>
      </trkpt>
      <trkpt lat="43.2838156354" lon="-4.2703491636">
        <ele>366.40</ele>
        <time>2018-05-19T06:42:49Z</time>
      </trkpt>
      <trkpt lat="43.2838046551" lon="-4.2704836093">
        <ele>367.36</ele>
        <time>2018-05-19T06:42:55Z</time>
      </trkpt>
      <trkpt lat="43.2837911602" lon="-4.2706258502">
        <ele>368.80</ele>
        <time>2018-05-19T06:43:01Z</time>
      </trkpt>
      <trkpt lat="43.2837649249" lon="-4.2707519978">
        <ele>370.24</ele>
        <time>2018-05-19T06:43:07Z</time>
      </trkpt>
      <trkpt lat="43.2837531902" lon="-4.2708899640">
        <ele>371.21</ele>
        <time>2018-05-19T06:43:13Z</time>
      </trkpt>
      <trkpt lat="43.2837489992" lon="-4.2710355576">
        <ele>372.65</ele>
        <time>2018-05-19T06:43:19Z</time>
      </trkpt>
      <trkpt lat="43.2837396953" lon="-4.2711665668">
        <ele>374.09</ele>
        <time>2018-05-19T06:43:25Z</time>
      </trkpt>
      <trkpt lat="43.2837272901" lon="-4.2712869309">
        <ele>374.57</ele>
        <time>2018-05-19T06:43:31Z</time>
      </trkpt>
      <trkpt lat="43.2837136276" lon="-4.2714292556">
        <ele>376.49</ele>
        <time>2018-05-19T06:43:38Z</time>
      </trkpt>
      <trkpt lat="43.2836946845" lon="-4.2715448420">
        <ele>377.45</ele>
        <time>2018-05-19T06:43:44Z</time>
      </trkpt>
      <trkpt lat="43.2836796809" lon="-4.2716724984">
        <ele>378.90</ele>
        <time>2018-05-19T06:43:50Z</time>
      </trkpt>
      <trkpt lat="43.2836715505" lon="-4.2718130630">
        <ele>380.34</ele>
        <time>2018-05-19T06:43:57Z</time>
      </trkpt>
      <trkpt lat="43.2836695388" lon="-4.2719591595">
        <ele>382.26</ele>
        <time>2018-05-19T06:44:04Z</time>
      </trkpt>
      <trkpt lat="43.2836749032" lon="-4.2720938567">
        <ele>383.70</ele>
        <time>2018-05-19T06:44:10Z</time>
      </trkpt>
      <trkpt lat="43.2836721372" lon="-4.2722187471">
        <ele>384.66</ele>
        <time>2018-05-19T06:44:15Z</time>
      </trkpt>
      <trkpt lat="43.2836671080" lon="-4.2723556235">
        <ele>385.15</ele>
        <time>2018-05-19T06:44:20Z</time>
      </trkpt>
      <trkpt lat="43.2836588938" lon="-4.2724847049">
        <ele>385.15</ele>
        <time>2018-05-19T06:44:24Z</time>
      </trkpt>
      <trkpt lat="43.2836480811" lon="-4.2726249341">
        <ele>385.63</ele>
        <time>2018-05-19T06:44:28Z</time>
      </trkpt>
      <trkpt lat="43.2836378552" lon="-4.2727523390">
        <ele>385.63</ele>
        <time>2018-05-19T06:44:32Z</time>
      </trkpt>
      <trkpt lat="43.2836299762" lon="-4.2728810012">
        <ele>385.63</ele>
        <time>2018-05-19T06:44:35Z</time>
      </trkpt>
      <trkpt lat="43.2836179901" lon="-4.2730338871">
        <ele>385.63</ele>
        <time>2018-05-19T06:44:38Z</time>
      </trkpt>
      <trkpt lat="43.2836029027" lon="-4.2731862701">
        <ele>386.11</ele>
        <time>2018-05-19T06:44:41Z</time>
      </trkpt>
      <trkpt lat="43.2835960295" lon="-4.2733204644">
        <ele>386.59</ele>
        <time>2018-05-19T06:44:44Z</time>
      </trkpt>
      <trkpt lat="43.2835837081" lon="-4.2734816484">
        <ele>387.55</ele>
        <time>2018-05-19T06:44:48Z</time>
      </trkpt>
      <trkpt lat="43.2835719734" lon="-4.2736276612">
        <ele>388.51</ele>
        <time>2018-05-19T06:44:52Z</time>
      </trkpt>
      <trkpt lat="43.2835615799" lon="-4.2737646215">
        <ele>389.47</ele>
        <time>2018-05-19T06:44:57Z</time>
      </trkpt>
      <trkpt lat="43.2835537009" lon="-4.2738892604">
        <ele>390.91</ele>
        <time>2018-05-19T06:45:02Z</time>
      </trkpt>
      <trkpt lat="43.2835508510" lon="-4.2740337644">
        <ele>391.39</ele>
        <time>2018-05-19T06:45:08Z</time>
      </trkpt>
      <trkpt lat="43.2835474983" lon="-4.2741735745">
        <ele>393.32</ele>
        <time>2018-05-19T06:45:14Z</time>
      </trkpt>
      <trkpt lat="43.2835459895" lon="-4.2743086070">
        <ele>394.76</ele>
        <time>2018-05-19T06:45:20Z</time>
      </trkpt>
      <trkpt lat="43.2835434750" lon="-4.2744325753">
        <ele>396.68</ele>
        <time>2018-05-19T06:45:26Z</time>
      </trkpt>
      <trkpt lat="43.2835405413" lon="-4.2745656800">
        <ele>398.12</ele>
        <time>2018-05-19T06:45:32Z</time>
      </trkpt>
      <trkpt lat="43.2835332491" lon="-4.2746918276">
        <ele>399.57</ele>
        <time>2018-05-19T06:45:38Z</time>
      </trkpt>
      <trkpt lat="43.2835345902" lon="-4.2748161312">
        <ele>401.01</ele>
        <time>2018-05-19T06:45:44Z</time>
      </trkpt>
      <trkpt lat="43.2835434750" lon="-4.2749599647">
        <ele>402.45</ele>
        <time>2018-05-19T06:45:50Z</time>
      </trkpt>
      <trkpt lat="43.2835530303" lon="-4.2750976793">
        <ele>403.41</ele>
        <time>2018-05-19T06:45:56Z</time>
      </trkpt>
      <trkpt lat="43.2835604064" lon="-4.2752401717">
        <ele>404.37</ele>
        <time>2018-05-19T06:46:02Z</time>
      </trkpt>
      <trkpt lat="43.2835549582" lon="-4.2753893696">
        <ele>405.33</ele>
        <time>2018-05-19T06:46:08Z</time>
      </trkpt>
      <trkpt lat="43.2835629210" lon="-4.2755150981">
        <ele>406.29</ele>
        <time>2018-05-19T06:46:13Z</time>
      </trkpt>
      <trkpt lat="43.2835669443" lon="-4.2756479513">
        <ele>407.26</ele>
        <time>2018-05-19T06:46:18Z</time>
      </trkpt>
      <trkpt lat="43.2835646812" lon="-4.2757810559">
        <ele>408.22</ele>
        <time>2018-05-19T06:46:23Z</time>
      </trkpt>
      <trkpt lat="43.2835664414" lon="-4.2759214528">
        <ele>408.70</ele>
        <time>2018-05-19T06:46:28Z</time>
      </trkpt>
      <trkpt lat="43.2835693751" lon="-4.2760620173">
        <ele>409.66</ele>
        <time>2018-05-19T06:46:33Z</time>
      </trkpt>
      <trkpt lat="43.2835709676" lon="-4.2762169149">
        <ele>410.14</ele>
        <time>2018-05-19T06:46:38Z</time>
      </trkpt>
      <trkpt lat="43.2835722249" lon="-4.2763595749">
        <ele>410.14</ele>
        <time>2018-05-19T06:46:42Z</time>
      </trkpt>
      <trkpt lat="43.2835759129" lon="-4.2764939368">
        <ele>410.14</ele>
        <time>2018-05-19T06:46:45Z</time>
      </trkpt>
      <trkpt lat="43.2835783437" lon="-4.2766243592">
        <ele>410.14</ele>
        <time>2018-05-19T06:46:48Z</time>
      </trkpt>
      <trkpt lat="43.2835799363" lon="-4.2767518479">
        <ele>410.14</ele>
        <time>2018-05-19T06:46:51Z</time>
      </trkpt>
      <trkpt lat="43.2835786790" lon="-4.2768859584">
        <ele>410.14</ele>
        <time>2018-05-19T06:46:54Z</time>
      </trkpt>
      <trkpt lat="43.2835819479" lon="-4.2770476453">
        <ele>408.70</ele>
        <time>2018-05-19T06:46:57Z</time>
      </trkpt>
      <trkpt lat="43.2835737336" lon="-4.2771745473">
        <ele>408.70</ele>
        <time>2018-05-19T06:47:00Z</time>
      </trkpt>
      <trkpt lat="43.2835839596" lon="-4.2772974260">
        <ele>408.22</ele>
        <time>2018-05-19T06:47:05Z</time>
      </trkpt>
      <trkpt lat="43.2836134639" lon="-4.2774237413">
        <ele>408.22</ele>
        <time>2018-05-19T06:47:15Z</time>
      </trkpt>
      <trkpt lat="43.2836473268" lon="-4.2775609531">
        <ele>407.26</ele>
        <time>2018-05-19T06:47:18Z</time>
      </trkpt>
      <trkpt lat="43.2836748194" lon="-4.2776902020">
        <ele>405.81</ele>
        <time>2018-05-19T06:47:20Z</time>
      </trkpt>
      <trkpt lat="43.2837081794" lon="-4.2778528109">
        <ele>403.41</ele>
        <time>2018-05-19T06:47:22Z</time>
      </trkpt>
      <trkpt lat="43.2837487478" lon="-4.2780360393">
        <ele>401.97</ele>
        <time>2018-05-19T06:47:24Z</time>
      </trkpt>
      <trkpt lat="43.2837820239" lon="-4.2782237101">
        <ele>400.05</ele>
        <time>2018-05-19T06:47:26Z</time>
      </trkpt>
      <trkpt lat="43.2838204131" lon="-4.2784306593">
        <ele>397.64</ele>
        <time>2018-05-19T06:47:28Z</time>
      </trkpt>
      <trkpt lat="43.2838713750" lon="-4.2786870617">
        <ele>395.24</ele>
        <time>2018-05-19T06:47:30Z</time>
      </trkpt>
      <trkpt lat="43.2839282043" lon="-4.2788971961">
        <ele>392.84</ele>
        <time>2018-05-19T06:47:32Z</time>
      </trkpt>
      <trkpt lat="43.2839734666" lon="-4.2790192366">
        <ele>391.39</ele>
        <time>2018-05-19T06:47:33Z</time>
      </trkpt>
      <trkpt lat="43.2840264402" lon="-4.2791424505">
        <ele>388.99</ele>
        <time>2018-05-19T06:47:34Z</time>
      </trkpt>
      <trkpt lat="43.2840861194" lon="-4.2792691849">
        <ele>387.55</ele>
        <time>2018-05-19T06:47:35Z</time>
      </trkpt>
      <trkpt lat="43.2841578685" lon="-4.2794100009">
        <ele>385.15</ele>
        <time>2018-05-19T06:47:36Z</time>
      </trkpt>
      <trkpt lat="43.2842245046" lon="-4.2795275990">
        <ele>384.18</ele>
        <time>2018-05-19T06:47:37Z</time>
      </trkpt>
      <trkpt lat="43.2843004446" lon="-4.2796550877">
        <ele>384.18</ele>
        <time>2018-05-19T06:47:38Z</time>
      </trkpt>
      <trkpt lat="43.2843880355" lon="-4.2797977477">
        <ele>384.18</ele>
        <time>2018-05-19T06:47:39Z</time>
      </trkpt>
      <trkpt lat="43.2845092379" lon="-4.2800018471">
        <ele>385.15</ele>
        <time>2018-05-19T06:47:41Z</time>
      </trkpt>
      <trkpt lat="43.2845707610" lon="-4.2801108118">
        <ele>385.63</ele>
        <time>2018-05-19T06:47:42Z</time>
      </trkpt>
      <trkpt lat="43.2846252434" lon="-4.2802081257">
        <ele>385.63</ele>
        <time>2018-05-19T06:47:43Z</time>
      </trkpt>
      <trkpt lat="43.2846802287" lon="-4.2803002428">
        <ele>386.11</ele>
        <time>2018-05-19T06:47:44Z</time>
      </trkpt>
      <trkpt lat="43.2847896963" lon="-4.2804794479">
        <ele>386.11</ele>
        <time>2018-05-19T06:47:46Z</time>
      </trkpt>
      <trkpt lat="43.2848917879" lon="-4.2806807812">
        <ele>384.66</ele>
        <time>2018-05-19T06:47:48Z</time>
      </trkpt>
      <trkpt lat="43.2849641237" lon="-4.2808498442">
        <ele>384.66</ele>
        <time>2018-05-19T06:47:50Z</time>
      </trkpt>
      <trkpt lat="43.2850258984" lon="-4.2810414545">
        <ele>384.66</ele>
        <time>2018-05-19T06:47:52Z</time>
      </trkpt>
      <trkpt lat="43.2850859966" lon="-4.2812355794">
        <ele>384.18</ele>
        <time>2018-05-19T06:47:54Z</time>
      </trkpt>
      <trkpt lat="43.2851397246" lon="-4.2814377509">
        <ele>383.22</ele>
        <time>2018-05-19T06:47:56Z</time>
      </trkpt>
      <trkpt lat="43.2851644512" lon="-4.2815585341">
        <ele>382.74</ele>
        <time>2018-05-19T06:47:57Z</time>
      </trkpt>
      <trkpt lat="43.2852053549" lon="-4.2817447800">
        <ele>382.26</ele>
        <time>2018-05-19T06:47:59Z</time>
      </trkpt>
      <trkpt lat="43.2852627710" lon="-4.2819597758">
        <ele>380.82</ele>
        <time>2018-05-19T06:48:01Z</time>
      </trkpt>
      <trkpt lat="43.2853268925" lon="-4.2821879312">
        <ele>377.94</ele>
        <time>2018-05-19T06:48:03Z</time>
      </trkpt>
      <trkpt lat="43.2853877451" lon="-4.2824145779">
        <ele>376.49</ele>
        <time>2018-05-19T06:48:05Z</time>
      </trkpt>
      <trkpt lat="43.2854182553" lon="-4.2825428210">
        <ele>375.53</ele>
        <time>2018-05-19T06:48:06Z</time>
      </trkpt>
      <trkpt lat="43.2854675408" lon="-4.2827250436">
        <ele>374.09</ele>
        <time>2018-05-19T06:48:08Z</time>
      </trkpt>
      <trkpt lat="43.2855483424" lon="-4.2829157319">
        <ele>371.21</ele>
        <time>2018-05-19T06:48:10Z</time>
      </trkpt>
      <trkpt lat="43.2856817823" lon="-4.2830646783">
        <ele>367.84</ele>
        <time>2018-05-19T06:48:12Z</time>
      </trkpt>
      <trkpt lat="43.2857645955" lon="-4.2831162270">
        <ele>365.92</ele>
        <time>2018-05-19T06:48:13Z</time>
      </trkpt>
      <trkpt lat="43.2858604006" lon="-4.2831614893">
        <ele>364.00</ele>
        <time>2018-05-19T06:48:14Z</time>
      </trkpt>
      <trkpt lat="43.2859602291" lon="-4.2832032312">
        <ele>362.55</ele>
        <time>2018-05-19T06:48:15Z</time>
      </trkpt>
      <trkpt lat="43.2860754803" lon="-4.2832528520">
        <ele>361.59</ele>
        <time>2018-05-19T06:48:16Z</time>
      </trkpt>
      <trkpt lat="43.2862489019" lon="-4.2833542731">
        <ele>358.23</ele>
        <time>2018-05-19T06:48:18Z</time>
      </trkpt>
      <trkpt lat="43.2863431983" lon="-4.2834318057">
        <ele>357.27</ele>
        <time>2018-05-19T06:48:19Z</time>
      </trkpt>
      <trkpt lat="43.2864276879" lon="-4.2835167982">
        <ele>356.31</ele>
        <time>2018-05-19T06:48:20Z</time>
      </trkpt>
      <trkpt lat="43.2865101658" lon="-4.2836136930">
        <ele>354.38</ele>
        <time>2018-05-19T06:48:21Z</time>
      </trkpt>
      <trkpt lat="43.2865823340" lon="-4.2837124318">
        <ele>353.42</ele>
        <time>2018-05-19T06:48:22Z</time>
      </trkpt>
      <trkpt lat="43.2866551727" lon="-4.2838235758">
        <ele>352.46</ele>
        <time>2018-05-19T06:48:23Z</time>
      </trkpt>
      <trkpt lat="43.2867228147" lon="-4.2839332111">
        <ele>351.50</ele>
        <time>2018-05-19T06:48:24Z</time>
      </trkpt>
      <trkpt lat="43.2868040353" lon="-4.2840711772">
        <ele>351.50</ele>
        <time>2018-05-19T06:48:25Z</time>
      </trkpt>
      <trkpt lat="43.2869191188" lon="-4.2842750251">
        <ele>349.10</ele>
        <time>2018-05-19T06:48:27Z</time>
      </trkpt>
      <trkpt lat="43.2869894430" lon="-4.2843958084">
        <ele>348.13</ele>
        <time>2018-05-19T06:48:28Z</time>
      </trkpt>
      <trkpt lat="43.2871160936" lon="-4.2846072000">
        <ele>347.17</ele>
        <time>2018-05-19T06:48:30Z</time>
      </trkpt>
      <trkpt lat="43.2871805504" lon="-4.2847142369">
        <ele>346.21</ele>
        <time>2018-05-19T06:48:31Z</time>
      </trkpt>
      <trkpt lat="43.2872457616" lon="-4.2848232016">
        <ele>346.21</ele>
        <time>2018-05-19T06:48:32Z</time>
      </trkpt>
      <trkpt lat="43.2873072848" lon="-4.2849253770">
        <ele>345.73</ele>
        <time>2018-05-19T06:48:33Z</time>
      </trkpt>
      <trkpt lat="43.2873768546" lon="-4.2850384489">
        <ele>345.25</ele>
        <time>2018-05-19T06:48:34Z</time>
      </trkpt>
      <trkpt lat="43.2874848973" lon="-4.2852082662">
        <ele>342.85</ele>
        <time>2018-05-19T06:48:36Z</time>
      </trkpt>
      <trkpt lat="43.2876053452" lon="-4.2853724677">
        <ele>340.44</ele>
        <time>2018-05-19T06:48:38Z</time>
      </trkpt>
      <trkpt lat="43.2877435628" lon="-4.2854848690">
        <ele>339.00</ele>
        <time>2018-05-19T06:48:40Z</time>
      </trkpt>
      <trkpt lat="43.2879176550" lon="-4.2855188996">
        <ele>337.08</ele>
        <time>2018-05-19T06:48:42Z</time>
      </trkpt>
      <trkpt lat="43.2880363427" lon="-4.2855259404">
        <ele>336.12</ele>
        <time>2018-05-19T06:48:43Z</time>
      </trkpt>
      <trkpt lat="43.2882195711" lon="-4.2855345737">
        <ele>333.71</ele>
        <time>2018-05-19T06:48:45Z</time>
      </trkpt>
      <trkpt lat="43.2883253507" lon="-4.2855387647">
        <ele>332.75</ele>
        <time>2018-05-19T06:48:46Z</time>
      </trkpt>
      <trkpt lat="43.2884353213" lon="-4.2855468951">
        <ele>331.79</ele>
        <time>2018-05-19T06:48:47Z</time>
      </trkpt>
      <trkpt lat="43.2885411009" lon="-4.2855625693">
        <ele>330.83</ele>
        <time>2018-05-19T06:48:48Z</time>
      </trkpt>
      <trkpt lat="43.2886389177" lon="-4.2855914868">
        <ele>329.87</ele>
        <time>2018-05-19T06:48:49Z</time>
      </trkpt>
      <trkpt lat="43.2887870260" lon="-4.2857021280">
        <ele>328.91</ele>
        <time>2018-05-19T06:48:51Z</time>
      </trkpt>
      <trkpt lat="43.2888829149" lon="-4.2858977616">
        <ele>327.95</ele>
        <time>2018-05-19T06:48:53Z</time>
      </trkpt>
      <trkpt lat="43.2889422588" lon="-4.2860544194">
        <ele>326.99</ele>
        <time>2018-05-19T06:48:55Z</time>
      </trkpt>
      <trkpt lat="43.2890320290" lon="-4.2861888651">
        <ele>325.54</ele>
        <time>2018-05-19T06:48:57Z</time>
      </trkpt>
      <trkpt lat="43.2891433407" lon="-4.2862645537">
        <ele>324.10</ele>
        <time>2018-05-19T06:48:59Z</time>
      </trkpt>
      <trkpt lat="43.2892744336" lon="-4.2862871848">
        <ele>322.66</ele>
        <time>2018-05-19T06:49:01Z</time>
      </trkpt>
      <trkpt lat="43.2894417364" lon="-4.2862668168">
        <ele>320.26</ele>
        <time>2018-05-19T06:49:03Z</time>
      </trkpt>
      <trkpt lat="43.2895887550" lon="-4.2862526514">
        <ele>317.37</ele>
        <time>2018-05-19T06:49:05Z</time>
      </trkpt>
      <trkpt lat="43.2896832190" lon="-4.2862545792">
        <ele>315.93</ele>
        <time>2018-05-19T06:49:06Z</time>
      </trkpt>
      <trkpt lat="43.2897747494" lon="-4.2862645537">
        <ele>314.97</ele>
        <time>2018-05-19T06:49:07Z</time>
      </trkpt>
      <trkpt lat="43.2898770925" lon="-4.2862896994">
        <ele>314.49</ele>
        <time>2018-05-19T06:49:08Z</time>
      </trkpt>
      <trkpt lat="43.2899691258" lon="-4.2863224726">
        <ele>314.01</ele>
        <time>2018-05-19T06:49:09Z</time>
      </trkpt>
      <trkpt lat="43.2901396975" lon="-4.2863772903">
        <ele>312.57</ele>
        <time>2018-05-19T06:49:11Z</time>
      </trkpt>
      <trkpt lat="43.2902765740" lon="-4.2864112370">
        <ele>311.12</ele>
        <time>2018-05-19T06:49:13Z</time>
      </trkpt>
      <trkpt lat="43.2903792523" lon="-4.2865010910">
        <ele>309.68</ele>
        <time>2018-05-19T06:49:15Z</time>
      </trkpt>
      <trkpt lat="43.2904136181" lon="-4.2866639514">
        <ele>308.24</ele>
        <time>2018-05-19T06:49:17Z</time>
      </trkpt>
      <trkpt lat="43.2903922442" lon="-4.2868522927">
        <ele>307.28</ele>
        <time>2018-05-19T06:49:19Z</time>
      </trkpt>
      <trkpt lat="43.2903831080" lon="-4.2870494351">
        <ele>305.36</ele>
        <time>2018-05-19T06:49:21Z</time>
      </trkpt>
      <trkpt lat="43.2904145401" lon="-4.2872215994">
        <ele>303.91</ele>
        <time>2018-05-19T06:49:23Z</time>
      </trkpt>
      <trkpt lat="43.2904826850" lon="-4.2873679474">
        <ele>302.47</ele>
        <time>2018-05-19T06:49:25Z</time>
      </trkpt>
      <trkpt lat="43.2905741315" lon="-4.2874750681">
        <ele>301.51</ele>
        <time>2018-05-19T06:49:27Z</time>
      </trkpt>
      <trkpt lat="43.2906526700" lon="-4.2876106035">
        <ele>300.07</ele>
        <time>2018-05-19T06:49:29Z</time>
      </trkpt>
      <trkpt lat="43.2906676736" lon="-4.2878096737">
        <ele>298.15</ele>
        <time>2018-05-19T06:49:31Z</time>
      </trkpt>
      <trkpt lat="43.2906464674" lon="-4.2880138569">
        <ele>296.70</ele>
        <time>2018-05-19T06:49:33Z</time>
      </trkpt>
      <trkpt lat="43.2906414382" lon="-4.2882391624">
        <ele>294.78</ele>
        <time>2018-05-19T06:49:35Z</time>
      </trkpt>
      <trkpt lat="43.2906400133" lon="-4.2884751130">
        <ele>293.82</ele>
        <time>2018-05-19T06:49:37Z</time>
      </trkpt>
      <trkpt lat="43.2906369958" lon="-4.2886991613">
        <ele>293.34</ele>
        <time>2018-05-19T06:49:39Z</time>
      </trkpt>
      <trkpt lat="43.2906388398" lon="-4.2889264785">
        <ele>292.86</ele>
        <time>2018-05-19T06:49:41Z</time>
      </trkpt>
      <trkpt lat="43.2906435337" lon="-4.2890688870">
        <ele>291.90</ele>
        <time>2018-05-19T06:49:42Z</time>
      </trkpt>
      <trkpt lat="43.2906540111" lon="-4.2892768420">
        <ele>289.49</ele>
        <time>2018-05-19T06:49:44Z</time>
      </trkpt>
      <trkpt lat="43.2906689309" lon="-4.2895231023">
        <ele>288.53</ele>
        <time>2018-05-19T06:49:46Z</time>
      </trkpt>
      <trkpt lat="43.2906778157" lon="-4.2896531057">
        <ele>288.53</ele>
        <time>2018-05-19T06:49:47Z</time>
      </trkpt>
      <trkpt lat="43.2906990219" lon="-4.2898688558">
        <ele>287.09</ele>
        <time>2018-05-19T06:49:49Z</time>
      </trkpt>
      <trkpt lat="43.2907647360" lon="-4.2900675908">
        <ele>285.65</ele>
        <time>2018-05-19T06:49:51Z</time>
      </trkpt>
      <trkpt lat="43.2908670790" lon="-4.2901698500">
        <ele>284.69</ele>
        <time>2018-05-19T06:49:53Z</time>
      </trkpt>
      <trkpt lat="43.2910151873" lon="-4.2902300321">
        <ele>283.73</ele>
        <time>2018-05-19T06:49:55Z</time>
      </trkpt>
      <trkpt lat="43.2911807299" lon="-4.2902658228">
        <ele>282.28</ele>
        <time>2018-05-19T06:49:57Z</time>
      </trkpt>
      <trkpt lat="43.2913481165" lon="-4.2903138511">
        <ele>279.88</ele>
        <time>2018-05-19T06:49:59Z</time>
      </trkpt>
      <trkpt lat="43.2914341148" lon="-4.2903553415">
        <ele>278.92</ele>
        <time>2018-05-19T06:50:00Z</time>
      </trkpt>
      <trkpt lat="43.2915136591" lon="-4.2904192954">
        <ele>278.92</ele>
        <time>2018-05-19T06:50:01Z</time>
      </trkpt>
      <trkpt lat="43.2915949635" lon="-4.2905646376">
        <ele>277.48</ele>
        <time>2018-05-19T06:50:03Z</time>
      </trkpt>
      <trkpt lat="43.2916569058" lon="-4.2907379754">
        <ele>277.48</ele>
        <time>2018-05-19T06:50:05Z</time>
      </trkpt>
      <trkpt lat="43.2917404734" lon="-4.2908799648">
        <ele>277.00</ele>
        <time>2018-05-19T06:50:07Z</time>
      </trkpt>
      <trkpt lat="43.2918539643" lon="-4.2909630295">
        <ele>274.11</ele>
        <time>2018-05-19T06:50:09Z</time>
      </trkpt>
      <trkpt lat="43.2919810340" lon="-4.2909662146">
        <ele>273.15</ele>
        <time>2018-05-19T06:50:11Z</time>
      </trkpt>
      <trkpt lat="43.2921169885" lon="-4.2910158355">
        <ele>271.71</ele>
        <time>2018-05-19T06:50:13Z</time>
      </trkpt>
      <trkpt lat="43.2922318205" lon="-4.2911489401">
        <ele>269.79</ele>
        <time>2018-05-19T06:50:15Z</time>
      </trkpt>
      <trkpt lat="43.2923427131" lon="-4.2913014907">
        <ele>268.83</ele>
        <time>2018-05-19T06:50:17Z</time>
      </trkpt>
      <trkpt lat="43.2924410328" lon="-4.2914438155">
        <ele>267.38</ele>
        <time>2018-05-19T06:50:19Z</time>
      </trkpt>
      <trkpt lat="43.2924800087" lon="-4.2915862240">
        <ele>266.42</ele>
        <time>2018-05-19T06:50:21Z</time>
      </trkpt>
      <trkpt lat="43.2924584672" lon="-4.2917443067">
        <ele>265.94</ele>
        <time>2018-05-19T06:50:23Z</time>
      </trkpt>
      <trkpt lat="43.2924106903" lon="-4.2919031437">
        <ele>264.50</ele>
        <time>2018-05-19T06:50:25Z</time>
      </trkpt>
      <trkpt lat="43.2923861314" lon="-4.2921008728">
        <ele>262.58</ele>
        <time>2018-05-19T06:50:27Z</time>
      </trkpt>
      <trkpt lat="43.2924219221" lon="-4.2923102528">
        <ele>261.14</ele>
        <time>2018-05-19T06:50:29Z</time>
      </trkpt>
      <trkpt lat="43.2925075851" lon="-4.2924861051">
        <ele>259.69</ele>
        <time>2018-05-19T06:50:31Z</time>
      </trkpt>
      <trkpt lat="43.2926214114" lon="-4.2926462833">
        <ele>259.21</ele>
        <time>2018-05-19T06:50:33Z</time>
      </trkpt>
      <trkpt lat="43.2927475590" lon="-4.2927667312">
        <ele>257.77</ele>
        <time>2018-05-19T06:50:35Z</time>
      </trkpt>
      <trkpt lat="43.2928739581" lon="-4.2928192019">
        <ele>256.33</ele>
        <time>2018-05-19T06:50:37Z</time>
      </trkpt>
      <trkpt lat="43.2929923944" lon="-4.2928745225">
        <ele>255.37</ele>
        <time>2018-05-19T06:50:39Z</time>
      </trkpt>
      <trkpt lat="43.2930370700" lon="-4.2929869238">
        <ele>254.41</ele>
        <time>2018-05-19T06:50:41Z</time>
      </trkpt>
      <trkpt lat="43.2930287719" lon="-4.2931426596">
        <ele>253.93</ele>
        <time>2018-05-19T06:50:43Z</time>
      </trkpt>
      <trkpt lat="43.2929900475" lon="-4.2933233734">
        <ele>252.96</ele>
        <time>2018-05-19T06:50:45Z</time>
      </trkpt>
      <trkpt lat="43.2929341402" lon="-4.2935108766">
        <ele>251.04</ele>
        <time>2018-05-19T06:50:47Z</time>
      </trkpt>
      <trkpt lat="43.2928628102" lon="-4.2936922610">
        <ele>250.56</ele>
        <time>2018-05-19T06:50:49Z</time>
      </trkpt>
      <trkpt lat="43.2928207330" lon="-4.2938573845">
        <ele>249.60</ele>
        <time>2018-05-19T06:50:51Z</time>
      </trkpt>
      <trkpt lat="43.2927991915" lon="-4.2940613162">
        <ele>248.64</ele>
        <time>2018-05-19T06:50:53Z</time>
      </trkpt>
      <trkpt lat="43.2928274386" lon="-4.2942559440">
        <ele>247.20</ele>
        <time>2018-05-19T06:50:55Z</time>
      </trkpt>
      <trkpt lat="43.2928805798" lon="-4.2944550980">
        <ele>245.75</ele>
        <time>2018-05-19T06:50:57Z</time>
      </trkpt>
      <trkpt lat="43.2928887103" lon="-4.2945867777">
        <ele>245.27</ele>
        <time>2018-05-19T06:50:58Z</time>
      </trkpt>
      <trkpt lat="43.2928527519" lon="-4.2947898712">
        <ele>244.31</ele>
        <time>2018-05-19T06:51:00Z</time>
      </trkpt>
      <trkpt lat="43.2927880436" lon="-4.2949924618">
        <ele>243.83</ele>
        <time>2018-05-19T06:51:02Z</time>
      </trkpt>
      <trkpt lat="43.2927566953" lon="-4.2951924540">
        <ele>242.87</ele>
        <time>2018-05-19T06:51:04Z</time>
      </trkpt>
      <trkpt lat="43.2927681785" lon="-4.2953935359">
        <ele>242.39</ele>
        <time>2018-05-19T06:51:06Z</time>
      </trkpt>
      <trkpt lat="43.2928385865" lon="-4.2955919355">
        <ele>239.99</ele>
        <time>2018-05-19T06:51:08Z</time>
      </trkpt>
      <trkpt lat="43.2928913925" lon="-4.2956910096">
        <ele>239.51</ele>
        <time>2018-05-19T06:51:09Z</time>
      </trkpt>
      <trkpt lat="43.2929972559" lon="-4.2958359327">
        <ele>237.58</ele>
        <time>2018-05-19T06:51:11Z</time>
      </trkpt>
      <trkpt lat="43.2931358088" lon="-4.2959656846">
        <ele>235.66</ele>
        <time>2018-05-19T06:51:13Z</time>
      </trkpt>
      <trkpt lat="43.2932735234" lon="-4.2961014714">
        <ele>233.74</ele>
        <time>2018-05-19T06:51:15Z</time>
      </trkpt>
      <trkpt lat="43.2933708373" lon="-4.2962866277">
        <ele>231.81</ele>
        <time>2018-05-19T06:51:17Z</time>
      </trkpt>
      <trkpt lat="43.2934195362" lon="-4.2964056507">
        <ele>231.81</ele>
        <time>2018-05-19T06:51:18Z</time>
      </trkpt>
      <trkpt lat="43.2934864238" lon="-4.2965756357">
        <ele>230.85</ele>
        <time>2018-05-19T06:51:20Z</time>
      </trkpt>
      <trkpt lat="43.2935499586" lon="-4.2967607919">
        <ele>229.41</ele>
        <time>2018-05-19T06:51:22Z</time>
      </trkpt>
      <trkpt lat="43.2935727574" lon="-4.2969543301">
        <ele>228.45</ele>
        <time>2018-05-19T06:51:24Z</time>
      </trkpt>
      <trkpt lat="43.2935587596" lon="-4.2971658893">
        <ele>227.97</ele>
        <time>2018-05-19T06:51:26Z</time>
      </trkpt>
      <trkpt lat="43.2935214601" lon="-4.2973432504">
        <ele>227.49</ele>
        <time>2018-05-19T06:51:28Z</time>
      </trkpt>
      <trkpt lat="43.2934706658" lon="-4.2974868324">
        <ele>227.49</ele>
        <time>2018-05-19T06:51:30Z</time>
      </trkpt>
      <trkpt lat="43.2934750244" lon="-4.2976137344">
        <ele>227.49</ele>
        <time>2018-05-19T06:51:32Z</time>
      </trkpt>
      <trkpt lat="43.2935401518" lon="-4.2977335118">
        <ele>226.53</ele>
        <time>2018-05-19T06:51:34Z</time>
      </trkpt>
      <trkpt lat="43.2936585881" lon="-4.2978475895">
        <ele>226.05</ele>
        <time>2018-05-19T06:51:36Z</time>
      </trkpt>
      <trkpt lat="43.2937621884" lon="-4.2979484238">
        <ele>225.09</ele>
        <time>2018-05-19T06:51:38Z</time>
      </trkpt>
      <trkpt lat="43.2938806247" lon="-4.2980853003">
        <ele>223.64</ele>
        <time>2018-05-19T06:51:40Z</time>
      </trkpt>
      <trkpt lat="43.2940007374" lon="-4.2982387729">
        <ele>221.72</ele>
        <time>2018-05-19T06:51:42Z</time>
      </trkpt>
      <trkpt lat="43.2941215206" lon="-4.2983664293">
        <ele>220.28</ele>
        <time>2018-05-19T06:51:44Z</time>
      </trkpt>
      <trkpt lat="43.2942496799" lon="-4.2984093446">
        <ele>218.84</ele>
        <time>2018-05-19T06:51:46Z</time>
      </trkpt>
      <trkpt lat="43.2943738997" lon="-4.2983484082">
        <ele>216.91</ele>
        <time>2018-05-19T06:51:48Z</time>
      </trkpt>
      <trkpt lat="43.2944860496" lon="-4.2982207518">
        <ele>213.55</ele>
        <time>2018-05-19T06:51:50Z</time>
      </trkpt>
      <trkpt lat="43.2946238481" lon="-4.2981346697">
        <ele>210.67</ele>
        <time>2018-05-19T06:51:52Z</time>
      </trkpt>
      <trkpt lat="43.2947842777" lon="-4.2981153075">
        <ele>208.74</ele>
        <time>2018-05-19T06:51:54Z</time>
      </trkpt>
      <trkpt lat="43.2949022111" lon="-4.2980692070">
        <ele>207.30</ele>
        <time>2018-05-19T06:51:56Z</time>
      </trkpt>
      <trkpt lat="43.2950259279" lon="-4.2979555484">
        <ele>205.38</ele>
        <time>2018-05-19T06:51:58Z</time>
      </trkpt>
      <trkpt lat="43.2951484714" lon="-4.2978091165">
        <ele>203.46</ele>
        <time>2018-05-19T06:52:00Z</time>
      </trkpt>
      <trkpt lat="43.2952918019" lon="-4.2976627685">
        <ele>201.05</ele>
        <time>2018-05-19T06:52:02Z</time>
      </trkpt>
      <trkpt lat="43.2953813206" lon="-4.2975975573">
        <ele>199.61</ele>
        <time>2018-05-19T06:52:03Z</time>
      </trkpt>
      <trkpt lat="43.2955213822" lon="-4.2975382134">
        <ele>198.65</ele>
        <time>2018-05-19T06:52:05Z</time>
      </trkpt>
      <trkpt lat="43.2956093922" lon="-4.2975202762">
        <ele>197.69</ele>
        <time>2018-05-19T06:52:06Z</time>
      </trkpt>
      <trkpt lat="43.2957016770" lon="-4.2975137383">
        <ele>196.73</ele>
        <time>2018-05-19T06:52:07Z</time>
      </trkpt>
      <trkpt lat="43.2957957219" lon="-4.2975195218">
        <ele>194.80</ele>
        <time>2018-05-19T06:52:08Z</time>
      </trkpt>
      <trkpt lat="43.2958899345" lon="-4.2975393031">
        <ele>193.36</ele>
        <time>2018-05-19T06:52:09Z</time>
      </trkpt>
      <trkpt lat="43.2959900144" lon="-4.2975745071">
        <ele>192.40</ele>
        <time>2018-05-19T06:52:10Z</time>
      </trkpt>
      <trkpt lat="43.2960843947" lon="-4.2976257205">
        <ele>190.48</ele>
        <time>2018-05-19T06:52:11Z</time>
      </trkpt>
      <trkpt lat="43.2961842231" lon="-4.2977017444">
        <ele>188.56</ele>
        <time>2018-05-19T06:52:12Z</time>
      </trkpt>
      <trkpt lat="43.2963170763" lon="-4.2978166603">
        <ele>187.11</ele>
        <time>2018-05-19T06:52:14Z</time>
      </trkpt>
      <trkpt lat="43.2963959500" lon="-4.2978671193">
        <ele>186.15</ele>
        <time>2018-05-19T06:52:15Z</time>
      </trkpt>
      <trkpt lat="43.2965590619" lon="-4.2978978809">
        <ele>183.75</ele>
        <time>2018-05-19T06:52:17Z</time>
      </trkpt>
      <trkpt lat="43.2967189047" lon="-4.2978542950">
        <ele>181.83</ele>
        <time>2018-05-19T06:52:19Z</time>
      </trkpt>
      <trkpt lat="43.2968109380" lon="-4.2978532892">
        <ele>180.87</ele>
        <time>2018-05-19T06:52:20Z</time>
      </trkpt>
      <trkpt lat="43.2969124429" lon="-4.2978851404">
        <ele>179.42</ele>
        <time>2018-05-19T06:52:21Z</time>
      </trkpt>
      <trkpt lat="43.2970582880" lon="-4.2979666963">
        <ele>177.98</ele>
        <time>2018-05-19T06:52:23Z</time>
      </trkpt>
      <trkpt lat="43.2971388381" lon="-4.2980234418">
        <ele>177.02</ele>
        <time>2018-05-19T06:52:24Z</time>
      </trkpt>
      <trkpt lat="43.2972877845" lon="-4.2981536128">
        <ele>175.58</ele>
        <time>2018-05-19T06:52:26Z</time>
      </trkpt>
      <trkpt lat="43.2973913010" lon="-4.2983406130">
        <ele>173.17</ele>
        <time>2018-05-19T06:52:28Z</time>
      </trkpt>
      <trkpt lat="43.2974514831" lon="-4.2985965963">
        <ele>170.77</ele>
        <time>2018-05-19T06:52:30Z</time>
      </trkpt>
      <trkpt lat="43.2974608708" lon="-4.2987954151">
        <ele>169.33</ele>
        <time>2018-05-19T06:52:32Z</time>
      </trkpt>
      <trkpt lat="43.2974441070" lon="-4.2990093213">
        <ele>167.41</ele>
        <time>2018-05-19T06:52:34Z</time>
      </trkpt>
      <trkpt lat="43.2974145189" lon="-4.2991989199">
        <ele>166.45</ele>
        <time>2018-05-19T06:52:36Z</time>
      </trkpt>
      <trkpt lat="43.2974279299" lon="-4.2993528955">
        <ele>165.48</ele>
        <time>2018-05-19T06:52:38Z</time>
      </trkpt>
      <trkpt lat="43.2974907942" lon="-4.2994428333">
        <ele>165.00</ele>
        <time>2018-05-19T06:52:40Z</time>
      </trkpt>
      <trkpt lat="43.2975825761" lon="-4.2994381394">
        <ele>163.08</ele>
        <time>2018-05-19T06:52:42Z</time>
      </trkpt>
      <trkpt lat="43.2976948097" lon="-4.2993551586">
        <ele>161.16</ele>
        <time>2018-05-19T06:52:44Z</time>
      </trkpt>
      <trkpt lat="43.2978036907" lon="-4.2992798891">
        <ele>160.20</ele>
        <time>2018-05-19T06:52:46Z</time>
      </trkpt>
      <trkpt lat="43.2979125716" lon="-4.2992608622">
        <ele>158.27</ele>
        <time>2018-05-19T06:52:48Z</time>
      </trkpt>
      <trkpt lat="43.2979857456" lon="-4.2994116526">
        <ele>156.35</ele>
        <time>2018-05-19T06:52:51Z</time>
      </trkpt>
      <trkpt lat="43.2979674730" lon="-4.2995739263">
        <ele>154.43</ele>
        <time>2018-05-19T06:52:53Z</time>
      </trkpt>
      <trkpt lat="43.2979355380" lon="-4.2997584119">
        <ele>152.51</ele>
        <time>2018-05-19T06:52:55Z</time>
      </trkpt>
      <trkpt lat="43.2979031000" lon="-4.2999594100">
        <ele>150.58</ele>
        <time>2018-05-19T06:52:57Z</time>
      </trkpt>
      <trkpt lat="43.2978713326" lon="-4.3001420517">
        <ele>149.62</ele>
        <time>2018-05-19T06:52:59Z</time>
      </trkpt>
      <trkpt lat="43.2978150062" lon="-4.3002674449">
        <ele>149.62</ele>
        <time>2018-05-19T06:53:01Z</time>
      </trkpt>
      <trkpt lat="43.2977240626" lon="-4.3003399484">
        <ele>148.66</ele>
        <time>2018-05-19T06:53:03Z</time>
      </trkpt>
      <trkpt lat="43.2976172771" lon="-4.3004006334">
        <ele>147.70</ele>
        <time>2018-05-19T06:53:05Z</time>
      </trkpt>
      <trkpt lat="43.2975057978" lon="-4.3005220033">
        <ele>146.74</ele>
        <time>2018-05-19T06:53:07Z</time>
      </trkpt>
      <trkpt lat="43.2974191289" lon="-4.3006050680">
        <ele>148.18</ele>
        <time>2018-05-19T06:53:09Z</time>
      </trkpt>
      <trkpt lat="43.2973230723" lon="-4.3006484862">
        <ele>148.66</ele>
        <time>2018-05-19T06:53:11Z</time>
      </trkpt>
      <trkpt lat="43.2972339727" lon="-4.3006849475">
        <ele>150.10</ele>
        <time>2018-05-19T06:53:13Z</time>
      </trkpt>
      <trkpt lat="43.2971170451" lon="-4.3007426988">
        <ele>151.06</ele>
        <time>2018-05-19T06:53:16Z</time>
      </trkpt>
      <trkpt lat="43.2970389258" lon="-4.3007977679">
        <ele>151.54</ele>
        <time>2018-05-19T06:53:18Z</time>
      </trkpt>
      <trkpt lat="43.2969430368" lon="-4.3008763902">
        <ele>152.99</ele>
        <time>2018-05-19T06:53:21Z</time>
      </trkpt>
      <trkpt lat="43.2968525123" lon="-4.3009722792">
        <ele>153.95</ele>
        <time>2018-05-19T06:53:24Z</time>
      </trkpt>
      <trkpt lat="43.2967595570" lon="-4.3010791484">
        <ele>155.39</ele>
        <time>2018-05-19T06:53:27Z</time>
      </trkpt>
      <trkpt lat="43.2966862153" lon="-4.3011700921">
        <ele>155.87</ele>
        <time>2018-05-19T06:53:30Z</time>
      </trkpt>
      <trkpt lat="43.2965995464" lon="-4.3012411706">
        <ele>156.83</ele>
        <time>2018-05-19T06:53:33Z</time>
      </trkpt>
      <trkpt lat="43.2965008076" lon="-4.3013073038">
        <ele>157.31</ele>
        <time>2018-05-19T06:53:36Z</time>
      </trkpt>
      <trkpt lat="43.2963905018" lon="-4.3013420049">
        <ele>157.79</ele>
        <time>2018-05-19T06:53:39Z</time>
      </trkpt>
      <trkpt lat="43.2962700538" lon="-4.3013451900">
        <ele>157.79</ele>
        <time>2018-05-19T06:53:42Z</time>
      </trkpt>
      <trkpt lat="43.2961519528" lon="-4.3013298512">
        <ele>157.79</ele>
        <time>2018-05-19T06:53:45Z</time>
      </trkpt>
      <trkpt lat="43.2960618474" lon="-4.3012998439">
        <ele>157.79</ele>
        <time>2018-05-19T06:53:47Z</time>
      </trkpt>
      <trkpt lat="43.2959475182" lon="-4.3012651429">
        <ele>158.75</ele>
        <time>2018-05-19T06:53:50Z</time>
      </trkpt>
      <trkpt lat="43.2958205324" lon="-4.3012403324">
        <ele>156.83</ele>
        <time>2018-05-19T06:53:53Z</time>
      </trkpt>
      <trkpt lat="43.2956782915" lon="-4.3012572639">
        <ele>156.83</ele>
        <time>2018-05-19T06:53:56Z</time>
      </trkpt>
      <trkpt lat="43.2955700811" lon="-4.3012933061">
        <ele>156.83</ele>
        <time>2018-05-19T06:53:58Z</time>
      </trkpt>
      <trkpt lat="43.2954855077" lon="-4.3013461959">
        <ele>156.35</ele>
        <time>2018-05-19T06:54:00Z</time>
      </trkpt>
      <trkpt lat="43.2953886129" lon="-4.3014254048">
        <ele>155.39</ele>
        <time>2018-05-19T06:54:02Z</time>
      </trkpt>
      <trkpt lat="43.2952894550" lon="-4.3015226349">
        <ele>154.91</ele>
        <time>2018-05-19T06:54:04Z</time>
      </trkpt>
      <trkpt lat="43.2951856870" lon="-4.3016309291">
        <ele>154.91</ele>
        <time>2018-05-19T06:54:06Z</time>
      </trkpt>
      <trkpt lat="43.2950798236" lon="-4.3017900176">
        <ele>153.95</ele>
        <time>2018-05-19T06:54:08Z</time>
      </trkpt>
      <trkpt lat="43.2950180490" lon="-4.3019854836">
        <ele>152.99</ele>
        <time>2018-05-19T06:54:10Z</time>
      </trkpt>
      <trkpt lat="43.2949902210" lon="-4.3021884095">
        <ele>152.99</ele>
        <time>2018-05-19T06:54:12Z</time>
      </trkpt>
      <trkpt lat="43.2949638180" lon="-4.3023537006">
        <ele>152.99</ele>
        <time>2018-05-19T06:54:14Z</time>
      </trkpt>
      <trkpt lat="43.2949034683" lon="-4.3025003839">
        <ele>154.43</ele>
        <time>2018-05-19T06:54:16Z</time>
      </trkpt>
      <trkpt lat="43.2948136143" lon="-4.3026042357">
        <ele>154.91</ele>
        <time>2018-05-19T06:54:18Z</time>
      </trkpt>
      <trkpt lat="43.2947200723" lon="-4.3026474863">
        <ele>155.87</ele>
        <time>2018-05-19T06:54:20Z</time>
      </trkpt>
      <trkpt lat="43.2946045697" lon="-4.3026636634">
        <ele>156.83</ele>
        <time>2018-05-19T06:54:23Z</time>
      </trkpt>
      <trkpt lat="43.2944942638" lon="-4.3026684411">
        <ele>157.79</ele>
        <time>2018-05-19T06:54:26Z</time>
      </trkpt>
      <trkpt lat="43.2943967823" lon="-4.3026718777">
        <ele>158.75</ele>
        <time>2018-05-19T06:54:29Z</time>
      </trkpt>
      <trkpt lat="43.2942768373" lon="-4.3026739731">
        <ele>160.20</ele>
        <time>2018-05-19T06:54:33Z</time>
      </trkpt>
      <trkpt lat="43.2941823732" lon="-4.3026848696">
        <ele>161.16</ele>
        <time>2018-05-19T06:54:36Z</time>
      </trkpt>
      <trkpt lat="43.2940843888" lon="-4.3026892282">
        <ele>162.12</ele>
        <time>2018-05-19T06:54:39Z</time>
      </trkpt>
      <trkpt lat="43.2939732447" lon="-4.3026935868">
        <ele>163.56</ele>
        <time>2018-05-19T06:54:43Z</time>
      </trkpt>
      <trkpt lat="43.2938657887" lon="-4.3026999570">
        <ele>164.04</ele>
        <time>2018-05-19T06:54:47Z</time>
      </trkpt>
      <trkpt lat="43.2937650383" lon="-4.3027173076">
        <ele>165.00</ele>
        <time>2018-05-19T06:54:51Z</time>
      </trkpt>
      <trkpt lat="43.2936692331" lon="-4.3027273659">
        <ele>166.45</ele>
        <time>2018-05-19T06:54:55Z</time>
      </trkpt>
      <trkpt lat="43.2935762778" lon="-4.3027599715">
        <ele>167.41</ele>
        <time>2018-05-19T06:54:59Z</time>
      </trkpt>
      <trkpt lat="43.2934729289" lon="-4.3028211594">
        <ele>168.37</ele>
        <time>2018-05-19T06:55:04Z</time>
      </trkpt>
      <trkpt lat="43.2933935523" lon="-4.3028961774">
        <ele>169.33</ele>
        <time>2018-05-19T06:55:09Z</time>
      </trkpt>
      <trkpt lat="43.2932993397" lon="-4.3029856123">
        <ele>171.25</ele>
        <time>2018-05-19T06:55:15Z</time>
      </trkpt>
      <trkpt lat="43.2932172809" lon="-4.3030743767">
        <ele>172.69</ele>
        <time>2018-05-19T06:55:20Z</time>
      </trkpt>
      <trkpt lat="43.2931383234" lon="-4.3031758815">
        <ele>173.66</ele>
        <time>2018-05-19T06:55:25Z</time>
      </trkpt>
      <trkpt lat="43.2930337172" lon="-4.3032236584">
        <ele>175.58</ele>
        <time>2018-05-19T06:55:30Z</time>
      </trkpt>
      <trkpt lat="43.2929392532" lon="-4.3032166176">
        <ele>176.54</ele>
        <time>2018-05-19T06:55:35Z</time>
      </trkpt>
      <trkpt lat="43.2928428613" lon="-4.3031985126">
        <ele>177.98</ele>
        <time>2018-05-19T06:55:40Z</time>
      </trkpt>
      <trkpt lat="43.2927443739" lon="-4.3031786475">
        <ele>179.42</ele>
        <time>2018-05-19T06:55:45Z</time>
      </trkpt>
      <trkpt lat="43.2926330622" lon="-4.3031772226">
        <ele>180.38</ele>
        <time>2018-05-19T06:55:50Z</time>
      </trkpt>
      <trkpt lat="43.2925261930" lon="-4.3031884544">
        <ele>181.35</ele>
        <time>2018-05-19T06:55:55Z</time>
      </trkpt>
      <trkpt lat="43.2924178150" lon="-4.3031953275">
        <ele>181.83</ele>
        <time>2018-05-19T06:56:00Z</time>
      </trkpt>
      <trkpt lat="43.2923189085" lon="-4.3031583633">
        <ele>182.31</ele>
        <time>2018-05-19T06:56:05Z</time>
      </trkpt>
      <trkpt lat="43.2922360953" lon="-4.3031022884">
        <ele>183.27</ele>
        <time>2018-05-19T06:56:09Z</time>
      </trkpt>
      <trkpt lat="43.2921474986" lon="-4.3030487280">
        <ele>183.27</ele>
        <time>2018-05-19T06:56:13Z</time>
      </trkpt>
      <trkpt lat="43.2920544595" lon="-4.3029715307">
        <ele>183.75</ele>
        <time>2018-05-19T06:56:17Z</time>
      </trkpt>
      <trkpt lat="43.2919794414" lon="-4.3028623145">
        <ele>184.23</ele>
        <time>2018-05-19T06:56:21Z</time>
      </trkpt>
      <trkpt lat="43.2919590734" lon="-4.3027199898">
        <ele>184.71</ele>
        <time>2018-05-19T06:56:25Z</time>
      </trkpt>
      <trkpt lat="43.2919760048" lon="-4.3025919981">
        <ele>185.19</ele>
        <time>2018-05-19T06:56:29Z</time>
      </trkpt>
      <trkpt lat="43.2919987198" lon="-4.3024298921">
        <ele>185.67</ele>
        <time>2018-05-19T06:56:33Z</time>
      </trkpt>
      <trkpt lat="43.2920025755" lon="-4.3022608291">
        <ele>185.67</ele>
        <time>2018-05-19T06:56:36Z</time>
      </trkpt>
      <trkpt lat="43.2919770945" lon="-4.3020566460">
        <ele>184.23</ele>
        <time>2018-05-19T06:56:39Z</time>
      </trkpt>
      <trkpt lat="43.2919412199" lon="-4.3018848170">
        <ele>182.79</ele>
        <time>2018-05-19T06:56:41Z</time>
      </trkpt>
      <trkpt lat="43.2918945327" lon="-4.3017101381">
        <ele>182.79</ele>
        <time>2018-05-19T06:56:43Z</time>
      </trkpt>
      <trkpt lat="43.2918530423" lon="-4.3015519716">
        <ele>182.79</ele>
        <time>2018-05-19T06:56:45Z</time>
      </trkpt>
      <trkpt lat="43.2918118872" lon="-4.3014012650">
        <ele>182.79</ele>
        <time>2018-05-19T06:56:47Z</time>
      </trkpt>
      <trkpt lat="43.2917828858" lon="-4.3012628797">
        <ele>184.71</ele>
        <time>2018-05-19T06:56:50Z</time>
      </trkpt>
      <trkpt lat="43.2917710673" lon="-4.3011368997">
        <ele>185.67</ele>
        <time>2018-05-19T06:56:53Z</time>
      </trkpt>
      <trkpt lat="43.2917657029" lon="-4.3009783980">
        <ele>186.15</ele>
        <time>2018-05-19T06:56:57Z</time>
      </trkpt>
      <trkpt lat="43.2917526271" lon="-4.3008300383">
        <ele>186.15</ele>
        <time>2018-05-19T06:57:00Z</time>
      </trkpt>
      <trkpt lat="43.2917236257" lon="-4.3006983586">
        <ele>187.11</ele>
        <time>2018-05-19T06:57:03Z</time>
      </trkpt>
      <trkpt lat="43.2916817162" lon="-4.3005667627">
        <ele>188.08</ele>
        <time>2018-05-19T06:57:07Z</time>
      </trkpt>
      <trkpt lat="43.2916276529" lon="-4.3004370108">
        <ele>190.00</ele>
        <time>2018-05-19T06:57:13Z</time>
      </trkpt>
      <trkpt lat="43.2915566582" lon="-4.3003411219">
        <ele>191.92</ele>
        <time>2018-05-19T06:57:19Z</time>
      </trkpt>
      <trkpt lat="43.2914495375" lon="-4.3002795987">
        <ele>193.84</ele>
        <time>2018-05-19T06:57:26Z</time>
      </trkpt>
      <trkpt lat="43.2913502958" lon="-4.3002318218">
        <ele>195.28</ele>
        <time>2018-05-19T06:57:31Z</time>
      </trkpt>
      <trkpt lat="43.2912501320" lon="-4.3001869787">
        <ele>195.77</ele>
        <time>2018-05-19T06:57:36Z</time>
      </trkpt>
      <trkpt lat="43.2911399100" lon="-4.3001205940">
        <ele>196.73</ele>
        <time>2018-05-19T06:57:41Z</time>
      </trkpt>
      <trkpt lat="43.2910427637" lon="-4.3000444025">
        <ele>196.73</ele>
        <time>2018-05-19T06:57:45Z</time>
      </trkpt>
      <trkpt lat="43.2909437735" lon="-4.2999767605">
        <ele>197.69</ele>
        <time>2018-05-19T06:57:49Z</time>
      </trkpt>
      <trkpt lat="43.2908449508" lon="-4.2999268044">
        <ele>198.65</ele>
        <time>2018-05-19T06:57:53Z</time>
      </trkpt>
      <trkpt lat="43.2907319628" lon="-4.2998699751">
        <ele>200.09</ele>
        <time>2018-05-19T06:57:58Z</time>
      </trkpt>
      <trkpt lat="43.2906274404" lon="-4.2998066917">
        <ele>201.53</ele>
        <time>2018-05-19T06:58:03Z</time>
      </trkpt>
      <trkpt lat="43.2905266061" lon="-4.2997467611">
        <ele>202.98</ele>
        <time>2018-05-19T06:58:08Z</time>
      </trkpt>
      <trkpt lat="43.2904276159" lon="-4.2996951286">
        <ele>204.90</ele>
        <time>2018-05-19T06:58:13Z</time>
      </trkpt>
      <trkpt lat="43.2903391868" lon="-4.2996555660">
        <ele>204.90</ele>
        <time>2018-05-19T06:58:17Z</time>
      </trkpt>
      <trkpt lat="43.2902446389" lon="-4.2996094655">
        <ele>204.90</ele>
        <time>2018-05-19T06:58:20Z</time>
      </trkpt>
      <trkpt lat="43.2901561260" lon="-4.2995384708">
        <ele>204.90</ele>
        <time>2018-05-19T06:58:23Z</time>
      </trkpt>
      <trkpt lat="43.2900812756" lon="-4.2994665541">
        <ele>205.38</ele>
        <time>2018-05-19T06:58:26Z</time>
      </trkpt>
      <trkpt lat="43.2899837941" lon="-4.2993849143">
        <ele>206.82</ele>
        <time>2018-05-19T06:58:31Z</time>
      </trkpt>
      <trkpt lat="43.2898798585" lon="-4.2993223853">
        <ele>209.22</ele>
        <time>2018-05-19T06:58:37Z</time>
      </trkpt>
      <trkpt lat="43.2897808682" lon="-4.2992610298">
        <ele>211.63</ele>
        <time>2018-05-19T06:58:44Z</time>
      </trkpt>
      <trkpt lat="43.2896911819" lon="-4.2991938069">
        <ele>213.07</ele>
        <time>2018-05-19T06:58:50Z</time>
      </trkpt>
      <trkpt lat="43.2895888388" lon="-4.2991147656">
        <ele>214.03</ele>
        <time>2018-05-19T06:58:56Z</time>
      </trkpt>
      <trkpt lat="43.2895056065" lon="-4.2990440223">
        <ele>215.47</ele>
        <time>2018-05-19T06:59:01Z</time>
      </trkpt>
      <trkpt lat="43.2894137409" lon="-4.2989571858">
        <ele>216.91</ele>
        <time>2018-05-19T06:59:07Z</time>
      </trkpt>
      <trkpt lat="43.2893317658" lon="-4.2988778092">
        <ele>217.88</ele>
        <time>2018-05-19T06:59:12Z</time>
      </trkpt>
      <trkpt lat="43.2892436720" lon="-4.2987918109">
        <ele>219.32</ele>
        <time>2018-05-19T06:59:18Z</time>
      </trkpt>
      <trkpt lat="43.2891570032" lon="-4.2987337243">
        <ele>220.28</ele>
        <time>2018-05-19T06:59:23Z</time>
      </trkpt>
      <trkpt lat="43.2890699152" lon="-4.2986924853">
        <ele>221.24</ele>
        <time>2018-05-19T06:59:28Z</time>
      </trkpt>
      <trkpt lat="43.2889665663" lon="-4.2986480612">
        <ele>222.20</ele>
        <time>2018-05-19T06:59:33Z</time>
      </trkpt>
      <trkpt lat="43.2888720185" lon="-4.2985447124">
        <ele>222.20</ele>
        <time>2018-05-19T06:59:37Z</time>
      </trkpt>
      <trkpt lat="43.2888061367" lon="-4.2984239291">
        <ele>222.20</ele>
        <time>2018-05-19T06:59:40Z</time>
      </trkpt>
      <trkpt lat="43.2887627184" lon="-4.2982691992">
        <ele>221.24</ele>
        <time>2018-05-19T06:59:43Z</time>
      </trkpt>
      <trkpt lat="43.2886978425" lon="-4.2981074285">
        <ele>221.24</ele>
        <time>2018-05-19T06:59:46Z</time>
      </trkpt>
      <trkpt lat="43.2886267640" lon="-4.2979937699">
        <ele>220.28</ele>
        <time>2018-05-19T06:59:48Z</time>
      </trkpt>
      <trkpt lat="43.2885493152" lon="-4.2978931032">
        <ele>219.80</ele>
        <time>2018-05-19T06:59:50Z</time>
      </trkpt>
      <trkpt lat="43.2884604670" lon="-4.2977768462">
        <ele>219.32</ele>
        <time>2018-05-19T06:59:52Z</time>
      </trkpt>
      <trkpt lat="43.2883930765" lon="-4.2976442445">
        <ele>219.32</ele>
        <time>2018-05-19T06:59:54Z</time>
      </trkpt>
      <trkpt lat="43.2883518375" lon="-4.2975054402">
        <ele>222.68</ele>
        <time>2018-05-19T06:59:57Z</time>
      </trkpt>
      <trkpt lat="43.2883114368" lon="-4.2973651271">
        <ele>224.61</ele>
        <time>2018-05-19T07:00:01Z</time>
      </trkpt>
      <trkpt lat="43.2882723771" lon="-4.2972481158">
        <ele>225.09</ele>
        <time>2018-05-19T07:00:04Z</time>
      </trkpt>
      <trkpt lat="43.2882360835" lon="-4.2971211299">
        <ele>226.05</ele>
        <time>2018-05-19T07:00:07Z</time>
      </trkpt>
      <trkpt lat="43.2881966885" lon="-4.2969829962">
        <ele>227.49</ele>
        <time>2018-05-19T07:00:11Z</time>
      </trkpt>
      <trkpt lat="43.2881592214" lon="-4.2968700081">
        <ele>227.97</ele>
        <time>2018-05-19T07:00:14Z</time>
      </trkpt>
      <trkpt lat="43.2880917471" lon="-4.2967660725">
        <ele>227.97</ele>
        <time>2018-05-19T07:00:17Z</time>
      </trkpt>
      <trkpt lat="43.2880102750" lon="-4.2967264261">
        <ele>228.93</ele>
        <time>2018-05-19T07:00:20Z</time>
      </trkpt>
      <trkpt lat="43.2878923416" lon="-4.2967098299">
        <ele>229.41</ele>
        <time>2018-05-19T07:00:24Z</time>
      </trkpt>
      <trkpt lat="43.2877888251" lon="-4.2967032082">
        <ele>229.89</ele>
        <time>2018-05-19T07:00:27Z</time>
      </trkpt>
      <trkpt lat="43.2876438182" lon="-4.2966897134">
        <ele>229.89</ele>
        <time>2018-05-19T07:00:30Z</time>
      </trkpt>
      <trkpt lat="43.2875300758" lon="-4.2966930661">
        <ele>227.97</ele>
        <time>2018-05-19T07:00:32Z</time>
      </trkpt>
      <trkpt lat="43.2874226198" lon="-4.2966993526">
        <ele>227.49</ele>
        <time>2018-05-19T07:00:34Z</time>
      </trkpt>
      <trkpt lat="43.2872906048" lon="-4.2967196368">
        <ele>227.49</ele>
        <time>2018-05-19T07:00:37Z</time>
      </trkpt>
      <trkpt lat="43.2872051094" lon="-4.2966911383">
        <ele>228.45</ele>
        <time>2018-05-19T07:00:39Z</time>
      </trkpt>
      <trkpt lat="43.2871409040" lon="-4.2966074031">
        <ele>228.45</ele>
        <time>2018-05-19T07:00:41Z</time>
      </trkpt>
      <trkpt lat="43.2870818954" lon="-4.2964802496">
        <ele>229.41</ele>
        <time>2018-05-19T07:00:44Z</time>
      </trkpt>
      <trkpt lat="43.2870195340" lon="-4.2963677645">
        <ele>231.33</ele>
        <time>2018-05-19T07:00:47Z</time>
      </trkpt>
      <trkpt lat="43.2869257405" lon="-4.2963627353">
        <ele>231.81</ele>
        <time>2018-05-19T07:00:50Z</time>
      </trkpt>
      <trkpt lat="43.2868795563" lon="-4.2964672577">
        <ele>233.26</ele>
        <time>2018-05-19T07:00:53Z</time>
      </trkpt>
      <trkpt lat="43.2868418377" lon="-4.2966020387">
        <ele>234.22</ele>
        <time>2018-05-19T07:00:57Z</time>
      </trkpt>
      <trkpt lat="43.2867851760" lon="-4.2967328802">
        <ele>234.70</ele>
        <time>2018-05-19T07:01:01Z</time>
      </trkpt>
      <trkpt lat="43.2867278438" lon="-4.2968453653">
        <ele>235.66</ele>
        <time>2018-05-19T07:01:05Z</time>
      </trkpt>
      <trkpt lat="43.2866659854" lon="-4.2969555873">
        <ele>237.10</ele>
        <time>2018-05-19T07:01:10Z</time>
      </trkpt>
      <trkpt lat="43.2866172865" lon="-4.2970737722">
        <ele>238.54</ele>
        <time>2018-05-19T07:01:15Z</time>
      </trkpt>
      <trkpt lat="43.2865499798" lon="-4.2971752770">
        <ele>240.47</ele>
        <time>2018-05-19T07:01:21Z</time>
      </trkpt>
      <trkpt lat="43.2864768896" lon="-4.2972502951">
        <ele>242.39</ele>
        <time>2018-05-19T07:01:27Z</time>
      </trkpt>
      <trkpt lat="43.2863980159" lon="-4.2973220441">
        <ele>243.35</ele>
        <time>2018-05-19T07:01:32Z</time>
      </trkpt>
      <trkpt lat="43.2863256801" lon="-4.2974033486">
        <ele>245.27</ele>
        <time>2018-05-19T07:01:37Z</time>
      </trkpt>
      <trkpt lat="43.2862521708" lon="-4.2974988185">
        <ele>246.23</ele>
        <time>2018-05-19T07:01:43Z</time>
      </trkpt>
      <trkpt lat="43.2861642446" lon="-4.2975882534">
        <ele>248.16</ele>
        <time>2018-05-19T07:01:49Z</time>
      </trkpt>
      <trkpt lat="43.2860639971" lon="-4.2976413108">
        <ele>249.12</ele>
        <time>2018-05-19T07:01:55Z</time>
      </trkpt>
      <trkpt lat="43.2859748974" lon="-4.2976976372">
        <ele>250.56</ele>
        <time>2018-05-19T07:02:01Z</time>
      </trkpt>
      <trkpt lat="43.2858894859" lon="-4.2977515329">
        <ele>252.48</ele>
        <time>2018-05-19T07:02:08Z</time>
      </trkpt>
      <trkpt lat="43.2857915014" lon="-4.2977966275">
        <ele>254.41</ele>
        <time>2018-05-19T07:02:16Z</time>
      </trkpt>
      <trkpt lat="43.2857015636" lon="-4.2978445720">
        <ele>256.33</ele>
        <time>2018-05-19T07:02:23Z</time>
      </trkpt>
      <trkpt lat="43.2856021542" lon="-4.2978653591">
        <ele>258.25</ele>
        <time>2018-05-19T07:02:30Z</time>
      </trkpt>
      <trkpt lat="43.2855112944" lon="-4.2978724837">
        <ele>258.73</ele>
        <time>2018-05-19T07:02:35Z</time>
      </trkpt>
      <trkpt lat="43.2854100410" lon="-4.2979013175">
        <ele>261.14</ele>
        <time>2018-05-19T07:02:41Z</time>
      </trkpt>
      <trkpt lat="43.2853262220" lon="-4.2979644332">
        <ele>262.58</ele>
        <time>2018-05-19T07:02:47Z</time>
      </trkpt>
      <trkpt lat="43.2852413971" lon="-4.2980395351">
        <ele>264.02</ele>
        <time>2018-05-19T07:02:53Z</time>
      </trkpt>
      <trkpt lat="43.2851744257" lon="-4.2981311493">
        <ele>264.98</ele>
        <time>2018-05-19T07:02:59Z</time>
      </trkpt>
      <trkpt lat="43.2851283252" lon="-4.2982595600">
        <ele>265.94</ele>
        <time>2018-05-19T07:03:05Z</time>
      </trkpt>
      <trkpt lat="43.2851002458" lon="-4.2983955983">
        <ele>266.90</ele>
        <time>2018-05-19T07:03:11Z</time>
      </trkpt>
      <trkpt lat="43.2850756031" lon="-4.2985379230">
        <ele>267.86</ele>
        <time>2018-05-19T07:03:17Z</time>
      </trkpt>
      <trkpt lat="43.2850630302" lon="-4.2986687645">
        <ele>269.31</ele>
        <time>2018-05-19T07:03:23Z</time>
      </trkpt>
      <trkpt lat="43.2850439195" lon="-4.2987973429">
        <ele>270.27</ele>
        <time>2018-05-19T07:03:29Z</time>
      </trkpt>
      <trkpt lat="43.2850093022" lon="-4.2989283521">
        <ele>271.71</ele>
        <time>2018-05-19T07:03:36Z</time>
      </trkpt>
      <trkpt lat="43.2849790435" lon="-4.2990659829">
        <ele>273.63</ele>
        <time>2018-05-19T07:03:43Z</time>
      </trkpt>
      <trkpt lat="43.2849554904" lon="-4.2992095649">
        <ele>275.07</ele>
        <time>2018-05-19T07:03:50Z</time>
      </trkpt>
      <trkpt lat="43.2849034388" lon="-4.2993302643">
        <ele>276.52</ele>
        <time>2018-05-19T07:03:57Z</time>
      </trkpt>
      <trkpt lat="43.2848859206" lon="-4.2994813062">
        <ele>277.00</ele>
        <time>2018-05-19T07:04:02Z</time>
      </trkpt>
      <trkpt lat="43.2849753555" lon="-4.2995595094">
        <ele>277.96</ele>
        <time>2018-05-19T07:04:07Z</time>
      </trkpt>
      <trkpt lat="43.2850739267" lon="-4.2995961383">
        <ele>278.92</ele>
        <time>2018-05-19T07:04:12Z</time>
      </trkpt>
      <trkpt lat="43.2851744257" lon="-4.2996608466">
        <ele>279.40</ele>
        <time>2018-05-19T07:04:17Z</time>
      </trkpt>
      <trkpt lat="43.2852392178" lon="-4.2997465935">
        <ele>279.88</ele>
        <time>2018-05-19T07:04:21Z</time>
      </trkpt>
      <trkpt lat="43.2853160799" lon="-4.2998750042">
        <ele>279.88</ele>
        <time>2018-05-19T07:04:25Z</time>
      </trkpt>
      <trkpt lat="43.2853669580" lon="-4.3000082765">
        <ele>279.88</ele>
        <time>2018-05-19T07:04:28Z</time>
      </trkpt>
      <trkpt lat="43.2854245417" lon="-4.3001155648">
        <ele>279.88</ele>
        <time>2018-05-19T07:04:31Z</time>
      </trkpt>
      <trkpt lat="43.2854698878" lon="-4.3001905829">
        <ele>278.92</ele>
        <time>2018-05-19T07:05:22Z</time>
      </trkpt>
      <trkpt lat="43.2855199277" lon="-4.3003039062">
        <ele>277.96</ele>
        <time>2018-05-19T07:05:26Z</time>
      </trkpt>
      <trkpt lat="43.2855914254" lon="-4.3004353344">
        <ele>276.04</ele>
        <time>2018-05-19T07:05:29Z</time>
      </trkpt>
      <trkpt lat="43.2856777590" lon="-4.3005504180">
        <ele>274.59</ele>
        <time>2018-05-19T07:05:31Z</time>
      </trkpt>
      <trkpt lat="43.2857567165" lon="-4.3006763142">
        <ele>274.11</ele>
        <time>2018-05-19T07:05:33Z</time>
      </trkpt>
      <trkpt lat="43.2858217601" lon="-4.3008162919">
        <ele>274.11</ele>
        <time>2018-05-19T07:05:35Z</time>
      </trkpt>
      <trkpt lat="43.2858716324" lon="-4.3009326328">
        <ele>276.52</ele>
        <time>2018-05-19T07:05:37Z</time>
      </trkpt>
      <trkpt lat="43.2859432139" lon="-4.3010980915">
        <ele>277.00</ele>
        <time>2018-05-19T07:05:40Z</time>
      </trkpt>
      <trkpt lat="43.2859851234" lon="-4.3012680765">
        <ele>275.07</ele>
        <time>2018-05-19T07:05:42Z</time>
      </trkpt>
      <trkpt lat="43.2859894820" lon="-4.3014324456">
        <ele>275.07</ele>
        <time>2018-05-19T07:05:44Z</time>
      </trkpt>
      <trkpt lat="43.2859753165" lon="-4.3016068731">
        <ele>275.56</ele>
        <time>2018-05-19T07:05:46Z</time>
      </trkpt>
      <trkpt lat="43.2859535236" lon="-4.3017405644">
        <ele>276.52</ele>
        <time>2018-05-19T07:05:48Z</time>
      </trkpt>
      <trkpt lat="43.2859189902" lon="-4.3018633593">
        <ele>277.96</ele>
        <time>2018-05-19T07:05:51Z</time>
      </trkpt>
      <trkpt lat="43.2858587243" lon="-4.3019926082">
        <ele>279.40</ele>
        <time>2018-05-19T07:05:56Z</time>
      </trkpt>
      <trkpt lat="43.2858096901" lon="-4.3021169957">
        <ele>280.36</ele>
        <time>2018-05-19T07:06:01Z</time>
      </trkpt>
      <trkpt lat="43.2857609075" lon="-4.3022526987">
        <ele>281.80</ele>
        <time>2018-05-19T07:06:07Z</time>
      </trkpt>
      <trkpt lat="43.2857103646" lon="-4.3023783434">
        <ele>283.73</ele>
        <time>2018-05-19T07:06:12Z</time>
      </trkpt>
      <trkpt lat="43.2856698800" lon="-4.3025083467">
        <ele>285.17</ele>
        <time>2018-05-19T07:06:17Z</time>
      </trkpt>
      <trkpt lat="43.2856457401" lon="-4.3026546948">
        <ele>286.13</ele>
        <time>2018-05-19T07:06:23Z</time>
      </trkpt>
      <trkpt lat="43.2856169064" lon="-4.3027783278">
        <ele>287.57</ele>
        <time>2018-05-19T07:06:29Z</time>
      </trkpt>
      <trkpt lat="43.2855635136" lon="-4.3028836884">
        <ele>289.01</ele>
        <time>2018-05-19T07:06:35Z</time>
      </trkpt>
      <trkpt lat="43.2854864839" lon="-4.3029649928">
        <ele>291.42</ele>
        <time>2018-05-19T07:06:41Z</time>
      </trkpt>
      <trkpt lat="43.2853960432" lon="-4.3030409329">
        <ele>292.86</ele>
        <time>2018-05-19T07:06:47Z</time>
      </trkpt>
      <trkpt lat="43.2853257190" lon="-4.3031406775">
        <ele>294.30</ele>
        <time>2018-05-19T07:06:53Z</time>
      </trkpt>
      <trkpt lat="43.2852518745" lon="-4.3032507319">
        <ele>294.30</ele>
        <time>2018-05-19T07:06:58Z</time>
      </trkpt>
      <trkpt lat="43.2851588354" lon="-4.3033504765">
        <ele>295.26</ele>
        <time>2018-05-19T07:07:03Z</time>
      </trkpt>
      <trkpt lat="43.2850667182" lon="-4.3034313619">
        <ele>296.22</ele>
        <time>2018-05-19T07:07:08Z</time>
      </trkpt>
      <trkpt lat="43.2849815581" lon="-4.3035114091">
        <ele>298.15</ele>
        <time>2018-05-19T07:07:13Z</time>
      </trkpt>
      <trkpt lat="43.2848881837" lon="-4.3035819847">
        <ele>298.63</ele>
        <time>2018-05-19T07:07:18Z</time>
      </trkpt>
      <trkpt lat="43.2847910374" lon="-4.3036657199">
        <ele>300.07</ele>
        <time>2018-05-19T07:07:23Z</time>
      </trkpt>
      <trkpt lat="43.2847924624" lon="-4.3037971482">
        <ele>301.03</ele>
        <time>2018-05-19T07:07:28Z</time>
      </trkpt>
      <trkpt lat="43.2848470286" lon="-4.3038983177">
        <ele>301.51</ele>
        <time>2018-05-19T07:07:32Z</time>
      </trkpt>
      <trkpt lat="43.2849098090" lon="-4.3039795384">
        <ele>301.99</ele>
        <time>2018-05-19T07:07:35Z</time>
      </trkpt>
      <trkpt lat="43.2849915326" lon="-4.3040454201">
        <ele>301.99</ele>
        <time>2018-05-19T07:07:39Z</time>
      </trkpt>
      <trkpt lat="43.2850905228" lon="-4.3041025009">
        <ele>302.47</ele>
        <time>2018-05-19T07:07:43Z</time>
      </trkpt>
      <trkpt lat="43.2851900160" lon="-4.3041488528">
        <ele>303.43</ele>
        <time>2018-05-19T07:07:47Z</time>
      </trkpt>
      <trkpt lat="43.2852786966" lon="-4.3042244576">
        <ele>303.91</ele>
        <time>2018-05-19T07:07:51Z</time>
      </trkpt>
      <trkpt lat="43.2853451651" lon="-4.3043232802">
        <ele>304.39</ele>
        <time>2018-05-19T07:07:55Z</time>
      </trkpt>
      <trkpt lat="43.2854004018" lon="-4.3044233602">
        <ele>305.36</ele>
        <time>2018-05-19T07:07:59Z</time>
      </trkpt>
      <trkpt lat="43.2854712289" lon="-4.3045340013">
        <ele>306.80</ele>
        <time>2018-05-19T07:08:04Z</time>
      </trkpt>
      <trkpt lat="43.2855372783" lon="-4.3046205863">
        <ele>308.24</ele>
        <time>2018-05-19T07:08:08Z</time>
      </trkpt>
      <trkpt lat="43.2856260426" lon="-4.3046977837">
        <ele>309.20</ele>
        <time>2018-05-19T07:08:13Z</time>
      </trkpt>
      <trkpt lat="43.2857283857" lon="-4.3047645874">
        <ele>310.16</ele>
        <time>2018-05-19T07:08:18Z</time>
      </trkpt>
      <trkpt lat="43.2858211733" lon="-4.3048270326">
        <ele>311.12</ele>
        <time>2018-05-19T07:08:23Z</time>
      </trkpt>
      <trkpt lat="43.2859146316" lon="-4.3048804253">
        <ele>312.57</ele>
        <time>2018-05-19T07:08:28Z</time>
      </trkpt>
      <trkpt lat="43.2860038988" lon="-4.3049321417">
        <ele>314.01</ele>
        <time>2018-05-19T07:08:33Z</time>
      </trkpt>
      <trkpt lat="43.2860955968" lon="-4.3049802538">
        <ele>314.49</ele>
        <time>2018-05-19T07:08:38Z</time>
      </trkpt>
      <trkpt lat="43.2861841936" lon="-4.3050235882">
        <ele>315.45</ele>
        <time>2018-05-19T07:08:43Z</time>
      </trkpt>
      <trkpt lat="43.2862786576" lon="-4.3050616421">
        <ele>316.41</ele>
        <time>2018-05-19T07:08:48Z</time>
      </trkpt>
      <trkpt lat="43.2863774803" lon="-4.3050929904">
        <ele>317.85</ele>
        <time>2018-05-19T07:08:53Z</time>
      </trkpt>
      <trkpt lat="43.2864699326" lon="-4.3051545974">
        <ele>318.33</ele>
        <time>2018-05-19T07:08:58Z</time>
      </trkpt>
      <trkpt lat="43.2865381613" lon="-4.3052597065">
        <ele>318.33</ele>
        <time>2018-05-19T07:09:01Z</time>
      </trkpt>
      <trkpt lat="43.2865880337" lon="-4.3054155260">
        <ele>318.33</ele>
        <time>2018-05-19T07:09:04Z</time>
      </trkpt>
      <trkpt lat="43.2866189629" lon="-4.3055584375">
        <ele>316.89</ele>
        <time>2018-05-19T07:09:06Z</time>
      </trkpt>
      <trkpt lat="43.2866487186" lon="-4.3057097308">
        <ele>316.41</ele>
        <time>2018-05-19T07:09:08Z</time>
      </trkpt>
      <trkpt lat="43.2866878621" lon="-4.3058671430">
        <ele>316.41</ele>
        <time>2018-05-19T07:09:10Z</time>
      </trkpt>
      <trkpt lat="43.2867479604" lon="-4.3060203642">
        <ele>315.93</ele>
        <time>2018-05-19T07:09:12Z</time>
      </trkpt>
      <trkpt lat="43.2868023589" lon="-4.3061328493">
        <ele>315.93</ele>
        <time>2018-05-19T07:09:14Z</time>
      </trkpt>
      <trkpt lat="43.2868811488" lon="-4.3062689714">
        <ele>314.97</ele>
        <time>2018-05-19T07:09:16Z</time>
      </trkpt>
      <trkpt lat="43.2869685721" lon="-4.3064171635">
        <ele>314.49</ele>
        <time>2018-05-19T07:09:18Z</time>
      </trkpt>
      <trkpt lat="43.2870503794" lon="-4.3065741565">
        <ele>313.53</ele>
        <time>2018-05-19T07:09:20Z</time>
      </trkpt>
      <trkpt lat="43.2871200331" lon="-4.3067208398">
        <ele>313.53</ele>
        <time>2018-05-19T07:09:22Z</time>
      </trkpt>
      <trkpt lat="43.2871880941" lon="-4.3068499211">
        <ele>313.53</ele>
        <time>2018-05-19T07:09:24Z</time>
      </trkpt>
      <trkpt lat="43.2872529700" lon="-4.3069579639">
        <ele>313.53</ele>
        <time>2018-05-19T07:09:26Z</time>
      </trkpt>
      <trkpt lat="43.2873190194" lon="-4.3070515897">
        <ele>314.97</ele>
        <time>2018-05-19T07:09:28Z</time>
      </trkpt>
      <trkpt lat="43.2873989828" lon="-4.3071472272">
        <ele>314.97</ele>
        <time>2018-05-19T07:09:30Z</time>
      </trkpt>
      <trkpt lat="43.2874957100" lon="-4.3072708603">
        <ele>312.57</ele>
        <time>2018-05-19T07:09:32Z</time>
      </trkpt>
      <trkpt lat="43.2875970472" lon="-4.3073993549">
        <ele>309.68</ele>
        <time>2018-05-19T07:09:34Z</time>
      </trkpt>
      <trkpt lat="43.2876682933" lon="-4.3074989319">
        <ele>308.24</ele>
        <time>2018-05-19T07:09:35Z</time>
      </trkpt>
      <trkpt lat="43.2877353486" lon="-4.3076069746">
        <ele>306.32</ele>
        <time>2018-05-19T07:09:36Z</time>
      </trkpt>
      <trkpt lat="43.2877841312" lon="-4.3077102397">
        <ele>305.36</ele>
        <time>2018-05-19T07:09:37Z</time>
      </trkpt>
      <trkpt lat="43.2878264599" lon="-4.3078381475">
        <ele>305.36</ele>
        <time>2018-05-19T07:09:38Z</time>
      </trkpt>
      <trkpt lat="43.2878541201" lon="-4.3079578411">
        <ele>304.39</ele>
        <time>2018-05-19T07:09:39Z</time>
      </trkpt>
      <trkpt lat="43.2879215106" lon="-4.3081822246">
        <ele>304.39</ele>
        <time>2018-05-19T07:09:41Z</time>
      </trkpt>
      <trkpt lat="43.2880109455" lon="-4.3083814625">
        <ele>303.91</ele>
        <time>2018-05-19T07:09:43Z</time>
      </trkpt>
      <trkpt lat="43.2881150488" lon="-4.3085439876">
        <ele>301.99</ele>
        <time>2018-05-19T07:09:45Z</time>
      </trkpt>
      <trkpt lat="43.2882252708" lon="-4.3087052554">
        <ele>301.99</ele>
        <time>2018-05-19T07:09:47Z</time>
      </trkpt>
      <trkpt lat="43.2883342355" lon="-4.3088467419">
        <ele>301.51</ele>
        <time>2018-05-19T07:09:49Z</time>
      </trkpt>
      <trkpt lat="43.2884395123" lon="-4.3089756556">
        <ele>298.63</ele>
        <time>2018-05-19T07:09:51Z</time>
      </trkpt>
      <trkpt lat="43.2885499857" lon="-4.3090588879">
        <ele>296.22</ele>
        <time>2018-05-19T07:09:53Z</time>
      </trkpt>
      <trkpt lat="43.2886356488" lon="-4.3091168068">
        <ele>295.26</ele>
        <time>2018-05-19T07:09:55Z</time>
      </trkpt>
      <trkpt lat="43.2887027040" lon="-4.3092180602">
        <ele>292.86</ele>
        <time>2018-05-19T07:09:57Z</time>
      </trkpt>
      <trkpt lat="43.2887190487" lon="-4.3093408551">
        <ele>290.94</ele>
        <time>2018-05-19T07:09:59Z</time>
      </trkpt>
      <trkpt lat="43.2886694279" lon="-4.3094339781">
        <ele>289.49</ele>
        <time>2018-05-19T07:10:01Z</time>
      </trkpt>
      <trkpt lat="43.2885577809" lon="-4.3094395939">
        <ele>287.57</ele>
        <time>2018-05-19T07:10:03Z</time>
      </trkpt>
      <trkpt lat="43.2884390093" lon="-4.3094264343">
        <ele>284.69</ele>
        <time>2018-05-19T07:10:05Z</time>
      </trkpt>
      <trkpt lat="43.2882960141" lon="-4.3094195612">
        <ele>282.28</ele>
        <time>2018-05-19T07:10:07Z</time>
      </trkpt>
      <trkpt lat="43.2881575450" lon="-4.3093908112">
        <ele>280.84</ele>
        <time>2018-05-19T07:10:09Z</time>
      </trkpt>
      <trkpt lat="43.2880115323" lon="-4.3093868718">
        <ele>277.48</ele>
        <time>2018-05-19T07:10:11Z</time>
      </trkpt>
      <trkpt lat="43.2878328301" lon="-4.3094027974">
        <ele>272.67</ele>
        <time>2018-05-19T07:10:13Z</time>
      </trkpt>
      <trkpt lat="43.2876888290" lon="-4.3094112631">
        <ele>270.75</ele>
        <time>2018-05-19T07:10:15Z</time>
      </trkpt>
      <trkpt lat="43.2875341829" lon="-4.3094391748">
        <ele>268.35</ele>
        <time>2018-05-19T07:10:17Z</time>
      </trkpt>
      <trkpt lat="43.2874170039" lon="-4.3094873708">
        <ele>266.90</ele>
        <time>2018-05-19T07:10:19Z</time>
      </trkpt>
      <trkpt lat="43.2873371243" lon="-4.3095506541">
        <ele>266.90</ele>
        <time>2018-05-19T07:10:21Z</time>
      </trkpt>
      <trkpt lat="43.2873156667" lon="-4.3097239081">
        <ele>265.94</ele>
        <time>2018-05-19T07:10:24Z</time>
      </trkpt>
      <trkpt lat="43.2873907685" lon="-4.3098581862">
        <ele>265.94</ele>
        <time>2018-05-19T07:10:27Z</time>
      </trkpt>
      <trkpt lat="43.2874760125" lon="-4.3099686597">
        <ele>267.86</ele>
        <time>2018-05-19T07:10:30Z</time>
      </trkpt>
      <trkpt lat="43.2876015734" lon="-4.3099972419">
        <ele>267.86</ele>
        <time>2018-05-19T07:10:33Z</time>
      </trkpt>
      <trkpt lat="43.2877240330" lon="-4.3099814840">
        <ele>266.42</ele>
        <time>2018-05-19T07:10:35Z</time>
      </trkpt>
      <trkpt lat="43.2878719736" lon="-4.3099809811">
        <ele>264.50</ele>
        <time>2018-05-19T07:10:38Z</time>
      </trkpt>
      <trkpt lat="43.2880147174" lon="-4.3100148439">
        <ele>262.10</ele>
        <time>2018-05-19T07:10:40Z</time>
      </trkpt>
      <trkpt lat="43.2881484926" lon="-4.3100746907">
        <ele>259.69</ele>
        <time>2018-05-19T07:10:42Z</time>
      </trkpt>
      <trkpt lat="43.2882570382" lon="-4.3101828173">
        <ele>257.77</ele>
        <time>2018-05-19T07:10:44Z</time>
      </trkpt>
      <trkpt lat="43.2883213274" lon="-4.3102751020">
        <ele>256.81</ele>
        <time>2018-05-19T07:10:45Z</time>
      </trkpt>
      <trkpt lat="43.2883899752" lon="-4.3103781156">
        <ele>255.85</ele>
        <time>2018-05-19T07:10:46Z</time>
      </trkpt>
      <trkpt lat="43.2884608023" lon="-4.3104662094">
        <ele>254.89</ele>
        <time>2018-05-19T07:10:47Z</time>
      </trkpt>
      <trkpt lat="43.2886223216" lon="-4.3106177542">
        <ele>252.48</ele>
        <time>2018-05-19T07:10:49Z</time>
      </trkpt>
      <trkpt lat="43.2887055539" lon="-4.3106893357">
        <ele>252.00</ele>
        <time>2018-05-19T07:10:50Z</time>
      </trkpt>
      <trkpt lat="43.2888454478" lon="-4.3107794411">
        <ele>250.08</ele>
        <time>2018-05-19T07:10:52Z</time>
      </trkpt>
      <trkpt lat="43.2889409177" lon="-4.3107962888">
        <ele>248.16</ele>
        <time>2018-05-19T07:10:53Z</time>
      </trkpt>
      <trkpt lat="43.2890325319" lon="-4.3107670359">
        <ele>246.72</ele>
        <time>2018-05-19T07:10:54Z</time>
      </trkpt>
      <trkpt lat="43.2891794667" lon="-4.3106718175">
        <ele>245.27</ele>
        <time>2018-05-19T07:10:56Z</time>
      </trkpt>
      <trkpt lat="43.2893405668" lon="-4.3106426485">
        <ele>244.79</ele>
        <time>2018-05-19T07:10:58Z</time>
      </trkpt>
      <trkpt lat="43.2894973923" lon="-4.3106370326">
        <ele>242.87</ele>
        <time>2018-05-19T07:11:00Z</time>
      </trkpt>
      <trkpt lat="43.2896000706" lon="-4.3106539641">
        <ele>241.43</ele>
        <time>2018-05-19T07:11:02Z</time>
      </trkpt>
      <trkpt lat="43.2896527089" lon="-4.3108033296">
        <ele>239.99</ele>
        <time>2018-05-19T07:11:05Z</time>
      </trkpt>
      <trkpt lat="43.2896919362" lon="-4.3109872285">
        <ele>237.58</ele>
        <time>2018-05-19T07:11:07Z</time>
      </trkpt>
      <trkpt lat="43.2897957042" lon="-4.3110718857">
        <ele>237.58</ele>
        <time>2018-05-19T07:11:09Z</time>
      </trkpt>
      <trkpt lat="43.2899051718" lon="-4.3111313973">
        <ele>237.58</ele>
        <time>2018-05-19T07:11:11Z</time>
      </trkpt>
      <trkpt lat="43.2900384441" lon="-4.3111893162">
        <ele>237.10</ele>
        <time>2018-05-19T07:11:13Z</time>
      </trkpt>
      <trkpt lat="43.2901232690" lon="-4.3113230914">
        <ele>235.66</ele>
        <time>2018-05-19T07:11:15Z</time>
      </trkpt>
      <trkpt lat="43.2902307250" lon="-4.3114732113">
        <ele>233.26</ele>
        <time>2018-05-19T07:11:17Z</time>
      </trkpt>
      <trkpt lat="43.2903687749" lon="-4.3115276098">
        <ele>233.26</ele>
        <time>2018-05-19T07:11:19Z</time>
      </trkpt>
      <trkpt lat="43.2905022986" lon="-4.3116003647">
        <ele>233.26</ele>
        <time>2018-05-19T07:11:21Z</time>
      </trkpt>
      <trkpt lat="43.2906205673" lon="-4.3117067311">
        <ele>233.26</ele>
        <time>2018-05-19T07:11:23Z</time>
      </trkpt>
      <trkpt lat="43.2907137740" lon="-4.3118207250">
        <ele>235.18</ele>
        <time>2018-05-19T07:11:25Z</time>
      </trkpt>
      <trkpt lat="43.2907943241" lon="-4.3119886145">
        <ele>235.66</ele>
        <time>2018-05-19T07:11:27Z</time>
      </trkpt>
      <trkpt lat="43.2908404246" lon="-4.3121662270">
        <ele>234.22</ele>
        <time>2018-05-19T07:11:29Z</time>
      </trkpt>
      <trkpt lat="43.2908829208" lon="-4.3123979867">
        <ele>231.81</ele>
        <time>2018-05-19T07:11:31Z</time>
      </trkpt>
      <trkpt lat="43.2909088209" lon="-4.3125157524">
        <ele>230.85</ele>
        <time>2018-05-19T07:11:32Z</time>
      </trkpt>
      <trkpt lat="43.2909462880" lon="-4.3126450013">
        <ele>229.41</ele>
        <time>2018-05-19T07:11:33Z</time>
      </trkpt>
      <trkpt lat="43.2909850962" lon="-4.3127593305">
        <ele>229.41</ele>
        <time>2018-05-19T07:11:34Z</time>
      </trkpt>
      <trkpt lat="43.2910239045" lon="-4.3128798623">
        <ele>229.41</ele>
        <time>2018-05-19T07:11:35Z</time>
      </trkpt>
      <trkpt lat="43.2910546660" lon="-4.3130015675">
        <ele>229.41</ele>
        <time>2018-05-19T07:11:36Z</time>
      </trkpt>
      <trkpt lat="43.2910810690" lon="-4.3131293077">
        <ele>229.41</ele>
        <time>2018-05-19T07:11:37Z</time>
      </trkpt>
      <trkpt lat="43.2911038678" lon="-4.3132639211">
        <ele>229.41</ele>
        <time>2018-05-19T07:11:38Z</time>
      </trkpt>
      <trkpt lat="43.2911200449" lon="-4.3133926671">
        <ele>229.41</ele>
        <time>2018-05-19T07:11:39Z</time>
      </trkpt>
      <trkpt lat="43.2911360543" lon="-4.3136037234">
        <ele>229.41</ele>
        <time>2018-05-19T07:11:41Z</time>
      </trkpt>
      <trkpt lat="43.2911215536" lon="-4.3138183001">
        <ele>230.85</ele>
        <time>2018-05-19T07:11:43Z</time>
      </trkpt>
      <trkpt lat="43.2910897024" lon="-4.3140241597">
        <ele>230.85</ele>
        <time>2018-05-19T07:11:45Z</time>
      </trkpt>
      <trkpt lat="43.2911083940" lon="-4.3142048735">
        <ele>230.85</ele>
        <time>2018-05-19T07:11:47Z</time>
      </trkpt>
      <trkpt lat="43.2911900338" lon="-4.3143350445">
        <ele>232.30</ele>
        <time>2018-05-19T07:11:49Z</time>
      </trkpt>
      <trkpt lat="43.2912798878" lon="-4.3144735135">
        <ele>234.70</ele>
        <time>2018-05-19T07:11:52Z</time>
      </trkpt>
      <trkpt lat="43.2913050335" lon="-4.3146093842">
        <ele>235.66</ele>
        <time>2018-05-19T07:11:54Z</time>
      </trkpt>
      <trkpt lat="43.2913010102" lon="-4.3147591688">
        <ele>235.66</ele>
        <time>2018-05-19T07:11:56Z</time>
      </trkpt>
      <trkpt lat="43.2912782114" lon="-4.3148938660">
        <ele>236.14</ele>
        <time>2018-05-19T07:11:58Z</time>
      </trkpt>
      <trkpt lat="43.2912543230" lon="-4.3150227796">
        <ele>236.62</ele>
        <time>2018-05-19T07:12:00Z</time>
      </trkpt>
      <trkpt lat="43.2912460249" lon="-4.3151897471">
        <ele>236.62</ele>
        <time>2018-05-19T07:12:02Z</time>
      </trkpt>
      <trkpt lat="43.2912587654" lon="-4.3153386936">
        <ele>235.18</ele>
        <time>2018-05-19T07:12:04Z</time>
      </trkpt>
      <trkpt lat="43.2912995014" lon="-4.3155440502">
        <ele>233.26</ele>
        <time>2018-05-19T07:12:06Z</time>
      </trkpt>
      <trkpt lat="43.2913636230" lon="-4.3157621473">
        <ele>232.78</ele>
        <time>2018-05-19T07:12:08Z</time>
      </trkpt>
      <trkpt lat="43.2914110646" lon="-4.3160012830">
        <ele>231.81</ele>
        <time>2018-05-19T07:12:10Z</time>
      </trkpt>
      <trkpt lat="43.2914268225" lon="-4.3161260057">
        <ele>231.33</ele>
        <time>2018-05-19T07:12:11Z</time>
      </trkpt>
      <trkpt lat="43.2914668880" lon="-4.3163663987">
        <ele>231.33</ele>
        <time>2018-05-19T07:12:13Z</time>
      </trkpt>
      <trkpt lat="43.2915036846" lon="-4.3164757825">
        <ele>230.85</ele>
        <time>2018-05-19T07:12:14Z</time>
      </trkpt>
      <trkpt lat="43.2915837318" lon="-4.3166957237">
        <ele>230.85</ele>
        <time>2018-05-19T07:12:16Z</time>
      </trkpt>
      <trkpt lat="43.2916257251" lon="-4.3168754317">
        <ele>230.85</ele>
        <time>2018-05-19T07:12:18Z</time>
      </trkpt>
      <trkpt lat="43.2916672993" lon="-4.3170629349">
        <ele>230.85</ele>
        <time>2018-05-19T07:12:20Z</time>
      </trkpt>
      <trkpt lat="43.2916953787" lon="-4.3172641005">
        <ele>230.85</ele>
        <time>2018-05-19T07:12:22Z</time>
      </trkpt>
      <trkpt lat="43.2916960493" lon="-4.3174837064">
        <ele>228.93</ele>
        <time>2018-05-19T07:12:24Z</time>
      </trkpt>
      <trkpt lat="43.2916616835" lon="-4.3177159689">
        <ele>227.01</ele>
        <time>2018-05-19T07:12:26Z</time>
      </trkpt>
      <trkpt lat="43.2916279044" lon="-4.3178288732">
        <ele>226.05</ele>
        <time>2018-05-19T07:12:27Z</time>
      </trkpt>
      <trkpt lat="43.2916011661" lon="-4.3179443758">
        <ele>225.57</ele>
        <time>2018-05-19T07:12:28Z</time>
      </trkpt>
      <trkpt lat="43.2916201092" lon="-4.3181588687">
        <ele>225.09</ele>
        <time>2018-05-19T07:12:30Z</time>
      </trkpt>
      <trkpt lat="43.2916593365" lon="-4.3183436058">
        <ele>225.09</ele>
        <time>2018-05-19T07:12:32Z</time>
      </trkpt>
      <trkpt lat="43.2916652039" lon="-4.3185565062">
        <ele>225.09</ele>
        <time>2018-05-19T07:12:34Z</time>
      </trkpt>
      <trkpt lat="43.2916435786" lon="-4.3187728431">
        <ele>225.09</ele>
        <time>2018-05-19T07:12:36Z</time>
      </trkpt>
      <trkpt lat="43.2915955503" lon="-4.3189847376">
        <ele>225.09</ele>
        <time>2018-05-19T07:12:38Z</time>
      </trkpt>
      <trkpt lat="43.2915200293" lon="-4.3191771023">
        <ele>225.09</ele>
        <time>2018-05-19T07:12:40Z</time>
      </trkpt>
      <trkpt lat="43.2913794648" lon="-4.3192763440">
        <ele>224.61</ele>
        <time>2018-05-19T07:12:42Z</time>
      </trkpt>
      <trkpt lat="43.2912914548" lon="-4.3192917667">
        <ele>223.64</ele>
        <time>2018-05-19T07:12:43Z</time>
      </trkpt>
      <trkpt lat="43.2911413349" lon="-4.3193280604">
        <ele>223.16</ele>
        <time>2018-05-19T07:12:45Z</time>
      </trkpt>
      <trkpt lat="43.2909871917" lon="-4.3194464967">
        <ele>221.24</ele>
        <time>2018-05-19T07:12:47Z</time>
      </trkpt>
      <trkpt lat="43.2908716053" lon="-4.3196014781">
        <ele>220.76</ele>
        <time>2018-05-19T07:12:49Z</time>
      </trkpt>
      <trkpt lat="43.2908376586" lon="-4.3197565433">
        <ele>219.80</ele>
        <time>2018-05-19T07:12:51Z</time>
      </trkpt>
      <trkpt lat="43.2909001037" lon="-4.3198687769">
        <ele>218.84</ele>
        <time>2018-05-19T07:12:53Z</time>
      </trkpt>
      <trkpt lat="43.2910180371" lon="-4.3199375086">
        <ele>218.84</ele>
        <time>2018-05-19T07:12:55Z</time>
      </trkpt>
      <trkpt lat="43.2911139261" lon="-4.3200211599">
        <ele>219.80</ele>
        <time>2018-05-19T07:12:57Z</time>
      </trkpt>
      <trkpt lat="43.2911668159" lon="-4.3201421946">
        <ele>220.76</ele>
        <time>2018-05-19T07:12:59Z</time>
      </trkpt>
      <trkpt lat="43.2911825739" lon="-4.3202975951">
        <ele>222.68</ele>
        <time>2018-05-19T07:13:02Z</time>
      </trkpt>
      <trkpt lat="43.2911822386" lon="-4.3204423506">
        <ele>224.12</ele>
        <time>2018-05-19T07:13:05Z</time>
      </trkpt>
      <trkpt lat="43.2911943924" lon="-4.3206073903">
        <ele>225.09</ele>
        <time>2018-05-19T07:13:09Z</time>
      </trkpt>
      <trkpt lat="43.2911959011" lon="-4.3207425065">
        <ele>226.53</ele>
        <time>2018-05-19T07:13:13Z</time>
      </trkpt>
      <trkpt lat="43.2912067976" lon="-4.3208911177">
        <ele>227.97</ele>
        <time>2018-05-19T07:13:17Z</time>
      </trkpt>
      <trkpt lat="43.2912212145" lon="-4.3210222945">
        <ele>228.93</ele>
        <time>2018-05-19T07:13:21Z</time>
      </trkpt>
      <trkpt lat="43.2912351284" lon="-4.3211714085">
        <ele>230.37</ele>
        <time>2018-05-19T07:13:26Z</time>
      </trkpt>
      <trkpt lat="43.2912416663" lon="-4.3213050999">
        <ele>232.30</ele>
        <time>2018-05-19T07:13:31Z</time>
      </trkpt>
      <trkpt lat="43.2912497129" lon="-4.3214349356">
        <ele>233.74</ele>
        <time>2018-05-19T07:13:36Z</time>
      </trkpt>
      <trkpt lat="43.2912604418" lon="-4.3215626758">
        <ele>235.18</ele>
        <time>2018-05-19T07:13:41Z</time>
      </trkpt>
      <trkpt lat="43.2912715897" lon="-4.3216956127">
        <ele>236.62</ele>
        <time>2018-05-19T07:13:46Z</time>
      </trkpt>
      <trkpt lat="43.2912565023" lon="-4.3218390271">
        <ele>237.58</ele>
        <time>2018-05-19T07:13:51Z</time>
      </trkpt>
      <trkpt lat="43.2912186999" lon="-4.3219814356">
        <ele>238.06</ele>
        <time>2018-05-19T07:13:56Z</time>
      </trkpt>
      <trkpt lat="43.2911789697" lon="-4.3221020512">
        <ele>239.51</ele>
        <time>2018-05-19T07:14:00Z</time>
      </trkpt>
      <trkpt lat="43.2911451068" lon="-4.3222245947">
        <ele>239.51</ele>
        <time>2018-05-19T07:14:03Z</time>
      </trkpt>
      <trkpt lat="43.2910946477" lon="-4.3223370798">
        <ele>239.99</ele>
        <time>2018-05-19T07:14:06Z</time>
      </trkpt>
      <trkpt lat="43.2910365611" lon="-4.3224544264">
        <ele>240.47</ele>
        <time>2018-05-19T07:14:09Z</time>
      </trkpt>
      <trkpt lat="43.2909680810" lon="-4.3225842621">
        <ele>240.47</ele>
        <time>2018-05-19T07:14:12Z</time>
      </trkpt>
      <trkpt lat="43.2909124251" lon="-4.3226802349">
        <ele>240.47</ele>
        <time>2018-05-19T07:14:14Z</time>
      </trkpt>
      <trkpt lat="43.2908285223" lon="-4.3228114955">
        <ele>240.47</ele>
        <time>2018-05-19T07:14:17Z</time>
      </trkpt>
      <trkpt lat="43.2907600421" lon="-4.3229559995">
        <ele>240.95</ele>
        <time>2018-05-19T07:14:20Z</time>
      </trkpt>
      <trkpt lat="43.2906934898" lon="-4.3230997492">
        <ele>241.43</ele>
        <time>2018-05-19T07:14:23Z</time>
      </trkpt>
      <trkpt lat="43.2906335592" lon="-4.3232437503">
        <ele>242.39</ele>
        <time>2018-05-19T07:14:26Z</time>
      </trkpt>
      <trkpt lat="43.2905857824" lon="-4.3233918585">
        <ele>242.39</ele>
        <time>2018-05-19T07:14:29Z</time>
      </trkpt>
      <trkpt lat="43.2905466389" lon="-4.3235374521">
        <ele>243.35</ele>
        <time>2018-05-19T07:14:32Z</time>
      </trkpt>
      <trkpt lat="43.2905319706" lon="-4.3236751668">
        <ele>243.83</ele>
        <time>2018-05-19T07:14:35Z</time>
      </trkpt>
      <trkpt lat="43.2905401848" lon="-4.3238113727">
        <ele>245.27</ele>
        <time>2018-05-19T07:14:38Z</time>
      </trkpt>
      <trkpt lat="43.2905527577" lon="-4.3239614088">
        <ele>246.23</ele>
        <time>2018-05-19T07:14:42Z</time>
      </trkpt>
      <trkpt lat="43.2905424479" lon="-4.3241076730">
        <ele>247.68</ele>
        <time>2018-05-19T07:14:46Z</time>
      </trkpt>
      <trkpt lat="43.2905259356" lon="-4.3242334016">
        <ele>247.68</ele>
        <time>2018-05-19T07:14:49Z</time>
      </trkpt>
      <trkpt lat="43.2904876303" lon="-4.3243749719">
        <ele>247.68</ele>
        <time>2018-05-19T07:14:52Z</time>
      </trkpt>
      <trkpt lat="43.2904218324" lon="-4.3245105073">
        <ele>247.68</ele>
        <time>2018-05-19T07:14:55Z</time>
      </trkpt>
      <trkpt lat="43.2903483231" lon="-4.3246393371">
        <ele>248.16</ele>
        <time>2018-05-19T07:14:58Z</time>
      </trkpt>
      <trkpt lat="43.2902885601" lon="-4.3247747049">
        <ele>249.12</ele>
        <time>2018-05-19T07:15:01Z</time>
      </trkpt>
      <trkpt lat="43.2902576309" lon="-4.3248895369">
        <ele>250.08</ele>
        <time>2018-05-19T07:15:04Z</time>
      </trkpt>
      <trkpt lat="43.2902257796" lon="-4.3250290118">
        <ele>250.56</ele>
        <time>2018-05-19T07:15:07Z</time>
      </trkpt>
      <trkpt lat="43.2902065851" lon="-4.3251533993">
        <ele>250.56</ele>
        <time>2018-05-19T07:15:09Z</time>
      </trkpt>
      <trkpt lat="43.2901870552" lon="-4.3253430817">
        <ele>247.68</ele>
        <time>2018-05-19T07:15:11Z</time>
      </trkpt>
      <trkpt lat="43.2901647594" lon="-4.3255073670">
        <ele>247.20</ele>
        <time>2018-05-19T07:15:13Z</time>
      </trkpt>
      <trkpt lat="43.2901109476" lon="-4.3256825488">
        <ele>246.72</ele>
        <time>2018-05-19T07:15:15Z</time>
      </trkpt>
      <trkpt lat="43.2900200039" lon="-4.3258112948">
        <ele>246.23</ele>
        <time>2018-05-19T07:15:17Z</time>
      </trkpt>
      <trkpt lat="43.2899282221" lon="-4.3259148952">
        <ele>246.23</ele>
        <time>2018-05-19T07:15:19Z</time>
      </trkpt>
      <trkpt lat="43.2898472529" lon="-4.3260327447">
        <ele>247.68</ele>
        <time>2018-05-19T07:15:21Z</time>
      </trkpt>
      <trkpt lat="43.2897990569" lon="-4.3261857145">
        <ele>249.60</ele>
        <time>2018-05-19T07:15:24Z</time>
      </trkpt>
      <trkpt lat="43.2897862326" lon="-4.3263328169">
        <ele>251.04</ele>
        <time>2018-05-19T07:15:28Z</time>
      </trkpt>
      <trkpt lat="43.2897736598" lon="-4.3264624849">
        <ele>252.96</ele>
        <time>2018-05-19T07:15:32Z</time>
      </trkpt>
      <trkpt lat="43.2897491846" lon="-4.3265850283">
        <ele>253.93</ele>
        <time>2018-05-19T07:15:36Z</time>
      </trkpt>
      <trkpt lat="43.2897038385" lon="-4.3267200608">
        <ele>254.89</ele>
        <time>2018-05-19T07:15:41Z</time>
      </trkpt>
      <trkpt lat="43.2896768488" lon="-4.3268706836">
        <ele>256.33</ele>
        <time>2018-05-19T07:15:46Z</time>
      </trkpt>
      <trkpt lat="43.2896361966" lon="-4.3269861024">
        <ele>257.29</ele>
        <time>2018-05-19T07:15:50Z</time>
      </trkpt>
      <trkpt lat="43.2895381283" lon="-4.3270515651">
        <ele>259.21</ele>
        <time>2018-05-19T07:15:55Z</time>
      </trkpt>
      <trkpt lat="43.2894446701" lon="-4.3270985037">
        <ele>259.69</ele>
        <time>2018-05-19T07:15:59Z</time>
      </trkpt>
      <trkpt lat="43.2893657964" lon="-4.3271670677">
        <ele>260.65</ele>
        <time>2018-05-19T07:16:03Z</time>
      </trkpt>
      <trkpt lat="43.2892870065" lon="-4.3272375595">
        <ele>261.62</ele>
        <time>2018-05-19T07:16:07Z</time>
      </trkpt>
      <trkpt lat="43.2892001700" lon="-4.3272986636">
        <ele>262.58</ele>
        <time>2018-05-19T07:16:11Z</time>
      </trkpt>
      <trkpt lat="43.2891200390" lon="-4.3273622822">
        <ele>263.06</ele>
        <time>2018-05-19T07:16:15Z</time>
      </trkpt>
      <trkpt lat="43.2890240662" lon="-4.3274455983">
        <ele>263.54</ele>
        <time>2018-05-19T07:16:20Z</time>
      </trkpt>
      <trkpt lat="43.2889350504" lon="-4.3275306746">
        <ele>264.98</ele>
        <time>2018-05-19T07:16:25Z</time>
      </trkpt>
      <trkpt lat="43.2888551708" lon="-4.3276035972">
        <ele>265.94</ele>
        <time>2018-05-19T07:16:30Z</time>
      </trkpt>
      <trkpt lat="43.2887883671" lon="-4.3276909366">
        <ele>267.38</ele>
        <time>2018-05-19T07:16:35Z</time>
      </trkpt>
      <trkpt lat="43.2887187973" lon="-4.3278082833">
        <ele>268.35</ele>
        <time>2018-05-19T07:16:41Z</time>
      </trkpt>
      <trkpt lat="43.2886563521" lon="-4.3279274739">
        <ele>270.27</ele>
        <time>2018-05-19T07:16:47Z</time>
      </trkpt>
      <trkpt lat="43.2886071503" lon="-4.3280504365">
        <ele>271.71</ele>
        <time>2018-05-19T07:16:53Z</time>
      </trkpt>
      <trkpt lat="43.2885497343" lon="-4.3281838764">
        <ele>272.67</ele>
        <time>2018-05-19T07:16:59Z</time>
      </trkpt>
      <trkpt lat="43.2884912286" lon="-4.3283126224">
        <ele>274.11</ele>
        <time>2018-05-19T07:17:05Z</time>
      </trkpt>
      <trkpt lat="43.2884615567" lon="-4.3284518458">
        <ele>275.56</ele>
        <time>2018-05-19T07:17:11Z</time>
      </trkpt>
      <trkpt lat="43.2884457987" lon="-4.3285820168">
        <ele>276.52</ele>
        <time>2018-05-19T07:17:17Z</time>
      </trkpt>
      <trkpt lat="43.2884379197" lon="-4.3287183903">
        <ele>278.92</ele>
        <time>2018-05-19T07:17:23Z</time>
      </trkpt>
      <trkpt lat="43.2884208206" lon="-4.3288463820">
        <ele>280.36</ele>
        <time>2018-05-19T07:17:29Z</time>
      </trkpt>
      <trkpt lat="43.2883841079" lon="-4.3289682548">
        <ele>282.28</ele>
        <time>2018-05-19T07:17:35Z</time>
      </trkpt>
      <trkpt lat="43.2883310504" lon="-4.3290932290">
        <ele>283.25</ele>
        <time>2018-05-19T07:17:41Z</time>
      </trkpt>
      <trkpt lat="43.2882687729" lon="-4.3292078935">
        <ele>284.21</ele>
        <time>2018-05-19T07:17:47Z</time>
      </trkpt>
      <trkpt lat="43.2881979458" lon="-4.3293212168">
        <ele>285.17</ele>
        <time>2018-05-19T07:17:53Z</time>
      </trkpt>
      <trkpt lat="43.2881287951" lon="-4.3294165190">
        <ele>286.61</ele>
        <time>2018-05-19T07:17:59Z</time>
      </trkpt>
      <trkpt lat="43.2880670205" lon="-4.3295191135">
        <ele>288.53</ele>
        <time>2018-05-19T07:18:06Z</time>
      </trkpt>
      <trkpt lat="43.2879950199" lon="-4.3296201155">
        <ele>289.49</ele>
        <time>2018-05-19T07:18:13Z</time>
      </trkpt>
      <trkpt lat="43.2879279647" lon="-4.3297153339">
        <ele>291.42</ele>
        <time>2018-05-19T07:18:19Z</time>
      </trkpt>
      <trkpt lat="43.2878495101" lon="-4.3298170064">
        <ele>293.34</ele>
        <time>2018-05-19T07:18:26Z</time>
      </trkpt>
      <trkpt lat="43.2877754141" lon="-4.3299181759">
        <ele>294.78</ele>
        <time>2018-05-19T07:18:33Z</time>
      </trkpt>
      <trkpt lat="43.2877119631" lon="-4.3300087005">
        <ele>296.70</ele>
        <time>2018-05-19T07:18:39Z</time>
      </trkpt>
      <trkpt lat="43.2876416389" lon="-4.3301101215">
        <ele>298.15</ele>
        <time>2018-05-19T07:18:46Z</time>
      </trkpt>
      <trkpt lat="43.2875737455" lon="-4.3302071840">
        <ele>300.55</ele>
        <time>2018-05-19T07:18:53Z</time>
      </trkpt>
      <trkpt lat="43.2875175029" lon="-4.3303198367">
        <ele>302.95</ele>
        <time>2018-05-19T07:19:00Z</time>
      </trkpt>
      <trkpt lat="43.2874700613" lon="-4.3304345012">
        <ele>304.39</ele>
        <time>2018-05-19T07:19:08Z</time>
      </trkpt>
      <trkpt lat="43.2874393836" lon="-4.3305688631">
        <ele>306.80</ele>
        <time>2018-05-19T07:19:16Z</time>
      </trkpt>
      <trkpt lat="43.2874247991" lon="-4.3307026383">
        <ele>307.76</ele>
        <time>2018-05-19T07:19:24Z</time>
      </trkpt>
      <trkpt lat="43.2874139864" lon="-4.3308457173">
        <ele>309.20</ele>
        <time>2018-05-19T07:19:34Z</time>
      </trkpt>
      <trkpt lat="43.2873900980" lon="-4.3309917301">
        <ele>311.60</ele>
        <time>2018-05-19T07:19:42Z</time>
      </trkpt>
      <trkpt lat="43.2873783633" lon="-4.3311206438">
        <ele>313.53</ele>
        <time>2018-05-19T07:19:49Z</time>
      </trkpt>
      <trkpt lat="43.2873621024" lon="-4.3312451988">
        <ele>314.97</ele>
        <time>2018-05-19T07:19:56Z</time>
      </trkpt>
      <trkpt lat="43.2873425726" lon="-4.3313834164">
        <ele>316.41</ele>
        <time>2018-05-19T07:20:03Z</time>
      </trkpt>
      <trkpt lat="43.2873370405" lon="-4.3315207120">
        <ele>317.37</ele>
        <time>2018-05-19T07:20:10Z</time>
      </trkpt>
      <trkpt lat="43.2873403095" lon="-4.3316537328">
        <ele>318.33</ele>
        <time>2018-05-19T07:20:15Z</time>
      </trkpt>
      <trkpt lat="43.2873419859" lon="-4.3317861669">
        <ele>318.81</ele>
        <time>2018-05-19T07:20:19Z</time>
      </trkpt>
      <trkpt lat="43.2873544749" lon="-4.3319417350">
        <ele>318.81</ele>
        <time>2018-05-19T07:20:23Z</time>
      </trkpt>
      <trkpt lat="43.2873667125" lon="-4.3320714030">
        <ele>319.78</ele>
        <time>2018-05-19T07:20:26Z</time>
      </trkpt>
      <trkpt lat="43.2873595040" lon="-4.3322286475">
        <ele>320.26</ele>
        <time>2018-05-19T07:20:30Z</time>
      </trkpt>
      <trkpt lat="43.2873555645" lon="-4.3323802762">
        <ele>320.74</ele>
        <time>2018-05-19T07:20:34Z</time>
      </trkpt>
      <trkpt lat="43.2873558998" lon="-4.3325324915">
        <ele>322.18</ele>
        <time>2018-05-19T07:20:38Z</time>
      </trkpt>
      <trkpt lat="43.2873564865" lon="-4.3326735590">
        <ele>322.66</ele>
        <time>2018-05-19T07:20:42Z</time>
      </trkpt>
      <trkpt lat="43.2873761840" lon="-4.3328139558">
        <ele>323.62</ele>
        <time>2018-05-19T07:20:47Z</time>
      </trkpt>
      <trkpt lat="43.2874624338" lon="-4.3329533469">
        <ele>321.70</ele>
        <time>2018-05-19T07:20:51Z</time>
      </trkpt>
      <trkpt lat="43.2875831332" lon="-4.3330268562">
        <ele>318.81</ele>
        <time>2018-05-19T07:20:53Z</time>
      </trkpt>
      <trkpt lat="43.2877428085" lon="-4.3330530915">
        <ele>317.37</ele>
        <time>2018-05-19T07:20:55Z</time>
      </trkpt>
      <trkpt lat="43.2878754102" lon="-4.3330535945">
        <ele>316.41</ele>
        <time>2018-05-19T07:20:57Z</time>
      </trkpt>
      <trkpt lat="43.2880214229" lon="-4.3330571987">
        <ele>316.41</ele>
        <time>2018-05-19T07:20:59Z</time>
      </trkpt>
      <trkpt lat="43.2881434634" lon="-4.3330718670">
        <ele>316.41</ele>
        <time>2018-05-19T07:21:01Z</time>
      </trkpt>
      <trkpt lat="43.2882371731" lon="-4.3330917321">
        <ele>319.30</ele>
        <time>2018-05-19T07:21:03Z</time>
      </trkpt>
      <trkpt lat="43.2883439586" lon="-4.3331115134">
        <ele>320.26</ele>
        <time>2018-05-19T07:21:06Z</time>
      </trkpt>
      <trkpt lat="43.2884412725" lon="-4.3331359047">
        <ele>322.18</ele>
        <time>2018-05-19T07:21:10Z</time>
      </trkpt>
      <trkpt lat="43.2885570265" lon="-4.3331394251">
        <ele>323.62</ele>
        <time>2018-05-19T07:21:15Z</time>
      </trkpt>
      <trkpt lat="43.2886593696" lon="-4.3331253435">
        <ele>325.06</ele>
        <time>2018-05-19T07:21:20Z</time>
      </trkpt>
      <trkpt lat="43.2887584437" lon="-4.3330610543">
        <ele>326.50</ele>
        <time>2018-05-19T07:21:25Z</time>
      </trkpt>
      <trkpt lat="43.2888397481" lon="-4.3329554424">
        <ele>327.95</ele>
        <time>2018-05-19T07:21:30Z</time>
      </trkpt>
      <trkpt lat="43.2889064681" lon="-4.3328489922">
        <ele>328.91</ele>
        <time>2018-05-19T07:21:35Z</time>
      </trkpt>
      <trkpt lat="43.2889775466" lon="-4.3327613175">
        <ele>329.87</ele>
        <time>2018-05-19T07:21:39Z</time>
      </trkpt>
      <trkpt lat="43.2890753634" lon="-4.3326869700">
        <ele>330.83</ele>
        <time>2018-05-19T07:21:44Z</time>
      </trkpt>
      <trkpt lat="43.2891763654" lon="-4.3326581363">
        <ele>330.83</ele>
        <time>2018-05-19T07:21:48Z</time>
      </trkpt>
      <trkpt lat="43.2892921194" lon="-4.3326372653">
        <ele>330.83</ele>
        <time>2018-05-19T07:21:52Z</time>
      </trkpt>
      <trkpt lat="43.2894046884" lon="-4.3326377682">
        <ele>331.31</ele>
        <time>2018-05-19T07:21:56Z</time>
      </trkpt>
      <trkpt lat="43.2894935366" lon="-4.3326469883">
        <ele>331.31</ele>
        <time>2018-05-19T07:21:59Z</time>
      </trkpt>
      <trkpt lat="43.2895869948" lon="-4.3326643389">
        <ele>331.31</ele>
        <time>2018-05-19T07:22:02Z</time>
      </trkpt>
      <trkpt lat="43.2897043414" lon="-4.3326925859">
        <ele>331.31</ele>
        <time>2018-05-19T07:22:05Z</time>
      </trkpt>
      <trkpt lat="43.2898263820" lon="-4.3327261135">
        <ele>329.87</ele>
        <time>2018-05-19T07:22:08Z</time>
      </trkpt>
      <trkpt lat="43.2899129670" lon="-4.3327614013">
        <ele>329.39</ele>
        <time>2018-05-19T07:22:10Z</time>
      </trkpt>
      <trkpt lat="43.2900318224" lon="-4.3328439631">
        <ele>329.39</ele>
        <time>2018-05-19T07:22:13Z</time>
      </trkpt>
      <trkpt lat="43.2901021466" lon="-4.3329279497">
        <ele>329.39</ele>
        <time>2018-05-19T07:22:15Z</time>
      </trkpt>
      <trkpt lat="43.2901763264" lon="-4.3330409378">
        <ele>331.31</ele>
        <time>2018-05-19T07:22:18Z</time>
      </trkpt>
      <trkpt lat="43.2902518474" lon="-4.3331288639">
        <ele>331.31</ele>
        <time>2018-05-19T07:22:21Z</time>
      </trkpt>
      <trkpt lat="43.2903419528" lon="-4.3331908900">
        <ele>331.79</ele>
        <time>2018-05-19T07:22:24Z</time>
      </trkpt>
      <trkpt lat="43.2904312201" lon="-4.3332502339">
        <ele>332.27</ele>
        <time>2018-05-19T07:22:27Z</time>
      </trkpt>
      <trkpt lat="43.2905261032" lon="-4.3332992680">
        <ele>332.75</ele>
        <time>2018-05-19T07:22:30Z</time>
      </trkpt>
      <trkpt lat="43.2906251773" lon="-4.3333560973">
        <ele>333.23</ele>
        <time>2018-05-19T07:22:33Z</time>
      </trkpt>
      <trkpt lat="43.2907364890" lon="-4.3334109988">
        <ele>333.71</ele>
        <time>2018-05-19T07:22:36Z</time>
      </trkpt>
      <trkpt lat="43.2908500638" lon="-4.3334639724">
        <ele>333.71</ele>
        <time>2018-05-19T07:22:39Z</time>
      </trkpt>
      <trkpt lat="43.2909514848" lon="-4.3334955722">
        <ele>334.20</ele>
        <time>2018-05-19T07:22:42Z</time>
      </trkpt>
      <trkpt lat="43.2910542469" lon="-4.3335085642">
        <ele>334.68</ele>
        <time>2018-05-19T07:22:45Z</time>
      </trkpt>
      <trkpt lat="43.2911543269" lon="-4.3335182033">
        <ele>335.16</ele>
        <time>2018-05-19T07:22:48Z</time>
      </trkpt>
      <trkpt lat="43.2912518084" lon="-4.3335214723">
        <ele>336.12</ele>
        <time>2018-05-19T07:22:51Z</time>
      </trkpt>
      <trkpt lat="43.2913510501" lon="-4.3335348833">
        <ele>336.60</ele>
        <time>2018-05-19T07:22:54Z</time>
      </trkpt>
      <trkpt lat="43.2914469391" lon="-4.3335773796">
        <ele>337.56</ele>
        <time>2018-05-19T07:22:57Z</time>
      </trkpt>
      <trkpt lat="43.2915498689" lon="-4.3336472847">
        <ele>337.08</ele>
        <time>2018-05-19T07:23:00Z</time>
      </trkpt>
      <trkpt lat="43.2916360348" lon="-4.3337170221">
        <ele>336.12</ele>
        <time>2018-05-19T07:23:02Z</time>
      </trkpt>
      <trkpt lat="43.2917565666" lon="-4.3338274956">
        <ele>335.16</ele>
        <time>2018-05-19T07:23:05Z</time>
      </trkpt>
      <trkpt lat="43.2918630168" lon="-4.3339091353">
        <ele>334.20</ele>
        <time>2018-05-19T07:23:07Z</time>
      </trkpt>
      <trkpt lat="43.2919873204" lon="-4.3339792080">
        <ele>332.27</ele>
        <time>2018-05-19T07:23:09Z</time>
      </trkpt>
      <trkpt lat="43.2921292260" lon="-4.3340454251">
        <ele>330.83</ele>
        <time>2018-05-19T07:23:11Z</time>
      </trkpt>
      <trkpt lat="43.2922899071" lon="-4.3341269810">
        <ele>328.91</ele>
        <time>2018-05-19T07:23:13Z</time>
      </trkpt>
      <trkpt lat="43.2923783362" lon="-4.3341736682">
        <ele>327.95</ele>
        <time>2018-05-19T07:23:14Z</time>
      </trkpt>
      <trkpt lat="43.2924717106" lon="-4.3342263903">
        <ele>326.99</ele>
        <time>2018-05-19T07:23:15Z</time>
      </trkpt>
      <trkpt lat="43.2925701980" lon="-4.3342828006">
        <ele>326.50</ele>
        <time>2018-05-19T07:23:16Z</time>
      </trkpt>
      <trkpt lat="43.2927367464" lon="-4.3343721516">
        <ele>325.06</ele>
        <time>2018-05-19T07:23:18Z</time>
      </trkpt>
      <trkpt lat="43.2928255107" lon="-4.3344114628">
        <ele>324.10</ele>
        <time>2018-05-19T07:23:19Z</time>
      </trkpt>
      <trkpt lat="43.2930002734" lon="-4.3344625924">
        <ele>323.62</ele>
        <time>2018-05-19T07:23:21Z</time>
      </trkpt>
      <trkpt lat="43.2931623794" lon="-4.3344592396">
        <ele>323.62</ele>
        <time>2018-05-19T07:23:23Z</time>
      </trkpt>
      <trkpt lat="43.2933163550" lon="-4.3343934417">
        <ele>323.62</ele>
        <time>2018-05-19T07:23:25Z</time>
      </trkpt>
      <trkpt lat="43.2934568357" lon="-4.3342788611">
        <ele>323.62</ele>
        <time>2018-05-19T07:23:27Z</time>
      </trkpt>
      <trkpt lat="43.2935497072" lon="-4.3341647834">
        <ele>323.62</ele>
        <time>2018-05-19T07:23:29Z</time>
      </trkpt>
      <trkpt lat="43.2936389744" lon="-4.3340461794">
        <ele>326.02</ele>
        <time>2018-05-19T07:23:31Z</time>
      </trkpt>
      <trkpt lat="43.2937191892" lon="-4.3339479435">
        <ele>326.50</ele>
        <time>2018-05-19T07:23:33Z</time>
      </trkpt>
      <trkpt lat="43.2937906031" lon="-4.3338543177">
        <ele>327.95</ele>
        <time>2018-05-19T07:23:35Z</time>
      </trkpt>
      <trkpt lat="43.2938536350" lon="-4.3337592669">
        <ele>327.95</ele>
        <time>2018-05-19T07:23:37Z</time>
      </trkpt>
      <trkpt lat="43.2939392142" lon="-4.3336368911">
        <ele>328.43</ele>
        <time>2018-05-19T07:23:40Z</time>
      </trkpt>
      <trkpt lat="43.2940203510" lon="-4.3335384037">
        <ele>329.87</ele>
        <time>2018-05-19T07:23:43Z</time>
      </trkpt>
      <trkpt lat="43.2941060979" lon="-4.3334421795">
        <ele>331.31</ele>
        <time>2018-05-19T07:23:47Z</time>
      </trkpt>
      <trkpt lat="43.2941801939" lon="-4.3333633896">
        <ele>332.27</ele>
        <time>2018-05-19T07:23:51Z</time>
      </trkpt>
      <trkpt lat="43.2942568045" lon="-4.3332789838">
        <ele>333.71</ele>
        <time>2018-05-19T07:23:56Z</time>
      </trkpt>
      <trkpt lat="43.2943182439" lon="-4.3331861962">
        <ele>335.16</ele>
        <time>2018-05-19T07:24:01Z</time>
      </trkpt>
      <trkpt lat="43.2943516877" lon="-4.3330399320">
        <ele>336.60</ele>
        <time>2018-05-19T07:24:07Z</time>
      </trkpt>
      <trkpt lat="43.2943584770" lon="-4.3328852020">
        <ele>338.04</ele>
        <time>2018-05-19T07:24:12Z</time>
      </trkpt>
      <trkpt lat="43.2943579741" lon="-4.3327360880">
        <ele>339.00</ele>
        <time>2018-05-19T07:24:17Z</time>
      </trkpt>
      <trkpt lat="43.2943611592" lon="-4.3326046597">
        <ele>339.48</ele>
        <time>2018-05-19T07:24:21Z</time>
      </trkpt>
      <trkpt lat="43.2943539508" lon="-4.3324526958">
        <ele>339.96</ele>
        <time>2018-05-19T07:24:26Z</time>
      </trkpt>
      <trkpt lat="43.2943468262" lon="-4.3323138077">
        <ele>340.92</ele>
        <time>2018-05-19T07:24:31Z</time>
      </trkpt>
      <trkpt lat="43.2943454850" lon="-4.3321827147">
        <ele>341.41</ele>
        <time>2018-05-19T07:24:36Z</time>
      </trkpt>
      <trkpt lat="43.2943802699" lon="-4.3320566509">
        <ele>342.85</ele>
        <time>2018-05-19T07:24:41Z</time>
      </trkpt>
      <trkpt lat="43.2944426313" lon="-4.3321271427">
        <ele>343.81</ele>
        <time>2018-05-19T07:24:45Z</time>
      </trkpt>
      <trkpt lat="43.2944728062" lon="-4.3322685454">
        <ele>343.81</ele>
        <time>2018-05-19T07:24:49Z</time>
      </trkpt>
      <trkpt lat="43.2945204992" lon="-4.3324061763">
        <ele>343.81</ele>
        <time>2018-05-19T07:24:53Z</time>
      </trkpt>
      <trkpt lat="43.2945804298" lon="-4.3325265404">
        <ele>344.77</ele>
        <time>2018-05-19T07:24:57Z</time>
      </trkpt>
      <trkpt lat="43.2946356665" lon="-4.3326249439">
        <ele>345.25</ele>
        <time>2018-05-19T07:25:01Z</time>
      </trkpt>
      <trkpt lat="43.2947191503" lon="-4.3327383511">
        <ele>346.21</ele>
        <time>2018-05-19T07:25:06Z</time>
      </trkpt>
      <trkpt lat="43.2948142011" lon="-4.3328114413">
        <ele>346.69</ele>
        <time>2018-05-19T07:25:10Z</time>
      </trkpt>
      <trkpt lat="43.2949043903" lon="-4.3328601401">
        <ele>347.17</ele>
        <time>2018-05-19T07:25:14Z</time>
      </trkpt>
      <trkpt lat="43.2950071525" lon="-4.3328852858">
        <ele>347.65</ele>
        <time>2018-05-19T07:25:18Z</time>
      </trkpt>
      <trkpt lat="43.2951168716" lon="-4.3328989483">
        <ele>348.13</ele>
        <time>2018-05-19T07:25:22Z</time>
      </trkpt>
      <trkpt lat="43.2952319551" lon="-4.3329143710">
        <ele>349.58</ele>
        <time>2018-05-19T07:25:27Z</time>
      </trkpt>
      <trkpt lat="43.2953286823" lon="-4.3329212442">
        <ele>350.06</ele>
        <time>2018-05-19T07:25:31Z</time>
      </trkpt>
      <trkpt lat="43.2954273373" lon="-4.3329384271">
        <ele>351.50</ele>
        <time>2018-05-19T07:25:35Z</time>
      </trkpt>
      <trkpt lat="43.2955420855" lon="-4.3329660036">
        <ele>352.46</ele>
        <time>2018-05-19T07:25:40Z</time>
      </trkpt>
      <trkpt lat="43.2956362143" lon="-4.3329965137">
        <ele>353.42</ele>
        <time>2018-05-19T07:25:44Z</time>
      </trkpt>
      <trkpt lat="43.2957243081" lon="-4.3330275267">
        <ele>354.38</ele>
        <time>2018-05-19T07:25:48Z</time>
      </trkpt>
      <trkpt lat="43.2958340272" lon="-4.3330672570">
        <ele>355.34</ele>
        <time>2018-05-19T07:25:53Z</time>
      </trkpt>
      <trkpt lat="43.2959436625" lon="-4.3330891337">
        <ele>356.31</ele>
        <time>2018-05-19T07:25:58Z</time>
      </trkpt>
      <trkpt lat="43.2960558962" lon="-4.3330884632">
        <ele>357.27</ele>
        <time>2018-05-19T07:26:03Z</time>
      </trkpt>
      <trkpt lat="43.2961600833" lon="-4.3330729567">
        <ele>357.75</ele>
        <time>2018-05-19T07:26:08Z</time>
      </trkpt>
      <trkpt lat="43.2962552179" lon="-4.3330446258">
        <ele>359.19</ele>
        <time>2018-05-19T07:26:13Z</time>
      </trkpt>
      <trkpt lat="43.2963530347" lon="-4.3329825159">
        <ele>360.15</ele>
        <time>2018-05-19T07:26:18Z</time>
      </trkpt>
      <trkpt lat="43.2964398712" lon="-4.3329060730">
        <ele>361.59</ele>
        <time>2018-05-19T07:26:23Z</time>
      </trkpt>
      <trkpt lat="43.2965215947" lon="-4.3328183144">
        <ele>362.55</ele>
        <time>2018-05-19T07:26:28Z</time>
      </trkpt>
      <trkpt lat="43.2965851296" lon="-4.3327119481">
        <ele>363.04</ele>
        <time>2018-05-19T07:26:33Z</time>
      </trkpt>
      <trkpt lat="43.2966370974" lon="-4.3325800169">
        <ele>364.48</ele>
        <time>2018-05-19T07:26:38Z</time>
      </trkpt>
      <trkpt lat="43.2966669369" lon="-4.3324583955">
        <ele>365.92</ele>
        <time>2018-05-19T07:26:43Z</time>
      </trkpt>
      <trkpt lat="43.2966972794" lon="-4.3323273864">
        <ele>366.88</ele>
        <time>2018-05-19T07:26:48Z</time>
      </trkpt>
      <trkpt lat="43.2967298850" lon="-4.3322016578">
        <ele>367.84</ele>
        <time>2018-05-19T07:26:53Z</time>
      </trkpt>
      <trkpt lat="43.2967574615" lon="-4.3320776895">
        <ele>369.28</ele>
        <time>2018-05-19T07:26:58Z</time>
      </trkpt>
      <trkpt lat="43.2967883069" lon="-4.3319589179">
        <ele>370.24</ele>
        <time>2018-05-19T07:27:03Z</time>
      </trkpt>
      <trkpt lat="43.2968250196" lon="-4.3318346981">
        <ele>371.69</ele>
        <time>2018-05-19T07:27:08Z</time>
      </trkpt>
      <trkpt lat="43.2968625706" lon="-4.3316922896">
        <ele>372.17</ele>
        <time>2018-05-19T07:27:13Z</time>
      </trkpt>
      <trkpt lat="43.2968898118" lon="-4.3315574247">
        <ele>372.17</ele>
        <time>2018-05-19T07:27:17Z</time>
      </trkpt>
      <trkpt lat="43.2969201542" lon="-4.3313992582">
        <ele>372.65</ele>
        <time>2018-05-19T07:27:21Z</time>
      </trkpt>
      <trkpt lat="43.2969460543" lon="-4.3312413432">
        <ele>373.13</ele>
        <time>2018-05-19T07:27:25Z</time>
      </trkpt>
      <trkpt lat="43.2969692722" lon="-4.3311104178">
        <ele>373.13</ele>
        <time>2018-05-19T07:27:28Z</time>
      </trkpt>
      <trkpt lat="43.2970018778" lon="-4.3309580348">
        <ele>373.13</ele>
        <time>2018-05-19T07:27:31Z</time>
      </trkpt>
      <trkpt lat="43.2970370818" lon="-4.3308110163">
        <ele>373.13</ele>
        <time>2018-05-19T07:27:34Z</time>
      </trkpt>
      <trkpt lat="43.2970794942" lon="-4.3306560349">
        <ele>373.13</ele>
        <time>2018-05-19T07:27:37Z</time>
      </trkpt>
      <trkpt lat="43.2971219905" lon="-4.3305083457">
        <ele>373.13</ele>
        <time>2018-05-19T07:27:40Z</time>
      </trkpt>
      <trkpt lat="43.2971718628" lon="-4.3303534482">
        <ele>373.13</ele>
        <time>2018-05-19T07:27:43Z</time>
      </trkpt>
      <trkpt lat="43.2972260099" lon="-4.3302143924">
        <ele>373.13</ele>
        <time>2018-05-19T07:27:46Z</time>
      </trkpt>
      <trkpt lat="43.2972839288" lon="-4.3300822936">
        <ele>373.61</ele>
        <time>2018-05-19T07:27:49Z</time>
      </trkpt>
      <trkpt lat="43.2973345555" lon="-4.3299630191">
        <ele>374.57</ele>
        <time>2018-05-19T07:27:52Z</time>
      </trkpt>
      <trkpt lat="43.2973838411" lon="-4.3298383802">
        <ele>375.53</ele>
        <time>2018-05-19T07:27:55Z</time>
      </trkpt>
      <trkpt lat="43.2974374015" lon="-4.3296885118">
        <ele>376.49</ele>
        <time>2018-05-19T07:27:59Z</time>
      </trkpt>
      <trkpt lat="43.2974926382" lon="-4.3295442592">
        <ele>378.42</ele>
        <time>2018-05-19T07:28:03Z</time>
      </trkpt>
      <trkpt lat="43.2975319494" lon="-4.3294322770">
        <ele>378.90</ele>
        <time>2018-05-19T07:28:06Z</time>
      </trkpt>
      <trkpt lat="43.2975963224" lon="-4.3293107394">
        <ele>379.38</ele>
        <time>2018-05-19T07:28:10Z</time>
      </trkpt>
      <trkpt lat="43.2976616174" lon="-4.3291876093">
        <ele>379.38</ele>
        <time>2018-05-19T07:28:13Z</time>
      </trkpt>
      <trkpt lat="43.2977106515" lon="-4.3290818296">
        <ele>378.42</ele>
        <time>2018-05-19T07:28:15Z</time>
      </trkpt>
      <trkpt lat="43.2977669779" lon="-4.3289481383">
        <ele>377.94</ele>
        <time>2018-05-19T07:28:17Z</time>
      </trkpt>
      <trkpt lat="43.2978279144" lon="-4.3287819251">
        <ele>377.94</ele>
        <time>2018-05-19T07:28:20Z</time>
      </trkpt>
      <trkpt lat="43.2978647947" lon="-4.3286706135">
        <ele>377.94</ele>
        <time>2018-05-19T07:28:22Z</time>
      </trkpt>
      <trkpt lat="43.2979006693" lon="-4.3285533506">
        <ele>377.45</ele>
        <time>2018-05-19T07:28:24Z</time>
      </trkpt>
      <trkpt lat="43.2979431655" lon="-4.3284252752">
        <ele>377.45</ele>
        <time>2018-05-19T07:28:26Z</time>
      </trkpt>
      <trkpt lat="43.2979870029" lon="-4.3282824475">
        <ele>376.97</ele>
        <time>2018-05-19T07:28:28Z</time>
      </trkpt>
      <trkpt lat="43.2980377972" lon="-4.3281335011">
        <ele>376.49</ele>
        <time>2018-05-19T07:28:30Z</time>
      </trkpt>
      <trkpt lat="43.2980864961" lon="-4.3280207645">
        <ele>376.49</ele>
        <time>2018-05-19T07:28:32Z</time>
      </trkpt>
      <trkpt lat="43.2981442474" lon="-4.3279113807">
        <ele>376.97</ele>
        <time>2018-05-19T07:28:34Z</time>
      </trkpt>
      <trkpt lat="43.2982085366" lon="-4.3278075289">
        <ele>376.97</ele>
        <time>2018-05-19T07:28:36Z</time>
      </trkpt>
      <trkpt lat="43.2982746698" lon="-4.3277067784">
        <ele>376.97</ele>
        <time>2018-05-19T07:28:38Z</time>
      </trkpt>
      <trkpt lat="43.2983480114" lon="-4.3276092131">
        <ele>376.49</ele>
        <time>2018-05-19T07:28:40Z</time>
      </trkpt>
      <trkpt lat="43.2984412182" lon="-4.3274960574">
        <ele>376.01</ele>
        <time>2018-05-19T07:28:42Z</time>
      </trkpt>
      <trkpt lat="43.2985305693" lon="-4.3273830693">
        <ele>374.57</ele>
        <time>2018-05-19T07:28:44Z</time>
      </trkpt>
      <trkpt lat="43.2986388635" lon="-4.3272332009">
        <ele>373.13</ele>
        <time>2018-05-19T07:28:46Z</time>
      </trkpt>
      <trkpt lat="43.2987406198" lon="-4.3270791415">
        <ele>372.17</ele>
        <time>2018-05-19T07:28:48Z</time>
      </trkpt>
      <trkpt lat="43.2988304738" lon="-4.3269358110">
        <ele>372.17</ele>
        <time>2018-05-19T07:28:50Z</time>
      </trkpt>
      <trkpt lat="43.2989254408" lon="-4.3267791532">
        <ele>372.65</ele>
        <time>2018-05-19T07:28:52Z</time>
      </trkpt>
      <trkpt lat="43.2990077510" lon="-4.3266439531">
        <ele>371.69</ele>
        <time>2018-05-19T07:28:54Z</time>
      </trkpt>
      <trkpt lat="43.2991031371" lon="-4.3264966831">
        <ele>371.21</ele>
        <time>2018-05-19T07:28:56Z</time>
      </trkpt>
      <trkpt lat="43.2992121018" lon="-4.3263371754">
        <ele>370.24</ele>
        <time>2018-05-19T07:28:58Z</time>
      </trkpt>
      <trkpt lat="43.2993136905" lon="-4.3261762429">
        <ele>369.76</ele>
        <time>2018-05-19T07:29:00Z</time>
      </trkpt>
      <trkpt lat="43.2994115911" lon="-4.3260051683">
        <ele>369.28</ele>
        <time>2018-05-19T07:29:02Z</time>
      </trkpt>
      <trkpt lat="43.2995047141" lon="-4.3258197606">
        <ele>369.28</ele>
        <time>2018-05-19T07:29:04Z</time>
      </trkpt>
      <trkpt lat="43.2995807379" lon="-4.3256508652">
        <ele>368.80</ele>
        <time>2018-05-19T07:29:06Z</time>
      </trkpt>
      <trkpt lat="43.2996569294" lon="-4.3254828919">
        <ele>368.80</ele>
        <time>2018-05-19T07:29:08Z</time>
      </trkpt>
      <trkpt lat="43.2997275051" lon="-4.3253107276">
        <ele>368.32</ele>
        <time>2018-05-19T07:29:10Z</time>
      </trkpt>
      <trkpt lat="43.2997877710" lon="-4.3251448497">
        <ele>368.32</ele>
        <time>2018-05-19T07:29:12Z</time>
      </trkpt>
      <trkpt lat="43.2998389844" lon="-4.3249917962">
        <ele>368.32</ele>
        <time>2018-05-19T07:29:14Z</time>
      </trkpt>
      <trkpt lat="43.2998855878" lon="-4.3248468731">
        <ele>369.76</ele>
        <time>2018-05-19T07:29:16Z</time>
      </trkpt>
      <trkpt lat="43.2999280002" lon="-4.3247018661">
        <ele>370.24</ele>
        <time>2018-05-19T07:29:18Z</time>
      </trkpt>
      <trkpt lat="43.2999639586" lon="-4.3245552666">
        <ele>370.24</ele>
        <time>2018-05-19T07:29:20Z</time>
      </trkpt>
      <trkpt lat="43.2999968156" lon="-4.3244265206">
        <ele>370.24</ele>
        <time>2018-05-19T07:29:22Z</time>
      </trkpt>
      <trkpt lat="43.3000331931" lon="-4.3242880516">
        <ele>370.73</ele>
        <time>2018-05-19T07:29:24Z</time>
      </trkpt>
      <trkpt lat="43.3000670560" lon="-4.3241575453">
        <ele>371.21</ele>
        <time>2018-05-19T07:29:26Z</time>
      </trkpt>
      <trkpt lat="43.3000976499" lon="-4.3240385223">
        <ele>371.69</ele>
        <time>2018-05-19T07:29:28Z</time>
      </trkpt>
      <trkpt lat="43.3001289982" lon="-4.3239271268">
        <ele>371.69</ele>
        <time>2018-05-19T07:29:30Z</time>
      </trkpt>
      <trkpt lat="43.3001771104" lon="-4.3237731513">
        <ele>372.65</ele>
        <time>2018-05-19T07:29:33Z</time>
      </trkpt>
      <trkpt lat="43.3002221212" lon="-4.3236638512">
        <ele>372.65</ele>
        <time>2018-05-19T07:29:35Z</time>
      </trkpt>
      <trkpt lat="43.3002847340" lon="-4.3235619273">
        <ele>372.65</ele>
        <time>2018-05-19T07:29:37Z</time>
      </trkpt>
      <trkpt lat="43.3003516216" lon="-4.3234570697">
        <ele>372.65</ele>
        <time>2018-05-19T07:29:39Z</time>
      </trkpt>
      <trkpt lat="43.3004246280" lon="-4.3233431596">
        <ele>370.73</ele>
        <time>2018-05-19T07:29:41Z</time>
      </trkpt>
      <trkpt lat="43.3004973829" lon="-4.3232112285">
        <ele>368.32</ele>
        <time>2018-05-19T07:29:43Z</time>
      </trkpt>
      <trkpt lat="43.3005890809" lon="-4.3230625335">
        <ele>365.92</ele>
        <time>2018-05-19T07:29:45Z</time>
      </trkpt>
      <trkpt lat="43.3006728161" lon="-4.3229257409">
        <ele>363.04</ele>
        <time>2018-05-19T07:29:47Z</time>
      </trkpt>
      <trkpt lat="43.3007598203" lon="-4.3227827456">
        <ele>361.59</ele>
        <time>2018-05-19T07:29:49Z</time>
      </trkpt>
      <trkpt lat="43.3008426335" lon="-4.3226554245">
        <ele>359.67</ele>
        <time>2018-05-19T07:29:51Z</time>
      </trkpt>
      <trkpt lat="43.3009330742" lon="-4.3225468788">
        <ele>359.19</ele>
        <time>2018-05-19T07:29:53Z</time>
      </trkpt>
      <trkpt lat="43.3010502532" lon="-4.3224429432">
        <ele>358.71</ele>
        <time>2018-05-19T07:29:55Z</time>
      </trkpt>
      <trkpt lat="43.3011885546" lon="-4.3223635666">
        <ele>356.31</ele>
        <time>2018-05-19T07:29:57Z</time>
      </trkpt>
      <trkpt lat="43.3013125230" lon="-4.3223252613">
        <ele>355.34</ele>
        <time>2018-05-19T07:29:59Z</time>
      </trkpt>
      <trkpt lat="43.3014072385" lon="-4.3222857825">
        <ele>354.86</ele>
        <time>2018-05-19T07:30:01Z</time>
      </trkpt>
      <trkpt lat="43.3015141916" lon="-4.3222497404">
        <ele>354.38</ele>
        <time>2018-05-19T07:30:04Z</time>
      </trkpt>
      <trkpt lat="43.3015634771" lon="-4.3223117664">
        <ele>354.86</ele>
        <time>2018-05-19T07:31:30Z</time>
      </trkpt>
      <trkpt lat="43.3015530836" lon="-4.3224074878">
        <ele>354.38</ele>
        <time>2018-05-19T07:34:41Z</time>
      </trkpt>
      <trkpt lat="43.3015750442" lon="-4.3225485552">
        <ele>354.38</ele>
        <time>2018-05-19T07:34:45Z</time>
      </trkpt>
      <trkpt lat="43.3015889581" lon="-4.3227191269">
        <ele>355.34</ele>
        <time>2018-05-19T07:34:49Z</time>
      </trkpt>
      <trkpt lat="43.3015866112" lon="-4.3228607811">
        <ele>355.34</ele>
        <time>2018-05-19T07:34:52Z</time>
      </trkpt>
      <trkpt lat="43.3015766367" lon="-4.3230032735">
        <ele>355.34</ele>
        <time>2018-05-19T07:34:55Z</time>
      </trkpt>
      <trkpt lat="43.3015562687" lon="-4.3231616076">
        <ele>355.83</ele>
        <time>2018-05-19T07:34:58Z</time>
      </trkpt>
      <trkpt lat="43.3015394211" lon="-4.3233031780">
        <ele>355.83</ele>
        <time>2018-05-19T07:35:01Z</time>
      </trkpt>
      <trkpt lat="43.3015162870" lon="-4.3234605901">
        <ele>356.79</ele>
        <time>2018-05-19T07:35:04Z</time>
      </trkpt>
      <trkpt lat="43.3014964219" lon="-4.3236281443">
        <ele>356.79</ele>
        <time>2018-05-19T07:35:07Z</time>
      </trkpt>
      <trkpt lat="43.3014850225" lon="-4.3237977102">
        <ele>356.79</ele>
        <time>2018-05-19T07:35:10Z</time>
      </trkpt>
      <trkpt lat="43.3014784846" lon="-4.3239626661">
        <ele>356.79</ele>
        <time>2018-05-19T07:35:13Z</time>
      </trkpt>
      <trkpt lat="43.3014696836" lon="-4.3241422903">
        <ele>356.79</ele>
        <time>2018-05-19T07:35:16Z</time>
      </trkpt>
      <trkpt lat="43.3014615532" lon="-4.3242675997">
        <ele>356.79</ele>
        <time>2018-05-19T07:35:18Z</time>
      </trkpt>
      <trkpt lat="43.3014438674" lon="-4.3244380876">
        <ele>357.27</ele>
        <time>2018-05-19T07:35:21Z</time>
      </trkpt>
      <trkpt lat="43.3014266007" lon="-4.3245613016">
        <ele>357.27</ele>
        <time>2018-05-19T07:35:23Z</time>
      </trkpt>
      <trkpt lat="43.3013931569" lon="-4.3247415964">
        <ele>357.27</ele>
        <time>2018-05-19T07:35:26Z</time>
      </trkpt>
      <trkpt lat="43.3013713639" lon="-4.3248590268">
        <ele>357.27</ele>
        <time>2018-05-19T07:35:28Z</time>
      </trkpt>
      <trkpt lat="43.3013520017" lon="-4.3249955680">
        <ele>357.27</ele>
        <time>2018-05-19T07:35:30Z</time>
      </trkpt>
      <trkpt lat="43.3013463020" lon="-4.3251225539">
        <ele>357.27</ele>
        <time>2018-05-19T07:35:32Z</time>
      </trkpt>
      <trkpt lat="43.3013606351" lon="-4.3252694048">
        <ele>356.31</ele>
        <time>2018-05-19T07:35:34Z</time>
      </trkpt>
      <trkpt lat="43.3013973478" lon="-4.3254153337">
        <ele>355.34</ele>
        <time>2018-05-19T07:35:36Z</time>
      </trkpt>
      <trkpt lat="43.3014659956" lon="-4.3255472649">
        <ele>354.38</ele>
        <time>2018-05-19T07:35:38Z</time>
      </trkpt>
      <trkpt lat="43.3015488926" lon="-4.3256682996">
        <ele>353.90</ele>
        <time>2018-05-19T07:35:40Z</time>
      </trkpt>
      <trkpt lat="43.3016361482" lon="-4.3257848080">
        <ele>353.90</ele>
        <time>2018-05-19T07:35:42Z</time>
      </trkpt>
      <trkpt lat="43.3017296065" lon="-4.3259268813">
        <ele>352.94</ele>
        <time>2018-05-19T07:35:44Z</time>
      </trkpt>
      <trkpt lat="43.3018037025" lon="-4.3260427192">
        <ele>352.94</ele>
        <time>2018-05-19T07:35:46Z</time>
      </trkpt>
      <trkpt lat="43.3018796425" lon="-4.3261852115">
        <ele>352.46</ele>
        <time>2018-05-19T07:35:48Z</time>
      </trkpt>
      <trkpt lat="43.3019537386" lon="-4.3263317272">
        <ele>352.46</ele>
        <time>2018-05-19T07:35:50Z</time>
      </trkpt>
      <trkpt lat="43.3020413294" lon="-4.3264744710">
        <ele>351.98</ele>
        <time>2018-05-19T07:35:52Z</time>
      </trkpt>
      <trkpt lat="43.3021439239" lon="-4.3265935779">
        <ele>351.50</ele>
        <time>2018-05-19T07:35:54Z</time>
      </trkpt>
      <trkpt lat="43.3022649586" lon="-4.3266851082">
        <ele>351.02</ele>
        <time>2018-05-19T07:35:56Z</time>
      </trkpt>
      <trkpt lat="43.3024061937" lon="-4.3267346453">
        <ele>350.54</ele>
        <time>2018-05-19T07:35:58Z</time>
      </trkpt>
      <trkpt lat="43.3025279827" lon="-4.3267411832">
        <ele>350.54</ele>
        <time>2018-05-19T07:36:00Z</time>
      </trkpt>
      <trkpt lat="43.3026889153" lon="-4.3267385848">
        <ele>348.13</ele>
        <time>2018-05-19T07:36:02Z</time>
      </trkpt>
      <trkpt lat="43.3028669469" lon="-4.3267317116">
        <ele>345.73</ele>
        <time>2018-05-19T07:36:04Z</time>
      </trkpt>
      <trkpt lat="43.3029577229" lon="-4.3267287780">
        <ele>344.29</ele>
        <time>2018-05-19T07:36:05Z</time>
      </trkpt>
      <trkpt lat="43.3030561265" lon="-4.3267252576">
        <ele>342.37</ele>
        <time>2018-05-19T07:36:06Z</time>
      </trkpt>
      <trkpt lat="43.3031505067" lon="-4.3267238326">
        <ele>341.89</ele>
        <time>2018-05-19T07:36:07Z</time>
      </trkpt>
      <trkpt lat="43.3032474853" lon="-4.3267211504">
        <ele>341.41</ele>
        <time>2018-05-19T07:36:08Z</time>
      </trkpt>
      <trkpt lat="43.3033594675" lon="-4.3267173786">
        <ele>339.48</ele>
        <time>2018-05-19T07:36:09Z</time>
      </trkpt>
      <trkpt lat="43.3034658339" lon="-4.3267130200">
        <ele>338.52</ele>
        <time>2018-05-19T07:36:10Z</time>
      </trkpt>
      <trkpt lat="43.3035624772" lon="-4.3267096672">
        <ele>337.56</ele>
        <time>2018-05-19T07:36:11Z</time>
      </trkpt>
      <trkpt lat="43.3037433587" lon="-4.3267063145">
        <ele>335.16</ele>
        <time>2018-05-19T07:36:13Z</time>
      </trkpt>
      <trkpt lat="43.3038476296" lon="-4.3267022911">
        <ele>334.20</ele>
        <time>2018-05-19T07:36:14Z</time>
      </trkpt>
      <trkpt lat="43.3039502241" lon="-4.3266995251">
        <ele>333.23</ele>
        <time>2018-05-19T07:36:15Z</time>
      </trkpt>
      <trkpt lat="43.3040560875" lon="-4.3266979326">
        <ele>332.27</ele>
        <time>2018-05-19T07:36:16Z</time>
      </trkpt>
      <trkpt lat="43.3041608613" lon="-4.3266947474">
        <ele>331.79</ele>
        <time>2018-05-19T07:36:17Z</time>
      </trkpt>
      <trkpt lat="43.3042729273" lon="-4.3266892154">
        <ele>330.35</ele>
        <time>2018-05-19T07:36:18Z</time>
      </trkpt>
      <trkpt lat="43.3043758571" lon="-4.3266842701">
        <ele>329.87</ele>
        <time>2018-05-19T07:36:19Z</time>
      </trkpt>
      <trkpt lat="43.3044877555" lon="-4.3266813364">
        <ele>329.39</ele>
        <time>2018-05-19T07:36:20Z</time>
      </trkpt>
      <trkpt lat="43.3046026714" lon="-4.3266784027">
        <ele>328.43</ele>
        <time>2018-05-19T07:36:21Z</time>
      </trkpt>
      <trkpt lat="43.3047252987" lon="-4.3266712781">
        <ele>327.47</ele>
        <time>2018-05-19T07:36:22Z</time>
      </trkpt>
      <trkpt lat="43.3048334252" lon="-4.3266660813">
        <ele>326.50</ele>
        <time>2018-05-19T07:36:23Z</time>
      </trkpt>
      <trkpt lat="43.3050325792" lon="-4.3266558554">
        <ele>324.10</ele>
        <time>2018-05-19T07:36:25Z</time>
      </trkpt>
      <trkpt lat="43.3051388618" lon="-4.3266464677">
        <ele>324.10</ele>
        <time>2018-05-19T07:36:26Z</time>
      </trkpt>
      <trkpt lat="43.3052415401" lon="-4.3266388401">
        <ele>323.14</ele>
        <time>2018-05-19T07:36:27Z</time>
      </trkpt>
      <trkpt lat="43.3053518459" lon="-4.3266345654">
        <ele>322.66</ele>
        <time>2018-05-19T07:36:28Z</time>
      </trkpt>
      <trkpt lat="43.3054489084" lon="-4.3266313802">
        <ele>322.66</ele>
        <time>2018-05-19T07:36:29Z</time>
      </trkpt>
      <trkpt lat="43.3055510838" lon="-4.3266305421">
        <ele>322.66</ele>
        <time>2018-05-19T07:36:30Z</time>
      </trkpt>
      <trkpt lat="43.3056416083" lon="-4.3266288657">
        <ele>322.66</ele>
        <time>2018-05-19T07:36:31Z</time>
      </trkpt>
      <trkpt lat="43.3057403471" lon="-4.3266333919">
        <ele>322.66</ele>
        <time>2018-05-19T07:36:32Z</time>
      </trkpt>
      <trkpt lat="43.3058284409" lon="-4.3266475573">
        <ele>322.66</ele>
        <time>2018-05-19T07:36:33Z</time>
      </trkpt>
      <trkpt lat="43.3059580252" lon="-4.3266899697">
        <ele>325.54</ele>
        <time>2018-05-19T07:36:35Z</time>
      </trkpt>
      <trkpt lat="43.3060767129" lon="-4.3267417699">
        <ele>326.50</ele>
        <time>2018-05-19T07:36:37Z</time>
      </trkpt>
      <trkpt lat="43.3061656449" lon="-4.3267937377">
        <ele>328.43</ele>
        <time>2018-05-19T07:36:39Z</time>
      </trkpt>
      <trkpt lat="43.3062669821" lon="-4.3268624693">
        <ele>329.87</ele>
        <time>2018-05-19T07:36:42Z</time>
      </trkpt>
      <trkpt lat="43.3063657209" lon="-4.3269275967">
        <ele>331.31</ele>
        <time>2018-05-19T07:36:46Z</time>
      </trkpt>
      <trkpt lat="43.3064554073" lon="-4.3269892875">
        <ele>333.23</ele>
        <time>2018-05-19T07:36:50Z</time>
      </trkpt>
      <trkpt lat="43.3065360412" lon="-4.3270507269">
        <ele>334.68</ele>
        <time>2018-05-19T07:36:54Z</time>
      </trkpt>
      <trkpt lat="43.3066252246" lon="-4.3271232303">
        <ele>335.64</ele>
        <time>2018-05-19T07:36:59Z</time>
      </trkpt>
      <trkpt lat="43.3067258075" lon="-4.3271890283">
        <ele>337.56</ele>
        <time>2018-05-19T07:37:04Z</time>
      </trkpt>
      <trkpt lat="43.3068275638" lon="-4.3272394873">
        <ele>338.52</ele>
        <time>2018-05-19T07:37:09Z</time>
      </trkpt>
      <trkpt lat="43.3069247939" lon="-4.3273046147">
        <ele>339.96</ele>
        <time>2018-05-19T07:37:14Z</time>
      </trkpt>
      <trkpt lat="43.3070252091" lon="-4.3273671437">
        <ele>341.41</ele>
        <time>2018-05-19T07:37:19Z</time>
      </trkpt>
      <trkpt lat="43.3071242832" lon="-4.3274253141">
        <ele>341.89</ele>
        <time>2018-05-19T07:37:24Z</time>
      </trkpt>
      <trkpt lat="43.3072112035" lon="-4.3274607696">
        <ele>342.37</ele>
        <time>2018-05-19T07:37:28Z</time>
      </trkpt>
      <trkpt lat="43.3073093556" lon="-4.3274906091">
        <ele>342.37</ele>
        <time>2018-05-19T07:37:32Z</time>
      </trkpt>
      <trkpt lat="43.3074120339" lon="-4.3274931237">
        <ele>342.85</ele>
        <time>2018-05-19T07:37:36Z</time>
      </trkpt>
      <trkpt lat="43.3075173106" lon="-4.3274722528">
        <ele>343.33</ele>
        <time>2018-05-19T07:37:40Z</time>
      </trkpt>
      <trkpt lat="43.3076349925" lon="-4.3274494540">
        <ele>343.81</ele>
        <time>2018-05-19T07:37:44Z</time>
      </trkpt>
      <trkpt lat="43.3077275287" lon="-4.3274288345">
        <ele>343.81</ele>
        <time>2018-05-19T07:37:47Z</time>
      </trkpt>
      <trkpt lat="43.3078321349" lon="-4.3273964804">
        <ele>344.29</ele>
        <time>2018-05-19T07:37:50Z</time>
      </trkpt>
      <trkpt lat="43.3079287782" lon="-4.3273637909">
        <ele>344.77</ele>
        <time>2018-05-19T07:37:53Z</time>
      </trkpt>
      <trkpt lat="43.3080286905" lon="-4.3273305148">
        <ele>345.25</ele>
        <time>2018-05-19T07:37:56Z</time>
      </trkpt>
      <trkpt lat="43.3081362303" lon="-4.3272966519">
        <ele>345.25</ele>
        <time>2018-05-19T07:37:59Z</time>
      </trkpt>
      <trkpt lat="43.3082384896" lon="-4.3272722606">
        <ele>345.25</ele>
        <time>2018-05-19T07:38:02Z</time>
      </trkpt>
      <trkpt lat="43.3083431795" lon="-4.3272521440">
        <ele>345.73</ele>
        <time>2018-05-19T07:38:05Z</time>
      </trkpt>
      <trkpt lat="43.3084501326" lon="-4.3272317760">
        <ele>345.73</ele>
        <time>2018-05-19T07:38:08Z</time>
      </trkpt>
      <trkpt lat="43.3085641265" lon="-4.3272145092">
        <ele>346.21</ele>
        <time>2018-05-19T07:38:11Z</time>
      </trkpt>
      <trkpt lat="43.3086592611" lon="-4.3272165209">
        <ele>346.21</ele>
        <time>2018-05-19T07:38:14Z</time>
      </trkpt>
      <trkpt lat="43.3087606821" lon="-4.3272387329">
        <ele>347.17</ele>
        <time>2018-05-19T07:38:17Z</time>
      </trkpt>
      <trkpt lat="43.3088537212" lon="-4.3273036927">
        <ele>347.65</ele>
        <time>2018-05-19T07:38:20Z</time>
      </trkpt>
      <trkpt lat="43.3089586627" lon="-4.3273858353">
        <ele>348.62</ele>
        <time>2018-05-19T07:38:24Z</time>
      </trkpt>
      <trkpt lat="43.3090479299" lon="-4.3274302594">
        <ele>349.10</ele>
        <time>2018-05-19T07:38:27Z</time>
      </trkpt>
      <trkpt lat="43.3091630135" lon="-4.3274697382">
        <ele>350.06</ele>
        <time>2018-05-19T07:38:31Z</time>
      </trkpt>
      <trkpt lat="43.3092494309" lon="-4.3275084626">
        <ele>350.54</ele>
        <time>2018-05-19T07:38:34Z</time>
      </trkpt>
      <trkpt lat="43.3093363512" lon="-4.3275603466">
        <ele>350.54</ele>
        <time>2018-05-19T07:38:37Z</time>
      </trkpt>
      <trkpt lat="43.3094277978" lon="-4.3276159186">
        <ele>351.02</ele>
        <time>2018-05-19T07:38:40Z</time>
      </trkpt>
      <trkpt lat="43.3095176518" lon="-4.3276873324">
        <ele>351.98</ele>
        <time>2018-05-19T07:38:43Z</time>
      </trkpt>
      <trkpt lat="43.3095964417" lon="-4.3277534656">
        <ele>352.46</ele>
        <time>2018-05-19T07:38:46Z</time>
      </trkpt>
      <trkpt lat="43.3096846193" lon="-4.3278366141">
        <ele>352.94</ele>
        <time>2018-05-19T07:38:49Z</time>
      </trkpt>
      <trkpt lat="43.3097744733" lon="-4.3279169966">
        <ele>353.42</ele>
        <time>2018-05-19T07:38:52Z</time>
      </trkpt>
      <trkpt lat="43.3098684344" lon="-4.3280075211">
        <ele>353.90</ele>
        <time>2018-05-19T07:38:55Z</time>
      </trkpt>
      <trkpt lat="43.3099509124" lon="-4.3280976266">
        <ele>353.90</ele>
        <time>2018-05-19T07:38:58Z</time>
      </trkpt>
      <trkpt lat="43.3100301214" lon="-4.3281873967">
        <ele>353.90</ele>
        <time>2018-05-19T07:39:01Z</time>
      </trkpt>
      <trkpt lat="43.3101211488" lon="-4.3282817770">
        <ele>353.90</ele>
        <time>2018-05-19T07:39:04Z</time>
      </trkpt>
      <trkpt lat="43.3102335501" lon="-4.3283790909">
        <ele>353.90</ele>
        <time>2018-05-19T07:39:07Z</time>
      </trkpt>
      <trkpt lat="43.3103376534" lon="-4.3284637481">
        <ele>353.90</ele>
        <time>2018-05-19T07:39:10Z</time>
      </trkpt>
      <trkpt lat="43.3104529884" lon="-4.3285669293">
        <ele>353.90</ele>
        <time>2018-05-19T07:39:13Z</time>
      </trkpt>
      <trkpt lat="43.3105367236" lon="-4.3286452163">
        <ele>353.90</ele>
        <time>2018-05-19T07:39:15Z</time>
      </trkpt>
      <trkpt lat="43.3106207103" lon="-4.3287361600">
        <ele>353.90</ele>
        <time>2018-05-19T07:39:17Z</time>
      </trkpt>
      <trkpt lat="43.3107041940" lon="-4.3288301211">
        <ele>352.46</ele>
        <time>2018-05-19T07:39:19Z</time>
      </trkpt>
      <trkpt lat="43.3108054474" lon="-4.3289545923">
        <ele>352.46</ele>
        <time>2018-05-19T07:39:22Z</time>
      </trkpt>
      <trkpt lat="43.3108766936" lon="-4.3290399201">
        <ele>352.46</ele>
        <time>2018-05-19T07:39:24Z</time>
      </trkpt>
      <trkpt lat="43.3109488618" lon="-4.3291321211">
        <ele>352.46</ele>
        <time>2018-05-19T07:39:26Z</time>
      </trkpt>
      <trkpt lat="43.3110179286" lon="-4.3292384036">
        <ele>352.46</ele>
        <time>2018-05-19T07:39:28Z</time>
      </trkpt>
      <trkpt lat="43.3110579941" lon="-4.3293828238">
        <ele>351.98</ele>
        <time>2018-05-19T07:39:30Z</time>
      </trkpt>
      <trkpt lat="43.3110558148" lon="-4.3295746017">
        <ele>350.54</ele>
        <time>2018-05-19T07:39:33Z</time>
      </trkpt>
      <trkpt lat="43.3110381290" lon="-4.3297323491">
        <ele>349.58</ele>
        <time>2018-05-19T07:39:36Z</time>
      </trkpt>
      <trkpt lat="43.3110198565" lon="-4.3299021665">
        <ele>347.65</ele>
        <time>2018-05-19T07:39:40Z</time>
      </trkpt>
      <trkpt lat="43.3109853230" lon="-4.3300737441">
        <ele>345.73</ele>
        <time>2018-05-19T07:39:43Z</time>
      </trkpt>
      <trkpt lat="43.3109619375" lon="-4.3302034121">
        <ele>343.81</ele>
        <time>2018-05-19T07:39:45Z</time>
      </trkpt>
      <trkpt lat="43.3109414019" lon="-4.3303627521">
        <ele>341.41</ele>
        <time>2018-05-19T07:39:47Z</time>
      </trkpt>
      <trkpt lat="43.3109222073" lon="-4.3305200804">
        <ele>339.96</ele>
        <time>2018-05-19T07:39:49Z</time>
      </trkpt>
      <trkpt lat="43.3109023422" lon="-4.3306727987">
        <ele>338.04</ele>
        <time>2018-05-19T07:39:51Z</time>
      </trkpt>
      <trkpt lat="43.3108795434" lon="-4.3308132794">
        <ele>336.60</ele>
        <time>2018-05-19T07:39:53Z</time>
      </trkpt>
      <trkpt lat="43.3108551521" lon="-4.3309571128">
        <ele>334.68</ele>
        <time>2018-05-19T07:39:55Z</time>
      </trkpt>
      <trkpt lat="43.3108272403" lon="-4.3311294448">
        <ele>331.31</ele>
        <time>2018-05-19T07:39:57Z</time>
      </trkpt>
      <trkpt lat="43.3108024299" lon="-4.3312736135">
        <ele>328.91</ele>
        <time>2018-05-19T07:39:59Z</time>
      </trkpt>
      <trkpt lat="43.3107734285" lon="-4.3314462807">
        <ele>326.50</ele>
        <time>2018-05-19T07:40:01Z</time>
      </trkpt>
      <trkpt lat="43.3107404038" lon="-4.3316288386">
        <ele>324.10</ele>
        <time>2018-05-19T07:40:03Z</time>
      </trkpt>
      <trkpt lat="43.3107046131" lon="-4.3318140786">
        <ele>323.14</ele>
        <time>2018-05-19T07:40:05Z</time>
      </trkpt>
      <trkpt lat="43.3106619492" lon="-4.3320056051">
        <ele>321.22</ele>
        <time>2018-05-19T07:40:07Z</time>
      </trkpt>
      <trkpt lat="43.3106300980" lon="-4.3322039209">
        <ele>319.78</ele>
        <time>2018-05-19T07:40:09Z</time>
      </trkpt>
      <trkpt lat="43.3105962351" lon="-4.3324143905">
        <ele>318.81</ele>
        <time>2018-05-19T07:40:11Z</time>
      </trkpt>
      <trkpt lat="43.3105641324" lon="-4.3326083478">
        <ele>314.97</ele>
        <time>2018-05-19T07:40:13Z</time>
      </trkpt>
      <trkpt lat="43.3105253242" lon="-4.3328358326">
        <ele>312.57</ele>
        <time>2018-05-19T07:40:15Z</time>
      </trkpt>
      <trkpt lat="43.3104868513" lon="-4.3330549356">
        <ele>311.12</ele>
        <time>2018-05-19T07:40:17Z</time>
      </trkpt>
      <trkpt lat="43.3104587719" lon="-4.3332820851">
        <ele>309.20</ele>
        <time>2018-05-19T07:40:19Z</time>
      </trkpt>
      <trkpt lat="43.3104620408" lon="-4.3335228972">
        <ele>307.28</ele>
        <time>2018-05-19T07:40:21Z</time>
      </trkpt>
      <trkpt lat="43.3105170261" lon="-4.3337512203">
        <ele>306.80</ele>
        <time>2018-05-19T07:40:23Z</time>
      </trkpt>
      <trkpt lat="43.3105640486" lon="-4.3338738475">
        <ele>306.32</ele>
        <time>2018-05-19T07:40:24Z</time>
      </trkpt>
      <trkpt lat="43.3106284216" lon="-4.3340284098">
        <ele>306.32</ele>
        <time>2018-05-19T07:40:26Z</time>
      </trkpt>
      <trkpt lat="43.3106872626" lon="-4.3341798708">
        <ele>307.76</ele>
        <time>2018-05-19T07:40:28Z</time>
      </trkpt>
      <trkpt lat="43.3107404877" lon="-4.3343144841">
        <ele>308.72</ele>
        <time>2018-05-19T07:40:30Z</time>
      </trkpt>
      <trkpt lat="43.3107834868" lon="-4.3344573118">
        <ele>308.72</ele>
        <time>2018-05-19T07:40:32Z</time>
      </trkpt>
      <trkpt lat="43.3108041063" lon="-4.3346143048">
        <ele>307.76</ele>
        <time>2018-05-19T07:40:34Z</time>
      </trkpt>
      <trkpt lat="43.3108177688" lon="-4.3347604014">
        <ele>306.80</ele>
        <time>2018-05-19T07:40:36Z</time>
      </trkpt>
      <trkpt lat="43.3108222950" lon="-4.3349173944">
        <ele>304.88</ele>
        <time>2018-05-19T07:40:38Z</time>
      </trkpt>
      <trkpt lat="43.3108270727" lon="-4.3350841943">
        <ele>302.47</ele>
        <time>2018-05-19T07:40:40Z</time>
      </trkpt>
      <trkpt lat="43.3108476922" lon="-4.3352649920">
        <ele>299.59</ele>
        <time>2018-05-19T07:40:42Z</time>
      </trkpt>
      <trkpt lat="43.3108721673" lon="-4.3353994377">
        <ele>298.15</ele>
        <time>2018-05-19T07:40:44Z</time>
      </trkpt>
      <trkpt lat="43.3109030966" lon="-4.3355482165">
        <ele>296.22</ele>
        <time>2018-05-19T07:40:46Z</time>
      </trkpt>
      <trkpt lat="43.3109124843" lon="-4.3356977496">
        <ele>294.30</ele>
        <time>2018-05-19T07:40:48Z</time>
      </trkpt>
      <trkpt lat="43.3109133225" lon="-4.3358505517">
        <ele>292.86</ele>
        <time>2018-05-19T07:40:50Z</time>
      </trkpt>
      <trkpt lat="43.3109258115" lon="-4.3359941337">
        <ele>290.94</ele>
        <time>2018-05-19T07:40:52Z</time>
      </trkpt>
      <trkpt lat="43.3109295834" lon="-4.3361510430">
        <ele>289.01</ele>
        <time>2018-05-19T07:40:54Z</time>
      </trkpt>
      <trkpt lat="43.3109368756" lon="-4.3362986483">
        <ele>287.57</ele>
        <time>2018-05-19T07:40:56Z</time>
      </trkpt>
      <trkpt lat="43.3109434973" lon="-4.3364633527">
        <ele>285.65</ele>
        <time>2018-05-19T07:40:58Z</time>
      </trkpt>
      <trkpt lat="43.3109593391" lon="-4.3365871534">
        <ele>283.73</ele>
        <time>2018-05-19T07:41:00Z</time>
      </trkpt>
      <trkpt lat="43.3109790366" lon="-4.3367101159">
        <ele>281.80</ele>
        <time>2018-05-19T07:41:02Z</time>
      </trkpt>
      <trkpt lat="43.3110065293" lon="-4.3368840404">
        <ele>278.92</ele>
        <time>2018-05-19T07:41:05Z</time>
      </trkpt>
      <trkpt lat="43.3110253047" lon="-4.3370293826">
        <ele>276.52</ele>
        <time>2018-05-19T07:41:07Z</time>
      </trkpt>
      <trkpt lat="43.3110167552" lon="-4.3372014631">
        <ele>273.63</ele>
        <time>2018-05-19T07:41:09Z</time>
      </trkpt>
      <trkpt lat="43.3109732531" lon="-4.3373709451">
        <ele>270.75</ele>
        <time>2018-05-19T07:41:11Z</time>
      </trkpt>
      <trkpt lat="43.3109175973" lon="-4.3375322968">
        <ele>269.31</ele>
        <time>2018-05-19T07:41:13Z</time>
      </trkpt>
      <trkpt lat="43.3108726703" lon="-4.3376863562">
        <ele>267.38</ele>
        <time>2018-05-19T07:41:15Z</time>
      </trkpt>
      <trkpt lat="43.3108372148" lon="-4.3378154375">
        <ele>265.46</ele>
        <time>2018-05-19T07:41:17Z</time>
      </trkpt>
      <trkpt lat="43.3107921202" lon="-4.3379606958">
        <ele>262.58</ele>
        <time>2018-05-19T07:41:19Z</time>
      </trkpt>
      <trkpt lat="43.3107248135" lon="-4.3381189462">
        <ele>260.17</ele>
        <time>2018-05-19T07:41:21Z</time>
      </trkpt>
      <trkpt lat="43.3106500469" lon="-4.3383020069">
        <ele>259.21</ele>
        <time>2018-05-19T07:41:23Z</time>
      </trkpt>
      <trkpt lat="43.3105965704" lon="-4.3384787813">
        <ele>256.81</ele>
        <time>2018-05-19T07:41:25Z</time>
      </trkpt>
      <trkpt lat="43.3105606120" lon="-4.3386413902">
        <ele>255.85</ele>
        <time>2018-05-19T07:41:27Z</time>
      </trkpt>
      <trkpt lat="43.3105190378" lon="-4.3388143927">
        <ele>254.41</ele>
        <time>2018-05-19T07:41:29Z</time>
      </trkpt>
      <trkpt lat="43.3104745299" lon="-4.3389521912">
        <ele>252.48</ele>
        <time>2018-05-19T07:41:31Z</time>
      </trkpt>
      <trkpt lat="43.3104274236" lon="-4.3391024787">
        <ele>250.08</ele>
        <time>2018-05-19T07:41:33Z</time>
      </trkpt>
      <trkpt lat="43.3103912976" lon="-4.3392455578">
        <ele>248.16</ele>
        <time>2018-05-19T07:41:35Z</time>
      </trkpt>
      <trkpt lat="43.3103687502" lon="-4.3393963482">
        <ele>245.75</ele>
        <time>2018-05-19T07:41:37Z</time>
      </trkpt>
      <trkpt lat="43.3103389107" lon="-4.3395659979">
        <ele>241.91</ele>
        <time>2018-05-19T07:41:39Z</time>
      </trkpt>
      <trkpt lat="43.3102953248" lon="-4.3397367373">
        <ele>239.02</ele>
        <time>2018-05-19T07:41:41Z</time>
      </trkpt>
      <trkpt lat="43.3102373220" lon="-4.3399167806">
        <ele>235.66</ele>
        <time>2018-05-19T07:41:43Z</time>
      </trkpt>
      <trkpt lat="43.3101724461" lon="-4.3400688283">
        <ele>233.74</ele>
        <time>2018-05-19T07:41:45Z</time>
      </trkpt>
      <trkpt lat="43.3100923989" lon="-4.3401831575">
        <ele>232.30</ele>
        <time>2018-05-19T07:41:47Z</time>
      </trkpt>
      <trkpt lat="43.3099850267" lon="-4.3402627856">
        <ele>231.81</ele>
        <time>2018-05-19T07:41:49Z</time>
      </trkpt>
      <trkpt lat="43.3098803367" lon="-4.3403262366">
        <ele>230.85</ele>
        <time>2018-05-19T07:41:51Z</time>
      </trkpt>
      <trkpt lat="43.3098055702" lon="-4.3404076248">
        <ele>230.37</ele>
        <time>2018-05-19T07:41:53Z</time>
      </trkpt>
      <trkpt lat="43.3097404428" lon="-4.3405576609">
        <ele>227.01</ele>
        <time>2018-05-19T07:41:56Z</time>
      </trkpt>
      <trkpt lat="43.3097366709" lon="-4.3406962138">
        <ele>225.57</ele>
        <time>2018-05-19T07:41:58Z</time>
      </trkpt>
      <trkpt lat="43.3097686060" lon="-4.3408294860">
        <ele>223.64</ele>
        <time>2018-05-19T07:42:00Z</time>
      </trkpt>
      <trkpt lat="43.3098008763" lon="-4.3409981299">
        <ele>220.76</ele>
        <time>2018-05-19T07:42:03Z</time>
      </trkpt>
      <trkpt lat="43.3098279499" lon="-4.3411473278">
        <ele>217.88</ele>
        <time>2018-05-19T07:42:05Z</time>
      </trkpt>
      <trkpt lat="43.3098483179" lon="-4.3413074221">
        <ele>214.99</ele>
        <time>2018-05-19T07:42:07Z</time>
      </trkpt>
      <trkpt lat="43.3098375052" lon="-4.3414778262">
        <ele>212.59</ele>
        <time>2018-05-19T07:42:09Z</time>
      </trkpt>
      <trkpt lat="43.3098074980" lon="-4.3416622281">
        <ele>209.22</ele>
        <time>2018-05-19T07:42:11Z</time>
      </trkpt>
      <trkpt lat="43.3097970206" lon="-4.3418345600">
        <ele>207.30</ele>
        <time>2018-05-19T07:42:13Z</time>
      </trkpt>
      <trkpt lat="43.3098417800" lon="-4.3419798184">
        <ele>205.38</ele>
        <time>2018-05-19T07:42:15Z</time>
      </trkpt>
      <trkpt lat="43.3099267725" lon="-4.3421094865">
        <ele>204.90</ele>
        <time>2018-05-19T07:42:17Z</time>
      </trkpt>
      <trkpt lat="43.3099960070" lon="-4.3422337901">
        <ele>204.42</ele>
        <time>2018-05-19T07:42:19Z</time>
      </trkpt>
      <trkpt lat="43.3100476395" lon="-4.3424000032">
        <ele>203.46</ele>
        <time>2018-05-19T07:42:21Z</time>
      </trkpt>
      <trkpt lat="43.3100795746" lon="-4.3425856624">
        <ele>201.53</ele>
        <time>2018-05-19T07:42:23Z</time>
      </trkpt>
      <trkpt lat="43.3101300336" lon="-4.3427856546">
        <ele>200.09</ele>
        <time>2018-05-19T07:42:25Z</time>
      </trkpt>
      <trkpt lat="43.3101971727" lon="-4.3429691344">
        <ele>197.69</ele>
        <time>2018-05-19T07:42:27Z</time>
      </trkpt>
      <trkpt lat="43.3102777228" lon="-4.3431117944">
        <ele>198.17</ele>
        <time>2018-05-19T07:42:29Z</time>
      </trkpt>
      <trkpt lat="43.3103797305" lon="-4.3431748264">
        <ele>197.21</ele>
        <time>2018-05-19T07:42:31Z</time>
      </trkpt>
      <trkpt lat="43.3105145115" lon="-4.3431707192">
        <ele>197.21</ele>
        <time>2018-05-19T07:42:33Z</time>
      </trkpt>
      <trkpt lat="43.3106123284" lon="-4.3432042468">
        <ele>196.73</ele>
        <time>2018-05-19T07:42:35Z</time>
      </trkpt>
      <trkpt lat="43.3106894419" lon="-4.3433064222">
        <ele>195.77</ele>
        <time>2018-05-19T07:42:37Z</time>
      </trkpt>
      <trkpt lat="43.3107116539" lon="-4.3434584700">
        <ele>193.84</ele>
        <time>2018-05-19T07:42:39Z</time>
      </trkpt>
      <trkpt lat="43.3107117377" lon="-4.3436384294">
        <ele>191.44</ele>
        <time>2018-05-19T07:42:41Z</time>
      </trkpt>
      <trkpt lat="43.3107021824" lon="-4.3438314646">
        <ele>189.04</ele>
        <time>2018-05-19T07:42:43Z</time>
      </trkpt>
      <trkpt lat="43.3107073791" lon="-4.3440421019">
        <ele>186.15</ele>
        <time>2018-05-19T07:42:45Z</time>
      </trkpt>
      <trkpt lat="43.3107154258" lon="-4.3442102429">
        <ele>183.27</ele>
        <time>2018-05-19T07:42:47Z</time>
      </trkpt>
      <trkpt lat="43.3107544016" lon="-4.3443789706">
        <ele>181.83</ele>
        <time>2018-05-19T07:42:50Z</time>
      </trkpt>
      <trkpt lat="43.3108452614" lon="-4.3444481213">
        <ele>178.46</ele>
        <time>2018-05-19T07:42:52Z</time>
      </trkpt>
      <trkpt lat="43.3109691460" lon="-4.3444710039">
        <ele>176.06</ele>
        <time>2018-05-19T07:42:54Z</time>
      </trkpt>
      <trkpt lat="43.3111060224" lon="-4.3444905337">
        <ele>172.69</ele>
        <time>2018-05-19T07:42:56Z</time>
      </trkpt>
      <trkpt lat="43.3112496883" lon="-4.3445668090">
        <ele>170.29</ele>
        <time>2018-05-19T07:42:58Z</time>
      </trkpt>
      <trkpt lat="43.3113427274" lon="-4.3446881790">
        <ele>169.81</ele>
        <time>2018-05-19T07:43:00Z</time>
      </trkpt>
      <trkpt lat="43.3114410471" lon="-4.3448051065">
        <ele>167.89</ele>
        <time>2018-05-19T07:43:02Z</time>
      </trkpt>
      <trkpt lat="43.3115566336" lon="-4.3448361196">
        <ele>165.96</ele>
        <time>2018-05-19T07:43:04Z</time>
      </trkpt>
      <trkpt lat="43.3116878103" lon="-4.3448035978">
        <ele>165.48</ele>
        <time>2018-05-19T07:43:06Z</time>
      </trkpt>
      <trkpt lat="43.3118336555" lon="-4.3448182661">
        <ele>164.04</ele>
        <time>2018-05-19T07:43:08Z</time>
      </trkpt>
      <trkpt lat="43.3119914867" lon="-4.3448269833">
        <ele>162.12</ele>
        <time>2018-05-19T07:43:10Z</time>
      </trkpt>
      <trkpt lat="43.3121364098" lon="-4.3447505403">
        <ele>160.20</ele>
        <time>2018-05-19T07:43:12Z</time>
      </trkpt>
      <trkpt lat="43.3122699335" lon="-4.3446221296">
        <ele>159.72</ele>
        <time>2018-05-19T07:43:14Z</time>
      </trkpt>
      <trkpt lat="43.3123680018" lon="-4.3445938826">
        <ele>159.72</ele>
        <time>2018-05-19T07:43:16Z</time>
      </trkpt>
      <trkpt lat="43.3124589454" lon="-4.3446931243">
        <ele>157.79</ele>
        <time>2018-05-19T07:43:18Z</time>
      </trkpt>
      <trkpt lat="43.3125101589" lon="-4.3448705692">
        <ele>155.87</ele>
        <time>2018-05-19T07:43:20Z</time>
      </trkpt>
      <trkpt lat="43.3125235699" lon="-4.3450584915">
        <ele>154.91</ele>
        <time>2018-05-19T07:43:22Z</time>
      </trkpt>
      <trkpt lat="43.3125275932" lon="-4.3452273030">
        <ele>153.47</ele>
        <time>2018-05-19T07:43:24Z</time>
      </trkpt>
      <trkpt lat="43.3125688322" lon="-4.3453863915">
        <ele>151.06</ele>
        <time>2018-05-19T07:43:26Z</time>
      </trkpt>
      <trkpt lat="43.3126480412" lon="-4.3455044087">
        <ele>147.70</ele>
        <time>2018-05-19T07:43:28Z</time>
      </trkpt>
      <trkpt lat="43.3127859235" lon="-4.3456374295">
        <ele>143.85</ele>
        <time>2018-05-19T07:43:30Z</time>
      </trkpt>
      <trkpt lat="43.3129339479" lon="-4.3457204103">
        <ele>140.97</ele>
        <time>2018-05-19T07:43:32Z</time>
      </trkpt>
      <trkpt lat="43.3130845707" lon="-4.3457783293">
        <ele>139.05</ele>
        <time>2018-05-19T07:43:34Z</time>
      </trkpt>
      <trkpt lat="43.3132273145" lon="-4.3458762299">
        <ele>135.68</ele>
        <time>2018-05-19T07:43:36Z</time>
      </trkpt>
      <trkpt lat="43.3133787755" lon="-4.3459774833">
        <ele>131.36</ele>
        <time>2018-05-19T07:43:38Z</time>
      </trkpt>
      <trkpt lat="43.3135417197" lon="-4.3460074067">
        <ele>130.40</ele>
        <time>2018-05-19T07:43:40Z</time>
      </trkpt>
      <trkpt lat="43.3136614133" lon="-4.3459548522">
        <ele>130.40</ele>
        <time>2018-05-19T07:43:42Z</time>
      </trkpt>
      <trkpt lat="43.3137961105" lon="-4.3458884675">
        <ele>130.40</ele>
        <time>2018-05-19T07:43:44Z</time>
      </trkpt>
      <trkpt lat="43.3139301371" lon="-4.3459071591">
        <ele>128.47</ele>
        <time>2018-05-19T07:43:46Z</time>
      </trkpt>
      <trkpt lat="43.3140606433" lon="-4.3459924031">
        <ele>127.99</ele>
        <time>2018-05-19T07:43:48Z</time>
      </trkpt>
      <trkpt lat="43.3141810913" lon="-4.3461074028">
        <ele>127.99</ele>
        <time>2018-05-19T07:43:50Z</time>
      </trkpt>
      <trkpt lat="43.3143101726" lon="-4.3462426867">
        <ele>127.99</ele>
        <time>2018-05-19T07:43:52Z</time>
      </trkpt>
      <trkpt lat="43.3144237474" lon="-4.3463579379">
        <ele>127.51</ele>
        <time>2018-05-19T07:43:54Z</time>
      </trkpt>
      <trkpt lat="43.3145351429" lon="-4.3464893661">
        <ele>127.51</ele>
        <time>2018-05-19T07:43:56Z</time>
      </trkpt>
      <trkpt lat="43.3146122564" lon="-4.3466563337">
        <ele>127.51</ele>
        <time>2018-05-19T07:43:58Z</time>
      </trkpt>
      <trkpt lat="43.3146378212" lon="-4.3468637858">
        <ele>125.59</ele>
        <time>2018-05-19T07:44:00Z</time>
      </trkpt>
      <trkpt lat="43.3146126755" lon="-4.3470920250">
        <ele>123.67</ele>
        <time>2018-05-19T07:44:02Z</time>
      </trkpt>
      <trkpt lat="43.3146045450" lon="-4.3472141493">
        <ele>122.71</ele>
        <time>2018-05-19T07:44:03Z</time>
      </trkpt>
      <trkpt lat="43.3146100771" lon="-4.3473476730">
        <ele>121.74</ele>
        <time>2018-05-19T07:44:04Z</time>
      </trkpt>
      <trkpt lat="43.3146278467" lon="-4.3474905845">
        <ele>120.30</ele>
        <time>2018-05-19T07:44:05Z</time>
      </trkpt>
      <trkpt lat="43.3146553393" lon="-4.3476213422">
        <ele>119.82</ele>
        <time>2018-05-19T07:44:06Z</time>
      </trkpt>
      <trkpt lat="43.3147042058" lon="-4.3478575442">
        <ele>118.86</ele>
        <time>2018-05-19T07:44:08Z</time>
      </trkpt>
      <trkpt lat="43.3147243224" lon="-4.3479787465">
        <ele>118.38</ele>
        <time>2018-05-19T07:44:09Z</time>
      </trkpt>
      <trkpt lat="43.3147359733" lon="-4.3481115997">
        <ele>117.42</ele>
        <time>2018-05-19T07:44:10Z</time>
      </trkpt>
      <trkpt lat="43.3147394098" lon="-4.3483441975">
        <ele>117.42</ele>
        <time>2018-05-19T07:44:12Z</time>
      </trkpt>
      <trkpt lat="43.3147455286" lon="-4.3485513981">
        <ele>116.94</ele>
        <time>2018-05-19T07:44:14Z</time>
      </trkpt>
      <trkpt lat="43.3147926349" lon="-4.3487339560">
        <ele>115.01</ele>
        <time>2018-05-19T07:44:16Z</time>
      </trkpt>
      <trkpt lat="43.3148244862" lon="-4.3489332777">
        <ele>114.05</ele>
        <time>2018-05-19T07:44:18Z</time>
      </trkpt>
      <trkpt lat="43.3148259111" lon="-4.3490799610">
        <ele>113.09</ele>
        <time>2018-05-19T07:44:20Z</time>
      </trkpt>
      <trkpt lat="43.3148483746" lon="-4.3492451683">
        <ele>111.17</ele>
        <time>2018-05-19T07:44:22Z</time>
      </trkpt>
      <trkpt lat="43.3149145078" lon="-4.3493995629">
        <ele>109.25</ele>
        <time>2018-05-19T07:44:24Z</time>
      </trkpt>
      <trkpt lat="43.3150180243" lon="-4.3495272193">
        <ele>108.29</ele>
        <time>2018-05-19T07:44:26Z</time>
      </trkpt>
      <trkpt lat="43.3151279110" lon="-4.3496397045">
        <ele>108.29</ele>
        <time>2018-05-19T07:44:28Z</time>
      </trkpt>
      <trkpt lat="43.3152398095" lon="-4.3497237749">
        <ele>107.32</ele>
        <time>2018-05-19T07:44:30Z</time>
      </trkpt>
      <trkpt lat="43.3153196052" lon="-4.3497933447">
        <ele>105.88</ele>
        <time>2018-05-19T07:44:32Z</time>
      </trkpt>
      <trkpt lat="43.3154252172" lon="-4.3498704582">
        <ele>103.96</ele>
        <time>2018-05-19T07:44:35Z</time>
      </trkpt>
      <trkpt lat="43.3154940326" lon="-4.3497659359">
        <ele>101.08</ele>
        <time>2018-05-19T07:44:38Z</time>
      </trkpt>
      <trkpt lat="43.3155172504" lon="-4.3496056739">
        <ele>97.71</ele>
        <time>2018-05-19T07:44:40Z</time>
      </trkpt>
      <trkpt lat="43.3155777678" lon="-4.3494066037">
        <ele>94.35</ele>
        <time>2018-05-19T07:44:42Z</time>
      </trkpt>
      <trkpt lat="43.3156571444" lon="-4.3492297456">
        <ele>90.50</ele>
        <time>2018-05-19T07:44:44Z</time>
      </trkpt>
      <trkpt lat="43.3157432266" lon="-4.3490778655">
        <ele>88.10</ele>
        <time>2018-05-19T07:44:46Z</time>
      </trkpt>
      <trkpt lat="43.3158333320" lon="-4.3489343673">
        <ele>85.21</ele>
        <time>2018-05-19T07:44:48Z</time>
      </trkpt>
      <trkpt lat="43.3159137983" lon="-4.3487701658">
        <ele>81.85</ele>
        <time>2018-05-19T07:44:50Z</time>
      </trkpt>
      <trkpt lat="43.3159803506" lon="-4.3486263324">
        <ele>79.45</ele>
        <time>2018-05-19T07:44:52Z</time>
      </trkpt>
      <trkpt lat="43.3160842862" lon="-4.3484778889">
        <ele>76.08</ele>
        <time>2018-05-19T07:44:54Z</time>
      </trkpt>
      <trkpt lat="43.3161863778" lon="-4.3483534176">
        <ele>74.64</ele>
        <time>2018-05-19T07:44:56Z</time>
      </trkpt>
      <trkpt lat="43.3162788302" lon="-4.3482640665">
        <ele>74.16</ele>
        <time>2018-05-19T07:44:58Z</time>
      </trkpt>
      <trkpt lat="43.3163970988" lon="-4.3482505716">
        <ele>70.79</ele>
        <time>2018-05-19T07:45:00Z</time>
      </trkpt>
      <trkpt lat="43.3165309578" lon="-4.3482891284">
        <ele>68.39</ele>
        <time>2018-05-19T07:45:02Z</time>
      </trkpt>
      <trkpt lat="43.3166562673" lon="-4.3483633921">
        <ele>66.47</ele>
        <time>2018-05-19T07:45:04Z</time>
      </trkpt>
      <trkpt lat="43.3167388290" lon="-4.3484595325">
        <ele>65.51</ele>
        <time>2018-05-19T07:45:06Z</time>
      </trkpt>
      <trkpt lat="43.3167717699" lon="-4.3486292660">
        <ele>63.58</ele>
        <time>2018-05-19T07:45:08Z</time>
      </trkpt>
      <trkpt lat="43.3167775534" lon="-4.3488348741">
        <ele>63.58</ele>
        <time>2018-05-19T07:45:10Z</time>
      </trkpt>
      <trkpt lat="43.3167714346" lon="-4.3490088824">
        <ele>63.58</ele>
        <time>2018-05-19T07:45:12Z</time>
      </trkpt>
      <trkpt lat="43.3167522401" lon="-4.3491359521">
        <ele>65.51</ele>
        <time>2018-05-19T07:45:14Z</time>
      </trkpt>
      <trkpt lat="43.3167286031" lon="-4.3492683861">
        <ele>65.99</ele>
        <time>2018-05-19T07:45:17Z</time>
      </trkpt>
      <trkpt lat="43.3167005237" lon="-4.3494483456">
        <ele>66.47</ele>
        <time>2018-05-19T07:45:20Z</time>
      </trkpt>
      <trkpt lat="43.3167011105" lon="-4.3495902512">
        <ele>66.47</ele>
        <time>2018-05-19T07:45:22Z</time>
      </trkpt>
      <trkpt lat="43.3167310338" lon="-4.3497134652">
        <ele>66.47</ele>
        <time>2018-05-19T07:45:24Z</time>
      </trkpt>
      <trkpt lat="43.3167952392" lon="-4.3498060852">
        <ele>66.47</ele>
        <time>2018-05-19T07:45:26Z</time>
      </trkpt>
      <trkpt lat="43.3168653119" lon="-4.3499033991">
        <ele>67.43</ele>
        <time>2018-05-19T07:45:28Z</time>
      </trkpt>
      <trkpt lat="43.3169405814" lon="-4.3500129506">
        <ele>68.39</ele>
        <time>2018-05-19T07:45:31Z</time>
      </trkpt>
      <trkpt lat="43.3170026075" lon="-4.3501370866">
        <ele>69.35</ele>
        <time>2018-05-19T07:45:35Z</time>
      </trkpt>
      <trkpt lat="43.3170171920" lon="-4.3502935767">
        <ele>69.35</ele>
        <time>2018-05-19T07:45:39Z</time>
      </trkpt>
      <trkpt lat="43.3170758653" lon="-4.3503958359">
        <ele>69.83</ele>
        <time>2018-05-19T07:45:43Z</time>
      </trkpt>
      <trkpt lat="43.3170556650" lon="-4.3504814990">
        <ele>70.79</ele>
        <time>2018-05-19T07:47:56Z</time>
      </trkpt>
      <trkpt lat="43.3171124943" lon="-4.3506377377">
        <ele>68.39</ele>
        <time>2018-05-19T07:48:00Z</time>
      </trkpt>
      <trkpt lat="43.3172374684" lon="-4.3507363927">
        <ele>65.03</ele>
        <time>2018-05-19T07:48:03Z</time>
      </trkpt>
      <trkpt lat="43.3174029272" lon="-4.3507095706">
        <ele>61.66</ele>
        <time>2018-05-19T07:48:05Z</time>
      </trkpt>
      <trkpt lat="43.3175577410" lon="-4.3506755400">
        <ele>60.70</ele>
        <time>2018-05-19T07:48:07Z</time>
      </trkpt>
      <trkpt lat="43.3176434040" lon="-4.3506738637">
        <ele>60.70</ele>
        <time>2018-05-19T07:48:08Z</time>
      </trkpt>
      <trkpt lat="43.3178186696" lon="-4.3507156055">
        <ele>60.22</ele>
        <time>2018-05-19T07:48:10Z</time>
      </trkpt>
      <trkpt lat="43.3179091103" lon="-4.3507406674">
        <ele>59.26</ele>
        <time>2018-05-19T07:48:11Z</time>
      </trkpt>
      <trkpt lat="43.3180660196" lon="-4.3507259991">
        <ele>58.30</ele>
        <time>2018-05-19T07:48:13Z</time>
      </trkpt>
      <trkpt lat="43.3182321489" lon="-4.3506698404">
        <ele>57.82</ele>
        <time>2018-05-19T07:48:15Z</time>
      </trkpt>
      <trkpt lat="43.3183198236" lon="-4.3506482150">
        <ele>56.37</ele>
        <time>2018-05-19T07:48:16Z</time>
      </trkpt>
      <trkpt lat="43.3184274472" lon="-4.3506229855">
        <ele>54.93</ele>
        <time>2018-05-19T07:48:17Z</time>
      </trkpt>
      <trkpt lat="43.3185313828" lon="-4.3505923077">
        <ele>53.49</ele>
        <time>2018-05-19T07:48:18Z</time>
      </trkpt>
      <trkpt lat="43.3186219074" lon="-4.3505569361">
        <ele>52.53</ele>
        <time>2018-05-19T07:48:19Z</time>
      </trkpt>
      <trkpt lat="43.3187962510" lon="-4.3504894618">
        <ele>50.61</ele>
        <time>2018-05-19T07:48:21Z</time>
      </trkpt>
      <trkpt lat="43.3188935649" lon="-4.3504624721">
        <ele>49.65</ele>
        <time>2018-05-19T07:48:22Z</time>
      </trkpt>
      <trkpt lat="43.3189947344" lon="-4.3504431099">
        <ele>47.72</ele>
        <time>2018-05-19T07:48:23Z</time>
      </trkpt>
      <trkpt lat="43.3190976642" lon="-4.3504279386">
        <ele>46.76</ele>
        <time>2018-05-19T07:48:24Z</time>
      </trkpt>
      <trkpt lat="43.3191888593" lon="-4.3504110072">
        <ele>46.76</ele>
        <time>2018-05-19T07:48:25Z</time>
      </trkpt>
      <trkpt lat="43.3193450142" lon="-4.3503806647">
        <ele>45.80</ele>
        <time>2018-05-19T07:48:27Z</time>
      </trkpt>
      <trkpt lat="43.3194507938" lon="-4.3503601290">
        <ele>45.80</ele>
        <time>2018-05-19T07:48:29Z</time>
      </trkpt>
      <trkpt lat="43.3195462637" lon="-4.3503771443">
        <ele>46.76</ele>
        <time>2018-05-19T07:48:33Z</time>
      </trkpt>
      <trkpt lat="43.3195771929" lon="-4.3504896294">
        <ele>47.24</ele>
        <time>2018-05-19T07:48:45Z</time>
      </trkpt>
      <trkpt lat="43.3195578307" lon="-4.3506291043">
        <ele>47.24</ele>
        <time>2018-05-19T07:48:48Z</time>
      </trkpt>
      <trkpt lat="43.3195374627" lon="-4.3507529050">
        <ele>47.24</ele>
        <time>2018-05-19T07:48:50Z</time>
      </trkpt>
      <trkpt lat="43.3195155859" lon="-4.3508816510">
        <ele>47.24</ele>
        <time>2018-05-19T07:48:52Z</time>
      </trkpt>
      <trkpt lat="43.3194944635" lon="-4.3510238081">
        <ele>46.28</ele>
        <time>2018-05-19T07:48:54Z</time>
      </trkpt>
      <trkpt lat="43.3194737602" lon="-4.3511582538">
        <ele>46.28</ele>
        <time>2018-05-19T07:48:56Z</time>
      </trkpt>
      <trkpt lat="43.3194410708" lon="-4.3513006624">
        <ele>46.28</ele>
        <time>2018-05-19T07:48:58Z</time>
      </trkpt>
      <trkpt lat="43.3194457646" lon="-4.3514385447">
        <ele>45.80</ele>
        <time>2018-05-19T07:49:01Z</time>
      </trkpt>
      <trkpt lat="43.3194392268" lon="-4.3515825458">
        <ele>45.80</ele>
        <time>2018-05-19T07:49:03Z</time>
      </trkpt>
      <trkpt lat="43.3193337824" lon="-4.3516362738">
        <ele>45.80</ele>
        <time>2018-05-19T07:49:06Z</time>
      </trkpt>
      <trkpt lat="43.3192366362" lon="-4.3516717292">
        <ele>45.32</ele>
        <time>2018-05-19T07:49:08Z</time>
      </trkpt>
      <trkpt lat="43.3191363886" lon="-4.3517309055">
        <ele>45.32</ele>
        <time>2018-05-19T07:49:10Z</time>
      </trkpt>
      <trkpt lat="43.3190461155" lon="-4.3517976254">
        <ele>45.32</ele>
        <time>2018-05-19T07:49:12Z</time>
      </trkpt>
      <trkpt lat="43.3189611230" lon="-4.3518654350">
        <ele>45.32</ele>
        <time>2018-05-19T07:49:14Z</time>
      </trkpt>
      <trkpt lat="43.3188993484" lon="-4.3518806063">
        <ele>46.76</ele>
        <time>2018-05-19T07:51:15Z</time>
      </trkpt>
      <trkpt lat="43.3189058863" lon="-4.3518948555">
        <ele>46.76</ele>
        <time>2018-05-19T07:55:32Z</time>
      </trkpt>
      <trkpt lat="43.3189049643" lon="-4.3518921733">
        <ele>47.24</ele>
        <time>2018-05-19T07:58:02Z</time>
      </trkpt>
      <trkpt lat="43.3188911341" lon="-4.3518927600">
        <ele>47.24</ele>
        <time>2018-05-19T08:02:38Z</time>
      </trkpt>
      <trkpt lat="43.3188410942" lon="-4.3518347573">
        <ele>47.24</ele>
        <time>2018-05-19T08:04:05Z</time>
      </trkpt>
      <trkpt lat="43.3187315427" lon="-4.3518211786">
        <ele>47.24</ele>
        <time>2018-05-19T08:04:09Z</time>
      </trkpt>
      <trkpt lat="43.3186219074" lon="-4.3518231064">
        <ele>48.20</ele>
        <time>2018-05-19T08:04:13Z</time>
      </trkpt>
      <trkpt lat="43.3185148705" lon="-4.3518143054">
        <ele>48.20</ele>
        <time>2018-05-19T08:04:18Z</time>
      </trkpt>
      <trkpt lat="43.3184253518" lon="-4.3518026546">
        <ele>48.68</ele>
        <time>2018-05-19T08:04:23Z</time>
      </trkpt>
      <trkpt lat="43.3183727134" lon="-4.3518239446">
        <ele>49.16</ele>
        <time>2018-05-19T08:05:02Z</time>
      </trkpt>
      <trkpt lat="43.3183223382" lon="-4.3517463282">
        <ele>49.65</ele>
        <time>2018-05-19T08:05:51Z</time>
      </trkpt>
      <trkpt lat="43.3182474039" lon="-4.3518165685">
        <ele>50.13</ele>
        <time>2018-05-19T08:05:55Z</time>
      </trkpt>
      <trkpt lat="43.3181831986" lon="-4.3519200012">
        <ele>52.05</ele>
        <time>2018-05-19T08:06:01Z</time>
      </trkpt>
      <trkpt lat="43.3181071747" lon="-4.3520030659">
        <ele>53.01</ele>
        <time>2018-05-19T08:06:06Z</time>
      </trkpt>
      <trkpt lat="43.3180339169" lon="-4.3520879745">
        <ele>53.97</ele>
        <time>2018-05-19T08:06:11Z</time>
      </trkpt>
      <trkpt lat="43.3179797698" lon="-4.3521918263">
        <ele>55.41</ele>
        <time>2018-05-19T08:06:16Z</time>
      </trkpt>
      <trkpt lat="43.3179659396" lon="-4.3523246795">
        <ele>57.34</ele>
        <time>2018-05-19T08:06:22Z</time>
      </trkpt>
      <trkpt lat="43.3179620001" lon="-4.3523948360">
        <ele>58.78</ele>
        <time>2018-05-19T08:07:22Z</time>
      </trkpt>
      <trkpt lat="43.3179251198" lon="-4.3524349015">
        <ele>58.78</ele>
        <time>2018-05-19T08:09:12Z</time>
      </trkpt>
      <trkpt lat="43.3179197554" lon="-4.3525577802">
        <ele>61.18</ele>
        <time>2018-05-19T08:09:18Z</time>
      </trkpt>
      <trkpt lat="43.3179023210" lon="-4.3526943214">
        <ele>63.10</ele>
        <time>2018-05-19T08:09:25Z</time>
      </trkpt>
      <trkpt lat="43.3178672846" lon="-4.3528112490">
        <ele>65.03</ele>
        <time>2018-05-19T08:09:32Z</time>
      </trkpt>
      <trkpt lat="43.3178016543" lon="-4.3528954033">
        <ele>66.95</ele>
        <time>2018-05-19T08:09:39Z</time>
      </trkpt>
      <trkpt lat="43.3177325036" lon="-4.3529997580">
        <ele>69.35</ele>
        <time>2018-05-19T08:09:46Z</time>
      </trkpt>
      <trkpt lat="43.3176928572" lon="-4.3531374726">
        <ele>70.31</ele>
        <time>2018-05-19T08:09:52Z</time>
      </trkpt>
      <trkpt lat="43.3176780213" lon="-4.3532828987">
        <ele>70.31</ele>
        <time>2018-05-19T08:09:58Z</time>
      </trkpt>
      <trkpt lat="43.3176736627" lon="-4.3534329347">
        <ele>70.31</ele>
        <time>2018-05-19T08:10:03Z</time>
      </trkpt>
      <trkpt lat="43.3176390454" lon="-4.3535643630">
        <ele>70.79</ele>
        <time>2018-05-19T08:10:09Z</time>
      </trkpt>
      <trkpt lat="43.3176195994" lon="-4.3536854815">
        <ele>71.27</ele>
        <time>2018-05-19T08:10:14Z</time>
      </trkpt>
      <trkpt lat="43.3176196832" lon="-4.3538095336">
        <ele>73.68</ele>
        <time>2018-05-19T08:10:20Z</time>
      </trkpt>
      <trkpt lat="43.3176030871" lon="-4.3539399561">
        <ele>77.04</ele>
        <time>2018-05-19T08:10:27Z</time>
      </trkpt>
      <trkpt lat="43.3175565675" lon="-4.3540666066">
        <ele>79.93</ele>
        <time>2018-05-19T08:10:34Z</time>
      </trkpt>
      <trkpt lat="43.3175243810" lon="-4.3541990407">
        <ele>81.85</ele>
        <time>2018-05-19T08:10:41Z</time>
      </trkpt>
      <trkpt lat="43.3174879197" lon="-4.3543255236">
        <ele>83.77</ele>
        <time>2018-05-19T08:10:48Z</time>
      </trkpt>
      <trkpt lat="43.3174527157" lon="-4.3544463068">
        <ele>86.18</ele>
        <time>2018-05-19T08:10:55Z</time>
      </trkpt>
      <trkpt lat="43.3174254745" lon="-4.3545873743">
        <ele>88.10</ele>
        <time>2018-05-19T08:11:02Z</time>
      </trkpt>
      <trkpt lat="43.3173979819" lon="-4.3547197245">
        <ele>90.50</ele>
        <time>2018-05-19T08:11:10Z</time>
      </trkpt>
      <trkpt lat="43.3173542283" lon="-4.3548459560">
        <ele>92.42</ele>
        <time>2018-05-19T08:11:19Z</time>
      </trkpt>
      <trkpt lat="43.3173244726" lon="-4.3549833354">
        <ele>94.35</ele>
        <time>2018-05-19T08:11:27Z</time>
      </trkpt>
      <trkpt lat="43.3173005003" lon="-4.3551135063">
        <ele>96.27</ele>
        <time>2018-05-19T08:11:34Z</time>
      </trkpt>
      <trkpt lat="43.3172840718" lon="-4.3552616984">
        <ele>97.71</ele>
        <time>2018-05-19T08:11:40Z</time>
      </trkpt>
      <trkpt lat="43.3172744326" lon="-4.3553953897">
        <ele>98.19</ele>
        <time>2018-05-19T08:11:44Z</time>
      </trkpt>
      <trkpt lat="43.3172582556" lon="-4.3555362895">
        <ele>98.19</ele>
        <time>2018-05-19T08:11:48Z</time>
      </trkpt>
      <trkpt lat="43.3172325231" lon="-4.3556879181">
        <ele>99.15</ele>
        <time>2018-05-19T08:11:52Z</time>
      </trkpt>
      <trkpt lat="43.3171989955" lon="-4.3558425643">
        <ele>99.15</ele>
        <time>2018-05-19T08:11:56Z</time>
      </trkpt>
      <trkpt lat="43.3171569183" lon="-4.3559924327">
        <ele>99.63</ele>
        <time>2018-05-19T08:12:00Z</time>
      </trkpt>
      <trkpt lat="43.3170884382" lon="-4.3561314885">
        <ele>99.63</ele>
        <time>2018-05-19T08:12:04Z</time>
      </trkpt>
      <trkpt lat="43.3170481212" lon="-4.3562517688">
        <ele>100.11</ele>
        <time>2018-05-19T08:12:07Z</time>
      </trkpt>
      <trkpt lat="43.3170130849" lon="-4.3564062472">
        <ele>101.56</ele>
        <time>2018-05-19T08:12:11Z</time>
      </trkpt>
      <trkpt lat="43.3169912919" lon="-4.3565367535">
        <ele>102.04</ele>
        <time>2018-05-19T08:12:15Z</time>
      </trkpt>
      <trkpt lat="43.3169808984" lon="-4.3566983566">
        <ele>103.48</ele>
        <time>2018-05-19T08:12:20Z</time>
      </trkpt>
      <trkpt lat="43.3169670682" lon="-4.3568527512">
        <ele>104.92</ele>
        <time>2018-05-19T08:12:25Z</time>
      </trkpt>
      <trkpt lat="43.3169285115" lon="-4.3569964170">
        <ele>106.84</ele>
        <time>2018-05-19T08:12:31Z</time>
      </trkpt>
      <trkpt lat="43.3168676589" lon="-4.3571182899">
        <ele>109.25</ele>
        <time>2018-05-19T08:12:37Z</time>
      </trkpt>
      <trkpt lat="43.3168132603" lon="-4.3572340440">
        <ele>111.17</ele>
        <time>2018-05-19T08:12:43Z</time>
      </trkpt>
      <trkpt lat="43.3167766314" lon="-4.3573699985">
        <ele>112.61</ele>
        <time>2018-05-19T08:12:49Z</time>
      </trkpt>
      <trkpt lat="43.3167548385" lon="-4.3575028516">
        <ele>114.05</ele>
        <time>2018-05-19T08:12:54Z</time>
      </trkpt>
      <trkpt lat="43.3167357277" lon="-4.3576319329">
        <ele>115.50</ele>
        <time>2018-05-19T08:12:59Z</time>
      </trkpt>
      <trkpt lat="43.3167114202" lon="-4.3577613495">
        <ele>115.98</ele>
        <time>2018-05-19T08:13:04Z</time>
      </trkpt>
      <trkpt lat="43.3166835085" lon="-4.3579014950">
        <ele>117.90</ele>
        <time>2018-05-19T08:13:10Z</time>
      </trkpt>
      <trkpt lat="43.3166622184" lon="-4.3580378685">
        <ele>118.86</ele>
        <time>2018-05-19T08:13:16Z</time>
      </trkpt>
      <trkpt lat="43.3166260924" lon="-4.3581616692">
        <ele>120.78</ele>
        <time>2018-05-19T08:13:22Z</time>
      </trkpt>
      <trkpt lat="43.3165783156" lon="-4.3582839612">
        <ele>122.22</ele>
        <time>2018-05-19T08:13:28Z</time>
      </trkpt>
      <trkpt lat="43.3165404294" lon="-4.3584018108">
        <ele>123.67</ele>
        <time>2018-05-19T08:13:34Z</time>
      </trkpt>
      <trkpt lat="43.3165254258" lon="-4.3585440516">
        <ele>126.07</ele>
        <time>2018-05-19T08:13:41Z</time>
      </trkpt>
      <trkpt lat="43.3165046386" lon="-4.3586734682">
        <ele>127.99</ele>
        <time>2018-05-19T08:13:48Z</time>
      </trkpt>
      <trkpt lat="43.3164799120" lon="-4.3588180561">
        <ele>130.40</ele>
        <time>2018-05-19T08:13:56Z</time>
      </trkpt>
      <trkpt lat="43.3164624777" lon="-4.3589680921">
        <ele>132.80</ele>
        <time>2018-05-19T08:14:04Z</time>
      </trkpt>
      <trkpt lat="43.3164326381" lon="-4.3591177929">
        <ele>134.24</ele>
        <time>2018-05-19T08:14:12Z</time>
      </trkpt>
      <trkpt lat="43.3164050616" lon="-4.3592561781">
        <ele>136.16</ele>
        <time>2018-05-19T08:14:19Z</time>
      </trkpt>
      <trkpt lat="43.3163643256" lon="-4.3593884446">
        <ele>138.09</ele>
        <time>2018-05-19T08:14:26Z</time>
      </trkpt>
      <trkpt lat="43.3163392637" lon="-4.3595099822">
        <ele>140.49</ele>
        <time>2018-05-19T08:14:33Z</time>
      </trkpt>
      <trkpt lat="43.3163096756" lon="-4.3596380576">
        <ele>141.93</ele>
        <time>2018-05-19T08:14:41Z</time>
      </trkpt>
      <trkpt lat="43.3162906487" lon="-4.3597702403">
        <ele>143.85</ele>
        <time>2018-05-19T08:14:48Z</time>
      </trkpt>
      <trkpt lat="43.3162719570" lon="-4.3598954659">
        <ele>145.78</ele>
        <time>2018-05-19T08:14:55Z</time>
      </trkpt>
      <trkpt lat="43.3162515052" lon="-4.3600336835">
        <ele>147.70</ele>
        <time>2018-05-19T08:15:02Z</time>
      </trkpt>
      <trkpt lat="43.3162382618" lon="-4.3601698894">
        <ele>149.62</ele>
        <time>2018-05-19T08:15:09Z</time>
      </trkpt>
      <trkpt lat="43.3162229229" lon="-4.3603076041">
        <ele>151.54</ele>
        <time>2018-05-19T08:15:17Z</time>
      </trkpt>
      <trkpt lat="43.3162150439" lon="-4.3604479171">
        <ele>153.47</ele>
        <time>2018-05-19T08:15:25Z</time>
      </trkpt>
      <trkpt lat="43.3161944244" lon="-4.3605858833">
        <ele>154.91</ele>
        <time>2018-05-19T08:15:32Z</time>
      </trkpt>
      <trkpt lat="43.3161815163" lon="-4.3607154675">
        <ele>156.35</ele>
        <time>2018-05-19T08:15:39Z</time>
      </trkpt>
      <trkpt lat="43.3161679376" lon="-4.3608516734">
        <ele>157.79</ele>
        <time>2018-05-19T08:15:46Z</time>
      </trkpt>
      <trkpt lat="43.3161586337" lon="-4.3609979376">
        <ele>159.72</ele>
        <time>2018-05-19T08:15:53Z</time>
      </trkpt>
      <trkpt lat="43.3161533531" lon="-4.3611328024">
        <ele>161.64</ele>
        <time>2018-05-19T08:16:00Z</time>
      </trkpt>
      <trkpt lat="43.3161605615" lon="-4.3612656556">
        <ele>162.60</ele>
        <time>2018-05-19T08:16:07Z</time>
      </trkpt>
      <trkpt lat="43.3161760680" lon="-4.3614003528">
        <ele>164.52</ele>
        <time>2018-05-19T08:16:14Z</time>
      </trkpt>
      <trkpt lat="43.3161938377" lon="-4.3615390733">
        <ele>165.48</ele>
        <time>2018-05-19T08:16:22Z</time>
      </trkpt>
      <trkpt lat="43.3162020519" lon="-4.3616743572">
        <ele>166.93</ele>
        <time>2018-05-19T08:16:28Z</time>
      </trkpt>
      <trkpt lat="43.3162163850" lon="-4.3618040252">
        <ele>168.85</ele>
        <time>2018-05-19T08:16:34Z</time>
      </trkpt>
      <trkpt lat="43.3162376750" lon="-4.3619253114">
        <ele>171.25</ele>
        <time>2018-05-19T08:16:41Z</time>
      </trkpt>
      <trkpt lat="43.3162716217" lon="-4.3620580807">
        <ele>172.69</ele>
        <time>2018-05-19T08:16:49Z</time>
      </trkpt>
      <trkpt lat="43.3163008746" lon="-4.3621891737">
        <ele>175.10</ele>
        <time>2018-05-19T08:16:56Z</time>
      </trkpt>
      <trkpt lat="43.3163427841" lon="-4.3623176683">
        <ele>176.54</ele>
        <time>2018-05-19T08:17:03Z</time>
      </trkpt>
      <trkpt lat="43.3163722884" lon="-4.3624452408">
        <ele>178.46</ele>
        <time>2018-05-19T08:17:09Z</time>
      </trkpt>
      <trkpt lat="43.3164027985" lon="-4.3625896610">
        <ele>179.42</ele>
        <time>2018-05-19T08:17:15Z</time>
      </trkpt>
      <trkpt lat="43.3164302073" lon="-4.3627225142">
        <ele>180.87</ele>
        <time>2018-05-19T08:17:21Z</time>
      </trkpt>
      <trkpt lat="43.3164597116" lon="-4.3628598098">
        <ele>182.79</ele>
        <time>2018-05-19T08:17:28Z</time>
      </trkpt>
      <trkpt lat="43.3164867014" lon="-4.3629874662">
        <ele>184.71</ele>
        <time>2018-05-19T08:17:35Z</time>
      </trkpt>
      <trkpt lat="43.3165148646" lon="-4.3631247617">
        <ele>186.63</ele>
        <time>2018-05-19T08:17:42Z</time>
      </trkpt>
      <trkpt lat="43.3165348973" lon="-4.3632460479">
        <ele>188.08</ele>
        <time>2018-05-19T08:17:48Z</time>
      </trkpt>
      <trkpt lat="43.3165569417" lon="-4.3633721117">
        <ele>189.52</ele>
        <time>2018-05-19T08:17:54Z</time>
      </trkpt>
      <trkpt lat="43.3165830094" lon="-4.3635079823">
        <ele>191.44</ele>
        <time>2018-05-19T08:18:01Z</time>
      </trkpt>
      <trkpt lat="43.3166050538" lon="-4.3636347167">
        <ele>192.88</ele>
        <time>2018-05-19T08:18:07Z</time>
      </trkpt>
      <trkpt lat="43.3166115917" lon="-4.3637619540">
        <ele>193.84</ele>
        <time>2018-05-19T08:18:13Z</time>
      </trkpt>
      <trkpt lat="43.3166349772" lon="-4.3638911191">
        <ele>196.25</ele>
        <time>2018-05-19T08:18:20Z</time>
      </trkpt>
      <trkpt lat="43.3166614641" lon="-4.3640237208">
        <ele>197.21</ele>
        <time>2018-05-19T08:18:27Z</time>
      </trkpt>
      <trkpt lat="43.3166753780" lon="-4.3641591724">
        <ele>198.65</ele>
        <time>2018-05-19T08:18:33Z</time>
      </trkpt>
      <trkpt lat="43.3166848496" lon="-4.3643023353">
        <ele>200.09</ele>
        <time>2018-05-19T08:18:39Z</time>
      </trkpt>
      <trkpt lat="43.3166933153" lon="-4.3644346856">
        <ele>200.57</ele>
        <time>2018-05-19T08:18:44Z</time>
      </trkpt>
      <trkpt lat="43.3166976739" lon="-4.3645788543">
        <ele>201.05</ele>
        <time>2018-05-19T08:18:49Z</time>
      </trkpt>
      <trkpt lat="43.3166911360" lon="-4.3647215981">
        <ele>202.01</ele>
        <time>2018-05-19T08:18:55Z</time>
      </trkpt>
      <trkpt lat="43.3166884538" lon="-4.3648695387">
        <ele>203.46</ele>
        <time>2018-05-19T08:19:01Z</time>
      </trkpt>
      <trkpt lat="43.3167010266" lon="-4.3650163896">
        <ele>204.42</ele>
        <time>2018-05-19T08:19:07Z</time>
      </trkpt>
      <trkpt lat="43.3167172875" lon="-4.3651596364">
        <ele>206.34</ele>
        <time>2018-05-19T08:19:13Z</time>
      </trkpt>
      <trkpt lat="43.3167531621" lon="-4.3652865384">
        <ele>208.26</ele>
        <time>2018-05-19T08:19:20Z</time>
      </trkpt>
      <trkpt lat="43.3167827502" lon="-4.3654101714">
        <ele>209.70</ele>
        <time>2018-05-19T08:19:26Z</time>
      </trkpt>
      <trkpt lat="43.3168026991" lon="-4.3655355647">
        <ele>211.15</ele>
        <time>2018-05-19T08:19:32Z</time>
      </trkpt>
      <trkpt lat="43.3168198820" lon="-4.3656760454">
        <ele>213.07</ele>
        <time>2018-05-19T08:19:39Z</time>
      </trkpt>
      <trkpt lat="43.3168244082" lon="-4.3658254109">
        <ele>214.03</ele>
        <time>2018-05-19T08:19:46Z</time>
      </trkpt>
      <trkpt lat="43.3168374840" lon="-4.3659676518">
        <ele>214.99</ele>
        <time>2018-05-19T08:19:53Z</time>
      </trkpt>
      <trkpt lat="43.3168403339" lon="-4.3661051150">
        <ele>216.43</ele>
        <time>2018-05-19T08:20:00Z</time>
      </trkpt>
      <trkpt lat="43.3168488834" lon="-4.3662318494">
        <ele>218.84</ele>
        <time>2018-05-19T08:20:07Z</time>
      </trkpt>
      <trkpt lat="43.3168524876" lon="-4.3663698155">
        <ele>220.76</ele>
        <time>2018-05-19T08:20:15Z</time>
      </trkpt>
      <trkpt lat="43.3168550860" lon="-4.3665123079">
        <ele>222.68</ele>
        <time>2018-05-19T08:20:23Z</time>
      </trkpt>
      <trkpt lat="43.3168543316" lon="-4.3666449934">
        <ele>224.61</ele>
        <time>2018-05-19T08:20:30Z</time>
      </trkpt>
      <trkpt lat="43.3168527391" lon="-4.3667799421">
        <ele>225.57</ele>
        <time>2018-05-19T08:20:37Z</time>
      </trkpt>
      <trkpt lat="43.3168470394" lon="-4.3669192493">
        <ele>227.97</ele>
        <time>2018-05-19T08:20:46Z</time>
      </trkpt>
      <trkpt lat="43.3168548346" lon="-4.3670505937">
        <ele>230.37</ele>
        <time>2018-05-19T08:20:54Z</time>
      </trkpt>
      <trkpt lat="43.3168590255" lon="-4.3671903200">
        <ele>231.81</ele>
        <time>2018-05-19T08:21:01Z</time>
      </trkpt>
      <trkpt lat="43.3168576006" lon="-4.3673405237">
        <ele>232.78</ele>
        <time>2018-05-19T08:21:08Z</time>
      </trkpt>
      <trkpt lat="43.3168525714" lon="-4.3675076589">
        <ele>232.78</ele>
        <time>2018-05-19T08:21:14Z</time>
      </trkpt>
      <trkpt lat="43.3168431837" lon="-4.3676537555">
        <ele>232.78</ele>
        <time>2018-05-19T08:21:18Z</time>
      </trkpt>
      <trkpt lat="43.3168253303" lon="-4.3677921407">
        <ele>232.78</ele>
        <time>2018-05-19T08:21:22Z</time>
      </trkpt>
      <trkpt lat="43.3167699259" lon="-4.3679425959">
        <ele>232.78</ele>
        <time>2018-05-19T08:21:26Z</time>
      </trkpt>
      <trkpt lat="43.3167147730" lon="-4.3680786341">
        <ele>233.26</ele>
        <time>2018-05-19T08:21:30Z</time>
      </trkpt>
      <trkpt lat="43.3166882023" lon="-4.3682062905">
        <ele>234.22</ele>
        <time>2018-05-19T08:21:34Z</time>
      </trkpt>
      <trkpt lat="43.3166712709" lon="-4.3683563266">
        <ele>235.18</ele>
        <time>2018-05-19T08:21:39Z</time>
      </trkpt>
      <trkpt lat="43.3166566864" lon="-4.3684909400">
        <ele>236.14</ele>
        <time>2018-05-19T08:21:45Z</time>
      </trkpt>
      <trkpt lat="43.3166359831" lon="-4.3686240446">
        <ele>237.10</ele>
        <time>2018-05-19T08:21:51Z</time>
      </trkpt>
      <trkpt lat="43.3166220691" lon="-4.3687651120">
        <ele>238.06</ele>
        <time>2018-05-19T08:21:56Z</time>
      </trkpt>
      <trkpt lat="43.3166001923" lon="-4.3688912597">
        <ele>239.02</ele>
        <time>2018-05-19T08:22:01Z</time>
      </trkpt>
      <trkpt lat="43.3166002762" lon="-4.3690408766">
        <ele>239.02</ele>
        <time>2018-05-19T08:22:09Z</time>
      </trkpt>
      <trkpt lat="43.3166069817" lon="-4.3691757414">
        <ele>238.54</ele>
        <time>2018-05-19T08:22:14Z</time>
      </trkpt>
      <trkpt lat="43.3165838476" lon="-4.3693156354">
        <ele>239.02</ele>
        <time>2018-05-19T08:22:19Z</time>
      </trkpt>
      <trkpt lat="43.3165509906" lon="-4.3694657553">
        <ele>239.02</ele>
        <time>2018-05-19T08:22:24Z</time>
      </trkpt>
      <trkpt lat="43.3165152837" lon="-4.3696092535">
        <ele>240.47</ele>
        <time>2018-05-19T08:22:29Z</time>
      </trkpt>
      <trkpt lat="43.3164755534" lon="-4.3697406817">
        <ele>241.43</ele>
        <time>2018-05-19T08:22:35Z</time>
      </trkpt>
      <trkpt lat="43.3164323028" lon="-4.3698840961">
        <ele>241.91</ele>
        <time>2018-05-19T08:22:40Z</time>
      </trkpt>
      <trkpt lat="43.3164218254" lon="-4.3700391613">
        <ele>242.39</ele>
        <time>2018-05-19T08:22:45Z</time>
      </trkpt>
      <trkpt lat="43.3164131921" lon="-4.3701644707">
        <ele>243.35</ele>
        <time>2018-05-19T08:22:49Z</time>
      </trkpt>
      <trkpt lat="43.3163913153" lon="-4.3702909537">
        <ele>244.31</ele>
        <time>2018-05-19T08:22:54Z</time>
      </trkpt>
      <trkpt lat="43.3163723722" lon="-4.3704325240">
        <ele>244.79</ele>
        <time>2018-05-19T08:22:59Z</time>
      </trkpt>
      <trkpt lat="43.3163473941" lon="-4.3705857452">
        <ele>245.27</ele>
        <time>2018-05-19T08:23:04Z</time>
      </trkpt>
      <trkpt lat="43.3163154591" lon="-4.3707237951">
        <ele>245.75</ele>
        <time>2018-05-19T08:23:10Z</time>
      </trkpt>
      <trkpt lat="43.3162893075" lon="-4.3708601687">
        <ele>246.23</ele>
        <time>2018-05-19T08:23:15Z</time>
      </trkpt>
      <trkpt lat="43.3162561152" lon="-4.3710021582">
        <ele>246.72</ele>
        <time>2018-05-19T08:23:20Z</time>
      </trkpt>
      <trkpt lat="43.3162315562" lon="-4.3711255398">
        <ele>248.16</ele>
        <time>2018-05-19T08:23:25Z</time>
      </trkpt>
      <trkpt lat="43.3161951788" lon="-4.3712583091">
        <ele>249.12</ele>
        <time>2018-05-19T08:23:31Z</time>
      </trkpt>
      <trkpt lat="43.3161714580" lon="-4.3713948503">
        <ele>250.08</ele>
        <time>2018-05-19T08:23:37Z</time>
      </trkpt>
      <trkpt lat="43.3161361702" lon="-4.3715303857">
        <ele>251.52</ele>
        <time>2018-05-19T08:23:44Z</time>
      </trkpt>
      <trkpt lat="43.3161185682" lon="-4.3716809247">
        <ele>252.96</ele>
        <time>2018-05-19T08:23:51Z</time>
      </trkpt>
      <trkpt lat="43.3161007985" lon="-4.3718142807">
        <ele>254.41</ele>
        <time>2018-05-19T08:23:57Z</time>
      </trkpt>
      <trkpt lat="43.3160807658" lon="-4.3719696812">
        <ele>255.85</ele>
        <time>2018-05-19T08:24:04Z</time>
      </trkpt>
      <trkpt lat="43.3160683606" lon="-4.3721341342">
        <ele>257.29</ele>
        <time>2018-05-19T08:24:11Z</time>
      </trkpt>
      <trkpt lat="43.3160711266" lon="-4.3722766265">
        <ele>258.73</ele>
        <time>2018-05-19T08:24:17Z</time>
      </trkpt>
      <trkpt lat="43.3160611521" lon="-4.3724284228">
        <ele>260.17</ele>
        <time>2018-05-19T08:24:24Z</time>
      </trkpt>
      <trkpt lat="43.3160376828" lon="-4.3725663889">
        <ele>262.10</ele>
        <time>2018-05-19T08:24:31Z</time>
      </trkpt>
      <trkpt lat="43.3160154708" lon="-4.3727030978">
        <ele>264.02</ele>
        <time>2018-05-19T08:24:38Z</time>
      </trkpt>
      <trkpt lat="43.3160042390" lon="-4.3728369568">
        <ele>265.46</ele>
        <time>2018-05-19T08:24:44Z</time>
      </trkpt>
      <trkpt lat="43.3159918338" lon="-4.3729831371">
        <ele>266.90</ele>
        <time>2018-05-19T08:24:52Z</time>
      </trkpt>
      <trkpt lat="43.3159558754" lon="-4.3731185049">
        <ele>268.35</ele>
        <time>2018-05-19T08:24:59Z</time>
      </trkpt>
      <trkpt lat="43.3158804383" lon="-4.3732306547">
        <ele>270.27</ele>
        <time>2018-05-19T08:25:06Z</time>
      </trkpt>
      <trkpt lat="43.3158085216" lon="-4.3733493425">
        <ele>272.19</ele>
        <time>2018-05-19T08:25:13Z</time>
      </trkpt>
      <trkpt lat="43.3157561347" lon="-4.3734639231">
        <ele>273.63</ele>
        <time>2018-05-19T08:25:19Z</time>
      </trkpt>
      <trkpt lat="43.3157112915" lon="-4.3735891487">
        <ele>274.59</ele>
        <time>2018-05-19T08:25:25Z</time>
      </trkpt>
      <trkpt lat="43.3156708907" lon="-4.3737286236">
        <ele>276.04</ele>
        <time>2018-05-19T08:25:32Z</time>
      </trkpt>
      <trkpt lat="43.3156455774" lon="-4.3738565315">
        <ele>277.48</ele>
        <time>2018-05-19T08:25:39Z</time>
      </trkpt>
      <trkpt lat="43.3156319149" lon="-4.3739888817">
        <ele>278.92</ele>
        <time>2018-05-19T08:25:47Z</time>
      </trkpt>
      <trkpt lat="43.3155875746" lon="-4.3741166219">
        <ele>280.36</ele>
        <time>2018-05-19T08:25:54Z</time>
      </trkpt>
      <trkpt lat="43.3155136462" lon="-4.3742437754">
        <ele>281.80</ele>
        <time>2018-05-19T08:26:02Z</time>
      </trkpt>
      <trkpt lat="43.3154675458" lon="-4.3743959069">
        <ele>283.73</ele>
        <time>2018-05-19T08:26:10Z</time>
      </trkpt>
      <trkpt lat="43.3153892588" lon="-4.3745081406">
        <ele>285.65</ele>
        <time>2018-05-19T08:26:17Z</time>
      </trkpt>
      <trkpt lat="43.3153064456" lon="-4.3746148422">
        <ele>287.09</ele>
        <time>2018-05-19T08:26:23Z</time>
      </trkpt>
      <trkpt lat="43.3152370434" lon="-4.3747415766">
        <ele>289.01</ele>
        <time>2018-05-19T08:26:30Z</time>
      </trkpt>
      <trkpt lat="43.3151739277" lon="-4.3748616055">
        <ele>289.97</ele>
        <time>2018-05-19T08:26:36Z</time>
      </trkpt>
      <trkpt lat="43.3151313476" lon="-4.3750061933">
        <ele>292.38</ele>
        <time>2018-05-19T08:26:42Z</time>
      </trkpt>
      <trkpt lat="43.3151113987" lon="-4.3751469254">
        <ele>293.82</ele>
        <time>2018-05-19T08:26:49Z</time>
      </trkpt>
      <trkpt lat="43.3150827326" lon="-4.3752922677">
        <ele>295.26</ele>
        <time>2018-05-19T08:26:57Z</time>
      </trkpt>
      <trkpt lat="43.3150595985" lon="-4.3754455727">
        <ele>296.70</ele>
        <time>2018-05-19T08:27:04Z</time>
      </trkpt>
      <trkpt lat="43.3150252327" lon="-4.3755956087">
        <ele>298.15</ele>
        <time>2018-05-19T08:27:11Z</time>
      </trkpt>
      <trkpt lat="43.3149690740" lon="-4.3757278752">
        <ele>299.59</ele>
        <time>2018-05-19T08:27:18Z</time>
      </trkpt>
      <trkpt lat="43.3149137534" lon="-4.3758500833">
        <ele>301.51</ele>
        <time>2018-05-19T08:27:25Z</time>
      </trkpt>
      <trkpt lat="43.3148629591" lon="-4.3759791646">
        <ele>301.99</ele>
        <time>2018-05-19T08:27:31Z</time>
      </trkpt>
      <trkpt lat="43.3148406632" lon="-4.3761157058">
        <ele>303.43</ele>
        <time>2018-05-19T08:27:37Z</time>
      </trkpt>
      <trkpt lat="43.3147895336" lon="-4.3762395903">
        <ele>304.39</ele>
        <time>2018-05-19T08:27:43Z</time>
      </trkpt>
      <trkpt lat="43.3147326205" lon="-4.3763726950">
        <ele>305.36</ele>
        <time>2018-05-19T08:27:50Z</time>
      </trkpt>
      <trkpt lat="43.3146662358" lon="-4.3764844257">
        <ele>307.28</ele>
        <time>2018-05-19T08:27:56Z</time>
      </trkpt>
      <trkpt lat="43.3146024495" lon="-4.3765871041">
        <ele>308.24</ele>
        <time>2018-05-19T08:28:01Z</time>
      </trkpt>
      <trkpt lat="43.3145562652" lon="-4.3766968232">
        <ele>308.72</ele>
        <time>2018-05-19T08:28:06Z</time>
      </trkpt>
      <trkpt lat="43.3145215642" lon="-4.3768193666">
        <ele>309.68</ele>
        <time>2018-05-19T08:28:11Z</time>
      </trkpt>
      <trkpt lat="43.3144815825" lon="-4.3769319355">
        <ele>311.12</ele>
        <time>2018-05-19T08:28:16Z</time>
      </trkpt>
      <trkpt lat="43.3144566044" lon="-4.3770538922">
        <ele>312.09</ele>
        <time>2018-05-19T08:28:22Z</time>
      </trkpt>
      <trkpt lat="43.3144248370" lon="-4.3771828059">
        <ele>313.53</ele>
        <time>2018-05-19T08:28:29Z</time>
      </trkpt>
      <trkpt lat="43.3143939078" lon="-4.3773083668">
        <ele>314.97</ele>
        <time>2018-05-19T08:28:36Z</time>
      </trkpt>
      <trkpt lat="43.3143505733" lon="-4.3774423096">
        <ele>316.41</ele>
        <time>2018-05-19T08:28:43Z</time>
      </trkpt>
      <trkpt lat="43.3143275231" lon="-4.3775640149">
        <ele>317.85</ele>
        <time>2018-05-19T08:28:49Z</time>
      </trkpt>
      <trkpt lat="43.3143053111" lon="-4.3777157273">
        <ele>318.33</ele>
        <time>2018-05-19T08:28:55Z</time>
      </trkpt>
      <trkpt lat="43.3142979350" lon="-4.3778543640">
        <ele>319.30</ele>
        <time>2018-05-19T08:29:01Z</time>
      </trkpt>
      <trkpt lat="43.3142883796" lon="-4.3780055735">
        <ele>319.30</ele>
        <time>2018-05-19T08:29:07Z</time>
      </trkpt>
      <trkpt lat="43.3142500743" lon="-4.3781420309">
        <ele>318.81</ele>
        <time>2018-05-19T08:29:13Z</time>
      </trkpt>
      <trkpt lat="43.3141981903" lon="-4.3782588746">
        <ele>318.81</ele>
        <time>2018-05-19T08:29:17Z</time>
      </trkpt>
      <trkpt lat="43.3141351584" lon="-4.3783553503">
        <ele>318.81</ele>
        <time>2018-05-19T08:29:21Z</time>
      </trkpt>
      <trkpt lat="43.3140716236" lon="-4.3784911372">
        <ele>318.81</ele>
        <time>2018-05-19T08:29:25Z</time>
      </trkpt>
      <trkpt lat="43.3140041493" lon="-4.3786115851">
        <ele>318.81</ele>
        <time>2018-05-19T08:29:29Z</time>
      </trkpt>
      <trkpt lat="43.3139532711" lon="-4.3787269201">
        <ele>319.30</ele>
        <time>2018-05-19T08:29:33Z</time>
      </trkpt>
      <trkpt lat="43.3139238507" lon="-4.3788734358">
        <ele>320.26</ele>
        <time>2018-05-19T08:29:37Z</time>
      </trkpt>
      <trkpt lat="43.3139036503" lon="-4.3789957277">
        <ele>320.74</ele>
        <time>2018-05-19T08:29:41Z</time>
      </trkpt>
      <trkpt lat="43.3138813544" lon="-4.3791259825">
        <ele>321.22</ele>
        <time>2018-05-19T08:29:45Z</time>
      </trkpt>
      <trkpt lat="43.3138575498" lon="-4.3792655412">
        <ele>322.18</ele>
        <time>2018-05-19T08:29:49Z</time>
      </trkpt>
      <trkpt lat="43.3138351701" lon="-4.3793885037">
        <ele>322.66</ele>
        <time>2018-05-19T08:29:53Z</time>
      </trkpt>
      <trkpt lat="43.3137883991" lon="-4.3795133941">
        <ele>323.14</ele>
        <time>2018-05-19T08:29:58Z</time>
      </trkpt>
      <trkpt lat="43.3137234394" lon="-4.3796228617">
        <ele>323.62</ele>
        <time>2018-05-19T08:30:04Z</time>
      </trkpt>
      <trkpt lat="43.3136571385" lon="-4.3797511049">
        <ele>321.70</ele>
        <time>2018-05-19T08:30:07Z</time>
      </trkpt>
      <trkpt lat="43.3136039972" lon="-4.3798943516">
        <ele>320.74</ele>
        <time>2018-05-19T08:30:09Z</time>
      </trkpt>
      <trkpt lat="43.3135661110" lon="-4.3800314795">
        <ele>320.74</ele>
        <time>2018-05-19T08:30:11Z</time>
      </trkpt>
      <trkpt lat="43.3135360200" lon="-4.3801681045">
        <ele>319.78</ele>
        <time>2018-05-19T08:30:13Z</time>
      </trkpt>
      <trkpt lat="43.3134941105" lon="-4.3803120218">
        <ele>318.81</ele>
        <time>2018-05-19T08:30:16Z</time>
      </trkpt>
      <trkpt lat="43.3134542964" lon="-4.3804716971">
        <ele>318.33</ele>
        <time>2018-05-19T08:30:19Z</time>
      </trkpt>
      <trkpt lat="43.3134064358" lon="-4.3806237448">
        <ele>317.85</ele>
        <time>2018-05-19T08:30:22Z</time>
      </trkpt>
      <trkpt lat="43.3133529592" lon="-4.3807884492">
        <ele>317.37</ele>
        <time>2018-05-19T08:30:25Z</time>
      </trkpt>
      <trkpt lat="43.3132996503" lon="-4.3809627928">
        <ele>316.89</ele>
        <time>2018-05-19T08:30:28Z</time>
      </trkpt>
      <trkpt lat="43.3132424857" lon="-4.3810722604">
        <ele>316.41</ele>
        <time>2018-05-19T08:30:30Z</time>
      </trkpt>
      <trkpt lat="43.3131714072" lon="-4.3812165130">
        <ele>316.41</ele>
        <time>2018-05-19T08:30:33Z</time>
      </trkpt>
      <trkpt lat="43.3130974788" lon="-4.3812947161">
        <ele>314.97</ele>
        <time>2018-05-19T08:30:35Z</time>
      </trkpt>
      <trkpt lat="43.3129929565" lon="-4.3813636992">
        <ele>313.53</ele>
        <time>2018-05-19T08:30:37Z</time>
      </trkpt>
      <trkpt lat="43.3128735144" lon="-4.3814243842">
        <ele>312.57</ele>
        <time>2018-05-19T08:30:39Z</time>
      </trkpt>
      <trkpt lat="43.3127482049" lon="-4.3814877514">
        <ele>311.60</ele>
        <time>2018-05-19T08:30:41Z</time>
      </trkpt>
      <trkpt lat="43.3126486279" lon="-4.3815426528">
        <ele>311.12</ele>
        <time>2018-05-19T08:30:43Z</time>
      </trkpt>
      <trkpt lat="43.3125297725" lon="-4.3816036731">
        <ele>309.68</ele>
        <time>2018-05-19T08:30:45Z</time>
      </trkpt>
      <trkpt lat="43.3124034572" lon="-4.3816759251">
        <ele>307.76</ele>
        <time>2018-05-19T08:30:47Z</time>
      </trkpt>
      <trkpt lat="43.3122942410" lon="-4.3817912601">
        <ele>306.80</ele>
        <time>2018-05-19T08:30:49Z</time>
      </trkpt>
      <trkpt lat="43.3122106735" lon="-4.3819452357">
        <ele>305.84</ele>
        <time>2018-05-19T08:30:51Z</time>
      </trkpt>
      <trkpt lat="43.3121416066" lon="-4.3820832856">
        <ele>306.80</ele>
        <time>2018-05-19T08:30:53Z</time>
      </trkpt>
      <trkpt lat="43.3121058997" lon="-4.3822531868">
        <ele>307.28</ele>
        <time>2018-05-19T08:30:56Z</time>
      </trkpt>
      <trkpt lat="43.3120840229" lon="-4.3823686894">
        <ele>308.24</ele>
        <time>2018-05-19T08:30:58Z</time>
      </trkpt>
      <trkpt lat="43.3120539319" lon="-4.3825302087">
        <ele>309.20</ele>
        <time>2018-05-19T08:31:01Z</time>
      </trkpt>
      <trkpt lat="43.3120447956" lon="-4.3826649897">
        <ele>310.16</ele>
        <time>2018-05-19T08:31:04Z</time>
      </trkpt>
      <trkpt lat="43.3120413590" lon="-4.3828235753">
        <ele>311.60</ele>
        <time>2018-05-19T08:31:08Z</time>
      </trkpt>
      <trkpt lat="43.3120344859" lon="-4.3829691689">
        <ele>312.09</ele>
        <time>2018-05-19T08:31:12Z</time>
      </trkpt>
      <trkpt lat="43.3120260201" lon="-4.3831099011">
        <ele>313.05</ele>
        <time>2018-05-19T08:31:16Z</time>
      </trkpt>
      <trkpt lat="43.3120081667" lon="-4.3832363002">
        <ele>314.49</ele>
        <time>2018-05-19T08:31:20Z</time>
      </trkpt>
      <trkpt lat="43.3119961806" lon="-4.3833878450">
        <ele>315.45</ele>
        <time>2018-05-19T08:31:25Z</time>
      </trkpt>
      <trkpt lat="43.3119867090" lon="-4.3835319299">
        <ele>316.41</ele>
        <time>2018-05-19T08:31:30Z</time>
      </trkpt>
      <trkpt lat="43.3119794168" lon="-4.3836822174">
        <ele>316.89</ele>
        <time>2018-05-19T08:31:35Z</time>
      </trkpt>
      <trkpt lat="43.3119664248" lon="-4.3838240393">
        <ele>317.85</ele>
        <time>2018-05-19T08:31:40Z</time>
      </trkpt>
      <trkpt lat="43.3119576238" lon="-4.3839814514">
        <ele>318.81</ele>
        <time>2018-05-19T08:31:45Z</time>
      </trkpt>
      <trkpt lat="43.3119447995" lon="-4.3841276318">
        <ele>319.78</ele>
        <time>2018-05-19T08:31:49Z</time>
      </trkpt>
      <trkpt lat="43.3119308855" lon="-4.3842686992">
        <ele>321.22</ele>
        <time>2018-05-19T08:31:53Z</time>
      </trkpt>
      <trkpt lat="43.3119243477" lon="-4.3844121136">
        <ele>321.70</ele>
        <time>2018-05-19T08:31:57Z</time>
      </trkpt>
      <trkpt lat="43.3119122777" lon="-4.3845480680">
        <ele>322.66</ele>
        <time>2018-05-19T08:32:01Z</time>
      </trkpt>
      <trkpt lat="43.3119077515" lon="-4.3846891355">
        <ele>323.62</ele>
        <time>2018-05-19T08:32:05Z</time>
      </trkpt>
      <trkpt lat="43.3118987828" lon="-4.3848327175">
        <ele>324.10</ele>
        <time>2018-05-19T08:32:09Z</time>
      </trkpt>
      <trkpt lat="43.3118800074" lon="-4.3849861063">
        <ele>325.54</ele>
        <time>2018-05-19T08:32:14Z</time>
      </trkpt>
      <trkpt lat="43.3118630759" lon="-4.3851294369">
        <ele>326.50</ele>
        <time>2018-05-19T08:32:18Z</time>
      </trkpt>
      <trkpt lat="43.3118515089" lon="-4.3852663971">
        <ele>327.47</ele>
        <time>2018-05-19T08:32:22Z</time>
      </trkpt>
      <trkpt lat="43.3118344098" lon="-4.3854139186">
        <ele>327.95</ele>
        <time>2018-05-19T08:32:26Z</time>
      </trkpt>
      <trkpt lat="43.3118214179" lon="-4.3855611049">
        <ele>329.39</ele>
        <time>2018-05-19T08:32:30Z</time>
      </trkpt>
      <trkpt lat="43.3118089288" lon="-4.3857018370">
        <ele>329.87</ele>
        <time>2018-05-19T08:32:34Z</time>
      </trkpt>
      <trkpt lat="43.3117955178" lon="-4.3858402222">
        <ele>330.35</ele>
        <time>2018-05-19T08:32:38Z</time>
      </trkpt>
      <trkpt lat="43.3117794245" lon="-4.3859936949">
        <ele>331.31</ele>
        <time>2018-05-19T08:32:42Z</time>
      </trkpt>
      <trkpt lat="43.3117712103" lon="-4.3861295655">
        <ele>331.79</ele>
        <time>2018-05-19T08:32:46Z</time>
      </trkpt>
      <trkpt lat="43.3117641695" lon="-4.3862877320">
        <ele>332.75</ele>
        <time>2018-05-19T08:32:50Z</time>
      </trkpt>
      <trkpt lat="43.3117572125" lon="-4.3864237703">
        <ele>333.23</ele>
        <time>2018-05-19T08:32:53Z</time>
      </trkpt>
      <trkpt lat="43.3117543627" lon="-4.3865790032">
        <ele>333.23</ele>
        <time>2018-05-19T08:32:57Z</time>
      </trkpt>
      <trkpt lat="43.3117454778" lon="-4.3867081683">
        <ele>333.71</ele>
        <time>2018-05-19T08:33:00Z</time>
      </trkpt>
      <trkpt lat="43.3117334079" lon="-4.3868468050">
        <ele>334.20</ele>
        <time>2018-05-19T08:33:03Z</time>
      </trkpt>
      <trkpt lat="43.3117239363" lon="-4.3870155327">
        <ele>334.68</ele>
        <time>2018-05-19T08:33:07Z</time>
      </trkpt>
      <trkpt lat="43.3117194939" lon="-4.3871416803">
        <ele>335.16</ele>
        <time>2018-05-19T08:33:10Z</time>
      </trkpt>
      <trkpt lat="43.3117117826" lon="-4.3872627988">
        <ele>335.64</ele>
        <time>2018-05-19T08:33:13Z</time>
      </trkpt>
      <trkpt lat="43.3117039036" lon="-4.3874285091">
        <ele>336.12</ele>
        <time>2018-05-19T08:33:17Z</time>
      </trkpt>
      <trkpt lat="43.3116971981" lon="-4.3875652179">
        <ele>336.12</ele>
        <time>2018-05-19T08:33:20Z</time>
      </trkpt>
      <trkpt lat="43.3116933424" lon="-4.3876987416">
        <ele>336.12</ele>
        <time>2018-05-19T08:33:23Z</time>
      </trkpt>
      <trkpt lat="43.3116873913" lon="-4.3878540583">
        <ele>336.60</ele>
        <time>2018-05-19T08:33:26Z</time>
      </trkpt>
      <trkpt lat="43.3116830327" lon="-4.3880045973">
        <ele>336.12</ele>
        <time>2018-05-19T08:33:29Z</time>
      </trkpt>
      <trkpt lat="43.3116879780" lon="-4.3881855626">
        <ele>336.12</ele>
        <time>2018-05-19T08:33:32Z</time>
      </trkpt>
      <trkpt lat="43.3116971143" lon="-4.3883200083">
        <ele>336.12</ele>
        <time>2018-05-19T08:33:34Z</time>
      </trkpt>
      <trkpt lat="43.3117019758" lon="-4.3884604052">
        <ele>336.12</ele>
        <time>2018-05-19T08:33:36Z</time>
      </trkpt>
      <trkpt lat="43.3117069211" lon="-4.3885883968">
        <ele>336.12</ele>
        <time>2018-05-19T08:33:38Z</time>
      </trkpt>
      <trkpt lat="43.3117141295" lon="-4.3887287937">
        <ele>336.12</ele>
        <time>2018-05-19T08:33:40Z</time>
      </trkpt>
      <trkpt lat="43.3117229305" lon="-4.3888777401">
        <ele>336.12</ele>
        <time>2018-05-19T08:33:42Z</time>
      </trkpt>
      <trkpt lat="43.3117344137" lon="-4.3890270218">
        <ele>335.16</ele>
        <time>2018-05-19T08:33:44Z</time>
      </trkpt>
      <trkpt lat="43.3117402811" lon="-4.3891861942">
        <ele>334.68</ele>
        <time>2018-05-19T08:33:46Z</time>
      </trkpt>
      <trkpt lat="43.3117392752" lon="-4.3893521558">
        <ele>334.68</ele>
        <time>2018-05-19T08:33:48Z</time>
      </trkpt>
      <trkpt lat="43.3117329050" lon="-4.3894935586">
        <ele>334.20</ele>
        <time>2018-05-19T08:33:50Z</time>
      </trkpt>
      <trkpt lat="43.3117173146" lon="-4.3896518927">
        <ele>334.20</ele>
        <time>2018-05-19T08:33:52Z</time>
      </trkpt>
      <trkpt lat="43.3117005508" lon="-4.3898192793">
        <ele>334.20</ele>
        <time>2018-05-19T08:33:54Z</time>
      </trkpt>
      <trkpt lat="43.3116790932" lon="-4.3899709918">
        <ele>334.20</ele>
        <time>2018-05-19T08:33:56Z</time>
      </trkpt>
      <trkpt lat="43.3116351720" lon="-4.3901300803">
        <ele>334.20</ele>
        <time>2018-05-19T08:33:58Z</time>
      </trkpt>
      <trkpt lat="43.3115930948" lon="-4.3902537972">
        <ele>334.20</ele>
        <time>2018-05-19T08:34:00Z</time>
      </trkpt>
      <trkpt lat="43.3115520235" lon="-4.3903874885">
        <ele>334.20</ele>
        <time>2018-05-19T08:34:02Z</time>
      </trkpt>
      <trkpt lat="43.3115186635" lon="-4.3905247841">
        <ele>334.20</ele>
        <time>2018-05-19T08:34:04Z</time>
      </trkpt>
      <trkpt lat="43.3114778437" lon="-4.3906649295">
        <ele>334.20</ele>
        <time>2018-05-19T08:34:06Z</time>
      </trkpt>
      <trkpt lat="43.3114066813" lon="-4.3907873891">
        <ele>334.20</ele>
        <time>2018-05-19T08:34:08Z</time>
      </trkpt>
      <trkpt lat="43.3113122173" lon="-4.3908505049">
        <ele>334.20</ele>
        <time>2018-05-19T08:34:10Z</time>
      </trkpt>
      <trkpt lat="43.3112119697" lon="-4.3908702023">
        <ele>334.20</ele>
        <time>2018-05-19T08:34:12Z</time>
      </trkpt>
      <trkpt lat="43.3111133147" lon="-4.3908626586">
        <ele>334.20</ele>
        <time>2018-05-19T08:34:14Z</time>
      </trkpt>
      <trkpt lat="43.3110150788" lon="-4.3908530194">
        <ele>335.64</ele>
        <time>2018-05-19T08:34:16Z</time>
      </trkpt>
      <trkpt lat="43.3109205309" lon="-4.3908343278">
        <ele>336.12</ele>
        <time>2018-05-19T08:34:18Z</time>
      </trkpt>
      <trkpt lat="43.3108088002" lon="-4.3908011355">
        <ele>337.56</ele>
        <time>2018-05-19T08:34:21Z</time>
      </trkpt>
      <trkpt lat="43.3107176051" lon="-4.3907625787">
        <ele>338.52</ele>
        <time>2018-05-19T08:34:24Z</time>
      </trkpt>
      <trkpt lat="43.3106095623" lon="-4.3907109462">
        <ele>339.00</ele>
        <time>2018-05-19T08:34:27Z</time>
      </trkpt>
      <trkpt lat="43.3105073031" lon="-4.3905830383">
        <ele>339.00</ele>
        <time>2018-05-19T08:34:30Z</time>
      </trkpt>
      <trkpt lat="43.3104713447" lon="-4.3904610816">
        <ele>339.00</ele>
        <time>2018-05-19T08:34:32Z</time>
      </trkpt>
      <trkpt lat="43.3104177844" lon="-4.3903229479">
        <ele>337.08</ele>
        <time>2018-05-19T08:34:34Z</time>
      </trkpt>
      <trkpt lat="43.3103169501" lon="-4.3903201818">
        <ele>335.64</ele>
        <time>2018-05-19T08:34:36Z</time>
      </trkpt>
      <trkpt lat="43.3102701791" lon="-4.3904366903">
        <ele>334.68</ele>
        <time>2018-05-19T08:34:38Z</time>
      </trkpt>
      <trkpt lat="43.3102302812" lon="-4.3905958626">
        <ele>334.20</ele>
        <time>2018-05-19T08:34:40Z</time>
      </trkpt>
      <trkpt lat="43.3101908024" lon="-4.3907321524">
        <ele>333.71</ele>
        <time>2018-05-19T08:34:42Z</time>
      </trkpt>
      <trkpt lat="43.3101462945" lon="-4.3908979464">
        <ele>333.71</ele>
        <time>2018-05-19T08:34:44Z</time>
      </trkpt>
      <trkpt lat="43.3100948296" lon="-4.3910663389">
        <ele>333.23</ele>
        <time>2018-05-19T08:34:46Z</time>
      </trkpt>
      <trkpt lat="43.3100387547" lon="-4.3912515789">
        <ele>332.75</ele>
        <time>2018-05-19T08:34:48Z</time>
      </trkpt>
      <trkpt lat="43.3099824283" lon="-4.3914375734">
        <ele>331.79</ele>
        <time>2018-05-19T08:34:50Z</time>
      </trkpt>
      <trkpt lat="43.3099176362" lon="-4.3916582689">
        <ele>331.79</ele>
        <time>2018-05-19T08:34:52Z</time>
      </trkpt>
      <trkpt lat="43.3098802529" lon="-4.3918160163">
        <ele>330.83</ele>
        <time>2018-05-19T08:34:54Z</time>
      </trkpt>
      <trkpt lat="43.3098613936" lon="-4.3920144998">
        <ele>330.35</ele>
        <time>2018-05-19T08:34:56Z</time>
      </trkpt>
      <trkpt lat="43.3098587114" lon="-4.3921914417">
        <ele>330.35</ele>
        <time>2018-05-19T08:34:58Z</time>
      </trkpt>
      <trkpt lat="43.3098472282" lon="-4.3923543021">
        <ele>332.27</ele>
        <time>2018-05-19T08:35:00Z</time>
      </trkpt>
      <trkpt lat="43.3098297101" lon="-4.3925091159">
        <ele>332.75</ele>
        <time>2018-05-19T08:35:02Z</time>
      </trkpt>
      <trkpt lat="43.3097987808" lon="-4.3926775921">
        <ele>334.20</ele>
        <time>2018-05-19T08:35:05Z</time>
      </trkpt>
      <trkpt lat="43.3097606432" lon="-4.3928386923">
        <ele>335.16</ele>
        <time>2018-05-19T08:35:08Z</time>
      </trkpt>
      <trkpt lat="43.3097330667" lon="-4.3929857109">
        <ele>336.12</ele>
        <time>2018-05-19T08:35:11Z</time>
      </trkpt>
      <trkpt lat="43.3097044006" lon="-4.3931228388">
        <ele>337.08</ele>
        <time>2018-05-19T08:35:14Z</time>
      </trkpt>
      <trkpt lat="43.3096678555" lon="-4.3932738807">
        <ele>338.04</ele>
        <time>2018-05-19T08:35:18Z</time>
      </trkpt>
      <trkpt lat="43.3096278738" lon="-4.3934243359">
        <ele>339.48</ele>
        <time>2018-05-19T08:35:22Z</time>
      </trkpt>
      <trkpt lat="43.3095966093" lon="-4.3935674150">
        <ele>340.44</ele>
        <time>2018-05-19T08:35:26Z</time>
      </trkpt>
      <trkpt lat="43.3095666859" lon="-4.3937021960">
        <ele>341.41</ele>
        <time>2018-05-19T08:35:30Z</time>
      </trkpt>
      <trkpt lat="43.3095274586" lon="-4.3938394077">
        <ele>342.37</ele>
        <time>2018-05-19T08:35:34Z</time>
      </trkpt>
      <trkpt lat="43.3094939310" lon="-4.3939580116">
        <ele>343.33</ele>
        <time>2018-05-19T08:35:38Z</time>
      </trkpt>
      <trkpt lat="43.3094633371" lon="-4.3940787110">
        <ele>344.77</ele>
        <time>2018-05-19T08:35:42Z</time>
      </trkpt>
      <trkpt lat="43.3094418794" lon="-4.3941993266">
        <ele>345.25</ele>
        <time>2018-05-19T08:35:46Z</time>
      </trkpt>
      <trkpt lat="43.3094204217" lon="-4.3943408132">
        <ele>346.21</ele>
        <time>2018-05-19T08:35:51Z</time>
      </trkpt>
      <trkpt lat="43.3094044961" lon="-4.3944687210">
        <ele>347.17</ele>
        <time>2018-05-19T08:35:55Z</time>
      </trkpt>
      <trkpt lat="43.3094014786" lon="-4.3946140632">
        <ele>348.62</ele>
        <time>2018-05-19T08:36:00Z</time>
      </trkpt>
      <trkpt lat="43.3094018977" lon="-4.3947617523">
        <ele>349.58</ele>
        <time>2018-05-19T08:36:05Z</time>
      </trkpt>
      <trkpt lat="43.3094065916" lon="-4.3949114531">
        <ele>351.02</ele>
        <time>2018-05-19T08:36:10Z</time>
      </trkpt>
      <trkpt lat="43.3094158117" lon="-4.3950594775">
        <ele>351.98</ele>
        <time>2018-05-19T08:36:15Z</time>
      </trkpt>
      <trkpt lat="43.3094227687" lon="-4.3952072505">
        <ele>352.94</ele>
        <time>2018-05-19T08:36:20Z</time>
      </trkpt>
      <trkpt lat="43.3094204217" lon="-4.3953510001">
        <ele>354.38</ele>
        <time>2018-05-19T08:36:25Z</time>
      </trkpt>
      <trkpt lat="43.3094207570" lon="-4.3955013715">
        <ele>355.34</ele>
        <time>2018-05-19T08:36:30Z</time>
      </trkpt>
      <trkpt lat="43.3094208408" lon="-4.3956307042">
        <ele>356.31</ele>
        <time>2018-05-19T08:36:35Z</time>
      </trkpt>
      <trkpt lat="43.3094219305" lon="-4.3957794830">
        <ele>357.27</ele>
        <time>2018-05-19T08:36:40Z</time>
      </trkpt>
      <trkpt lat="43.3094246127" lon="-4.3959099893">
        <ele>358.71</ele>
        <time>2018-05-19T08:36:45Z</time>
      </trkpt>
      <trkpt lat="43.3094251994" lon="-4.3960544094">
        <ele>359.67</ele>
        <time>2018-05-19T08:36:50Z</time>
      </trkpt>
      <trkpt lat="43.3094300609" lon="-4.3961984105">
        <ele>360.15</ele>
        <time>2018-05-19T08:36:55Z</time>
      </trkpt>
      <trkpt lat="43.3094440587" lon="-4.3963498715">
        <ele>361.59</ele>
        <time>2018-05-19T08:37:00Z</time>
      </trkpt>
      <trkpt lat="43.3094607387" lon="-4.3964904360">
        <ele>362.55</ele>
        <time>2018-05-19T08:37:05Z</time>
      </trkpt>
      <trkpt lat="43.3094873093" lon="-4.3966301624">
        <ele>363.52</ele>
        <time>2018-05-19T08:37:10Z</time>
      </trkpt>
      <trkpt lat="43.3095102757" lon="-4.3967635185">
        <ele>364.48</ele>
        <time>2018-05-19T08:37:15Z</time>
      </trkpt>
      <trkpt lat="43.3095490839" lon="-4.3968931865">
        <ele>365.92</ele>
        <time>2018-05-19T08:37:20Z</time>
      </trkpt>
      <trkpt lat="43.3095676079" lon="-4.3970269617">
        <ele>366.88</ele>
        <time>2018-05-19T08:37:25Z</time>
      </trkpt>
      <trkpt lat="43.3095393609" lon="-4.3971664365">
        <ele>367.84</ele>
        <time>2018-05-19T08:37:30Z</time>
      </trkpt>
      <trkpt lat="43.3094570506" lon="-4.3972733058">
        <ele>369.76</ele>
        <time>2018-05-19T08:37:35Z</time>
      </trkpt>
      <trkpt lat="43.3093601558" lon="-4.3972808495">
        <ele>370.73</ele>
        <time>2018-05-19T08:37:40Z</time>
      </trkpt>
      <trkpt lat="43.3092712238" lon="-4.3971946836">
        <ele>371.69</ele>
        <time>2018-05-19T08:37:45Z</time>
      </trkpt>
      <trkpt lat="43.3092171606" lon="-4.3970711343">
        <ele>373.13</ele>
        <time>2018-05-19T08:37:50Z</time>
      </trkpt>
      <trkpt lat="43.3091799449" lon="-4.3969309051">
        <ele>374.57</ele>
        <time>2018-05-19T08:37:55Z</time>
      </trkpt>
      <trkpt lat="43.3091376163" lon="-4.3968105409">
        <ele>375.53</ele>
        <time>2018-05-19T08:38:00Z</time>
      </trkpt>
      <trkpt lat="43.3090527076" lon="-4.3967421446">
        <ele>376.49</ele>
        <time>2018-05-19T08:38:06Z</time>
      </trkpt>
      <trkpt lat="43.3089538012" lon="-4.3967548013">
        <ele>377.94</ele>
        <time>2018-05-19T08:38:13Z</time>
      </trkpt>
      <trkpt lat="43.3088663779" lon="-4.3968418892">
        <ele>378.90</ele>
        <time>2018-05-19T08:38:19Z</time>
      </trkpt>
      <trkpt lat="43.3088377956" lon="-4.3969670311">
        <ele>379.86</ele>
        <time>2018-05-19T08:38:24Z</time>
      </trkpt>
      <trkpt lat="43.3088655397" lon="-4.3970990460">
        <ele>380.82</ele>
        <time>2018-05-19T08:38:29Z</time>
      </trkpt>
      <trkpt lat="43.3089219499" lon="-4.3972082622">
        <ele>382.26</ele>
        <time>2018-05-19T08:38:34Z</time>
      </trkpt>
      <trkpt lat="43.3089736663" lon="-4.3973301351">
        <ele>382.74</ele>
        <time>2018-05-19T08:38:39Z</time>
      </trkpt>
      <trkpt lat="43.3090181742" lon="-4.3974530138">
        <ele>384.18</ele>
        <time>2018-05-19T08:38:44Z</time>
      </trkpt>
      <trkpt lat="43.3090464212" lon="-4.3975839391">
        <ele>385.15</ele>
        <time>2018-05-19T08:38:49Z</time>
      </trkpt>
      <trkpt lat="43.3090677112" lon="-4.3977210671">
        <ele>386.11</ele>
        <time>2018-05-19T08:38:54Z</time>
      </trkpt>
      <trkpt lat="43.3090708125" lon="-4.3978628051">
        <ele>387.07</ele>
        <time>2018-05-19T08:38:59Z</time>
      </trkpt>
      <trkpt lat="43.3090704773" lon="-4.3980037048">
        <ele>388.03</ele>
        <time>2018-05-19T08:39:04Z</time>
      </trkpt>
      <trkpt lat="43.3090610057" lon="-4.3981415033">
        <ele>388.99</ele>
        <time>2018-05-19T08:39:09Z</time>
      </trkpt>
      <trkpt lat="43.3090595808" lon="-4.3982906174">
        <ele>390.43</ele>
        <time>2018-05-19T08:39:14Z</time>
      </trkpt>
      <trkpt lat="43.3090617601" lon="-4.3984337803">
        <ele>390.91</ele>
        <time>2018-05-19T08:39:19Z</time>
      </trkpt>
      <trkpt lat="43.3090576530" lon="-4.3985827267">
        <ele>392.36</ele>
        <time>2018-05-19T08:39:24Z</time>
      </trkpt>
      <trkpt lat="43.3090558089" lon="-4.3987286557">
        <ele>393.32</ele>
        <time>2018-05-19T08:39:29Z</time>
      </trkpt>
      <trkpt lat="43.3090599999" lon="-4.3988764286">
        <ele>394.28</ele>
        <time>2018-05-19T08:39:34Z</time>
      </trkpt>
      <trkpt lat="43.3090707287" lon="-4.3990232795">
        <ele>395.24</ele>
        <time>2018-05-19T08:39:39Z</time>
      </trkpt>
      <trkpt lat="43.3090908453" lon="-4.3991677836">
        <ele>396.20</ele>
        <time>2018-05-19T08:39:44Z</time>
      </trkpt>
      <trkpt lat="43.3091272227" lon="-4.3993098568">
        <ele>396.68</ele>
        <time>2018-05-19T08:39:49Z</time>
      </trkpt>
      <trkpt lat="43.3091531228" lon="-4.3994314782">
        <ele>398.12</ele>
        <time>2018-05-19T08:39:53Z</time>
      </trkpt>
      <trkpt lat="43.3092009835" lon="-4.3995573744">
        <ele>399.08</ele>
        <time>2018-05-19T08:39:58Z</time>
      </trkpt>
      <trkpt lat="43.3092572261" lon="-4.3996898923">
        <ele>399.57</ele>
        <time>2018-05-19T08:40:03Z</time>
      </trkpt>
      <trkpt lat="43.3093032427" lon="-4.3998291995">
        <ele>400.53</ele>
        <time>2018-05-19T08:40:08Z</time>
      </trkpt>
      <trkpt lat="43.3093236946" lon="-4.3999504019">
        <ele>401.49</ele>
        <time>2018-05-19T08:40:12Z</time>
      </trkpt>
      <trkpt lat="43.3092977945" lon="-4.4000673294">
        <ele>402.45</ele>
        <time>2018-05-19T08:40:16Z</time>
      </trkpt>
      <trkpt lat="43.3092231117" lon="-4.4001742825">
        <ele>403.89</ele>
        <time>2018-05-19T08:40:21Z</time>
      </trkpt>
      <trkpt lat="43.3091387898" lon="-4.4001735281">
        <ele>404.85</ele>
        <time>2018-05-19T08:40:25Z</time>
      </trkpt>
      <trkpt lat="43.3090494387" lon="-4.4001023658">
        <ele>405.33</ele>
        <time>2018-05-19T08:40:30Z</time>
      </trkpt>
      <trkpt lat="43.3089967165" lon="-4.3999939039">
        <ele>406.29</ele>
        <time>2018-05-19T08:40:34Z</time>
      </trkpt>
      <trkpt lat="43.3089450840" lon="-4.3998841848">
        <ele>407.26</ele>
        <time>2018-05-19T08:40:38Z</time>
      </trkpt>
      <trkpt lat="43.3088945411" lon="-4.3997727893">
        <ele>407.74</ele>
        <time>2018-05-19T08:40:42Z</time>
      </trkpt>
      <trkpt lat="43.3088543918" lon="-4.3996533472">
        <ele>408.70</ele>
        <time>2018-05-19T08:40:46Z</time>
      </trkpt>
      <trkpt lat="43.3088126499" lon="-4.3995396048">
        <ele>409.66</ele>
        <time>2018-05-19T08:40:50Z</time>
      </trkpt>
      <trkpt lat="43.3087673876" lon="-4.3994322326">
        <ele>410.14</ele>
        <time>2018-05-19T08:40:54Z</time>
      </trkpt>
      <trkpt lat="43.3087051101" lon="-4.3993412890">
        <ele>411.10</ele>
        <time>2018-05-19T08:40:58Z</time>
      </trkpt>
      <trkpt lat="43.3086082991" lon="-4.3992903270">
        <ele>412.54</ele>
        <time>2018-05-19T08:41:03Z</time>
      </trkpt>
      <trkpt lat="43.3085064590" lon="-4.3993383553">
        <ele>413.02</ele>
        <time>2018-05-19T08:41:08Z</time>
      </trkpt>
      <trkpt lat="43.3084443491" lon="-4.3994571269">
        <ele>413.98</ele>
        <time>2018-05-19T08:41:13Z</time>
      </trkpt>
      <trkpt lat="43.3084508870" lon="-4.3996024691">
        <ele>414.47</ele>
        <time>2018-05-19T08:41:18Z</time>
      </trkpt>
      <trkpt lat="43.3084969036" lon="-4.3997277785">
        <ele>415.91</ele>
        <time>2018-05-19T08:41:23Z</time>
      </trkpt>
      <trkpt lat="43.3085492905" lon="-4.3998540938">
        <ele>416.87</ele>
        <time>2018-05-19T08:41:28Z</time>
      </trkpt>
      <trkpt lat="43.3085932955" lon="-4.3999915570">
        <ele>417.83</ele>
        <time>2018-05-19T08:41:33Z</time>
      </trkpt>
      <trkpt lat="43.3086357918" lon="-4.4001080655">
        <ele>418.79</ele>
        <time>2018-05-19T08:41:38Z</time>
      </trkpt>
      <trkpt lat="43.3086792100" lon="-4.4002373982">
        <ele>419.27</ele>
        <time>2018-05-19T08:41:43Z</time>
      </trkpt>
      <trkpt lat="43.3087245561" lon="-4.4003634620">
        <ele>420.23</ele>
        <time>2018-05-19T08:41:48Z</time>
      </trkpt>
      <trkpt lat="43.3087775297" lon="-4.4004875980">
        <ele>420.71</ele>
        <time>2018-05-19T08:41:53Z</time>
      </trkpt>
      <trkpt lat="43.3088218700" lon="-4.4006151706">
        <ele>421.68</ele>
        <time>2018-05-19T08:41:58Z</time>
      </trkpt>
      <trkpt lat="43.3088571578" lon="-4.4007242192">
        <ele>422.16</ele>
        <time>2018-05-19T08:42:02Z</time>
      </trkpt>
      <trkpt lat="43.3088849857" lon="-4.4008662924">
        <ele>423.12</ele>
        <time>2018-05-19T08:42:07Z</time>
      </trkpt>
      <trkpt lat="43.3088430762" lon="-4.4009778555">
        <ele>423.60</ele>
        <time>2018-05-19T08:42:11Z</time>
      </trkpt>
      <trkpt lat="43.3087590057" lon="-4.4010268897">
        <ele>424.56</ele>
        <time>2018-05-19T08:42:15Z</time>
      </trkpt>
      <trkpt lat="43.3086706605" lon="-4.4009776041">
        <ele>425.52</ele>
        <time>2018-05-19T08:42:19Z</time>
      </trkpt>
      <trkpt lat="43.3086114842" lon="-4.4008655380">
        <ele>426.48</ele>
        <time>2018-05-19T08:42:23Z</time>
      </trkpt>
      <trkpt lat="43.3085647132" lon="-4.4007364567">
        <ele>427.44</ele>
        <time>2018-05-19T08:42:27Z</time>
      </trkpt>
      <trkpt lat="43.3085184451" lon="-4.4006155897">
        <ele>428.40</ele>
        <time>2018-05-19T08:42:31Z</time>
      </trkpt>
      <trkpt lat="43.3084557485" lon="-4.4005201198">
        <ele>429.37</ele>
        <time>2018-05-19T08:42:35Z</time>
      </trkpt>
      <trkpt lat="43.3083663974" lon="-4.4005036913">
        <ele>429.85</ele>
        <time>2018-05-19T08:42:39Z</time>
      </trkpt>
      <trkpt lat="43.3082814887" lon="-4.4005813077">
        <ele>430.81</ele>
        <time>2018-05-19T08:42:43Z</time>
      </trkpt>
      <trkpt lat="43.3082617074" lon="-4.4007102214">
        <ele>431.29</ele>
        <time>2018-05-19T08:42:47Z</time>
      </trkpt>
      <trkpt lat="43.3082870208" lon="-4.4008359499">
        <ele>431.77</ele>
        <time>2018-05-19T08:42:51Z</time>
      </trkpt>
      <trkpt lat="43.3083345462" lon="-4.4009527098">
        <ele>432.73</ele>
        <time>2018-05-19T08:42:55Z</time>
      </trkpt>
      <trkpt lat="43.3083856758" lon="-4.4010800309">
        <ele>433.21</ele>
        <time>2018-05-19T08:42:59Z</time>
      </trkpt>
      <trkpt lat="43.3084393200" lon="-4.4012180809">
        <ele>434.17</ele>
        <time>2018-05-19T08:43:04Z</time>
      </trkpt>
      <trkpt lat="43.3084870130" lon="-4.4013364334">
        <ele>435.13</ele>
        <time>2018-05-19T08:43:08Z</time>
      </trkpt>
      <trkpt lat="43.3085378911" lon="-4.4014527742">
        <ele>435.61</ele>
        <time>2018-05-19T08:43:12Z</time>
      </trkpt>
      <trkpt lat="43.3085844107" lon="-4.4015707914">
        <ele>436.58</ele>
        <time>2018-05-19T08:43:16Z</time>
      </trkpt>
      <trkpt lat="43.3086249791" lon="-4.4017033093">
        <ele>437.06</ele>
        <time>2018-05-19T08:43:20Z</time>
      </trkpt>
      <trkpt lat="43.3086747676" lon="-4.4018205721">
        <ele>438.02</ele>
        <time>2018-05-19T08:43:24Z</time>
      </trkpt>
      <trkpt lat="43.3087212872" lon="-4.4019394275">
        <ele>438.50</ele>
        <time>2018-05-19T08:43:28Z</time>
      </trkpt>
      <trkpt lat="43.3087605145" lon="-4.4020646531">
        <ele>439.46</ele>
        <time>2018-05-19T08:43:32Z</time>
      </trkpt>
      <trkpt lat="43.3087662980" lon="-4.4021902978">
        <ele>440.42</ele>
        <time>2018-05-19T08:43:36Z</time>
      </trkpt>
      <trkpt lat="43.3087215386" lon="-4.4023156911">
        <ele>441.38</ele>
        <time>2018-05-19T08:43:40Z</time>
      </trkpt>
      <trkpt lat="43.3086334448" lon="-4.4023752864">
        <ele>442.34</ele>
        <time>2018-05-19T08:43:44Z</time>
      </trkpt>
      <trkpt lat="43.3085318562" lon="-4.4023406692">
        <ele>442.82</ele>
        <time>2018-05-19T08:43:49Z</time>
      </trkpt>
      <trkpt lat="43.3084585145" lon="-4.4022402540">
        <ele>444.27</ele>
        <time>2018-05-19T08:43:53Z</time>
      </trkpt>
      <trkpt lat="43.3084207959" lon="-4.4021084066">
        <ele>445.23</ele>
        <time>2018-05-19T08:43:57Z</time>
      </trkpt>
      <trkpt lat="43.3083822392" lon="-4.4019780681">
        <ele>445.71</ele>
        <time>2018-05-19T08:44:01Z</time>
      </trkpt>
      <trkpt lat="43.3083125018" lon="-4.4018826820">
        <ele>446.67</ele>
        <time>2018-05-19T08:44:05Z</time>
      </trkpt>
      <trkpt lat="43.3082244918" lon="-4.4018727913">
        <ele>447.15</ele>
        <time>2018-05-19T08:44:09Z</time>
      </trkpt>
      <trkpt lat="43.3081359789" lon="-4.4019364100">
        <ele>448.11</ele>
        <time>2018-05-19T08:44:13Z</time>
      </trkpt>
      <trkpt lat="43.3080732822" lon="-4.4020512421">
        <ele>449.07</ele>
        <time>2018-05-19T08:44:17Z</time>
      </trkpt>
      <trkpt lat="43.3080369048" lon="-4.4021675829">
        <ele>450.03</ele>
        <time>2018-05-19T08:44:21Z</time>
      </trkpt>
      <trkpt lat="43.3079985157" lon="-4.4022884499">
        <ele>450.52</ele>
        <time>2018-05-19T08:44:25Z</time>
      </trkpt>
      <trkpt lat="43.3079587854" lon="-4.4024040364">
        <ele>451.00</ele>
        <time>2018-05-19T08:44:29Z</time>
      </trkpt>
      <trkpt lat="43.3079316281" lon="-4.4025228918">
        <ele>451.96</ele>
        <time>2018-05-19T08:44:33Z</time>
      </trkpt>
      <trkpt lat="43.3079022076" lon="-4.4026492909">
        <ele>452.92</ele>
        <time>2018-05-19T08:44:37Z</time>
      </trkpt>
      <trkpt lat="43.3078695182" lon="-4.4027657993">
        <ele>453.40</ele>
        <time>2018-05-19T08:44:41Z</time>
      </trkpt>
      <trkpt lat="43.3078341465" lon="-4.4028817210">
        <ele>454.36</ele>
        <time>2018-05-19T08:44:45Z</time>
      </trkpt>
      <trkpt lat="43.3078046422" lon="-4.4030040968">
        <ele>455.80</ele>
        <time>2018-05-19T08:44:49Z</time>
      </trkpt>
      <trkpt lat="43.3077612240" lon="-4.4031387940">
        <ele>456.28</ele>
        <time>2018-05-19T08:44:54Z</time>
      </trkpt>
      <trkpt lat="43.3077228349" lon="-4.4032883272">
        <ele>457.72</ele>
        <time>2018-05-19T08:44:59Z</time>
      </trkpt>
      <trkpt lat="43.3076926600" lon="-4.4034311548">
        <ele>458.21</ele>
        <time>2018-05-19T08:45:04Z</time>
      </trkpt>
      <trkpt lat="43.3076722082" lon="-4.4035754912">
        <ele>459.65</ele>
        <time>2018-05-19T08:45:09Z</time>
      </trkpt>
      <trkpt lat="43.3076722082" lon="-4.4037289638">
        <ele>460.61</ele>
        <time>2018-05-19T08:45:14Z</time>
      </trkpt>
      <trkpt lat="43.3076847810" lon="-4.4038817659">
        <ele>461.57</ele>
        <time>2018-05-19T08:45:19Z</time>
      </trkpt>
      <trkpt lat="43.3077118546" lon="-4.4040277787">
        <ele>462.53</ele>
        <time>2018-05-19T08:45:24Z</time>
      </trkpt>
      <trkpt lat="43.3077421132" lon="-4.4041726179">
        <ele>463.97</ele>
        <time>2018-05-19T08:45:29Z</time>
      </trkpt>
      <trkpt lat="43.3077678457" lon="-4.4042938203">
        <ele>464.45</ele>
        <time>2018-05-19T08:45:33Z</time>
      </trkpt>
      <trkpt lat="43.3077961765" lon="-4.4044303615">
        <ele>465.42</ele>
        <time>2018-05-19T08:45:38Z</time>
      </trkpt>
      <trkpt lat="43.3078253455" lon="-4.4045773800">
        <ele>465.90</ele>
        <time>2018-05-19T08:45:43Z</time>
      </trkpt>
      <trkpt lat="43.3078390919" lon="-4.4047247339">
        <ele>467.34</ele>
        <time>2018-05-19T08:45:48Z</time>
      </trkpt>
      <trkpt lat="43.3078503236" lon="-4.4048735127">
        <ele>468.30</ele>
        <time>2018-05-19T08:45:53Z</time>
      </trkpt>
      <trkpt lat="43.3078589570" lon="-4.4050230458">
        <ele>469.74</ele>
        <time>2018-05-19T08:45:58Z</time>
      </trkpt>
      <trkpt lat="43.3078545984" lon="-4.4051652867">
        <ele>470.70</ele>
        <time>2018-05-19T08:46:03Z</time>
      </trkpt>
      <trkpt lat="43.3078521676" lon="-4.4053097907">
        <ele>471.66</ele>
        <time>2018-05-19T08:46:08Z</time>
      </trkpt>
      <trkpt lat="43.3078474738" lon="-4.4054582343">
        <ele>472.63</ele>
        <time>2018-05-19T08:46:13Z</time>
      </trkpt>
      <trkpt lat="43.3078415226" lon="-4.4055853877">
        <ele>473.59</ele>
        <time>2018-05-19T08:46:17Z</time>
      </trkpt>
      <trkpt lat="43.3078330569" lon="-4.4057276286">
        <ele>474.55</ele>
        <time>2018-05-19T08:46:22Z</time>
      </trkpt>
      <trkpt lat="43.3078244235" lon="-4.4058838673">
        <ele>476.95</ele>
        <time>2018-05-19T08:46:27Z</time>
      </trkpt>
      <trkpt lat="43.3078124374" lon="-4.4060347416">
        <ele>476.47</ele>
        <time>2018-05-19T08:46:32Z</time>
      </trkpt>
      <trkpt lat="43.3078017086" lon="-4.4061704446">
        <ele>477.43</ele>
        <time>2018-05-19T08:46:37Z</time>
      </trkpt>
      <trkpt lat="43.3077894710" lon="-4.4063198101">
        <ele>478.39</ele>
        <time>2018-05-19T08:46:42Z</time>
      </trkpt>
      <trkpt lat="43.3077582903" lon="-4.4064619672">
        <ele>479.35</ele>
        <time>2018-05-19T08:46:47Z</time>
      </trkpt>
      <trkpt lat="43.3077158779" lon="-4.4066037890">
        <ele>480.32</ele>
        <time>2018-05-19T08:46:52Z</time>
      </trkpt>
      <trkpt lat="43.3076568693" lon="-4.4067495503">
        <ele>481.28</ele>
        <time>2018-05-19T08:46:57Z</time>
      </trkpt>
      <trkpt lat="43.3075963520" lon="-4.4068742730">
        <ele>482.24</ele>
        <time>2018-05-19T08:47:02Z</time>
      </trkpt>
      <trkpt lat="43.3075417019" lon="-4.4069828186">
        <ele>483.20</ele>
        <time>2018-05-19T08:47:06Z</time>
      </trkpt>
      <trkpt lat="43.3074728865" lon="-4.4070910290">
        <ele>484.16</ele>
        <time>2018-05-19T08:47:11Z</time>
      </trkpt>
      <trkpt lat="43.3074114472" lon="-4.4071842358">
        <ele>484.64</ele>
        <time>2018-05-19T08:47:15Z</time>
      </trkpt>
      <trkpt lat="43.3058032952" lon="-4.4078306481">
        <ele>485.60</ele>
        <time>2018-05-19T08:47:19Z</time>
      </trkpt>
      <trkpt lat="43.3072967827" lon="-4.4074111339">
        <ele>486.56</ele>
        <time>2018-05-19T08:47:24Z</time>
      </trkpt>
      <trkpt lat="43.3072572201" lon="-4.4075279776">
        <ele>487.53</ele>
        <time>2018-05-19T08:47:29Z</time>
      </trkpt>
      <trkpt lat="43.3072179090" lon="-4.4076657761">
        <ele>488.49</ele>
        <time>2018-05-19T08:47:34Z</time>
      </trkpt>
      <trkpt lat="43.3071922604" lon="-4.4078098610">
        <ele>489.45</ele>
        <time>2018-05-19T08:47:39Z</time>
      </trkpt>
      <trkpt lat="43.3071719762" lon="-4.4079475757">
        <ele>489.93</ele>
        <time>2018-05-19T08:47:44Z</time>
      </trkpt>
      <trkpt lat="43.3071593195" lon="-4.4080892298">
        <ele>491.37</ele>
        <time>2018-05-19T08:47:49Z</time>
      </trkpt>
      <trkpt lat="43.3071426395" lon="-4.4082332309">
        <ele>492.33</ele>
        <time>2018-05-19T08:47:54Z</time>
      </trkpt>
      <trkpt lat="43.3071286418" lon="-4.4083561096">
        <ele>493.29</ele>
        <time>2018-05-19T08:47:58Z</time>
      </trkpt>
      <trkpt lat="43.3071077708" lon="-4.4085069001">
        <ele>493.77</ele>
        <time>2018-05-19T08:48:03Z</time>
      </trkpt>
      <trkpt lat="43.3070910908" lon="-4.4086328801">
        <ele>494.74</ele>
        <time>2018-05-19T08:48:07Z</time>
      </trkpt>
      <trkpt lat="43.3070638496" lon="-4.4087763783">
        <ele>495.70</ele>
        <time>2018-05-19T08:48:12Z</time>
      </trkpt>
      <trkpt lat="43.3070468344" lon="-4.4089317787">
        <ele>496.66</ele>
        <time>2018-05-19T08:48:17Z</time>
      </trkpt>
      <trkpt lat="43.3070192579" lon="-4.4090754446">
        <ele>497.14</ele>
        <time>2018-05-19T08:48:22Z</time>
      </trkpt>
      <trkpt lat="43.3069987223" lon="-4.4091957249">
        <ele>497.62</ele>
        <time>2018-05-19T08:48:26Z</time>
      </trkpt>
      <trkpt lat="43.3069812041" lon="-4.4093480241">
        <ele>499.06</ele>
        <time>2018-05-19T08:48:31Z</time>
      </trkpt>
      <trkpt lat="43.3069589920" lon="-4.4094976410">
        <ele>499.54</ele>
        <time>2018-05-19T08:48:36Z</time>
      </trkpt>
      <trkpt lat="43.3069417253" lon="-4.4096216932">
        <ele>500.02</ele>
        <time>2018-05-19T08:48:40Z</time>
      </trkpt>
      <trkpt lat="43.3069335110" lon="-4.4097672030">
        <ele>500.98</ele>
        <time>2018-05-19T08:48:45Z</time>
      </trkpt>
      <trkpt lat="43.3069388755" lon="-4.4098951109">
        <ele>501.95</ele>
        <time>2018-05-19T08:48:49Z</time>
      </trkpt>
      <trkpt lat="43.3069458324" lon="-4.4100203365">
        <ele>501.95</ele>
        <time>2018-05-19T08:48:53Z</time>
      </trkpt>
      <trkpt lat="43.3069606684" lon="-4.4101565424">
        <ele>502.91</ele>
        <time>2018-05-19T08:48:57Z</time>
      </trkpt>
      <trkpt lat="43.3069802821" lon="-4.4102906529">
        <ele>503.87</ele>
        <time>2018-05-19T08:49:01Z</time>
      </trkpt>
      <trkpt lat="43.3069888316" lon="-4.4104205724">
        <ele>504.35</ele>
        <time>2018-05-19T08:49:05Z</time>
      </trkpt>
      <trkpt lat="43.3069785219" lon="-4.4105524197">
        <ele>504.83</ele>
        <time>2018-05-19T08:49:09Z</time>
      </trkpt>
      <trkpt lat="43.3069323376" lon="-4.4106680062">
        <ele>505.79</ele>
        <time>2018-05-19T08:49:13Z</time>
      </trkpt>
      <trkpt lat="43.3068460878" lon="-4.4107277691">
        <ele>506.27</ele>
        <time>2018-05-19T08:49:17Z</time>
      </trkpt>
      <trkpt lat="43.3067451697" lon="-4.4106999412">
        <ele>506.75</ele>
        <time>2018-05-19T08:49:21Z</time>
      </trkpt>
      <trkpt lat="43.3066702355" lon="-4.4106203131">
        <ele>507.71</ele>
        <time>2018-05-19T08:49:25Z</time>
      </trkpt>
      <trkpt lat="43.3066274878" lon="-4.4104851130">
        <ele>508.19</ele>
        <time>2018-05-19T08:49:29Z</time>
      </trkpt>
      <trkpt lat="43.3066056948" lon="-4.4103353284">
        <ele>509.16</ele>
        <time>2018-05-19T08:49:33Z</time>
      </trkpt>
      <trkpt lat="43.3065907750" lon="-4.4101869687">
        <ele>509.64</ele>
        <time>2018-05-19T08:49:37Z</time>
      </trkpt>
      <trkpt lat="43.3065823931" lon="-4.4100420456">
        <ele>510.12</ele>
        <time>2018-05-19T08:49:41Z</time>
      </trkpt>
      <trkpt lat="43.3065691497" lon="-4.4099074323">
        <ele>510.60</ele>
        <time>2018-05-19T08:49:45Z</time>
      </trkpt>
      <trkpt lat="43.3065511286" lon="-4.4097655267">
        <ele>511.56</ele>
        <time>2018-05-19T08:49:49Z</time>
      </trkpt>
      <trkpt lat="43.3065366279" lon="-4.4096216932">
        <ele>512.04</ele>
        <time>2018-05-19T08:49:53Z</time>
      </trkpt>
      <trkpt lat="43.3065115660" lon="-4.4094911870">
        <ele>512.52</ele>
        <time>2018-05-19T08:49:57Z</time>
      </trkpt>
      <trkpt lat="43.3064547367" lon="-4.4093692303">
        <ele>513.48</ele>
        <time>2018-05-19T08:50:01Z</time>
      </trkpt>
      <trkpt lat="43.3063682355" lon="-4.4093358703">
        <ele>513.96</ele>
        <time>2018-05-19T08:50:05Z</time>
      </trkpt>
      <trkpt lat="43.3062715083" lon="-4.4093802944">
        <ele>514.44</ele>
        <time>2018-05-19T08:50:09Z</time>
      </trkpt>
      <trkpt lat="43.3062113263" lon="-4.4095062744">
        <ele>515.88</ele>
        <time>2018-05-19T08:50:13Z</time>
      </trkpt>
      <trkpt lat="43.3062004298" lon="-4.4096394628">
        <ele>515.88</ele>
        <time>2018-05-19T08:50:17Z</time>
      </trkpt>
      <trkpt lat="43.3062164392" lon="-4.4097809494">
        <ele>516.85</ele>
        <time>2018-05-19T08:50:21Z</time>
      </trkpt>
      <trkpt lat="43.3062369749" lon="-4.4099428039">
        <ele>517.33</ele>
        <time>2018-05-19T08:50:25Z</time>
      </trkpt>
      <trkpt lat="43.3062541578" lon="-4.4100823626">
        <ele>517.33</ele>
        <time>2018-05-19T08:50:29Z</time>
      </trkpt>
      <trkpt lat="43.3062645514" lon="-4.4102335721">
        <ele>518.77</ele>
        <time>2018-05-19T08:50:33Z</time>
      </trkpt>
      <trkpt lat="43.3062648028" lon="-4.4103958458">
        <ele>519.25</ele>
        <time>2018-05-19T08:50:37Z</time>
      </trkpt>
      <trkpt lat="43.3062611148" lon="-4.4105405174">
        <ele>519.73</ele>
        <time>2018-05-19T08:50:41Z</time>
      </trkpt>
      <trkpt lat="43.3062514756" lon="-4.4106986839">
        <ele>519.73</ele>
        <time>2018-05-19T08:50:45Z</time>
      </trkpt>
      <trkpt lat="43.3062332869" lon="-4.4108341355">
        <ele>519.73</ele>
        <time>2018-05-19T08:50:48Z</time>
      </trkpt>
      <trkpt lat="43.3062115777" lon="-4.4109517336">
        <ele>520.21</ele>
        <time>2018-05-19T08:50:51Z</time>
      </trkpt>
      <trkpt lat="43.3061861806" lon="-4.4110871851">
        <ele>520.21</ele>
        <time>2018-05-19T08:50:54Z</time>
      </trkpt>
      <trkpt lat="43.3061518986" lon="-4.4112347905">
        <ele>520.21</ele>
        <time>2018-05-19T08:50:57Z</time>
      </trkpt>
      <trkpt lat="43.3061177004" lon="-4.4113560766">
        <ele>520.21</ele>
        <time>2018-05-19T08:50:59Z</time>
      </trkpt>
      <trkpt lat="43.3060623799" lon="-4.4115312584">
        <ele>520.21</ele>
        <time>2018-05-19T08:51:02Z</time>
      </trkpt>
      <trkpt lat="43.3060216438" lon="-4.4116661232">
        <ele>520.21</ele>
        <time>2018-05-19T08:51:04Z</time>
      </trkpt>
      <trkpt lat="43.3059799019" lon="-4.4118066877">
        <ele>518.77</ele>
        <time>2018-05-19T08:51:06Z</time>
      </trkpt>
      <trkpt lat="43.3059387468" lon="-4.4119567238">
        <ele>517.81</ele>
        <time>2018-05-19T08:51:08Z</time>
      </trkpt>
      <trkpt lat="43.3058934007" lon="-4.4121358451">
        <ele>517.33</ele>
        <time>2018-05-19T08:51:10Z</time>
      </trkpt>
      <trkpt lat="43.3058562689" lon="-4.4122846238">
        <ele>516.85</ele>
        <time>2018-05-19T08:51:12Z</time>
      </trkpt>
      <trkpt lat="43.3058157843" lon="-4.4124683551">
        <ele>516.37</ele>
        <time>2018-05-19T08:51:14Z</time>
      </trkpt>
      <trkpt lat="43.3057735395" lon="-4.4126613904">
        <ele>515.40</ele>
        <time>2018-05-19T08:51:16Z</time>
      </trkpt>
      <trkpt lat="43.3057338931" lon="-4.4128706865">
        <ele>514.44</ele>
        <time>2018-05-19T08:51:18Z</time>
      </trkpt>
      <trkpt lat="43.3056912292" lon="-4.4131034520">
        <ele>513.48</ele>
        <time>2018-05-19T08:51:20Z</time>
      </trkpt>
      <trkpt lat="43.3056688495" lon="-4.4132317789">
        <ele>513.00</ele>
        <time>2018-05-19T08:51:21Z</time>
      </trkpt>
      <trkpt lat="43.3056499064" lon="-4.4133479521">
        <ele>513.00</ele>
        <time>2018-05-19T08:51:22Z</time>
      </trkpt>
      <trkpt lat="43.3056122717" lon="-4.4135732576">
        <ele>511.08</ele>
        <time>2018-05-19T08:51:24Z</time>
      </trkpt>
      <trkpt lat="43.3055918198" lon="-4.4136990700">
        <ele>511.08</ele>
        <time>2018-05-19T08:51:25Z</time>
      </trkpt>
      <trkpt lat="43.3055677637" lon="-4.4138352759">
        <ele>510.12</ele>
        <time>2018-05-19T08:51:26Z</time>
      </trkpt>
      <trkpt lat="43.3055442944" lon="-4.4139669556">
        <ele>509.16</ele>
        <time>2018-05-19T08:51:27Z</time>
      </trkpt>
      <trkpt lat="43.3055223338" lon="-4.4141010661">
        <ele>508.67</ele>
        <time>2018-05-19T08:51:28Z</time>
      </trkpt>
      <trkpt lat="43.3055018820" lon="-4.4142369367">
        <ele>508.19</ele>
        <time>2018-05-19T08:51:29Z</time>
      </trkpt>
      <trkpt lat="43.3054831903" lon="-4.4143857993">
        <ele>506.75</ele>
        <time>2018-05-19T08:51:30Z</time>
      </trkpt>
      <trkpt lat="43.3054642472" lon="-4.4145344105">
        <ele>506.27</ele>
        <time>2018-05-19T08:51:31Z</time>
      </trkpt>
      <trkpt lat="43.3054422867" lon="-4.4146960974">
        <ele>504.83</ele>
        <time>2018-05-19T08:51:32Z</time>
      </trkpt>
      <trkpt lat="43.3054215834" lon="-4.4148599636">
        <ele>504.35</ele>
        <time>2018-05-19T08:51:33Z</time>
      </trkpt>
      <trkpt lat="43.3053883910" lon="-4.4151430205">
        <ele>502.91</ele>
        <time>2018-05-19T08:51:35Z</time>
      </trkpt>
      <trkpt lat="43.3053703699" lon="-4.4153016899">
        <ele>501.95</ele>
        <time>2018-05-19T08:51:36Z</time>
      </trkpt>
      <trkpt lat="43.3053505048" lon="-4.4154601078">
        <ele>500.98</ele>
        <time>2018-05-19T08:51:37Z</time>
      </trkpt>
      <trkpt lat="43.3053272031" lon="-4.4156321883">
        <ele>500.02</ele>
        <time>2018-05-19T08:51:38Z</time>
      </trkpt>
      <trkpt lat="43.3053079247" lon="-4.4157952163">
        <ele>499.06</ele>
        <time>2018-05-19T08:51:39Z</time>
      </trkpt>
      <trkpt lat="43.3052880596" lon="-4.4159677997">
        <ele>498.10</ele>
        <time>2018-05-19T08:51:40Z</time>
      </trkpt>
      <trkpt lat="43.3052652609" lon="-4.4161242060">
        <ele>497.14</ele>
        <time>2018-05-19T08:51:41Z</time>
      </trkpt>
      <trkpt lat="43.3052293025" lon="-4.4163152296">
        <ele>496.66</ele>
        <time>2018-05-19T08:51:42Z</time>
      </trkpt>
      <trkpt lat="43.3051859681" lon="-4.4164787605">
        <ele>495.22</ele>
        <time>2018-05-19T08:51:43Z</time>
      </trkpt>
      <trkpt lat="43.3051329944" lon="-4.4166170619">
        <ele>494.26</ele>
        <time>2018-05-19T08:51:44Z</time>
      </trkpt>
      <trkpt lat="43.3050507680" lon="-4.4167676009">
        <ele>493.29</ele>
        <time>2018-05-19T08:51:45Z</time>
      </trkpt>
      <trkpt lat="43.3049555495" lon="-4.4168885518">
        <ele>491.85</ele>
        <time>2018-05-19T08:51:46Z</time>
      </trkpt>
      <trkpt lat="43.3048492670" lon="-4.4169840217">
        <ele>490.89</ele>
        <time>2018-05-19T08:51:47Z</time>
      </trkpt>
      <trkpt lat="43.3047273941" lon="-4.4170593750">
        <ele>490.41</ele>
        <time>2018-05-19T08:51:48Z</time>
      </trkpt>
      <trkpt lat="43.3045932837" lon="-4.4171088282">
        <ele>488.97</ele>
        <time>2018-05-19T08:51:49Z</time>
      </trkpt>
      <trkpt lat="43.3044652082" lon="-4.4171373267">
        <ele>487.53</ele>
        <time>2018-05-19T08:51:50Z</time>
      </trkpt>
      <trkpt lat="43.3043219615" lon="-4.4171794876">
        <ele>486.56</ele>
        <time>2018-05-19T08:51:51Z</time>
      </trkpt>
      <trkpt lat="43.3042124100" lon="-4.4172266778">
        <ele>485.60</ele>
        <time>2018-05-19T08:51:52Z</time>
      </trkpt>
      <trkpt lat="43.3040825743" lon="-4.4173036236">
        <ele>484.64</ele>
        <time>2018-05-19T08:51:53Z</time>
      </trkpt>
      <trkpt lat="43.3039654791" lon="-4.4173995964">
        <ele>483.68</ele>
        <time>2018-05-19T08:51:54Z</time>
      </trkpt>
      <trkpt lat="43.3038517367" lon="-4.4175177813">
        <ele>482.72</ele>
        <time>2018-05-19T08:51:55Z</time>
      </trkpt>
      <trkpt lat="43.3037781436" lon="-4.4176090602">
        <ele>481.76</ele>
        <time>2018-05-19T08:51:56Z</time>
      </trkpt>
      <trkpt lat="43.3036818355" lon="-4.4177347887">
        <ele>482.72</ele>
        <time>2018-05-19T08:51:57Z</time>
      </trkpt>
      <trkpt lat="43.3035863657" lon="-4.4178565778">
        <ele>482.72</ele>
        <time>2018-05-19T08:51:58Z</time>
      </trkpt>
      <trkpt lat="43.3035130240" lon="-4.4179474376">
        <ele>482.72</ele>
        <time>2018-05-19T08:51:59Z</time>
      </trkpt>
      <trkpt lat="43.3034279477" lon="-4.4180457573">
        <ele>484.16</ele>
        <time>2018-05-19T08:52:00Z</time>
      </trkpt>
      <trkpt lat="43.3033561148" lon="-4.4181302469">
        <ele>484.64</ele>
        <time>2018-05-19T08:52:01Z</time>
      </trkpt>
      <trkpt lat="43.3032253571" lon="-4.4182822946">
        <ele>486.56</ele>
        <time>2018-05-19T08:52:03Z</time>
      </trkpt>
      <trkpt lat="43.3030916657" lon="-4.4184128847">
        <ele>488.01</ele>
        <time>2018-05-19T08:52:05Z</time>
      </trkpt>
      <trkpt lat="43.3029911667" lon="-4.4185013976">
        <ele>488.97</ele>
        <time>2018-05-19T08:52:07Z</time>
      </trkpt>
      <trkpt lat="43.3028890751" lon="-4.4185826182">
        <ele>490.41</ele>
        <time>2018-05-19T08:52:09Z</time>
      </trkpt>
      <trkpt lat="43.3027978800" lon="-4.4186560437">
        <ele>491.85</ele>
        <time>2018-05-19T08:52:11Z</time>
      </trkpt>
      <trkpt lat="43.3026804496" lon="-4.4187225122">
        <ele>493.29</ele>
        <time>2018-05-19T08:52:14Z</time>
      </trkpt>
      <trkpt lat="43.3025655337" lon="-4.4187606499">
        <ele>494.26</ele>
        <time>2018-05-19T08:52:17Z</time>
      </trkpt>
      <trkpt lat="43.3024743386" lon="-4.4188035652">
        <ele>495.70</ele>
        <time>2018-05-19T08:52:20Z</time>
      </trkpt>
      <trkpt lat="43.3023798745" lon="-4.4188458938">
        <ele>497.14</ele>
        <time>2018-05-19T08:52:23Z</time>
      </trkpt>
      <trkpt lat="43.3022850752" lon="-4.4188859593">
        <ele>497.62</ele>
        <time>2018-05-19T08:52:26Z</time>
      </trkpt>
      <trkpt lat="43.3022016753" lon="-4.4189416990">
        <ele>498.10</ele>
        <time>2018-05-19T08:52:29Z</time>
      </trkpt>
      <trkpt lat="43.3020981587" lon="-4.4190287869">
        <ele>499.06</ele>
        <time>2018-05-19T08:52:33Z</time>
      </trkpt>
      <trkpt lat="43.3020311035" lon="-4.4191150367">
        <ele>500.50</ele>
        <time>2018-05-19T08:52:36Z</time>
      </trkpt>
      <trkpt lat="43.3019532356" lon="-4.4192257617">
        <ele>500.98</ele>
        <time>2018-05-19T08:52:40Z</time>
      </trkpt>
      <trkpt lat="43.3018786367" lon="-4.4193323795">
        <ele>501.95</ele>
        <time>2018-05-19T08:52:44Z</time>
      </trkpt>
      <trkpt lat="43.3018043730" lon="-4.4194383267">
        <ele>502.91</ele>
        <time>2018-05-19T08:52:48Z</time>
      </trkpt>
      <trkpt lat="43.3017329592" lon="-4.4195430167">
        <ele>503.39</ele>
        <time>2018-05-19T08:52:52Z</time>
      </trkpt>
      <trkpt lat="43.3016509842" lon="-4.4196376484">
        <ele>503.87</ele>
        <time>2018-05-19T08:52:56Z</time>
      </trkpt>
      <trkpt lat="43.3015661594" lon="-4.4197023567">
        <ele>504.83</ele>
        <time>2018-05-19T08:53:00Z</time>
      </trkpt>
      <trkpt lat="43.3014784846" lon="-4.4197213836">
        <ele>505.79</ele>
        <time>2018-05-19T08:53:04Z</time>
      </trkpt>
      <trkpt lat="43.3013849426" lon="-4.4196827430">
        <ele>506.27</ele>
        <time>2018-05-19T08:53:08Z</time>
      </trkpt>
      <trkpt lat="43.3012989443" lon="-4.4195943978">
        <ele>507.23</ele>
        <time>2018-05-19T08:53:12Z</time>
      </trkpt>
      <trkpt lat="43.3012318052" lon="-4.4194567669">
        <ele>507.71</ele>
        <time>2018-05-19T08:53:16Z</time>
      </trkpt>
      <trkpt lat="43.3011770714" lon="-4.4193418510">
        <ele>508.67</ele>
        <time>2018-05-19T08:53:19Z</time>
      </trkpt>
      <trkpt lat="43.3011136204" lon="-4.4192394242">
        <ele>508.67</ele>
        <time>2018-05-19T08:53:22Z</time>
      </trkpt>
      <trkpt lat="43.3010303881" lon="-4.4191192277">
        <ele>508.67</ele>
        <time>2018-05-19T08:53:25Z</time>
      </trkpt>
      <trkpt lat="43.3009612374" lon="-4.4190437067">
        <ele>508.67</ele>
        <time>2018-05-19T08:53:27Z</time>
      </trkpt>
      <trkpt lat="43.3008758258" lon="-4.4189772382">
        <ele>508.67</ele>
        <time>2018-05-19T08:53:29Z</time>
      </trkpt>
      <trkpt lat="43.3007777575" lon="-4.4189430401">
        <ele>508.67</ele>
        <time>2018-05-19T08:53:31Z</time>
      </trkpt>
      <trkpt lat="43.3006704692" lon="-4.4189334847">
        <ele>508.19</ele>
        <time>2018-05-19T08:53:33Z</time>
      </trkpt>
      <trkpt lat="43.3005540445" lon="-4.4189298805">
        <ele>507.23</ele>
        <time>2018-05-19T08:53:35Z</time>
      </trkpt>
      <trkpt lat="43.3004346862" lon="-4.4189033937">
        <ele>506.75</ele>
        <time>2018-05-19T08:53:37Z</time>
      </trkpt>
      <trkpt lat="43.3003141545" lon="-4.4188198261">
        <ele>505.79</ele>
        <time>2018-05-19T08:53:39Z</time>
      </trkpt>
      <trkpt lat="43.3001761045" lon="-4.4186956063">
        <ele>504.35</ele>
        <time>2018-05-19T08:53:41Z</time>
      </trkpt>
      <trkpt lat="43.3000606857" lon="-4.4185730629">
        <ele>503.39</ele>
        <time>2018-05-19T08:53:43Z</time>
      </trkpt>
      <trkpt lat="43.2999333646" lon="-4.4184164051">
        <ele>502.91</ele>
        <time>2018-05-19T08:53:45Z</time>
      </trkpt>
      <trkpt lat="43.2998149283" lon="-4.4182342663">
        <ele>500.98</ele>
        <time>2018-05-19T08:53:47Z</time>
      </trkpt>
      <trkpt lat="43.2996999286" lon="-4.4180360343">
        <ele>500.02</ele>
        <time>2018-05-19T08:53:49Z</time>
      </trkpt>
      <trkpt lat="43.2996425126" lon="-4.4179275725">
        <ele>500.02</ele>
        <time>2018-05-19T08:53:50Z</time>
      </trkpt>
      <trkpt lat="43.2995814085" lon="-4.4178107288">
        <ele>499.06</ele>
        <time>2018-05-19T08:53:51Z</time>
      </trkpt>
      <trkpt lat="43.2995210588" lon="-4.4176973216">
        <ele>498.58</ele>
        <time>2018-05-19T08:53:52Z</time>
      </trkpt>
      <trkpt lat="43.2994023710" lon="-4.4174918812">
        <ele>497.14</ele>
        <time>2018-05-19T08:53:54Z</time>
      </trkpt>
      <trkpt lat="43.2993452065" lon="-4.4173803180">
        <ele>497.14</ele>
        <time>2018-05-19T08:53:55Z</time>
      </trkpt>
      <trkpt lat="43.2992898859" lon="-4.4172607083">
        <ele>496.18</ele>
        <time>2018-05-19T08:53:56Z</time>
      </trkpt>
      <trkpt lat="43.2992447075" lon="-4.4171455409">
        <ele>495.70</ele>
        <time>2018-05-19T08:53:57Z</time>
      </trkpt>
      <trkpt lat="43.2992089167" lon="-4.4170240872">
        <ele>495.22</ele>
        <time>2018-05-19T08:53:58Z</time>
      </trkpt>
      <trkpt lat="43.2991774008" lon="-4.4168931618">
        <ele>494.74</ele>
        <time>2018-05-19T08:53:59Z</time>
      </trkpt>
      <trkpt lat="43.2991519198" lon="-4.4167701993">
        <ele>494.74</ele>
        <time>2018-05-19T08:54:00Z</time>
      </trkpt>
      <trkpt lat="43.2991312165" lon="-4.4166380167">
        <ele>493.77</ele>
        <time>2018-05-19T08:54:01Z</time>
      </trkpt>
      <trkpt lat="43.2991148718" lon="-4.4164977875">
        <ele>493.77</ele>
        <time>2018-05-19T08:54:02Z</time>
      </trkpt>
      <trkpt lat="43.2991024666" lon="-4.4163666107">
        <ele>493.77</ele>
        <time>2018-05-19T08:54:03Z</time>
      </trkpt>
      <trkpt lat="43.2990905643" lon="-4.4161534589">
        <ele>493.77</ele>
        <time>2018-05-19T08:54:05Z</time>
      </trkpt>
      <trkpt lat="43.2990759797" lon="-4.4159343559">
        <ele>493.77</ele>
        <time>2018-05-19T08:54:07Z</time>
      </trkpt>
      <trkpt lat="43.2990590483" lon="-4.4157401472">
        <ele>495.22</ele>
        <time>2018-05-19T08:54:09Z</time>
      </trkpt>
      <trkpt lat="43.2990400214" lon="-4.4155683182">
        <ele>496.66</ele>
        <time>2018-05-19T08:54:11Z</time>
      </trkpt>
      <trkpt lat="43.2990175579" lon="-4.4154127501">
        <ele>498.10</ele>
        <time>2018-05-19T08:54:13Z</time>
      </trkpt>
      <trkpt lat="43.2989944238" lon="-4.4152397476">
        <ele>500.02</ele>
        <time>2018-05-19T08:54:16Z</time>
      </trkpt>
      <trkpt lat="43.2989544421" lon="-4.4150825869">
        <ele>501.46</ele>
        <time>2018-05-19T08:54:19Z</time>
      </trkpt>
      <trkpt lat="43.2989136223" lon="-4.4149256777">
        <ele>501.95</ele>
        <time>2018-05-19T08:54:22Z</time>
      </trkpt>
      <trkpt lat="43.2988786697" lon="-4.4147616439">
        <ele>502.91</ele>
        <time>2018-05-19T08:54:25Z</time>
      </trkpt>
      <trkpt lat="43.2988566253" lon="-4.4146202412">
        <ele>503.39</ele>
        <time>2018-05-19T08:54:28Z</time>
      </trkpt>
      <trkpt lat="43.2988339104" lon="-4.4144721329">
        <ele>503.87</ele>
        <time>2018-05-19T08:54:31Z</time>
      </trkpt>
      <trkpt lat="43.2987945154" lon="-4.4143415429">
        <ele>504.35</ele>
        <time>2018-05-19T08:54:34Z</time>
      </trkpt>
      <trkpt lat="43.2987455651" lon="-4.4142414629">
        <ele>505.31</ele>
        <time>2018-05-19T08:54:37Z</time>
      </trkpt>
      <trkpt lat="43.2986876462" lon="-4.4141485076">
        <ele>506.27</ele>
        <time>2018-05-19T08:54:40Z</time>
      </trkpt>
      <trkpt lat="43.2986220159" lon="-4.4140673708">
        <ele>506.75</ele>
        <time>2018-05-19T08:54:43Z</time>
      </trkpt>
      <trkpt lat="43.2985575590" lon="-4.4139761757">
        <ele>507.23</ele>
        <time>2018-05-19T08:54:46Z</time>
      </trkpt>
      <trkpt lat="43.2984983828" lon="-4.4138378743">
        <ele>508.19</ele>
        <time>2018-05-19T08:54:50Z</time>
      </trkpt>
      <trkpt lat="43.2984662801" lon="-4.4136923645">
        <ele>508.67</ele>
        <time>2018-05-19T08:54:54Z</time>
      </trkpt>
      <trkpt lat="43.2984770928" lon="-4.4135459326">
        <ele>509.64</ele>
        <time>2018-05-19T08:54:58Z</time>
      </trkpt>
      <trkpt lat="43.2984977961" lon="-4.4134191144">
        <ele>511.08</ele>
        <time>2018-05-19T08:55:02Z</time>
      </trkpt>
      <trkpt lat="43.2985404599" lon="-4.4132898655">
        <ele>512.04</ele>
        <time>2018-05-19T08:55:06Z</time>
      </trkpt>
      <trkpt lat="43.2985918410" lon="-4.4131706748">
        <ele>513.48</ele>
        <time>2018-05-19T08:55:10Z</time>
      </trkpt>
      <trkpt lat="43.2986703794" lon="-4.4130824134">
        <ele>513.96</ele>
        <time>2018-05-19T08:55:14Z</time>
      </trkpt>
      <trkpt lat="43.2987402845" lon="-4.4130008575">
        <ele>515.40</ele>
        <time>2018-05-19T08:55:18Z</time>
      </trkpt>
      <trkpt lat="43.2988191582" lon="-4.4129060581">
        <ele>516.37</ele>
        <time>2018-05-19T08:55:23Z</time>
      </trkpt>
      <trkpt lat="43.2988923322" lon="-4.4128227420">
        <ele>517.33</ele>
        <time>2018-05-19T08:55:28Z</time>
      </trkpt>
      <trkpt lat="43.2989478204" lon="-4.4127102569">
        <ele>518.29</ele>
        <time>2018-05-19T08:55:33Z</time>
      </trkpt>
      <trkpt lat="43.2989595551" lon="-4.4125716202">
        <ele>520.21</ele>
        <time>2018-05-19T08:55:38Z</time>
      </trkpt>
      <trkpt lat="43.2989298832" lon="-4.4124378450">
        <ele>521.17</ele>
        <time>2018-05-19T08:55:43Z</time>
      </trkpt>
      <trkpt lat="43.2988763228" lon="-4.4123241026">
        <ele>522.13</ele>
        <time>2018-05-19T08:55:48Z</time>
      </trkpt>
      <trkpt lat="43.2987956889" lon="-4.4122787565">
        <ele>523.09</ele>
        <time>2018-05-19T08:55:53Z</time>
      </trkpt>
      <trkpt lat="43.2987275440" lon="-4.4123608153">
        <ele>523.09</ele>
        <time>2018-05-19T08:55:59Z</time>
      </trkpt>
      <trkpt lat="43.2986351755" lon="-4.4124213327">
        <ele>523.09</ele>
        <time>2018-05-19T08:56:06Z</time>
      </trkpt>
      <trkpt lat="43.2986350916" lon="-4.4124271162">
        <ele>523.09</ele>
        <time>2018-05-19T08:58:18Z</time>
      </trkpt>
      <trkpt lat="43.2986044139" lon="-4.4124361686">
        <ele>524.54</ele>
        <time>2018-05-19T09:04:33Z</time>
      </trkpt>
      <trkpt lat="43.2985500991" lon="-4.4123247731">
        <ele>524.54</ele>
        <time>2018-05-19T09:04:52Z</time>
      </trkpt>
      <trkpt lat="43.2984915935" lon="-4.4122329913">
        <ele>524.54</ele>
        <time>2018-05-19T09:05:02Z</time>
      </trkpt>
      <trkpt lat="43.2983998954" lon="-4.4121870585">
        <ele>525.98</ele>
        <time>2018-05-19T09:05:11Z</time>
      </trkpt>
      <trkpt lat="43.2983945310" lon="-4.4122045767">
        <ele>525.02</ele>
        <time>2018-05-19T09:06:26Z</time>
      </trkpt>
      <trkpt lat="43.2983596623" lon="-4.4120684545">
        <ele>526.46</ele>
        <time>2018-05-19T09:06:35Z</time>
      </trkpt>
      <trkpt lat="43.2983123884" lon="-4.4119454920">
        <ele>527.42</ele>
        <time>2018-05-19T09:06:40Z</time>
      </trkpt>
      <trkpt lat="43.2982413936" lon="-4.4118829630">
        <ele>528.38</ele>
        <time>2018-05-19T09:06:44Z</time>
      </trkpt>
      <trkpt lat="43.2981673814" lon="-4.4118109625">
        <ele>529.34</ele>
        <time>2018-05-19T09:06:48Z</time>
      </trkpt>
      <trkpt lat="43.2980880886" lon="-4.4117370341">
        <ele>530.30</ele>
        <time>2018-05-19T09:06:52Z</time>
      </trkpt>
      <trkpt lat="43.2979936246" lon="-4.4116510358">
        <ele>530.79</ele>
        <time>2018-05-19T09:06:57Z</time>
      </trkpt>
      <trkpt lat="43.2979054470" lon="-4.4115736708">
        <ele>531.27</ele>
        <time>2018-05-19T09:07:01Z</time>
      </trkpt>
      <trkpt lat="43.2978101447" lon="-4.4114998262">
        <ele>531.27</ele>
        <time>2018-05-19T09:07:05Z</time>
      </trkpt>
      <trkpt lat="43.2977221347" lon="-4.4114247244">
        <ele>530.79</ele>
        <time>2018-05-19T09:07:08Z</time>
      </trkpt>
      <trkpt lat="43.2976095658" lon="-4.4113578368">
        <ele>530.79</ele>
        <time>2018-05-19T09:07:12Z</time>
      </trkpt>
      <trkpt lat="43.2974789757" lon="-4.4113077130">
        <ele>530.79</ele>
        <time>2018-05-19T09:07:15Z</time>
      </trkpt>
      <trkpt lat="43.2973625511" lon="-4.4112831540">
        <ele>528.86</ele>
        <time>2018-05-19T09:07:17Z</time>
      </trkpt>
      <trkpt lat="43.2972348947" lon="-4.4112937152">
        <ele>526.94</ele>
        <time>2018-05-19T09:07:19Z</time>
      </trkpt>
      <trkpt lat="43.2971201465" lon="-4.4113274943">
        <ele>525.98</ele>
        <time>2018-05-19T09:07:21Z</time>
      </trkpt>
      <trkpt lat="43.2969851140" lon="-4.4113322720">
        <ele>523.58</ele>
        <time>2018-05-19T09:07:23Z</time>
      </trkpt>
      <trkpt lat="43.2968654204" lon="-4.4112253189">
        <ele>522.13</ele>
        <time>2018-05-19T09:07:25Z</time>
      </trkpt>
      <trkpt lat="43.2967520133" lon="-4.4110950641">
        <ele>522.13</ele>
        <time>2018-05-19T09:07:27Z</time>
      </trkpt>
      <trkpt lat="43.2966095209" lon="-4.4110108260">
        <ele>521.65</ele>
        <time>2018-05-19T09:07:29Z</time>
      </trkpt>
      <trkpt lat="43.2965120394" lon="-4.4109923020">
        <ele>521.65</ele>
        <time>2018-05-19T09:07:31Z</time>
      </trkpt>
      <trkpt lat="43.2964024041" lon="-4.4110504724">
        <ele>525.02</ele>
        <time>2018-05-19T09:07:34Z</time>
      </trkpt>
      <trkpt lat="43.2963232789" lon="-4.4111425057">
        <ele>525.98</ele>
        <time>2018-05-19T09:07:37Z</time>
      </trkpt>
      <trkpt lat="43.2962610014" lon="-4.4112554938">
        <ele>526.94</ele>
        <time>2018-05-19T09:07:40Z</time>
      </trkpt>
      <trkpt lat="43.2962249592" lon="-4.4113997463">
        <ele>527.42</ele>
        <time>2018-05-19T09:07:44Z</time>
      </trkpt>
      <trkpt lat="43.2962136436" lon="-4.4115279056">
        <ele>527.42</ele>
        <time>2018-05-19T09:07:47Z</time>
      </trkpt>
      <trkpt lat="43.2961947005" lon="-4.4116756786">
        <ele>527.42</ele>
        <time>2018-05-19T09:07:50Z</time>
      </trkpt>
      <trkpt lat="43.2961564790" lon="-4.4118093699">
        <ele>527.42</ele>
        <time>2018-05-19T09:07:53Z</time>
      </trkpt>
      <trkpt lat="43.2960976381" lon="-4.4119380321">
        <ele>527.42</ele>
        <time>2018-05-19T09:07:56Z</time>
      </trkpt>
      <trkpt lat="43.2960030064" lon="-4.4120488409">
        <ele>527.42</ele>
        <time>2018-05-19T09:07:59Z</time>
      </trkpt>
      <trkpt lat="43.2959222887" lon="-4.4121205062">
        <ele>527.42</ele>
        <time>2018-05-19T09:08:01Z</time>
      </trkpt>
      <trkpt lat="43.2958450075" lon="-4.4121896569">
        <ele>527.42</ele>
        <time>2018-05-19T09:08:03Z</time>
      </trkpt>
      <trkpt lat="43.2957607694" lon="-4.4123283774">
        <ele>527.42</ele>
        <time>2018-05-19T09:08:06Z</time>
      </trkpt>
      <trkpt lat="43.2957176026" lon="-4.4124357495">
        <ele>527.42</ele>
        <time>2018-05-19T09:08:08Z</time>
      </trkpt>
      <trkpt lat="43.2956671435" lon="-4.4125374220">
        <ele>527.42</ele>
        <time>2018-05-19T09:08:10Z</time>
      </trkpt>
      <trkpt lat="43.2955843303" lon="-4.4126123562">
        <ele>527.42</ele>
        <time>2018-05-19T09:08:12Z</time>
      </trkpt>
      <trkpt lat="43.2954864297" lon="-4.4126565289">
        <ele>527.42</ele>
        <time>2018-05-19T09:08:14Z</time>
      </trkpt>
      <trkpt lat="43.2953629643" lon="-4.4127138611">
        <ele>527.90</ele>
        <time>2018-05-19T09:08:17Z</time>
      </trkpt>
      <trkpt lat="43.2952457014" lon="-4.4127954170">
        <ele>527.90</ele>
        <time>2018-05-19T09:08:20Z</time>
      </trkpt>
      <trkpt lat="43.2951566856" lon="-4.4129208103">
        <ele>527.90</ele>
        <time>2018-05-19T09:08:23Z</time>
      </trkpt>
      <trkpt lat="43.2951085735" lon="-4.4130448624">
        <ele>526.94</ele>
        <time>2018-05-19T09:08:25Z</time>
      </trkpt>
      <trkpt lat="43.2950503193" lon="-4.4131635502">
        <ele>525.98</ele>
        <time>2018-05-19T09:08:27Z</time>
      </trkpt>
      <trkpt lat="43.2949825097" lon="-4.4133043662">
        <ele>524.06</ele>
        <time>2018-05-19T09:08:29Z</time>
      </trkpt>
      <trkpt lat="43.2949333917" lon="-4.4134533964">
        <ele>522.61</ele>
        <time>2018-05-19T09:08:31Z</time>
      </trkpt>
      <trkpt lat="43.2949028816" lon="-4.4135887641">
        <ele>521.17</ele>
        <time>2018-05-19T09:08:33Z</time>
      </trkpt>
      <trkpt lat="43.2948791608" lon="-4.4137310889">
        <ele>520.21</ele>
        <time>2018-05-19T09:08:35Z</time>
      </trkpt>
      <trkpt lat="43.2948715333" lon="-4.4138589967">
        <ele>518.77</ele>
        <time>2018-05-19T09:08:37Z</time>
      </trkpt>
      <trkpt lat="43.2948616426" lon="-4.4139905926">
        <ele>517.33</ele>
        <time>2018-05-19T09:08:39Z</time>
      </trkpt>
      <trkpt lat="43.2948499080" lon="-4.4141547102">
        <ele>516.37</ele>
        <time>2018-05-19T09:08:42Z</time>
      </trkpt>
      <trkpt lat="43.2948310487" lon="-4.4143166486">
        <ele>515.40</ele>
        <time>2018-05-19T09:08:45Z</time>
      </trkpt>
      <trkpt lat="43.2947992813" lon="-4.4144509267">
        <ele>514.92</ele>
        <time>2018-05-19T09:08:48Z</time>
      </trkpt>
      <trkpt lat="43.2947730459" lon="-4.4145743083">
        <ele>513.96</ele>
        <time>2018-05-19T09:08:50Z</time>
      </trkpt>
      <trkpt lat="43.2947541028" lon="-4.4147209916">
        <ele>512.52</ele>
        <time>2018-05-19T09:08:52Z</time>
      </trkpt>
      <trkpt lat="43.2947445475" lon="-4.4148841873">
        <ele>512.04</ele>
        <time>2018-05-19T09:08:54Z</time>
      </trkpt>
      <trkpt lat="43.2947509177" lon="-4.4150513224">
        <ele>510.12</ele>
        <time>2018-05-19T09:08:56Z</time>
      </trkpt>
      <trkpt lat="43.2947681844" lon="-4.4152073935">
        <ele>509.64</ele>
        <time>2018-05-19T09:08:58Z</time>
      </trkpt>
      <trkpt lat="43.2948010415" lon="-4.4153334573">
        <ele>508.19</ele>
        <time>2018-05-19T09:09:00Z</time>
      </trkpt>
      <trkpt lat="43.2948264387" lon="-4.4154596888">
        <ele>506.75</ele>
        <time>2018-05-19T09:09:02Z</time>
      </trkpt>
      <trkpt lat="43.2948293723" lon="-4.4155990798">
        <ele>505.79</ele>
        <time>2018-05-19T09:09:04Z</time>
      </trkpt>
      <trkpt lat="43.2948208228" lon="-4.4157768600">
        <ele>504.83</ele>
        <time>2018-05-19T09:09:07Z</time>
      </trkpt>
      <trkpt lat="43.2948102616" lon="-4.4159316737">
        <ele>504.35</ele>
        <time>2018-05-19T09:09:10Z</time>
      </trkpt>
      <trkpt lat="43.2947556954" lon="-4.4160932768">
        <ele>502.91</ele>
        <time>2018-05-19T09:09:13Z</time>
      </trkpt>
      <trkpt lat="43.2946891431" lon="-4.4162274711">
        <ele>502.43</ele>
        <time>2018-05-19T09:09:16Z</time>
      </trkpt>
      <trkpt lat="43.2946327329" lon="-4.4163870625">
        <ele>499.06</ele>
        <time>2018-05-19T09:09:19Z</time>
      </trkpt>
      <trkpt lat="43.2945989538" lon="-4.4165205862">
        <ele>497.62</ele>
        <time>2018-05-19T09:09:21Z</time>
      </trkpt>
      <trkpt lat="43.2945849560" lon="-4.4166635815">
        <ele>494.74</ele>
        <time>2018-05-19T09:09:23Z</time>
      </trkpt>
      <trkpt lat="43.2945574634" lon="-4.4168165512">
        <ele>493.29</ele>
        <time>2018-05-19T09:09:25Z</time>
      </trkpt>
      <trkpt lat="43.2945018914" lon="-4.4169558585">
        <ele>491.37</ele>
        <time>2018-05-19T09:09:27Z</time>
      </trkpt>
      <trkpt lat="43.2944477443" lon="-4.4170799106">
        <ele>491.37</ele>
        <time>2018-05-19T09:09:29Z</time>
      </trkpt>
      <trkpt lat="43.2944079302" lon="-4.4172116742">
        <ele>490.41</ele>
        <time>2018-05-19T09:09:33Z</time>
      </trkpt>
      <trkpt lat="43.2943973690" lon="-4.4173534960">
        <ele>488.01</ele>
        <time>2018-05-19T09:09:36Z</time>
      </trkpt>
      <trkpt lat="43.2943795994" lon="-4.4175028615">
        <ele>487.53</ele>
        <time>2018-05-19T09:09:39Z</time>
      </trkpt>
      <trkpt lat="43.2943387795" lon="-4.4176137540">
        <ele>486.56</ele>
        <time>2018-05-19T09:09:42Z</time>
      </trkpt>
      <trkpt lat="43.2942754123" lon="-4.4177241437">
        <ele>485.12</ele>
        <time>2018-05-19T09:09:46Z</time>
      </trkpt>
      <trkpt lat="43.2942050043" lon="-4.4178621098">
        <ele>482.72</ele>
        <time>2018-05-19T09:09:49Z</time>
      </trkpt>
      <trkpt lat="43.2941787690" lon="-4.4180319272">
        <ele>480.80</ele>
        <time>2018-05-19T09:09:52Z</time>
      </trkpt>
      <trkpt lat="43.2941824570" lon="-4.4181597512">
        <ele>479.35</ele>
        <time>2018-05-19T09:09:54Z</time>
      </trkpt>
      <trkpt lat="43.2941701356" lon="-4.4183120504">
        <ele>477.91</ele>
        <time>2018-05-19T09:09:56Z</time>
      </trkpt>
      <trkpt lat="43.2941346802" lon="-4.4184542075">
        <ele>476.47</ele>
        <time>2018-05-19T09:09:59Z</time>
      </trkpt>
      <trkpt lat="43.2940811198" lon="-4.4185716379">
        <ele>475.51</ele>
        <time>2018-05-19T09:10:04Z</time>
      </trkpt>
      <trkpt lat="43.2940316666" lon="-4.4186846260">
        <ele>474.07</ele>
        <time>2018-05-19T09:10:08Z</time>
      </trkpt>
      <trkpt lat="43.2939724065" lon="-4.4188120309">
        <ele>472.14</ele>
        <time>2018-05-19T09:10:13Z</time>
      </trkpt>
      <trkpt lat="43.2939326763" lon="-4.4189294614">
        <ele>470.70</ele>
        <time>2018-05-19T09:10:16Z</time>
      </trkpt>
      <trkpt lat="43.2938914374" lon="-4.4190525915">
        <ele>468.78</ele>
        <time>2018-05-19T09:10:19Z</time>
      </trkpt>
      <trkpt lat="43.2938231248" lon="-4.4191598799">
        <ele>467.34</ele>
        <time>2018-05-19T09:10:22Z</time>
      </trkpt>
      <trkpt lat="43.2937313430" lon="-4.4192548469">
        <ele>464.93</ele>
        <time>2018-05-19T09:10:26Z</time>
      </trkpt>
      <trkpt lat="43.2936619408" lon="-4.4193451200">
        <ele>463.01</ele>
        <time>2018-05-19T09:10:29Z</time>
      </trkpt>
      <trkpt lat="43.2935879286" lon="-4.4194669928">
        <ele>461.09</ele>
        <time>2018-05-19T09:10:33Z</time>
      </trkpt>
      <trkpt lat="43.2935376372" lon="-4.4195878599">
        <ele>459.17</ele>
        <time>2018-05-19T09:10:37Z</time>
      </trkpt>
      <trkpt lat="43.2934877649" lon="-4.4197172765">
        <ele>456.76</ele>
        <time>2018-05-19T09:10:41Z</time>
      </trkpt>
      <trkpt lat="43.2934268285" lon="-4.4198342040">
        <ele>454.84</ele>
        <time>2018-05-19T09:10:45Z</time>
      </trkpt>
      <trkpt lat="43.2933632936" lon="-4.4199375529">
        <ele>453.40</ele>
        <time>2018-05-19T09:10:49Z</time>
      </trkpt>
      <trkpt lat="43.2932948135" lon="-4.4200489484">
        <ele>451.48</ele>
        <time>2018-05-19T09:10:52Z</time>
      </trkpt>
      <trkpt lat="43.2932371460" lon="-4.4201816339">
        <ele>450.52</ele>
        <time>2018-05-19T09:10:55Z</time>
      </trkpt>
      <trkpt lat="43.2931832504" lon="-4.4203149900">
        <ele>450.52</ele>
        <time>2018-05-19T09:10:58Z</time>
      </trkpt>
      <trkpt lat="43.2931281812" lon="-4.4204857294">
        <ele>449.55</ele>
        <time>2018-05-19T09:11:01Z</time>
      </trkpt>
      <trkpt lat="43.2930985093" lon="-4.4206106197">
        <ele>448.11</ele>
        <time>2018-05-19T09:11:03Z</time>
      </trkpt>
      <trkpt lat="43.2930656523" lon="-4.4207479991">
        <ele>445.71</ele>
        <time>2018-05-19T09:11:06Z</time>
      </trkpt>
      <trkpt lat="43.2930104155" lon="-4.4208909944">
        <ele>444.75</ele>
        <time>2018-05-19T09:11:10Z</time>
      </trkpt>
      <trkpt lat="43.2929683384" lon="-4.4210650027">
        <ele>441.38</ele>
        <time>2018-05-19T09:11:13Z</time>
      </trkpt>
      <trkpt lat="43.2929317094" lon="-4.4212165475">
        <ele>438.98</ele>
        <time>2018-05-19T09:11:15Z</time>
      </trkpt>
      <trkpt lat="43.2928803284" lon="-4.4213573635">
        <ele>438.98</ele>
        <time>2018-05-19T09:11:17Z</time>
      </trkpt>
      <trkpt lat="43.2928306237" lon="-4.4214907195">
        <ele>438.02</ele>
        <time>2018-05-19T09:11:19Z</time>
      </trkpt>
      <trkpt lat="43.2927861158" lon="-4.4216553401">
        <ele>436.58</ele>
        <time>2018-05-19T09:11:21Z</time>
      </trkpt>
      <trkpt lat="43.2927295379" lon="-4.4218279235">
        <ele>435.13</ele>
        <time>2018-05-19T09:11:23Z</time>
      </trkpt>
      <trkpt lat="43.2926798332" lon="-4.4220001716">
        <ele>432.25</ele>
        <time>2018-05-19T09:11:25Z</time>
      </trkpt>
      <trkpt lat="43.2926345710" lon="-4.4221771974">
        <ele>430.33</ele>
        <time>2018-05-19T09:11:27Z</time>
      </trkpt>
      <trkpt lat="43.2925858721" lon="-4.4223274849">
        <ele>428.89</ele>
        <time>2018-05-19T09:11:29Z</time>
      </trkpt>
      <trkpt lat="43.2925205771" lon="-4.4224548899">
        <ele>426.96</ele>
        <time>2018-05-19T09:11:31Z</time>
      </trkpt>
      <trkpt lat="43.2924292143" lon="-4.4225449953">
        <ele>425.52</ele>
        <time>2018-05-19T09:11:33Z</time>
      </trkpt>
      <trkpt lat="43.2923102751" lon="-4.4225834683">
        <ele>423.60</ele>
        <time>2018-05-19T09:11:35Z</time>
      </trkpt>
      <trkpt lat="43.2921871450" lon="-4.4225553051">
        <ele>421.68</ele>
        <time>2018-05-19T09:11:37Z</time>
      </trkpt>
      <trkpt lat="43.2920687087" lon="-4.4224955421">
        <ele>419.75</ele>
        <time>2018-05-19T09:11:39Z</time>
      </trkpt>
      <trkpt lat="43.2919850573" lon="-4.4224070292">
        <ele>419.27</ele>
        <time>2018-05-19T09:11:41Z</time>
      </trkpt>
      <trkpt lat="43.2918983884" lon="-4.4223198574">
        <ele>418.79</ele>
        <time>2018-05-19T09:11:43Z</time>
      </trkpt>
      <trkpt lat="43.2918049302" lon="-4.4222714100">
        <ele>417.35</ele>
        <time>2018-05-19T09:11:45Z</time>
      </trkpt>
      <trkpt lat="43.2916973066" lon="-4.4222432468">
        <ele>414.95</ele>
        <time>2018-05-19T09:11:47Z</time>
      </trkpt>
      <trkpt lat="43.2915813848" lon="-4.4222589210">
        <ele>412.54</ele>
        <time>2018-05-19T09:11:49Z</time>
      </trkpt>
      <trkpt lat="43.2914607693" lon="-4.4223345257">
        <ele>410.14</ele>
        <time>2018-05-19T09:11:51Z</time>
      </trkpt>
      <trkpt lat="43.2913743518" lon="-4.4224379584">
        <ele>408.22</ele>
        <time>2018-05-19T09:11:53Z</time>
      </trkpt>
      <trkpt lat="43.2912870962" lon="-4.4225232024">
        <ele>407.26</ele>
        <time>2018-05-19T09:11:55Z</time>
      </trkpt>
      <trkpt lat="43.2911983319" lon="-4.4225765113">
        <ele>405.33</ele>
        <time>2018-05-19T09:11:57Z</time>
      </trkpt>
      <trkpt lat="43.2911068853" lon="-4.4226883259">
        <ele>403.41</ele>
        <time>2018-05-19T09:11:59Z</time>
      </trkpt>
      <trkpt lat="43.2910332922" lon="-4.4228579756">
        <ele>401.97</ele>
        <time>2018-05-19T09:12:01Z</time>
      </trkpt>
      <trkpt lat="43.2909957413" lon="-4.4230003841">
        <ele>401.49</ele>
        <time>2018-05-19T09:12:03Z</time>
      </trkpt>
      <trkpt lat="43.2909462042" lon="-4.4231504202">
        <ele>400.53</ele>
        <time>2018-05-19T09:12:05Z</time>
      </trkpt>
      <trkpt lat="43.2908801548" lon="-4.4232734665">
        <ele>400.05</ele>
        <time>2018-05-19T09:12:07Z</time>
      </trkpt>
      <trkpt lat="43.2907923125" lon="-4.4233534299">
        <ele>399.08</ele>
        <time>2018-05-19T09:12:09Z</time>
      </trkpt>
      <trkpt lat="43.2906823419" lon="-4.4234151207">
        <ele>398.60</ele>
        <time>2018-05-19T09:12:11Z</time>
      </trkpt>
      <trkpt lat="43.2905885484" lon="-4.4235215709">
        <ele>397.16</ele>
        <time>2018-05-19T09:12:13Z</time>
      </trkpt>
      <trkpt lat="43.2905232534" lon="-4.4236190524">
        <ele>396.20</ele>
        <time>2018-05-19T09:12:15Z</time>
      </trkpt>
      <trkpt lat="43.2904607244" lon="-4.4237305317">
        <ele>394.76</ele>
        <time>2018-05-19T09:12:17Z</time>
      </trkpt>
      <trkpt lat="43.2904000394" lon="-4.4238453638">
        <ele>392.84</ele>
        <time>2018-05-19T09:12:19Z</time>
      </trkpt>
      <trkpt lat="43.2903074194" lon="-4.4239215553">
        <ele>392.36</ele>
        <time>2018-05-19T09:12:21Z</time>
      </trkpt>
      <trkpt lat="43.2901966106" lon="-4.4239657279">
        <ele>391.87</ele>
        <time>2018-05-19T09:12:23Z</time>
      </trkpt>
      <trkpt lat="43.2900852989" lon="-4.4239947293">
        <ele>390.43</ele>
        <time>2018-05-19T09:12:25Z</time>
      </trkpt>
      <trkpt lat="43.2899658568" lon="-4.4240073860">
        <ele>389.95</ele>
        <time>2018-05-19T09:12:27Z</time>
      </trkpt>
      <trkpt lat="43.2898668665" lon="-4.4240508042">
        <ele>388.99</ele>
        <time>2018-05-19T09:12:29Z</time>
      </trkpt>
      <trkpt lat="43.2897587400" lon="-4.4241264090">
        <ele>387.55</ele>
        <time>2018-05-19T09:12:31Z</time>
      </trkpt>
      <trkpt lat="43.2896507811" lon="-4.4242205378">
        <ele>385.63</ele>
        <time>2018-05-19T09:12:33Z</time>
      </trkpt>
      <trkpt lat="43.2895763498" lon="-4.4243494514">
        <ele>385.63</ele>
        <time>2018-05-19T09:12:35Z</time>
      </trkpt>
      <trkpt lat="43.2895290758" lon="-4.4245002419">
        <ele>384.18</ele>
        <time>2018-05-19T09:12:37Z</time>
      </trkpt>
      <trkpt lat="43.2894823886" lon="-4.4246867392">
        <ele>381.30</ele>
        <time>2018-05-19T09:12:39Z</time>
      </trkpt>
      <trkpt lat="43.2894320134" lon="-4.4248361047">
        <ele>380.34</ele>
        <time>2018-05-19T09:12:41Z</time>
      </trkpt>
      <trkpt lat="43.2893870864" lon="-4.4249748252">
        <ele>378.90</ele>
        <time>2018-05-19T09:12:43Z</time>
      </trkpt>
      <trkpt lat="43.2893553190" lon="-4.4250998832">
        <ele>377.45</ele>
        <time>2018-05-19T09:12:45Z</time>
      </trkpt>
      <trkpt lat="43.2893391419" lon="-4.4252249412">
        <ele>375.05</ele>
        <time>2018-05-19T09:12:47Z</time>
      </trkpt>
      <trkpt lat="43.2892874256" lon="-4.4253347442">
        <ele>373.61</ele>
        <time>2018-05-19T09:12:49Z</time>
      </trkpt>
      <trkpt lat="43.2892056182" lon="-4.4254318066">
        <ele>372.17</ele>
        <time>2018-05-19T09:12:51Z</time>
      </trkpt>
      <trkpt lat="43.2891078852" lon="-4.4255600497">
        <ele>370.24</ele>
        <time>2018-05-19T09:12:54Z</time>
      </trkpt>
      <trkpt lat="43.2890420035" lon="-4.4256675895">
        <ele>368.80</ele>
        <time>2018-05-19T09:12:56Z</time>
      </trkpt>
      <trkpt lat="43.2889867667" lon="-4.4257922284">
        <ele>367.36</ele>
        <time>2018-05-19T09:12:58Z</time>
      </trkpt>
      <trkpt lat="43.2889434323" lon="-4.4259175379">
        <ele>365.44</ele>
        <time>2018-05-19T09:13:00Z</time>
      </trkpt>
      <trkpt lat="43.2889086474" lon="-4.4260582700">
        <ele>364.00</ele>
        <time>2018-05-19T09:13:02Z</time>
      </trkpt>
      <trkpt lat="43.2888430171" lon="-4.4262093958">
        <ele>361.59</ele>
        <time>2018-05-19T09:13:05Z</time>
      </trkpt>
      <trkpt lat="43.2887594495" lon="-4.4263223000">
        <ele>360.15</ele>
        <time>2018-05-19T09:13:08Z</time>
      </trkpt>
      <trkpt lat="43.2886627223" lon="-4.4264459331">
        <ele>357.27</ele>
        <time>2018-05-19T09:13:11Z</time>
      </trkpt>
      <trkpt lat="43.2885682583" lon="-4.4265188556">
        <ele>356.31</ele>
        <time>2018-05-19T09:13:13Z</time>
      </trkpt>
      <trkpt lat="43.2884649094" lon="-4.4265766069">
        <ele>354.38</ele>
        <time>2018-05-19T09:13:15Z</time>
      </trkpt>
      <trkpt lat="43.2883736305" lon="-4.4266097154">
        <ele>353.42</ele>
        <time>2018-05-19T09:13:17Z</time>
      </trkpt>
      <trkpt lat="43.2882774062" lon="-4.4266335201">
        <ele>352.46</ele>
        <time>2018-05-19T09:13:19Z</time>
      </trkpt>
      <trkpt lat="43.2881832775" lon="-4.4266411476">
        <ele>351.98</ele>
        <time>2018-05-19T09:13:21Z</time>
      </trkpt>
      <trkpt lat="43.2880890649" lon="-4.4266798720">
        <ele>351.02</ele>
        <time>2018-05-19T09:13:23Z</time>
      </trkpt>
      <trkpt lat="43.2880047429" lon="-4.4267700613">
        <ele>350.06</ele>
        <time>2018-05-19T09:13:25Z</time>
      </trkpt>
      <trkpt lat="43.2879338320" lon="-4.4269017410">
        <ele>348.13</ele>
        <time>2018-05-19T09:13:28Z</time>
      </trkpt>
      <trkpt lat="43.2878581434" lon="-4.4269837998">
        <ele>346.21</ele>
        <time>2018-05-19T09:13:30Z</time>
      </trkpt>
      <trkpt lat="43.2877629250" lon="-4.4270039164">
        <ele>345.73</ele>
        <time>2018-05-19T09:13:34Z</time>
      </trkpt>
      <trkpt lat="43.2876639348" lon="-4.4269984681">
        <ele>345.25</ele>
        <time>2018-05-19T09:13:41Z</time>
      </trkpt>
      <trkpt lat="43.2875548862" lon="-4.4269853923">
        <ele>342.85</ele>
        <time>2018-05-19T09:13:48Z</time>
      </trkpt>
      <trkpt lat="43.2874475978" lon="-4.4270436466">
        <ele>340.44</ele>
        <time>2018-05-19T09:13:53Z</time>
      </trkpt>
      <trkpt lat="43.2873451710" lon="-4.4270881545">
        <ele>339.00</ele>
        <time>2018-05-19T09:13:58Z</time>
      </trkpt>
      <trkpt lat="43.2872269861" lon="-4.4271397870">
        <ele>336.60</ele>
        <time>2018-05-19T09:14:03Z</time>
      </trkpt>
      <trkpt lat="43.2871249784" lon="-4.4271601550">
        <ele>334.68</ele>
        <time>2018-05-19T09:14:07Z</time>
      </trkpt>
      <trkpt lat="43.2870246470" lon="-4.4271576405">
        <ele>331.79</ele>
        <time>2018-05-19T09:14:10Z</time>
      </trkpt>
      <trkpt lat="43.2869340386" lon="-4.4271804392">
        <ele>329.87</ele>
        <time>2018-05-19T09:14:12Z</time>
      </trkpt>
      <trkpt lat="43.2868528180" lon="-4.4272377715">
        <ele>328.43</ele>
        <time>2018-05-19T09:14:14Z</time>
      </trkpt>
      <trkpt lat="43.2867767941" lon="-4.4273073412">
        <ele>327.47</ele>
        <time>2018-05-19T09:14:16Z</time>
      </trkpt>
      <trkpt lat="43.2866907958" lon="-4.4273951836">
        <ele>325.54</ele>
        <time>2018-05-19T09:14:19Z</time>
      </trkpt>
      <trkpt lat="43.2866036240" lon="-4.4274908211">
        <ele>323.14</ele>
        <time>2018-05-19T09:14:22Z</time>
      </trkpt>
      <trkpt lat="43.2865058072" lon="-4.4275628217">
        <ele>321.22</ele>
        <time>2018-05-19T09:14:25Z</time>
      </trkpt>
      <trkpt lat="43.2864255086" lon="-4.4276483171">
        <ele>319.30</ele>
        <time>2018-05-19T09:14:28Z</time>
      </trkpt>
      <trkpt lat="43.2863437850" lon="-4.4277673401">
        <ele>317.37</ele>
        <time>2018-05-19T09:14:31Z</time>
      </trkpt>
      <trkpt lat="43.2862328086" lon="-4.4278670009">
        <ele>315.45</ele>
        <time>2018-05-19T09:14:34Z</time>
      </trkpt>
      <trkpt lat="43.2861519232" lon="-4.4279857725">
        <ele>314.01</ele>
        <time>2018-05-19T09:14:37Z</time>
      </trkpt>
      <trkpt lat="43.2860940881" lon="-4.4281525724">
        <ele>310.64</ele>
        <time>2018-05-19T09:14:40Z</time>
      </trkpt>
      <trkpt lat="43.2860335708" lon="-4.4283176959">
        <ele>308.72</ele>
        <time>2018-05-19T09:14:43Z</time>
      </trkpt>
      <trkpt lat="43.2859970257" lon="-4.4284537341">
        <ele>306.80</ele>
        <time>2018-05-19T09:14:45Z</time>
      </trkpt>
      <trkpt lat="43.2859697845" lon="-4.4285864197">
        <ele>305.84</ele>
        <time>2018-05-19T09:14:47Z</time>
      </trkpt>
      <trkpt lat="43.2859504223" lon="-4.4287114777">
        <ele>303.91</ele>
        <time>2018-05-19T09:14:49Z</time>
      </trkpt>
      <trkpt lat="43.2859332394" lon="-4.4288793672">
        <ele>301.99</ele>
        <time>2018-05-19T09:14:52Z</time>
      </trkpt>
      <trkpt lat="43.2858940959" lon="-4.4290506095">
        <ele>299.11</ele>
        <time>2018-05-19T09:14:55Z</time>
      </trkpt>
      <trkpt lat="43.2858590595" lon="-4.4292164873">
        <ele>298.15</ele>
        <time>2018-05-19T09:14:58Z</time>
      </trkpt>
      <trkpt lat="43.2858465705" lon="-4.4294053316">
        <ele>295.26</ele>
        <time>2018-05-19T09:15:01Z</time>
      </trkpt>
      <trkpt lat="43.2858335786" lon="-4.4295779988">
        <ele>293.34</ele>
        <time>2018-05-19T09:15:04Z</time>
      </trkpt>
      <trkpt lat="43.2858241070" lon="-4.4297204074">
        <ele>291.42</ele>
        <time>2018-05-19T09:15:06Z</time>
      </trkpt>
      <trkpt lat="43.2858197484" lon="-4.4298540149">
        <ele>289.97</ele>
        <time>2018-05-19T09:15:08Z</time>
      </trkpt>
      <trkpt lat="43.2858236879" lon="-4.4300016202">
        <ele>288.53</ele>
        <time>2018-05-19T09:15:10Z</time>
      </trkpt>
      <trkpt lat="43.2858269569" lon="-4.4301951583">
        <ele>286.61</ele>
        <time>2018-05-19T09:15:13Z</time>
      </trkpt>
      <trkpt lat="43.2858412899" lon="-4.4303360581">
        <ele>284.69</ele>
        <time>2018-05-19T09:15:15Z</time>
      </trkpt>
      <trkpt lat="43.2858607359" lon="-4.4304711744">
        <ele>283.25</ele>
        <time>2018-05-19T09:15:17Z</time>
      </trkpt>
      <trkpt lat="43.2858795952" lon="-4.4306075480">
        <ele>281.80</ele>
        <time>2018-05-19T09:15:19Z</time>
      </trkpt>
      <trkpt lat="43.2858899049" lon="-4.4307635352">
        <ele>278.92</ele>
        <time>2018-05-19T09:15:21Z</time>
      </trkpt>
      <trkpt lat="43.2858874742" lon="-4.4309376273">
        <ele>277.48</ele>
        <time>2018-05-19T09:15:24Z</time>
      </trkpt>
      <trkpt lat="43.2858583052" lon="-4.4311039243">
        <ele>275.07</ele>
        <time>2018-05-19T09:15:27Z</time>
      </trkpt>
      <trkpt lat="43.2858310640" lon="-4.4312694669">
        <ele>272.19</ele>
        <time>2018-05-19T09:15:30Z</time>
      </trkpt>
      <trkpt lat="43.2858179882" lon="-4.4314361829">
        <ele>270.27</ele>
        <time>2018-05-19T09:15:33Z</time>
      </trkpt>
      <trkpt lat="43.2858440559" lon="-4.4315796811">
        <ele>269.31</ele>
        <time>2018-05-19T09:15:36Z</time>
      </trkpt>
      <trkpt lat="43.2858755719" lon="-4.4317082595">
        <ele>267.86</ele>
        <time>2018-05-19T09:15:39Z</time>
      </trkpt>
      <trkpt lat="43.2858683635" lon="-4.4318779092">
        <ele>266.42</ele>
        <time>2018-05-19T09:15:42Z</time>
      </trkpt>
      <trkpt lat="43.2858737279" lon="-4.4320680108">
        <ele>264.98</ele>
        <time>2018-05-19T09:15:45Z</time>
      </trkpt>
      <trkpt lat="43.2858882286" lon="-4.4322465453">
        <ele>263.06</ele>
        <time>2018-05-19T09:15:48Z</time>
      </trkpt>
      <trkpt lat="43.2858722191" lon="-4.4324225653">
        <ele>260.65</ele>
        <time>2018-05-19T09:15:51Z</time>
      </trkpt>
      <trkpt lat="43.2858202513" lon="-4.4325261656">
        <ele>258.73</ele>
        <time>2018-05-19T09:15:53Z</time>
      </trkpt>
      <trkpt lat="43.2856879011" lon="-4.4325403310">
        <ele>257.77</ele>
        <time>2018-05-19T09:15:56Z</time>
      </trkpt>
      <trkpt lat="43.2856088597" lon="-4.4324317854">
        <ele>256.81</ele>
        <time>2018-05-19T09:15:58Z</time>
      </trkpt>
      <trkpt lat="43.2855567243" lon="-4.4323271792">
        <ele>256.33</ele>
        <time>2018-05-19T09:16:00Z</time>
      </trkpt>
      <trkpt lat="43.2854865678" lon="-4.4322100002">
        <ele>254.89</ele>
        <time>2018-05-19T09:16:02Z</time>
      </trkpt>
      <trkpt lat="43.2854006533" lon="-4.4320962578">
        <ele>252.96</ele>
        <time>2018-05-19T09:16:04Z</time>
      </trkpt>
      <trkpt lat="43.2853264734" lon="-4.4320091698">
        <ele>252.00</ele>
        <time>2018-05-19T09:16:06Z</time>
      </trkpt>
      <trkpt lat="43.2852444984" lon="-4.4319256861">
        <ele>251.04</ele>
        <time>2018-05-19T09:16:08Z</time>
      </trkpt>
      <trkpt lat="43.2851819694" lon="-4.4317898154">
        <ele>248.64</ele>
        <time>2018-05-19T09:16:10Z</time>
      </trkpt>
      <trkpt lat="43.2851418201" lon="-4.4316370972">
        <ele>246.72</ele>
        <time>2018-05-19T09:16:12Z</time>
      </trkpt>
      <trkpt lat="43.2851049397" lon="-4.4315123744">
        <ele>245.27</ele>
        <time>2018-05-19T09:16:14Z</time>
      </trkpt>
      <trkpt lat="43.2850529719" lon="-4.4313760847">
        <ele>243.83</ele>
        <time>2018-05-19T09:16:16Z</time>
      </trkpt>
      <trkpt lat="43.2850071229" lon="-4.4312410522">
        <ele>242.87</ele>
        <time>2018-05-19T09:16:18Z</time>
      </trkpt>
      <trkpt lat="43.2849682309" lon="-4.4311059359">
        <ele>240.95</ele>
        <time>2018-05-19T09:16:20Z</time>
      </trkpt>
      <trkpt lat="43.2849214599" lon="-4.4309715740">
        <ele>239.51</ele>
        <time>2018-05-19T09:16:22Z</time>
      </trkpt>
      <trkpt lat="43.2848778740" lon="-4.4308489468">
        <ele>238.54</ele>
        <time>2018-05-19T09:16:24Z</time>
      </trkpt>
      <trkpt lat="43.2848451845" lon="-4.4306942169">
        <ele>235.66</ele>
        <time>2018-05-19T09:16:26Z</time>
      </trkpt>
      <trkpt lat="43.2848351263" lon="-4.4305508025">
        <ele>234.70</ele>
        <time>2018-05-19T09:16:28Z</time>
      </trkpt>
      <trkpt lat="43.2847703341" lon="-4.4304255769">
        <ele>232.30</ele>
        <time>2018-05-19T09:16:31Z</time>
      </trkpt>
      <trkpt lat="43.2846534066" lon="-4.4305304345">
        <ele>228.93</ele>
        <time>2018-05-19T09:16:34Z</time>
      </trkpt>
      <trkpt lat="43.2845773827" lon="-4.4306285027">
        <ele>227.01</ele>
        <time>2018-05-19T09:16:36Z</time>
      </trkpt>
      <trkpt lat="43.2844835054" lon="-4.4307046942">
        <ele>225.57</ele>
        <time>2018-05-19T09:16:38Z</time>
      </trkpt>
      <trkpt lat="43.2843793184" lon="-4.4307454303">
        <ele>224.12</ele>
        <time>2018-05-19T09:16:40Z</time>
      </trkpt>
      <trkpt lat="43.2842784841" lon="-4.4307611044">
        <ele>222.20</ele>
        <time>2018-05-19T09:16:42Z</time>
      </trkpt>
      <trkpt lat="43.2841794938" lon="-4.4307446759">
        <ele>220.76</ele>
        <time>2018-05-19T09:16:44Z</time>
      </trkpt>
      <trkpt lat="43.2840989437" lon="-4.4306841586">
        <ele>219.80</ele>
        <time>2018-05-19T09:16:46Z</time>
      </trkpt>
      <trkpt lat="43.2840445451" lon="-4.4305695780">
        <ele>217.88</ele>
        <time>2018-05-19T09:16:48Z</time>
      </trkpt>
      <trkpt lat="43.2839391846" lon="-4.4304474536">
        <ele>214.99</ele>
        <time>2018-05-19T09:16:51Z</time>
      </trkpt>
      <trkpt lat="43.2838369254" lon="-4.4304390717">
        <ele>213.55</ele>
        <time>2018-05-19T09:16:53Z</time>
      </trkpt>
      <trkpt lat="43.2837432995" lon="-4.4304785505">
        <ele>211.15</ele>
        <time>2018-05-19T09:16:55Z</time>
      </trkpt>
      <trkpt lat="43.2836821117" lon="-4.4305664767">
        <ele>208.26</ele>
        <time>2018-05-19T09:16:57Z</time>
      </trkpt>
      <trkpt lat="43.2836376876" lon="-4.4307176024">
        <ele>205.38</ele>
        <time>2018-05-19T09:16:59Z</time>
      </trkpt>
      <trkpt lat="43.2835941855" lon="-4.4308869168">
        <ele>203.46</ele>
        <time>2018-05-19T09:17:01Z</time>
      </trkpt>
      <trkpt lat="43.2835285552" lon="-4.4310452510">
        <ele>200.57</ele>
        <time>2018-05-19T09:17:04Z</time>
      </trkpt>
      <trkpt lat="43.2834804431" lon="-4.4311858993">
        <ele>198.65</ele>
        <time>2018-05-19T09:17:06Z</time>
      </trkpt>
      <trkpt lat="43.2834293973" lon="-4.4313265476">
        <ele>195.77</ele>
        <time>2018-05-19T09:17:08Z</time>
      </trkpt>
      <trkpt lat="43.2833588216" lon="-4.4314505160">
        <ele>193.84</ele>
        <time>2018-05-19T09:17:10Z</time>
      </trkpt>
      <trkpt lat="43.2832876593" lon="-4.4315734785">
        <ele>190.96</ele>
        <time>2018-05-19T09:17:12Z</time>
      </trkpt>
      <trkpt lat="43.2832548022" lon="-4.4317526836">
        <ele>189.52</ele>
        <time>2018-05-19T09:17:15Z</time>
      </trkpt>
      <trkpt lat="43.2832435705" lon="-4.4319142029">
        <ele>187.11</ele>
        <time>2018-05-19T09:17:17Z</time>
      </trkpt>
      <trkpt lat="43.2832194306" lon="-4.4320861157">
        <ele>186.15</ele>
        <time>2018-05-19T09:17:19Z</time>
      </trkpt>
      <trkpt lat="43.2831790298" lon="-4.4322559331">
        <ele>184.71</ele>
        <time>2018-05-19T09:17:21Z</time>
      </trkpt>
      <trkpt lat="43.2831511181" lon="-4.4324274268">
        <ele>183.75</ele>
        <time>2018-05-19T09:17:23Z</time>
      </trkpt>
      <trkpt lat="43.2831100468" lon="-4.4325601961">
        <ele>181.83</ele>
        <time>2018-05-19T09:17:25Z</time>
      </trkpt>
      <trkpt lat="43.2830781117" lon="-4.4327205420">
        <ele>180.87</ele>
        <time>2018-05-19T09:17:27Z</time>
      </trkpt>
      <trkpt lat="43.2830853201" lon="-4.4328709133">
        <ele>180.38</ele>
        <time>2018-05-19T09:17:29Z</time>
      </trkpt>
      <trkpt lat="43.2831118908" lon="-4.4330203626">
        <ele>179.90</ele>
        <time>2018-05-19T09:17:31Z</time>
      </trkpt>
      <trkpt lat="43.2831320073" lon="-4.4331945386">
        <ele>177.50</ele>
        <time>2018-05-19T09:17:33Z</time>
      </trkpt>
      <trkpt lat="43.2831334323" lon="-4.4333858136">
        <ele>177.02</ele>
        <time>2018-05-19T09:17:35Z</time>
      </trkpt>
      <trkpt lat="43.2831051853" lon="-4.4335254561">
        <ele>176.54</ele>
        <time>2018-05-19T09:17:37Z</time>
      </trkpt>
      <trkpt lat="43.2830284908" lon="-4.4336316548">
        <ele>176.54</ele>
        <time>2018-05-19T09:17:39Z</time>
      </trkpt>
      <trkpt lat="43.2829357870" lon="-4.4336982910">
        <ele>175.58</ele>
        <time>2018-05-19T09:17:41Z</time>
      </trkpt>
      <trkpt lat="43.2828416582" lon="-4.4337510969">
        <ele>175.58</ele>
        <time>2018-05-19T09:17:43Z</time>
      </trkpt>
      <trkpt lat="43.2827515528" lon="-4.4337743148">
        <ele>175.58</ele>
        <time>2018-05-19T09:17:45Z</time>
      </trkpt>
      <trkpt lat="43.2826378942" lon="-4.4338206667">
        <ele>174.62</ele>
        <time>2018-05-19T09:17:48Z</time>
      </trkpt>
      <trkpt lat="43.2825402450" lon="-4.4338539429">
        <ele>174.62</ele>
        <time>2018-05-19T09:17:51Z</time>
      </trkpt>
      <trkpt lat="43.2824586052" lon="-4.4337447267">
        <ele>173.66</ele>
        <time>2018-05-19T09:17:53Z</time>
      </trkpt>
      <trkpt lat="43.2824057154" lon="-4.4336163159">
        <ele>173.66</ele>
        <time>2018-05-19T09:17:55Z</time>
      </trkpt>
      <trkpt lat="43.2823570166" lon="-4.4334695488">
        <ele>173.66</ele>
        <time>2018-05-19T09:17:57Z</time>
      </trkpt>
      <trkpt lat="43.2823047135" lon="-4.4333271403">
        <ele>173.66</ele>
        <time>2018-05-19T09:17:59Z</time>
      </trkpt>
      <trkpt lat="43.2822607923" lon="-4.4332000706">
        <ele>173.66</ele>
        <time>2018-05-19T09:18:01Z</time>
      </trkpt>
      <trkpt lat="43.2822150271" lon="-4.4330652058">
        <ele>173.66</ele>
        <time>2018-05-19T09:18:03Z</time>
      </trkpt>
      <trkpt lat="43.2821684238" lon="-4.4329242222">
        <ele>173.66</ele>
        <time>2018-05-19T09:18:05Z</time>
      </trkpt>
      <trkpt lat="43.2821158692" lon="-4.4327825680">
        <ele>173.66</ele>
        <time>2018-05-19T09:18:07Z</time>
      </trkpt>
      <trkpt lat="43.2820667513" lon="-4.4326422550">
        <ele>173.66</ele>
        <time>2018-05-19T09:18:09Z</time>
      </trkpt>
      <trkpt lat="43.2820132747" lon="-4.4324886147">
        <ele>173.66</ele>
        <time>2018-05-19T09:18:11Z</time>
      </trkpt>
      <trkpt lat="43.2819669228" lon="-4.4323603716">
        <ele>173.66</ele>
        <time>2018-05-19T09:18:13Z</time>
      </trkpt>
      <trkpt lat="43.2819183916" lon="-4.4322161190">
        <ele>173.66</ele>
        <time>2018-05-19T09:18:15Z</time>
      </trkpt>
      <trkpt lat="43.2818698604" lon="-4.4320724532">
        <ele>173.66</ele>
        <time>2018-05-19T09:18:17Z</time>
      </trkpt>
      <trkpt lat="43.2818243466" lon="-4.4319255184">
        <ele>173.66</ele>
        <time>2018-05-19T09:18:19Z</time>
      </trkpt>
      <trkpt lat="43.2817790844" lon="-4.4317684416">
        <ele>173.66</ele>
        <time>2018-05-19T09:18:21Z</time>
      </trkpt>
      <trkpt lat="43.2817276195" lon="-4.4315928407">
        <ele>173.66</ele>
        <time>2018-05-19T09:18:23Z</time>
      </trkpt>
      <trkpt lat="43.2816820219" lon="-4.4314490072">
        <ele>173.66</ele>
        <time>2018-05-19T09:18:25Z</time>
      </trkpt>
      <trkpt lat="43.2816308085" lon="-4.4312739093">
        <ele>173.66</ele>
        <time>2018-05-19T09:18:27Z</time>
      </trkpt>
      <trkpt lat="43.2815910783" lon="-4.4311250467">
        <ele>173.66</ele>
        <time>2018-05-19T09:18:29Z</time>
      </trkpt>
      <trkpt lat="43.2815533597" lon="-4.4309450872">
        <ele>173.66</ele>
        <time>2018-05-19T09:18:31Z</time>
      </trkpt>
      <trkpt lat="43.2815199997" lon="-4.4307727553">
        <ele>173.66</ele>
        <time>2018-05-19T09:18:33Z</time>
      </trkpt>
      <trkpt lat="43.2814902440" lon="-4.4305868447">
        <ele>173.66</ele>
        <time>2018-05-19T09:18:35Z</time>
      </trkpt>
      <trkpt lat="43.2814687025" lon="-4.4304205477">
        <ele>173.66</ele>
        <time>2018-05-19T09:18:37Z</time>
      </trkpt>
      <trkpt lat="43.2814548723" lon="-4.4302280154">
        <ele>173.66</ele>
        <time>2018-05-19T09:18:39Z</time>
      </trkpt>
      <trkpt lat="43.2814511005" lon="-4.4300218206">
        <ele>173.17</ele>
        <time>2018-05-19T09:18:41Z</time>
      </trkpt>
      <trkpt lat="43.2814495917" lon="-4.4298090879">
        <ele>172.69</ele>
        <time>2018-05-19T09:18:43Z</time>
      </trkpt>
      <trkpt lat="43.2814600691" lon="-4.4295854587">
        <ele>171.25</ele>
        <time>2018-05-19T09:18:45Z</time>
      </trkpt>
      <trkpt lat="43.2814685348" lon="-4.4294587243">
        <ele>170.77</ele>
        <time>2018-05-19T09:18:46Z</time>
      </trkpt>
      <trkpt lat="43.2814821973" lon="-4.4293234404">
        <ele>170.29</ele>
        <time>2018-05-19T09:18:47Z</time>
      </trkpt>
      <trkpt lat="43.2815008890" lon="-4.4292048365">
        <ele>170.29</ele>
        <time>2018-05-19T09:18:48Z</time>
      </trkpt>
      <trkpt lat="43.2815423794" lon="-4.4289817102">
        <ele>168.37</ele>
        <time>2018-05-19T09:18:50Z</time>
      </trkpt>
      <trkpt lat="43.2815738954" lon="-4.4288493600">
        <ele>167.89</ele>
        <time>2018-05-19T09:18:51Z</time>
      </trkpt>
      <trkpt lat="43.2816093508" lon="-4.4287229609">
        <ele>166.45</ele>
        <time>2018-05-19T09:18:52Z</time>
      </trkpt>
      <trkpt lat="43.2816489972" lon="-4.4285863359">
        <ele>165.96</ele>
        <time>2018-05-19T09:18:53Z</time>
      </trkpt>
      <trkpt lat="43.2816901524" lon="-4.4284557458">
        <ele>165.48</ele>
        <time>2018-05-19T09:18:54Z</time>
      </trkpt>
      <trkpt lat="43.2817347441" lon="-4.4283252396">
        <ele>164.52</ele>
        <time>2018-05-19T09:18:55Z</time>
      </trkpt>
      <trkpt lat="43.2817855384" lon="-4.4281867705">
        <ele>163.56</ele>
        <time>2018-05-19T09:18:56Z</time>
      </trkpt>
      <trkpt lat="43.2818376739" lon="-4.4280429371">
        <ele>162.60</ele>
        <time>2018-05-19T09:18:57Z</time>
      </trkpt>
      <trkpt lat="43.2818896417" lon="-4.4278908055">
        <ele>162.12</ele>
        <time>2018-05-19T09:18:58Z</time>
      </trkpt>
      <trkpt lat="43.2819342334" lon="-4.4277599640">
        <ele>161.64</ele>
        <time>2018-05-19T09:18:59Z</time>
      </trkpt>
      <trkpt lat="43.2820176333" lon="-4.4275275338">
        <ele>160.68</ele>
        <time>2018-05-19T09:19:01Z</time>
      </trkpt>
      <trkpt lat="43.2820649911" lon="-4.4273967762">
        <ele>160.68</ele>
        <time>2018-05-19T09:19:02Z</time>
      </trkpt>
      <trkpt lat="43.2821094152" lon="-4.4272724725">
        <ele>160.68</ele>
        <time>2018-05-19T09:19:03Z</time>
      </trkpt>
      <trkpt lat="43.2821529172" lon="-4.4271480851">
        <ele>160.68</ele>
        <time>2018-05-19T09:19:04Z</time>
      </trkpt>
      <trkpt lat="43.2821992692" lon="-4.4270205125">
        <ele>160.68</ele>
        <time>2018-05-19T09:19:05Z</time>
      </trkpt>
      <trkpt lat="43.2822429389" lon="-4.4269015733">
        <ele>160.68</ele>
        <time>2018-05-19T09:19:06Z</time>
      </trkpt>
      <trkpt lat="43.2822861895" lon="-4.4267838914">
        <ele>160.68</ele>
        <time>2018-05-19T09:19:07Z</time>
      </trkpt>
      <trkpt lat="43.2823332958" lon="-4.4266546424">
        <ele>160.68</ele>
        <time>2018-05-19T09:19:08Z</time>
      </trkpt>
      <trkpt lat="43.2823804021" lon="-4.4265211187">
        <ele>160.20</ele>
        <time>2018-05-19T09:19:09Z</time>
      </trkpt>
      <trkpt lat="43.2824179530" lon="-4.4264082983">
        <ele>160.68</ele>
        <time>2018-05-19T09:19:10Z</time>
      </trkpt>
      <trkpt lat="43.2824823260" lon="-4.4262060430">
        <ele>160.68</ele>
        <time>2018-05-19T09:19:12Z</time>
      </trkpt>
      <trkpt lat="43.2825537398" lon="-4.4259814918">
        <ele>160.68</ele>
        <time>2018-05-19T09:19:14Z</time>
      </trkpt>
      <trkpt lat="43.2826198731" lon="-4.4257655740">
        <ele>160.68</ele>
        <time>2018-05-19T09:19:16Z</time>
      </trkpt>
      <trkpt lat="43.2826658059" lon="-4.4255620614">
        <ele>160.68</ele>
        <time>2018-05-19T09:19:18Z</time>
      </trkpt>
      <trkpt lat="43.2826414146" lon="-4.4253436290">
        <ele>160.68</ele>
        <time>2018-05-19T09:19:20Z</time>
      </trkpt>
      <trkpt lat="43.2825392392" lon="-4.4251669385">
        <ele>160.68</ele>
        <time>2018-05-19T09:19:22Z</time>
      </trkpt>
      <trkpt lat="43.2824248262" lon="-4.4250499271">
        <ele>159.72</ele>
        <time>2018-05-19T09:19:24Z</time>
      </trkpt>
      <trkpt lat="43.2822975889" lon="-4.4249964505">
        <ele>159.72</ele>
        <time>2018-05-19T09:19:26Z</time>
      </trkpt>
      <trkpt lat="43.2821818348" lon="-4.4250463229">
        <ele>159.72</ele>
        <time>2018-05-19T09:19:28Z</time>
      </trkpt>
      <trkpt lat="43.2820794079" lon="-4.4251230173">
        <ele>162.12</ele>
        <time>2018-05-19T09:19:30Z</time>
      </trkpt>
      <trkpt lat="43.2819847763" lon="-4.4252180681">
        <ele>162.60</ele>
        <time>2018-05-19T09:19:32Z</time>
      </trkpt>
      <trkpt lat="43.2819142006" lon="-4.4252998754">
        <ele>163.56</ele>
        <time>2018-05-19T09:19:34Z</time>
      </trkpt>
      <trkpt lat="43.2818416972" lon="-4.4253932498">
        <ele>164.04</ele>
        <time>2018-05-19T09:19:36Z</time>
      </trkpt>
      <trkpt lat="43.2817682717" lon="-4.4254814275">
        <ele>164.52</ele>
        <time>2018-05-19T09:19:38Z</time>
      </trkpt>
      <trkpt lat="43.2816939242" lon="-4.4255640730">
        <ele>165.00</ele>
        <time>2018-05-19T09:19:40Z</time>
      </trkpt>
      <trkpt lat="43.2816225942" lon="-4.4256640691">
        <ele>165.48</ele>
        <time>2018-05-19T09:19:42Z</time>
      </trkpt>
      <trkpt lat="43.2815597299" lon="-4.4257732015">
        <ele>165.96</ele>
        <time>2018-05-19T09:19:44Z</time>
      </trkpt>
      <trkpt lat="43.2814857177" lon="-4.4259170350">
        <ele>166.45</ele>
        <time>2018-05-19T09:19:47Z</time>
      </trkpt>
      <trkpt lat="43.2814153098" lon="-4.4260712620">
        <ele>167.41</ele>
        <time>2018-05-19T09:19:50Z</time>
      </trkpt>
      <trkpt lat="43.2813584805" lon="-4.4262306858">
        <ele>168.85</ele>
        <time>2018-05-19T09:19:53Z</time>
      </trkpt>
      <trkpt lat="43.2813015673" lon="-4.4263637904">
        <ele>169.33</ele>
        <time>2018-05-19T09:19:56Z</time>
      </trkpt>
      <trkpt lat="43.2812374458" lon="-4.4264950510">
        <ele>169.81</ele>
        <time>2018-05-19T09:19:59Z</time>
      </trkpt>
      <trkpt lat="43.2811602484" lon="-4.4266095478">
        <ele>170.29</ele>
        <time>2018-05-19T09:20:02Z</time>
      </trkpt>
      <trkpt lat="43.2810590789" lon="-4.4267170038">
        <ele>170.77</ele>
        <time>2018-05-19T09:20:05Z</time>
      </trkpt>
      <trkpt lat="43.2809569035" lon="-4.4267909322">
        <ele>171.25</ele>
        <time>2018-05-19T09:20:08Z</time>
      </trkpt>
      <trkpt lat="43.2808409818" lon="-4.4268501922">
        <ele>171.73</ele>
        <time>2018-05-19T09:20:11Z</time>
      </trkpt>
      <trkpt lat="43.2807157561" lon="-4.4268748350">
        <ele>172.21</ele>
        <time>2018-05-19T09:20:14Z</time>
      </trkpt>
      <trkpt lat="43.2806206215" lon="-4.4268729072">
        <ele>173.17</ele>
        <time>2018-05-19T09:20:16Z</time>
      </trkpt>
      <trkpt lat="43.2805013470" lon="-4.4268594962">
        <ele>173.17</ele>
        <time>2018-05-19T09:20:19Z</time>
      </trkpt>
      <trkpt lat="43.2803743612" lon="-4.4268356916">
        <ele>173.17</ele>
        <time>2018-05-19T09:20:22Z</time>
      </trkpt>
      <trkpt lat="43.2802532427" lon="-4.4268138148">
        <ele>173.66</ele>
        <time>2018-05-19T09:20:25Z</time>
      </trkpt>
      <trkpt lat="43.2801389135" lon="-4.4267924409">
        <ele>174.14</ele>
        <time>2018-05-19T09:20:28Z</time>
      </trkpt>
      <trkpt lat="43.2800250035" lon="-4.4267695583">
        <ele>174.62</ele>
        <time>2018-05-19T09:20:31Z</time>
      </trkpt>
      <trkpt lat="43.2799164578" lon="-4.4267450832">
        <ele>175.58</ele>
        <time>2018-05-19T09:20:34Z</time>
      </trkpt>
      <trkpt lat="43.2798058167" lon="-4.4267144892">
        <ele>176.06</ele>
        <time>2018-05-19T09:20:37Z</time>
      </trkpt>
      <trkpt lat="43.2797016297" lon="-4.4266951270">
        <ele>177.02</ele>
        <time>2018-05-19T09:20:40Z</time>
      </trkpt>
      <trkpt lat="43.2795884740" lon="-4.4266629405">
        <ele>177.02</ele>
        <time>2018-05-19T09:20:43Z</time>
      </trkpt>
      <trkpt lat="43.2794758212" lon="-4.4266364537">
        <ele>177.50</ele>
        <time>2018-05-19T09:20:46Z</time>
      </trkpt>
      <trkpt lat="43.2793531939" lon="-4.4266202766">
        <ele>177.98</ele>
        <time>2018-05-19T09:20:49Z</time>
      </trkpt>
      <trkpt lat="43.2792457379" lon="-4.4266062789">
        <ele>178.46</ele>
        <time>2018-05-19T09:20:52Z</time>
      </trkpt>
      <trkpt lat="43.2791316602" lon="-4.4265857432">
        <ele>178.94</ele>
        <time>2018-05-19T09:20:55Z</time>
      </trkpt>
      <trkpt lat="43.2790171634" lon="-4.4265394751">
        <ele>179.42</ele>
        <time>2018-05-19T09:20:58Z</time>
      </trkpt>
      <trkpt lat="43.2789010741" lon="-4.4264737610">
        <ele>179.42</ele>
        <time>2018-05-19T09:21:01Z</time>
      </trkpt>
      <trkpt lat="43.2787993178" lon="-4.4264129922">
        <ele>179.90</ele>
        <time>2018-05-19T09:21:04Z</time>
      </trkpt>
      <trkpt lat="43.2786895148" lon="-4.4263270777">
        <ele>179.90</ele>
        <time>2018-05-19T09:21:07Z</time>
      </trkpt>
      <trkpt lat="43.2785895187" lon="-4.4262315240">
        <ele>180.38</ele>
        <time>2018-05-19T09:21:10Z</time>
      </trkpt>
      <trkpt lat="43.2785050292" lon="-4.4261261635">
        <ele>180.38</ele>
        <time>2018-05-19T09:21:13Z</time>
      </trkpt>
      <trkpt lat="43.2784077153" lon="-4.4259988423">
        <ele>180.87</ele>
        <time>2018-05-19T09:21:16Z</time>
      </trkpt>
      <trkpt lat="43.2783135027" lon="-4.4258666597">
        <ele>180.87</ele>
        <time>2018-05-19T09:21:19Z</time>
      </trkpt>
      <trkpt lat="43.2782254089" lon="-4.4257313758">
        <ele>181.35</ele>
        <time>2018-05-19T09:21:22Z</time>
      </trkpt>
      <trkpt lat="43.2781504747" lon="-4.4256123528">
        <ele>181.83</ele>
        <time>2018-05-19T09:21:25Z</time>
      </trkpt>
      <trkpt lat="43.2780697569" lon="-4.4254834391">
        <ele>181.83</ele>
        <time>2018-05-19T09:21:28Z</time>
      </trkpt>
      <trkpt lat="43.2779828366" lon="-4.4253503345">
        <ele>182.31</ele>
        <time>2018-05-19T09:21:31Z</time>
      </trkpt>
      <trkpt lat="43.2778966706" lon="-4.4252244383">
        <ele>182.31</ele>
        <time>2018-05-19T09:21:34Z</time>
      </trkpt>
      <trkpt lat="43.2778032962" lon="-4.4251152221">
        <ele>182.79</ele>
        <time>2018-05-19T09:21:37Z</time>
      </trkpt>
      <trkpt lat="43.2776965108" lon="-4.4250069279">
        <ele>182.79</ele>
        <time>2018-05-19T09:21:40Z</time>
      </trkpt>
      <trkpt lat="43.2775874622" lon="-4.4249116257">
        <ele>183.27</ele>
        <time>2018-05-19T09:21:43Z</time>
      </trkpt>
      <trkpt lat="43.2775022183" lon="-4.4248530362">
        <ele>183.27</ele>
        <time>2018-05-19T09:21:45Z</time>
      </trkpt>
      <trkpt lat="43.2774018031" lon="-4.4247878250">
        <ele>184.23</ele>
        <time>2018-05-19T09:21:48Z</time>
      </trkpt>
      <trkpt lat="43.2772854622" lon="-4.4247179199">
        <ele>184.23</ele>
        <time>2018-05-19T09:21:51Z</time>
      </trkpt>
      <trkpt lat="43.2771628350" lon="-4.4246578217">
        <ele>184.23</ele>
        <time>2018-05-19T09:21:54Z</time>
      </trkpt>
      <trkpt lat="43.2770497631" lon="-4.4246012438">
        <ele>184.71</ele>
        <time>2018-05-19T09:21:57Z</time>
      </trkpt>
      <trkpt lat="43.2769301534" lon="-4.4245380443">
        <ele>185.19</ele>
        <time>2018-05-19T09:22:00Z</time>
      </trkpt>
      <trkpt lat="43.2768126391" lon="-4.4244706538">
        <ele>185.19</ele>
        <time>2018-05-19T09:22:03Z</time>
      </trkpt>
      <trkpt lat="43.2767250482" lon="-4.4244179316">
        <ele>185.67</ele>
        <time>2018-05-19T09:22:05Z</time>
      </trkpt>
      <trkpt lat="43.2766192686" lon="-4.4243444223">
        <ele>185.67</ele>
        <time>2018-05-19T09:22:08Z</time>
      </trkpt>
      <trkpt lat="43.2765055262" lon="-4.4242584240">
        <ele>186.63</ele>
        <time>2018-05-19T09:22:11Z</time>
      </trkpt>
      <trkpt lat="43.2763919514" lon="-4.4241625350">
        <ele>186.63</ele>
        <time>2018-05-19T09:22:14Z</time>
      </trkpt>
      <trkpt lat="43.2763114851" lon="-4.4240808953">
        <ele>186.63</ele>
        <time>2018-05-19T09:22:16Z</time>
      </trkpt>
      <trkpt lat="43.2762088068" lon="-4.4239605311">
        <ele>187.59</ele>
        <time>2018-05-19T09:22:19Z</time>
      </trkpt>
      <trkpt lat="43.2761113252" lon="-4.4238336291">
        <ele>187.59</ele>
        <time>2018-05-19T09:22:22Z</time>
      </trkpt>
      <trkpt lat="43.2760218065" lon="-4.4236992672">
        <ele>187.59</ele>
        <time>2018-05-19T09:22:25Z</time>
      </trkpt>
      <trkpt lat="43.2759585232" lon="-4.4236006960">
        <ele>188.56</ele>
        <time>2018-05-19T09:22:27Z</time>
      </trkpt>
      <trkpt lat="43.2758812420" lon="-4.4234601315">
        <ele>188.56</ele>
        <time>2018-05-19T09:22:30Z</time>
      </trkpt>
      <trkpt lat="43.2758100796" lon="-4.4233030546">
        <ele>189.04</ele>
        <time>2018-05-19T09:22:33Z</time>
      </trkpt>
      <trkpt lat="43.2757447846" lon="-4.4231432956">
        <ele>189.52</ele>
        <time>2018-05-19T09:22:36Z</time>
      </trkpt>
      <trkpt lat="43.2757001929" lon="-4.4230213389">
        <ele>189.52</ele>
        <time>2018-05-19T09:22:38Z</time>
      </trkpt>
      <trkpt lat="43.2756499853" lon="-4.4228677824">
        <ele>189.52</ele>
        <time>2018-05-19T09:22:41Z</time>
      </trkpt>
      <trkpt lat="43.2756157871" lon="-4.4227554649">
        <ele>189.52</ele>
        <time>2018-05-19T09:22:43Z</time>
      </trkpt>
      <trkpt lat="43.2755778171" lon="-4.4226373639">
        <ele>190.00</ele>
        <time>2018-05-19T09:22:45Z</time>
      </trkpt>
      <trkpt lat="43.2755379193" lon="-4.4225246273">
        <ele>190.00</ele>
        <time>2018-05-19T09:22:47Z</time>
      </trkpt>
      <trkpt lat="43.2754960936" lon="-4.4224033412">
        <ele>190.48</ele>
        <time>2018-05-19T09:22:49Z</time>
      </trkpt>
      <trkpt lat="43.2754401024" lon="-4.4222546462">
        <ele>190.48</ele>
        <time>2018-05-19T09:22:52Z</time>
      </trkpt>
      <trkpt lat="43.2753751427" lon="-4.4221055321">
        <ele>190.96</ele>
        <time>2018-05-19T09:22:55Z</time>
      </trkpt>
      <trkpt lat="43.2752919942" lon="-4.4219585974">
        <ele>191.92</ele>
        <time>2018-05-19T09:22:58Z</time>
      </trkpt>
      <trkpt lat="43.2752065826" lon="-4.4218295999">
        <ele>192.40</ele>
        <time>2018-05-19T09:23:01Z</time>
      </trkpt>
      <trkpt lat="43.2751065027" lon="-4.4217184559">
        <ele>192.88</ele>
        <time>2018-05-19T09:23:04Z</time>
      </trkpt>
      <trkpt lat="43.2750080992" lon="-4.4216254167">
        <ele>193.36</ele>
        <time>2018-05-19T09:23:07Z</time>
      </trkpt>
      <trkpt lat="43.2748942729" lon="-4.4215356465">
        <ele>193.84</ele>
        <time>2018-05-19T09:23:10Z</time>
      </trkpt>
      <trkpt lat="43.2747983001" lon="-4.4214715250">
        <ele>194.80</ele>
        <time>2018-05-19T09:23:13Z</time>
      </trkpt>
      <trkpt lat="43.2746880781" lon="-4.4214175455">
        <ele>195.77</ele>
        <time>2018-05-19T09:23:16Z</time>
      </trkpt>
      <trkpt lat="43.2745811250" lon="-4.4213594589">
        <ele>196.25</ele>
        <time>2018-05-19T09:23:19Z</time>
      </trkpt>
      <trkpt lat="43.2744777761" lon="-4.4213035516">
        <ele>197.69</ele>
        <time>2018-05-19T09:23:22Z</time>
      </trkpt>
      <trkpt lat="43.2743761037" lon="-4.4212473091">
        <ele>198.17</ele>
        <time>2018-05-19T09:23:25Z</time>
      </trkpt>
      <trkpt lat="43.2742733415" lon="-4.4211868756">
        <ele>198.65</ele>
        <time>2018-05-19T09:23:28Z</time>
      </trkpt>
      <trkpt lat="43.2741702441" lon="-4.4211184792">
        <ele>199.13</ele>
        <time>2018-05-19T09:23:31Z</time>
      </trkpt>
      <trkpt lat="43.2740797196" lon="-4.4210557826">
        <ele>200.09</ele>
        <time>2018-05-19T09:23:34Z</time>
      </trkpt>
      <trkpt lat="43.2739843335" lon="-4.4209973607">
        <ele>200.57</ele>
        <time>2018-05-19T09:23:37Z</time>
      </trkpt>
      <trkpt lat="43.2738846727" lon="-4.4209399447">
        <ele>201.05</ele>
        <time>2018-05-19T09:23:40Z</time>
      </trkpt>
      <trkpt lat="43.2737944834" lon="-4.4208751526">
        <ele>202.49</ele>
        <time>2018-05-19T09:23:43Z</time>
      </trkpt>
      <trkpt lat="43.2737073116" lon="-4.4208149705">
        <ele>202.49</ele>
        <time>2018-05-19T09:23:46Z</time>
      </trkpt>
      <trkpt lat="43.2736130152" lon="-4.4207516033">
        <ele>203.46</ele>
        <time>2018-05-19T09:23:49Z</time>
      </trkpt>
      <trkpt lat="43.2735006139" lon="-4.4206725620">
        <ele>204.42</ele>
        <time>2018-05-19T09:23:53Z</time>
      </trkpt>
      <trkpt lat="43.2733884640" lon="-4.4205951970">
        <ele>204.90</ele>
        <time>2018-05-19T09:23:56Z</time>
      </trkpt>
      <trkpt lat="43.2732973527" lon="-4.4205211010">
        <ele>205.86</ele>
        <time>2018-05-19T09:23:59Z</time>
      </trkpt>
      <trkpt lat="43.2731876336" lon="-4.4204205181">
        <ele>206.34</ele>
        <time>2018-05-19T09:24:03Z</time>
      </trkpt>
      <trkpt lat="43.2730974443" lon="-4.4203206059">
        <ele>206.82</ele>
        <time>2018-05-19T09:24:06Z</time>
      </trkpt>
      <trkpt lat="43.2730228454" lon="-4.4202371221">
        <ele>207.78</ele>
        <time>2018-05-19T09:24:09Z</time>
      </trkpt>
      <trkpt lat="43.2729625795" lon="-4.4201263133">
        <ele>207.78</ele>
        <time>2018-05-19T09:24:12Z</time>
      </trkpt>
      <trkpt lat="43.2728958596" lon="-4.4200030155">
        <ele>207.78</ele>
        <time>2018-05-19T09:24:15Z</time>
      </trkpt>
      <trkpt lat="43.2728454843" lon="-4.4198827352">
        <ele>208.74</ele>
        <time>2018-05-19T09:24:18Z</time>
      </trkpt>
      <trkpt lat="43.2727951929" lon="-4.4197520614">
        <ele>209.22</ele>
        <time>2018-05-19T09:24:21Z</time>
      </trkpt>
      <trkpt lat="43.2727406267" lon="-4.4196122512">
        <ele>209.22</ele>
        <time>2018-05-19T09:24:24Z</time>
      </trkpt>
      <trkpt lat="43.2727079373" lon="-4.4194904622">
        <ele>210.19</ele>
        <time>2018-05-19T09:24:27Z</time>
      </trkpt>
      <trkpt lat="43.2726779301" lon="-4.4193363190">
        <ele>210.67</ele>
        <time>2018-05-19T09:24:30Z</time>
      </trkpt>
      <trkpt lat="43.2726484258" lon="-4.4191494863">
        <ele>210.67</ele>
        <time>2018-05-19T09:24:33Z</time>
      </trkpt>
      <trkpt lat="43.2726231962" lon="-4.4190043118">
        <ele>211.15</ele>
        <time>2018-05-19T09:24:36Z</time>
      </trkpt>
      <trkpt lat="43.2725972962" lon="-4.4188636634">
        <ele>211.15</ele>
        <time>2018-05-19T09:24:39Z</time>
      </trkpt>
      <trkpt lat="43.2725696359" lon="-4.4187090173">
        <ele>211.63</ele>
        <time>2018-05-19T09:24:42Z</time>
      </trkpt>
      <trkpt lat="43.2725362759" lon="-4.4185467437">
        <ele>212.11</ele>
        <time>2018-05-19T09:24:45Z</time>
      </trkpt>
      <trkpt lat="43.2725055981" lon="-4.4184313249">
        <ele>212.11</ele>
        <time>2018-05-19T09:24:47Z</time>
      </trkpt>
      <trkpt lat="43.2724724058" lon="-4.4183126371">
        <ele>212.59</ele>
        <time>2018-05-19T09:24:49Z</time>
      </trkpt>
      <trkpt lat="43.2724316698" lon="-4.4181715697">
        <ele>213.07</ele>
        <time>2018-05-19T09:24:52Z</time>
      </trkpt>
      <trkpt lat="43.2723689731" lon="-4.4180216175">
        <ele>213.07</ele>
        <time>2018-05-19T09:24:55Z</time>
      </trkpt>
      <trkpt lat="43.2722916920" lon="-4.4178786222">
        <ele>213.07</ele>
        <time>2018-05-19T09:24:58Z</time>
      </trkpt>
      <trkpt lat="43.2722146623" lon="-4.4177573361">
        <ele>213.55</ele>
        <time>2018-05-19T09:25:01Z</time>
      </trkpt>
      <trkpt lat="43.2721243054" lon="-4.4176301826">
        <ele>213.55</ele>
        <time>2018-05-19T09:25:04Z</time>
      </trkpt>
      <trkpt lat="43.2720246445" lon="-4.4175201282">
        <ele>214.03</ele>
        <time>2018-05-19T09:25:07Z</time>
      </trkpt>
      <trkpt lat="43.2719513029" lon="-4.4174543303">
        <ele>214.03</ele>
        <time>2018-05-19T09:25:09Z</time>
      </trkpt>
      <trkpt lat="43.2718440145" lon="-4.4173702598">
        <ele>214.99</ele>
        <time>2018-05-19T09:25:12Z</time>
      </trkpt>
      <trkpt lat="43.2717659790" lon="-4.4173116703">
        <ele>214.99</ele>
        <time>2018-05-19T09:25:14Z</time>
      </trkpt>
      <trkpt lat="43.2716509793" lon="-4.4172244146">
        <ele>215.47</ele>
        <time>2018-05-19T09:25:17Z</time>
      </trkpt>
      <trkpt lat="43.2715651486" lon="-4.4171813317">
        <ele>215.95</ele>
        <time>2018-05-19T09:25:19Z</time>
      </trkpt>
      <trkpt lat="43.2714526635" lon="-4.4171101693">
        <ele>216.43</ele>
        <time>2018-05-19T09:25:22Z</time>
      </trkpt>
      <trkpt lat="43.2713345625" lon="-4.4170367438">
        <ele>216.43</ele>
        <time>2018-05-19T09:25:25Z</time>
      </trkpt>
      <trkpt lat="43.2712114323" lon="-4.4169620611">
        <ele>216.91</ele>
        <time>2018-05-19T09:25:28Z</time>
      </trkpt>
      <trkpt lat="43.2711271942" lon="-4.4169136137">
        <ele>216.91</ele>
        <time>2018-05-19T09:25:30Z</time>
      </trkpt>
      <trkpt lat="43.2710128650" lon="-4.4168483187">
        <ele>217.40</ele>
        <time>2018-05-19T09:25:33Z</time>
      </trkpt>
      <trkpt lat="43.2708942611" lon="-4.4167764857">
        <ele>217.40</ele>
        <time>2018-05-19T09:25:36Z</time>
      </trkpt>
      <trkpt lat="43.2707800996" lon="-4.4167067483">
        <ele>217.88</ele>
        <time>2018-05-19T09:25:39Z</time>
      </trkpt>
      <trkpt lat="43.2706596516" lon="-4.4166391063">
        <ele>218.36</ele>
        <time>2018-05-19T09:25:42Z</time>
      </trkpt>
      <trkpt lat="43.2705528662" lon="-4.4165800139">
        <ele>219.32</ele>
        <time>2018-05-19T09:25:45Z</time>
      </trkpt>
      <trkpt lat="43.2704380341" lon="-4.4165233523">
        <ele>219.80</ele>
        <time>2018-05-19T09:25:48Z</time>
      </trkpt>
      <trkpt lat="43.2703219447" lon="-4.4164607394">
        <ele>219.80</ele>
        <time>2018-05-19T09:25:51Z</time>
      </trkpt>
      <trkpt lat="43.2702215295" lon="-4.4164065924">
        <ele>220.76</ele>
        <time>2018-05-19T09:25:54Z</time>
      </trkpt>
      <trkpt lat="43.2701126486" lon="-4.4163484219">
        <ele>221.24</ele>
        <time>2018-05-19T09:25:57Z</time>
      </trkpt>
      <trkpt lat="43.2700057793" lon="-4.4162882399">
        <ele>221.72</ele>
        <time>2018-05-19T09:26:00Z</time>
      </trkpt>
      <trkpt lat="43.2698997483" lon="-4.4162295666">
        <ele>222.20</ele>
        <time>2018-05-19T09:26:03Z</time>
      </trkpt>
      <trkpt lat="43.2697935496" lon="-4.4161719829">
        <ele>223.16</ele>
        <time>2018-05-19T09:26:06Z</time>
      </trkpt>
      <trkpt lat="43.2696927991" lon="-4.4161124714">
        <ele>223.64</ele>
        <time>2018-05-19T09:26:09Z</time>
      </trkpt>
      <trkpt lat="43.2695853431" lon="-4.4160671253">
        <ele>224.12</ele>
        <time>2018-05-19T09:26:12Z</time>
      </trkpt>
      <trkpt lat="43.2694716845" lon="-4.4160144031">
        <ele>224.61</ele>
        <time>2018-05-19T09:26:15Z</time>
      </trkpt>
      <trkpt lat="43.2693681680" lon="-4.4159638602">
        <ele>225.57</ele>
        <time>2018-05-19T09:26:18Z</time>
      </trkpt>
      <trkpt lat="43.2692628913" lon="-4.4159141555">
        <ele>226.05</ele>
        <time>2018-05-19T09:26:21Z</time>
      </trkpt>
      <trkpt lat="43.2691576984" lon="-4.4158649538">
        <ele>226.53</ele>
        <time>2018-05-19T09:26:24Z</time>
      </trkpt>
      <trkpt lat="43.2690446265" lon="-4.4158074539">
        <ele>227.01</ele>
        <time>2018-05-19T09:26:27Z</time>
      </trkpt>
      <trkpt lat="43.2689403556" lon="-4.4157410692">
        <ele>227.01</ele>
        <time>2018-05-19T09:26:30Z</time>
      </trkpt>
      <trkpt lat="43.2688367553" lon="-4.4156567473">
        <ele>227.49</ele>
        <time>2018-05-19T09:26:33Z</time>
      </trkpt>
      <trkpt lat="43.2687318139" lon="-4.4155566674">
        <ele>227.49</ele>
        <time>2018-05-19T09:26:36Z</time>
      </trkpt>
      <trkpt lat="43.2686647587" lon="-4.4154700823">
        <ele>227.49</ele>
        <time>2018-05-19T09:26:38Z</time>
      </trkpt>
      <trkpt lat="43.2685778383" lon="-4.4153301883">
        <ele>227.49</ele>
        <time>2018-05-19T09:26:41Z</time>
      </trkpt>
      <trkpt lat="43.2685271278" lon="-4.4152147695">
        <ele>227.49</ele>
        <time>2018-05-19T09:26:43Z</time>
      </trkpt>
      <trkpt lat="43.2684770878" lon="-4.4150900468">
        <ele>227.49</ele>
        <time>2018-05-19T09:26:45Z</time>
      </trkpt>
      <trkpt lat="43.2684373576" lon="-4.4149552658">
        <ele>227.49</ele>
        <time>2018-05-19T09:26:47Z</time>
      </trkpt>
      <trkpt lat="43.2684106193" lon="-4.4148088340">
        <ele>227.49</ele>
        <time>2018-05-19T09:26:49Z</time>
      </trkpt>
      <trkpt lat="43.2683925983" lon="-4.4146647491">
        <ele>227.49</ele>
        <time>2018-05-19T09:26:51Z</time>
      </trkpt>
      <trkpt lat="43.2683821209" lon="-4.4145078398">
        <ele>227.49</ele>
        <time>2018-05-19T09:26:53Z</time>
      </trkpt>
      <trkpt lat="43.2683834620" lon="-4.4143541157">
        <ele>227.49</ele>
        <time>2018-05-19T09:26:55Z</time>
      </trkpt>
      <trkpt lat="43.2683912572" lon="-4.4142068457">
        <ele>227.49</ele>
        <time>2018-05-19T09:26:57Z</time>
      </trkpt>
      <trkpt lat="43.2683992200" lon="-4.4140514452">
        <ele>227.49</ele>
        <time>2018-05-19T09:26:59Z</time>
      </trkpt>
      <trkpt lat="43.2684082724" lon="-4.4139203522">
        <ele>227.49</ele>
        <time>2018-05-19T09:27:01Z</time>
      </trkpt>
      <trkpt lat="43.2684168220" lon="-4.4137882534">
        <ele>227.97</ele>
        <time>2018-05-19T09:27:03Z</time>
      </trkpt>
      <trkpt lat="43.2684217673" lon="-4.4136588369">
        <ele>228.45</ele>
        <time>2018-05-19T09:27:05Z</time>
      </trkpt>
      <trkpt lat="43.2684127986" lon="-4.4135290850">
        <ele>228.45</ele>
        <time>2018-05-19T09:27:07Z</time>
      </trkpt>
      <trkpt lat="43.2683877368" lon="-4.4134072959">
        <ele>229.41</ele>
        <time>2018-05-19T09:27:09Z</time>
      </trkpt>
      <trkpt lat="43.2683501858" lon="-4.4132830761">
        <ele>229.41</ele>
        <time>2018-05-19T09:27:11Z</time>
      </trkpt>
      <trkpt lat="43.2682832982" lon="-4.4131270889">
        <ele>229.41</ele>
        <time>2018-05-19T09:27:14Z</time>
      </trkpt>
      <trkpt lat="43.2682267204" lon="-4.4130263384">
        <ele>229.89</ele>
        <time>2018-05-19T09:27:16Z</time>
      </trkpt>
      <trkpt lat="43.2681697235" lon="-4.4129204750">
        <ele>230.37</ele>
        <time>2018-05-19T09:27:18Z</time>
      </trkpt>
      <trkpt lat="43.2681184262" lon="-4.4128168747">
        <ele>230.85</ele>
        <time>2018-05-19T09:27:20Z</time>
      </trkpt>
      <trkpt lat="43.2680532988" lon="-4.4127037190">
        <ele>230.85</ele>
        <time>2018-05-19T09:27:22Z</time>
      </trkpt>
      <trkpt lat="43.2679595053" lon="-4.4125640765">
        <ele>230.85</ele>
        <time>2018-05-19T09:27:25Z</time>
      </trkpt>
      <trkpt lat="43.2678746805" lon="-4.4124863762">
        <ele>230.85</ele>
        <time>2018-05-19T09:27:27Z</time>
      </trkpt>
      <trkpt lat="43.2677753549" lon="-4.4124484900">
        <ele>230.85</ele>
        <time>2018-05-19T09:27:29Z</time>
      </trkpt>
      <trkpt lat="43.2676730957" lon="-4.4124790840">
        <ele>230.85</ele>
        <time>2018-05-19T09:27:31Z</time>
      </trkpt>
      <trkpt lat="43.2675871812" lon="-4.4125877135">
        <ele>230.85</ele>
        <time>2018-05-19T09:27:33Z</time>
      </trkpt>
      <trkpt lat="43.2675485406" lon="-4.4127029646">
        <ele>230.85</ele>
        <time>2018-05-19T09:27:35Z</time>
      </trkpt>
      <trkpt lat="43.2675285917" lon="-4.4128752127">
        <ele>231.81</ele>
        <time>2018-05-19T09:27:38Z</time>
      </trkpt>
      <trkpt lat="43.2675528154" lon="-4.4130280986">
        <ele>232.78</ele>
        <time>2018-05-19T09:27:41Z</time>
      </trkpt>
      <trkpt lat="43.2675824035" lon="-4.4131827448">
        <ele>233.74</ele>
        <time>2018-05-19T09:27:44Z</time>
      </trkpt>
      <trkpt lat="43.2676101476" lon="-4.4133194536">
        <ele>234.22</ele>
        <time>2018-05-19T09:27:47Z</time>
      </trkpt>
      <trkpt lat="43.2676293422" lon="-4.4134538155">
        <ele>235.18</ele>
        <time>2018-05-19T09:27:50Z</time>
      </trkpt>
      <trkpt lat="43.2676383108" lon="-4.4136148319">
        <ele>236.62</ele>
        <time>2018-05-19T09:27:54Z</time>
      </trkpt>
      <trkpt lat="43.2676305994" lon="-4.4137700647">
        <ele>237.10</ele>
        <time>2018-05-19T09:27:58Z</time>
      </trkpt>
      <trkpt lat="43.2675753627" lon="-4.4139222801">
        <ele>238.06</ele>
        <time>2018-05-19T09:28:02Z</time>
      </trkpt>
      <trkpt lat="43.2675168570" lon="-4.4140322506">
        <ele>238.54</ele>
        <time>2018-05-19T09:28:05Z</time>
      </trkpt>
      <trkpt lat="43.2674544118" lon="-4.4141381141">
        <ele>239.02</ele>
        <time>2018-05-19T09:28:08Z</time>
      </trkpt>
      <trkpt lat="43.2673898712" lon="-4.4142403733">
        <ele>239.51</ele>
        <time>2018-05-19T09:28:11Z</time>
      </trkpt>
      <trkpt lat="43.2673281804" lon="-4.4143463206">
        <ele>239.99</ele>
        <time>2018-05-19T09:28:14Z</time>
      </trkpt>
      <trkpt lat="43.2672653999" lon="-4.4144599792">
        <ele>239.99</ele>
        <time>2018-05-19T09:28:17Z</time>
      </trkpt>
      <trkpt lat="43.2672078162" lon="-4.4145945925">
        <ele>239.99</ele>
        <time>2018-05-19T09:28:20Z</time>
      </trkpt>
      <trkpt lat="43.2671643142" lon="-4.4147178903">
        <ele>240.47</ele>
        <time>2018-05-19T09:28:23Z</time>
      </trkpt>
      <trkpt lat="43.2671116758" lon="-4.4148478936">
        <ele>240.47</ele>
        <time>2018-05-19T09:28:26Z</time>
      </trkpt>
      <trkpt lat="43.2670511585" lon="-4.4149788190">
        <ele>240.95</ele>
        <time>2018-05-19T09:28:29Z</time>
      </trkpt>
      <trkpt lat="43.2669948321" lon="-4.4150732830">
        <ele>240.95</ele>
        <time>2018-05-19T09:28:31Z</time>
      </trkpt>
      <trkpt lat="43.2669063192" lon="-4.4152145181">
        <ele>240.95</ele>
        <time>2018-05-19T09:28:34Z</time>
      </trkpt>
      <trkpt lat="43.2668318879" lon="-4.4153197110">
        <ele>240.95</ele>
        <time>2018-05-19T09:28:36Z</time>
      </trkpt>
      <trkpt lat="43.2667427044" lon="-4.4154233113">
        <ele>240.95</ele>
        <time>2018-05-19T09:28:38Z</time>
      </trkpt>
      <trkpt lat="43.2666360028" lon="-4.4155173562">
        <ele>240.95</ele>
        <time>2018-05-19T09:28:40Z</time>
      </trkpt>
      <trkpt lat="43.2665161416" lon="-4.4156283326">
        <ele>239.51</ele>
        <time>2018-05-19T09:28:42Z</time>
      </trkpt>
      <trkpt lat="43.2664059196" lon="-4.4157163426">
        <ele>238.54</ele>
        <time>2018-05-19T09:28:44Z</time>
      </trkpt>
      <trkpt lat="43.2662748266" lon="-4.4158112258">
        <ele>237.58</ele>
        <time>2018-05-19T09:28:46Z</time>
      </trkpt>
      <trkpt lat="43.2661340944" lon="-4.4159115572">
        <ele>236.62</ele>
        <time>2018-05-19T09:28:48Z</time>
      </trkpt>
      <trkpt lat="43.2659808733" lon="-4.4160224497">
        <ele>235.66</ele>
        <time>2018-05-19T09:28:50Z</time>
      </trkpt>
      <trkpt lat="43.2658082899" lon="-4.4161506929">
        <ele>233.26</ele>
        <time>2018-05-19T09:28:52Z</time>
      </trkpt>
      <trkpt lat="43.2657161728" lon="-4.4162164908">
        <ele>233.26</ele>
        <time>2018-05-19T09:28:53Z</time>
      </trkpt>
      <trkpt lat="43.2656264864" lon="-4.4162786845">
        <ele>232.78</ele>
        <time>2018-05-19T09:28:54Z</time>
      </trkpt>
      <trkpt lat="43.2654672302" lon="-4.4163827039">
        <ele>230.85</ele>
        <time>2018-05-19T09:28:56Z</time>
      </trkpt>
      <trkpt lat="43.2653698325" lon="-4.4164411258">
        <ele>229.89</ele>
        <time>2018-05-19T09:28:57Z</time>
      </trkpt>
      <trkpt lat="43.2652781345" lon="-4.4164981227">
        <ele>229.41</ele>
        <time>2018-05-19T09:28:58Z</time>
      </trkpt>
      <trkpt lat="43.2651789766" lon="-4.4165619090">
        <ele>228.45</ele>
        <time>2018-05-19T09:28:59Z</time>
      </trkpt>
      <trkpt lat="43.2650755439" lon="-4.4166272040">
        <ele>227.49</ele>
        <time>2018-05-19T09:29:00Z</time>
      </trkpt>
      <trkpt lat="43.2649732847" lon="-4.4166888949">
        <ele>227.01</ele>
        <time>2018-05-19T09:29:01Z</time>
      </trkpt>
      <trkpt lat="43.2648641523" lon="-4.4167552795">
        <ele>226.53</ele>
        <time>2018-05-19T09:29:02Z</time>
      </trkpt>
      <trkpt lat="43.2647571154" lon="-4.4168206584">
        <ele>226.53</ele>
        <time>2018-05-19T09:29:03Z</time>
      </trkpt>
      <trkpt lat="43.2646390144" lon="-4.4168940838">
        <ele>224.61</ele>
        <time>2018-05-19T09:29:04Z</time>
      </trkpt>
      <trkpt lat="43.2645138726" lon="-4.4169696048">
        <ele>223.16</ele>
        <time>2018-05-19T09:29:05Z</time>
      </trkpt>
      <trkpt lat="43.2644044049" lon="-4.4170359895">
        <ele>223.16</ele>
        <time>2018-05-19T09:29:06Z</time>
      </trkpt>
      <trkpt lat="43.2643172331" lon="-4.4170897175">
        <ele>222.68</ele>
        <time>2018-05-19T09:29:07Z</time>
      </trkpt>
      <trkpt lat="43.2642012276" lon="-4.4171572756">
        <ele>222.20</ele>
        <time>2018-05-19T09:29:08Z</time>
      </trkpt>
      <trkpt lat="43.2640895806" lon="-4.4172167033">
        <ele>221.24</ele>
        <time>2018-05-19T09:29:09Z</time>
      </trkpt>
      <trkpt lat="43.2639739104" lon="-4.4172732811">
        <ele>220.28</ele>
        <time>2018-05-19T09:29:10Z</time>
      </trkpt>
      <trkpt lat="43.2638636883" lon="-4.4173088204">
        <ele>220.28</ele>
        <time>2018-05-19T09:29:11Z</time>
      </trkpt>
      <trkpt lat="43.2637377083" lon="-4.4173241593">
        <ele>220.28</ele>
        <time>2018-05-19T09:29:12Z</time>
      </trkpt>
      <trkpt lat="43.2636174280" lon="-4.4173159450">
        <ele>220.28</ele>
        <time>2018-05-19T09:29:13Z</time>
      </trkpt>
      <trkpt lat="43.2634926215" lon="-4.4172829203">
        <ele>219.32</ele>
        <time>2018-05-19T09:29:14Z</time>
      </trkpt>
      <trkpt lat="43.2633694075" lon="-4.4172212295">
        <ele>218.84</ele>
        <time>2018-05-19T09:29:15Z</time>
      </trkpt>
      <trkpt lat="43.2632515579" lon="-4.4171385001">
        <ele>218.84</ele>
        <time>2018-05-19T09:29:16Z</time>
      </trkpt>
      <trkpt lat="43.2631447725" lon="-4.4170461316">
        <ele>217.88</ele>
        <time>2018-05-19T09:29:17Z</time>
      </trkpt>
      <trkpt lat="43.2630654797" lon="-4.4169670064">
        <ele>217.88</ele>
        <time>2018-05-19T09:29:18Z</time>
      </trkpt>
      <trkpt lat="43.2629667409" lon="-4.4168662559">
        <ele>215.95</ele>
        <time>2018-05-19T09:29:19Z</time>
      </trkpt>
      <trkpt lat="43.2628612965" lon="-4.4167669304">
        <ele>214.99</ele>
        <time>2018-05-19T09:29:20Z</time>
      </trkpt>
      <trkpt lat="43.2627460454" lon="-4.4166789204">
        <ele>213.55</ele>
        <time>2018-05-19T09:29:21Z</time>
      </trkpt>
      <trkpt lat="43.2626323868" lon="-4.4166121166">
        <ele>214.03</ele>
        <time>2018-05-19T09:29:22Z</time>
      </trkpt>
      <trkpt lat="43.2625146210" lon="-4.4165599812">
        <ele>213.07</ele>
        <time>2018-05-19T09:29:23Z</time>
      </trkpt>
      <trkpt lat="43.2623860426" lon="-4.4165225141">
        <ele>211.63</ele>
        <time>2018-05-19T09:29:24Z</time>
      </trkpt>
      <trkpt lat="43.2622670196" lon="-4.4165024813">
        <ele>211.63</ele>
        <time>2018-05-19T09:29:25Z</time>
      </trkpt>
      <trkpt lat="43.2621430513" lon="-4.4164868072">
        <ele>211.63</ele>
        <time>2018-05-19T09:29:26Z</time>
      </trkpt>
      <trkpt lat="43.2620179094" lon="-4.4164635055">
        <ele>210.19</ele>
        <time>2018-05-19T09:29:27Z</time>
      </trkpt>
      <trkpt lat="43.2618961204" lon="-4.4164205063">
        <ele>210.19</ele>
        <time>2018-05-19T09:29:28Z</time>
      </trkpt>
      <trkpt lat="43.2617898379" lon="-4.4163602404">
        <ele>210.19</ele>
        <time>2018-05-19T09:29:29Z</time>
      </trkpt>
      <trkpt lat="43.2617118023" lon="-4.4162963703">
        <ele>210.67</ele>
        <time>2018-05-19T09:29:30Z</time>
      </trkpt>
      <trkpt lat="43.2616270613" lon="-4.4161994755">
        <ele>209.70</ele>
        <time>2018-05-19T09:29:31Z</time>
      </trkpt>
      <trkpt lat="43.2615487743" lon="-4.4160865713">
        <ele>208.74</ele>
        <time>2018-05-19T09:29:32Z</time>
      </trkpt>
      <trkpt lat="43.2614740916" lon="-4.4159584958">
        <ele>208.26</ele>
        <time>2018-05-19T09:29:33Z</time>
      </trkpt>
      <trkpt lat="43.2614092156" lon="-4.4158300012">
        <ele>208.26</ele>
        <time>2018-05-19T09:29:34Z</time>
      </trkpt>
      <trkpt lat="43.2613499556" lon="-4.4156955555">
        <ele>208.26</ele>
        <time>2018-05-19T09:29:35Z</time>
      </trkpt>
      <trkpt lat="43.2612932939" lon="-4.4155528955">
        <ele>207.78</ele>
        <time>2018-05-19T09:29:36Z</time>
      </trkpt>
      <trkpt lat="43.2612391468" lon="-4.4154031947">
        <ele>206.82</ele>
        <time>2018-05-19T09:29:37Z</time>
      </trkpt>
      <trkpt lat="43.2611827366" lon="-4.4152470399">
        <ele>205.38</ele>
        <time>2018-05-19T09:29:38Z</time>
      </trkpt>
      <trkpt lat="43.2611295115" lon="-4.4150954951">
        <ele>205.38</ele>
        <time>2018-05-19T09:29:39Z</time>
      </trkpt>
      <trkpt lat="43.2610766217" lon="-4.4149358198">
        <ele>204.42</ele>
        <time>2018-05-19T09:29:40Z</time>
      </trkpt>
      <trkpt lat="43.2610388193" lon="-4.4148190599">
        <ele>204.42</ele>
        <time>2018-05-19T09:29:41Z</time>
      </trkpt>
      <trkpt lat="43.2609883603" lon="-4.4146753941">
        <ele>204.42</ele>
        <time>2018-05-19T09:29:42Z</time>
      </trkpt>
      <trkpt lat="43.2609388232" lon="-4.4145326503">
        <ele>203.94</ele>
        <time>2018-05-19T09:29:43Z</time>
      </trkpt>
      <trkpt lat="43.2608905435" lon="-4.4143847935">
        <ele>203.94</ele>
        <time>2018-05-19T09:29:44Z</time>
      </trkpt>
      <trkpt lat="43.2608398329" lon="-4.4142343383">
        <ele>202.01</ele>
        <time>2018-05-19T09:29:45Z</time>
      </trkpt>
      <trkpt lat="43.2607925590" lon="-4.4140987191">
        <ele>201.53</ele>
        <time>2018-05-19T09:29:46Z</time>
      </trkpt>
      <trkpt lat="43.2607436925" lon="-4.4139582384">
        <ele>200.09</ele>
        <time>2018-05-19T09:29:47Z</time>
      </trkpt>
      <trkpt lat="43.2606944907" lon="-4.4138189312">
        <ele>199.61</ele>
        <time>2018-05-19T09:29:48Z</time>
      </trkpt>
      <trkpt lat="43.2606443670" lon="-4.4136741757">
        <ele>199.61</ele>
        <time>2018-05-19T09:29:49Z</time>
      </trkpt>
      <trkpt lat="43.2605998591" lon="-4.4135387242">
        <ele>199.61</ele>
        <time>2018-05-19T09:29:50Z</time>
      </trkpt>
      <trkpt lat="43.2605476398" lon="-4.4133928791">
        <ele>198.65</ele>
        <time>2018-05-19T09:29:51Z</time>
      </trkpt>
      <trkpt lat="43.2604869548" lon="-4.4132319465">
        <ele>198.65</ele>
        <time>2018-05-19T09:29:52Z</time>
      </trkpt>
      <trkpt lat="43.2604361605" lon="-4.4130989257">
        <ele>197.69</ele>
        <time>2018-05-19T09:29:53Z</time>
      </trkpt>
      <trkpt lat="43.2603442110" lon="-4.4128646515">
        <ele>197.21</ele>
        <time>2018-05-19T09:29:55Z</time>
      </trkpt>
      <trkpt lat="43.2602899801" lon="-4.4127317984">
        <ele>197.21</ele>
        <time>2018-05-19T09:29:56Z</time>
      </trkpt>
      <trkpt lat="43.2602346595" lon="-4.4125947542">
        <ele>196.25</ele>
        <time>2018-05-19T09:29:57Z</time>
      </trkpt>
      <trkpt lat="43.2601809315" lon="-4.4124613982">
        <ele>195.28</ele>
        <time>2018-05-19T09:29:58Z</time>
      </trkpt>
      <trkpt lat="43.2601269521" lon="-4.4123361725">
        <ele>195.28</ele>
        <time>2018-05-19T09:29:59Z</time>
      </trkpt>
      <trkpt lat="43.2600725535" lon="-4.4122243579">
        <ele>195.28</ele>
        <time>2018-05-19T09:30:00Z</time>
      </trkpt>
      <trkpt lat="43.2600131258" lon="-4.4121044129">
        <ele>194.32</ele>
        <time>2018-05-19T09:30:01Z</time>
      </trkpt>
      <trkpt lat="43.2599469926" lon="-4.4119658601">
        <ele>194.32</ele>
        <time>2018-05-19T09:30:02Z</time>
      </trkpt>
      <trkpt lat="43.2598883193" lon="-4.4118402153">
        <ele>193.36</ele>
        <time>2018-05-19T09:30:03Z</time>
      </trkpt>
      <trkpt lat="43.2597868145" lon="-4.4116196875">
        <ele>193.36</ele>
        <time>2018-05-19T09:30:05Z</time>
      </trkpt>
      <trkpt lat="43.2597309072" lon="-4.4114926178">
        <ele>191.92</ele>
        <time>2018-05-19T09:30:06Z</time>
      </trkpt>
      <trkpt lat="43.2596799452" lon="-4.4113785401">
        <ele>192.40</ele>
        <time>2018-05-19T09:30:07Z</time>
      </trkpt>
      <trkpt lat="43.2596258819" lon="-4.4112599362">
        <ele>191.92</ele>
        <time>2018-05-19T09:30:08Z</time>
      </trkpt>
      <trkpt lat="43.2595729083" lon="-4.4111395720">
        <ele>191.92</ele>
        <time>2018-05-19T09:30:09Z</time>
      </trkpt>
      <trkpt lat="43.2595200185" lon="-4.4110206328">
        <ele>191.92</ele>
        <time>2018-05-19T09:30:10Z</time>
      </trkpt>
      <trkpt lat="43.2594662905" lon="-4.4108925574">
        <ele>191.44</ele>
        <time>2018-05-19T09:30:11Z</time>
      </trkpt>
      <trkpt lat="43.2594180945" lon="-4.4107742049">
        <ele>191.44</ele>
        <time>2018-05-19T09:30:12Z</time>
      </trkpt>
      <trkpt lat="43.2593642827" lon="-4.4106503204">
        <ele>191.44</ele>
        <time>2018-05-19T09:30:13Z</time>
      </trkpt>
      <trkpt lat="43.2593047712" lon="-4.4105219934">
        <ele>191.44</ele>
        <time>2018-05-19T09:30:14Z</time>
      </trkpt>
      <trkpt lat="43.2592447568" lon="-4.4103946723">
        <ele>191.44</ele>
        <time>2018-05-19T09:30:15Z</time>
      </trkpt>
      <trkpt lat="43.2591896877" lon="-4.4102789182">
        <ele>190.96</ele>
        <time>2018-05-19T09:30:16Z</time>
      </trkpt>
      <trkpt lat="43.2590931281" lon="-4.4100730587">
        <ele>189.52</ele>
        <time>2018-05-19T09:30:18Z</time>
      </trkpt>
      <trkpt lat="43.2590380590" lon="-4.4099545386">
        <ele>189.52</ele>
        <time>2018-05-19T09:30:19Z</time>
      </trkpt>
      <trkpt lat="43.2589829061" lon="-4.4098355155">
        <ele>189.04</ele>
        <time>2018-05-19T09:30:20Z</time>
      </trkpt>
      <trkpt lat="43.2589257415" lon="-4.4097177498">
        <ele>188.56</ele>
        <time>2018-05-19T09:30:21Z</time>
      </trkpt>
      <trkpt lat="43.2588622067" lon="-4.4095943682">
        <ele>188.56</ele>
        <time>2018-05-19T09:30:22Z</time>
      </trkpt>
      <trkpt lat="43.2587986719" lon="-4.4094801228">
        <ele>188.08</ele>
        <time>2018-05-19T09:30:23Z</time>
      </trkpt>
      <trkpt lat="43.2587323710" lon="-4.4093706552">
        <ele>186.63</ele>
        <time>2018-05-19T09:30:24Z</time>
      </trkpt>
      <trkpt lat="43.2586448640" lon="-4.4092390593">
        <ele>186.63</ele>
        <time>2018-05-19T09:30:25Z</time>
      </trkpt>
      <trkpt lat="43.2585581113" lon="-4.4091202039">
        <ele>185.19</ele>
        <time>2018-05-19T09:30:26Z</time>
      </trkpt>
      <trkpt lat="43.2584063150" lon="-4.4089422561">
        <ele>184.71</ele>
        <time>2018-05-19T09:30:28Z</time>
      </trkpt>
      <trkpt lat="43.2583135273" lon="-4.4088448584">
        <ele>184.71</ele>
        <time>2018-05-19T09:30:29Z</time>
      </trkpt>
      <trkpt lat="43.2582172193" lon="-4.4087488856">
        <ele>184.23</ele>
        <time>2018-05-19T09:30:30Z</time>
      </trkpt>
      <trkpt lat="43.2581159659" lon="-4.4086545054">
        <ele>182.79</ele>
        <time>2018-05-19T09:30:31Z</time>
      </trkpt>
      <trkpt lat="43.2580065820" lon="-4.4085551798">
        <ele>181.83</ele>
        <time>2018-05-19T09:30:32Z</time>
      </trkpt>
      <trkpt lat="43.2578948513" lon="-4.4084581174">
        <ele>180.38</ele>
        <time>2018-05-19T09:30:33Z</time>
      </trkpt>
      <trkpt lat="43.2577764988" lon="-4.4083557744">
        <ele>179.42</ele>
        <time>2018-05-19T09:30:34Z</time>
      </trkpt>
      <trkpt lat="43.2576805260" lon="-4.4082695246">
        <ele>178.94</ele>
        <time>2018-05-19T09:30:35Z</time>
      </trkpt>
      <trkpt lat="43.2575586531" lon="-4.4081588835">
        <ele>178.46</ele>
        <time>2018-05-19T09:30:36Z</time>
      </trkpt>
      <trkpt lat="43.2574423123" lon="-4.4080546126">
        <ele>178.46</ele>
        <time>2018-05-19T09:30:37Z</time>
      </trkpt>
      <trkpt lat="43.2573383767" lon="-4.4079597294">
        <ele>178.46</ele>
        <time>2018-05-19T09:30:38Z</time>
      </trkpt>
      <trkpt lat="43.2572622690" lon="-4.4078890700">
        <ele>177.98</ele>
        <time>2018-05-19T09:30:39Z</time>
      </trkpt>
      <trkpt lat="43.2571608480" lon="-4.4077951089">
        <ele>177.02</ele>
        <time>2018-05-19T09:30:40Z</time>
      </trkpt>
      <trkpt lat="43.2570647914" lon="-4.4077039976">
        <ele>177.02</ele>
        <time>2018-05-19T09:30:41Z</time>
      </trkpt>
      <trkpt lat="43.2569695730" lon="-4.4076148979">
        <ele>178.46</ele>
        <time>2018-05-19T09:30:42Z</time>
      </trkpt>
      <trkpt lat="43.2568757795" lon="-4.4075278100">
        <ele>178.94</ele>
        <time>2018-05-19T09:30:43Z</time>
      </trkpt>
      <trkpt lat="43.2567857578" lon="-4.4074408896">
        <ele>178.94</ele>
        <time>2018-05-19T09:30:44Z</time>
      </trkpt>
      <trkpt lat="43.2566936407" lon="-4.4073486887">
        <ele>178.94</ele>
        <time>2018-05-19T09:30:45Z</time>
      </trkpt>
      <trkpt lat="43.2566129230" lon="-4.4072646182">
        <ele>178.94</ele>
        <time>2018-05-19T09:30:46Z</time>
      </trkpt>
      <trkpt lat="43.2565244939" lon="-4.4071711600">
        <ele>177.50</ele>
        <time>2018-05-19T09:30:47Z</time>
      </trkpt>
      <trkpt lat="43.2564361487" lon="-4.4070769474">
        <ele>177.50</ele>
        <time>2018-05-19T09:30:48Z</time>
      </trkpt>
      <trkpt lat="43.2563478872" lon="-4.4069821481">
        <ele>177.98</ele>
        <time>2018-05-19T09:30:49Z</time>
      </trkpt>
      <trkpt lat="43.2562758029" lon="-4.4069059566">
        <ele>177.98</ele>
        <time>2018-05-19T09:30:50Z</time>
      </trkpt>
      <trkpt lat="43.2561542653" lon="-4.4067830779">
        <ele>177.98</ele>
        <time>2018-05-19T09:30:52Z</time>
      </trkpt>
      <trkpt lat="43.2560030557" lon="-4.4066568464">
        <ele>176.54</ele>
        <time>2018-05-19T09:30:54Z</time>
      </trkpt>
      <trkpt lat="43.2559163868" lon="-4.4066040404">
        <ele>174.14</ele>
        <time>2018-05-19T09:30:55Z</time>
      </trkpt>
      <trkpt lat="43.2558237668" lon="-4.4065646455">
        <ele>173.66</ele>
        <time>2018-05-19T09:30:56Z</time>
      </trkpt>
      <trkpt lat="43.2557179872" lon="-4.4065329619">
        <ele>173.17</ele>
        <time>2018-05-19T09:30:57Z</time>
      </trkpt>
      <trkpt lat="43.2556059211" lon="-4.4065130968">
        <ele>171.73</ele>
        <time>2018-05-19T09:30:58Z</time>
      </trkpt>
      <trkpt lat="43.2555019855" lon="-4.4065161981">
        <ele>170.77</ele>
        <time>2018-05-19T09:30:59Z</time>
      </trkpt>
      <trkpt lat="43.2553818729" lon="-4.4065253343">
        <ele>169.81</ele>
        <time>2018-05-19T09:31:00Z</time>
      </trkpt>
      <trkpt lat="43.2552784402" lon="-4.4065219816">
        <ele>167.89</ele>
        <time>2018-05-19T09:31:01Z</time>
      </trkpt>
      <trkpt lat="43.2550956309" lon="-4.4064908847">
        <ele>167.89</ele>
        <time>2018-05-19T09:31:03Z</time>
      </trkpt>
      <trkpt lat="43.2549894322" lon="-4.4064617157">
        <ele>167.41</ele>
        <time>2018-05-19T09:31:04Z</time>
      </trkpt>
      <trkpt lat="43.2548828982" lon="-4.4064311218">
        <ele>165.96</ele>
        <time>2018-05-19T09:31:05Z</time>
      </trkpt>
      <trkpt lat="43.2547608577" lon="-4.4063707720">
        <ele>165.48</ele>
        <time>2018-05-19T09:31:06Z</time>
      </trkpt>
      <trkpt lat="43.2546570897" lon="-4.4062988553">
        <ele>165.48</ele>
        <time>2018-05-19T09:31:07Z</time>
      </trkpt>
      <trkpt lat="43.2545110770" lon="-4.4061389286">
        <ele>164.52</ele>
        <time>2018-05-19T09:31:09Z</time>
      </trkpt>
      <trkpt lat="43.2544355560" lon="-4.4060354959">
        <ele>164.52</ele>
        <time>2018-05-19T09:31:10Z</time>
      </trkpt>
      <trkpt lat="43.2543152757" lon="-4.4058689475">
        <ele>165.00</ele>
        <time>2018-05-19T09:31:12Z</time>
      </trkpt>
      <trkpt lat="43.2541982643" lon="-4.4056956097">
        <ele>165.00</ele>
        <time>2018-05-19T09:31:14Z</time>
      </trkpt>
      <trkpt lat="43.2540918142" lon="-4.4055472501">
        <ele>165.00</ele>
        <time>2018-05-19T09:31:16Z</time>
      </trkpt>
      <trkpt lat="43.2539958414" lon="-4.4054158218">
        <ele>166.93</ele>
        <time>2018-05-19T09:31:18Z</time>
      </trkpt>
      <trkpt lat="43.2539059874" lon="-4.4052785262">
        <ele>167.41</ele>
        <time>2018-05-19T09:31:20Z</time>
      </trkpt>
      <trkpt lat="43.2538205758" lon="-4.4051603414">
        <ele>168.37</ele>
        <time>2018-05-19T09:31:22Z</time>
      </trkpt>
      <trkpt lat="43.2537479047" lon="-4.4050616026">
        <ele>167.89</ele>
        <time>2018-05-19T09:31:24Z</time>
      </trkpt>
      <trkpt lat="43.2536672708" lon="-4.4049452618">
        <ele>168.85</ele>
        <time>2018-05-19T09:31:26Z</time>
      </trkpt>
      <trkpt lat="43.2535800152" lon="-4.4048188627">
        <ele>168.85</ele>
        <time>2018-05-19T09:31:28Z</time>
      </trkpt>
      <trkpt lat="43.2535068411" lon="-4.4047049526">
        <ele>169.81</ele>
        <time>2018-05-19T09:31:30Z</time>
      </trkpt>
      <trkpt lat="43.2534236088" lon="-4.4045845885">
        <ele>169.81</ele>
        <time>2018-05-19T09:31:32Z</time>
      </trkpt>
      <trkpt lat="43.2533551287" lon="-4.4044832513">
        <ele>170.29</ele>
        <time>2018-05-19T09:31:34Z</time>
      </trkpt>
      <trkpt lat="43.2532765903" lon="-4.4043670781">
        <ele>170.29</ele>
        <time>2018-05-19T09:31:36Z</time>
      </trkpt>
      <trkpt lat="43.2532080263" lon="-4.4042402599">
        <ele>170.77</ele>
        <time>2018-05-19T09:31:38Z</time>
      </trkpt>
      <trkpt lat="43.2531447429" lon="-4.4041064847">
        <ele>170.77</ele>
        <time>2018-05-19T09:31:40Z</time>
      </trkpt>
      <trkpt lat="43.2530813757" lon="-4.4039639086">
        <ele>171.25</ele>
        <time>2018-05-19T09:31:42Z</time>
      </trkpt>
      <trkpt lat="43.2530345209" lon="-4.4038452208">
        <ele>171.25</ele>
        <time>2018-05-19T09:31:44Z</time>
      </trkpt>
      <trkpt lat="43.2529877499" lon="-4.4037080929">
        <ele>171.25</ele>
        <time>2018-05-19T09:31:46Z</time>
      </trkpt>
      <trkpt lat="43.2529494446" lon="-4.4035619963">
        <ele>172.21</ele>
        <time>2018-05-19T09:31:48Z</time>
      </trkpt>
      <trkpt lat="43.2529186830" lon="-4.4034156483">
        <ele>172.21</ele>
        <time>2018-05-19T09:31:50Z</time>
      </trkpt>
      <trkpt lat="43.2528927829" lon="-4.4032613374">
        <ele>172.21</ele>
        <time>2018-05-19T09:31:52Z</time>
      </trkpt>
      <trkpt lat="43.2528679725" lon="-4.4030762650">
        <ele>172.69</ele>
        <time>2018-05-19T09:31:54Z</time>
      </trkpt>
      <trkpt lat="43.2528589200" lon="-4.4029310904">
        <ele>172.69</ele>
        <time>2018-05-19T09:31:56Z</time>
      </trkpt>
      <trkpt lat="43.2528549805" lon="-4.4027714990">
        <ele>172.69</ele>
        <time>2018-05-19T09:31:58Z</time>
      </trkpt>
      <trkpt lat="43.2528546453" lon="-4.4026120752">
        <ele>173.17</ele>
        <time>2018-05-19T09:32:00Z</time>
      </trkpt>
      <trkpt lat="43.2528642844" lon="-4.4024571776">
        <ele>173.17</ele>
        <time>2018-05-19T09:32:02Z</time>
      </trkpt>
      <trkpt lat="43.2528818864" lon="-4.4022997655">
        <ele>173.66</ele>
        <time>2018-05-19T09:32:04Z</time>
      </trkpt>
      <trkpt lat="43.2528956328" lon="-4.4021333009">
        <ele>173.66</ele>
        <time>2018-05-19T09:32:06Z</time>
      </trkpt>
      <trkpt lat="43.2529048529" lon="-4.4020041358">
        <ele>173.66</ele>
        <time>2018-05-19T09:32:08Z</time>
      </trkpt>
      <trkpt lat="43.2529192697" lon="-4.4018547703">
        <ele>174.14</ele>
        <time>2018-05-19T09:32:10Z</time>
      </trkpt>
      <trkpt lat="43.2529346924" lon="-4.4017049856">
        <ele>174.62</ele>
        <time>2018-05-19T09:32:12Z</time>
      </trkpt>
      <trkpt lat="43.2529503666" lon="-4.4015439693">
        <ele>175.10</ele>
        <time>2018-05-19T09:32:14Z</time>
      </trkpt>
      <trkpt lat="43.2529662084" lon="-4.4013935141">
        <ele>175.10</ele>
        <time>2018-05-19T09:32:16Z</time>
      </trkpt>
      <trkpt lat="43.2529817987" lon="-4.4012607448">
        <ele>175.10</ele>
        <time>2018-05-19T09:32:18Z</time>
      </trkpt>
      <trkpt lat="43.2529949583" lon="-4.4011114631">
        <ele>175.58</ele>
        <time>2018-05-19T09:32:20Z</time>
      </trkpt>
      <trkpt lat="43.2530082017" lon="-4.4009635225">
        <ele>176.06</ele>
        <time>2018-05-19T09:32:22Z</time>
      </trkpt>
      <trkpt lat="43.2530232053" lon="-4.4008173421">
        <ele>176.54</ele>
        <time>2018-05-19T09:32:24Z</time>
      </trkpt>
      <trkpt lat="43.2530390471" lon="-4.4006513804">
        <ele>176.54</ele>
        <time>2018-05-19T09:32:26Z</time>
      </trkpt>
      <trkpt lat="43.2530527934" lon="-4.4005137496">
        <ele>177.02</ele>
        <time>2018-05-19T09:32:28Z</time>
      </trkpt>
      <trkpt lat="43.2530662045" lon="-4.4003586005">
        <ele>177.02</ele>
        <time>2018-05-19T09:32:30Z</time>
      </trkpt>
      <trkpt lat="43.2530750055" lon="-4.4002015237">
        <ele>177.02</ele>
        <time>2018-05-19T09:32:32Z</time>
      </trkpt>
      <trkpt lat="43.2530817110" lon="-4.4000343047">
        <ele>177.02</ele>
        <time>2018-05-19T09:32:34Z</time>
      </trkpt>
      <trkpt lat="43.2530858181" lon="-4.3998605479">
        <ele>177.02</ele>
        <time>2018-05-19T09:32:36Z</time>
      </trkpt>
      <trkpt lat="43.2530798670" lon="-4.3996638246">
        <ele>177.02</ele>
        <time>2018-05-19T09:32:38Z</time>
      </trkpt>
      <trkpt lat="43.2530750893" lon="-4.3995039817">
        <ele>177.02</ele>
        <time>2018-05-19T09:32:40Z</time>
      </trkpt>
      <trkpt lat="43.2530610915" lon="-4.3993255310">
        <ele>177.02</ele>
        <time>2018-05-19T09:32:42Z</time>
      </trkpt>
      <trkpt lat="43.2530408073" lon="-4.3991417997">
        <ele>177.02</ele>
        <time>2018-05-19T09:32:44Z</time>
      </trkpt>
      <trkpt lat="43.2530138176" lon="-4.3989585713">
        <ele>177.02</ele>
        <time>2018-05-19T09:32:46Z</time>
      </trkpt>
      <trkpt lat="43.2529789489" lon="-4.3987513706">
        <ele>177.02</ele>
        <time>2018-05-19T09:32:48Z</time>
      </trkpt>
      <trkpt lat="43.2529432420" lon="-4.3985870853">
        <ele>177.02</ele>
        <time>2018-05-19T09:32:50Z</time>
      </trkpt>
      <trkpt lat="43.2529051881" lon="-4.3984393124">
        <ele>177.02</ele>
        <time>2018-05-19T09:32:52Z</time>
      </trkpt>
      <trkpt lat="43.2528633624" lon="-4.3982794695">
        <ele>177.02</ele>
        <time>2018-05-19T09:32:54Z</time>
      </trkpt>
      <trkpt lat="43.2528234646" lon="-4.3981264159">
        <ele>177.02</ele>
        <time>2018-05-19T09:32:56Z</time>
      </trkpt>
      <trkpt lat="43.2527822256" lon="-4.3979617115">
        <ele>177.98</ele>
        <time>2018-05-19T09:32:58Z</time>
      </trkpt>
      <trkpt lat="43.2527453452" lon="-4.3977989350">
        <ele>178.46</ele>
        <time>2018-05-19T09:33:00Z</time>
      </trkpt>
      <trkpt lat="43.2527155895" lon="-4.3976654112">
        <ele>178.94</ele>
        <time>2018-05-19T09:33:02Z</time>
      </trkpt>
      <trkpt lat="43.2526828162" lon="-4.3975187279">
        <ele>179.42</ele>
        <time>2018-05-19T09:33:04Z</time>
      </trkpt>
      <trkpt lat="43.2526497915" lon="-4.3973746430">
        <ele>179.42</ele>
        <time>2018-05-19T09:33:06Z</time>
      </trkpt>
      <trkpt lat="43.2526169345" lon="-4.3972351681">
        <ele>180.38</ele>
        <time>2018-05-19T09:33:08Z</time>
      </trkpt>
      <trkpt lat="43.2525844965" lon="-4.3970850483">
        <ele>180.87</ele>
        <time>2018-05-19T09:33:10Z</time>
      </trkpt>
      <trkpt lat="43.2525565848" lon="-4.3969535362">
        <ele>180.87</ele>
        <time>2018-05-19T09:33:12Z</time>
      </trkpt>
      <trkpt lat="43.2525284216" lon="-4.3968098704">
        <ele>181.83</ele>
        <time>2018-05-19T09:33:14Z</time>
      </trkpt>
      <trkpt lat="43.2525014319" lon="-4.3966776039">
        <ele>182.31</ele>
        <time>2018-05-19T09:33:16Z</time>
      </trkpt>
      <trkpt lat="43.2524732687" lon="-4.3965526298">
        <ele>183.27</ele>
        <time>2018-05-19T09:33:18Z</time>
      </trkpt>
      <trkpt lat="43.2524468657" lon="-4.3964306731">
        <ele>183.27</ele>
        <time>2018-05-19T09:33:20Z</time>
      </trkpt>
      <trkpt lat="43.2524161041" lon="-4.3963054474">
        <ele>183.75</ele>
        <time>2018-05-19T09:33:22Z</time>
      </trkpt>
      <trkpt lat="43.2523713447" lon="-4.3961433414">
        <ele>184.23</ele>
        <time>2018-05-19T09:33:25Z</time>
      </trkpt>
      <trkpt lat="43.2523378171" lon="-4.3959622085">
        <ele>185.19</ele>
        <time>2018-05-19T09:33:28Z</time>
      </trkpt>
      <trkpt lat="43.2523088157" lon="-4.3958448619">
        <ele>185.67</ele>
        <time>2018-05-19T09:33:30Z</time>
      </trkpt>
      <trkpt lat="43.2522764616" lon="-4.3957121763">
        <ele>186.15</ele>
        <time>2018-05-19T09:33:32Z</time>
      </trkpt>
      <trkpt lat="43.2522348873" lon="-4.3955471367">
        <ele>186.63</ele>
        <time>2018-05-19T09:33:35Z</time>
      </trkpt>
      <trkpt lat="43.2521985937" lon="-4.3953720387">
        <ele>187.11</ele>
        <time>2018-05-19T09:33:38Z</time>
      </trkpt>
      <trkpt lat="43.2521629706" lon="-4.3952075858">
        <ele>187.59</ele>
        <time>2018-05-19T09:33:41Z</time>
      </trkpt>
      <trkpt lat="43.2521372382" lon="-4.3950830307">
        <ele>187.59</ele>
        <time>2018-05-19T09:33:43Z</time>
      </trkpt>
      <trkpt lat="43.2521054707" lon="-4.3949246127">
        <ele>188.08</ele>
        <time>2018-05-19T09:33:46Z</time>
      </trkpt>
      <trkpt lat="43.2520740386" lon="-4.3947483413">
        <ele>188.56</ele>
        <time>2018-05-19T09:33:49Z</time>
      </trkpt>
      <trkpt lat="43.2520510722" lon="-4.3945605028">
        <ele>189.04</ele>
        <time>2018-05-19T09:33:52Z</time>
      </trkpt>
      <trkpt lat="43.2520396728" lon="-4.3944252189">
        <ele>189.04</ele>
        <time>2018-05-19T09:33:54Z</time>
      </trkpt>
      <trkpt lat="43.2520236634" lon="-4.3942394760">
        <ele>189.52</ele>
        <time>2018-05-19T09:33:57Z</time>
      </trkpt>
      <trkpt lat="43.2520165388" lon="-4.3941067066">
        <ele>189.52</ele>
        <time>2018-05-19T09:33:59Z</time>
      </trkpt>
      <trkpt lat="43.2520133536" lon="-4.3939770386">
        <ele>190.00</ele>
        <time>2018-05-19T09:34:01Z</time>
      </trkpt>
      <trkpt lat="43.2520208135" lon="-4.3938487116">
        <ele>190.00</ele>
        <time>2018-05-19T09:34:03Z</time>
      </trkpt>
      <trkpt lat="43.2520240825" lon="-4.3937053811">
        <ele>190.00</ele>
        <time>2018-05-19T09:34:05Z</time>
      </trkpt>
      <trkpt lat="43.2520269323" lon="-4.3935789820">
        <ele>190.00</ele>
        <time>2018-05-19T09:34:07Z</time>
      </trkpt>
      <trkpt lat="43.2520349789" lon="-4.3934308738">
        <ele>190.00</ele>
        <time>2018-05-19T09:34:09Z</time>
      </trkpt>
      <trkpt lat="43.2520480547" lon="-4.3932879623">
        <ele>190.48</ele>
        <time>2018-05-19T09:34:11Z</time>
      </trkpt>
      <trkpt lat="43.2520566881" lon="-4.3931351602">
        <ele>190.48</ele>
        <time>2018-05-19T09:34:13Z</time>
      </trkpt>
      <trkpt lat="43.2520638127" lon="-4.3929650914">
        <ele>190.48</ele>
        <time>2018-05-19T09:34:15Z</time>
      </trkpt>
      <trkpt lat="43.2520708535" lon="-4.3927950226">
        <ele>190.48</ele>
        <time>2018-05-19T09:34:17Z</time>
      </trkpt>
      <trkpt lat="43.2520777266" lon="-4.3926435616">
        <ele>190.48</ele>
        <time>2018-05-19T09:34:19Z</time>
      </trkpt>
      <trkpt lat="43.2520856056" lon="-4.3924805336">
        <ele>190.48</ele>
        <time>2018-05-19T09:34:21Z</time>
      </trkpt>
      <trkpt lat="43.2520944905" lon="-4.3923047651">
        <ele>190.48</ele>
        <time>2018-05-19T09:34:23Z</time>
      </trkpt>
      <trkpt lat="43.2521041296" lon="-4.3921377137">
        <ele>190.48</ele>
        <time>2018-05-19T09:34:25Z</time>
      </trkpt>
      <trkpt lat="43.2521193847" lon="-4.3919491209">
        <ele>190.48</ele>
        <time>2018-05-19T09:34:27Z</time>
      </trkpt>
      <trkpt lat="43.2521281857" lon="-4.3917904515">
        <ele>189.52</ele>
        <time>2018-05-19T09:34:29Z</time>
      </trkpt>
      <trkpt lat="43.2521359809" lon="-4.3916144315">
        <ele>189.52</ele>
        <time>2018-05-19T09:34:31Z</time>
      </trkpt>
      <trkpt lat="43.2521445304" lon="-4.3914340530">
        <ele>189.52</ele>
        <time>2018-05-19T09:34:33Z</time>
      </trkpt>
      <trkpt lat="43.2521514036" lon="-4.3912566081">
        <ele>189.52</ele>
        <time>2018-05-19T09:34:35Z</time>
      </trkpt>
      <trkpt lat="43.2521584444" lon="-4.3910755590">
        <ele>189.52</ele>
        <time>2018-05-19T09:34:37Z</time>
      </trkpt>
      <trkpt lat="43.2521680836" lon="-4.3908790872">
        <ele>189.04</ele>
        <time>2018-05-19T09:34:39Z</time>
      </trkpt>
      <trkpt lat="43.2521794830" lon="-4.3907160591">
        <ele>189.04</ele>
        <time>2018-05-19T09:34:41Z</time>
      </trkpt>
      <trkpt lat="43.2521822490" lon="-4.3905381113">
        <ele>188.56</ele>
        <time>2018-05-19T09:34:43Z</time>
      </trkpt>
      <trkpt lat="43.2521913014" lon="-4.3903574813">
        <ele>188.56</ele>
        <time>2018-05-19T09:34:45Z</time>
      </trkpt>
      <trkpt lat="43.2522077300" lon="-4.3901773542">
        <ele>188.56</ele>
        <time>2018-05-19T09:34:47Z</time>
      </trkpt>
      <trkpt lat="43.2522219792" lon="-4.3899972271">
        <ele>188.56</ele>
        <time>2018-05-19T09:34:49Z</time>
      </trkpt>
      <trkpt lat="43.2522357255" lon="-4.3897974864">
        <ele>188.56</ele>
        <time>2018-05-19T09:34:51Z</time>
      </trkpt>
      <trkpt lat="43.2522462867" lon="-4.3896334525">
        <ele>188.56</ele>
        <time>2018-05-19T09:34:53Z</time>
      </trkpt>
      <trkpt lat="43.2522534113" lon="-4.3894512299">
        <ele>188.56</ele>
        <time>2018-05-19T09:34:55Z</time>
      </trkpt>
      <trkpt lat="43.2522618771" lon="-4.3892660737">
        <ele>188.56</ele>
        <time>2018-05-19T09:34:57Z</time>
      </trkpt>
      <trkpt lat="43.2522721030" lon="-4.3890920654">
        <ele>188.56</ele>
        <time>2018-05-19T09:34:59Z</time>
      </trkpt>
      <trkpt lat="43.2522840053" lon="-4.3889132794">
        <ele>188.56</ele>
        <time>2018-05-19T09:35:01Z</time>
      </trkpt>
      <trkpt lat="43.2522926386" lon="-4.3887368403">
        <ele>188.56</ele>
        <time>2018-05-19T09:35:03Z</time>
      </trkpt>
      <trkpt lat="43.2522994280" lon="-4.3885897379">
        <ele>188.56</ele>
        <time>2018-05-19T09:35:05Z</time>
      </trkpt>
      <trkpt lat="43.2523099892" lon="-4.3884268776">
        <ele>188.56</ele>
        <time>2018-05-19T09:35:07Z</time>
      </trkpt>
      <trkpt lat="43.2523214724" lon="-4.3882596586">
        <ele>189.52</ele>
        <time>2018-05-19T09:35:09Z</time>
      </trkpt>
      <trkpt lat="43.2523314469" lon="-4.3880967982">
        <ele>189.52</ele>
        <time>2018-05-19T09:35:11Z</time>
      </trkpt>
      <trkpt lat="43.2523425110" lon="-4.3879146595">
        <ele>189.52</ele>
        <time>2018-05-19T09:35:13Z</time>
      </trkpt>
      <trkpt lat="43.2523561735" lon="-4.3877687305">
        <ele>189.52</ele>
        <time>2018-05-19T09:35:15Z</time>
      </trkpt>
      <trkpt lat="43.2523742784" lon="-4.3876088038">
        <ele>190.00</ele>
        <time>2018-05-19T09:35:17Z</time>
      </trkpt>
      <trkpt lat="43.2523938082" lon="-4.3874531519">
        <ele>190.00</ele>
        <time>2018-05-19T09:35:19Z</time>
      </trkpt>
      <trkpt lat="43.2524210494" lon="-4.3872990087">
        <ele>190.48</ele>
        <time>2018-05-19T09:35:21Z</time>
      </trkpt>
      <trkpt lat="43.2524552476" lon="-4.3871265929">
        <ele>190.48</ele>
        <time>2018-05-19T09:35:23Z</time>
      </trkpt>
      <trkpt lat="43.2524801418" lon="-4.3869877048">
        <ele>190.48</ele>
        <time>2018-05-19T09:35:25Z</time>
      </trkpt>
      <trkpt lat="43.2525059581" lon="-4.3868344836">
        <ele>190.96</ele>
        <time>2018-05-19T09:35:27Z</time>
      </trkpt>
      <trkpt lat="43.2525333669" lon="-4.3866785802">
        <ele>190.96</ele>
        <time>2018-05-19T09:35:29Z</time>
      </trkpt>
      <trkpt lat="43.2525604405" lon="-4.3865285441">
        <ele>190.96</ele>
        <time>2018-05-19T09:35:31Z</time>
      </trkpt>
      <trkpt lat="43.2525875140" lon="-4.3863588106">
        <ele>191.44</ele>
        <time>2018-05-19T09:35:33Z</time>
      </trkpt>
      <trkpt lat="43.2526127435" lon="-4.3862055894">
        <ele>191.44</ele>
        <time>2018-05-19T09:35:35Z</time>
      </trkpt>
      <trkpt lat="43.2526490372" lon="-4.3860571459">
        <ele>191.92</ele>
        <time>2018-05-19T09:35:37Z</time>
      </trkpt>
      <trkpt lat="43.2526877616" lon="-4.3859067746">
        <ele>191.92</ele>
        <time>2018-05-19T09:35:39Z</time>
      </trkpt>
      <trkpt lat="43.2527327724" lon="-4.3857641146">
        <ele>191.92</ele>
        <time>2018-05-19T09:35:41Z</time>
      </trkpt>
      <trkpt lat="43.2527819742" lon="-4.3856181018">
        <ele>191.92</ele>
        <time>2018-05-19T09:35:43Z</time>
      </trkpt>
      <trkpt lat="43.2528317627" lon="-4.3854600191">
        <ele>191.92</ele>
        <time>2018-05-19T09:35:45Z</time>
      </trkpt>
      <trkpt lat="43.2528707385" lon="-4.3853237294">
        <ele>192.40</ele>
        <time>2018-05-19T09:35:47Z</time>
      </trkpt>
      <trkpt lat="43.2529049367" lon="-4.3851783033">
        <ele>192.40</ele>
        <time>2018-05-19T09:35:49Z</time>
      </trkpt>
      <trkpt lat="43.2529452536" lon="-4.3850313686">
        <ele>192.40</ele>
        <time>2018-05-19T09:35:51Z</time>
      </trkpt>
      <trkpt lat="43.2529839780" lon="-4.3848918099">
        <ele>192.88</ele>
        <time>2018-05-19T09:35:53Z</time>
      </trkpt>
      <trkpt lat="43.2530251332" lon="-4.3847421091">
        <ele>192.88</ele>
        <time>2018-05-19T09:35:55Z</time>
      </trkpt>
      <trkpt lat="43.2530663721" lon="-4.3846066575">
        <ele>192.88</ele>
        <time>2018-05-19T09:35:57Z</time>
      </trkpt>
      <trkpt lat="43.2531065214" lon="-4.3844683561">
        <ele>193.36</ele>
        <time>2018-05-19T09:35:59Z</time>
      </trkpt>
      <trkpt lat="43.2531423122" lon="-4.3843256962">
        <ele>193.36</ele>
        <time>2018-05-19T09:36:01Z</time>
      </trkpt>
      <trkpt lat="43.2531653624" lon="-4.3841858022">
        <ele>193.84</ele>
        <time>2018-05-19T09:36:03Z</time>
      </trkpt>
      <trkpt lat="43.2531827129" lon="-4.3840412982">
        <ele>193.84</ele>
        <time>2018-05-19T09:36:05Z</time>
      </trkpt>
      <trkpt lat="43.2531970460" lon="-4.3838906754">
        <ele>193.84</ele>
        <time>2018-05-19T09:36:07Z</time>
      </trkpt>
      <trkpt lat="43.2532023266" lon="-4.3837437406">
        <ele>194.80</ele>
        <time>2018-05-19T09:36:09Z</time>
      </trkpt>
      <trkpt lat="43.2531972136" lon="-4.3836202752">
        <ele>194.80</ele>
        <time>2018-05-19T09:36:11Z</time>
      </trkpt>
      <trkpt lat="43.2531850599" lon="-4.3834824767">
        <ele>194.80</ele>
        <time>2018-05-19T09:36:13Z</time>
      </trkpt>
      <trkpt lat="43.2531729899" lon="-4.3833427504">
        <ele>195.77</ele>
        <time>2018-05-19T09:36:15Z</time>
      </trkpt>
      <trkpt lat="43.2531625964" lon="-4.3832055386">
        <ele>195.77</ele>
        <time>2018-05-19T09:36:17Z</time>
      </trkpt>
      <trkpt lat="43.2531537954" lon="-4.3830668181">
        <ele>196.25</ele>
        <time>2018-05-19T09:36:19Z</time>
      </trkpt>
      <trkpt lat="43.2531411387" lon="-4.3829214759">
        <ele>196.73</ele>
        <time>2018-05-19T09:36:21Z</time>
      </trkpt>
      <trkpt lat="43.2531206869" lon="-4.3827383313">
        <ele>197.69</ele>
        <time>2018-05-19T09:36:24Z</time>
      </trkpt>
      <trkpt lat="43.2531080302" lon="-4.3826016225">
        <ele>197.69</ele>
        <time>2018-05-19T09:36:26Z</time>
      </trkpt>
      <trkpt lat="43.2530943677" lon="-4.3824678473">
        <ele>198.17</ele>
        <time>2018-05-19T09:36:28Z</time>
      </trkpt>
      <trkpt lat="43.2530768495" lon="-4.3823172245">
        <ele>198.17</ele>
        <time>2018-05-19T09:36:30Z</time>
      </trkpt>
      <trkpt lat="43.2530549727" lon="-4.3821775820">
        <ele>198.65</ele>
        <time>2018-05-19T09:36:32Z</time>
      </trkpt>
      <trkpt lat="43.2530294079" lon="-4.3820323236">
        <ele>198.65</ele>
        <time>2018-05-19T09:36:34Z</time>
      </trkpt>
      <trkpt lat="43.2530072797" lon="-4.3818888254">
        <ele>198.17</ele>
        <time>2018-05-19T09:36:36Z</time>
      </trkpt>
      <trkpt lat="43.2529905159" lon="-4.3817424774">
        <ele>198.17</ele>
        <time>2018-05-19T09:36:38Z</time>
      </trkpt>
      <trkpt lat="43.2529816311" lon="-4.3815988954">
        <ele>198.17</ele>
        <time>2018-05-19T09:36:40Z</time>
      </trkpt>
      <trkpt lat="43.2529785298" lon="-4.3814604264">
        <ele>198.65</ele>
        <time>2018-05-19T09:36:42Z</time>
      </trkpt>
      <trkpt lat="43.2529785298" lon="-4.3812784553">
        <ele>198.65</ele>
        <time>2018-05-19T09:36:45Z</time>
      </trkpt>
      <trkpt lat="43.2529729977" lon="-4.3811116554">
        <ele>199.13</ele>
        <time>2018-05-19T09:36:48Z</time>
      </trkpt>
      <trkpt lat="43.2529743388" lon="-4.3809658941">
        <ele>199.13</ele>
        <time>2018-05-19T09:36:52Z</time>
      </trkpt>
      <trkpt lat="43.2529360335" lon="-4.3808353879">
        <ele>199.61</ele>
        <time>2018-05-19T09:36:57Z</time>
      </trkpt>
      <trkpt lat="43.2528235484" lon="-4.3808434345">
        <ele>198.17</ele>
        <time>2018-05-19T09:38:04Z</time>
      </trkpt>
      <trkpt lat="43.2527563255" lon="-4.3809022754">
        <ele>197.21</ele>
        <time>2018-05-19T09:38:48Z</time>
      </trkpt>
      <trkpt lat="43.2527123205" lon="-4.3809832446">
        <ele>196.73</ele>
        <time>2018-05-19T09:39:25Z</time>
      </trkpt>
      <trkpt lat="43.2526693214" lon="-4.3810632918">
        <ele>196.25</ele>
        <time>2018-05-19T09:40:00Z</time>
      </trkpt>
      <trkpt lat="43.2526233885" lon="-4.3811564147">
        <ele>196.25</ele>
        <time>2018-05-19T09:40:32Z</time>
      </trkpt>
      <trkpt lat="43.2525876816" lon="-4.3812575005">
        <ele>196.25</ele>
        <time>2018-05-19T09:40:41Z</time>
      </trkpt>
      <trkpt lat="43.2525270805" lon="-4.3813675549">
        <ele>196.25</ele>
        <time>2018-05-19T09:40:47Z</time>
      </trkpt>
      <trkpt lat="43.2524310239" lon="-4.3813940417">
        <ele>196.25</ele>
        <time>2018-05-19T09:40:56Z</time>
      </trkpt>
      <trkpt lat="43.2524162717" lon="-4.3813377153">
        <ele>197.21</ele>
        <time>2018-05-19T09:43:52Z</time>
      </trkpt>
      <trkpt lat="43.2523483783" lon="-4.3812540639">
        <ele>198.17</ele>
        <time>2018-05-19T09:43:57Z</time>
      </trkpt>
      <trkpt lat="43.2522463705" lon="-4.3812010903">
        <ele>199.13</ele>
        <time>2018-05-19T09:44:03Z</time>
      </trkpt>
      <trkpt lat="43.2521588635" lon="-4.3811543193">
        <ele>200.57</ele>
        <time>2018-05-19T09:44:08Z</time>
      </trkpt>
      <trkpt lat="43.2520695124" lon="-4.3810667284">
        <ele>202.01</ele>
        <time>2018-05-19T09:44:13Z</time>
      </trkpt>
      <trkpt lat="43.2520471327" lon="-4.3809292652">
        <ele>202.49</ele>
        <time>2018-05-19T09:44:17Z</time>
      </trkpt>
      <trkpt lat="43.2520303689" lon="-4.3807784747">
        <ele>202.98</ele>
        <time>2018-05-19T09:44:21Z</time>
      </trkpt>
      <trkpt lat="43.2520011161" lon="-4.3806491420">
        <ele>202.98</ele>
        <time>2018-05-19T09:44:24Z</time>
      </trkpt>
      <trkpt lat="43.2519430295" lon="-4.3805175461">
        <ele>202.98</ele>
        <time>2018-05-19T09:44:27Z</time>
      </trkpt>
      <trkpt lat="43.2518466376" lon="-4.3803747185">
        <ele>202.98</ele>
        <time>2018-05-19T09:44:30Z</time>
      </trkpt>
      <trkpt lat="43.2517962623" lon="-4.3802479841">
        <ele>202.98</ele>
        <time>2018-05-19T09:44:32Z</time>
      </trkpt>
      <trkpt lat="43.2517837733" lon="-4.3800873868">
        <ele>200.57</ele>
        <time>2018-05-19T09:44:34Z</time>
      </trkpt>
      <trkpt lat="43.2517974358" lon="-4.3799139652">
        <ele>200.57</ele>
        <time>2018-05-19T09:44:36Z</time>
      </trkpt>
      <trkpt lat="43.2518436201" lon="-4.3797358498">
        <ele>200.09</ele>
        <time>2018-05-19T09:44:38Z</time>
      </trkpt>
      <trkpt lat="43.2518873736" lon="-4.3796113785">
        <ele>200.09</ele>
        <time>2018-05-19T09:44:40Z</time>
      </trkpt>
      <trkpt lat="43.2519291993" lon="-4.3794553075">
        <ele>200.09</ele>
        <time>2018-05-19T09:44:42Z</time>
      </trkpt>
      <trkpt lat="43.2519571949" lon="-4.3793113902">
        <ele>200.09</ele>
        <time>2018-05-19T09:44:44Z</time>
      </trkpt>
      <trkpt lat="43.2519972604" lon="-4.3791505415">
        <ele>202.49</ele>
        <time>2018-05-19T09:44:47Z</time>
      </trkpt>
      <trkpt lat="43.2520317938" lon="-4.3790321052">
        <ele>204.42</ele>
        <time>2018-05-19T09:44:50Z</time>
      </trkpt>
      <trkpt lat="43.2520583645" lon="-4.3788835779">
        <ele>205.86</ele>
        <time>2018-05-19T09:44:54Z</time>
      </trkpt>
      <trkpt lat="43.2520498987" lon="-4.3787188735">
        <ele>206.34</ele>
        <time>2018-05-19T09:44:58Z</time>
      </trkpt>
      <trkpt lat="43.2520471327" lon="-4.3785800692">
        <ele>206.34</ele>
        <time>2018-05-19T09:45:01Z</time>
      </trkpt>
      <trkpt lat="43.2520874497" lon="-4.3784299493">
        <ele>206.34</ele>
        <time>2018-05-19T09:45:04Z</time>
      </trkpt>
      <trkpt lat="43.2521289401" lon="-4.3783083279">
        <ele>206.82</ele>
        <time>2018-05-19T09:45:07Z</time>
      </trkpt>
      <trkpt lat="43.2521768846" lon="-4.3781814259">
        <ele>207.30</ele>
        <time>2018-05-19T09:45:10Z</time>
      </trkpt>
      <trkpt lat="43.2522197999" lon="-4.3780593015">
        <ele>208.26</ele>
        <time>2018-05-19T09:45:13Z</time>
      </trkpt>
      <trkpt lat="43.2522793952" lon="-4.3779123668">
        <ele>208.74</ele>
        <time>2018-05-19T09:45:17Z</time>
      </trkpt>
      <trkpt lat="43.2523241546" lon="-4.3777865544">
        <ele>209.22</ele>
        <time>2018-05-19T09:45:20Z</time>
      </trkpt>
      <trkpt lat="43.2523420081" lon="-4.3776439782">
        <ele>209.70</ele>
        <time>2018-05-19T09:45:23Z</time>
      </trkpt>
      <trkpt lat="43.2523575146" lon="-4.3774847221">
        <ele>209.70</ele>
        <time>2018-05-19T09:45:26Z</time>
      </trkpt>
      <trkpt lat="43.2523985021" lon="-4.3773625139">
        <ele>210.19</ele>
        <time>2018-05-19T09:45:29Z</time>
      </trkpt>
      <trkpt lat="43.2524656411" lon="-4.3772480171">
        <ele>210.19</ele>
        <time>2018-05-19T09:45:32Z</time>
      </trkpt>
      <trkpt lat="43.2525635418" lon="-4.3771427404">
        <ele>210.19</ele>
        <time>2018-05-19T09:45:35Z</time>
      </trkpt>
      <trkpt lat="43.2526549045" lon="-4.3770812172">
        <ele>210.19</ele>
        <time>2018-05-19T09:45:37Z</time>
      </trkpt>
      <trkpt lat="43.2527506258" lon="-4.3770270701">
        <ele>209.22</ele>
        <time>2018-05-19T09:45:39Z</time>
      </trkpt>
      <trkpt lat="43.2528661285" lon="-4.3769852445">
        <ele>208.74</ele>
        <time>2018-05-19T09:45:41Z</time>
      </trkpt>
      <trkpt lat="43.2529813796" lon="-4.3769595958">
        <ele>208.74</ele>
        <time>2018-05-19T09:45:43Z</time>
      </trkpt>
      <trkpt lat="43.2530893385" lon="-4.3769393116">
        <ele>208.74</ele>
        <time>2018-05-19T09:45:45Z</time>
      </trkpt>
      <trkpt lat="43.2532050926" lon="-4.3769067898">
        <ele>208.74</ele>
        <time>2018-05-19T09:45:47Z</time>
      </trkpt>
      <trkpt lat="43.2533081062" lon="-4.3768542353">
        <ele>208.74</ele>
        <time>2018-05-19T09:45:49Z</time>
      </trkpt>
      <trkpt lat="43.2533911709" lon="-4.3767878506">
        <ele>208.74</ele>
        <time>2018-05-19T09:45:51Z</time>
      </trkpt>
      <trkpt lat="43.2534780074" lon="-4.3766972423">
        <ele>208.74</ele>
        <time>2018-05-19T09:45:53Z</time>
      </trkpt>
      <trkpt lat="43.2535494212" lon="-4.3765943125">
        <ele>210.19</ele>
        <time>2018-05-19T09:45:55Z</time>
      </trkpt>
      <trkpt lat="43.2535987068" lon="-4.3764845096">
        <ele>210.67</ele>
        <time>2018-05-19T09:45:57Z</time>
      </trkpt>
      <trkpt lat="43.2536540274" lon="-4.3763645645">
        <ele>210.67</ele>
        <time>2018-05-19T09:45:59Z</time>
      </trkpt>
      <trkpt lat="43.2537221722" lon="-4.3762000278">
        <ele>210.67</ele>
        <time>2018-05-19T09:46:02Z</time>
      </trkpt>
      <trkpt lat="43.2537776604" lon="-4.3760711979">
        <ele>210.19</ele>
        <time>2018-05-19T09:46:04Z</time>
      </trkpt>
      <trkpt lat="43.2538345736" lon="-4.3759507500">
        <ele>210.67</ele>
        <time>2018-05-19T09:46:06Z</time>
      </trkpt>
      <trkpt lat="43.2538848650" lon="-4.3758353312">
        <ele>210.67</ele>
        <time>2018-05-19T09:46:08Z</time>
      </trkpt>
      <trkpt lat="43.2539439574" lon="-4.3757227622">
        <ele>210.19</ele>
        <time>2018-05-19T09:46:10Z</time>
      </trkpt>
      <trkpt lat="43.2540042233" lon="-4.3755999673">
        <ele>208.74</ele>
        <time>2018-05-19T09:46:12Z</time>
      </trkpt>
      <trkpt lat="43.2540527545" lon="-4.3754318263">
        <ele>208.74</ele>
        <time>2018-05-19T09:46:14Z</time>
      </trkpt>
      <trkpt lat="43.2540964242" lon="-4.3752677925">
        <ele>208.74</ele>
        <time>2018-05-19T09:46:16Z</time>
      </trkpt>
      <trkpt lat="43.2541532535" lon="-4.3751221988">
        <ele>208.74</ele>
        <time>2018-05-19T09:46:18Z</time>
      </trkpt>
      <trkpt lat="43.2542042993" lon="-4.3749664631">
        <ele>208.74</ele>
        <time>2018-05-19T09:46:20Z</time>
      </trkpt>
      <trkpt lat="43.2542143576" lon="-4.3747865874">
        <ele>208.74</ele>
        <time>2018-05-19T09:46:22Z</time>
      </trkpt>
      <trkpt lat="43.2541787345" lon="-4.3746608589">
        <ele>208.74</ele>
        <time>2018-05-19T09:46:24Z</time>
      </trkpt>
      <trkpt lat="43.2540853601" lon="-4.3745439313">
        <ele>211.63</ele>
        <time>2018-05-19T09:46:27Z</time>
      </trkpt>
      <trkpt lat="43.2540167123" lon="-4.3744259980">
        <ele>212.11</ele>
        <time>2018-05-19T09:46:30Z</time>
      </trkpt>
      <trkpt lat="43.2539594639" lon="-4.3742813263">
        <ele>212.59</ele>
        <time>2018-05-19T09:46:33Z</time>
      </trkpt>
      <trkpt lat="43.2539090049" lon="-4.3741548434">
        <ele>212.59</ele>
        <time>2018-05-19T09:46:36Z</time>
      </trkpt>
      <trkpt lat="43.2538483199" lon="-4.3740021251">
        <ele>212.59</ele>
        <time>2018-05-19T09:46:39Z</time>
      </trkpt>
      <trkpt lat="43.2538168039" lon="-4.3738629017">
        <ele>212.59</ele>
        <time>2018-05-19T09:46:41Z</time>
      </trkpt>
      <trkpt lat="43.2537989505" lon="-4.3736847863">
        <ele>212.59</ele>
        <time>2018-05-19T09:46:43Z</time>
      </trkpt>
      <trkpt lat="43.2537836954" lon="-4.3735242728">
        <ele>211.15</ele>
        <time>2018-05-19T09:46:45Z</time>
      </trkpt>
      <trkpt lat="43.2537707034" lon="-4.3733588140">
        <ele>211.15</ele>
        <time>2018-05-19T09:46:47Z</time>
      </trkpt>
      <trkpt lat="43.2537689433" lon="-4.3731932715">
        <ele>210.67</ele>
        <time>2018-05-19T09:46:49Z</time>
      </trkpt>
      <trkpt lat="43.2537897304" lon="-4.3730360270">
        <ele>210.19</ele>
        <time>2018-05-19T09:46:51Z</time>
      </trkpt>
      <trkpt lat="43.2538359985" lon="-4.3728833087">
        <ele>210.19</ele>
        <time>2018-05-19T09:46:53Z</time>
      </trkpt>
      <trkpt lat="43.2538995333" lon="-4.3727376312">
        <ele>210.19</ele>
        <time>2018-05-19T09:46:55Z</time>
      </trkpt>
      <trkpt lat="43.2539614756" lon="-4.3726341985">
        <ele>210.19</ele>
        <time>2018-05-19T09:46:57Z</time>
      </trkpt>
      <trkpt lat="43.2540494855" lon="-4.3725364655">
        <ele>210.19</ele>
        <time>2018-05-19T09:46:59Z</time>
      </trkpt>
      <trkpt lat="43.2541416027" lon="-4.3724531494">
        <ele>210.67</ele>
        <time>2018-05-19T09:47:01Z</time>
      </trkpt>
      <trkpt lat="43.2542260084" lon="-4.3723579310">
        <ele>211.63</ele>
        <time>2018-05-19T09:47:03Z</time>
      </trkpt>
      <trkpt lat="43.2543094922" lon="-4.3722405005">
        <ele>212.11</ele>
        <time>2018-05-19T09:47:05Z</time>
      </trkpt>
      <trkpt lat="43.2543813251" lon="-4.3721247464">
        <ele>212.11</ele>
        <time>2018-05-19T09:47:07Z</time>
      </trkpt>
      <trkpt lat="43.2544369809" lon="-4.3719842657">
        <ele>212.11</ele>
        <time>2018-05-19T09:47:09Z</time>
      </trkpt>
      <trkpt lat="43.2544902898" lon="-4.3718332238">
        <ele>212.11</ele>
        <time>2018-05-19T09:47:11Z</time>
      </trkpt>
      <trkpt lat="43.2545369770" lon="-4.3716838583">
        <ele>212.11</ele>
        <time>2018-05-19T09:47:13Z</time>
      </trkpt>
      <trkpt lat="43.2545682415" lon="-4.3715360016">
        <ele>212.11</ele>
        <time>2018-05-19T09:47:15Z</time>
      </trkpt>
      <trkpt lat="43.2545873523" lon="-4.3713719677">
        <ele>212.11</ele>
        <time>2018-05-19T09:47:17Z</time>
      </trkpt>
      <trkpt lat="43.2545966562" lon="-4.3712415453">
        <ele>212.59</ele>
        <time>2018-05-19T09:47:19Z</time>
      </trkpt>
      <trkpt lat="43.2545999251" lon="-4.3710952811">
        <ele>213.07</ele>
        <time>2018-05-19T09:47:21Z</time>
      </trkpt>
      <trkpt lat="43.2545961533" lon="-4.3709552195">
        <ele>213.07</ele>
        <time>2018-05-19T09:47:23Z</time>
      </trkpt>
      <trkpt lat="43.2545966562" lon="-4.3708151579">
        <ele>213.07</ele>
        <time>2018-05-19T09:47:25Z</time>
      </trkpt>
      <trkpt lat="43.2545988355" lon="-4.3706755154">
        <ele>213.55</ele>
        <time>2018-05-19T09:47:27Z</time>
      </trkpt>
      <trkpt lat="43.2546168566" lon="-4.3705311790">
        <ele>214.03</ele>
        <time>2018-05-19T09:47:29Z</time>
      </trkpt>
      <trkpt lat="43.2546673156" lon="-4.3703587633">
        <ele>214.51</ele>
        <time>2018-05-19T09:47:32Z</time>
      </trkpt>
      <trkpt lat="43.2547105663" lon="-4.3702410813">
        <ele>214.51</ele>
        <time>2018-05-19T09:47:34Z</time>
      </trkpt>
      <trkpt lat="43.2547512185" lon="-4.3701271713">
        <ele>214.99</ele>
        <time>2018-05-19T09:47:36Z</time>
      </trkpt>
      <trkpt lat="43.2547937147" lon="-4.3700146861">
        <ele>215.47</ele>
        <time>2018-05-19T09:47:38Z</time>
      </trkpt>
      <trkpt lat="43.2548293378" lon="-4.3698952440">
        <ele>215.47</ele>
        <time>2018-05-19T09:47:40Z</time>
      </trkpt>
      <trkpt lat="43.2548504602" lon="-4.3697168771">
        <ele>215.95</ele>
        <time>2018-05-19T09:47:43Z</time>
      </trkpt>
      <trkpt lat="43.2548536453" lon="-4.3695931602">
        <ele>216.43</ele>
        <time>2018-05-19T09:47:45Z</time>
      </trkpt>
      <trkpt lat="43.2548378874" lon="-4.3694049027">
        <ele>216.91</ele>
        <time>2018-05-19T09:47:48Z</time>
      </trkpt>
      <trkpt lat="43.2548137475" lon="-4.3692691159">
        <ele>217.40</ele>
        <time>2018-05-19T09:47:50Z</time>
      </trkpt>
      <trkpt lat="43.2547926251" lon="-4.3691016454">
        <ele>218.36</ele>
        <time>2018-05-19T09:47:53Z</time>
      </trkpt>
      <trkpt lat="43.2547976542" lon="-4.3689340074">
        <ele>218.84</ele>
        <time>2018-05-19T09:47:56Z</time>
      </trkpt>
      <trkpt lat="43.2548186928" lon="-4.3687666208">
        <ele>219.32</ele>
        <time>2018-05-19T09:47:59Z</time>
      </trkpt>
      <trkpt lat="43.2548367139" lon="-4.3686423171">
        <ele>219.32</ele>
        <time>2018-05-19T09:48:01Z</time>
      </trkpt>
      <trkpt lat="43.2548522204" lon="-4.3684650399">
        <ele>219.32</ele>
        <time>2018-05-19T09:48:04Z</time>
      </trkpt>
      <trkpt lat="43.2548448443" lon="-4.3682915345">
        <ele>219.80</ele>
        <time>2018-05-19T09:48:07Z</time>
      </trkpt>
      <trkpt lat="43.2548230514" lon="-4.3681210466">
        <ele>220.28</ele>
        <time>2018-05-19T09:48:10Z</time>
      </trkpt>
      <trkpt lat="43.2548105624" lon="-4.3679472059">
        <ele>221.24</ele>
        <time>2018-05-19T09:48:13Z</time>
      </trkpt>
      <trkpt lat="43.2548010070" lon="-4.3677977566">
        <ele>221.72</ele>
        <time>2018-05-19T09:48:16Z</time>
      </trkpt>
      <trkpt lat="43.2547880989" lon="-4.3676354829">
        <ele>222.20</ele>
        <time>2018-05-19T09:48:19Z</time>
      </trkpt>
      <trkpt lat="43.2547702454" lon="-4.3674663361">
        <ele>222.20</ele>
        <time>2018-05-19T09:48:22Z</time>
      </trkpt>
      <trkpt lat="43.2547552418" lon="-4.3673064932">
        <ele>222.20</ele>
        <time>2018-05-19T09:48:25Z</time>
      </trkpt>
      <trkpt lat="43.2547362149" lon="-4.3671678565">
        <ele>223.64</ele>
        <time>2018-05-19T09:48:28Z</time>
      </trkpt>
      <trkpt lat="43.2547082193" lon="-4.3670442235">
        <ele>224.12</ele>
        <time>2018-05-19T09:48:31Z</time>
      </trkpt>
      <trkpt lat="43.2546679024" lon="-4.3669318222">
        <ele>225.09</ele>
        <time>2018-05-19T09:48:34Z</time>
      </trkpt>
      <trkpt lat="43.2545930520" lon="-4.3668435607">
        <ele>226.05</ele>
        <time>2018-05-19T09:48:38Z</time>
      </trkpt>
      <trkpt lat="43.2545368094" lon="-4.3667349312">
        <ele>227.97</ele>
        <time>2018-05-19T09:48:42Z</time>
      </trkpt>
      <trkpt lat="43.2544830814" lon="-4.3666020781">
        <ele>228.45</ele>
        <time>2018-05-19T09:48:46Z</time>
      </trkpt>
      <trkpt lat="43.2544487156" lon="-4.3664601725">
        <ele>228.45</ele>
        <time>2018-05-19T09:48:49Z</time>
      </trkpt>
      <trkpt lat="43.2544235699" lon="-4.3663297500">
        <ele>228.45</ele>
        <time>2018-05-19T09:48:51Z</time>
      </trkpt>
      <trkpt lat="43.2543962449" lon="-4.3661812227">
        <ele>227.01</ele>
        <time>2018-05-19T09:48:53Z</time>
      </trkpt>
      <trkpt lat="43.2543793973" lon="-4.3660137523">
        <ele>227.01</ele>
        <time>2018-05-19T09:48:55Z</time>
      </trkpt>
      <trkpt lat="43.2543730270" lon="-4.3658689130">
        <ele>227.01</ele>
        <time>2018-05-19T09:48:57Z</time>
      </trkpt>
      <trkpt lat="43.2543673273" lon="-4.3657251634">
        <ele>227.01</ele>
        <time>2018-05-19T09:48:59Z</time>
      </trkpt>
      <trkpt lat="43.2543650642" lon="-4.3655446172">
        <ele>228.45</ele>
        <time>2018-05-19T09:49:02Z</time>
      </trkpt>
      <trkpt lat="43.2543464564" lon="-4.3653845228">
        <ele>229.41</ele>
        <time>2018-05-19T09:49:05Z</time>
      </trkpt>
      <trkpt lat="43.2543260045" lon="-4.3652429525">
        <ele>229.41</ele>
        <time>2018-05-19T09:49:08Z</time>
      </trkpt>
      <trkpt lat="43.2543089055" lon="-4.3651105184">
        <ele>229.89</ele>
        <time>2018-05-19T09:49:11Z</time>
      </trkpt>
      <trkpt lat="43.2542928122" lon="-4.3649706244">
        <ele>230.37</ele>
        <time>2018-05-19T09:49:14Z</time>
      </trkpt>
      <trkpt lat="43.2542747911" lon="-4.3648412917">
        <ele>231.33</ele>
        <time>2018-05-19T09:49:17Z</time>
      </trkpt>
      <trkpt lat="43.2542605419" lon="-4.3646726478">
        <ele>232.30</ele>
        <time>2018-05-19T09:49:21Z</time>
      </trkpt>
      <trkpt lat="43.2542696781" lon="-4.3645290658">
        <ele>232.78</ele>
        <time>2018-05-19T09:49:24Z</time>
      </trkpt>
      <trkpt lat="43.2542939857" lon="-4.3643934466">
        <ele>234.22</ele>
        <time>2018-05-19T09:49:27Z</time>
      </trkpt>
      <trkpt lat="43.2543229032" lon="-4.3642709032">
        <ele>234.70</ele>
        <time>2018-05-19T09:49:30Z</time>
      </trkpt>
      <trkpt lat="43.2543596160" lon="-4.3641302548">
        <ele>235.18</ele>
        <time>2018-05-19T09:49:33Z</time>
      </trkpt>
      <trkpt lat="43.2543666568" lon="-4.3639670592">
        <ele>235.18</ele>
        <time>2018-05-19T09:49:36Z</time>
      </trkpt>
      <trkpt lat="43.2543618791" lon="-4.3637756165">
        <ele>235.18</ele>
        <time>2018-05-19T09:49:39Z</time>
      </trkpt>
      <trkpt lat="43.2543680817" lon="-4.3636073079">
        <ele>235.18</ele>
        <time>2018-05-19T09:49:42Z</time>
      </trkpt>
      <trkpt lat="43.2543778885" lon="-4.3634238280">
        <ele>235.18</ele>
        <time>2018-05-19T09:49:45Z</time>
      </trkpt>
      <trkpt lat="43.2543799002" lon="-4.3632490654">
        <ele>235.66</ele>
        <time>2018-05-19T09:49:48Z</time>
      </trkpt>
      <trkpt lat="43.2543772180" lon="-4.3630706985">
        <ele>235.66</ele>
        <time>2018-05-19T09:49:51Z</time>
      </trkpt>
      <trkpt lat="43.2543755416" lon="-4.3629099336">
        <ele>236.14</ele>
        <time>2018-05-19T09:49:54Z</time>
      </trkpt>
      <trkpt lat="43.2543766312" lon="-4.3627313152">
        <ele>236.62</ele>
        <time>2018-05-19T09:49:57Z</time>
      </trkpt>
      <trkpt lat="43.2543709315" lon="-4.3626077659">
        <ele>236.62</ele>
        <time>2018-05-19T09:49:59Z</time>
      </trkpt>
      <trkpt lat="43.2543736137" lon="-4.3624597415">
        <ele>236.62</ele>
        <time>2018-05-19T09:50:01Z</time>
      </trkpt>
      <trkpt lat="43.2543711830" lon="-4.3623292353">
        <ele>236.62</ele>
        <time>2018-05-19T09:50:03Z</time>
      </trkpt>
      <trkpt lat="43.2543710154" lon="-4.3621754274">
        <ele>235.18</ele>
        <time>2018-05-19T09:50:05Z</time>
      </trkpt>
      <trkpt lat="43.2543833368" lon="-4.3620286603">
        <ele>235.18</ele>
        <time>2018-05-19T09:50:07Z</time>
      </trkpt>
      <trkpt lat="43.2544001844" lon="-4.3618878443">
        <ele>235.18</ele>
        <time>2018-05-19T09:50:09Z</time>
      </trkpt>
      <trkpt lat="43.2544210553" lon="-4.3617502972">
        <ele>235.18</ele>
        <time>2018-05-19T09:50:11Z</time>
      </trkpt>
      <trkpt lat="43.2544502243" lon="-4.3616064638">
        <ele>235.18</ele>
        <time>2018-05-19T09:50:13Z</time>
      </trkpt>
      <trkpt lat="43.2544788904" lon="-4.3614256661">
        <ele>235.18</ele>
        <time>2018-05-19T09:50:16Z</time>
      </trkpt>
      <trkpt lat="43.2544914633" lon="-4.3613066431">
        <ele>236.62</ele>
        <time>2018-05-19T09:50:18Z</time>
      </trkpt>
      <trkpt lat="43.2545374800" lon="-4.3611326348">
        <ele>236.14</ele>
        <time>2018-05-19T09:50:21Z</time>
      </trkpt>
      <trkpt lat="43.2545656431" lon="-4.3609817605">
        <ele>236.14</ele>
        <time>2018-05-19T09:50:23Z</time>
      </trkpt>
      <trkpt lat="43.2545739412" lon="-4.3608043157">
        <ele>237.58</ele>
        <time>2018-05-19T09:50:26Z</time>
      </trkpt>
      <trkpt lat="43.2545467839" lon="-4.3606627453">
        <ele>238.54</ele>
        <time>2018-05-19T09:50:29Z</time>
      </trkpt>
      <trkpt lat="43.2544889487" lon="-4.3605432194">
        <ele>238.54</ele>
        <time>2018-05-19T09:50:32Z</time>
      </trkpt>
      <trkpt lat="43.2544338796" lon="-4.3604212627">
        <ele>239.51</ele>
        <time>2018-05-19T09:50:35Z</time>
      </trkpt>
      <trkpt lat="43.2543663215" lon="-4.3603227753">
        <ele>239.99</ele>
        <time>2018-05-19T09:50:38Z</time>
      </trkpt>
      <trkpt lat="43.2542972546" lon="-4.3601996452">
        <ele>239.99</ele>
        <time>2018-05-19T09:50:41Z</time>
      </trkpt>
      <trkpt lat="43.2542566862" lon="-4.3600496929">
        <ele>239.99</ele>
        <time>2018-05-19T09:50:44Z</time>
      </trkpt>
      <trkpt lat="43.2542740367" lon="-4.3598944601">
        <ele>239.99</ele>
        <time>2018-05-19T09:50:47Z</time>
      </trkpt>
      <trkpt lat="43.2542935666" lon="-4.3597412389">
        <ele>239.99</ele>
        <time>2018-05-19T09:50:50Z</time>
      </trkpt>
      <trkpt lat="43.2543115038" lon="-4.3595824018">
        <ele>240.95</ele>
        <time>2018-05-19T09:50:54Z</time>
      </trkpt>
      <trkpt lat="43.2542953268" lon="-4.3594484590">
        <ele>241.43</ele>
        <time>2018-05-19T09:50:58Z</time>
      </trkpt>
      <trkpt lat="43.2542355638" lon="-4.3593108281">
        <ele>242.87</ele>
        <time>2018-05-19T09:51:02Z</time>
      </trkpt>
      <trkpt lat="43.2542315405" lon="-4.3591886200">
        <ele>242.87</ele>
        <time>2018-05-19T09:51:05Z</time>
      </trkpt>
      <trkpt lat="43.2542279363" lon="-4.3590473849">
        <ele>243.35</ele>
        <time>2018-05-19T09:51:08Z</time>
      </trkpt>
      <trkpt lat="43.2542182133" lon="-4.3588903919">
        <ele>244.31</ele>
        <time>2018-05-19T09:51:12Z</time>
      </trkpt>
      <trkpt lat="43.2541902177" lon="-4.3587675132">
        <ele>244.31</ele>
        <time>2018-05-19T09:51:15Z</time>
      </trkpt>
      <trkpt lat="43.2541735377" lon="-4.3586112745">
        <ele>244.31</ele>
        <time>2018-05-19T09:51:18Z</time>
      </trkpt>
      <trkpt lat="43.2541550975" lon="-4.3584868032">
        <ele>244.79</ele>
        <time>2018-05-19T09:51:21Z</time>
      </trkpt>
      <trkpt lat="43.2541227434" lon="-4.3583684508">
        <ele>245.75</ele>
        <time>2018-05-19T09:51:24Z</time>
      </trkpt>
      <trkpt lat="43.2540910598" lon="-4.3582335860">
        <ele>246.23</ele>
        <time>2018-05-19T09:51:27Z</time>
      </trkpt>
      <trkpt lat="43.2541250065" lon="-4.3581185862">
        <ele>245.75</ele>
        <time>2018-05-19T09:51:29Z</time>
      </trkpt>
      <trkpt lat="43.2542532496" lon="-4.3580474239">
        <ele>244.31</ele>
        <time>2018-05-19T09:51:32Z</time>
      </trkpt>
      <trkpt lat="43.2543571852" lon="-4.3580147345">
        <ele>242.87</ele>
        <time>2018-05-19T09:51:35Z</time>
      </trkpt>
      <trkpt lat="43.2544554211" lon="-4.3579253834">
        <ele>241.43</ele>
        <time>2018-05-19T09:51:40Z</time>
      </trkpt>
      <trkpt lat="43.2544842549" lon="-4.3577726651">
        <ele>239.51</ele>
        <time>2018-05-19T09:51:43Z</time>
      </trkpt>
      <trkpt lat="43.2544948999" lon="-4.3576322682">
        <ele>238.54</ele>
        <time>2018-05-19T09:51:45Z</time>
      </trkpt>
      <trkpt lat="43.2545208000" lon="-4.3574958108">
        <ele>238.54</ele>
        <time>2018-05-19T09:51:47Z</time>
      </trkpt>
      <trkpt lat="43.2545717619" lon="-4.3573342916">
        <ele>239.99</ele>
        <time>2018-05-19T09:51:50Z</time>
      </trkpt>
      <trkpt lat="43.2546412479" lon="-4.3571972474">
        <ele>240.47</ele>
        <time>2018-05-19T09:51:53Z</time>
      </trkpt>
      <trkpt lat="43.2546870131" lon="-4.3570848461">
        <ele>240.47</ele>
        <time>2018-05-19T09:51:55Z</time>
      </trkpt>
      <trkpt lat="43.2547459379" lon="-4.3569619674">
        <ele>240.47</ele>
        <time>2018-05-19T09:51:57Z</time>
      </trkpt>
      <trkpt lat="43.2548084669" lon="-4.3568534218">
        <ele>240.95</ele>
        <time>2018-05-19T09:51:59Z</time>
      </trkpt>
      <trkpt lat="43.2548751868" lon="-4.3567604665">
        <ele>240.95</ele>
        <time>2018-05-19T09:52:01Z</time>
      </trkpt>
      <trkpt lat="43.2549209520" lon="-4.3566158786">
        <ele>240.95</ele>
        <time>2018-05-19T09:52:04Z</time>
      </trkpt>
      <trkpt lat="43.2548721693" lon="-4.3564764038">
        <ele>241.43</ele>
        <time>2018-05-19T09:52:07Z</time>
      </trkpt>
      <trkpt lat="43.2547954749" lon="-4.3563225958">
        <ele>241.43</ele>
        <time>2018-05-19T09:52:10Z</time>
      </trkpt>
      <trkpt lat="43.2547167689" lon="-4.3561788462">
        <ele>241.91</ele>
        <time>2018-05-19T09:52:13Z</time>
      </trkpt>
      <trkpt lat="43.2546394877" lon="-4.3560324144">
        <ele>242.39</ele>
        <time>2018-05-19T09:52:16Z</time>
      </trkpt>
      <trkpt lat="43.2545723487" lon="-4.3558790255">
        <ele>243.35</ele>
        <time>2018-05-19T09:52:19Z</time>
      </trkpt>
      <trkpt lat="43.2545143459" lon="-4.3557099625">
        <ele>243.35</ele>
        <time>2018-05-19T09:52:22Z</time>
      </trkpt>
      <trkpt lat="43.2544631325" lon="-4.3555424921">
        <ele>244.31</ele>
        <time>2018-05-19T09:52:25Z</time>
      </trkpt>
      <trkpt lat="43.2544426806" lon="-4.3554242235">
        <ele>244.79</ele>
        <time>2018-05-19T09:52:27Z</time>
      </trkpt>
      <trkpt lat="43.2544235699" lon="-4.3552855030">
        <ele>244.79</ele>
        <time>2018-05-19T09:52:29Z</time>
      </trkpt>
      <trkpt lat="43.2544158585" lon="-4.3551612832">
        <ele>245.75</ele>
        <time>2018-05-19T09:52:31Z</time>
      </trkpt>
      <trkpt lat="43.2544135954" lon="-4.3549861014">
        <ele>245.75</ele>
        <time>2018-05-19T09:52:34Z</time>
      </trkpt>
      <trkpt lat="43.2544285152" lon="-4.3548096623">
        <ele>246.23</ele>
        <time>2018-05-19T09:52:37Z</time>
      </trkpt>
      <trkpt lat="43.2544674911" lon="-4.3546321336">
        <ele>246.72</ele>
        <time>2018-05-19T09:52:40Z</time>
      </trkpt>
      <trkpt lat="43.2545110770" lon="-4.3544908147">
        <ele>247.20</ele>
        <time>2018-05-19T09:52:43Z</time>
      </trkpt>
      <trkpt lat="43.2545685768" lon="-4.3543456402">
        <ele>248.16</ele>
        <time>2018-05-19T09:52:46Z</time>
      </trkpt>
      <trkpt lat="43.2546339557" lon="-4.3542103563">
        <ele>248.64</ele>
        <time>2018-05-19T09:52:49Z</time>
      </trkpt>
      <trkpt lat="43.2547065429" lon="-4.3540686183">
        <ele>249.60</ele>
        <time>2018-05-19T09:52:52Z</time>
      </trkpt>
      <trkpt lat="43.2547748554" lon="-4.3539596535">
        <ele>250.08</ele>
        <time>2018-05-19T09:52:55Z</time>
      </trkpt>
      <trkpt lat="43.2548494544" lon="-4.3538395409">
        <ele>250.56</ele>
        <time>2018-05-19T09:52:58Z</time>
      </trkpt>
      <trkpt lat="43.2549232990" lon="-4.3537165783">
        <ele>251.04</ele>
        <time>2018-05-19T09:53:01Z</time>
      </trkpt>
      <trkpt lat="43.2550026756" lon="-4.3536025845">
        <ele>251.52</ele>
        <time>2018-05-19T09:53:04Z</time>
      </trkpt>
      <trkpt lat="43.2550754305" lon="-4.3534859084">
        <ele>252.00</ele>
        <time>2018-05-19T09:53:07Z</time>
      </trkpt>
      <trkpt lat="43.2551465929" lon="-4.3533662148">
        <ele>252.48</ele>
        <time>2018-05-19T09:53:10Z</time>
      </trkpt>
      <trkpt lat="43.2552227005" lon="-4.3532436714">
        <ele>252.96</ele>
        <time>2018-05-19T09:53:13Z</time>
      </trkpt>
      <trkpt lat="43.2552932762" lon="-4.3531330302">
        <ele>252.96</ele>
        <time>2018-05-19T09:53:16Z</time>
      </trkpt>
      <trkpt lat="43.2553676236" lon="-4.3530159350">
        <ele>253.44</ele>
        <time>2018-05-19T09:53:19Z</time>
      </trkpt>
      <trkpt lat="43.2554428931" lon="-4.3528963253">
        <ele>253.93</ele>
        <time>2018-05-19T09:53:22Z</time>
      </trkpt>
      <trkpt lat="43.2555412967" lon="-4.3528064713">
        <ele>254.89</ele>
        <time>2018-05-19T09:53:25Z</time>
      </trkpt>
      <trkpt lat="43.2556360122" lon="-4.3527444452">
        <ele>255.85</ele>
        <time>2018-05-19T09:53:28Z</time>
      </trkpt>
      <trkpt lat="43.2557301410" lon="-4.3526735343">
        <ele>256.33</ele>
        <time>2018-05-19T09:53:31Z</time>
      </trkpt>
      <trkpt lat="43.2557987887" lon="-4.3525680061">
        <ele>256.81</ele>
        <time>2018-05-19T09:53:34Z</time>
      </trkpt>
      <trkpt lat="43.2558255270" lon="-4.3524264358">
        <ele>256.81</ele>
        <time>2018-05-19T09:53:37Z</time>
      </trkpt>
      <trkpt lat="43.2558218390" lon="-4.3522774894">
        <ele>257.77</ele>
        <time>2018-05-19T09:53:40Z</time>
      </trkpt>
      <trkpt lat="43.2558163069" lon="-4.3521261960">
        <ele>258.25</ele>
        <time>2018-05-19T09:53:43Z</time>
      </trkpt>
      <trkpt lat="43.2558241859" lon="-4.3519699574">
        <ele>258.73</ele>
        <time>2018-05-19T09:53:46Z</time>
      </trkpt>
      <trkpt lat="43.2558604795" lon="-4.3518287223">
        <ele>259.21</ele>
        <time>2018-05-19T09:53:49Z</time>
      </trkpt>
      <trkpt lat="43.2559123635" lon="-4.3517022394">
        <ele>260.17</ele>
        <time>2018-05-19T09:53:52Z</time>
      </trkpt>
      <trkpt lat="43.2559893094" lon="-4.3516173307">
        <ele>260.65</ele>
        <time>2018-05-19T09:53:55Z</time>
      </trkpt>
      <trkpt lat="43.2560800016" lon="-4.3516360223">
        <ele>261.14</ele>
        <time>2018-05-19T09:53:58Z</time>
      </trkpt>
      <trkpt lat="43.2561273593" lon="-4.3517383654">
        <ele>262.10</ele>
        <time>2018-05-19T09:54:01Z</time>
      </trkpt>
      <trkpt lat="43.2561308797" lon="-4.3518664408">
        <ele>263.54</ele>
        <time>2018-05-19T09:54:05Z</time>
      </trkpt>
      <trkpt lat="43.2561193127" lon="-4.3519930914">
        <ele>265.46</ele>
        <time>2018-05-19T09:54:10Z</time>
      </trkpt>
      <trkpt lat="43.2561109308" lon="-4.3521329015">
        <ele>267.38</ele>
        <time>2018-05-19T09:54:16Z</time>
      </trkpt>
      <trkpt lat="43.2561280299" lon="-4.3522663414">
        <ele>268.83</ele>
        <time>2018-05-19T09:54:22Z</time>
      </trkpt>
      <trkpt lat="43.2561463024" lon="-4.3523987755">
        <ele>270.75</ele>
        <time>2018-05-19T09:54:28Z</time>
      </trkpt>
      <trkpt lat="43.2561972644" lon="-4.3525249232">
        <ele>272.19</ele>
        <time>2018-05-19T09:54:34Z</time>
      </trkpt>
      <trkpt lat="43.2562873699" lon="-4.3525926489">
        <ele>274.11</ele>
        <time>2018-05-19T09:54:40Z</time>
      </trkpt>
      <trkpt lat="43.2563756313" lon="-4.3526410963">
        <ele>275.56</ele>
        <time>2018-05-19T09:54:45Z</time>
      </trkpt>
      <trkpt lat="43.2564244978" lon="-4.3527449481">
        <ele>276.52</ele>
        <time>2018-05-19T09:54:50Z</time>
      </trkpt>
      <trkpt lat="43.2565068919" lon="-4.3528471235">
        <ele>277.48</ele>
        <time>2018-05-19T09:54:55Z</time>
      </trkpt>
      <trkpt lat="43.2566168625" lon="-4.3528926373">
        <ele>277.96</ele>
        <time>2018-05-19T09:55:00Z</time>
      </trkpt>
      <trkpt lat="43.2567009330" lon="-4.3529347144">
        <ele>278.44</ele>
        <time>2018-05-19T09:55:04Z</time>
      </trkpt>
      <trkpt lat="43.2567917928" lon="-4.3529968243">
        <ele>279.88</ele>
        <time>2018-05-19T09:55:09Z</time>
      </trkpt>
      <trkpt lat="43.2568844128" lon="-4.3529808987">
        <ele>280.36</ele>
        <time>2018-05-19T09:55:14Z</time>
      </trkpt>
      <trkpt lat="43.2569837384" lon="-4.3529609498">
        <ele>281.32</ele>
        <time>2018-05-19T09:55:19Z</time>
      </trkpt>
      <trkpt lat="43.2570554037" lon="-4.3530618679">
        <ele>282.77</ele>
        <time>2018-05-19T09:55:24Z</time>
      </trkpt>
      <trkpt lat="43.2571542263" lon="-4.3530989159">
        <ele>283.25</ele>
        <time>2018-05-19T09:55:29Z</time>
      </trkpt>
      <trkpt lat="43.2572438288" lon="-4.3531472795">
        <ele>284.69</ele>
        <time>2018-05-19T09:55:34Z</time>
      </trkpt>
      <trkpt lat="43.2573312521" lon="-4.3532222975">
        <ele>286.13</ele>
        <time>2018-05-19T09:55:39Z</time>
      </trkpt>
      <trkpt lat="43.2574236207" lon="-4.3532667216">
        <ele>287.09</ele>
        <time>2018-05-19T09:55:44Z</time>
      </trkpt>
      <trkpt lat="43.2575194258" lon="-4.3532739300">
        <ele>288.05</ele>
        <time>2018-05-19T09:55:50Z</time>
      </trkpt>
      <trkpt lat="43.2576109562" lon="-4.3532385584">
        <ele>289.49</ele>
        <time>2018-05-19T09:55:56Z</time>
      </trkpt>
      <trkpt lat="43.2577164005" lon="-4.3532041926">
        <ele>291.90</ele>
        <time>2018-05-19T09:56:03Z</time>
      </trkpt>
      <trkpt lat="43.2578064222" lon="-4.3531709164">
        <ele>292.86</ele>
        <time>2018-05-19T09:56:09Z</time>
      </trkpt>
      <trkpt lat="43.2578801829" lon="-4.3530969881">
        <ele>294.30</ele>
        <time>2018-05-19T09:56:15Z</time>
      </trkpt>
      <trkpt lat="43.2579773292" lon="-4.3530497979">
        <ele>296.22</ele>
        <time>2018-05-19T09:56:21Z</time>
      </trkpt>
      <trkpt lat="43.2580753975" lon="-4.3530431762">
        <ele>297.67</ele>
        <time>2018-05-19T09:56:29Z</time>
      </trkpt>
      <trkpt lat="43.2581710350" lon="-4.3530337885">
        <ele>300.07</ele>
        <time>2018-05-19T09:56:36Z</time>
      </trkpt>
      <trkpt lat="43.2582565304" lon="-4.3530095648">
        <ele>301.51</ele>
        <time>2018-05-19T09:56:42Z</time>
      </trkpt>
      <trkpt lat="43.2583443727" lon="-4.3529623747">
        <ele>302.95</ele>
        <time>2018-05-19T09:56:48Z</time>
      </trkpt>
      <trkpt lat="43.2584415190" lon="-4.3529299367">
        <ele>305.84</ele>
        <time>2018-05-19T09:56:55Z</time>
      </trkpt>
      <trkpt lat="43.2585400902" lon="-4.3528912123">
        <ele>308.72</ele>
        <time>2018-05-19T09:57:02Z</time>
      </trkpt>
      <trkpt lat="43.2586371526" lon="-4.3528662343">
        <ele>311.60</ele>
        <time>2018-05-19T09:57:09Z</time>
      </trkpt>
      <trkpt lat="43.2587250788" lon="-4.3528375681">
        <ele>314.49</ele>
        <time>2018-05-19T09:57:16Z</time>
      </trkpt>
      <trkpt lat="43.2588163577" lon="-4.3528007716">
        <ele>316.89</ele>
        <time>2018-05-19T09:57:23Z</time>
      </trkpt>
      <trkpt lat="43.2589120790" lon="-4.3527865224">
        <ele>319.30</ele>
        <time>2018-05-19T09:57:30Z</time>
      </trkpt>
      <trkpt lat="43.2590107340" lon="-4.3527656514">
        <ele>321.22</ele>
        <time>2018-05-19T09:57:37Z</time>
      </trkpt>
      <trkpt lat="43.2591014262" lon="-4.3527445290">
        <ele>323.62</ele>
        <time>2018-05-19T09:57:43Z</time>
      </trkpt>
      <trkpt lat="43.2591989916" lon="-4.3526970875">
        <ele>325.54</ele>
        <time>2018-05-19T09:57:50Z</time>
      </trkpt>
      <trkpt lat="43.2592873368" lon="-4.3526343908">
        <ele>327.47</ele>
        <time>2018-05-19T09:57:57Z</time>
      </trkpt>
      <trkpt lat="43.2593567390" lon="-4.3525327183">
        <ele>331.31</ele>
        <time>2018-05-19T09:58:05Z</time>
      </trkpt>
      <trkpt lat="43.2594144903" lon="-4.3524074089">
        <ele>333.71</ele>
        <time>2018-05-19T09:58:12Z</time>
      </trkpt>
      <trkpt lat="43.2594687212" lon="-4.3523014616">
        <ele>336.12</ele>
        <time>2018-05-19T09:58:19Z</time>
      </trkpt>
      <trkpt lat="43.2595377043" lon="-4.3521942571">
        <ele>339.00</ele>
        <time>2018-05-19T09:58:27Z</time>
      </trkpt>
      <trkpt lat="43.2596070226" lon="-4.3520836160">
        <ele>341.41</ele>
        <time>2018-05-19T09:58:35Z</time>
      </trkpt>
      <trkpt lat="43.2596885785" lon="-4.3519763276">
        <ele>343.33</ele>
        <time>2018-05-19T09:58:43Z</time>
      </trkpt>
      <trkpt lat="43.2597694639" lon="-4.3518869765">
        <ele>345.25</ele>
        <time>2018-05-19T09:58:50Z</time>
      </trkpt>
      <trkpt lat="43.2598493434" lon="-4.3518081028">
        <ele>346.21</ele>
        <time>2018-05-19T09:58:57Z</time>
      </trkpt>
      <trkpt lat="43.2599215116" lon="-4.3517238647">
        <ele>347.65</ele>
        <time>2018-05-19T09:59:03Z</time>
      </trkpt>
      <trkpt lat="43.2599880639" lon="-4.3516346812">
        <ele>348.62</ele>
        <time>2018-05-19T09:59:09Z</time>
      </trkpt>
      <trkpt lat="43.2600335777" lon="-4.3515128084">
        <ele>350.06</ele>
        <time>2018-05-19T09:59:16Z</time>
      </trkpt>
      <trkpt lat="43.2600428816" lon="-4.3513732497">
        <ele>351.50</ele>
        <time>2018-05-19T09:59:23Z</time>
      </trkpt>
      <trkpt lat="43.2600638364" lon="-4.3512252253">
        <ele>351.50</ele>
        <time>2018-05-19T09:59:28Z</time>
      </trkpt>
      <trkpt lat="43.2601001300" lon="-4.3510704953">
        <ele>351.50</ele>
        <time>2018-05-19T09:59:32Z</time>
      </trkpt>
      <trkpt lat="43.2601204142" lon="-4.3509239797">
        <ele>352.46</ele>
        <time>2018-05-19T09:59:37Z</time>
      </trkpt>
      <trkpt lat="43.2601363398" lon="-4.3507974967">
        <ele>353.42</ele>
        <time>2018-05-19T09:59:43Z</time>
      </trkpt>
      <trkpt lat="43.2601523492" lon="-4.3506742828">
        <ele>355.34</ele>
        <time>2018-05-19T09:59:49Z</time>
      </trkpt>
      <trkpt lat="43.2601829432" lon="-4.3505495600">
        <ele>357.27</ele>
        <time>2018-05-19T09:59:55Z</time>
      </trkpt>
      <trkpt lat="43.2601919957" lon="-4.3504105881">
        <ele>359.19</ele>
        <time>2018-05-19T10:00:03Z</time>
      </trkpt>
      <trkpt lat="43.2601876371" lon="-4.3502659164">
        <ele>362.07</ele>
        <time>2018-05-19T10:00:12Z</time>
      </trkpt>
      <trkpt lat="43.2601551153" lon="-4.3501138687">
        <ele>364.48</ele>
        <time>2018-05-19T10:00:20Z</time>
      </trkpt>
      <trkpt lat="43.2601633295" lon="-4.3499810994">
        <ele>365.92</ele>
        <time>2018-05-19T10:00:28Z</time>
      </trkpt>
      <trkpt lat="43.2602470648" lon="-4.3498930056">
        <ele>367.84</ele>
        <time>2018-05-19T10:00:36Z</time>
      </trkpt>
      <trkpt lat="43.2603535149" lon="-4.3498735595">
        <ele>369.76</ele>
        <time>2018-05-19T10:00:43Z</time>
      </trkpt>
      <trkpt lat="43.2604648266" lon="-4.3498735595">
        <ele>372.17</ele>
        <time>2018-05-19T10:00:50Z</time>
      </trkpt>
      <trkpt lat="43.2604799978" lon="-4.3497672770">
        <ele>373.13</ele>
        <time>2018-05-19T10:00:57Z</time>
      </trkpt>
      <trkpt lat="43.2603938319" lon="-4.3497172371">
        <ele>374.09</ele>
        <time>2018-05-19T10:01:06Z</time>
      </trkpt>
      <trkpt lat="43.2602932490" lon="-4.3496699631">
        <ele>374.57</ele>
        <time>2018-05-19T10:01:11Z</time>
      </trkpt>
      <trkpt lat="43.2601892296" lon="-4.3496438954">
        <ele>375.53</ele>
        <time>2018-05-19T10:01:17Z</time>
      </trkpt>
      <trkpt lat="43.2600902393" lon="-4.3496369384">
        <ele>376.97</ele>
        <time>2018-05-19T10:01:23Z</time>
      </trkpt>
      <trkpt lat="43.2599878963" lon="-4.3496313225">
        <ele>377.94</ele>
        <time>2018-05-19T10:01:29Z</time>
      </trkpt>
      <trkpt lat="43.2599370182" lon="-4.3495093659">
        <ele>379.38</ele>
        <time>2018-05-19T10:01:35Z</time>
      </trkpt>
      <trkpt lat="43.2599194162" lon="-4.3493657839">
        <ele>379.86</ele>
        <time>2018-05-19T10:01:41Z</time>
      </trkpt>
      <trkpt lat="43.2598743215" lon="-4.3491950445">
        <ele>377.94</ele>
        <time>2018-05-19T10:01:45Z</time>
      </trkpt>
      <trkpt lat="43.2598509360" lon="-4.3490607664">
        <ele>377.45</ele>
        <time>2018-05-19T10:01:47Z</time>
      </trkpt>
      <trkpt lat="43.2598413806" lon="-4.3489310145">
        <ele>375.53</ele>
        <time>2018-05-19T10:01:49Z</time>
      </trkpt>
      <trkpt lat="43.2598507684" lon="-4.3487568386">
        <ele>372.17</ele>
        <time>2018-05-19T10:01:51Z</time>
      </trkpt>
      <trkpt lat="43.2598614972" lon="-4.3486099876">
        <ele>370.24</ele>
        <time>2018-05-19T10:01:53Z</time>
      </trkpt>
      <trkpt lat="43.2598965336" lon="-4.3484681658">
        <ele>369.28</ele>
        <time>2018-05-19T10:01:55Z</time>
      </trkpt>
      <trkpt lat="43.2599670254" lon="-4.3483289424">
        <ele>367.36</ele>
        <time>2018-05-19T10:01:57Z</time>
      </trkpt>
      <trkpt lat="43.2600559574" lon="-4.3481417745">
        <ele>364.96</ele>
        <time>2018-05-19T10:01:59Z</time>
      </trkpt>
      <trkpt lat="43.2601287961" lon="-4.3479608931">
        <ele>362.55</ele>
        <time>2018-05-19T10:02:01Z</time>
      </trkpt>
      <trkpt lat="43.2601940911" lon="-4.3477377668">
        <ele>360.63</ele>
        <time>2018-05-19T10:02:03Z</time>
      </trkpt>
      <trkpt lat="43.2602305524" lon="-4.3475010619">
        <ele>359.67</ele>
        <time>2018-05-19T10:02:05Z</time>
      </trkpt>
      <trkpt lat="43.2602383476" lon="-4.3473797757">
        <ele>359.67</ele>
        <time>2018-05-19T10:02:06Z</time>
      </trkpt>
      <trkpt lat="43.2602444664" lon="-4.3471752573">
        <ele>357.75</ele>
        <time>2018-05-19T10:02:08Z</time>
      </trkpt>
      <trkpt lat="43.2602334023" lon="-4.3469729181">
        <ele>357.27</ele>
        <time>2018-05-19T10:02:10Z</time>
      </trkpt>
      <trkpt lat="43.2601853739" lon="-4.3467850797">
        <ele>356.31</ele>
        <time>2018-05-19T10:02:12Z</time>
      </trkpt>
      <trkpt lat="43.2601039857" lon="-4.3466414139">
        <ele>355.34</ele>
        <time>2018-05-19T10:02:14Z</time>
      </trkpt>
      <trkpt lat="43.2600168139" lon="-4.3464837503">
        <ele>354.38</ele>
        <time>2018-05-19T10:02:16Z</time>
      </trkpt>
      <trkpt lat="43.2599788439" lon="-4.3463231530">
        <ele>354.38</ele>
        <time>2018-05-19T10:02:18Z</time>
      </trkpt>
      <trkpt lat="43.2600427140" lon="-4.3461534195">
        <ele>352.94</ele>
        <time>2018-05-19T10:02:20Z</time>
      </trkpt>
      <trkpt lat="43.2601246890" lon="-4.3460041378">
        <ele>351.50</ele>
        <time>2018-05-19T10:02:22Z</time>
      </trkpt>
      <trkpt lat="43.2601880562" lon="-4.3458078336">
        <ele>349.58</ele>
        <time>2018-05-19T10:02:24Z</time>
      </trkpt>
      <trkpt lat="43.2602141239" lon="-4.3456238508">
        <ele>349.10</ele>
        <time>2018-05-19T10:02:26Z</time>
      </trkpt>
      <trkpt lat="43.2602085918" lon="-4.3454567157">
        <ele>348.13</ele>
        <time>2018-05-19T10:02:28Z</time>
      </trkpt>
      <trkpt lat="43.2601370942" lon="-4.3453679513">
        <ele>347.17</ele>
        <time>2018-05-19T10:02:30Z</time>
      </trkpt>
      <trkpt lat="43.2600343321" lon="-4.3453032430">
        <ele>346.21</ele>
        <time>2018-05-19T10:02:32Z</time>
      </trkpt>
      <trkpt lat="43.2599534467" lon="-4.3451931886">
        <ele>345.73</ele>
        <time>2018-05-19T10:02:34Z</time>
      </trkpt>
      <trkpt lat="43.2599328272" lon="-4.3450403027">
        <ele>344.77</ele>
        <time>2018-05-19T10:02:36Z</time>
      </trkpt>
      <trkpt lat="43.2599729765" lon="-4.3448930327">
        <ele>343.33</ele>
        <time>2018-05-19T10:02:38Z</time>
      </trkpt>
      <trkpt lat="43.2600487489" lon="-4.3447445054">
        <ele>341.89</ele>
        <time>2018-05-19T10:02:40Z</time>
      </trkpt>
      <trkpt lat="43.2601599768" lon="-4.3446033541">
        <ele>340.44</ele>
        <time>2018-05-19T10:02:42Z</time>
      </trkpt>
      <trkpt lat="43.2603045646" lon="-4.3444639631">
        <ele>338.52</ele>
        <time>2018-05-19T10:02:44Z</time>
      </trkpt>
      <trkpt lat="43.2604316343" lon="-4.3443511426">
        <ele>336.12</ele>
        <time>2018-05-19T10:02:46Z</time>
      </trkpt>
      <trkpt lat="43.2605302054" lon="-4.3442089856">
        <ele>334.68</ele>
        <time>2018-05-19T10:02:48Z</time>
      </trkpt>
      <trkpt lat="43.2605708577" lon="-4.3440273497">
        <ele>334.20</ele>
        <time>2018-05-19T10:02:50Z</time>
      </trkpt>
      <trkpt lat="43.2606369909" lon="-4.3438956700">
        <ele>332.75</ele>
        <time>2018-05-19T10:02:52Z</time>
      </trkpt>
      <trkpt lat="43.2607359812" lon="-4.3438149523">
        <ele>332.27</ele>
        <time>2018-05-19T10:02:54Z</time>
      </trkpt>
      <trkpt lat="43.2608011924" lon="-4.3436587974">
        <ele>331.31</ele>
        <time>2018-05-19T10:02:56Z</time>
      </trkpt>
      <trkpt lat="43.2608167827" lon="-4.3434516806">
        <ele>329.87</ele>
        <time>2018-05-19T10:02:58Z</time>
      </trkpt>
      <trkpt lat="43.2608612068" lon="-4.3432547897">
        <ele>329.39</ele>
        <time>2018-05-19T10:03:00Z</time>
      </trkpt>
      <trkpt lat="43.2608833350" lon="-4.3431189191">
        <ele>328.43</ele>
        <time>2018-05-19T10:03:02Z</time>
      </trkpt>
      <trkpt lat="43.2608204708" lon="-4.3430050090">
        <ele>327.47</ele>
        <time>2018-05-19T10:03:04Z</time>
      </trkpt>
      <trkpt lat="43.2606945746" lon="-4.3429361936">
        <ele>326.50</ele>
        <time>2018-05-19T10:03:06Z</time>
      </trkpt>
      <trkpt lat="43.2605408505" lon="-4.3428439926">
        <ele>323.62</ele>
        <time>2018-05-19T10:03:08Z</time>
      </trkpt>
      <trkpt lat="43.2604244258" lon="-4.3427618500">
        <ele>323.62</ele>
        <time>2018-05-19T10:03:10Z</time>
      </trkpt>
      <trkpt lat="43.2603058219" lon="-4.3426530529">
        <ele>321.70</ele>
        <time>2018-05-19T10:03:12Z</time>
      </trkpt>
      <trkpt lat="43.2601949293" lon="-4.3424798828">
        <ele>320.74</ele>
        <time>2018-05-19T10:03:14Z</time>
      </trkpt>
      <trkpt lat="43.2601472363" lon="-4.3423009291">
        <ele>319.78</ele>
        <time>2018-05-19T10:03:16Z</time>
      </trkpt>
      <trkpt lat="43.2601747289" lon="-4.3421726860">
        <ele>319.30</ele>
        <time>2018-05-19T10:03:18Z</time>
      </trkpt>
      <trkpt lat="43.2602556143" lon="-4.3420734443">
        <ele>318.33</ele>
        <time>2018-05-19T10:03:20Z</time>
      </trkpt>
      <trkpt lat="43.2603348233" lon="-4.3419636413">
        <ele>316.41</ele>
        <time>2018-05-19T10:03:22Z</time>
      </trkpt>
      <trkpt lat="43.2603694405" lon="-4.3418122642">
        <ele>314.01</ele>
        <time>2018-05-19T10:03:24Z</time>
      </trkpt>
      <trkpt lat="43.2603535149" lon="-4.3416179717">
        <ele>312.09</ele>
        <time>2018-05-19T10:03:26Z</time>
      </trkpt>
      <trkpt lat="43.2603361644" lon="-4.3414482381">
        <ele>311.60</ele>
        <time>2018-05-19T10:03:28Z</time>
      </trkpt>
      <trkpt lat="43.2602930814" lon="-4.3412883114">
        <ele>311.12</ele>
        <time>2018-05-19T10:03:30Z</time>
      </trkpt>
      <trkpt lat="43.2602195721" lon="-4.3411814421">
        <ele>311.12</ele>
        <time>2018-05-19T10:03:32Z</time>
      </trkpt>
      <trkpt lat="43.2601592224" lon="-4.3410753272">
        <ele>311.12</ele>
        <time>2018-05-19T10:03:34Z</time>
      </trkpt>
      <trkpt lat="43.2601410337" lon="-4.3409468327">
        <ele>313.05</ele>
        <time>2018-05-19T10:03:37Z</time>
      </trkpt>
      <trkpt lat="43.2601694483" lon="-4.3408029154">
        <ele>314.97</ele>
        <time>2018-05-19T10:03:43Z</time>
      </trkpt>
      <trkpt lat="43.2602249365" lon="-4.3406927772">
        <ele>316.41</ele>
        <time>2018-05-19T10:03:48Z</time>
      </trkpt>
      <trkpt lat="43.2602797542" lon="-4.3405584991">
        <ele>317.37</ele>
        <time>2018-05-19T10:03:54Z</time>
      </trkpt>
      <trkpt lat="43.2603375893" lon="-4.3404227961">
        <ele>318.33</ele>
        <time>2018-05-19T10:03:59Z</time>
      </trkpt>
      <trkpt lat="43.2603930775" lon="-4.3402807228">
        <ele>319.30</ele>
        <time>2018-05-19T10:04:04Z</time>
      </trkpt>
      <trkpt lat="43.2604422793" lon="-4.3401492108">
        <ele>320.74</ele>
        <time>2018-05-19T10:04:09Z</time>
      </trkpt>
      <trkpt lat="43.2604872063" lon="-4.3400298525">
        <ele>322.18</ele>
        <time>2018-05-19T10:04:15Z</time>
      </trkpt>
      <trkpt lat="43.2605325524" lon="-4.3398973346">
        <ele>324.10</ele>
        <time>2018-05-19T10:04:21Z</time>
      </trkpt>
      <trkpt lat="43.2605613861" lon="-4.3397624698">
        <ele>326.02</ele>
        <time>2018-05-19T10:04:28Z</time>
      </trkpt>
      <trkpt lat="43.2606148627" lon="-4.3396390043">
        <ele>327.47</ele>
        <time>2018-05-19T10:04:35Z</time>
      </trkpt>
      <trkpt lat="43.2606957480" lon="-4.3395232502">
        <ele>328.91</ele>
        <time>2018-05-19T10:04:42Z</time>
      </trkpt>
      <trkpt lat="43.2607436087" lon="-4.3393898942">
        <ele>329.87</ele>
        <time>2018-05-19T10:04:49Z</time>
      </trkpt>
      <trkpt lat="43.2607638929" lon="-4.3392540235">
        <ele>332.27</ele>
        <time>2018-05-19T10:04:56Z</time>
      </trkpt>
      <trkpt lat="43.2608092390" lon="-4.3391210027">
        <ele>334.20</ele>
        <time>2018-05-19T10:05:03Z</time>
      </trkpt>
      <trkpt lat="43.2608655654" lon="-4.3390003871">
        <ele>336.12</ele>
        <time>2018-05-19T10:05:10Z</time>
      </trkpt>
      <trkpt lat="43.2609472889" lon="-4.3389234412">
        <ele>337.08</ele>
        <time>2018-05-19T10:05:16Z</time>
      </trkpt>
      <trkpt lat="43.2610567566" lon="-4.3388931826">
        <ele>337.56</ele>
        <time>2018-05-19T10:05:23Z</time>
      </trkpt>
      <trkpt lat="43.2611520588" lon="-4.3388742395">
        <ele>338.52</ele>
        <time>2018-05-19T10:05:29Z</time>
      </trkpt>
      <trkpt lat="43.2612629514" lon="-4.3388965353">
        <ele>339.48</ele>
        <time>2018-05-19T10:05:36Z</time>
      </trkpt>
      <trkpt lat="43.2613644563" lon="-4.3389178254">
        <ele>340.92</ele>
        <time>2018-05-19T10:05:43Z</time>
      </trkpt>
      <trkpt lat="43.2614557352" lon="-4.3389406241">
        <ele>342.85</ele>
        <time>2018-05-19T10:05:49Z</time>
      </trkpt>
      <trkpt lat="43.2615472656" lon="-4.3389635067">
        <ele>344.77</ele>
        <time>2018-05-19T10:05:55Z</time>
      </trkpt>
      <trkpt lat="43.2616535481" lon="-4.3389766663">
        <ele>347.65</ele>
        <time>2018-05-19T10:06:02Z</time>
      </trkpt>
      <trkpt lat="43.2617461681" lon="-4.3389581423">
        <ele>349.10</ele>
        <time>2018-05-19T10:06:08Z</time>
      </trkpt>
      <trkpt lat="43.2618198451" lon="-4.3388703000">
        <ele>349.58</ele>
        <time>2018-05-19T10:06:14Z</time>
      </trkpt>
      <trkpt lat="43.2618405484" lon="-4.3387308251">
        <ele>351.50</ele>
        <time>2018-05-19T10:06:20Z</time>
      </trkpt>
      <trkpt lat="43.2618109602" lon="-4.3386005703">
        <ele>352.46</ele>
        <time>2018-05-19T10:06:27Z</time>
      </trkpt>
      <trkpt lat="43.2617623452" lon="-4.3384826370">
        <ele>354.38</ele>
        <time>2018-05-19T10:06:34Z</time>
      </trkpt>
      <trkpt lat="43.2616973016" lon="-4.3383763544">
        <ele>356.79</ele>
        <time>2018-05-19T10:06:41Z</time>
      </trkpt>
      <trkpt lat="43.2616146561" lon="-4.3382887635">
        <ele>358.71</ele>
        <time>2018-05-19T10:06:48Z</time>
      </trkpt>
      <trkpt lat="43.2615287416" lon="-4.3382068723">
        <ele>360.15</ele>
        <time>2018-05-19T10:06:54Z</time>
      </trkpt>
      <trkpt lat="43.2614564057" lon="-4.3381027691">
        <ele>362.55</ele>
        <time>2018-05-19T10:07:01Z</time>
      </trkpt>
      <trkpt lat="43.2613885961" lon="-4.3379832432">
        <ele>364.96</ele>
        <time>2018-05-19T10:07:09Z</time>
      </trkpt>
      <trkpt lat="43.2613286655" lon="-4.3378565926">
        <ele>367.36</ele>
        <time>2018-05-19T10:07:16Z</time>
      </trkpt>
      <trkpt lat="43.2613357063" lon="-4.3377246615">
        <ele>368.32</ele>
        <time>2018-05-19T10:07:22Z</time>
      </trkpt>
      <trkpt lat="43.2613710780" lon="-4.3376064766">
        <ele>369.76</ele>
        <time>2018-05-19T10:07:28Z</time>
      </trkpt>
      <trkpt lat="43.2613927033" lon="-4.3374654092">
        <ele>370.24</ele>
        <time>2018-05-19T10:07:34Z</time>
      </trkpt>
      <trkpt lat="43.2613794599" lon="-4.3373352382">
        <ele>370.73</ele>
        <time>2018-05-19T10:07:39Z</time>
      </trkpt>
      <trkpt lat="43.2613569964" lon="-4.3372101802">
        <ele>370.73</ele>
        <time>2018-05-19T10:07:44Z</time>
      </trkpt>
      <trkpt lat="43.2613660488" lon="-4.3370818533">
        <ele>370.73</ele>
        <time>2018-05-19T10:07:47Z</time>
      </trkpt>
      <trkpt lat="43.2614098024" lon="-4.3369461503">
        <ele>368.32</ele>
        <time>2018-05-19T10:07:49Z</time>
      </trkpt>
      <trkpt lat="43.2614252251" lon="-4.3367897440">
        <ele>366.40</ele>
        <time>2018-05-19T10:07:51Z</time>
      </trkpt>
      <trkpt lat="43.2614095509" lon="-4.3365905900">
        <ele>365.44</ele>
        <time>2018-05-19T10:07:53Z</time>
      </trkpt>
      <trkpt lat="43.2613669708" lon="-4.3364213593">
        <ele>365.44</ele>
        <time>2018-05-19T10:07:55Z</time>
      </trkpt>
      <trkpt lat="43.2613355387" lon="-4.3362650368">
        <ele>368.80</ele>
        <time>2018-05-19T10:07:58Z</time>
      </trkpt>
      <trkpt lat="43.2613133267" lon="-4.3361266516">
        <ele>371.21</ele>
        <time>2018-05-19T10:08:03Z</time>
      </trkpt>
      <trkpt lat="43.2612888515" lon="-4.3359954748">
        <ele>373.61</ele>
        <time>2018-05-19T10:08:09Z</time>
      </trkpt>
      <trkpt lat="43.2612827327" lon="-4.3358575925">
        <ele>374.57</ele>
        <time>2018-05-19T10:08:14Z</time>
      </trkpt>
      <trkpt lat="43.2612681482" lon="-4.3357172795">
        <ele>375.53</ele>
        <time>2018-05-19T10:08:19Z</time>
      </trkpt>
      <trkpt lat="43.2612474449" lon="-4.3355623819">
        <ele>376.01</ele>
        <time>2018-05-19T10:08:23Z</time>
      </trkpt>
      <trkpt lat="43.2612224668" lon="-4.3354293611">
        <ele>376.01</ele>
        <time>2018-05-19T10:08:26Z</time>
      </trkpt>
      <trkpt lat="43.2612098102" lon="-4.3352934904">
        <ele>376.01</ele>
        <time>2018-05-19T10:08:29Z</time>
      </trkpt>
      <trkpt lat="43.2611996680" lon="-4.3351371679">
        <ele>376.01</ele>
        <time>2018-05-19T10:08:32Z</time>
      </trkpt>
      <trkpt lat="43.2611919567" lon="-4.3350003753">
        <ele>376.01</ele>
        <time>2018-05-19T10:08:35Z</time>
      </trkpt>
      <trkpt lat="43.2612012606" lon="-4.3348604813">
        <ele>376.01</ele>
        <time>2018-05-19T10:08:38Z</time>
      </trkpt>
      <trkpt lat="43.2612453494" lon="-4.3347001355">
        <ele>376.01</ele>
        <time>2018-05-19T10:08:41Z</time>
      </trkpt>
      <trkpt lat="43.2612917013" lon="-4.3345772568">
        <ele>375.05</ele>
        <time>2018-05-19T10:08:43Z</time>
      </trkpt>
      <trkpt lat="43.2613452617" lon="-4.3344518635">
        <ele>375.05</ele>
        <time>2018-05-19T10:08:45Z</time>
      </trkpt>
      <trkpt lat="43.2614092156" lon="-4.3342884164">
        <ele>375.05</ele>
        <time>2018-05-19T10:08:48Z</time>
      </trkpt>
      <trkpt lat="43.2614602614" lon="-4.3341789488">
        <ele>374.57</ele>
        <time>2018-05-19T10:08:50Z</time>
      </trkpt>
      <trkpt lat="43.2615344413" lon="-4.3340856582">
        <ele>374.09</ele>
        <time>2018-05-19T10:08:52Z</time>
      </trkpt>
      <trkpt lat="43.2616341021" lon="-4.3339642882">
        <ele>371.69</ele>
        <time>2018-05-19T10:08:54Z</time>
      </trkpt>
      <trkpt lat="43.2617299072" lon="-4.3338331953">
        <ele>370.73</ele>
        <time>2018-05-19T10:08:56Z</time>
      </trkpt>
      <trkpt lat="43.2618460804" lon="-4.3336891104">
        <ele>367.36</ele>
        <time>2018-05-19T10:08:58Z</time>
      </trkpt>
      <trkpt lat="43.2619149797" lon="-4.3335327040">
        <ele>366.88</ele>
        <time>2018-05-19T10:09:00Z</time>
      </trkpt>
      <trkpt lat="43.2619091123" lon="-4.3333963305">
        <ele>368.32</ele>
        <time>2018-05-19T10:09:02Z</time>
      </trkpt>
      <trkpt lat="43.2618691307" lon="-4.3332720269">
        <ele>370.73</ele>
        <time>2018-05-19T10:09:05Z</time>
      </trkpt>
      <trkpt lat="43.2618357707" lon="-4.3331240024">
        <ele>373.61</ele>
        <time>2018-05-19T10:09:11Z</time>
      </trkpt>
      <trkpt lat="43.2618277241" lon="-4.3329897244">
        <ele>375.05</ele>
        <time>2018-05-19T10:09:16Z</time>
      </trkpt>
      <trkpt lat="43.2618322503" lon="-4.3328375928">
        <ele>375.53</ele>
        <time>2018-05-19T10:09:21Z</time>
      </trkpt>
      <trkpt lat="43.2618437335" lon="-4.3327033985">
        <ele>376.01</ele>
        <time>2018-05-19T10:09:25Z</time>
      </trkpt>
      <trkpt lat="43.2618998922" lon="-4.3325699586">
        <ele>376.49</ele>
        <time>2018-05-19T10:09:30Z</time>
      </trkpt>
      <trkpt lat="43.2619509380" lon="-4.3324561324">
        <ele>377.45</ele>
        <time>2018-05-19T10:09:35Z</time>
      </trkpt>
      <trkpt lat="43.2620205078" lon="-4.3323425576">
        <ele>378.42</ele>
        <time>2018-05-19T10:09:40Z</time>
      </trkpt>
      <trkpt lat="43.2620670274" lon="-4.3322213553">
        <ele>379.86</ele>
        <time>2018-05-19T10:09:46Z</time>
      </trkpt>
      <trkpt lat="43.2620707154" lon="-4.3320758455">
        <ele>381.78</ele>
        <time>2018-05-19T10:09:53Z</time>
      </trkpt>
      <trkpt lat="43.2620832045" lon="-4.3319256417">
        <ele>383.70</ele>
        <time>2018-05-19T10:10:00Z</time>
      </trkpt>
      <trkpt lat="43.2620965317" lon="-4.3317831494">
        <ele>385.63</ele>
        <time>2018-05-19T10:10:08Z</time>
      </trkpt>
      <trkpt lat="43.2621196657" lon="-4.3316485360">
        <ele>387.55</ele>
        <time>2018-05-19T10:10:16Z</time>
      </trkpt>
      <trkpt lat="43.2621531934" lon="-4.3315150123">
        <ele>389.95</ele>
        <time>2018-05-19T10:10:24Z</time>
      </trkpt>
      <trkpt lat="43.2621944323" lon="-4.3313839193">
        <ele>392.36</ele>
        <time>2018-05-19T10:10:32Z</time>
      </trkpt>
      <trkpt lat="43.2622536086" lon="-4.3312690873">
        <ele>395.72</ele>
        <time>2018-05-19T10:10:40Z</time>
      </trkpt>
      <trkpt lat="43.2623236813" lon="-4.3313101586">
        <ele>397.16</ele>
        <time>2018-05-19T10:10:47Z</time>
      </trkpt>
      <trkpt lat="43.2623565383" lon="-4.3314310256">
        <ele>399.08</ele>
        <time>2018-05-19T10:10:53Z</time>
      </trkpt>
      <trkpt lat="43.2623889763" lon="-4.3315433431">
        <ele>400.53</ele>
        <time>2018-05-19T10:11:00Z</time>
      </trkpt>
      <trkpt lat="43.2624202408" lon="-4.3316712510">
        <ele>401.97</ele>
        <time>2018-05-19T10:11:07Z</time>
      </trkpt>
      <trkpt lat="43.2624534331" lon="-4.3318071216">
        <ele>403.41</ele>
        <time>2018-05-19T10:11:14Z</time>
      </trkpt>
      <trkpt lat="43.2625038922" lon="-4.3319300842">
        <ele>405.33</ele>
        <time>2018-05-19T10:11:21Z</time>
      </trkpt>
      <trkpt lat="43.2625723723" lon="-4.3320206925">
        <ele>405.81</ele>
        <time>2018-05-19T10:11:27Z</time>
      </trkpt>
      <trkpt lat="43.2626358233" lon="-4.3321262207">
        <ele>406.77</ele>
        <time>2018-05-19T10:11:33Z</time>
      </trkpt>
      <trkpt lat="43.2626934908" lon="-4.3322700541">
        <ele>407.26</ele>
        <time>2018-05-19T10:11:40Z</time>
      </trkpt>
      <trkpt lat="43.2627364062" lon="-4.3324013148">
        <ele>408.70</ele>
        <time>2018-05-19T10:11:46Z</time>
      </trkpt>
      <trkpt lat="43.2627707720" lon="-4.3325333297">
        <ele>410.14</ele>
        <time>2018-05-19T10:11:53Z</time>
      </trkpt>
      <trkpt lat="43.2627903018" lon="-4.3326767441">
        <ele>412.06</ele>
        <time>2018-05-19T10:12:00Z</time>
      </trkpt>
      <trkpt lat="43.2628041320" lon="-4.3328205775">
        <ele>413.50</ele>
        <time>2018-05-19T10:12:07Z</time>
      </trkpt>
      <trkpt lat="43.2628395036" lon="-4.3329533469">
        <ele>414.95</ele>
        <time>2018-05-19T10:12:14Z</time>
      </trkpt>
      <trkpt lat="43.2629132643" lon="-4.3330457155">
        <ele>415.91</ele>
        <time>2018-05-19T10:12:21Z</time>
      </trkpt>
      <trkpt lat="43.2630005199" lon="-4.3330792431">
        <ele>417.83</ele>
        <time>2018-05-19T10:12:28Z</time>
      </trkpt>
      <trkpt lat="43.2630905416" lon="-4.3330681790">
        <ele>419.75</ele>
        <time>2018-05-19T10:12:35Z</time>
      </trkpt>
      <trkpt lat="43.2631760370" lon="-4.3330312148">
        <ele>422.16</ele>
        <time>2018-05-19T10:12:43Z</time>
      </trkpt>
      <trkpt lat="43.2632290106" lon="-4.3329157121">
        <ele>424.56</ele>
        <time>2018-05-19T10:12:53Z</time>
      </trkpt>
      <trkpt lat="43.2632560004" lon="-4.3327850383">
        <ele>426.96</ele>
        <time>2018-05-19T10:13:02Z</time>
      </trkpt>
      <trkpt lat="43.2633106504" lon="-4.3326530233">
        <ele>429.85</ele>
        <time>2018-05-19T10:13:10Z</time>
      </trkpt>
      <trkpt lat="43.2633804716" lon="-4.3325427175">
        <ele>431.29</ele>
        <time>2018-05-19T10:13:17Z</time>
      </trkpt>
      <trkpt lat="43.2634601835" lon="-4.3324609101">
        <ele>433.21</ele>
        <time>2018-05-19T10:13:24Z</time>
      </trkpt>
      <trkpt lat="43.2635592576" lon="-4.3324023206">
        <ele>434.65</ele>
        <time>2018-05-19T10:13:31Z</time>
      </trkpt>
      <trkpt lat="43.2636688929" lon="-4.3323840480">
        <ele>436.58</ele>
        <time>2018-05-19T10:13:38Z</time>
      </trkpt>
      <trkpt lat="43.2637433242" lon="-4.3324265443">
        <ele>438.02</ele>
        <time>2018-05-19T10:13:45Z</time>
      </trkpt>
      <trkpt lat="43.2638292387" lon="-4.3324983772">
        <ele>439.46</ele>
        <time>2018-05-19T10:13:52Z</time>
      </trkpt>
      <trkpt lat="43.2639112137" lon="-4.3325698748">
        <ele>441.38</ele>
        <time>2018-05-19T10:13:59Z</time>
      </trkpt>
      <trkpt lat="43.2640076056" lon="-4.3325530272">
        <ele>442.34</ele>
        <time>2018-05-19T10:14:06Z</time>
      </trkpt>
      <trkpt lat="43.2640304044" lon="-4.3324428052">
        <ele>444.27</ele>
        <time>2018-05-19T10:14:12Z</time>
      </trkpt>
      <trkpt lat="43.2640015706" lon="-4.3323229440">
        <ele>446.19</ele>
        <time>2018-05-19T10:14:19Z</time>
      </trkpt>
      <trkpt lat="43.2639563084" lon="-4.3322165776">
        <ele>448.11</ele>
        <time>2018-05-19T10:14:26Z</time>
      </trkpt>
      <trkpt lat="43.2639414724" lon="-4.3320806231">
        <ele>450.03</ele>
        <time>2018-05-19T10:14:33Z</time>
      </trkpt>
      <trkpt lat="43.2639806997" lon="-4.3319464289">
        <ele>452.44</ele>
        <time>2018-05-19T10:14:41Z</time>
      </trkpt>
      <trkpt lat="43.2640505210" lon="-4.3318599276">
        <ele>454.84</ele>
        <time>2018-05-19T10:14:49Z</time>
      </trkpt>
      <trkpt lat="43.2641324122" lon="-4.3317794614">
        <ele>456.28</ele>
        <time>2018-05-19T10:14:58Z</time>
      </trkpt>
      <trkpt lat="43.2642187458" lon="-4.3316929601">
        <ele>458.69</ele>
        <time>2018-05-19T10:15:06Z</time>
      </trkpt>
      <trkpt lat="43.2643059175" lon="-4.3316075485">
        <ele>460.61</ele>
        <time>2018-05-19T10:15:14Z</time>
      </trkpt>
      <trkpt lat="43.2643888984" lon="-4.3315316923">
        <ele>462.53</ele>
        <time>2018-05-19T10:15:22Z</time>
      </trkpt>
      <trkpt lat="43.2644800935" lon="-4.3314732704">
        <ele>463.49</ele>
        <time>2018-05-19T10:15:29Z</time>
      </trkpt>
      <trkpt lat="43.2645822689" lon="-4.3314467836">
        <ele>464.93</ele>
        <time>2018-05-19T10:15:35Z</time>
      </trkpt>
      <trkpt lat="43.2646817621" lon="-4.3314144295">
        <ele>466.86</ele>
        <time>2018-05-19T10:15:42Z</time>
      </trkpt>
      <trkpt lat="43.2647739630" lon="-4.3313792255">
        <ele>468.30</ele>
        <time>2018-05-19T10:15:49Z</time>
      </trkpt>
      <trkpt lat="43.2648499031" lon="-4.3312659021">
        <ele>471.18</ele>
        <time>2018-05-19T10:15:58Z</time>
      </trkpt>
      <trkpt lat="43.2648785692" lon="-4.3311265111">
        <ele>473.11</ele>
        <time>2018-05-19T10:16:05Z</time>
      </trkpt>
      <trkpt lat="43.2648711093" lon="-4.3309911434">
        <ele>474.07</ele>
        <time>2018-05-19T10:16:12Z</time>
      </trkpt>
      <trkpt lat="43.2648431975" lon="-4.3308508303">
        <ele>474.55</ele>
        <time>2018-05-19T10:16:18Z</time>
      </trkpt>
      <trkpt lat="43.2647915650" lon="-4.3307262752">
        <ele>475.03</ele>
        <time>2018-05-19T10:16:23Z</time>
      </trkpt>
      <trkpt lat="43.2647406869" lon="-4.3305797596">
        <ele>475.99</ele>
        <time>2018-05-19T10:16:28Z</time>
      </trkpt>
      <trkpt lat="43.2647054829" lon="-4.3304328248">
        <ele>475.99</ele>
        <time>2018-05-19T10:16:32Z</time>
      </trkpt>
      <trkpt lat="43.2646746375" lon="-4.3302925956">
        <ele>476.95</ele>
        <time>2018-05-19T10:16:36Z</time>
      </trkpt>
      <trkpt lat="43.2646636572" lon="-4.3301468343">
        <ele>476.95</ele>
        <time>2018-05-19T10:16:40Z</time>
      </trkpt>
      <trkpt lat="43.2646615617" lon="-4.3300016597">
        <ele>477.43</ele>
        <time>2018-05-19T10:16:44Z</time>
      </trkpt>
      <trkpt lat="43.2646576222" lon="-4.3298589159">
        <ele>477.43</ele>
        <time>2018-05-19T10:16:48Z</time>
      </trkpt>
      <trkpt lat="43.2646858692" lon="-4.3297142442">
        <ele>478.39</ele>
        <time>2018-05-19T10:16:52Z</time>
      </trkpt>
      <trkpt lat="43.2647399325" lon="-4.3295927905">
        <ele>478.87</ele>
        <time>2018-05-19T10:16:56Z</time>
      </trkpt>
      <trkpt lat="43.2648078259" lon="-4.3294778746">
        <ele>480.80</ele>
        <time>2018-05-19T10:17:02Z</time>
      </trkpt>
      <trkpt lat="43.2648618892" lon="-4.3293534033">
        <ele>482.24</ele>
        <time>2018-05-19T10:17:09Z</time>
      </trkpt>
      <trkpt lat="43.2649493124" lon="-4.3292596936">
        <ele>484.16</ele>
        <time>2018-05-19T10:17:16Z</time>
      </trkpt>
      <trkpt lat="43.2649985142" lon="-4.3291229010">
        <ele>486.08</ele>
        <time>2018-05-19T10:17:25Z</time>
      </trkpt>
      <trkpt lat="43.2649612986" lon="-4.3289964180">
        <ele>487.53</ele>
        <time>2018-05-19T10:17:30Z</time>
      </trkpt>
      <trkpt lat="43.2648933213" lon="-4.3288851902">
        <ele>488.49</ele>
        <time>2018-05-19T10:17:36Z</time>
      </trkpt>
      <trkpt lat="43.2648245059" lon="-4.3287795782">
        <ele>489.45</ele>
        <time>2018-05-19T10:17:42Z</time>
      </trkpt>
      <trkpt lat="43.2647841051" lon="-4.3286505807">
        <ele>491.37</ele>
        <time>2018-05-19T10:17:48Z</time>
      </trkpt>
      <trkpt lat="43.2647743821" lon="-4.3285159674">
        <ele>492.81</ele>
        <time>2018-05-19T10:17:54Z</time>
      </trkpt>
      <trkpt lat="43.2647971809" lon="-4.3283903226">
        <ele>493.77</ele>
        <time>2018-05-19T10:17:59Z</time>
      </trkpt>
      <trkpt lat="43.2648431137" lon="-4.3282498419">
        <ele>494.26</ele>
        <time>2018-05-19T10:18:05Z</time>
      </trkpt>
      <trkpt lat="43.2648789044" lon="-4.3281262927">
        <ele>495.70</ele>
        <time>2018-05-19T10:18:10Z</time>
      </trkpt>
      <trkpt lat="43.2648820058" lon="-4.3279902544">
        <ele>497.14</ele>
        <time>2018-05-19T10:18:17Z</time>
      </trkpt>
      <trkpt lat="43.2648862805" lon="-4.3278431520">
        <ele>499.06</ele>
        <time>2018-05-19T10:18:23Z</time>
      </trkpt>
      <trkpt lat="43.2649008650" lon="-4.3277083710">
        <ele>500.02</ele>
        <time>2018-05-19T10:18:29Z</time>
      </trkpt>
      <trkpt lat="43.2649574429" lon="-4.3275979813">
        <ele>500.98</ele>
        <time>2018-05-19T10:18:34Z</time>
      </trkpt>
      <trkpt lat="43.2650040463" lon="-4.3274663016">
        <ele>501.95</ele>
        <time>2018-05-19T10:18:40Z</time>
      </trkpt>
      <trkpt lat="43.2649522461" lon="-4.3273657188">
        <ele>502.91</ele>
        <time>2018-05-19T10:18:45Z</time>
      </trkpt>
      <trkpt lat="43.2648665830" lon="-4.3273243960">
        <ele>503.39</ele>
        <time>2018-05-19T10:18:50Z</time>
      </trkpt>
      <trkpt lat="43.2647816744" lon="-4.3272818159">
        <ele>503.87</ele>
        <time>2018-05-19T10:18:55Z</time>
      </trkpt>
      <trkpt lat="43.2646800857" lon="-4.3272286747">
        <ele>504.83</ele>
        <time>2018-05-19T10:19:00Z</time>
      </trkpt>
      <trkpt lat="43.2645874657" lon="-4.3272029422">
        <ele>505.31</ele>
        <time>2018-05-19T10:19:04Z</time>
      </trkpt>
      <trkpt lat="43.2644779980" lon="-4.3271669000">
        <ele>506.27</ele>
        <time>2018-05-19T10:19:09Z</time>
      </trkpt>
      <trkpt lat="43.2643925864" lon="-4.3271456938">
        <ele>506.75</ele>
        <time>2018-05-19T10:19:13Z</time>
      </trkpt>
      <trkpt lat="43.2642894052" lon="-4.3271138426">
        <ele>507.71</ele>
        <time>2018-05-19T10:19:18Z</time>
      </trkpt>
      <trkpt lat="43.2641925942" lon="-4.3270886131">
        <ele>508.67</ele>
        <time>2018-05-19T10:19:23Z</time>
      </trkpt>
      <trkpt lat="43.2641065121" lon="-4.3270629644">
        <ele>509.64</ele>
        <time>2018-05-19T10:19:28Z</time>
      </trkpt>
      <trkpt lat="43.2640128862" lon="-4.3270240724">
        <ele>510.60</ele>
        <time>2018-05-19T10:19:34Z</time>
      </trkpt>
      <trkpt lat="43.2639216073" lon="-4.3269690871">
        <ele>511.56</ele>
        <time>2018-05-19T10:19:39Z</time>
      </trkpt>
      <trkpt lat="43.2638336811" lon="-4.3269380741">
        <ele>512.04</ele>
        <time>2018-05-19T10:19:43Z</time>
      </trkpt>
      <trkpt lat="43.2637243811" lon="-4.3269234058">
        <ele>513.00</ele>
        <time>2018-05-19T10:19:48Z</time>
      </trkpt>
      <trkpt lat="43.2636191882" lon="-4.3269381579">
        <ele>514.44</ele>
        <time>2018-05-19T10:19:53Z</time>
      </trkpt>
      <trkpt lat="43.2635007519" lon="-4.3269457854">
        <ele>515.40</ele>
        <time>2018-05-19T10:19:58Z</time>
      </trkpt>
      <trkpt lat="43.2633913681" lon="-4.3269283511">
        <ele>515.88</ele>
        <time>2018-05-19T10:20:03Z</time>
      </trkpt>
      <trkpt lat="43.2632941380" lon="-4.3268929794">
        <ele>516.85</ele>
        <time>2018-05-19T10:20:08Z</time>
      </trkpt>
      <trkpt lat="43.2631839998" lon="-4.3268695101">
        <ele>517.33</ele>
        <time>2018-05-19T10:20:13Z</time>
      </trkpt>
      <trkpt lat="43.2630707603" lon="-4.3268476333">
        <ele>518.29</ele>
        <time>2018-05-19T10:20:18Z</time>
      </trkpt>
      <trkpt lat="43.2629570179" lon="-4.3268556800">
        <ele>519.25</ele>
        <time>2018-05-19T10:20:23Z</time>
      </trkpt>
      <trkpt lat="43.2628484722" lon="-4.3268747069">
        <ele>519.73</ele>
        <time>2018-05-19T10:20:28Z</time>
      </trkpt>
      <trkpt lat="43.2627625577" lon="-4.3268768862">
        <ele>520.69</ele>
        <time>2018-05-19T10:20:32Z</time>
      </trkpt>
      <trkpt lat="43.2626632322" lon="-4.3268847652">
        <ele>522.13</ele>
        <time>2018-05-19T10:20:37Z</time>
      </trkpt>
      <trkpt lat="43.2625499927" lon="-4.3268903811">
        <ele>523.09</ele>
        <time>2018-05-19T10:20:42Z</time>
      </trkpt>
      <trkpt lat="43.2624421176" lon="-4.3268784788">
        <ele>523.58</ele>
        <time>2018-05-19T10:20:47Z</time>
      </trkpt>
      <trkpt lat="43.2623520121" lon="-4.3268484715">
        <ele>524.06</ele>
        <time>2018-05-19T10:20:51Z</time>
      </trkpt>
      <trkpt lat="43.2622505073" lon="-4.3267912231">
        <ele>524.54</ele>
        <time>2018-05-19T10:20:56Z</time>
      </trkpt>
      <trkpt lat="43.2621451467" lon="-4.3267328013">
        <ele>525.50</ele>
        <time>2018-05-19T10:21:01Z</time>
      </trkpt>
      <trkpt lat="43.2620402053" lon="-4.3266996089">
        <ele>526.46</ele>
        <time>2018-05-19T10:21:06Z</time>
      </trkpt>
      <trkpt lat="43.2619297318" lon="-4.3266981840">
        <ele>527.42</ele>
        <time>2018-05-19T10:21:11Z</time>
      </trkpt>
      <trkpt lat="43.2618216053" lon="-4.3267000280">
        <ele>527.90</ele>
        <time>2018-05-19T10:21:16Z</time>
      </trkpt>
      <trkpt lat="43.2617138978" lon="-4.3266718648">
        <ele>528.86</ele>
        <time>2018-05-19T10:21:21Z</time>
      </trkpt>
      <trkpt lat="43.2616209425" lon="-4.3266309611">
        <ele>529.34</ele>
        <time>2018-05-19T10:21:25Z</time>
      </trkpt>
      <trkpt lat="43.2615264785" lon="-4.3265803345">
        <ele>530.30</ele>
        <time>2018-05-19T10:21:30Z</time>
      </trkpt>
      <trkpt lat="43.2614259794" lon="-4.3265298754">
        <ele>531.27</ele>
        <time>2018-05-19T10:21:35Z</time>
      </trkpt>
      <trkpt lat="43.2613247260" lon="-4.3265115190">
        <ele>531.75</ele>
        <time>2018-05-19T10:21:40Z</time>
      </trkpt>
      <trkpt lat="43.2612174377" lon="-4.3265085015">
        <ele>533.19</ele>
        <time>2018-05-19T10:21:45Z</time>
      </trkpt>
      <trkpt lat="43.2611083053" lon="-4.3264960963">
        <ele>533.67</ele>
        <time>2018-05-19T10:21:50Z</time>
      </trkpt>
      <trkpt lat="43.2610039506" lon="-4.3264972698">
        <ele>534.63</ele>
        <time>2018-05-19T10:21:55Z</time>
      </trkpt>
      <trkpt lat="43.2608977519" lon="-4.3264850322">
        <ele>535.11</ele>
        <time>2018-05-19T10:22:00Z</time>
      </trkpt>
      <trkpt lat="43.2607928105" lon="-4.3264445476">
        <ele>536.07</ele>
        <time>2018-05-19T10:22:05Z</time>
      </trkpt>
      <trkpt lat="43.2606882881" lon="-4.3264084216">
        <ele>536.55</ele>
        <time>2018-05-19T10:22:10Z</time>
      </trkpt>
      <trkpt lat="43.2605942432" lon="-4.3263964355">
        <ele>537.51</ele>
        <time>2018-05-19T10:22:14Z</time>
      </trkpt>
      <trkpt lat="43.2605036348" lon="-4.3263762351">
        <ele>537.99</ele>
        <time>2018-05-19T10:22:18Z</time>
      </trkpt>
      <trkpt lat="43.2603995316" lon="-4.3263214175">
        <ele>539.44</ele>
        <time>2018-05-19T10:22:23Z</time>
      </trkpt>
      <trkpt lat="43.2602957636" lon="-4.3262580503">
        <ele>539.92</ele>
        <time>2018-05-19T10:22:28Z</time>
      </trkpt>
      <trkpt lat="43.2601970248" lon="-4.3262036517">
        <ele>540.88</ele>
        <time>2018-05-19T10:22:33Z</time>
      </trkpt>
      <trkpt lat="43.2600986212" lon="-4.3261567131">
        <ele>541.84</ele>
        <time>2018-05-19T10:22:38Z</time>
      </trkpt>
      <trkpt lat="43.2600013912" lon="-4.3261074275">
        <ele>542.32</ele>
        <time>2018-05-19T10:22:43Z</time>
      </trkpt>
      <trkpt lat="43.2599072624" lon="-4.3260567170">
        <ele>543.76</ele>
        <time>2018-05-19T10:22:48Z</time>
      </trkpt>
      <trkpt lat="43.2598184980" lon="-4.3259997200">
        <ele>544.24</ele>
        <time>2018-05-19T10:22:53Z</time>
      </trkpt>
      <trkpt lat="43.2597368583" lon="-4.3259436451">
        <ele>545.20</ele>
        <time>2018-05-19T10:22:58Z</time>
      </trkpt>
      <trkpt lat="43.2597048394" lon="-4.3258381169">
        <ele>546.17</ele>
        <time>2018-05-19T10:23:05Z</time>
      </trkpt>
      <trkpt lat="43.2597835455" lon="-4.3258237001">
        <ele>547.13</ele>
        <time>2018-05-19T10:23:10Z</time>
      </trkpt>
      <trkpt lat="43.2598620839" lon="-4.3258779310">
        <ele>547.61</ele>
        <time>2018-05-19T10:23:14Z</time>
      </trkpt>
      <trkpt lat="43.2599644270" lon="-4.3259133026">
        <ele>548.09</ele>
        <time>2018-05-19T10:23:19Z</time>
      </trkpt>
      <trkpt lat="43.2600572146" lon="-4.3259126320">
        <ele>549.05</ele>
        <time>2018-05-19T10:23:23Z</time>
      </trkpt>
      <trkpt lat="43.2601616532" lon="-4.3259091955">
        <ele>550.01</ele>
        <time>2018-05-19T10:23:28Z</time>
      </trkpt>
      <trkpt lat="43.2602688577" lon="-4.3259059265">
        <ele>550.97</ele>
        <time>2018-05-19T10:23:33Z</time>
      </trkpt>
      <trkpt lat="43.2603607234" lon="-4.3259098660">
        <ele>551.93</ele>
        <time>2018-05-19T10:23:37Z</time>
      </trkpt>
      <trkpt lat="43.2604494877" lon="-4.3259118777">
        <ele>551.93</ele>
        <time>2018-05-19T10:23:41Z</time>
      </trkpt>
      <trkpt lat="43.2605523337" lon="-4.3259050045">
        <ele>552.90</ele>
        <time>2018-05-19T10:23:45Z</time>
      </trkpt>
      <trkpt lat="43.2606629748" lon="-4.3258930184">
        <ele>553.86</ele>
        <time>2018-05-19T10:23:50Z</time>
      </trkpt>
      <trkpt lat="43.2607568521" lon="-4.3258645199">
        <ele>553.86</ele>
        <time>2018-05-19T10:23:54Z</time>
      </trkpt>
      <trkpt lat="43.2608526573" lon="-4.3258187547">
        <ele>555.30</ele>
        <time>2018-05-19T10:23:58Z</time>
      </trkpt>
      <trkpt lat="43.2609468699" lon="-4.3257602490">
        <ele>555.78</ele>
        <time>2018-05-19T10:24:03Z</time>
      </trkpt>
      <trkpt lat="43.2610476203" lon="-4.3256920204">
        <ele>556.74</ele>
        <time>2018-05-19T10:24:08Z</time>
      </trkpt>
      <trkpt lat="43.2611416653" lon="-4.3256497756">
        <ele>557.70</ele>
        <time>2018-05-19T10:24:13Z</time>
      </trkpt>
      <trkpt lat="43.2612343691" lon="-4.3256314192">
        <ele>559.14</ele>
        <time>2018-05-19T10:24:18Z</time>
      </trkpt>
      <trkpt lat="43.2613285817" lon="-4.3256206904">
        <ele>559.62</ele>
        <time>2018-05-19T10:24:23Z</time>
      </trkpt>
      <trkpt lat="43.2614283264" lon="-4.3255923595">
        <ele>560.11</ele>
        <time>2018-05-19T10:24:28Z</time>
      </trkpt>
      <trkpt lat="43.2615351118" lon="-4.3255609274">
        <ele>561.07</ele>
        <time>2018-05-19T10:24:33Z</time>
      </trkpt>
      <trkpt lat="43.2616467588" lon="-4.3255341053">
        <ele>562.51</ele>
        <time>2018-05-19T10:24:38Z</time>
      </trkpt>
      <trkpt lat="43.2617540471" lon="-4.3254922796">
        <ele>562.99</ele>
        <time>2018-05-19T10:24:43Z</time>
      </trkpt>
      <trkpt lat="43.2618576474" lon="-4.3254305888">
        <ele>563.95</ele>
        <time>2018-05-19T10:24:48Z</time>
      </trkpt>
      <trkpt lat="43.2619443163" lon="-4.3253866676">
        <ele>564.43</ele>
        <time>2018-05-19T10:24:52Z</time>
      </trkpt>
      <trkpt lat="43.2620439772" lon="-4.3253400642">
        <ele>564.91</ele>
        <time>2018-05-19T10:24:57Z</time>
      </trkpt>
      <trkpt lat="43.2621547021" lon="-4.3253082968">
        <ele>565.87</ele>
        <time>2018-05-19T10:25:02Z</time>
      </trkpt>
      <trkpt lat="43.2622554526" lon="-4.3252670579">
        <ele>566.35</ele>
        <time>2018-05-19T10:25:07Z</time>
      </trkpt>
      <trkpt lat="43.2623588014" lon="-4.3252185266">
        <ele>567.32</ele>
        <time>2018-05-19T10:25:12Z</time>
      </trkpt>
      <trkpt lat="43.2624601386" lon="-4.3251442630">
        <ele>568.28</ele>
        <time>2018-05-19T10:25:17Z</time>
      </trkpt>
      <trkpt lat="43.2625531778" lon="-4.3250672333">
        <ele>569.24</ele>
        <time>2018-05-19T10:25:22Z</time>
      </trkpt>
      <trkpt lat="43.2626457978" lon="-4.3249989208">
        <ele>570.20</ele>
        <time>2018-05-19T10:25:27Z</time>
      </trkpt>
      <trkpt lat="43.2627339754" lon="-4.3249370623">
        <ele>571.16</ele>
        <time>2018-05-19T10:25:32Z</time>
      </trkpt>
      <trkpt lat="43.2628198899" lon="-4.3248686660">
        <ele>572.12</ele>
        <time>2018-05-19T10:25:37Z</time>
      </trkpt>
      <trkpt lat="43.2629086543" lon="-4.3247887865">
        <ele>572.60</ele>
        <time>2018-05-19T10:25:42Z</time>
      </trkpt>
      <trkpt lat="43.2629839238" lon="-4.3247110862">
        <ele>573.56</ele>
        <time>2018-05-19T10:25:46Z</time>
      </trkpt>
      <trkpt lat="43.2630606182" lon="-4.3246247526">
        <ele>574.53</ele>
        <time>2018-05-19T10:25:51Z</time>
      </trkpt>
      <trkpt lat="43.2631415036" lon="-4.3245280255">
        <ele>575.49</ele>
        <time>2018-05-19T10:25:56Z</time>
      </trkpt>
      <trkpt lat="43.2632135879" lon="-4.3244303763">
        <ele>576.45</ele>
        <time>2018-05-19T10:26:01Z</time>
      </trkpt>
      <trkpt lat="43.2632897794" lon="-4.3243156280">
        <ele>576.93</ele>
        <time>2018-05-19T10:26:06Z</time>
      </trkpt>
      <trkpt lat="43.2633544877" lon="-4.3241983652">
        <ele>577.41</ele>
        <time>2018-05-19T10:26:11Z</time>
      </trkpt>
      <trkpt lat="43.2634168491" lon="-4.3240717147">
        <ele>577.89</ele>
        <time>2018-05-19T10:26:16Z</time>
      </trkpt>
      <trkpt lat="43.2634622790" lon="-4.3239560444">
        <ele>577.89</ele>
        <time>2018-05-19T10:26:20Z</time>
      </trkpt>
      <trkpt lat="43.2635114808" lon="-4.3238279689">
        <ele>577.89</ele>
        <time>2018-05-19T10:26:24Z</time>
      </trkpt>
      <trkpt lat="43.2635668851" lon="-4.3236885779">
        <ele>578.37</ele>
        <time>2018-05-19T10:26:28Z</time>
      </trkpt>
      <trkpt lat="43.2636108901" lon="-4.3235666212">
        <ele>578.37</ele>
        <time>2018-05-19T10:26:32Z</time>
      </trkpt>
      <trkpt lat="43.2636601757" lon="-4.3234184291">
        <ele>577.41</ele>
        <time>2018-05-19T10:26:36Z</time>
      </trkpt>
      <trkpt lat="43.2637761813" lon="-4.3233133201">
        <ele>576.93</ele>
        <time>2018-05-19T10:26:39Z</time>
      </trkpt>
      <trkpt lat="43.2638668735" lon="-4.3233244680">
        <ele>575.01</ele>
        <time>2018-05-19T10:26:41Z</time>
      </trkpt>
      <trkpt lat="43.2639904227" lon="-4.3233766872">
        <ele>573.08</ele>
        <time>2018-05-19T10:26:43Z</time>
      </trkpt>
      <trkpt lat="43.2641231082" lon="-4.3234360311">
        <ele>571.16</ele>
        <time>2018-05-19T10:26:45Z</time>
      </trkpt>
      <trkpt lat="43.2642666064" lon="-4.3234885857">
        <ele>567.80</ele>
        <time>2018-05-19T10:26:47Z</time>
      </trkpt>
      <trkpt lat="43.2644261140" lon="-4.3235081993">
        <ele>566.83</ele>
        <time>2018-05-19T10:26:49Z</time>
      </trkpt>
      <trkpt lat="43.2645732164" lon="-4.3234913517">
        <ele>568.76</ele>
        <time>2018-05-19T10:26:51Z</time>
      </trkpt>
      <trkpt lat="43.2646884676" lon="-4.3235102948">
        <ele>569.24</ele>
        <time>2018-05-19T10:26:53Z</time>
      </trkpt>
      <trkpt lat="43.2647790760" lon="-4.3235895876">
        <ele>569.24</ele>
        <time>2018-05-19T10:26:55Z</time>
      </trkpt>
      <trkpt lat="43.2648661640" lon="-4.3236974627">
        <ele>567.80</ele>
        <time>2018-05-19T10:26:57Z</time>
      </trkpt>
      <trkpt lat="43.2649743743" lon="-4.3238178268">
        <ele>565.87</ele>
        <time>2018-05-19T10:26:59Z</time>
      </trkpt>
      <trkpt lat="43.2651063893" lon="-4.3238937669">
        <ele>565.39</ele>
        <time>2018-05-19T10:27:01Z</time>
      </trkpt>
      <trkpt lat="43.2652358897" lon="-4.3238756619">
        <ele>565.39</ele>
        <time>2018-05-19T10:27:03Z</time>
      </trkpt>
      <trkpt lat="43.2653559186" lon="-4.3238043319">
        <ele>565.39</ele>
        <time>2018-05-19T10:27:05Z</time>
      </trkpt>
      <trkpt lat="43.2654525619" lon="-4.3237471674">
        <ele>565.39</ele>
        <time>2018-05-19T10:27:07Z</time>
      </trkpt>
      <trkpt lat="43.2655586768" lon="-4.3236910086">
        <ele>566.83</ele>
        <time>2018-05-19T10:27:09Z</time>
      </trkpt>
      <trkpt lat="43.2656648755" lon="-4.3236319162">
        <ele>566.83</ele>
        <time>2018-05-19T10:27:11Z</time>
      </trkpt>
      <trkpt lat="43.2657678053" lon="-4.3235915992">
        <ele>565.39</ele>
        <time>2018-05-19T10:27:13Z</time>
      </trkpt>
      <trkpt lat="43.2658751775" lon="-4.3235492706">
        <ele>565.39</ele>
        <time>2018-05-19T10:27:15Z</time>
      </trkpt>
      <trkpt lat="43.2659688033" lon="-4.3235137314">
        <ele>565.39</ele>
        <time>2018-05-19T10:27:17Z</time>
      </trkpt>
      <trkpt lat="43.2660847250" lon="-4.3234759290">
        <ele>565.39</ele>
        <time>2018-05-19T10:27:19Z</time>
      </trkpt>
      <trkpt lat="43.2661936898" lon="-4.3234056886">
        <ele>565.39</ele>
        <time>2018-05-19T10:27:21Z</time>
      </trkpt>
      <trkpt lat="43.2662801910" lon="-4.3232896831">
        <ele>565.39</ele>
        <time>2018-05-19T10:27:23Z</time>
      </trkpt>
      <trkpt lat="43.2663485035" lon="-4.3231506273">
        <ele>565.39</ele>
        <time>2018-05-19T10:27:25Z</time>
      </trkpt>
      <trkpt lat="43.2664223481" lon="-4.3230119068">
        <ele>565.39</ele>
        <time>2018-05-19T10:27:27Z</time>
      </trkpt>
      <trkpt lat="43.2664806861" lon="-4.3228797242">
        <ele>564.43</ele>
        <time>2018-05-19T10:27:29Z</time>
      </trkpt>
      <trkpt lat="43.2665336598" lon="-4.3227309454">
        <ele>564.43</ele>
        <time>2018-05-19T10:27:31Z</time>
      </trkpt>
      <trkpt lat="43.2665800955" lon="-4.3225846812">
        <ele>564.43</ele>
        <time>2018-05-19T10:27:33Z</time>
      </trkpt>
      <trkpt lat="43.2666248549" lon="-4.3224293645">
        <ele>563.95</ele>
        <time>2018-05-19T10:27:35Z</time>
      </trkpt>
      <trkpt lat="43.2666869648" lon="-4.3222591281">
        <ele>563.47</ele>
        <time>2018-05-19T10:27:37Z</time>
      </trkpt>
      <trkpt lat="43.2667386811" lon="-4.3221164681">
        <ele>562.99</ele>
        <time>2018-05-19T10:27:39Z</time>
      </trkpt>
      <trkpt lat="43.2667957619" lon="-4.3219520152">
        <ele>562.03</ele>
        <time>2018-05-19T10:27:41Z</time>
      </trkpt>
      <trkpt lat="43.2668488193" lon="-4.3217817787">
        <ele>561.07</ele>
        <time>2018-05-19T10:27:43Z</time>
      </trkpt>
      <trkpt lat="43.2668976020" lon="-4.3216097821">
        <ele>560.11</ele>
        <time>2018-05-19T10:27:45Z</time>
      </trkpt>
      <trkpt lat="43.2669504080" lon="-4.3214397132">
        <ele>560.11</ele>
        <time>2018-05-19T10:27:47Z</time>
      </trkpt>
      <trkpt lat="43.2670286950" lon="-4.3212679680">
        <ele>559.62</ele>
        <time>2018-05-19T10:27:49Z</time>
      </trkpt>
      <trkpt lat="43.2671106700" lon="-4.3211459275">
        <ele>559.14</ele>
        <time>2018-05-19T10:27:51Z</time>
      </trkpt>
      <trkpt lat="43.2671766356" lon="-4.3209955562">
        <ele>559.14</ele>
        <time>2018-05-19T10:27:53Z</time>
      </trkpt>
      <trkpt lat="43.2671910524" lon="-4.3208240625">
        <ele>558.66</ele>
        <time>2018-05-19T10:27:55Z</time>
      </trkpt>
      <trkpt lat="43.2672019489" lon="-4.3206592742">
        <ele>558.66</ele>
        <time>2018-05-19T10:27:57Z</time>
      </trkpt>
      <trkpt lat="43.2672366500" lon="-4.3204932287">
        <ele>557.70</ele>
        <time>2018-05-19T10:27:59Z</time>
      </trkpt>
      <trkpt lat="43.2672744524" lon="-4.3203634769">
        <ele>557.70</ele>
        <time>2018-05-19T10:28:01Z</time>
      </trkpt>
      <trkpt lat="43.2673211396" lon="-4.3202239182">
        <ele>556.74</ele>
        <time>2018-05-19T10:28:03Z</time>
      </trkpt>
      <trkpt lat="43.2673815731" lon="-4.3200799171">
        <ele>556.74</ele>
        <time>2018-05-19T10:28:05Z</time>
      </trkpt>
      <trkpt lat="43.2674461976" lon="-4.3199323956">
        <ele>555.78</ele>
        <time>2018-05-19T10:28:07Z</time>
      </trkpt>
      <trkpt lat="43.2675201260" lon="-4.3197833654">
        <ele>555.30</ele>
        <time>2018-05-19T10:28:09Z</time>
      </trkpt>
      <trkpt lat="43.2676002569" lon="-4.3196349218">
        <ele>554.82</ele>
        <time>2018-05-19T10:28:11Z</time>
      </trkpt>
      <trkpt lat="43.2676598523" lon="-4.3195104506">
        <ele>554.82</ele>
        <time>2018-05-19T10:28:13Z</time>
      </trkpt>
      <trkpt lat="43.2677439228" lon="-4.3193878233">
        <ele>554.82</ele>
        <time>2018-05-19T10:28:15Z</time>
      </trkpt>
      <trkpt lat="43.2678415719" lon="-4.3193094525">
        <ele>554.82</ele>
        <time>2018-05-19T10:28:17Z</time>
      </trkpt>
      <trkpt lat="43.2679365389" lon="-4.3192315008">
        <ele>554.82</ele>
        <time>2018-05-19T10:28:19Z</time>
      </trkpt>
      <trkpt lat="43.2680106349" lon="-4.3190937862">
        <ele>554.82</ele>
        <time>2018-05-19T10:28:21Z</time>
      </trkpt>
      <trkpt lat="43.2680569869" lon="-4.3189554010">
        <ele>554.82</ele>
        <time>2018-05-19T10:28:23Z</time>
      </trkpt>
      <trkpt lat="43.2680999022" lon="-4.3188077118">
        <ele>554.82</ele>
        <time>2018-05-19T10:28:25Z</time>
      </trkpt>
      <trkpt lat="43.2681393810" lon="-4.3186554126">
        <ele>553.86</ele>
        <time>2018-05-19T10:28:27Z</time>
      </trkpt>
      <trkpt lat="43.2681712322" lon="-4.3184858467">
        <ele>553.86</ele>
        <time>2018-05-19T10:28:29Z</time>
      </trkpt>
      <trkpt lat="43.2682026643" lon="-4.3183217291">
        <ele>552.90</ele>
        <time>2018-05-19T10:28:31Z</time>
      </trkpt>
      <trkpt lat="43.2682538778" lon="-4.3181512412">
        <ele>552.90</ele>
        <time>2018-05-19T10:28:33Z</time>
      </trkpt>
      <trkpt lat="43.2682823762" lon="-4.3180074915">
        <ele>552.90</ele>
        <time>2018-05-19T10:28:35Z</time>
      </trkpt>
      <trkpt lat="43.2682841364" lon="-4.3178372551">
        <ele>552.41</ele>
        <time>2018-05-19T10:28:37Z</time>
      </trkpt>
      <trkpt lat="43.2682718989" lon="-4.3176647555">
        <ele>552.41</ele>
        <time>2018-05-19T10:28:39Z</time>
      </trkpt>
      <trkpt lat="43.2682724018" lon="-4.3174885679">
        <ele>551.93</ele>
        <time>2018-05-19T10:28:41Z</time>
      </trkpt>
      <trkpt lat="43.2683017384" lon="-4.3173112068">
        <ele>551.93</ele>
        <time>2018-05-19T10:28:43Z</time>
      </trkpt>
      <trkpt lat="43.2683510240" lon="-4.3171668705">
        <ele>551.93</ele>
        <time>2018-05-19T10:28:45Z</time>
      </trkpt>
      <trkpt lat="43.2684219349" lon="-4.3170155771">
        <ele>551.93</ele>
        <time>2018-05-19T10:28:47Z</time>
      </trkpt>
      <trkpt lat="43.2684818655" lon="-4.3168602604">
        <ele>551.45</ele>
        <time>2018-05-19T10:28:49Z</time>
      </trkpt>
      <trkpt lat="43.2684946060" lon="-4.3166756909">
        <ele>550.97</ele>
        <time>2018-05-19T10:28:51Z</time>
      </trkpt>
      <trkpt lat="43.2684749924" lon="-4.3164830748">
        <ele>550.49</ele>
        <time>2018-05-19T10:28:53Z</time>
      </trkpt>
      <trkpt lat="43.2684857212" lon="-4.3162837531">
        <ele>550.49</ele>
        <time>2018-05-19T10:28:55Z</time>
      </trkpt>
      <trkpt lat="43.2685267087" lon="-4.3161301129">
        <ele>550.49</ele>
        <time>2018-05-19T10:28:57Z</time>
      </trkpt>
      <trkpt lat="43.2686060015" lon="-4.3159955833">
        <ele>550.49</ele>
        <time>2018-05-19T10:28:59Z</time>
      </trkpt>
      <trkpt lat="43.2687108591" lon="-4.3158924859">
        <ele>550.49</ele>
        <time>2018-05-19T10:29:01Z</time>
      </trkpt>
      <trkpt lat="43.2687973604" lon="-4.3157551065">
        <ele>549.53</ele>
        <time>2018-05-19T10:29:03Z</time>
      </trkpt>
      <trkpt lat="43.2688230928" lon="-4.3155644182">
        <ele>549.05</ele>
        <time>2018-05-19T10:29:05Z</time>
      </trkpt>
      <trkpt lat="43.2688165549" lon="-4.3154081795">
        <ele>548.57</ele>
        <time>2018-05-19T10:29:07Z</time>
      </trkpt>
      <trkpt lat="43.2688200753" lon="-4.3152360152">
        <ele>548.09</ele>
        <time>2018-05-19T10:29:09Z</time>
      </trkpt>
      <trkpt lat="43.2688257750" lon="-4.3150558881">
        <ele>548.09</ele>
        <time>2018-05-19T10:29:11Z</time>
      </trkpt>
      <trkpt lat="43.2688308880" lon="-4.3148683850">
        <ele>547.13</ele>
        <time>2018-05-19T10:29:13Z</time>
      </trkpt>
      <trkpt lat="43.2688286249" lon="-4.3146745116">
        <ele>545.69</ele>
        <time>2018-05-19T10:29:15Z</time>
      </trkpt>
      <trkpt lat="43.2688323967" lon="-4.3144705798">
        <ele>545.69</ele>
        <time>2018-05-19T10:29:17Z</time>
      </trkpt>
      <trkpt lat="43.2688501664" lon="-4.3143122457">
        <ele>545.69</ele>
        <time>2018-05-19T10:29:19Z</time>
      </trkpt>
      <trkpt lat="43.2688991167" lon="-4.3141294364">
        <ele>545.20</ele>
        <time>2018-05-19T10:29:21Z</time>
      </trkpt>
      <trkpt lat="43.2689445466" lon="-4.3139512371">
        <ele>545.69</ele>
        <time>2018-05-19T10:29:23Z</time>
      </trkpt>
      <trkpt lat="43.2689839415" lon="-4.3137768935">
        <ele>544.72</ele>
        <time>2018-05-19T10:29:25Z</time>
      </trkpt>
      <trkpt lat="43.2690451294" lon="-4.3135934137">
        <ele>544.24</ele>
        <time>2018-05-19T10:29:27Z</time>
      </trkpt>
      <trkpt lat="43.2690492366" lon="-4.3134206627">
        <ele>543.28</ele>
        <time>2018-05-19T10:29:29Z</time>
      </trkpt>
      <trkpt lat="43.2690027170" lon="-4.3132387754">
        <ele>542.80</ele>
        <time>2018-05-19T10:29:31Z</time>
      </trkpt>
      <trkpt lat="43.2689826842" lon="-4.3130296469">
        <ele>541.36</ele>
        <time>2018-05-19T10:29:33Z</time>
      </trkpt>
      <trkpt lat="43.2689994480" lon="-4.3128002342">
        <ele>539.92</ele>
        <time>2018-05-19T10:29:35Z</time>
      </trkpt>
      <trkpt lat="43.2690000348" lon="-4.3125353660">
        <ele>538.96</ele>
        <time>2018-05-19T10:29:37Z</time>
      </trkpt>
      <trkpt lat="43.2689848635" lon="-4.3124030996">
        <ele>537.51</ele>
        <time>2018-05-19T10:29:38Z</time>
      </trkpt>
      <trkpt lat="43.2689425349" lon="-4.3121924624">
        <ele>536.55</ele>
        <time>2018-05-19T10:29:40Z</time>
      </trkpt>
      <trkpt lat="43.2689127792" lon="-4.3120710086">
        <ele>535.59</ele>
        <time>2018-05-19T10:29:41Z</time>
      </trkpt>
      <trkpt lat="43.2688867953" lon="-4.3119469564">
        <ele>535.11</ele>
        <time>2018-05-19T10:29:42Z</time>
      </trkpt>
      <trkpt lat="43.2688697800" lon="-4.3118199706">
        <ele>535.11</ele>
        <time>2018-05-19T10:29:43Z</time>
      </trkpt>
      <trkpt lat="43.2688618172" lon="-4.3116914760">
        <ele>534.15</ele>
        <time>2018-05-19T10:29:44Z</time>
      </trkpt>
      <trkpt lat="43.2688620687" lon="-4.3115659151">
        <ele>534.15</ele>
        <time>2018-05-19T10:29:45Z</time>
      </trkpt>
      <trkpt lat="43.2688769046" lon="-4.3113018014">
        <ele>532.71</ele>
        <time>2018-05-19T10:29:47Z</time>
      </trkpt>
      <trkpt lat="43.2688825205" lon="-4.3111753184">
        <ele>532.23</ele>
        <time>2018-05-19T10:29:48Z</time>
      </trkpt>
      <trkpt lat="43.2688858733" lon="-4.3110203370">
        <ele>531.27</ele>
        <time>2018-05-19T10:29:49Z</time>
      </trkpt>
      <trkpt lat="43.2688859571" lon="-4.3108019046">
        <ele>531.27</ele>
        <time>2018-05-19T10:29:51Z</time>
      </trkpt>
      <trkpt lat="43.2688846160" lon="-4.3105620984">
        <ele>530.30</ele>
        <time>2018-05-19T10:29:53Z</time>
      </trkpt>
      <trkpt lat="43.2688961830" lon="-4.3103165086">
        <ele>529.82</ele>
        <time>2018-05-19T10:29:55Z</time>
      </trkpt>
      <trkpt lat="43.2689080853" lon="-4.3100752775">
        <ele>528.86</ele>
        <time>2018-05-19T10:29:57Z</time>
      </trkpt>
      <trkpt lat="43.2689524256" lon="-4.3098420091">
        <ele>527.90</ele>
        <time>2018-05-19T10:29:59Z</time>
      </trkpt>
      <trkpt lat="43.2689865399" lon="-4.3096320424">
        <ele>526.94</ele>
        <time>2018-05-19T10:30:01Z</time>
      </trkpt>
      <trkpt lat="43.2689797506" lon="-4.3094037194">
        <ele>526.46</ele>
        <time>2018-05-19T10:30:03Z</time>
      </trkpt>
      <trkpt lat="43.2689542696" lon="-4.3091707025">
        <ele>525.02</ele>
        <time>2018-05-19T10:30:05Z</time>
      </trkpt>
      <trkpt lat="43.2689412776" lon="-4.3089381047">
        <ele>524.54</ele>
        <time>2018-05-19T10:30:07Z</time>
      </trkpt>
      <trkpt lat="43.2689467259" lon="-4.3086951971">
        <ele>524.54</ele>
        <time>2018-05-19T10:30:09Z</time>
      </trkpt>
      <trkpt lat="43.2689554431" lon="-4.3085056823">
        <ele>523.09</ele>
        <time>2018-05-19T10:30:11Z</time>
      </trkpt>
      <trkpt lat="43.2689059898" lon="-4.3083305005">
        <ele>521.65</ele>
        <time>2018-05-19T10:30:13Z</time>
      </trkpt>
      <trkpt lat="43.2688050717" lon="-4.3081744295">
        <ele>520.21</ele>
        <time>2018-05-19T10:30:15Z</time>
      </trkpt>
      <trkpt lat="43.2687331550" lon="-4.3079657201">
        <ele>518.29</ele>
        <time>2018-05-19T10:30:17Z</time>
      </trkpt>
      <trkpt lat="43.2687206659" lon="-4.3078528997">
        <ele>517.81</ele>
        <time>2018-05-19T10:30:18Z</time>
      </trkpt>
      <trkpt lat="43.2687107753" lon="-4.3077199627">
        <ele>517.33</ele>
        <time>2018-05-19T10:30:19Z</time>
      </trkpt>
      <trkpt lat="43.2686875574" lon="-4.3075806554">
        <ele>515.88</ele>
        <time>2018-05-19T10:30:20Z</time>
      </trkpt>
      <trkpt lat="43.2686521858" lon="-4.3074640632">
        <ele>515.40</ele>
        <time>2018-05-19T10:30:21Z</time>
      </trkpt>
      <trkpt lat="43.2685785089" lon="-4.3072463851">
        <ele>513.48</ele>
        <time>2018-05-19T10:30:23Z</time>
      </trkpt>
      <trkpt lat="43.2685424667" lon="-4.3071209081">
        <ele>513.00</ele>
        <time>2018-05-19T10:30:24Z</time>
      </trkpt>
      <trkpt lat="43.2685060054" lon="-4.3069986161">
        <ele>511.56</ele>
        <time>2018-05-19T10:30:25Z</time>
      </trkpt>
      <trkpt lat="43.2684707176" lon="-4.3068774976">
        <ele>511.08</ele>
        <time>2018-05-19T10:30:26Z</time>
      </trkpt>
      <trkpt lat="43.2684413809" lon="-4.3067558762">
        <ele>509.64</ele>
        <time>2018-05-19T10:30:27Z</time>
      </trkpt>
      <trkpt lat="43.2684187498" lon="-4.3066258729">
        <ele>508.67</ele>
        <time>2018-05-19T10:30:28Z</time>
      </trkpt>
      <trkpt lat="43.2684087753" lon="-4.3065054249">
        <ele>508.19</ele>
        <time>2018-05-19T10:30:29Z</time>
      </trkpt>
      <trkpt lat="43.2684107032" lon="-4.3063668720">
        <ele>508.19</ele>
        <time>2018-05-19T10:30:30Z</time>
      </trkpt>
      <trkpt lat="43.2684176601" lon="-4.3062358629">
        <ele>507.23</ele>
        <time>2018-05-19T10:30:31Z</time>
      </trkpt>
      <trkpt lat="43.2684190013" lon="-4.3061114755">
        <ele>505.79</ele>
        <time>2018-05-19T10:30:32Z</time>
      </trkpt>
      <trkpt lat="43.2684096135" lon="-4.3058846612">
        <ele>504.35</ele>
        <time>2018-05-19T10:30:34Z</time>
      </trkpt>
      <trkpt lat="43.2684082724" lon="-4.3056339584">
        <ele>502.43</ele>
        <time>2018-05-19T10:30:36Z</time>
      </trkpt>
      <trkpt lat="43.2684088591" lon="-4.3053818308">
        <ele>500.02</ele>
        <time>2018-05-19T10:30:38Z</time>
      </trkpt>
      <trkpt lat="43.2683687098" lon="-4.3051383365">
        <ele>498.58</ele>
        <time>2018-05-19T10:30:40Z</time>
      </trkpt>
      <trkpt lat="43.2683422230" lon="-4.3049979396">
        <ele>497.14</ele>
        <time>2018-05-19T10:30:41Z</time>
      </trkpt>
      <trkpt lat="43.2683193404" lon="-4.3048633263">
        <ele>496.18</ele>
        <time>2018-05-19T10:30:42Z</time>
      </trkpt>
      <trkpt lat="43.2683042530" lon="-4.3046384398">
        <ele>495.22</ele>
        <time>2018-05-19T10:30:44Z</time>
      </trkpt>
      <trkpt lat="43.2682991400" lon="-4.3043944426">
        <ele>493.29</ele>
        <time>2018-05-19T10:30:46Z</time>
      </trkpt>
      <trkpt lat="43.2682908420" lon="-4.3041606713">
        <ele>491.37</ele>
        <time>2018-05-19T10:30:48Z</time>
      </trkpt>
      <trkpt lat="43.2682626788" lon="-4.3039292470">
        <ele>489.93</ele>
        <time>2018-05-19T10:30:50Z</time>
      </trkpt>
      <trkpt lat="43.2682148181" lon="-4.3036860041">
        <ele>488.49</ele>
        <time>2018-05-19T10:30:52Z</time>
      </trkpt>
      <trkpt lat="43.2681794465" lon="-4.3034932204">
        <ele>487.05</ele>
        <time>2018-05-19T10:30:54Z</time>
      </trkpt>
      <trkpt lat="43.2681924384" lon="-4.3032768834">
        <ele>485.12</ele>
        <time>2018-05-19T10:30:56Z</time>
      </trkpt>
      <trkpt lat="43.2682544645" lon="-4.3030570261">
        <ele>483.20</ele>
        <time>2018-05-19T10:30:58Z</time>
      </trkpt>
      <trkpt lat="43.2683271356" lon="-4.3028617278">
        <ele>483.20</ele>
        <time>2018-05-19T10:31:00Z</time>
      </trkpt>
      <trkpt lat="43.2683568075" lon="-4.3026422895">
        <ele>482.24</ele>
        <time>2018-05-19T10:31:02Z</time>
      </trkpt>
      <trkpt lat="43.2683161553" lon="-4.3024078477">
        <ele>480.80</ele>
        <time>2018-05-19T10:31:04Z</time>
      </trkpt>
      <trkpt lat="43.2682382036" lon="-4.3022122141">
        <ele>478.39</ele>
        <time>2018-05-19T10:31:06Z</time>
      </trkpt>
      <trkpt lat="43.2681916840" lon="-4.3021079432">
        <ele>476.95</ele>
        <time>2018-05-19T10:31:07Z</time>
      </trkpt>
      <trkpt lat="43.2681159116" lon="-4.3018874153">
        <ele>476.47</ele>
        <time>2018-05-19T10:31:09Z</time>
      </trkpt>
      <trkpt lat="43.2680900954" lon="-4.3017724156">
        <ele>475.99</ele>
        <time>2018-05-19T10:31:10Z</time>
      </trkpt>
      <trkpt lat="43.2680626865" lon="-4.3015308492">
        <ele>474.07</ele>
        <time>2018-05-19T10:31:12Z</time>
      </trkpt>
      <trkpt lat="43.2680474315" lon="-4.3012741953">
        <ele>472.63</ele>
        <time>2018-05-19T10:31:14Z</time>
      </trkpt>
      <trkpt lat="43.2680330984" lon="-4.3011429347">
        <ele>470.70</ele>
        <time>2018-05-19T10:31:15Z</time>
      </trkpt>
      <trkpt lat="43.2679900154" lon="-4.3009257596">
        <ele>469.26</ele>
        <time>2018-05-19T10:31:17Z</time>
      </trkpt>
      <trkpt lat="43.2679689769" lon="-4.3007911462">
        <ele>468.78</ele>
        <time>2018-05-19T10:31:18Z</time>
      </trkpt>
      <trkpt lat="43.2679506205" lon="-4.3006590474">
        <ele>467.34</ele>
        <time>2018-05-19T10:31:19Z</time>
      </trkpt>
      <trkpt lat="43.2679294143" lon="-4.3005220033">
        <ele>466.86</ele>
        <time>2018-05-19T10:31:20Z</time>
      </trkpt>
      <trkpt lat="43.2679138239" lon="-4.3003934249">
        <ele>465.90</ele>
        <time>2018-05-19T10:31:21Z</time>
      </trkpt>
      <trkpt lat="43.2679060288" lon="-4.3002661876">
        <ele>464.45</ele>
        <time>2018-05-19T10:31:22Z</time>
      </trkpt>
      <trkpt lat="43.2679016702" lon="-4.3001309037">
        <ele>464.45</ele>
        <time>2018-05-19T10:31:23Z</time>
      </trkpt>
      <trkpt lat="43.2679007482" lon="-4.3000064325">
        <ele>462.53</ele>
        <time>2018-05-19T10:31:24Z</time>
      </trkpt>
      <trkpt lat="43.2679283246" lon="-4.2997529637">
        <ele>461.09</ele>
        <time>2018-05-19T10:31:26Z</time>
      </trkpt>
      <trkpt lat="43.2680025045" lon="-4.2995295022">
        <ele>459.65</ele>
        <time>2018-05-19T10:31:28Z</time>
      </trkpt>
      <trkpt lat="43.2680832222" lon="-4.2993392330">
        <ele>458.21</ele>
        <time>2018-05-19T10:31:30Z</time>
      </trkpt>
      <trkpt lat="43.2681623474" lon="-4.2991350498">
        <ele>456.76</ele>
        <time>2018-05-19T10:31:32Z</time>
      </trkpt>
      <trkpt lat="43.2681864034" lon="-4.2989408411">
        <ele>455.32</ele>
        <time>2018-05-19T10:31:34Z</time>
      </trkpt>
      <trkpt lat="43.2681710646" lon="-4.2987799086">
        <ele>454.36</ele>
        <time>2018-05-19T10:31:36Z</time>
      </trkpt>
      <trkpt lat="43.2681000698" lon="-4.2986683454">
        <ele>452.92</ele>
        <time>2018-05-19T10:31:38Z</time>
      </trkpt>
      <trkpt lat="43.2680052705" lon="-4.2986853607">
        <ele>451.48</ele>
        <time>2018-05-19T10:31:40Z</time>
      </trkpt>
      <trkpt lat="43.2679421548" lon="-4.2987892125">
        <ele>450.52</ele>
        <time>2018-05-19T10:31:42Z</time>
      </trkpt>
      <trkpt lat="43.2679103035" lon="-4.2989322077">
        <ele>450.03</ele>
        <time>2018-05-19T10:31:44Z</time>
      </trkpt>
      <trkpt lat="43.2678803802" lon="-4.2991117481">
        <ele>449.07</ele>
        <time>2018-05-19T10:31:46Z</time>
      </trkpt>
      <trkpt lat="43.2678202819" lon="-4.2993072141">
        <ele>447.15</ele>
        <time>2018-05-19T10:31:48Z</time>
      </trkpt>
      <trkpt lat="43.2677209564" lon="-4.2994569987">
        <ele>446.19</ele>
        <time>2018-05-19T10:31:50Z</time>
      </trkpt>
      <trkpt lat="43.2675889414" lon="-4.2995828949">
        <ele>444.75</ele>
        <time>2018-05-19T10:31:52Z</time>
      </trkpt>
      <trkpt lat="43.2674726006" lon="-4.2997613456">
        <ele>443.31</ele>
        <time>2018-05-19T10:31:54Z</time>
      </trkpt>
      <trkpt lat="43.2673824951" lon="-4.2999760062">
        <ele>441.86</ele>
        <time>2018-05-19T10:31:56Z</time>
      </trkpt>
      <trkpt lat="43.2673123386" lon="-4.3001997191">
        <ele>439.94</ele>
        <time>2018-05-19T10:31:58Z</time>
      </trkpt>
      <trkpt lat="43.2672697585" lon="-4.3003225140">
        <ele>438.98</ele>
        <time>2018-05-19T10:31:59Z</time>
      </trkpt>
      <trkpt lat="43.2672264241" lon="-4.3004355859">
        <ele>438.02</ele>
        <time>2018-05-19T10:32:00Z</time>
      </trkpt>
      <trkpt lat="43.2671528310" lon="-4.3006435409">
        <ele>436.58</ele>
        <time>2018-05-19T10:32:02Z</time>
      </trkpt>
      <trkpt lat="43.2671227399" lon="-4.3007644080">
        <ele>436.10</ele>
        <time>2018-05-19T10:32:03Z</time>
      </trkpt>
      <trkpt lat="43.2670965884" lon="-4.3008903041">
        <ele>434.65</ele>
        <time>2018-05-19T10:32:04Z</time>
      </trkpt>
      <trkpt lat="43.2670793217" lon="-4.3010172062">
        <ele>433.69</ele>
        <time>2018-05-19T10:32:05Z</time>
      </trkpt>
      <trkpt lat="43.2670710236" lon="-4.3011493888">
        <ele>433.21</ele>
        <time>2018-05-19T10:32:06Z</time>
      </trkpt>
      <trkpt lat="43.2670754660" lon="-4.3013894465">
        <ele>430.81</ele>
        <time>2018-05-19T10:32:08Z</time>
      </trkpt>
      <trkpt lat="43.2670977619" lon="-4.3016009219">
        <ele>429.85</ele>
        <time>2018-05-19T10:32:10Z</time>
      </trkpt>
      <trkpt lat="43.2671064790" lon="-4.3018027581">
        <ele>428.40</ele>
        <time>2018-05-19T10:32:12Z</time>
      </trkpt>
      <trkpt lat="43.2670396753" lon="-4.3020195141">
        <ele>426.00</ele>
        <time>2018-05-19T10:32:14Z</time>
      </trkpt>
      <trkpt lat="43.2669256814" lon="-4.3021545466">
        <ele>424.08</ele>
        <time>2018-05-19T10:32:16Z</time>
      </trkpt>
      <trkpt lat="43.2667798363" lon="-4.3023187481">
        <ele>422.16</ele>
        <time>2018-05-19T10:32:18Z</time>
      </trkpt>
      <trkpt lat="43.2666782476" lon="-4.3024987075">
        <ele>421.68</ele>
        <time>2018-05-19T10:32:20Z</time>
      </trkpt>
      <trkpt lat="43.2666049898" lon="-4.3027089257">
        <ele>419.75</ele>
        <time>2018-05-19T10:32:22Z</time>
      </trkpt>
      <trkpt lat="43.2665616553" lon="-4.3029567786">
        <ele>418.31</ele>
        <time>2018-05-19T10:32:24Z</time>
      </trkpt>
      <trkpt lat="43.2665531058" lon="-4.3030870333">
        <ele>417.35</ele>
        <time>2018-05-19T10:32:25Z</time>
      </trkpt>
      <trkpt lat="43.2665355038" lon="-4.3033308629">
        <ele>415.43</ele>
        <time>2018-05-19T10:32:27Z</time>
      </trkpt>
      <trkpt lat="43.2665188238" lon="-4.3034557533">
        <ele>414.47</ele>
        <time>2018-05-19T10:32:28Z</time>
      </trkpt>
      <trkpt lat="43.2665070053" lon="-4.3035866786">
        <ele>413.98</ele>
        <time>2018-05-19T10:32:29Z</time>
      </trkpt>
      <trkpt lat="43.2665014733" lon="-4.3037250638">
        <ele>413.02</ele>
        <time>2018-05-19T10:32:30Z</time>
      </trkpt>
      <trkpt lat="43.2664635032" lon="-4.3039592542">
        <ele>412.06</ele>
        <time>2018-05-19T10:32:32Z</time>
      </trkpt>
      <trkpt lat="43.2664078474" lon="-4.3040793668">
        <ele>410.14</ele>
        <time>2018-05-19T10:32:33Z</time>
      </trkpt>
      <trkpt lat="43.2663443126" lon="-4.3041925225">
        <ele>409.66</ele>
        <time>2018-05-19T10:32:34Z</time>
      </trkpt>
      <trkpt lat="43.2662537042" lon="-4.3043866474">
        <ele>407.74</ele>
        <time>2018-05-19T10:32:36Z</time>
      </trkpt>
      <trkpt lat="43.2662045863" lon="-4.3045065086">
        <ele>407.26</ele>
        <time>2018-05-19T10:32:37Z</time>
      </trkpt>
      <trkpt lat="43.2661524508" lon="-4.3046158087">
        <ele>405.81</ele>
        <time>2018-05-19T10:32:38Z</time>
      </trkpt>
      <trkpt lat="43.2660359424" lon="-4.3047936726">
        <ele>403.41</ele>
        <time>2018-05-19T10:32:40Z</time>
      </trkpt>
      <trkpt lat="43.2659758441" lon="-4.3048856221">
        <ele>403.41</ele>
        <time>2018-05-19T10:32:41Z</time>
      </trkpt>
      <trkpt lat="43.2658812124" lon="-4.3050929066">
        <ele>401.97</ele>
        <time>2018-05-19T10:32:43Z</time>
      </trkpt>
      <trkpt lat="43.2658425719" lon="-4.3053215649">
        <ele>400.53</ele>
        <time>2018-05-19T10:32:45Z</time>
      </trkpt>
      <trkpt lat="43.2658489421" lon="-4.3055306934">
        <ele>399.08</ele>
        <time>2018-05-19T10:32:47Z</time>
      </trkpt>
      <trkpt lat="43.2658720762" lon="-4.3057458568">
        <ele>398.12</ele>
        <time>2018-05-19T10:32:49Z</time>
      </trkpt>
      <trkpt lat="43.2658857387" lon="-4.3059585895">
        <ele>396.20</ele>
        <time>2018-05-19T10:32:51Z</time>
      </trkpt>
      <trkpt lat="43.2658545580" lon="-4.3061808776">
        <ele>393.80</ele>
        <time>2018-05-19T10:32:53Z</time>
      </trkpt>
      <trkpt lat="43.2658007462" lon="-4.3064071052">
        <ele>392.36</ele>
        <time>2018-05-19T10:32:55Z</time>
      </trkpt>
      <trkpt lat="43.2657707389" lon="-4.3065332528">
        <ele>390.91</ele>
        <time>2018-05-19T10:32:56Z</time>
      </trkpt>
      <trkpt lat="43.2657344453" lon="-4.3066528626">
        <ele>390.43</ele>
        <time>2018-05-19T10:32:57Z</time>
      </trkpt>
      <trkpt lat="43.2656625286" lon="-4.3068437185">
        <ele>389.47</ele>
        <time>2018-05-19T10:32:59Z</time>
      </trkpt>
      <trkpt lat="43.2655868400" lon="-4.3070660066">
        <ele>388.51</ele>
        <time>2018-05-19T10:33:01Z</time>
      </trkpt>
      <trkpt lat="43.2655556593" lon="-4.3071836047">
        <ele>387.55</ele>
        <time>2018-05-19T10:33:02Z</time>
      </trkpt>
      <trkpt lat="43.2655269932" lon="-4.3073126860">
        <ele>386.11</ele>
        <time>2018-05-19T10:33:03Z</time>
      </trkpt>
      <trkpt lat="43.2655072957" lon="-4.3074338883">
        <ele>386.11</ele>
        <time>2018-05-19T10:33:04Z</time>
      </trkpt>
      <trkpt lat="43.2654849999" lon="-4.3075622991">
        <ele>384.18</ele>
        <time>2018-05-19T10:33:05Z</time>
      </trkpt>
      <trkpt lat="43.2654609438" lon="-4.3076939788">
        <ele>383.22</ele>
        <time>2018-05-19T10:33:06Z</time>
      </trkpt>
      <trkpt lat="43.2654363010" lon="-4.3078245688">
        <ele>383.22</ele>
        <time>2018-05-19T10:33:07Z</time>
      </trkpt>
      <trkpt lat="43.2654028572" lon="-4.3079646304">
        <ele>381.78</ele>
        <time>2018-05-19T10:33:08Z</time>
      </trkpt>
      <trkpt lat="43.2653685752" lon="-4.3081029318">
        <ele>381.78</ele>
        <time>2018-05-19T10:33:09Z</time>
      </trkpt>
      <trkpt lat="43.2653410826" lon="-4.3082263973">
        <ele>380.82</ele>
        <time>2018-05-19T10:33:10Z</time>
      </trkpt>
      <trkpt lat="43.2652843371" lon="-4.3084294070">
        <ele>379.38</ele>
        <time>2018-05-19T10:33:12Z</time>
      </trkpt>
      <trkpt lat="43.2652377337" lon="-4.3086479232">
        <ele>377.45</ele>
        <time>2018-05-19T10:33:14Z</time>
      </trkpt>
      <trkpt lat="43.2651958242" lon="-4.3088413775">
        <ele>376.49</ele>
        <time>2018-05-19T10:33:16Z</time>
      </trkpt>
      <trkpt lat="43.2651249133" lon="-4.3089571316">
        <ele>376.01</ele>
        <time>2018-05-19T10:33:18Z</time>
      </trkpt>
      <trkpt lat="43.2650254201" lon="-4.3089335784">
        <ele>373.61</ele>
        <time>2018-05-19T10:33:20Z</time>
      </trkpt>
      <trkpt lat="43.2649682555" lon="-4.3088130467">
        <ele>372.17</ele>
        <time>2018-05-19T10:33:22Z</time>
      </trkpt>
      <trkpt lat="43.2649730332" lon="-4.3086301535">
        <ele>371.69</ele>
        <time>2018-05-19T10:33:24Z</time>
      </trkpt>
      <trkpt lat="43.2650208101" lon="-4.3084398843">
        <ele>370.24</ele>
        <time>2018-05-19T10:33:26Z</time>
      </trkpt>
      <trkpt lat="43.2650583610" lon="-4.3082483578">
        <ele>369.76</ele>
        <time>2018-05-19T10:33:28Z</time>
      </trkpt>
      <trkpt lat="43.2650530804" lon="-4.3080567475">
        <ele>368.80</ele>
        <time>2018-05-19T10:33:30Z</time>
      </trkpt>
      <trkpt lat="43.2649934851" lon="-4.3078858405">
        <ele>368.32</ele>
        <time>2018-05-19T10:33:32Z</time>
      </trkpt>
      <trkpt lat="43.2649122644" lon="-4.3077498022">
        <ele>367.84</ele>
        <time>2018-05-19T10:33:34Z</time>
      </trkpt>
      <trkpt lat="43.2648117654" lon="-4.3075980898">
        <ele>367.36</ele>
        <time>2018-05-19T10:33:36Z</time>
      </trkpt>
      <trkpt lat="43.2647090871" lon="-4.3074441142">
        <ele>366.40</ele>
        <time>2018-05-19T10:33:38Z</time>
      </trkpt>
      <trkpt lat="43.2646170538" lon="-4.3072786555">
        <ele>366.40</ele>
        <time>2018-05-19T10:33:40Z</time>
      </trkpt>
      <trkpt lat="43.2645383477" lon="-4.3070717063">
        <ele>365.92</ele>
        <time>2018-05-19T10:33:42Z</time>
      </trkpt>
      <trkpt lat="43.2644774113" lon="-4.3068617396">
        <ele>364.00</ele>
        <time>2018-05-19T10:33:44Z</time>
      </trkpt>
      <trkpt lat="43.2644461468" lon="-4.3067355920">
        <ele>362.55</ele>
        <time>2018-05-19T10:33:45Z</time>
      </trkpt>
      <trkpt lat="43.2644172292" lon="-4.3066036608">
        <ele>361.59</ele>
        <time>2018-05-19T10:33:46Z</time>
      </trkpt>
      <trkpt lat="43.2643933408" lon="-4.3064655270">
        <ele>360.15</ele>
        <time>2018-05-19T10:33:47Z</time>
      </trkpt>
      <trkpt lat="43.2643677760" lon="-4.3063233700">
        <ele>359.19</ele>
        <time>2018-05-19T10:33:48Z</time>
      </trkpt>
      <trkpt lat="43.2643360924" lon="-4.3061912712">
        <ele>357.75</ele>
        <time>2018-05-19T10:33:49Z</time>
      </trkpt>
      <trkpt lat="43.2642982062" lon="-4.3060632795">
        <ele>357.27</ele>
        <time>2018-05-19T10:33:50Z</time>
      </trkpt>
      <trkpt lat="43.2642580569" lon="-4.3059463520">
        <ele>357.27</ele>
        <time>2018-05-19T10:33:51Z</time>
      </trkpt>
      <trkpt lat="43.2641697954" lon="-4.3057403248">
        <ele>356.31</ele>
        <time>2018-05-19T10:33:53Z</time>
      </trkpt>
      <trkpt lat="43.2641070150" lon="-4.3056082260">
        <ele>356.31</ele>
        <time>2018-05-19T10:33:55Z</time>
      </trkpt>
      <trkpt lat="43.2640419714" lon="-4.3055216409">
        <ele>355.34</ele>
        <time>2018-05-19T10:33:57Z</time>
      </trkpt>
      <trkpt lat="43.2639370300" lon="-4.3055249099">
        <ele>354.38</ele>
        <time>2018-05-19T10:34:00Z</time>
      </trkpt>
      <trkpt lat="43.2639171649" lon="-4.3057140056">
        <ele>352.94</ele>
        <time>2018-05-19T10:34:03Z</time>
      </trkpt>
      <trkpt lat="43.2638927735" lon="-4.3058751058">
        <ele>351.98</ele>
        <time>2018-05-19T10:34:05Z</time>
      </trkpt>
      <trkpt lat="43.2638062723" lon="-4.3059615232">
        <ele>350.54</ele>
        <time>2018-05-19T10:34:07Z</time>
      </trkpt>
      <trkpt lat="43.2637116406" lon="-4.3059253972">
        <ele>350.06</ele>
        <time>2018-05-19T10:34:09Z</time>
      </trkpt>
      <trkpt lat="43.2636237144" lon="-4.3058223836">
        <ele>348.13</ele>
        <time>2018-05-19T10:34:11Z</time>
      </trkpt>
      <trkpt lat="43.2635315135" lon="-4.3057520594">
        <ele>347.17</ele>
        <time>2018-05-19T10:34:13Z</time>
      </trkpt>
      <trkpt lat="43.2634319365" lon="-4.3057577591">
        <ele>345.25</ele>
        <time>2018-05-19T10:34:15Z</time>
      </trkpt>
      <trkpt lat="43.2633657195" lon="-4.3058722559">
        <ele>344.29</ele>
        <time>2018-05-19T10:34:17Z</time>
      </trkpt>
      <trkpt lat="43.2633475307" lon="-4.3060159218">
        <ele>342.85</ele>
        <time>2018-05-19T10:34:19Z</time>
      </trkpt>
      <trkpt lat="43.2632985804" lon="-4.3061719928">
        <ele>341.41</ele>
        <time>2018-05-19T10:34:21Z</time>
      </trkpt>
      <trkpt lat="43.2632092293" lon="-4.3062982243">
        <ele>340.44</ele>
        <time>2018-05-19T10:34:23Z</time>
      </trkpt>
      <trkpt lat="43.2631275058" lon="-4.3064345978">
        <ele>338.52</ele>
        <time>2018-05-19T10:34:25Z</time>
      </trkpt>
      <trkpt lat="43.2630990911" lon="-4.3065949436">
        <ele>337.56</ele>
        <time>2018-05-19T10:34:27Z</time>
      </trkpt>
      <trkpt lat="43.2631358039" lon="-4.3067360949">
        <ele>336.60</ele>
        <time>2018-05-19T10:34:29Z</time>
      </trkpt>
      <trkpt lat="43.2632031105" lon="-4.3068749830">
        <ele>335.64</ele>
        <time>2018-05-19T10:34:31Z</time>
      </trkpt>
      <trkpt lat="43.2632460259" lon="-4.3070356641">
        <ele>333.71</ele>
        <time>2018-05-19T10:34:33Z</time>
      </trkpt>
      <trkpt lat="43.2632181142" lon="-4.3071844429">
        <ele>333.23</ele>
        <time>2018-05-19T10:34:35Z</time>
      </trkpt>
      <trkpt lat="43.2631241530" lon="-4.3072638195">
        <ele>332.75</ele>
        <time>2018-05-19T10:34:37Z</time>
      </trkpt>
      <trkpt lat="43.2630192116" lon="-4.3072369974">
        <ele>331.79</ele>
        <time>2018-05-19T10:34:39Z</time>
      </trkpt>
      <trkpt lat="43.2629317045" lon="-4.3071196508">
        <ele>329.87</ele>
        <time>2018-05-19T10:34:41Z</time>
      </trkpt>
      <trkpt lat="43.2628822513" lon="-4.3069687765">
        <ele>328.43</ele>
        <time>2018-05-19T10:34:43Z</time>
      </trkpt>
      <trkpt lat="43.2628371567" lon="-4.3067600671">
        <ele>326.99</ele>
        <time>2018-05-19T10:34:45Z</time>
      </trkpt>
      <trkpt lat="43.2627975941" lon="-4.3065449037">
        <ele>325.06</ele>
        <time>2018-05-19T10:34:47Z</time>
      </trkpt>
      <trkpt lat="43.2627617195" lon="-4.3063053489">
        <ele>322.66</ele>
        <time>2018-05-19T10:34:49Z</time>
      </trkpt>
      <trkpt lat="43.2627586182" lon="-4.3060679734">
        <ele>321.22</ele>
        <time>2018-05-19T10:34:51Z</time>
      </trkpt>
      <trkpt lat="43.2627695147" lon="-4.3059448432">
        <ele>321.22</ele>
        <time>2018-05-19T10:34:52Z</time>
      </trkpt>
      <trkpt lat="43.2628043834" lon="-4.3057218008">
        <ele>318.33</ele>
        <time>2018-05-19T10:34:54Z</time>
      </trkpt>
      <trkpt lat="43.2628068142" lon="-4.3055298552">
        <ele>316.89</ele>
        <time>2018-05-19T10:34:56Z</time>
      </trkpt>
      <trkpt lat="43.2627728675" lon="-4.3053407595">
        <ele>315.93</ele>
        <time>2018-05-19T10:34:58Z</time>
      </trkpt>
      <trkpt lat="43.2626664173" lon="-4.3052008655">
        <ele>313.53</ele>
        <time>2018-05-19T10:35:00Z</time>
      </trkpt>
      <trkpt lat="43.2625260204" lon="-4.3051490653">
        <ele>312.09</ele>
        <time>2018-05-19T10:35:02Z</time>
      </trkpt>
      <trkpt lat="43.2623841148" lon="-4.3051291164">
        <ele>311.12</ele>
        <time>2018-05-19T10:35:04Z</time>
      </trkpt>
      <trkpt lat="43.2622609008" lon="-4.3050794117">
        <ele>309.68</ele>
        <time>2018-05-19T10:35:06Z</time>
      </trkpt>
      <trkpt lat="43.2621974498" lon="-4.3049596343">
        <ele>309.20</ele>
        <time>2018-05-19T10:35:08Z</time>
      </trkpt>
      <trkpt lat="43.2621632516" lon="-4.3047704548">
        <ele>306.80</ele>
        <time>2018-05-19T10:35:10Z</time>
      </trkpt>
      <trkpt lat="43.2621554565" lon="-4.3045594823">
        <ele>305.36</ele>
        <time>2018-05-19T10:35:12Z</time>
      </trkpt>
      <trkpt lat="43.2621424645" lon="-4.3043331709">
        <ele>303.43</ele>
        <time>2018-05-19T10:35:14Z</time>
      </trkpt>
      <trkpt lat="43.2621076796" lon="-4.3041140679">
        <ele>301.51</ele>
        <time>2018-05-19T10:35:16Z</time>
      </trkpt>
      <trkpt lat="43.2620303147" lon="-4.3039108068">
        <ele>300.55</ele>
        <time>2018-05-19T10:35:18Z</time>
      </trkpt>
      <trkpt lat="43.2619693782" lon="-4.3037572503">
        <ele>300.07</ele>
        <time>2018-05-19T10:35:20Z</time>
      </trkpt>
      <trkpt lat="43.2619495969" lon="-4.3035792187">
        <ele>299.59</ele>
        <time>2018-05-19T10:35:22Z</time>
      </trkpt>
      <trkpt lat="43.2619860582" lon="-4.3033949006">
        <ele>298.15</ele>
        <time>2018-05-19T10:35:24Z</time>
      </trkpt>
      <trkpt lat="43.2620251179" lon="-4.3031941541">
        <ele>296.22</ele>
        <time>2018-05-19T10:35:26Z</time>
      </trkpt>
      <trkpt lat="43.2620190829" lon="-4.3029680941">
        <ele>294.78</ele>
        <time>2018-05-19T10:35:28Z</time>
      </trkpt>
      <trkpt lat="43.2620019000" lon="-4.3028411083">
        <ele>294.30</ele>
        <time>2018-05-19T10:35:29Z</time>
      </trkpt>
      <trkpt lat="43.2619839627" lon="-4.3026379310">
        <ele>293.34</ele>
        <time>2018-05-19T10:35:31Z</time>
      </trkpt>
      <trkpt lat="43.2619851362" lon="-4.3023998849">
        <ele>292.86</ele>
        <time>2018-05-19T10:35:33Z</time>
      </trkpt>
      <trkpt lat="43.2619857229" lon="-4.3021824583">
        <ele>291.90</ele>
        <time>2018-05-19T10:35:35Z</time>
      </trkpt>
      <trkpt lat="43.2620063424" lon="-4.3019859865">
        <ele>291.42</ele>
        <time>2018-05-19T10:35:37Z</time>
      </trkpt>
      <trkpt lat="43.2620702125" lon="-4.3017983995">
        <ele>289.97</ele>
        <time>2018-05-19T10:35:39Z</time>
      </trkpt>
      <trkpt lat="43.2621624134" lon="-4.3016112316">
        <ele>289.49</ele>
        <time>2018-05-19T10:35:41Z</time>
      </trkpt>
      <trkpt lat="43.2622324862" lon="-4.3013886921">
        <ele>287.57</ele>
        <time>2018-05-19T10:35:43Z</time>
      </trkpt>
      <trkpt lat="43.2622721326" lon="-4.3011995964">
        <ele>287.09</ele>
        <time>2018-05-19T10:35:45Z</time>
      </trkpt>
      <trkpt lat="43.2623061631" lon="-4.3009767216">
        <ele>285.65</ele>
        <time>2018-05-19T10:35:47Z</time>
      </trkpt>
      <trkpt lat="43.2622938417" lon="-4.3007773161">
        <ele>283.73</ele>
        <time>2018-05-19T10:35:49Z</time>
      </trkpt>
      <trkpt lat="43.2622275408" lon="-4.3006123602">
        <ele>283.25</ele>
        <time>2018-05-19T10:35:51Z</time>
      </trkpt>
      <trkpt lat="43.2621495891" lon="-4.3004245218">
        <ele>281.80</ele>
        <time>2018-05-19T10:35:53Z</time>
      </trkpt>
      <trkpt lat="43.2620713022" lon="-4.3002260383">
        <ele>279.88</ele>
        <time>2018-05-19T10:35:55Z</time>
      </trkpt>
      <trkpt lat="43.2620057557" lon="-4.3000641000">
        <ele>279.88</ele>
        <time>2018-05-19T10:35:57Z</time>
      </trkpt>
      <trkpt lat="43.2619529497" lon="-4.2998524569">
        <ele>278.44</ele>
        <time>2018-05-19T10:35:59Z</time>
      </trkpt>
      <trkpt lat="43.2619295642" lon="-4.2996269837">
        <ele>276.52</ele>
        <time>2018-05-19T10:36:01Z</time>
      </trkpt>
      <trkpt lat="43.2619296480" lon="-4.2993801367">
        <ele>274.59</ele>
        <time>2018-05-19T10:36:03Z</time>
      </trkpt>
      <trkpt lat="43.2619527820" lon="-4.2991326191">
        <ele>273.63</ele>
        <time>2018-05-19T10:36:05Z</time>
      </trkpt>
      <trkpt lat="43.2619870640" lon="-4.2989297770">
        <ele>271.71</ele>
        <time>2018-05-19T10:36:07Z</time>
      </trkpt>
      <trkpt lat="43.2619905006" lon="-4.2987119313">
        <ele>269.79</ele>
        <time>2018-05-19T10:36:09Z</time>
      </trkpt>
      <trkpt lat="43.2619506028" lon="-4.2984919902">
        <ele>269.79</ele>
        <time>2018-05-19T10:36:11Z</time>
      </trkpt>
      <trkpt lat="43.2619153988" lon="-4.2983151320">
        <ele>269.79</ele>
        <time>2018-05-19T10:36:13Z</time>
      </trkpt>
      <trkpt lat="43.2618760038" lon="-4.2981202528">
        <ele>269.79</ele>
        <time>2018-05-19T10:36:15Z</time>
      </trkpt>
      <trkpt lat="43.2618485950" lon="-4.2979167402">
        <ele>270.27</ele>
        <time>2018-05-19T10:36:17Z</time>
      </trkpt>
      <trkpt lat="43.2618390396" lon="-4.2977379542">
        <ele>270.27</ele>
        <time>2018-05-19T10:36:19Z</time>
      </trkpt>
      <trkpt lat="43.2618392911" lon="-4.2975389678">
        <ele>269.31</ele>
        <time>2018-05-19T10:36:21Z</time>
      </trkpt>
      <trkpt lat="43.2618476730" lon="-4.2973398138">
        <ele>268.35</ele>
        <time>2018-05-19T10:36:23Z</time>
      </trkpt>
      <trkpt lat="43.2618690468" lon="-4.2971314397">
        <ele>268.35</ele>
        <time>2018-05-19T10:36:25Z</time>
      </trkpt>
      <trkpt lat="43.2619291451" lon="-4.2969109118">
        <ele>267.86</ele>
        <time>2018-05-19T10:36:27Z</time>
      </trkpt>
      <trkpt lat="43.2620178256" lon="-4.2967535835">
        <ele>267.38</ele>
        <time>2018-05-19T10:36:29Z</time>
      </trkpt>
      <trkpt lat="43.2621439733" lon="-4.2966511566">
        <ele>266.90</ele>
        <time>2018-05-19T10:36:31Z</time>
      </trkpt>
      <trkpt lat="43.2622695342" lon="-4.2965861131">
        <ele>266.90</ele>
        <time>2018-05-19T10:36:33Z</time>
      </trkpt>
      <trkpt lat="43.2623550296" lon="-4.2964715324">
        <ele>265.94</ele>
        <time>2018-05-19T10:36:35Z</time>
      </trkpt>
      <trkpt lat="43.2624132838" lon="-4.2963152938">
        <ele>264.98</ele>
        <time>2018-05-19T10:36:37Z</time>
      </trkpt>
      <trkpt lat="43.2624547742" lon="-4.2961168941">
        <ele>263.06</ele>
        <time>2018-05-19T10:36:39Z</time>
      </trkpt>
      <trkpt lat="43.2624823507" lon="-4.2959136330">
        <ele>262.10</ele>
        <time>2018-05-19T10:36:41Z</time>
      </trkpt>
      <trkpt lat="43.2625026349" lon="-4.2956915125">
        <ele>260.65</ele>
        <time>2018-05-19T10:36:43Z</time>
      </trkpt>
      <trkpt lat="43.2625241764" lon="-4.2954613455">
        <ele>259.69</ele>
        <time>2018-05-19T10:36:45Z</time>
      </trkpt>
      <trkpt lat="43.2625587098" lon="-4.2952250596">
        <ele>259.21</ele>
        <time>2018-05-19T10:36:47Z</time>
      </trkpt>
      <trkpt lat="43.2626099233" lon="-4.2950021848">
        <ele>258.73</ele>
        <time>2018-05-19T10:36:49Z</time>
      </trkpt>
      <trkpt lat="43.2626604661" lon="-4.2948801443">
        <ele>258.25</ele>
        <time>2018-05-19T10:36:50Z</time>
      </trkpt>
      <trkpt lat="43.2627093326" lon="-4.2947902903">
        <ele>258.25</ele>
        <time>2018-05-19T10:36:51Z</time>
      </trkpt>
      <trkpt lat="43.2628031261" lon="-4.2946253344">
        <ele>257.29</ele>
        <time>2018-05-19T10:36:53Z</time>
      </trkpt>
      <trkpt lat="43.2629104983" lon="-4.2944474705">
        <ele>256.81</ele>
        <time>2018-05-19T10:36:55Z</time>
      </trkpt>
      <trkpt lat="43.2630146854" lon="-4.2942723725">
        <ele>256.33</ele>
        <time>2018-05-19T10:36:57Z</time>
      </trkpt>
      <trkpt lat="43.2631095685" lon="-4.2940816842">
        <ele>256.33</ele>
        <time>2018-05-19T10:36:59Z</time>
      </trkpt>
      <trkpt lat="43.2631860115" lon="-4.2938774172">
        <ele>256.33</ele>
        <time>2018-05-19T10:37:01Z</time>
      </trkpt>
      <trkpt lat="43.2632149290" lon="-4.2936905846">
        <ele>254.89</ele>
        <time>2018-05-19T10:37:03Z</time>
      </trkpt>
      <trkpt lat="43.2632217184" lon="-4.2934944481">
        <ele>254.89</ele>
        <time>2018-05-19T10:37:05Z</time>
      </trkpt>
      <trkpt lat="43.2632169407" lon="-4.2932879180">
        <ele>252.96</ele>
        <time>2018-05-19T10:37:07Z</time>
      </trkpt>
      <trkpt lat="43.2632178627" lon="-4.2930765264">
        <ele>252.00</ele>
        <time>2018-05-19T10:37:09Z</time>
      </trkpt>
      <trkpt lat="43.2632264961" lon="-4.2928778753">
        <ele>251.04</ele>
        <time>2018-05-19T10:37:11Z</time>
      </trkpt>
      <trkpt lat="43.2632434275" lon="-4.2926780507">
        <ele>251.04</ele>
        <time>2018-05-19T10:37:13Z</time>
      </trkpt>
      <trkpt lat="43.2632527314" lon="-4.2925102450">
        <ele>252.96</ele>
        <time>2018-05-19T10:37:15Z</time>
      </trkpt>
      <trkpt lat="43.2632606104" lon="-4.2923432775">
        <ele>252.96</ele>
        <time>2018-05-19T10:37:17Z</time>
      </trkpt>
      <trkpt lat="43.2632679027" lon="-4.2921867035">
        <ele>252.96</ele>
        <time>2018-05-19T10:37:19Z</time>
      </trkpt>
      <trkpt lat="43.2632790506" lon="-4.2920287885">
        <ele>252.96</ele>
        <time>2018-05-19T10:37:21Z</time>
      </trkpt>
      <trkpt lat="43.2632850017" lon="-4.2918658443">
        <ele>251.52</ele>
        <time>2018-05-19T10:37:23Z</time>
      </trkpt>
      <trkpt lat="43.2632784639" lon="-4.2916887347">
        <ele>251.52</ele>
        <time>2018-05-19T10:37:25Z</time>
      </trkpt>
      <trkpt lat="43.2632465288" lon="-4.2915134691">
        <ele>251.52</ele>
        <time>2018-05-19T10:37:27Z</time>
      </trkpt>
      <trkpt lat="43.2631913759" lon="-4.2913279776">
        <ele>251.52</ele>
        <time>2018-05-19T10:37:29Z</time>
      </trkpt>
      <trkpt lat="43.2631318644" lon="-4.2911433242">
        <ele>250.08</ele>
        <time>2018-05-19T10:37:31Z</time>
      </trkpt>
      <trkpt lat="43.2630501408" lon="-4.2909545638">
        <ele>249.12</ele>
        <time>2018-05-19T10:37:33Z</time>
      </trkpt>
      <trkpt lat="43.2629576884" lon="-4.2907528952">
        <ele>248.16</ele>
        <time>2018-05-19T10:37:35Z</time>
      </trkpt>
      <trkpt lat="43.2628651522" lon="-4.2905575968">
        <ele>246.72</ele>
        <time>2018-05-19T10:37:37Z</time>
      </trkpt>
      <trkpt lat="43.2628147770" lon="-4.2904462013">
        <ele>246.23</ele>
        <time>2018-05-19T10:37:38Z</time>
      </trkpt>
      <trkpt lat="43.2627292816" lon="-4.2902514059">
        <ele>244.79</ele>
        <time>2018-05-19T10:37:40Z</time>
      </trkpt>
      <trkpt lat="43.2626812533" lon="-4.2901426926">
        <ele>244.31</ele>
        <time>2018-05-19T10:37:41Z</time>
      </trkpt>
      <trkpt lat="43.2626300398" lon="-4.2900270224">
        <ele>243.35</ele>
        <time>2018-05-19T10:37:42Z</time>
      </trkpt>
      <trkpt lat="43.2625832688" lon="-4.2899153754">
        <ele>242.39</ele>
        <time>2018-05-19T10:37:43Z</time>
      </trkpt>
      <trkpt lat="43.2625359949" lon="-4.2898027226">
        <ele>241.43</ele>
        <time>2018-05-19T10:37:44Z</time>
      </trkpt>
      <trkpt lat="43.2624853682" lon="-4.2896842025">
        <ele>240.47</ele>
        <time>2018-05-19T10:37:45Z</time>
      </trkpt>
      <trkpt lat="43.2624396868" lon="-4.2895697895">
        <ele>238.54</ele>
        <time>2018-05-19T10:37:46Z</time>
      </trkpt>
      <trkpt lat="43.2624004595" lon="-4.2894563824">
        <ele>238.06</ele>
        <time>2018-05-19T10:37:47Z</time>
      </trkpt>
      <trkpt lat="43.2623649202" lon="-4.2893318273">
        <ele>238.06</ele>
        <time>2018-05-19T10:37:48Z</time>
      </trkpt>
      <trkpt lat="43.2623186521" lon="-4.2891278956">
        <ele>238.06</ele>
        <time>2018-05-19T10:37:50Z</time>
      </trkpt>
      <trkpt lat="43.2622737251" lon="-4.2889615148">
        <ele>236.62</ele>
        <time>2018-05-19T10:37:52Z</time>
      </trkpt>
      <trkpt lat="43.2622262836" lon="-4.2887638696">
        <ele>236.14</ele>
        <time>2018-05-19T10:37:54Z</time>
      </trkpt>
      <trkpt lat="43.2621910796" lon="-4.2885601055">
        <ele>235.66</ele>
        <time>2018-05-19T10:37:56Z</time>
      </trkpt>
      <trkpt lat="43.2621761598" lon="-4.2883418407">
        <ele>234.70</ele>
        <time>2018-05-19T10:37:58Z</time>
      </trkpt>
      <trkpt lat="43.2622048259" lon="-4.2881247494">
        <ele>234.70</ele>
        <time>2018-05-19T10:38:00Z</time>
      </trkpt>
      <trkpt lat="43.2622500043" lon="-4.2879560217">
        <ele>234.70</ele>
        <time>2018-05-19T10:38:02Z</time>
      </trkpt>
      <trkpt lat="43.2623101026" lon="-4.2877722066">
        <ele>234.70</ele>
        <time>2018-05-19T10:38:04Z</time>
      </trkpt>
      <trkpt lat="43.2623777445" lon="-4.2875832785">
        <ele>234.70</ele>
        <time>2018-05-19T10:38:06Z</time>
      </trkpt>
      <trkpt lat="43.2624330651" lon="-4.2874009721">
        <ele>234.70</ele>
        <time>2018-05-19T10:38:08Z</time>
      </trkpt>
      <trkpt lat="43.2624698617" lon="-4.2872154806">
        <ele>235.66</ele>
        <time>2018-05-19T10:38:10Z</time>
      </trkpt>
      <trkpt lat="43.2624987792" lon="-4.2870172486">
        <ele>235.66</ele>
        <time>2018-05-19T10:38:12Z</time>
      </trkpt>
      <trkpt lat="43.2625181414" lon="-4.2868373729">
        <ele>235.66</ele>
        <time>2018-05-19T10:38:14Z</time>
      </trkpt>
      <trkpt lat="43.2625341509" lon="-4.2866424937">
        <ele>234.70</ele>
        <time>2018-05-19T10:38:16Z</time>
      </trkpt>
      <trkpt lat="43.2625505794" lon="-4.2864505481">
        <ele>234.22</ele>
        <time>2018-05-19T10:38:18Z</time>
      </trkpt>
      <trkpt lat="43.2625665888" lon="-4.2862464488">
        <ele>233.74</ele>
        <time>2018-05-19T10:38:20Z</time>
      </trkpt>
      <trkpt lat="43.2625802513" lon="-4.2860224005">
        <ele>232.78</ele>
        <time>2018-05-19T10:38:22Z</time>
      </trkpt>
      <trkpt lat="43.2625923213" lon="-4.2858222406">
        <ele>231.33</ele>
        <time>2018-05-19T10:38:24Z</time>
      </trkpt>
      <trkpt lat="43.2626072410" lon="-4.2856038082">
        <ele>231.33</ele>
        <time>2018-05-19T10:38:26Z</time>
      </trkpt>
      <trkpt lat="43.2626196463" lon="-4.2853964400">
        <ele>230.85</ele>
        <time>2018-05-19T10:38:28Z</time>
      </trkpt>
      <trkpt lat="43.2626366615" lon="-4.2851935979">
        <ele>230.85</ele>
        <time>2018-05-19T10:38:30Z</time>
      </trkpt>
      <trkpt lat="43.2626480609" lon="-4.2849995568">
        <ele>230.85</ele>
        <time>2018-05-19T10:38:32Z</time>
      </trkpt>
      <trkpt lat="43.2626631483" lon="-4.2848003190">
        <ele>230.37</ele>
        <time>2018-05-19T10:38:34Z</time>
      </trkpt>
      <trkpt lat="43.2626737095" lon="-4.2846382968">
        <ele>230.37</ele>
        <time>2018-05-19T10:38:36Z</time>
      </trkpt>
      <trkpt lat="43.2627108414" lon="-4.2844393104">
        <ele>228.93</ele>
        <time>2018-05-19T10:38:38Z</time>
      </trkpt>
      <trkpt lat="43.2627536729" lon="-4.2842293438">
        <ele>227.49</ele>
        <time>2018-05-19T10:38:40Z</time>
      </trkpt>
      <trkpt lat="43.2628142741" lon="-4.2840249930">
        <ele>226.53</ele>
        <time>2018-05-19T10:38:42Z</time>
      </trkpt>
      <trkpt lat="43.2628855202" lon="-4.2838192172">
        <ele>225.57</ele>
        <time>2018-05-19T10:38:44Z</time>
      </trkpt>
      <trkpt lat="43.2629644778" lon="-4.2836011201">
        <ele>225.09</ele>
        <time>2018-05-19T10:38:46Z</time>
      </trkpt>
      <trkpt lat="43.2630345505" lon="-4.2834261898">
        <ele>224.12</ele>
        <time>2018-05-19T10:38:48Z</time>
      </trkpt>
      <trkpt lat="43.2631209679" lon="-4.2832222581">
        <ele>224.12</ele>
        <time>2018-05-19T10:38:50Z</time>
      </trkpt>
      <trkpt lat="43.2632082235" lon="-4.2830381915">
        <ele>224.12</ele>
        <time>2018-05-19T10:38:52Z</time>
      </trkpt>
      <trkpt lat="43.2633049507" lon="-4.2828579806">
        <ele>224.12</ele>
        <time>2018-05-19T10:38:54Z</time>
      </trkpt>
      <trkpt lat="43.2633946370" lon="-4.2826895043">
        <ele>224.12</ele>
        <time>2018-05-19T10:38:56Z</time>
      </trkpt>
      <trkpt lat="43.2634698227" lon="-4.2825265601">
        <ele>225.57</ele>
        <time>2018-05-19T10:38:58Z</time>
      </trkpt>
      <trkpt lat="43.2635330223" lon="-4.2823763564">
        <ele>226.53</ele>
        <time>2018-05-19T10:39:00Z</time>
      </trkpt>
      <trkpt lat="43.2635789551" lon="-4.2822400667">
        <ele>226.53</ele>
        <time>2018-05-19T10:39:02Z</time>
      </trkpt>
      <trkpt lat="43.2636114769" lon="-4.2820912041">
        <ele>227.01</ele>
        <time>2018-05-19T10:39:04Z</time>
      </trkpt>
      <trkpt lat="43.2636308391" lon="-4.2819590215">
        <ele>228.45</ele>
        <time>2018-05-19T10:39:06Z</time>
      </trkpt>
      <trkpt lat="43.2636390533" lon="-4.2818228994">
        <ele>228.45</ele>
        <time>2018-05-19T10:39:08Z</time>
      </trkpt>
      <trkpt lat="43.2636432443" lon="-4.2816843465">
        <ele>228.93</ele>
        <time>2018-05-19T10:39:10Z</time>
      </trkpt>
      <trkpt lat="43.2636416517" lon="-4.2815402616">
        <ele>228.45</ele>
        <time>2018-05-19T10:39:12Z</time>
      </trkpt>
      <trkpt lat="43.2636331022" lon="-4.2814178020">
        <ele>228.93</ele>
        <time>2018-05-19T10:39:14Z</time>
      </trkpt>
      <trkpt lat="43.2635985687" lon="-4.2812949233">
        <ele>229.41</ele>
        <time>2018-05-19T10:39:16Z</time>
      </trkpt>
      <trkpt lat="43.2635510433" lon="-4.2811864614">
        <ele>230.37</ele>
        <time>2018-05-19T10:39:18Z</time>
      </trkpt>
      <trkpt lat="43.2634757739" lon="-4.2810461484">
        <ele>230.85</ele>
        <time>2018-05-19T10:39:21Z</time>
      </trkpt>
      <trkpt lat="43.2634228002" lon="-4.2809391953">
        <ele>230.85</ele>
        <time>2018-05-19T10:39:23Z</time>
      </trkpt>
      <trkpt lat="43.2633425854" lon="-4.2807726469">
        <ele>230.85</ele>
        <time>2018-05-19T10:39:26Z</time>
      </trkpt>
      <trkpt lat="43.2632699981" lon="-4.2806485109">
        <ele>230.85</ele>
        <time>2018-05-19T10:39:28Z</time>
      </trkpt>
      <trkpt lat="43.2631815691" lon="-4.2804947868">
        <ele>228.45</ele>
        <time>2018-05-19T10:39:30Z</time>
      </trkpt>
      <trkpt lat="43.2630949002" lon="-4.2803227063">
        <ele>227.01</ele>
        <time>2018-05-19T10:39:32Z</time>
      </trkpt>
      <trkpt lat="43.2630431838" lon="-4.2802047729">
        <ele>225.57</ele>
        <time>2018-05-19T10:39:33Z</time>
      </trkpt>
      <trkpt lat="43.2629789785" lon="-4.2800147552">
        <ele>225.57</ele>
        <time>2018-05-19T10:39:35Z</time>
      </trkpt>
      <trkpt lat="43.2629381586" lon="-4.2798238155">
        <ele>225.09</ele>
        <time>2018-05-19T10:39:37Z</time>
      </trkpt>
      <trkpt lat="43.2629105821" lon="-4.2796051316">
        <ele>223.64</ele>
        <time>2018-05-19T10:39:39Z</time>
      </trkpt>
      <trkpt lat="43.2628783956" lon="-4.2793838494">
        <ele>222.68</ele>
        <time>2018-05-19T10:39:41Z</time>
      </trkpt>
      <trkpt lat="43.2628215663" lon="-4.2791908141">
        <ele>222.20</ele>
        <time>2018-05-19T10:39:43Z</time>
      </trkpt>
      <trkpt lat="43.2627005316" lon="-4.2790774908">
        <ele>222.20</ele>
        <time>2018-05-19T10:39:45Z</time>
      </trkpt>
      <trkpt lat="43.2625799160" lon="-4.2790294625">
        <ele>221.72</ele>
        <time>2018-05-19T10:39:47Z</time>
      </trkpt>
      <trkpt lat="43.2624324784" lon="-4.2789468169">
        <ele>220.76</ele>
        <time>2018-05-19T10:39:49Z</time>
      </trkpt>
      <trkpt lat="43.2622956857" lon="-4.2788329907">
        <ele>219.80</ele>
        <time>2018-05-19T10:39:51Z</time>
      </trkpt>
      <trkpt lat="43.2621462364" lon="-4.2787018977">
        <ele>217.88</ele>
        <time>2018-05-19T10:39:53Z</time>
      </trkpt>
      <trkpt lat="43.2620555442" lon="-4.2786358483">
        <ele>217.40</ele>
        <time>2018-05-19T10:39:54Z</time>
      </trkpt>
      <trkpt lat="43.2619233616" lon="-4.2785470001">
        <ele>216.91</ele>
        <time>2018-05-19T10:39:56Z</time>
      </trkpt>
      <trkpt lat="43.2617619261" lon="-4.2784268875">
        <ele>215.95</ele>
        <time>2018-05-19T10:39:58Z</time>
      </trkpt>
      <trkpt lat="43.2616853993" lon="-4.2783625983">
        <ele>214.99</ele>
        <time>2018-05-19T10:39:59Z</time>
      </trkpt>
      <trkpt lat="43.2615967188" lon="-4.2782849818">
        <ele>214.03</ele>
        <time>2018-05-19T10:40:00Z</time>
      </trkpt>
      <trkpt lat="43.2615208626" lon="-4.2782156635">
        <ele>213.55</ele>
        <time>2018-05-19T10:40:01Z</time>
      </trkpt>
      <trkpt lat="43.2614408154" lon="-4.2781390529">
        <ele>212.11</ele>
        <time>2018-05-19T10:40:02Z</time>
      </trkpt>
      <trkpt lat="43.2613613550" lon="-4.2780636996">
        <ele>211.15</ele>
        <time>2018-05-19T10:40:03Z</time>
      </trkpt>
      <trkpt lat="43.2612736803" lon="-4.2779855803">
        <ele>211.15</ele>
        <time>2018-05-19T10:40:04Z</time>
      </trkpt>
      <trkpt lat="43.2611788809" lon="-4.2779035214">
        <ele>211.15</ele>
        <time>2018-05-19T10:40:05Z</time>
      </trkpt>
      <trkpt lat="43.2610879373" lon="-4.2778289225">
        <ele>211.15</ele>
        <time>2018-05-19T10:40:06Z</time>
      </trkpt>
      <trkpt lat="43.2609610353" lon="-4.2777049541">
        <ele>210.19</ele>
        <time>2018-05-19T10:40:08Z</time>
      </trkpt>
      <trkpt lat="43.2608376537" lon="-4.2775405012">
        <ele>210.19</ele>
        <time>2018-05-19T10:40:10Z</time>
      </trkpt>
      <trkpt lat="43.2607294433" lon="-4.2773498129">
        <ele>210.19</ele>
        <time>2018-05-19T10:40:12Z</time>
      </trkpt>
      <trkpt lat="43.2606803253" lon="-4.2772469670">
        <ele>209.70</ele>
        <time>2018-05-19T10:40:13Z</time>
      </trkpt>
      <trkpt lat="43.2605949137" lon="-4.2770184763">
        <ele>209.70</ele>
        <time>2018-05-19T10:40:15Z</time>
      </trkpt>
      <trkpt lat="43.2605501544" lon="-4.2769010458">
        <ele>209.22</ele>
        <time>2018-05-19T10:40:16Z</time>
      </trkpt>
      <trkpt lat="43.2604701910" lon="-4.2767041549">
        <ele>208.26</ele>
        <time>2018-05-19T10:40:18Z</time>
      </trkpt>
      <trkpt lat="43.2603815105" lon="-4.2764886562">
        <ele>207.30</ele>
        <time>2018-05-19T10:40:20Z</time>
      </trkpt>
      <trkpt lat="43.2603074145" lon="-4.2762792762">
        <ele>206.82</ele>
        <time>2018-05-19T10:40:22Z</time>
      </trkpt>
      <trkpt lat="43.2602525968" lon="-4.2760556471">
        <ele>206.82</ele>
        <time>2018-05-19T10:40:24Z</time>
      </trkpt>
      <trkpt lat="43.2602134533" lon="-4.2758041900">
        <ele>206.34</ele>
        <time>2018-05-19T10:40:26Z</time>
      </trkpt>
      <trkpt lat="43.2602062449" lon="-4.2756709177">
        <ele>205.38</ele>
        <time>2018-05-19T10:40:27Z</time>
      </trkpt>
      <trkpt lat="43.2602015510" lon="-4.2754434329">
        <ele>203.94</ele>
        <time>2018-05-19T10:40:29Z</time>
      </trkpt>
      <trkpt lat="43.2602013834" lon="-4.2753217276">
        <ele>203.94</ele>
        <time>2018-05-19T10:40:30Z</time>
      </trkpt>
      <trkpt lat="43.2602111064" lon="-4.2750619724">
        <ele>203.94</ele>
        <time>2018-05-19T10:40:32Z</time>
      </trkpt>
      <trkpt lat="43.2602159679" lon="-4.2749426141">
        <ele>203.94</ele>
        <time>2018-05-19T10:40:33Z</time>
      </trkpt>
      <trkpt lat="43.2602259424" lon="-4.2747134529">
        <ele>203.46</ele>
        <time>2018-05-19T10:40:35Z</time>
      </trkpt>
      <trkpt lat="43.2602445502" lon="-4.2744774185">
        <ele>202.98</ele>
        <time>2018-05-19T10:40:37Z</time>
      </trkpt>
      <trkpt lat="43.2602625713" lon="-4.2743500974">
        <ele>202.98</ele>
        <time>2018-05-19T10:40:38Z</time>
      </trkpt>
      <trkpt lat="43.2602831069" lon="-4.2742156517">
        <ele>202.98</ele>
        <time>2018-05-19T10:40:39Z</time>
      </trkpt>
      <trkpt lat="43.2603211608" lon="-4.2740118038">
        <ele>202.49</ele>
        <time>2018-05-19T10:40:41Z</time>
      </trkpt>
      <trkpt lat="43.2603711169" lon="-4.2737923656">
        <ele>202.01</ele>
        <time>2018-05-19T10:40:43Z</time>
      </trkpt>
      <trkpt lat="43.2604083326" lon="-4.2735804711">
        <ele>202.01</ele>
        <time>2018-05-19T10:40:45Z</time>
      </trkpt>
      <trkpt lat="43.2604039740" lon="-4.2733736057">
        <ele>201.53</ele>
        <time>2018-05-19T10:40:47Z</time>
      </trkpt>
      <trkpt lat="43.2603447139" lon="-4.2731991783">
        <ele>201.53</ele>
        <time>2018-05-19T10:40:49Z</time>
      </trkpt>
      <trkpt lat="43.2602458913" lon="-4.2730535008">
        <ele>201.05</ele>
        <time>2018-05-19T10:40:51Z</time>
      </trkpt>
      <trkpt lat="43.2601351663" lon="-4.2728768103">
        <ele>199.13</ele>
        <time>2018-05-19T10:40:53Z</time>
      </trkpt>
      <trkpt lat="43.2600686979" lon="-4.2726548575">
        <ele>199.13</ele>
        <time>2018-05-19T10:40:55Z</time>
      </trkpt>
      <trkpt lat="43.2600359246" lon="-4.2724360898">
        <ele>198.65</ele>
        <time>2018-05-19T10:40:57Z</time>
      </trkpt>
      <trkpt lat="43.2599978708" lon="-4.2722198367">
        <ele>198.65</ele>
        <time>2018-05-19T10:40:59Z</time>
      </trkpt>
      <trkpt lat="43.2599376049" lon="-4.2720000632">
        <ele>198.65</ele>
        <time>2018-05-19T10:41:01Z</time>
      </trkpt>
      <trkpt lat="43.2598461583" lon="-4.2718770169">
        <ele>198.65</ele>
        <time>2018-05-19T10:41:03Z</time>
      </trkpt>
      <trkpt lat="43.2597017381" lon="-4.2718251329">
        <ele>198.65</ele>
        <time>2018-05-19T10:41:05Z</time>
      </trkpt>
      <trkpt lat="43.2595738303" lon="-4.2718382087">
        <ele>200.09</ele>
        <time>2018-05-19T10:41:07Z</time>
      </trkpt>
      <trkpt lat="43.2594501972" lon="-4.2718598340">
        <ele>200.09</ele>
        <time>2018-05-19T10:41:09Z</time>
      </trkpt>
      <trkpt lat="43.2593160030" lon="-4.2718300782">
        <ele>200.09</ele>
        <time>2018-05-19T10:41:11Z</time>
      </trkpt>
      <trkpt lat="43.2591981534" lon="-4.2717318423">
        <ele>200.09</ele>
        <time>2018-05-19T10:41:13Z</time>
      </trkpt>
      <trkpt lat="43.2590723410" lon="-4.2715931218">
        <ele>200.57</ele>
        <time>2018-05-19T10:41:16Z</time>
      </trkpt>
      <trkpt lat="43.2589999214" lon="-4.2715199478">
        <ele>200.09</ele>
        <time>2018-05-19T10:41:17Z</time>
      </trkpt>
      <trkpt lat="43.2588855084" lon="-4.2714105640">
        <ele>200.09</ele>
        <time>2018-05-19T10:41:19Z</time>
      </trkpt>
      <trkpt lat="43.2587665692" lon="-4.2713000905">
        <ele>200.09</ele>
        <time>2018-05-19T10:41:21Z</time>
      </trkpt>
      <trkpt lat="43.2586456183" lon="-4.2712042853">
        <ele>200.09</ele>
        <time>2018-05-19T10:41:23Z</time>
      </trkpt>
      <trkpt lat="43.2585265953" lon="-4.2711596936">
        <ele>200.09</ele>
        <time>2018-05-19T10:41:25Z</time>
      </trkpt>
      <trkpt lat="43.2583869528" lon="-4.2711390741">
        <ele>199.13</ele>
        <time>2018-05-19T10:41:27Z</time>
      </trkpt>
      <trkpt lat="43.2582500763" lon="-4.2711191252">
        <ele>199.13</ele>
        <time>2018-05-19T10:41:29Z</time>
      </trkpt>
      <trkpt lat="43.2581183966" lon="-4.2711235676">
        <ele>199.13</ele>
        <time>2018-05-19T10:41:31Z</time>
      </trkpt>
      <trkpt lat="43.2579843700" lon="-4.2711769603">
        <ele>199.13</ele>
        <time>2018-05-19T10:41:33Z</time>
      </trkpt>
      <trkpt lat="43.2578816079" lon="-4.2712345440">
        <ele>199.13</ele>
        <time>2018-05-19T10:41:35Z</time>
      </trkpt>
      <trkpt lat="43.2577720564" lon="-4.2712906189">
        <ele>200.57</ele>
        <time>2018-05-19T10:41:37Z</time>
      </trkpt>
      <trkpt lat="43.2576646842" lon="-4.2713330314">
        <ele>200.57</ele>
        <time>2018-05-19T10:41:39Z</time>
      </trkpt>
      <trkpt lat="43.2575567253" lon="-4.2713625357">
        <ele>201.05</ele>
        <time>2018-05-19T10:41:41Z</time>
      </trkpt>
      <trkpt lat="43.2574413903" lon="-4.2713527288">
        <ele>201.05</ele>
        <time>2018-05-19T10:41:43Z</time>
      </trkpt>
      <trkpt lat="43.2573286537" lon="-4.2713134177">
        <ele>201.53</ele>
        <time>2018-05-19T10:41:45Z</time>
      </trkpt>
      <trkpt lat="43.2572499476" lon="-4.2712430097">
        <ele>202.49</ele>
        <time>2018-05-19T10:41:47Z</time>
      </trkpt>
      <trkpt lat="43.2571844850" lon="-4.2711416725">
        <ele>202.98</ele>
        <time>2018-05-19T10:41:49Z</time>
      </trkpt>
      <trkpt lat="43.2571280748" lon="-4.2710344680">
        <ele>203.46</ele>
        <time>2018-05-19T10:41:51Z</time>
      </trkpt>
      <trkpt lat="43.2570807170" lon="-4.2709210608">
        <ele>203.94</ele>
        <time>2018-05-19T10:41:53Z</time>
      </trkpt>
      <trkpt lat="43.2570348680" lon="-4.2707797419">
        <ele>203.94</ele>
        <time>2018-05-19T10:41:55Z</time>
      </trkpt>
      <trkpt lat="43.2569814753" lon="-4.2706126906">
        <ele>203.94</ele>
        <time>2018-05-19T10:41:58Z</time>
      </trkpt>
      <trkpt lat="43.2569419965" lon="-4.2704784963">
        <ele>203.94</ele>
        <time>2018-05-19T10:42:00Z</time>
      </trkpt>
      <trkpt lat="43.2569298428" lon="-4.2703530192">
        <ele>204.90</ele>
        <time>2018-05-19T10:42:02Z</time>
      </trkpt>
      <trkpt lat="43.2569736801" lon="-4.2702320684">
        <ele>204.90</ele>
        <time>2018-05-19T10:42:04Z</time>
      </trkpt>
      <trkpt lat="43.2570775319" lon="-4.2701137159">
        <ele>203.46</ele>
        <time>2018-05-19T10:42:07Z</time>
      </trkpt>
      <trkpt lat="43.2571848202" lon="-4.2700049188">
        <ele>202.98</ele>
        <time>2018-05-19T10:42:09Z</time>
      </trkpt>
      <trkpt lat="43.2572640292" lon="-4.2699144781">
        <ele>202.01</ele>
        <time>2018-05-19T10:42:10Z</time>
      </trkpt>
      <trkpt lat="43.2573707309" lon="-4.2697862349">
        <ele>201.53</ele>
        <time>2018-05-19T10:42:12Z</time>
      </trkpt>
      <trkpt lat="43.2574771810" lon="-4.2696629371">
        <ele>200.57</ele>
        <time>2018-05-19T10:42:14Z</time>
      </trkpt>
      <trkpt lat="43.2575833797" lon="-4.2695362028">
        <ele>200.57</ele>
        <time>2018-05-19T10:42:16Z</time>
      </trkpt>
      <trkpt lat="43.2576871477" lon="-4.2694082111">
        <ele>200.09</ele>
        <time>2018-05-19T10:42:18Z</time>
      </trkpt>
      <trkpt lat="43.2577965315" lon="-4.2692738492">
        <ele>200.09</ele>
        <time>2018-05-19T10:42:20Z</time>
      </trkpt>
      <trkpt lat="43.2578883134" lon="-4.2691548262">
        <ele>199.13</ele>
        <time>2018-05-19T10:42:22Z</time>
      </trkpt>
      <trkpt lat="43.2579781674" lon="-4.2690387368">
        <ele>198.65</ele>
        <time>2018-05-19T10:42:24Z</time>
      </trkpt>
      <trkpt lat="43.2580695301" lon="-4.2689080629">
        <ele>198.65</ele>
        <time>2018-05-19T10:42:26Z</time>
      </trkpt>
      <trkpt lat="43.2581534330" lon="-4.2687783111">
        <ele>198.65</ele>
        <time>2018-05-19T10:42:28Z</time>
      </trkpt>
      <trkpt lat="43.2582369167" lon="-4.2686435301">
        <ele>199.13</ele>
        <time>2018-05-19T10:42:30Z</time>
      </trkpt>
      <trkpt lat="43.2583235018" lon="-4.2684975173">
        <ele>198.17</ele>
        <time>2018-05-19T10:42:32Z</time>
      </trkpt>
      <trkpt lat="43.2584062312" lon="-4.2683513369">
        <ele>198.17</ele>
        <time>2018-05-19T10:42:34Z</time>
      </trkpt>
      <trkpt lat="43.2584784832" lon="-4.2682302184">
        <ele>198.17</ele>
        <time>2018-05-19T10:42:36Z</time>
      </trkpt>
      <trkpt lat="43.2585591171" lon="-4.2680943478">
        <ele>198.17</ele>
        <time>2018-05-19T10:42:38Z</time>
      </trkpt>
      <trkpt lat="43.2586384937" lon="-4.2679547053">
        <ele>198.17</ele>
        <time>2018-05-19T10:42:40Z</time>
      </trkpt>
      <trkpt lat="43.2587240729" lon="-4.2678162362">
        <ele>198.17</ele>
        <time>2018-05-19T10:42:42Z</time>
      </trkpt>
      <trkpt lat="43.2588183694" lon="-4.2676580697">
        <ele>198.17</ele>
        <time>2018-05-19T10:42:44Z</time>
      </trkpt>
      <trkpt lat="43.2588841673" lon="-4.2675398011">
        <ele>198.17</ele>
        <time>2018-05-19T10:42:46Z</time>
      </trkpt>
      <trkpt lat="43.2589631248" lon="-4.2673873343">
        <ele>198.17</ele>
        <time>2018-05-19T10:42:48Z</time>
      </trkpt>
      <trkpt lat="43.2590418309" lon="-4.2672367953">
        <ele>197.69</ele>
        <time>2018-05-19T10:42:50Z</time>
      </trkpt>
      <trkpt lat="43.2591234706" lon="-4.2671031039">
        <ele>197.69</ele>
        <time>2018-05-19T10:42:52Z</time>
      </trkpt>
      <trkpt lat="43.2592073735" lon="-4.2669574264">
        <ele>197.69</ele>
        <time>2018-05-19T10:42:54Z</time>
      </trkpt>
      <trkpt lat="43.2592802960" lon="-4.2668225616">
        <ele>196.73</ele>
        <time>2018-05-19T10:42:56Z</time>
      </trkpt>
      <trkpt lat="43.2593595888" lon="-4.2666897923">
        <ele>196.73</ele>
        <time>2018-05-19T10:42:58Z</time>
      </trkpt>
      <trkpt lat="43.2594279852" lon="-4.2665643990">
        <ele>196.73</ele>
        <time>2018-05-19T10:43:00Z</time>
      </trkpt>
      <trkpt lat="43.2595003210" lon="-4.2664354853">
        <ele>196.73</ele>
        <time>2018-05-19T10:43:02Z</time>
      </trkpt>
      <trkpt lat="43.2595478464" lon="-4.2662911490">
        <ele>196.73</ele>
        <time>2018-05-19T10:43:04Z</time>
      </trkpt>
      <trkpt lat="43.2595866546" lon="-4.2661623191">
        <ele>196.73</ele>
        <time>2018-05-19T10:43:06Z</time>
      </trkpt>
      <trkpt lat="43.2596414723" lon="-4.2660521809">
        <ele>196.73</ele>
        <time>2018-05-19T10:43:08Z</time>
      </trkpt>
      <trkpt lat="43.2596595772" lon="-4.2659268714">
        <ele>196.73</ele>
        <time>2018-05-19T10:43:10Z</time>
      </trkpt>
      <trkpt lat="43.2596190926" lon="-4.2657996342">
        <ele>196.73</ele>
        <time>2018-05-19T10:43:12Z</time>
      </trkpt>
      <trkpt lat="43.2595983893" lon="-4.2656662781">
        <ele>196.73</ele>
        <time>2018-05-19T10:43:14Z</time>
      </trkpt>
      <trkpt lat="43.2596254628" lon="-4.2655285634">
        <ele>196.73</ele>
        <time>2018-05-19T10:43:16Z</time>
      </trkpt>
      <trkpt lat="43.2596400473" lon="-4.2653966323">
        <ele>196.73</ele>
        <time>2018-05-19T10:43:18Z</time>
      </trkpt>
      <trkpt lat="43.2596390415" lon="-4.2652592529">
        <ele>198.17</ele>
        <time>2018-05-19T10:43:20Z</time>
      </trkpt>
      <trkpt lat="43.2596408855" lon="-4.2651079595">
        <ele>198.17</ele>
        <time>2018-05-19T10:43:22Z</time>
      </trkpt>
      <trkpt lat="43.2596768439" lon="-4.2649849132">
        <ele>198.17</ele>
        <time>2018-05-19T10:43:24Z</time>
      </trkpt>
      <trkpt lat="43.2597324997" lon="-4.2648535687">
        <ele>198.17</ele>
        <time>2018-05-19T10:43:26Z</time>
      </trkpt>
      <trkpt lat="43.2597648539" lon="-4.2647399940">
        <ele>198.65</ele>
        <time>2018-05-19T10:43:28Z</time>
      </trkpt>
      <trkpt lat="43.2597939391" lon="-4.2645773850">
        <ele>199.61</ele>
        <time>2018-05-19T10:43:31Z</time>
      </trkpt>
      <trkpt lat="43.2598272990" lon="-4.2644053046">
        <ele>199.13</ele>
        <time>2018-05-19T10:43:34Z</time>
      </trkpt>
      <trkpt lat="43.2598570548" lon="-4.2642258480">
        <ele>199.13</ele>
        <time>2018-05-19T10:43:37Z</time>
      </trkpt>
      <trkpt lat="43.2598836254" lon="-4.2640887201">
        <ele>199.13</ele>
        <time>2018-05-19T10:43:39Z</time>
      </trkpt>
      <trkpt lat="43.2599121239" lon="-4.2639437132">
        <ele>197.21</ele>
        <time>2018-05-19T10:43:41Z</time>
      </trkpt>
      <trkpt lat="43.2599266246" lon="-4.2638219241">
        <ele>197.21</ele>
        <time>2018-05-19T10:43:43Z</time>
      </trkpt>
      <trkpt lat="43.2599542011" lon="-4.2636798508">
        <ele>197.21</ele>
        <time>2018-05-19T10:43:45Z</time>
      </trkpt>
      <trkpt lat="43.2599863876" lon="-4.2635310721">
        <ele>197.21</ele>
        <time>2018-05-19T10:43:47Z</time>
      </trkpt>
      <trkpt lat="43.2600186579" lon="-4.2633866519">
        <ele>197.21</ele>
        <time>2018-05-19T10:43:49Z</time>
      </trkpt>
      <trkpt lat="43.2600501738" lon="-4.2632391304">
        <ele>197.21</ele>
        <time>2018-05-19T10:43:51Z</time>
      </trkpt>
      <trkpt lat="43.2600806840" lon="-4.2630716600">
        <ele>199.13</ele>
        <time>2018-05-19T10:43:54Z</time>
      </trkpt>
      <trkpt lat="43.2601017226" lon="-4.2629043572">
        <ele>200.57</ele>
        <time>2018-05-19T10:43:57Z</time>
      </trkpt>
      <trkpt lat="43.2600925863" lon="-4.2627193686">
        <ele>200.57</ele>
        <time>2018-05-19T10:44:00Z</time>
      </trkpt>
      <trkpt lat="43.2600767445" lon="-4.2625646386">
        <ele>201.05</ele>
        <time>2018-05-19T10:44:02Z</time>
      </trkpt>
      <trkpt lat="43.2600554544" lon="-4.2624399159">
        <ele>199.13</ele>
        <time>2018-05-19T10:44:04Z</time>
      </trkpt>
      <trkpt lat="43.2600370143" lon="-4.2622856051">
        <ele>199.13</ele>
        <time>2018-05-19T10:44:06Z</time>
      </trkpt>
      <trkpt lat="43.2600385230" lon="-4.2621323839">
        <ele>199.13</ele>
        <time>2018-05-19T10:44:08Z</time>
      </trkpt>
      <trkpt lat="43.2600681949" lon="-4.2619598843">
        <ele>198.17</ele>
        <time>2018-05-19T10:44:10Z</time>
      </trkpt>
      <trkpt lat="43.2600939274" lon="-4.2617938388">
        <ele>198.17</ele>
        <time>2018-05-19T10:44:12Z</time>
      </trkpt>
      <trkpt lat="43.2601012196" lon="-4.2616124544">
        <ele>197.69</ele>
        <time>2018-05-19T10:44:14Z</time>
      </trkpt>
      <trkpt lat="43.2600892335" lon="-4.2614490911">
        <ele>197.21</ele>
        <time>2018-05-19T10:44:16Z</time>
      </trkpt>
      <trkpt lat="43.2600664347" lon="-4.2612865660">
        <ele>197.21</ele>
        <time>2018-05-19T10:44:18Z</time>
      </trkpt>
      <trkpt lat="43.2600333262" lon="-4.2611247115">
        <ele>197.21</ele>
        <time>2018-05-19T10:44:20Z</time>
      </trkpt>
      <trkpt lat="43.2599957753" lon="-4.2609727476">
        <ele>197.21</ele>
        <time>2018-05-19T10:44:22Z</time>
      </trkpt>
      <trkpt lat="43.2599529438" lon="-4.2608045228">
        <ele>197.21</ele>
        <time>2018-05-19T10:44:24Z</time>
      </trkpt>
      <trkpt lat="43.2599200867" lon="-4.2606657185">
        <ele>197.69</ele>
        <time>2018-05-19T10:44:26Z</time>
      </trkpt>
      <trkpt lat="43.2598849665" lon="-4.2605130002">
        <ele>197.21</ele>
        <time>2018-05-19T10:44:28Z</time>
      </trkpt>
      <trkpt lat="43.2598506007" lon="-4.2603573482">
        <ele>197.21</ele>
        <time>2018-05-19T10:44:30Z</time>
      </trkpt>
      <trkpt lat="43.2598365191" lon="-4.2601847649">
        <ele>197.21</ele>
        <time>2018-05-19T10:44:32Z</time>
      </trkpt>
      <trkpt lat="43.2598359324" lon="-4.2600034643">
        <ele>197.21</ele>
        <time>2018-05-19T10:44:34Z</time>
      </trkpt>
      <trkpt lat="43.2598303165" lon="-4.2598302104">
        <ele>197.21</ele>
        <time>2018-05-19T10:44:36Z</time>
      </trkpt>
      <trkpt lat="43.2598454040" lon="-4.2596902326">
        <ele>197.21</ele>
        <time>2018-05-19T10:44:38Z</time>
      </trkpt>
      <trkpt lat="43.2598888222" lon="-4.2595396936">
        <ele>197.21</ele>
        <time>2018-05-19T10:44:40Z</time>
      </trkpt>
      <trkpt lat="43.2599384431" lon="-4.2593902443">
        <ele>197.21</ele>
        <time>2018-05-19T10:44:42Z</time>
      </trkpt>
      <trkpt lat="43.2599765807" lon="-4.2592340056">
        <ele>196.73</ele>
        <time>2018-05-19T10:44:44Z</time>
      </trkpt>
      <trkpt lat="43.2600037381" lon="-4.2590577342">
        <ele>196.73</ele>
        <time>2018-05-19T10:44:46Z</time>
      </trkpt>
      <trkpt lat="43.2600160595" lon="-4.2589128949">
        <ele>197.21</ele>
        <time>2018-05-19T10:44:48Z</time>
      </trkpt>
      <trkpt lat="43.2600129582" lon="-4.2587537225">
        <ele>197.21</ele>
        <time>2018-05-19T10:44:50Z</time>
      </trkpt>
      <trkpt lat="43.2599964458" lon="-4.2586027645">
        <ele>198.17</ele>
        <time>2018-05-19T10:44:52Z</time>
      </trkpt>
      <trkpt lat="43.2599677797" lon="-4.2584570870">
        <ele>198.17</ele>
        <time>2018-05-19T10:44:54Z</time>
      </trkpt>
      <trkpt lat="43.2599309832" lon="-4.2583129182">
        <ele>198.65</ele>
        <time>2018-05-19T10:44:56Z</time>
      </trkpt>
      <trkpt lat="43.2598786801" lon="-4.2581938114">
        <ele>199.13</ele>
        <time>2018-05-19T10:44:58Z</time>
      </trkpt>
      <trkpt lat="43.2598334178" lon="-4.2580779735">
        <ele>199.13</ele>
        <time>2018-05-19T10:45:00Z</time>
      </trkpt>
      <trkpt lat="43.2597967051" lon="-4.2579328828">
        <ele>199.13</ele>
        <time>2018-05-19T10:45:02Z</time>
      </trkpt>
      <trkpt lat="43.2597745769" lon="-4.2577789910">
        <ele>199.13</ele>
        <time>2018-05-19T10:45:04Z</time>
      </trkpt>
      <trkpt lat="43.2597555500" lon="-4.2576437909">
        <ele>199.13</ele>
        <time>2018-05-19T10:45:06Z</time>
      </trkpt>
      <trkpt lat="43.2597350143" lon="-4.2574981134">
        <ele>199.13</ele>
        <time>2018-05-19T10:45:08Z</time>
      </trkpt>
      <trkpt lat="43.2597109582" lon="-4.2573425453">
        <ele>199.13</ele>
        <time>2018-05-19T10:45:10Z</time>
      </trkpt>
      <trkpt lat="43.2596854772" lon="-4.2571723927">
        <ele>200.09</ele>
        <time>2018-05-19T10:45:12Z</time>
      </trkpt>
      <trkpt lat="43.2596607506" lon="-4.2570482567">
        <ele>200.09</ele>
        <time>2018-05-19T10:45:14Z</time>
      </trkpt>
      <trkpt lat="43.2596458308" lon="-4.2569027469">
        <ele>200.09</ele>
        <time>2018-05-19T10:45:16Z</time>
      </trkpt>
      <trkpt lat="43.2596688811" lon="-4.2567556445">
        <ele>200.57</ele>
        <time>2018-05-19T10:45:18Z</time>
      </trkpt>
      <trkpt lat="43.2597164065" lon="-4.2566477694">
        <ele>200.57</ele>
        <time>2018-05-19T10:45:20Z</time>
      </trkpt>
      <trkpt lat="43.2597909216" lon="-4.2565639503">
        <ele>201.05</ele>
        <time>2018-05-19T10:45:22Z</time>
      </trkpt>
      <trkpt lat="43.2599116210" lon="-4.2565163411">
        <ele>202.01</ele>
        <time>2018-05-19T10:45:25Z</time>
      </trkpt>
      <trkpt lat="43.2600281294" lon="-4.2565050256">
        <ele>202.49</ele>
        <time>2018-05-19T10:45:28Z</time>
      </trkpt>
      <trkpt lat="43.2601430453" lon="-4.2564591765">
        <ele>202.98</ele>
        <time>2018-05-19T10:45:31Z</time>
      </trkpt>
      <trkpt lat="43.2602582127" lon="-4.2563826498">
        <ele>202.98</ele>
        <time>2018-05-19T10:45:34Z</time>
      </trkpt>
      <trkpt lat="43.2603592984" lon="-4.2562856711">
        <ele>203.94</ele>
        <time>2018-05-19T10:45:37Z</time>
      </trkpt>
      <trkpt lat="43.2604437042" lon="-4.2561552487">
        <ele>204.42</ele>
        <time>2018-05-19T10:45:40Z</time>
      </trkpt>
      <trkpt lat="43.2604600489" lon="-4.2560249940">
        <ele>204.90</ele>
        <time>2018-05-19T10:45:43Z</time>
      </trkpt>
      <trkpt lat="43.2604700234" lon="-4.2558897939">
        <ele>205.86</ele>
        <time>2018-05-19T10:45:46Z</time>
      </trkpt>
      <trkpt lat="43.2604791597" lon="-4.2557376623">
        <ele>206.82</ele>
        <time>2018-05-19T10:45:50Z</time>
      </trkpt>
      <trkpt lat="43.2604922354" lon="-4.2555977684">
        <ele>208.26</ele>
        <time>2018-05-19T10:45:54Z</time>
      </trkpt>
      <trkpt lat="43.2605121844" lon="-4.2554343212">
        <ele>209.22</ele>
        <time>2018-05-19T10:45:58Z</time>
      </trkpt>
      <trkpt lat="43.2605421077" lon="-4.2552791722">
        <ele>210.19</ele>
        <time>2018-05-19T10:46:02Z</time>
      </trkpt>
      <trkpt lat="43.2605753839" lon="-4.2551305611">
        <ele>210.67</ele>
        <time>2018-05-19T10:46:06Z</time>
      </trkpt>
      <trkpt lat="43.2606152818" lon="-4.2549521104">
        <ele>211.15</ele>
        <time>2018-05-19T10:46:10Z</time>
      </trkpt>
      <trkpt lat="43.2606464624" lon="-4.2548186705">
        <ele>211.63</ele>
        <time>2018-05-19T10:46:13Z</time>
      </trkpt>
      <trkpt lat="43.2606973406" lon="-4.2546765972">
        <ele>213.07</ele>
        <time>2018-05-19T10:46:17Z</time>
      </trkpt>
      <trkpt lat="43.2607700955" lon="-4.2545294110">
        <ele>214.03</ele>
        <time>2018-05-19T10:46:21Z</time>
      </trkpt>
      <trkpt lat="43.2608729415" lon="-4.2544087116">
        <ele>214.51</ele>
        <time>2018-05-19T10:46:25Z</time>
      </trkpt>
      <trkpt lat="43.2609752007" lon="-4.2542902753">
        <ele>215.47</ele>
        <time>2018-05-19T10:46:30Z</time>
      </trkpt>
      <trkpt lat="43.2610627078" lon="-4.2541922070">
        <ele>216.43</ele>
        <time>2018-05-19T10:46:34Z</time>
      </trkpt>
      <trkpt lat="43.2611625362" lon="-4.2540834937">
        <ele>217.40</ele>
        <time>2018-05-19T10:46:38Z</time>
      </trkpt>
      <trkpt lat="43.2612462714" lon="-4.2539824080">
        <ele>217.88</ele>
        <time>2018-05-19T10:46:42Z</time>
      </trkpt>
      <trkpt lat="43.2613214571" lon="-4.2538417596">
        <ele>218.36</ele>
        <time>2018-05-19T10:46:46Z</time>
      </trkpt>
      <trkpt lat="43.2613735087" lon="-4.2537175398">
        <ele>218.84</ele>
        <time>2018-05-19T10:46:49Z</time>
      </trkpt>
      <trkpt lat="43.2614210341" lon="-4.2535774782">
        <ele>218.36</ele>
        <time>2018-05-19T10:46:53Z</time>
      </trkpt>
      <trkpt lat="43.2614367921" lon="-4.2534283642">
        <ele>220.28</ele>
        <time>2018-05-19T10:46:57Z</time>
      </trkpt>
      <trkpt lat="43.2614334393" lon="-4.2532901466">
        <ele>219.80</ele>
        <time>2018-05-19T10:47:00Z</time>
      </trkpt>
      <trkpt lat="43.2614390552" lon="-4.2531435471">
        <ele>219.80</ele>
        <time>2018-05-19T10:47:03Z</time>
      </trkpt>
      <trkpt lat="43.2614569925" lon="-4.2529697903">
        <ele>218.84</ele>
        <time>2018-05-19T10:47:06Z</time>
      </trkpt>
      <trkpt lat="43.2614561543" lon="-4.2527938541">
        <ele>218.84</ele>
        <time>2018-05-19T10:47:09Z</time>
      </trkpt>
      <trkpt lat="43.2614460122" lon="-4.2526359390">
        <ele>218.36</ele>
        <time>2018-05-19T10:47:11Z</time>
      </trkpt>
      <trkpt lat="43.2614415698" lon="-4.2524463404">
        <ele>218.36</ele>
        <time>2018-05-19T10:47:14Z</time>
      </trkpt>
      <trkpt lat="43.2614465151" lon="-4.2522428278">
        <ele>218.36</ele>
        <time>2018-05-19T10:47:17Z</time>
      </trkpt>
      <trkpt lat="43.2614656258" lon="-4.2520458531">
        <ele>219.32</ele>
        <time>2018-05-19T10:47:20Z</time>
      </trkpt>
      <trkpt lat="43.2615084574" lon="-4.2519226391">
        <ele>219.32</ele>
        <time>2018-05-19T10:47:22Z</time>
      </trkpt>
      <trkpt lat="43.2616009098" lon="-4.2517944798">
        <ele>219.80</ele>
        <time>2018-05-19T10:47:25Z</time>
      </trkpt>
      <trkpt lat="43.2617170829" lon="-4.2517039552">
        <ele>220.28</ele>
        <time>2018-05-19T10:47:28Z</time>
      </trkpt>
      <trkpt lat="43.2618015725" lon="-4.2516380735">
        <ele>220.28</ele>
        <time>2018-05-19T10:47:30Z</time>
      </trkpt>
      <trkpt lat="43.2618977968" lon="-4.2515448667">
        <ele>218.84</ele>
        <time>2018-05-19T10:47:32Z</time>
      </trkpt>
      <trkpt lat="43.2619682886" lon="-4.2514228262">
        <ele>218.36</ele>
        <time>2018-05-19T10:47:34Z</time>
      </trkpt>
      <trkpt lat="43.2620104495" lon="-4.2512793280">
        <ele>218.36</ele>
        <time>2018-05-19T10:47:36Z</time>
      </trkpt>
      <trkpt lat="43.2620446477" lon="-4.2511228379">
        <ele>218.36</ele>
        <time>2018-05-19T10:47:38Z</time>
      </trkpt>
      <trkpt lat="43.2620904967" lon="-4.2509698682">
        <ele>217.88</ele>
        <time>2018-05-19T10:47:40Z</time>
      </trkpt>
      <trkpt lat="43.2621647604" lon="-4.2508098576">
        <ele>215.95</ele>
        <time>2018-05-19T10:47:42Z</time>
      </trkpt>
      <trkpt lat="43.2622474059" lon="-4.2506708857">
        <ele>215.47</ele>
        <time>2018-05-19T10:47:44Z</time>
      </trkpt>
      <trkpt lat="43.2623210829" lon="-4.2505520303">
        <ele>215.47</ele>
        <time>2018-05-19T10:47:46Z</time>
      </trkpt>
      <trkpt lat="43.2623956818" lon="-4.2504122201">
        <ele>215.47</ele>
        <time>2018-05-19T10:47:48Z</time>
      </trkpt>
      <trkpt lat="43.2624360826" lon="-4.2502540536">
        <ele>215.47</ele>
        <time>2018-05-19T10:47:50Z</time>
      </trkpt>
      <trkpt lat="43.2624061592" lon="-4.2501026765">
        <ele>214.99</ele>
        <time>2018-05-19T10:47:52Z</time>
      </trkpt>
      <trkpt lat="43.2623523474" lon="-4.2499752715">
        <ele>215.95</ele>
        <time>2018-05-19T10:47:54Z</time>
      </trkpt>
      <trkpt lat="43.2623072527" lon="-4.2498436756">
        <ele>216.43</ele>
        <time>2018-05-19T10:47:56Z</time>
      </trkpt>
      <trkpt lat="43.2622656785" lon="-4.2497046199">
        <ele>216.43</ele>
        <time>2018-05-19T10:47:58Z</time>
      </trkpt>
      <trkpt lat="43.2622011378" lon="-4.2495507281">
        <ele>214.51</ele>
        <time>2018-05-19T10:48:00Z</time>
      </trkpt>
      <trkpt lat="43.2621137146" lon="-4.2493700143">
        <ele>212.59</ele>
        <time>2018-05-19T10:48:02Z</time>
      </trkpt>
      <trkpt lat="43.2619882375" lon="-4.2491899710">
        <ele>211.15</ele>
        <time>2018-05-19T10:48:04Z</time>
      </trkpt>
      <trkpt lat="43.2619102020" lon="-4.2491171323">
        <ele>210.19</ele>
        <time>2018-05-19T10:48:05Z</time>
      </trkpt>
      <trkpt lat="43.2617714815" lon="-4.2490349058">
        <ele>209.70</ele>
        <time>2018-05-19T10:48:07Z</time>
      </trkpt>
      <trkpt lat="43.2616062742" lon="-4.2489548586">
        <ele>209.70</ele>
        <time>2018-05-19T10:48:09Z</time>
      </trkpt>
      <trkpt lat="43.2614605967" lon="-4.2488448881">
        <ele>208.74</ele>
        <time>2018-05-19T10:48:11Z</time>
      </trkpt>
      <trkpt lat="43.2613082137" lon="-4.2487138789">
        <ele>208.74</ele>
        <time>2018-05-19T10:48:13Z</time>
      </trkpt>
      <trkpt lat="43.2612288371" lon="-4.2486390285">
        <ele>208.26</ele>
        <time>2018-05-19T10:48:14Z</time>
      </trkpt>
      <trkpt lat="43.2611476164" lon="-4.2485607415">
        <ele>208.26</ele>
        <time>2018-05-19T10:48:15Z</time>
      </trkpt>
      <trkpt lat="43.2610143442" lon="-4.2484423891">
        <ele>208.26</ele>
        <time>2018-05-19T10:48:17Z</time>
      </trkpt>
      <trkpt lat="43.2609441038" lon="-4.2483724840">
        <ele>207.78</ele>
        <time>2018-05-19T10:48:18Z</time>
      </trkpt>
      <trkpt lat="43.2608022820" lon="-4.2482383735">
        <ele>206.34</ele>
        <time>2018-05-19T10:48:20Z</time>
      </trkpt>
      <trkpt lat="43.2606443670" lon="-4.2481076997">
        <ele>205.86</ele>
        <time>2018-05-19T10:48:22Z</time>
      </trkpt>
      <trkpt lat="43.2605681755" lon="-4.2480497807">
        <ele>205.86</ele>
        <time>2018-05-19T10:48:23Z</time>
      </trkpt>
      <trkpt lat="43.2604122721" lon="-4.2479396425">
        <ele>205.38</ele>
        <time>2018-05-19T10:48:25Z</time>
      </trkpt>
      <trkpt lat="43.2603225857" lon="-4.2478848249">
        <ele>205.38</ele>
        <time>2018-05-19T10:48:26Z</time>
      </trkpt>
      <trkpt lat="43.2602367550" lon="-4.2478373833">
        <ele>204.42</ele>
        <time>2018-05-19T10:48:27Z</time>
      </trkpt>
      <trkpt lat="43.2600949332" lon="-4.2477622814">
        <ele>203.94</ele>
        <time>2018-05-19T10:48:29Z</time>
      </trkpt>
      <trkpt lat="43.2599446457" lon="-4.2476721760">
        <ele>203.94</ele>
        <time>2018-05-19T10:48:31Z</time>
      </trkpt>
      <trkpt lat="43.2598201744" lon="-4.2475376464">
        <ele>203.46</ele>
        <time>2018-05-19T10:48:33Z</time>
      </trkpt>
      <trkpt lat="43.2596847229" lon="-4.2473889515">
        <ele>202.49</ele>
        <time>2018-05-19T10:48:35Z</time>
      </trkpt>
      <trkpt lat="43.2596099563" lon="-4.2473063059">
        <ele>202.49</ele>
        <time>2018-05-19T10:48:36Z</time>
      </trkpt>
      <trkpt lat="43.2595300768" lon="-4.2472311202">
        <ele>202.01</ele>
        <time>2018-05-19T10:48:37Z</time>
      </trkpt>
      <trkpt lat="43.2594503649" lon="-4.2471686751">
        <ele>201.53</ele>
        <time>2018-05-19T10:48:38Z</time>
      </trkpt>
      <trkpt lat="43.2593671326" lon="-4.2471104208">
        <ele>201.53</ele>
        <time>2018-05-19T10:48:39Z</time>
      </trkpt>
      <trkpt lat="43.2592341118" lon="-4.2470261827">
        <ele>201.53</ele>
        <time>2018-05-19T10:48:41Z</time>
      </trkpt>
      <trkpt lat="43.2590860035" lon="-4.2469412740">
        <ele>201.53</ele>
        <time>2018-05-19T10:48:43Z</time>
      </trkpt>
      <trkpt lat="43.2589451876" lon="-4.2468408588">
        <ele>201.53</ele>
        <time>2018-05-19T10:48:45Z</time>
      </trkpt>
      <trkpt lat="43.2588040363" lon="-4.2467371747">
        <ele>202.98</ele>
        <time>2018-05-19T10:48:47Z</time>
      </trkpt>
      <trkpt lat="43.2586467080" lon="-4.2466598097">
        <ele>202.98</ele>
        <time>2018-05-19T10:48:49Z</time>
      </trkpt>
      <trkpt lat="43.2585105021" lon="-4.2466333229">
        <ele>203.46</ele>
        <time>2018-05-19T10:48:51Z</time>
      </trkpt>
      <trkpt lat="43.2583800796" lon="-4.2465459835">
        <ele>203.46</ele>
        <time>2018-05-19T10:48:53Z</time>
      </trkpt>
      <trkpt lat="43.2582950033" lon="-4.2464466579">
        <ele>203.46</ele>
        <time>2018-05-19T10:48:55Z</time>
      </trkpt>
      <trkpt lat="43.2581759803" lon="-4.2464210093">
        <ele>203.46</ele>
        <time>2018-05-19T10:48:57Z</time>
      </trkpt>
      <trkpt lat="43.2580452226" lon="-4.2464105319">
        <ele>203.94</ele>
        <time>2018-05-19T10:48:59Z</time>
      </trkpt>
      <trkpt lat="43.2579117827" lon="-4.2463842127">
        <ele>203.94</ele>
        <time>2018-05-19T10:49:01Z</time>
      </trkpt>
      <trkpt lat="43.2578027342" lon="-4.2464417964">
        <ele>204.42</ele>
        <time>2018-05-19T10:49:03Z</time>
      </trkpt>
      <trkpt lat="43.2576930150" lon="-4.2465257831">
        <ele>204.42</ele>
        <time>2018-05-19T10:49:05Z</time>
      </trkpt>
      <trkpt lat="43.2575698849" lon="-4.2465645075">
        <ele>204.90</ele>
        <time>2018-05-19T10:49:07Z</time>
      </trkpt>
      <trkpt lat="43.2574399654" lon="-4.2465725541">
        <ele>204.90</ele>
        <time>2018-05-19T10:49:09Z</time>
      </trkpt>
      <trkpt lat="43.2573061902" lon="-4.2465663515">
        <ele>204.90</ele>
        <time>2018-05-19T10:49:11Z</time>
      </trkpt>
      <trkpt lat="43.2571724989" lon="-4.2465448100">
        <ele>204.90</ele>
        <time>2018-05-19T10:49:13Z</time>
      </trkpt>
      <trkpt lat="43.2570649590" lon="-4.2465279624">
        <ele>204.90</ele>
        <time>2018-05-19T10:49:15Z</time>
      </trkpt>
      <trkpt lat="43.2569456846" lon="-4.2465319857">
        <ele>204.90</ele>
        <time>2018-05-19T10:49:17Z</time>
      </trkpt>
      <trkpt lat="43.2568331156" lon="-4.2465583049">
        <ele>205.38</ele>
        <time>2018-05-19T10:49:19Z</time>
      </trkpt>
      <trkpt lat="43.2567298505" lon="-4.2466029804">
        <ele>205.38</ele>
        <time>2018-05-19T10:49:21Z</time>
      </trkpt>
      <trkpt lat="43.2566085644" lon="-4.2466567922">
        <ele>205.38</ele>
        <time>2018-05-19T10:49:23Z</time>
      </trkpt>
      <trkpt lat="43.2565039583" lon="-4.2466652580">
        <ele>205.86</ele>
        <time>2018-05-19T10:49:25Z</time>
      </trkpt>
      <trkpt lat="43.2563879527" lon="-4.2466356698">
        <ele>205.86</ele>
        <time>2018-05-19T10:49:27Z</time>
      </trkpt>
      <trkpt lat="43.2562800776" lon="-4.2465909105">
        <ele>205.86</ele>
        <time>2018-05-19T10:49:29Z</time>
      </trkpt>
      <trkpt lat="43.2561882120" lon="-4.2465580534">
        <ele>206.82</ele>
        <time>2018-05-19T10:49:31Z</time>
      </trkpt>
      <trkpt lat="43.2560586277" lon="-4.2465313151">
        <ele>207.30</ele>
        <time>2018-05-19T10:49:34Z</time>
      </trkpt>
      <trkpt lat="43.2559549436" lon="-4.2465025652">
        <ele>208.26</ele>
        <time>2018-05-19T10:49:37Z</time>
      </trkpt>
      <trkpt lat="43.2558440510" lon="-4.2464669421">
        <ele>208.74</ele>
        <time>2018-05-19T10:49:40Z</time>
      </trkpt>
      <trkpt lat="43.2557415403" lon="-4.2464432213">
        <ele>210.19</ele>
        <time>2018-05-19T10:49:43Z</time>
      </trkpt>
      <trkpt lat="43.2556372695" lon="-4.2464175727">
        <ele>211.15</ele>
        <time>2018-05-19T10:49:46Z</time>
      </trkpt>
      <trkpt lat="43.2555461582" lon="-4.2464029882">
        <ele>211.63</ele>
        <time>2018-05-19T10:49:49Z</time>
      </trkpt>
      <trkpt lat="43.2554522809" lon="-4.2464055028">
        <ele>212.11</ele>
        <time>2018-05-19T10:49:52Z</time>
      </trkpt>
      <trkpt lat="43.2553340960" lon="-4.2464247812">
        <ele>213.07</ele>
        <time>2018-05-19T10:49:56Z</time>
      </trkpt>
      <trkpt lat="43.2552453317" lon="-4.2464609072">
        <ele>213.55</ele>
        <time>2018-05-19T10:49:59Z</time>
      </trkpt>
      <trkpt lat="43.2551575731" lon="-4.2465008888">
        <ele>214.51</ele>
        <time>2018-05-19T10:50:02Z</time>
      </trkpt>
      <trkpt lat="43.2550496981" lon="-4.2465484142">
        <ele>214.99</ele>
        <time>2018-05-19T10:50:06Z</time>
      </trkpt>
      <trkpt lat="43.2549626101" lon="-4.2465931736">
        <ele>215.95</ele>
        <time>2018-05-19T10:50:09Z</time>
      </trkpt>
      <trkpt lat="43.2548484486" lon="-4.2466405313">
        <ele>216.43</ele>
        <time>2018-05-19T10:50:13Z</time>
      </trkpt>
      <trkpt lat="43.2547466923" lon="-4.2466511764">
        <ele>216.91</ele>
        <time>2018-05-19T10:50:16Z</time>
      </trkpt>
      <trkpt lat="43.2546254061" lon="-4.2466111947">
        <ele>216.91</ele>
        <time>2018-05-19T10:50:20Z</time>
      </trkpt>
      <trkpt lat="43.2545382343" lon="-4.2465186585">
        <ele>216.91</ele>
        <time>2018-05-19T10:50:22Z</time>
      </trkpt>
      <trkpt lat="43.2544614561" lon="-4.2463869788">
        <ele>216.91</ele>
        <time>2018-05-19T10:50:25Z</time>
      </trkpt>
      <trkpt lat="43.2543993462" lon="-4.2462603282">
        <ele>216.91</ele>
        <time>2018-05-19T10:50:27Z</time>
      </trkpt>
      <trkpt lat="43.2543232385" lon="-4.2461004015">
        <ele>215.47</ele>
        <time>2018-05-19T10:50:30Z</time>
      </trkpt>
      <trkpt lat="43.2542444486" lon="-4.2459401395">
        <ele>215.47</ele>
        <time>2018-05-19T10:50:33Z</time>
      </trkpt>
      <trkpt lat="43.2541693468" lon="-4.2457979824">
        <ele>215.47</ele>
        <time>2018-05-19T10:50:35Z</time>
      </trkpt>
      <trkpt lat="43.2541017048" lon="-4.2456858326">
        <ele>215.47</ele>
        <time>2018-05-19T10:50:37Z</time>
      </trkpt>
      <trkpt lat="43.2540281117" lon="-4.2455609422">
        <ele>215.47</ele>
        <time>2018-05-19T10:50:39Z</time>
      </trkpt>
      <trkpt lat="43.2539601345" lon="-4.2454591021">
        <ele>215.47</ele>
        <time>2018-05-19T10:50:41Z</time>
      </trkpt>
      <trkpt lat="43.2538837753" lon="-4.2453468684">
        <ele>215.47</ele>
        <time>2018-05-19T10:50:43Z</time>
      </trkpt>
      <trkpt lat="43.2537985314" lon="-4.2452418432">
        <ele>215.47</ele>
        <time>2018-05-19T10:50:45Z</time>
      </trkpt>
      <trkpt lat="43.2536953501" lon="-4.2451676633">
        <ele>215.47</ele>
        <time>2018-05-19T10:50:47Z</time>
      </trkpt>
      <trkpt lat="43.2535932586" lon="-4.2451149411">
        <ele>215.47</ele>
        <time>2018-05-19T10:50:49Z</time>
      </trkpt>
      <trkpt lat="43.2534841262" lon="-4.2450680863">
        <ele>215.47</ele>
        <time>2018-05-19T10:50:51Z</time>
      </trkpt>
      <trkpt lat="43.2533801068" lon="-4.2450342234">
        <ele>215.47</ele>
        <time>2018-05-19T10:50:53Z</time>
      </trkpt>
      <trkpt lat="43.2532741595" lon="-4.2450043000">
        <ele>215.47</ele>
        <time>2018-05-19T10:50:55Z</time>
      </trkpt>
      <trkpt lat="43.2531548850" lon="-4.2449932359">
        <ele>215.47</ele>
        <time>2018-05-19T10:50:57Z</time>
      </trkpt>
      <trkpt lat="43.2530629355" lon="-4.2449936550">
        <ele>215.47</ele>
        <time>2018-05-19T10:50:59Z</time>
      </trkpt>
      <trkpt lat="43.2529652864" lon="-4.2450061440">
        <ele>215.47</ele>
        <time>2018-05-19T10:51:01Z</time>
      </trkpt>
      <trkpt lat="43.2528647035" lon="-4.2450232431">
        <ele>215.47</ele>
        <time>2018-05-19T10:51:03Z</time>
      </trkpt>
      <trkpt lat="43.2527632825" lon="-4.2450251710">
        <ele>216.43</ele>
        <time>2018-05-19T10:51:05Z</time>
      </trkpt>
      <trkpt lat="43.2526616100" lon="-4.2450263444">
        <ele>216.43</ele>
        <time>2018-05-19T10:51:07Z</time>
      </trkpt>
      <trkpt lat="43.2525593508" lon="-4.2450294457">
        <ele>216.91</ele>
        <time>2018-05-19T10:51:09Z</time>
      </trkpt>
      <trkpt lat="43.2524509728" lon="-4.2450283561">
        <ele>216.91</ele>
        <time>2018-05-19T10:51:11Z</time>
      </trkpt>
      <trkpt lat="43.2523541618" lon="-4.2450310383">
        <ele>216.91</ele>
        <time>2018-05-19T10:51:13Z</time>
      </trkpt>
      <trkpt lat="43.2522416767" lon="-4.2450400908">
        <ele>217.40</ele>
        <time>2018-05-19T10:51:15Z</time>
      </trkpt>
      <trkpt lat="43.2521020342" lon="-4.2450575251">
        <ele>217.40</ele>
        <time>2018-05-19T10:51:18Z</time>
      </trkpt>
      <trkpt lat="43.2520029601" lon="-4.2450645659">
        <ele>217.40</ele>
        <time>2018-05-19T10:51:20Z</time>
      </trkpt>
      <trkpt lat="43.2519052271" lon="-4.2450758815">
        <ele>218.36</ele>
        <time>2018-05-19T10:51:22Z</time>
      </trkpt>
      <trkpt lat="43.2517955918" lon="-4.2450788151">
        <ele>218.36</ele>
        <time>2018-05-19T10:51:24Z</time>
      </trkpt>
      <trkpt lat="43.2516624033" lon="-4.2450874485">
        <ele>218.84</ele>
        <time>2018-05-19T10:51:27Z</time>
      </trkpt>
      <trkpt lat="43.2515677717" lon="-4.2450854369">
        <ele>219.32</ele>
        <time>2018-05-19T10:51:29Z</time>
      </trkpt>
      <trkpt lat="43.2514342479" lon="-4.2450654879">
        <ele>220.28</ele>
        <time>2018-05-19T10:51:32Z</time>
      </trkpt>
      <trkpt lat="43.2513473276" lon="-4.2450208124">
        <ele>220.28</ele>
        <time>2018-05-19T10:51:34Z</time>
      </trkpt>
      <trkpt lat="43.2512700465" lon="-4.2449511588">
        <ele>220.28</ele>
        <time>2018-05-19T10:51:36Z</time>
      </trkpt>
      <trkpt lat="43.2511953637" lon="-4.2448607180">
        <ele>220.76</ele>
        <time>2018-05-19T10:51:38Z</time>
      </trkpt>
      <trkpt lat="43.2511350140" lon="-4.2447711993">
        <ele>221.72</ele>
        <time>2018-05-19T10:51:40Z</time>
      </trkpt>
      <trkpt lat="43.2510715630" lon="-4.2446514219">
        <ele>221.72</ele>
        <time>2018-05-19T10:51:42Z</time>
      </trkpt>
      <trkpt lat="43.2509993110" lon="-4.2445428763">
        <ele>222.20</ele>
        <time>2018-05-19T10:51:44Z</time>
      </trkpt>
      <trkpt lat="43.2508947887" lon="-4.2443909124">
        <ele>221.72</ele>
        <time>2018-05-19T10:51:47Z</time>
      </trkpt>
      <trkpt lat="43.2507957984" lon="-4.2442547064">
        <ele>221.72</ele>
        <time>2018-05-19T10:51:49Z</time>
      </trkpt>
      <trkpt lat="43.2506827265" lon="-4.2440930195">
        <ele>220.28</ele>
        <time>2018-05-19T10:51:51Z</time>
      </trkpt>
      <trkpt lat="43.2505891845" lon="-4.2439599987">
        <ele>218.84</ele>
        <time>2018-05-19T10:51:53Z</time>
      </trkpt>
      <trkpt lat="43.2504576724" lon="-4.2438064422">
        <ele>218.36</ele>
        <time>2018-05-19T10:51:55Z</time>
      </trkpt>
      <trkpt lat="43.2503237296" lon="-4.2436672188">
        <ele>217.40</ele>
        <time>2018-05-19T10:51:57Z</time>
      </trkpt>
      <trkpt lat="43.2501840871" lon="-4.2435452621">
        <ele>216.91</ele>
        <time>2018-05-19T10:51:59Z</time>
      </trkpt>
      <trkpt lat="43.2500307821" lon="-4.2433927953">
        <ele>216.91</ele>
        <time>2018-05-19T10:52:01Z</time>
      </trkpt>
      <trkpt lat="43.2499171235" lon="-4.2433128320">
        <ele>216.91</ele>
        <time>2018-05-19T10:52:03Z</time>
      </trkpt>
      <trkpt lat="43.2497788221" lon="-4.2432565056">
        <ele>216.91</ele>
        <time>2018-05-19T10:52:05Z</time>
      </trkpt>
      <trkpt lat="43.2496364973" lon="-4.2431997601">
        <ele>216.43</ele>
        <time>2018-05-19T10:52:07Z</time>
      </trkpt>
      <trkpt lat="43.2495087571" lon="-4.2431283463">
        <ele>216.91</ele>
        <time>2018-05-19T10:52:09Z</time>
      </trkpt>
      <trkpt lat="43.2493997086" lon="-4.2430373188">
        <ele>216.91</ele>
        <time>2018-05-19T10:52:11Z</time>
      </trkpt>
      <trkpt lat="43.2492914144" lon="-4.2429300305">
        <ele>216.91</ele>
        <time>2018-05-19T10:52:13Z</time>
      </trkpt>
      <trkpt lat="43.2491796836" lon="-4.2428286932">
        <ele>216.91</ele>
        <time>2018-05-19T10:52:15Z</time>
      </trkpt>
      <trkpt lat="43.2490684558" lon="-4.2427307088">
        <ele>216.91</ele>
        <time>2018-05-19T10:52:17Z</time>
      </trkpt>
      <trkpt lat="43.2489537075" lon="-4.2426091712">
        <ele>216.91</ele>
        <time>2018-05-19T10:52:19Z</time>
      </trkpt>
      <trkpt lat="43.2488781027" lon="-4.2425123602">
        <ele>216.91</ele>
        <time>2018-05-19T10:52:21Z</time>
      </trkpt>
      <trkpt lat="43.2487911824" lon="-4.2423995398">
        <ele>216.91</ele>
        <time>2018-05-19T10:52:23Z</time>
      </trkpt>
      <trkpt lat="43.2487081178" lon="-4.2422809359">
        <ele>216.91</ele>
        <time>2018-05-19T10:52:25Z</time>
      </trkpt>
      <trkpt lat="43.2486361172" lon="-4.2421648465">
        <ele>217.88</ele>
        <time>2018-05-19T10:52:27Z</time>
      </trkpt>
      <trkpt lat="43.2485519629" lon="-4.2420420516">
        <ele>217.88</ele>
        <time>2018-05-19T10:52:29Z</time>
      </trkpt>
      <trkpt lat="43.2484372985" lon="-4.2419317458">
        <ele>217.88</ele>
        <time>2018-05-19T10:52:32Z</time>
      </trkpt>
      <trkpt lat="43.2483489532" lon="-4.2418668699">
        <ele>219.32</ele>
        <time>2018-05-19T10:52:34Z</time>
      </trkpt>
      <trkpt lat="43.2482583448" lon="-4.2418014072">
        <ele>219.32</ele>
        <time>2018-05-19T10:52:36Z</time>
      </trkpt>
      <trkpt lat="43.2481597736" lon="-4.2417221982">
        <ele>219.80</ele>
        <time>2018-05-19T10:52:38Z</time>
      </trkpt>
      <trkpt lat="43.2480556704" lon="-4.2416090425">
        <ele>220.28</ele>
        <time>2018-05-19T10:52:41Z</time>
      </trkpt>
      <trkpt lat="43.2479882799" lon="-4.2415210325">
        <ele>220.76</ele>
        <time>2018-05-19T10:52:43Z</time>
      </trkpt>
      <trkpt lat="43.2479000185" lon="-4.2413895205">
        <ele>221.24</ele>
        <time>2018-05-19T10:52:46Z</time>
      </trkpt>
      <trkpt lat="43.2478393335" lon="-4.2412711680">
        <ele>220.76</ele>
        <time>2018-05-19T10:52:48Z</time>
      </trkpt>
      <trkpt lat="43.2478024531" lon="-4.2410757858">
        <ele>220.76</ele>
        <time>2018-05-19T10:52:51Z</time>
      </trkpt>
      <trkpt lat="43.2477924787" lon="-4.2409206368">
        <ele>220.76</ele>
        <time>2018-05-19T10:52:53Z</time>
      </trkpt>
      <trkpt lat="43.2477835938" lon="-4.2407656554">
        <ele>220.76</ele>
        <time>2018-05-19T10:52:55Z</time>
      </trkpt>
      <trkpt lat="43.2477642316" lon="-4.2405843548">
        <ele>220.76</ele>
        <time>2018-05-19T10:52:57Z</time>
      </trkpt>
      <trkpt lat="43.2477272674" lon="-4.2404395994">
        <ele>219.32</ele>
        <time>2018-05-19T10:52:59Z</time>
      </trkpt>
      <trkpt lat="43.2476478070" lon="-4.2402961850">
        <ele>218.36</ele>
        <time>2018-05-19T10:53:01Z</time>
      </trkpt>
      <trkpt lat="43.2475494873" lon="-4.2401966918">
        <ele>218.36</ele>
        <time>2018-05-19T10:53:03Z</time>
      </trkpt>
      <trkpt lat="43.2474504132" lon="-4.2401039880">
        <ele>218.36</ele>
        <time>2018-05-19T10:53:05Z</time>
      </trkpt>
      <trkpt lat="43.2473392691" lon="-4.2400098592">
        <ele>219.80</ele>
        <time>2018-05-19T10:53:07Z</time>
      </trkpt>
      <trkpt lat="43.2472507562" lon="-4.2399334162">
        <ele>219.80</ele>
        <time>2018-05-19T10:53:09Z</time>
      </trkpt>
      <trkpt lat="43.2471469045" lon="-4.2398500163">
        <ele>219.80</ele>
        <time>2018-05-19T10:53:11Z</time>
      </trkpt>
      <trkpt lat="43.2470443100" lon="-4.2397792730">
        <ele>220.28</ele>
        <time>2018-05-19T10:53:13Z</time>
      </trkpt>
      <trkpt lat="43.2469386142" lon="-4.2397205159">
        <ele>220.28</ele>
        <time>2018-05-19T10:53:15Z</time>
      </trkpt>
      <trkpt lat="43.2468350977" lon="-4.2396697216">
        <ele>220.28</ele>
        <time>2018-05-19T10:53:17Z</time>
      </trkpt>
      <trkpt lat="43.2467268873" lon="-4.2396165803">
        <ele>220.76</ele>
        <time>2018-05-19T10:53:19Z</time>
      </trkpt>
      <trkpt lat="43.2466177549" lon="-4.2395563982">
        <ele>220.76</ele>
        <time>2018-05-19T10:53:21Z</time>
      </trkpt>
      <trkpt lat="43.2465109695" lon="-4.2394883372">
        <ele>220.76</ele>
        <time>2018-05-19T10:53:23Z</time>
      </trkpt>
      <trkpt lat="43.2464167569" lon="-4.2393966392">
        <ele>220.76</ele>
        <time>2018-05-19T10:53:25Z</time>
      </trkpt>
      <trkpt lat="43.2463421579" lon="-4.2393064499">
        <ele>221.24</ele>
        <time>2018-05-19T10:53:27Z</time>
      </trkpt>
      <trkpt lat="43.2462608535" lon="-4.2392076273">
        <ele>221.72</ele>
        <time>2018-05-19T10:53:29Z</time>
      </trkpt>
      <trkpt lat="43.2461747713" lon="-4.2391165160">
        <ele>221.72</ele>
        <time>2018-05-19T10:53:31Z</time>
      </trkpt>
      <trkpt lat="43.2460824028" lon="-4.2390417494">
        <ele>221.72</ele>
        <time>2018-05-19T10:53:33Z</time>
      </trkpt>
      <trkpt lat="43.2459846698" lon="-4.2389731854">
        <ele>222.20</ele>
        <time>2018-05-19T10:53:35Z</time>
      </trkpt>
      <trkpt lat="43.2458974142" lon="-4.2389345448">
        <ele>222.20</ele>
        <time>2018-05-19T10:53:37Z</time>
      </trkpt>
      <trkpt lat="43.2457990944" lon="-4.2389037833">
        <ele>223.16</ele>
        <time>2018-05-19T10:53:39Z</time>
      </trkpt>
      <trkpt lat="43.2457031216" lon="-4.2388907075">
        <ele>223.64</ele>
        <time>2018-05-19T10:53:41Z</time>
      </trkpt>
      <trkpt lat="43.2456039637" lon="-4.2388977483">
        <ele>224.12</ele>
        <time>2018-05-19T10:53:43Z</time>
      </trkpt>
      <trkpt lat="43.2455022074" lon="-4.2389130872">
        <ele>224.12</ele>
        <time>2018-05-19T10:53:45Z</time>
      </trkpt>
      <trkpt lat="43.2454115152" lon="-4.2389305215">
        <ele>224.12</ele>
        <time>2018-05-19T10:53:47Z</time>
      </trkpt>
      <trkpt lat="43.2453116868" lon="-4.2389441002">
        <ele>224.61</ele>
        <time>2018-05-19T10:53:49Z</time>
      </trkpt>
      <trkpt lat="43.2452138700" lon="-4.2389478721">
        <ele>224.61</ele>
        <time>2018-05-19T10:53:51Z</time>
      </trkpt>
      <trkpt lat="43.2451163884" lon="-4.2389356345">
        <ele>225.09</ele>
        <time>2018-05-19T10:53:53Z</time>
      </trkpt>
      <trkpt lat="43.2450167276" lon="-4.2389092315">
        <ele>225.09</ele>
        <time>2018-05-19T10:53:55Z</time>
      </trkpt>
      <trkpt lat="43.2448901609" lon="-4.2388291005">
        <ele>225.57</ele>
        <time>2018-05-19T10:53:58Z</time>
      </trkpt>
      <trkpt lat="43.2448107842" lon="-4.2387574352">
        <ele>225.57</ele>
        <time>2018-05-19T10:54:00Z</time>
      </trkpt>
      <trkpt lat="43.2447435614" lon="-4.2386638932">
        <ele>226.05</ele>
        <time>2018-05-19T10:54:02Z</time>
      </trkpt>
      <trkpt lat="43.2446846366" lon="-4.2385653220">
        <ele>226.53</ele>
        <time>2018-05-19T10:54:04Z</time>
      </trkpt>
      <trkpt lat="43.2446218561" lon="-4.2384523340">
        <ele>226.53</ele>
        <time>2018-05-19T10:54:06Z</time>
      </trkpt>
      <trkpt lat="43.2445573993" lon="-4.2382846959">
        <ele>226.53</ele>
        <time>2018-05-19T10:54:09Z</time>
      </trkpt>
      <trkpt lat="43.2445059344" lon="-4.2381656729">
        <ele>226.53</ele>
        <time>2018-05-19T10:54:11Z</time>
      </trkpt>
      <trkpt lat="43.2444486860" lon="-4.2380536068">
        <ele>226.53</ele>
        <time>2018-05-19T10:54:13Z</time>
      </trkpt>
      <trkpt lat="43.2443770207" lon="-4.2379272077">
        <ele>227.01</ele>
        <time>2018-05-19T10:54:15Z</time>
      </trkpt>
      <trkpt lat="43.2443201076" lon="-4.2378237750">
        <ele>227.01</ele>
        <time>2018-05-19T10:54:17Z</time>
      </trkpt>
      <trkpt lat="43.2442555670" lon="-4.2377226055">
        <ele>227.01</ele>
        <time>2018-05-19T10:54:19Z</time>
      </trkpt>
      <trkpt lat="43.2441875059" lon="-4.2376293149">
        <ele>227.49</ele>
        <time>2018-05-19T10:54:21Z</time>
      </trkpt>
      <trkpt lat="43.2441114821" lon="-4.2375434004">
        <ele>227.49</ele>
        <time>2018-05-19T10:54:23Z</time>
      </trkpt>
      <trkpt lat="43.2440357935" lon="-4.2374694720">
        <ele>227.97</ele>
        <time>2018-05-19T10:54:25Z</time>
      </trkpt>
      <trkpt lat="43.2439225540" lon="-4.2373807915">
        <ele>228.45</ele>
        <time>2018-05-19T10:54:28Z</time>
      </trkpt>
      <trkpt lat="43.2438088115" lon="-4.2373052705">
        <ele>228.93</ele>
        <time>2018-05-19T10:54:31Z</time>
      </trkpt>
      <trkpt lat="43.2437286805" lon="-4.2372476868">
        <ele>229.41</ele>
        <time>2018-05-19T10:54:33Z</time>
      </trkpt>
      <trkpt lat="43.2436326239" lon="-4.2371605989">
        <ele>229.89</ele>
        <time>2018-05-19T10:54:36Z</time>
      </trkpt>
      <trkpt lat="43.2435444463" lon="-4.2370554060">
        <ele>230.37</ele>
        <time>2018-05-19T10:54:39Z</time>
      </trkpt>
      <trkpt lat="43.2434491441" lon="-4.2369439267">
        <ele>231.33</ele>
        <time>2018-05-19T10:54:42Z</time>
      </trkpt>
      <trkpt lat="43.2433556858" lon="-4.2368380632">
        <ele>231.33</ele>
        <time>2018-05-19T10:54:45Z</time>
      </trkpt>
      <trkpt lat="43.2432619762" lon="-4.2367342114">
        <ele>232.30</ele>
        <time>2018-05-19T10:54:48Z</time>
      </trkpt>
      <trkpt lat="43.2431671768" lon="-4.2366455309">
        <ele>232.78</ele>
        <time>2018-05-19T10:54:51Z</time>
      </trkpt>
      <trkpt lat="43.2430707011" lon="-4.2365716025">
        <ele>233.26</ele>
        <time>2018-05-19T10:54:54Z</time>
      </trkpt>
      <trkpt lat="43.2429764047" lon="-4.2365036253">
        <ele>234.22</ele>
        <time>2018-05-19T10:54:57Z</time>
      </trkpt>
      <trkpt lat="43.2428894844" lon="-4.2364327144">
        <ele>234.70</ele>
        <time>2018-05-19T10:55:00Z</time>
      </trkpt>
      <trkpt lat="43.2427972835" lon="-4.2363629770">
        <ele>235.18</ele>
        <time>2018-05-19T10:55:03Z</time>
      </trkpt>
      <trkpt lat="43.2426936831" lon="-4.2362980172">
        <ele>235.66</ele>
        <time>2018-05-19T10:55:06Z</time>
      </trkpt>
      <trkpt lat="43.2425882388" lon="-4.2362516653">
        <ele>236.14</ele>
        <time>2018-05-19T10:55:09Z</time>
      </trkpt>
      <trkpt lat="43.2424744125" lon="-4.2362292018">
        <ele>236.62</ele>
        <time>2018-05-19T10:55:13Z</time>
      </trkpt>
      <trkpt lat="43.2423760090" lon="-4.2361960933">
        <ele>236.62</ele>
        <time>2018-05-19T10:55:16Z</time>
      </trkpt>
      <trkpt lat="43.2422698941" lon="-4.2361638229">
        <ele>237.10</ele>
        <time>2018-05-19T10:55:19Z</time>
      </trkpt>
      <trkpt lat="43.2421614323" lon="-4.2361293733">
        <ele>237.10</ele>
        <time>2018-05-19T10:55:22Z</time>
      </trkpt>
      <trkpt lat="43.2420295011" lon="-4.2360653356">
        <ele>237.10</ele>
        <time>2018-05-19T10:55:25Z</time>
      </trkpt>
      <trkpt lat="43.2419458497" lon="-4.2360047344">
        <ele>237.10</ele>
        <time>2018-05-19T10:55:27Z</time>
      </trkpt>
      <trkpt lat="43.2418187801" lon="-4.2359406967">
        <ele>237.10</ele>
        <time>2018-05-19T10:55:30Z</time>
      </trkpt>
      <trkpt lat="43.2417254895" lon="-4.2358907405">
        <ele>237.10</ele>
        <time>2018-05-19T10:55:32Z</time>
      </trkpt>
      <trkpt lat="43.2416345458" lon="-4.2358264513">
        <ele>237.10</ele>
        <time>2018-05-19T10:55:34Z</time>
      </trkpt>
      <trkpt lat="43.2415509783" lon="-4.2357486673">
        <ele>236.14</ele>
        <time>2018-05-19T10:55:36Z</time>
      </trkpt>
      <trkpt lat="43.2414726913" lon="-4.2356575560">
        <ele>235.66</ele>
        <time>2018-05-19T10:55:38Z</time>
      </trkpt>
      <trkpt lat="43.2414010260" lon="-4.2355648521">
        <ele>235.66</ele>
        <time>2018-05-19T10:55:40Z</time>
      </trkpt>
      <trkpt lat="43.2413364854" lon="-4.2354590725">
        <ele>235.66</ele>
        <time>2018-05-19T10:55:42Z</time>
      </trkpt>
      <trkpt lat="43.2412764709" lon="-4.2353471741">
        <ele>236.14</ele>
        <time>2018-05-19T10:55:44Z</time>
      </trkpt>
      <trkpt lat="43.2412104215" lon="-4.2352304142">
        <ele>236.14</ele>
        <time>2018-05-19T10:55:46Z</time>
      </trkpt>
      <trkpt lat="43.2411497366" lon="-4.2350743432">
        <ele>237.10</ele>
        <time>2018-05-19T10:55:49Z</time>
      </trkpt>
      <trkpt lat="43.2411156222" lon="-4.2349566612">
        <ele>237.58</ele>
        <time>2018-05-19T10:55:51Z</time>
      </trkpt>
      <trkpt lat="43.2410877943" lon="-4.2347729299">
        <ele>238.06</ele>
        <time>2018-05-19T10:55:54Z</time>
      </trkpt>
      <trkpt lat="43.2410792448" lon="-4.2345876899">
        <ele>238.54</ele>
        <time>2018-05-19T10:55:57Z</time>
      </trkpt>
      <trkpt lat="43.2410682645" lon="-4.2344033718">
        <ele>238.54</ele>
        <time>2018-05-19T10:56:00Z</time>
      </trkpt>
      <trkpt lat="43.2410406880" lon="-4.2342607118">
        <ele>238.54</ele>
        <time>2018-05-19T10:56:02Z</time>
      </trkpt>
      <trkpt lat="43.2410232536" lon="-4.2341140285">
        <ele>239.02</ele>
        <time>2018-05-19T10:56:04Z</time>
      </trkpt>
      <trkpt lat="43.2409992814" lon="-4.2339421157">
        <ele>239.02</ele>
        <time>2018-05-19T10:56:07Z</time>
      </trkpt>
      <trkpt lat="43.2409863733" lon="-4.2337546963">
        <ele>239.99</ele>
        <time>2018-05-19T10:56:10Z</time>
      </trkpt>
      <trkpt lat="43.2409771532" lon="-4.2335567158">
        <ele>240.47</ele>
        <time>2018-05-19T10:56:13Z</time>
      </trkpt>
      <trkpt lat="43.2409752253" lon="-4.2333862279">
        <ele>240.95</ele>
        <time>2018-05-19T10:56:16Z</time>
      </trkpt>
      <trkpt lat="43.2409773208" lon="-4.2332092859">
        <ele>241.43</ele>
        <time>2018-05-19T10:56:19Z</time>
      </trkpt>
      <trkpt lat="43.2409913186" lon="-4.2330633570">
        <ele>241.43</ele>
        <time>2018-05-19T10:56:21Z</time>
      </trkpt>
      <trkpt lat="43.2410095911" lon="-4.2329269834">
        <ele>241.43</ele>
        <time>2018-05-19T10:56:23Z</time>
      </trkpt>
      <trkpt lat="43.2410199847" lon="-4.2327904422">
        <ele>241.43</ele>
        <time>2018-05-19T10:56:25Z</time>
      </trkpt>
      <trkpt lat="43.2410174701" lon="-4.2326347064">
        <ele>241.43</ele>
        <time>2018-05-19T10:56:27Z</time>
      </trkpt>
      <trkpt lat="43.2410038915" lon="-4.2324806470">
        <ele>241.43</ele>
        <time>2018-05-19T10:56:29Z</time>
      </trkpt>
      <trkpt lat="43.2409685198" lon="-4.2323209718">
        <ele>239.99</ele>
        <time>2018-05-19T10:56:31Z</time>
      </trkpt>
      <trkpt lat="43.2409026381" lon="-4.2322170362">
        <ele>239.99</ele>
        <time>2018-05-19T10:56:33Z</time>
      </trkpt>
      <trkpt lat="43.2407989539" lon="-4.2321303673">
        <ele>239.99</ele>
        <time>2018-05-19T10:56:35Z</time>
      </trkpt>
      <trkpt lat="43.2406989578" lon="-4.2320603784">
        <ele>239.99</ele>
        <time>2018-05-19T10:56:37Z</time>
      </trkpt>
      <trkpt lat="43.2406006381" lon="-4.2319938261">
        <ele>241.43</ele>
        <time>2018-05-19T10:56:39Z</time>
      </trkpt>
      <trkpt lat="43.2404731493" lon="-4.2319204006">
        <ele>241.91</ele>
        <time>2018-05-19T10:56:42Z</time>
      </trkpt>
      <trkpt lat="43.2403437328" lon="-4.2318491545">
        <ele>241.91</ele>
        <time>2018-05-19T10:56:45Z</time>
      </trkpt>
      <trkpt lat="43.2402164117" lon="-4.2317855358">
        <ele>242.39</ele>
        <time>2018-05-19T10:56:48Z</time>
      </trkpt>
      <trkpt lat="43.2400980592" lon="-4.2317410279">
        <ele>242.87</ele>
        <time>2018-05-19T10:56:51Z</time>
      </trkpt>
      <trkpt lat="43.2399726659" lon="-4.2317253537">
        <ele>243.35</ele>
        <time>2018-05-19T10:56:54Z</time>
      </trkpt>
      <trkpt lat="43.2398745138" lon="-4.2317424528">
        <ele>243.83</ele>
        <time>2018-05-19T10:56:57Z</time>
      </trkpt>
      <trkpt lat="43.2397569995" lon="-4.2317718733">
        <ele>244.31</ele>
        <time>2018-05-19T10:57:00Z</time>
      </trkpt>
      <trkpt lat="43.2396498788" lon="-4.2318043951">
        <ele>244.79</ele>
        <time>2018-05-19T10:57:03Z</time>
      </trkpt>
      <trkpt lat="43.2395188697" lon="-4.2318227515">
        <ele>245.27</ele>
        <time>2018-05-19T10:57:07Z</time>
      </trkpt>
      <trkpt lat="43.2393909618" lon="-4.2317883018">
        <ele>246.23</ele>
        <time>2018-05-19T10:57:11Z</time>
      </trkpt>
      <trkpt lat="43.2392782252" lon="-4.2317000404">
        <ele>246.23</ele>
        <time>2018-05-19T10:57:14Z</time>
      </trkpt>
      <trkpt lat="43.2391910534" lon="-4.2315635830">
        <ele>246.23</ele>
        <time>2018-05-19T10:57:17Z</time>
      </trkpt>
      <trkpt lat="43.2391590346" lon="-4.2314086016">
        <ele>246.23</ele>
        <time>2018-05-19T10:57:20Z</time>
      </trkpt>
      <trkpt lat="43.2391426899" lon="-4.2312276363">
        <ele>246.72</ele>
        <time>2018-05-19T10:57:23Z</time>
      </trkpt>
      <trkpt lat="43.2391317096" lon="-4.2310961243">
        <ele>246.23</ele>
        <time>2018-05-19T10:57:25Z</time>
      </trkpt>
      <trkpt lat="43.2391077373" lon="-4.2309009936">
        <ele>246.23</ele>
        <time>2018-05-19T10:57:28Z</time>
      </trkpt>
      <trkpt lat="43.2390980981" lon="-4.2307145800">
        <ele>246.23</ele>
        <time>2018-05-19T10:57:31Z</time>
      </trkpt>
      <trkpt lat="43.2390857767" lon="-4.2305831518">
        <ele>246.23</ele>
        <time>2018-05-19T10:57:33Z</time>
      </trkpt>
      <trkpt lat="43.2390760537" lon="-4.2304337025">
        <ele>246.23</ele>
        <time>2018-05-19T10:57:35Z</time>
      </trkpt>
      <trkpt lat="43.2390507404" lon="-4.2302358057">
        <ele>246.23</ele>
        <time>2018-05-19T10:57:38Z</time>
      </trkpt>
      <trkpt lat="43.2390324678" lon="-4.2300977558">
        <ele>246.23</ele>
        <time>2018-05-19T10:57:40Z</time>
      </trkpt>
      <trkpt lat="43.2390092500" lon="-4.2299556825">
        <ele>246.72</ele>
        <time>2018-05-19T10:57:42Z</time>
      </trkpt>
      <trkpt lat="43.2389900554" lon="-4.2298203986">
        <ele>247.20</ele>
        <time>2018-05-19T10:57:44Z</time>
      </trkpt>
      <trkpt lat="43.2389613055" lon="-4.2296568677">
        <ele>247.68</ele>
        <time>2018-05-19T10:57:47Z</time>
      </trkpt>
      <trkpt lat="43.2389114331" lon="-4.2294852063">
        <ele>248.16</ele>
        <time>2018-05-19T10:57:50Z</time>
      </trkpt>
      <trkpt lat="43.2388721220" lon="-4.2293086834">
        <ele>248.16</ele>
        <time>2018-05-19T10:57:53Z</time>
      </trkpt>
      <trkpt lat="43.2388537657" lon="-4.2291579768">
        <ele>249.60</ele>
        <time>2018-05-19T10:57:56Z</time>
      </trkpt>
      <trkpt lat="43.2388248481" lon="-4.2290076893">
        <ele>250.08</ele>
        <time>2018-05-19T10:57:59Z</time>
      </trkpt>
      <trkpt lat="43.2387937512" lon="-4.2288395483">
        <ele>250.56</ele>
        <time>2018-05-19T10:58:02Z</time>
      </trkpt>
      <trkpt lat="43.2387684379" lon="-4.2286839802">
        <ele>250.56</ele>
        <time>2018-05-19T10:58:04Z</time>
      </trkpt>
      <trkpt lat="43.2387809269" lon="-4.2284800485">
        <ele>250.56</ele>
        <time>2018-05-19T10:58:07Z</time>
      </trkpt>
      <trkpt lat="43.2388027199" lon="-4.2283362988">
        <ele>250.56</ele>
        <time>2018-05-19T10:58:09Z</time>
      </trkpt>
      <trkpt lat="43.2388421148" lon="-4.2282072175">
        <ele>250.56</ele>
        <time>2018-05-19T10:58:11Z</time>
      </trkpt>
      <trkpt lat="43.2388873771" lon="-4.2280740291">
        <ele>250.08</ele>
        <time>2018-05-19T10:58:13Z</time>
      </trkpt>
      <trkpt lat="43.2388702780" lon="-4.2278853524">
        <ele>250.56</ele>
        <time>2018-05-19T10:58:16Z</time>
      </trkpt>
      <trkpt lat="43.2388025522" lon="-4.2277560197">
        <ele>250.56</ele>
        <time>2018-05-19T10:58:18Z</time>
      </trkpt>
      <trkpt lat="43.2387246005" lon="-4.2276539281">
        <ele>250.56</ele>
        <time>2018-05-19T10:58:20Z</time>
      </trkpt>
      <trkpt lat="43.2386531029" lon="-4.2275565304">
        <ele>250.56</ele>
        <time>2018-05-19T10:58:22Z</time>
      </trkpt>
      <trkpt lat="43.2385897357" lon="-4.2274590489">
        <ele>250.56</ele>
        <time>2018-05-19T10:58:24Z</time>
      </trkpt>
      <trkpt lat="43.2385226805" lon="-4.2273530178">
        <ele>250.56</ele>
        <time>2018-05-19T10:58:26Z</time>
      </trkpt>
      <trkpt lat="43.2384494226" lon="-4.2272488307">
        <ele>250.56</ele>
        <time>2018-05-19T10:58:28Z</time>
      </trkpt>
      <trkpt lat="43.2383779250" lon="-4.2271461524">
        <ele>250.56</ele>
        <time>2018-05-19T10:58:30Z</time>
      </trkpt>
      <trkpt lat="43.2383044995" lon="-4.2270406242">
        <ele>251.52</ele>
        <time>2018-05-19T10:58:32Z</time>
      </trkpt>
      <trkpt lat="43.2382021565" lon="-4.2268990539">
        <ele>252.00</ele>
        <time>2018-05-19T10:58:35Z</time>
      </trkpt>
      <trkpt lat="43.2381223608" lon="-4.2267755885">
        <ele>252.96</ele>
        <time>2018-05-19T10:58:38Z</time>
      </trkpt>
      <trkpt lat="43.2380330935" lon="-4.2266565654">
        <ele>253.44</ele>
        <time>2018-05-19T10:58:41Z</time>
      </trkpt>
      <trkpt lat="43.2379418984" lon="-4.2265218683">
        <ele>253.93</ele>
        <time>2018-05-19T10:58:45Z</time>
      </trkpt>
      <trkpt lat="43.2378641143" lon="-4.2264106404">
        <ele>254.41</ele>
        <time>2018-05-19T10:58:48Z</time>
      </trkpt>
      <trkpt lat="43.2377603464" lon="-4.2262808047">
        <ele>254.89</ele>
        <time>2018-05-19T10:58:52Z</time>
      </trkpt>
      <trkpt lat="43.2376758568" lon="-4.2261970695">
        <ele>255.85</ele>
        <time>2018-05-19T10:58:55Z</time>
      </trkpt>
      <trkpt lat="43.2375492901" lon="-4.2261119932">
        <ele>256.33</ele>
        <time>2018-05-19T10:58:59Z</time>
      </trkpt>
      <trkpt lat="43.2374432590" lon="-4.2260537390">
        <ele>256.33</ele>
        <time>2018-05-19T10:59:02Z</time>
      </trkpt>
      <trkpt lat="43.2373238169" lon="-4.2260081414">
        <ele>256.81</ele>
        <time>2018-05-19T10:59:05Z</time>
      </trkpt>
      <trkpt lat="43.2372106612" lon="-4.2259873543">
        <ele>257.29</ele>
        <time>2018-05-19T10:59:08Z</time>
      </trkpt>
      <trkpt lat="43.2371027023" lon="-4.2259602807">
        <ele>257.77</ele>
        <time>2018-05-19T10:59:11Z</time>
      </trkpt>
      <trkpt lat="43.2369949110" lon="-4.2259211373">
        <ele>258.25</ele>
        <time>2018-05-19T10:59:14Z</time>
      </trkpt>
      <trkpt lat="43.2368913945" lon="-4.2258881964">
        <ele>258.73</ele>
        <time>2018-05-19T10:59:17Z</time>
      </trkpt>
      <trkpt lat="43.2367798313" lon="-4.2258576863">
        <ele>259.21</ele>
        <time>2018-05-19T10:59:20Z</time>
      </trkpt>
      <trkpt lat="43.2366513368" lon="-4.2258255836">
        <ele>259.69</ele>
        <time>2018-05-19T10:59:23Z</time>
      </trkpt>
      <trkpt lat="43.2365224231" lon="-4.2258071434">
        <ele>259.69</ele>
        <time>2018-05-19T10:59:26Z</time>
      </trkpt>
      <trkpt lat="43.2363853790" lon="-4.2257850152">
        <ele>259.69</ele>
        <time>2018-05-19T10:59:29Z</time>
      </trkpt>
      <trkpt lat="43.2362430543" lon="-4.2257265095">
        <ele>259.69</ele>
        <time>2018-05-19T10:59:32Z</time>
      </trkpt>
      <trkpt lat="43.2361518592" lon="-4.2256416008">
        <ele>258.25</ele>
        <time>2018-05-19T10:59:34Z</time>
      </trkpt>
      <trkpt lat="43.2360832114" lon="-4.2255257629">
        <ele>257.77</ele>
        <time>2018-05-19T10:59:36Z</time>
      </trkpt>
      <trkpt lat="43.2360285614" lon="-4.2253760621">
        <ele>257.77</ele>
        <time>2018-05-19T10:59:38Z</time>
      </trkpt>
      <trkpt lat="43.2359853946" lon="-4.2251903191">
        <ele>256.81</ele>
        <time>2018-05-19T10:59:40Z</time>
      </trkpt>
      <trkpt lat="43.2359675411" lon="-4.2249812745">
        <ele>255.85</ele>
        <time>2018-05-19T10:59:42Z</time>
      </trkpt>
      <trkpt lat="43.2359756716" lon="-4.2247765884">
        <ele>255.37</ele>
        <time>2018-05-19T10:59:44Z</time>
      </trkpt>
      <trkpt lat="43.2359838020" lon="-4.2245680466">
        <ele>255.37</ele>
        <time>2018-05-19T10:59:46Z</time>
      </trkpt>
      <trkpt lat="43.2359975483" lon="-4.2243909370">
        <ele>254.89</ele>
        <time>2018-05-19T10:59:48Z</time>
      </trkpt>
      <trkpt lat="43.2360205147" lon="-4.2242137436">
        <ele>254.89</ele>
        <time>2018-05-19T10:59:50Z</time>
      </trkpt>
      <trkpt lat="43.2360325009" lon="-4.2240397353">
        <ele>254.89</ele>
        <time>2018-05-19T10:59:52Z</time>
      </trkpt>
      <trkpt lat="43.2360392064" lon="-4.2238757852">
        <ele>254.89</ele>
        <time>2018-05-19T10:59:54Z</time>
      </trkpt>
      <trkpt lat="43.2360238675" lon="-4.2237162776">
        <ele>256.33</ele>
        <time>2018-05-19T10:59:56Z</time>
      </trkpt>
      <trkpt lat="43.2359964587" lon="-4.2235172912">
        <ele>256.81</ele>
        <time>2018-05-19T10:59:59Z</time>
      </trkpt>
      <trkpt lat="43.2359755039" lon="-4.2233609688">
        <ele>257.29</ele>
        <time>2018-05-19T11:00:01Z</time>
      </trkpt>
      <trkpt lat="43.2359485980" lon="-4.2232209910">
        <ele>257.29</ele>
        <time>2018-05-19T11:00:03Z</time>
      </trkpt>
      <trkpt lat="43.2359237038" lon="-4.2230745591">
        <ele>257.77</ele>
        <time>2018-05-19T11:00:05Z</time>
      </trkpt>
      <trkpt lat="43.2359048445" lon="-4.2228908278">
        <ele>257.29</ele>
        <time>2018-05-19T11:00:08Z</time>
      </trkpt>
      <trkpt lat="43.2358812075" lon="-4.2226984631">
        <ele>257.77</ele>
        <time>2018-05-19T11:00:11Z</time>
      </trkpt>
      <trkpt lat="43.2358531281" lon="-4.2225609999">
        <ele>258.25</ele>
        <time>2018-05-19T11:00:13Z</time>
      </trkpt>
      <trkpt lat="43.2358233724" lon="-4.2223589122">
        <ele>258.73</ele>
        <time>2018-05-19T11:00:16Z</time>
      </trkpt>
      <trkpt lat="43.2358100452" lon="-4.2221668828">
        <ele>259.21</ele>
        <time>2018-05-19T11:00:19Z</time>
      </trkpt>
      <trkpt lat="43.2358037587" lon="-4.2220261507">
        <ele>259.21</ele>
        <time>2018-05-19T11:00:21Z</time>
      </trkpt>
      <trkpt lat="43.2358004898" lon="-4.2218635418">
        <ele>259.69</ele>
        <time>2018-05-19T11:00:23Z</time>
      </trkpt>
      <trkpt lat="43.2357771881" lon="-4.2216710933">
        <ele>259.69</ele>
        <time>2018-05-19T11:00:26Z</time>
      </trkpt>
      <trkpt lat="43.2357626036" lon="-4.2215279303">
        <ele>259.69</ele>
        <time>2018-05-19T11:00:28Z</time>
      </trkpt>
      <trkpt lat="43.2357469294" lon="-4.2213845160">
        <ele>259.69</ele>
        <time>2018-05-19T11:00:30Z</time>
      </trkpt>
      <trkpt lat="43.2357320096" lon="-4.2212244216">
        <ele>259.69</ele>
        <time>2018-05-19T11:00:32Z</time>
      </trkpt>
      <trkpt lat="43.2357066963" lon="-4.2210199032">
        <ele>259.69</ele>
        <time>2018-05-19T11:00:35Z</time>
      </trkpt>
      <trkpt lat="43.2356987335" lon="-4.2208855413">
        <ele>259.69</ele>
        <time>2018-05-19T11:00:37Z</time>
      </trkpt>
      <trkpt lat="43.2356864121" lon="-4.2206881475">
        <ele>259.69</ele>
        <time>2018-05-19T11:00:40Z</time>
      </trkpt>
      <trkpt lat="43.2356688101" lon="-4.2205120437">
        <ele>259.69</ele>
        <time>2018-05-19T11:00:43Z</time>
      </trkpt>
      <trkpt lat="43.2356534712" lon="-4.2203264683">
        <ele>259.69</ele>
        <time>2018-05-19T11:00:47Z</time>
      </trkpt>
      <trkpt lat="43.2356448378" lon="-4.2201399710">
        <ele>260.17</ele>
        <time>2018-05-19T11:00:52Z</time>
      </trkpt>
      <trkpt lat="43.2356543094" lon="-4.2199738417">
        <ele>260.65</ele>
        <time>2018-05-19T11:00:58Z</time>
      </trkpt>
      <trkpt lat="43.2356802095" lon="-4.2198067065">
        <ele>260.65</ele>
        <time>2018-05-19T11:01:07Z</time>
      </trkpt>
      <trkpt lat="43.2356849872" lon="-4.2196512222">
        <ele>260.65</ele>
        <time>2018-05-19T11:01:21Z</time>
      </trkpt>
      <trkpt lat="43.2356789522" lon="-4.2195019405">
        <ele>260.65</ele>
        <time>2018-05-19T11:01:45Z</time>
      </trkpt>
      <trkpt lat="43.2356443349" lon="-4.2193888687">
        <ele>260.65</ele>
        <time>2018-05-19T11:01:54Z</time>
      </trkpt>
      <trkpt lat="43.2355491165" lon="-4.2193814088">
        <ele>261.62</ele>
        <time>2018-05-19T11:02:05Z</time>
      </trkpt>
      <trkpt lat="43.2355014235" lon="-4.2194746993">
        <ele>261.62</ele>
        <time>2018-05-19T11:02:15Z</time>
      </trkpt>
      <trkpt lat="43.2354820613" lon="-4.2194830813">
        <ele>262.58</ele>
        <time>2018-05-19T11:05:52Z</time>
      </trkpt>
      <trkpt lat="43.2354882639" lon="-4.2194819916">
        <ele>261.62</ele>
        <time>2018-05-19T11:22:15Z</time>
      </trkpt>
      <trkpt lat="43.2355092186" lon="-4.2194136791">
        <ele>262.58</ele>
        <time>2018-05-19T11:22:36Z</time>
      </trkpt>
      <trkpt lat="43.2356141601" lon="-4.2193426844">
        <ele>262.58</ele>
        <time>2018-05-19T11:22:41Z</time>
      </trkpt>
      <trkpt lat="43.2356733363" lon="-4.2192512378">
        <ele>261.62</ele>
        <time>2018-05-19T11:22:44Z</time>
      </trkpt>
      <trkpt lat="43.2356737554" lon="-4.2191258445">
        <ele>261.62</ele>
        <time>2018-05-19T11:22:47Z</time>
      </trkpt>
      <trkpt lat="43.2356486097" lon="-4.2190126050">
        <ele>261.62</ele>
        <time>2018-05-19T11:22:50Z</time>
      </trkpt>
      <trkpt lat="43.2356049400" lon="-4.2188815959">
        <ele>261.62</ele>
        <time>2018-05-19T11:22:54Z</time>
      </trkpt>
      <trkpt lat="43.2355625276" lon="-4.2187318113">
        <ele>262.58</ele>
        <time>2018-05-19T11:22:58Z</time>
      </trkpt>
      <trkpt lat="43.2355361246" lon="-4.2185951024">
        <ele>263.06</ele>
        <time>2018-05-19T11:23:02Z</time>
      </trkpt>
      <trkpt lat="43.2354941312" lon="-4.2184321582">
        <ele>263.54</ele>
        <time>2018-05-19T11:23:07Z</time>
      </trkpt>
      <trkpt lat="43.2354537304" lon="-4.2182975449">
        <ele>264.02</ele>
        <time>2018-05-19T11:23:11Z</time>
      </trkpt>
      <trkpt lat="43.2353893574" lon="-4.2181610875">
        <ele>264.50</ele>
        <time>2018-05-19T11:23:15Z</time>
      </trkpt>
      <trkpt lat="43.2353026047" lon="-4.2180417292">
        <ele>264.98</ele>
        <time>2018-05-19T11:23:19Z</time>
      </trkpt>
      <trkpt lat="43.2352191210" lon="-4.2179280706">
        <ele>265.46</ele>
        <time>2018-05-19T11:23:23Z</time>
      </trkpt>
      <trkpt lat="43.2351290155" lon="-4.2178436648">
        <ele>265.94</ele>
        <time>2018-05-19T11:23:27Z</time>
      </trkpt>
      <trkpt lat="43.2350236550" lon="-4.2177489493">
        <ele>265.94</ele>
        <time>2018-05-19T11:23:31Z</time>
      </trkpt>
      <trkpt lat="43.2349410094" lon="-4.2176825646">
        <ele>266.42</ele>
        <time>2018-05-19T11:23:34Z</time>
      </trkpt>
      <trkpt lat="43.2348242495" lon="-4.2176073790">
        <ele>266.42</ele>
        <time>2018-05-19T11:23:38Z</time>
      </trkpt>
      <trkpt lat="43.2347317971" lon="-4.2175685707">
        <ele>266.42</ele>
        <time>2018-05-19T11:23:41Z</time>
      </trkpt>
      <trkpt lat="43.2346392609" lon="-4.2175202910">
        <ele>267.38</ele>
        <time>2018-05-19T11:23:44Z</time>
      </trkpt>
      <trkpt lat="43.2345493231" lon="-4.2174764536">
        <ele>267.38</ele>
        <time>2018-05-19T11:23:47Z</time>
      </trkpt>
      <trkpt lat="43.2344562840" lon="-4.2174419202">
        <ele>267.38</ele>
        <time>2018-05-19T11:23:50Z</time>
      </trkpt>
      <trkpt lat="43.2343453076" lon="-4.2173971608">
        <ele>268.35</ele>
        <time>2018-05-19T11:23:54Z</time>
      </trkpt>
      <trkpt lat="43.2342635002" lon="-4.2173290160">
        <ele>268.83</ele>
        <time>2018-05-19T11:23:58Z</time>
      </trkpt>
      <trkpt lat="43.2342123706" lon="-4.2172212247">
        <ele>269.31</ele>
        <time>2018-05-19T11:24:02Z</time>
      </trkpt>
      <trkpt lat="43.2341912482" lon="-4.2170774750">
        <ele>268.83</ele>
        <time>2018-05-19T11:24:06Z</time>
      </trkpt>
      <trkpt lat="43.2341954391" lon="-4.2169200629">
        <ele>268.83</ele>
        <time>2018-05-19T11:24:10Z</time>
      </trkpt>
      <trkpt lat="43.2341975346" lon="-4.2167344876">
        <ele>268.83</ele>
        <time>2018-05-19T11:24:14Z</time>
      </trkpt>
      <trkpt lat="43.2341774181" lon="-4.2165474873">
        <ele>268.83</ele>
        <time>2018-05-19T11:24:18Z</time>
      </trkpt>
      <trkpt lat="43.2341212593" lon="-4.2163875606">
        <ele>269.31</ele>
        <time>2018-05-19T11:24:22Z</time>
      </trkpt>
      <trkpt lat="43.2340723928" lon="-4.2162100319">
        <ele>269.31</ele>
        <time>2018-05-19T11:24:26Z</time>
      </trkpt>
      <trkpt lat="43.2340213470" lon="-4.2160640191">
        <ele>269.79</ele>
        <time>2018-05-19T11:24:30Z</time>
      </trkpt>
      <trkpt lat="43.2339814492" lon="-4.2159072775">
        <ele>270.27</ele>
        <time>2018-05-19T11:24:34Z</time>
      </trkpt>
      <trkpt lat="43.2339441497" lon="-4.2157670483">
        <ele>270.75</ele>
        <time>2018-05-19T11:24:38Z</time>
      </trkpt>
      <trkpt lat="43.2339091133" lon="-4.2156105582">
        <ele>270.75</ele>
        <time>2018-05-19T11:24:42Z</time>
      </trkpt>
      <trkpt lat="43.2339015696" lon="-4.2154640425">
        <ele>271.23</ele>
        <time>2018-05-19T11:24:46Z</time>
      </trkpt>
      <trkpt lat="43.2339184172" lon="-4.2153307702">
        <ele>272.19</ele>
        <time>2018-05-19T11:24:50Z</time>
      </trkpt>
      <trkpt lat="43.2339366060" lon="-4.2151594441">
        <ele>272.19</ele>
        <time>2018-05-19T11:24:55Z</time>
      </trkpt>
      <trkpt lat="43.2339169085" lon="-4.2149881180">
        <ele>272.19</ele>
        <time>2018-05-19T11:24:59Z</time>
      </trkpt>
      <trkpt lat="43.2338493504" lon="-4.2148835957">
        <ele>272.19</ele>
        <time>2018-05-19T11:25:02Z</time>
      </trkpt>
      <trkpt lat="43.2337698899" lon="-4.2147911433">
        <ele>272.19</ele>
        <time>2018-05-19T11:25:05Z</time>
      </trkpt>
      <trkpt lat="43.2336868253" lon="-4.2146927398">
        <ele>272.19</ele>
        <time>2018-05-19T11:25:08Z</time>
      </trkpt>
      <trkpt lat="43.2335890923" lon="-4.2146002874">
        <ele>271.71</ele>
        <time>2018-05-19T11:25:11Z</time>
      </trkpt>
      <trkpt lat="43.2334988192" lon="-4.2145022191">
        <ele>271.71</ele>
        <time>2018-05-19T11:25:14Z</time>
      </trkpt>
      <trkpt lat="43.2334275730" lon="-4.2143970262">
        <ele>272.67</ele>
        <time>2018-05-19T11:25:17Z</time>
      </trkpt>
      <trkpt lat="43.2333631162" lon="-4.2142944317">
        <ele>273.15</ele>
        <time>2018-05-19T11:25:20Z</time>
      </trkpt>
      <trkpt lat="43.2332856674" lon="-4.2141505145">
        <ele>274.59</ele>
        <time>2018-05-19T11:25:24Z</time>
      </trkpt>
      <trkpt lat="43.2332549058" lon="-4.2140205950">
        <ele>274.59</ele>
        <time>2018-05-19T11:25:27Z</time>
      </trkpt>
      <trkpt lat="43.2332393155" lon="-4.2138842214">
        <ele>275.07</ele>
        <time>2018-05-19T11:25:30Z</time>
      </trkpt>
      <trkpt lat="43.2332193665" lon="-4.2137322575">
        <ele>276.04</ele>
        <time>2018-05-19T11:25:34Z</time>
      </trkpt>
      <trkpt lat="43.2331927959" lon="-4.2135636136">
        <ele>277.00</ele>
        <time>2018-05-19T11:25:38Z</time>
      </trkpt>
      <trkpt lat="43.2331767865" lon="-4.2133941315">
        <ele>277.00</ele>
        <time>2018-05-19T11:25:42Z</time>
      </trkpt>
      <trkpt lat="43.2331587654" lon="-4.2132197041">
        <ele>277.48</ele>
        <time>2018-05-19T11:25:46Z</time>
      </trkpt>
      <trkpt lat="43.2331247348" lon="-4.2130606994">
        <ele>277.48</ele>
        <time>2018-05-19T11:25:49Z</time>
      </trkpt>
      <trkpt lat="43.2330622058" lon="-4.2129019462">
        <ele>277.00</ele>
        <time>2018-05-19T11:25:52Z</time>
      </trkpt>
      <trkpt lat="43.2330021076" lon="-4.2127836775">
        <ele>277.00</ele>
        <time>2018-05-19T11:25:55Z</time>
      </trkpt>
      <trkpt lat="43.2329312805" lon="-4.2126767244">
        <ele>277.00</ele>
        <time>2018-05-19T11:25:58Z</time>
      </trkpt>
      <trkpt lat="43.2328340504" lon="-4.2125919834">
        <ele>277.00</ele>
        <time>2018-05-19T11:26:01Z</time>
      </trkpt>
      <trkpt lat="43.2327322941" lon="-4.2126169614">
        <ele>277.48</ele>
        <time>2018-05-19T11:26:06Z</time>
      </trkpt>
      <trkpt lat="43.2326315437" lon="-4.2125740461">
        <ele>277.48</ele>
        <time>2018-05-19T11:26:11Z</time>
      </trkpt>
      <trkpt lat="43.2325542625" lon="-4.2124468088">
        <ele>278.44</ele>
        <time>2018-05-19T11:26:19Z</time>
      </trkpt>
      <trkpt lat="43.2325383369" lon="-4.2123059090">
        <ele>278.44</ele>
        <time>2018-05-19T11:26:23Z</time>
      </trkpt>
      <trkpt lat="43.2324963436" lon="-4.2123707850">
        <ele>278.92</ele>
        <time>2018-05-19T11:27:29Z</time>
      </trkpt>
      <trkpt lat="43.2324077468" lon="-4.2123917397">
        <ele>278.92</ele>
        <time>2018-05-19T11:27:33Z</time>
      </trkpt>
      <trkpt lat="43.2323094271" lon="-4.2123836931">
        <ele>278.92</ele>
        <time>2018-05-19T11:27:37Z</time>
      </trkpt>
      <trkpt lat="43.2322085928" lon="-4.2124068271">
        <ele>279.88</ele>
        <time>2018-05-19T11:27:41Z</time>
      </trkpt>
      <trkpt lat="43.2321186550" lon="-4.2125195637">
        <ele>280.36</ele>
        <time>2018-05-19T11:27:45Z</time>
      </trkpt>
      <trkpt lat="43.2320500072" lon="-4.2126297019">
        <ele>280.84</ele>
        <time>2018-05-19T11:27:49Z</time>
      </trkpt>
      <trkpt lat="43.2319770008" lon="-4.2127513234">
        <ele>281.80</ele>
        <time>2018-05-19T11:27:54Z</time>
      </trkpt>
      <trkpt lat="43.2318947744" lon="-4.2128848471">
        <ele>283.25</ele>
        <time>2018-05-19T11:27:59Z</time>
      </trkpt>
      <trkpt lat="43.2318068482" lon="-4.2129954882">
        <ele>283.73</ele>
        <time>2018-05-19T11:28:04Z</time>
      </trkpt>
      <trkpt lat="43.2316982187" lon="-4.2130962387">
        <ele>284.69</ele>
        <time>2018-05-19T11:28:09Z</time>
      </trkpt>
      <trkpt lat="43.2315798663" lon="-4.2132257391">
        <ele>285.65</ele>
        <time>2018-05-19T11:28:14Z</time>
      </trkpt>
      <trkpt lat="43.2314786129" lon="-4.2132750247">
        <ele>286.61</ele>
        <time>2018-05-19T11:28:18Z</time>
      </trkpt>
      <trkpt lat="43.2313632779" lon="-4.2133150902">
        <ele>287.57</ele>
        <time>2018-05-19T11:28:23Z</time>
      </trkpt>
      <trkpt lat="43.2312427461" lon="-4.2133455165">
        <ele>288.53</ele>
        <time>2018-05-19T11:28:28Z</time>
      </trkpt>
      <trkpt lat="43.2311313506" lon="-4.2133929580">
        <ele>289.49</ele>
        <time>2018-05-19T11:28:33Z</time>
      </trkpt>
      <trkpt lat="43.2310288399" lon="-4.2134355381">
        <ele>290.94</ele>
        <time>2018-05-19T11:28:38Z</time>
      </trkpt>
      <trkpt lat="43.2309399918" lon="-4.2134824768">
        <ele>291.90</ele>
        <time>2018-05-19T11:28:43Z</time>
      </trkpt>
      <trkpt lat="43.2308427617" lon="-4.2135552317">
        <ele>293.34</ele>
        <time>2018-05-19T11:28:49Z</time>
      </trkpt>
      <trkpt lat="43.2307438552" lon="-4.2136220355">
        <ele>294.30</ele>
        <time>2018-05-19T11:28:55Z</time>
      </trkpt>
      <trkpt lat="43.2306452002" lon="-4.2136734165">
        <ele>296.22</ele>
        <time>2018-05-19T11:29:01Z</time>
      </trkpt>
      <trkpt lat="43.2305417676" lon="-4.2137459200">
        <ele>297.18</ele>
        <time>2018-05-19T11:29:08Z</time>
      </trkpt>
      <trkpt lat="43.2304448728" lon="-4.2138009891">
        <ele>298.15</ele>
        <time>2018-05-19T11:29:14Z</time>
      </trkpt>
      <trkpt lat="43.2303365786" lon="-4.2138470057">
        <ele>299.11</ele>
        <time>2018-05-19T11:29:21Z</time>
      </trkpt>
      <trkpt lat="43.2302349899" lon="-4.2139112949">
        <ele>301.03</ele>
        <time>2018-05-19T11:29:28Z</time>
      </trkpt>
      <trkpt lat="43.2301327307" lon="-4.2139575630">
        <ele>301.99</ele>
        <time>2018-05-19T11:29:34Z</time>
      </trkpt>
      <trkpt lat="43.2300405297" lon="-4.2139476724">
        <ele>303.43</ele>
        <time>2018-05-19T11:29:40Z</time>
      </trkpt>
      <trkpt lat="43.2299280446" lon="-4.2139076069">
        <ele>304.39</ele>
        <time>2018-05-19T11:29:46Z</time>
      </trkpt>
      <trkpt lat="43.2298165653" lon="-4.2138466705">
        <ele>305.36</ele>
        <time>2018-05-19T11:29:52Z</time>
      </trkpt>
      <trkpt lat="43.2297286391" lon="-4.2138340138">
        <ele>306.32</ele>
        <time>2018-05-19T11:29:57Z</time>
      </trkpt>
      <trkpt lat="43.2296459097" lon="-4.2139110435">
        <ele>307.76</ele>
        <time>2018-05-19T11:30:03Z</time>
      </trkpt>
      <trkpt lat="43.2296034135" lon="-4.2140449863">
        <ele>309.20</ele>
        <time>2018-05-19T11:30:09Z</time>
      </trkpt>
      <trkpt lat="43.2295962051" lon="-4.2142030690">
        <ele>310.64</ele>
        <time>2018-05-19T11:30:16Z</time>
      </trkpt>
      <trkpt lat="43.2295721490" lon="-4.2143381014">
        <ele>312.09</ele>
        <time>2018-05-19T11:30:22Z</time>
      </trkpt>
      <trkpt lat="43.2294888329" lon="-4.2144266143">
        <ele>313.53</ele>
        <time>2018-05-19T11:30:28Z</time>
      </trkpt>
      <trkpt lat="43.2294004038" lon="-4.2144935858">
        <ele>314.97</ele>
        <time>2018-05-19T11:30:34Z</time>
      </trkpt>
      <trkpt lat="43.2292977255" lon="-4.2145215813">
        <ele>316.41</ele>
        <time>2018-05-19T11:30:40Z</time>
      </trkpt>
      <trkpt lat="43.2291888446" lon="-4.2145797517">
        <ele>317.37</ele>
        <time>2018-05-19T11:30:47Z</time>
      </trkpt>
      <trkpt lat="43.2290648762" lon="-4.2145861220">
        <ele>318.81</ele>
        <time>2018-05-19T11:30:53Z</time>
      </trkpt>
      <trkpt lat="43.2289580069" lon="-4.2145395186">
        <ele>319.78</ele>
        <time>2018-05-19T11:30:59Z</time>
      </trkpt>
      <trkpt lat="43.2288488746" lon="-4.2145255208">
        <ele>321.22</ele>
        <time>2018-05-19T11:31:05Z</time>
      </trkpt>
      <trkpt lat="43.2287563384" lon="-4.2145225871">
        <ele>322.18</ele>
        <time>2018-05-19T11:31:11Z</time>
      </trkpt>
      <trkpt lat="43.2286457811" lon="-4.2145126965">
        <ele>323.62</ele>
        <time>2018-05-19T11:31:17Z</time>
      </trkpt>
      <trkpt lat="43.2285453659" lon="-4.2144836951">
        <ele>324.58</ele>
        <time>2018-05-19T11:31:23Z</time>
      </trkpt>
      <trkpt lat="43.2284390833" lon="-4.2144574597">
        <ele>326.02</ele>
        <time>2018-05-19T11:31:29Z</time>
      </trkpt>
      <trkpt lat="43.2283389196" lon="-4.2144228425">
        <ele>326.99</ele>
        <time>2018-05-19T11:31:35Z</time>
      </trkpt>
      <trkpt lat="43.2282297872" lon="-4.2144046538">
        <ele>328.91</ele>
        <time>2018-05-19T11:31:41Z</time>
      </trkpt>
      <trkpt lat="43.2281298749" lon="-4.2144071683">
        <ele>329.87</ele>
        <time>2018-05-19T11:31:47Z</time>
      </trkpt>
      <trkpt lat="43.2280302979" lon="-4.2144347448">
        <ele>330.83</ele>
        <time>2018-05-19T11:31:53Z</time>
      </trkpt>
      <trkpt lat="43.2279297989" lon="-4.2144562863">
        <ele>332.27</ele>
        <time>2018-05-19T11:31:59Z</time>
      </trkpt>
      <trkpt lat="43.2278284617" lon="-4.2144769896">
        <ele>333.71</ele>
        <time>2018-05-19T11:32:05Z</time>
      </trkpt>
      <trkpt lat="43.2277349196" lon="-4.2145021353">
        <ele>335.16</ele>
        <time>2018-05-19T11:32:11Z</time>
      </trkpt>
      <trkpt lat="43.2276272122" lon="-4.2145480681">
        <ele>337.08</ele>
        <time>2018-05-19T11:32:18Z</time>
      </trkpt>
      <trkpt lat="43.2275287248" lon="-4.2146050651">
        <ele>338.04</ele>
        <time>2018-05-19T11:32:24Z</time>
      </trkpt>
      <trkpt lat="43.2274268847" lon="-4.2145865411">
        <ele>339.00</ele>
        <time>2018-05-19T11:32:30Z</time>
      </trkpt>
      <trkpt lat="43.2273188420" lon="-4.2145582940">
        <ele>340.92</ele>
        <time>2018-05-19T11:32:36Z</time>
      </trkpt>
      <trkpt lat="43.2272083685" lon="-4.2145575397">
        <ele>341.89</ele>
        <time>2018-05-19T11:32:42Z</time>
      </trkpt>
      <trkpt lat="43.2271063607" lon="-4.2146067414">
        <ele>343.33</ele>
        <time>2018-05-19T11:32:48Z</time>
      </trkpt>
      <trkpt lat="43.2270007487" lon="-4.2146484833">
        <ele>344.29</ele>
        <time>2018-05-19T11:32:55Z</time>
      </trkpt>
      <trkpt lat="43.2268904429" lon="-4.2146657500">
        <ele>344.77</ele>
        <time>2018-05-19T11:33:01Z</time>
      </trkpt>
      <trkpt lat="43.2267825678" lon="-4.2146615591">
        <ele>346.69</ele>
        <time>2018-05-19T11:33:07Z</time>
      </trkpt>
      <trkpt lat="43.2266638801" lon="-4.2146471422">
        <ele>347.65</ele>
        <time>2018-05-19T11:33:13Z</time>
      </trkpt>
      <trkpt lat="43.2265513111" lon="-4.2146516684">
        <ele>349.10</ele>
        <time>2018-05-19T11:33:19Z</time>
      </trkpt>
      <trkpt lat="43.2264478784" lon="-4.2146689352">
        <ele>349.58</ele>
        <time>2018-05-19T11:33:25Z</time>
      </trkpt>
      <trkpt lat="43.2263391651" lon="-4.2146886326">
        <ele>351.50</ele>
        <time>2018-05-19T11:33:31Z</time>
      </trkpt>
      <trkpt lat="43.2262364868" lon="-4.2146261875">
        <ele>352.46</ele>
        <time>2018-05-19T11:33:37Z</time>
      </trkpt>
      <trkpt lat="43.2261427771" lon="-4.2145393509">
        <ele>353.90</ele>
        <time>2018-05-19T11:33:43Z</time>
      </trkpt>
      <trkpt lat="43.2260558568" lon="-4.2144635785">
        <ele>355.34</ele>
        <time>2018-05-19T11:33:49Z</time>
      </trkpt>
      <trkpt lat="43.2259606384" lon="-4.2144293804">
        <ele>356.79</ele>
        <time>2018-05-19T11:33:54Z</time>
      </trkpt>
      <trkpt lat="43.2258803397" lon="-4.2145108525">
        <ele>358.23</ele>
        <time>2018-05-19T11:34:01Z</time>
      </trkpt>
      <trkpt lat="43.2259313017" lon="-4.2146379221">
        <ele>358.71</ele>
        <time>2018-05-19T11:34:07Z</time>
      </trkpt>
      <trkpt lat="43.2260189764" lon="-4.2147178855">
        <ele>359.19</ele>
        <time>2018-05-19T11:34:12Z</time>
      </trkpt>
      <trkpt lat="43.2261068188" lon="-4.2147908080">
        <ele>360.15</ele>
        <time>2018-05-19T11:34:17Z</time>
      </trkpt>
      <trkpt lat="43.2261968404" lon="-4.2148571089">
        <ele>360.63</ele>
        <time>2018-05-19T11:34:22Z</time>
      </trkpt>
      <trkpt lat="43.2262924779" lon="-4.2149046343">
        <ele>361.11</ele>
        <time>2018-05-19T11:34:27Z</time>
      </trkpt>
      <trkpt lat="43.2263976708" lon="-4.2149253376">
        <ele>362.55</ele>
        <time>2018-05-19T11:34:32Z</time>
      </trkpt>
      <trkpt lat="43.2265019417" lon="-4.2149410956">
        <ele>363.52</ele>
        <time>2018-05-19T11:34:37Z</time>
      </trkpt>
      <trkpt lat="43.2266013511" lon="-4.2149593681">
        <ele>364.48</ele>
        <time>2018-05-19T11:34:42Z</time>
      </trkpt>
      <trkpt lat="43.2267013472" lon="-4.2150267586">
        <ele>365.92</ele>
        <time>2018-05-19T11:34:47Z</time>
      </trkpt>
      <trkpt lat="43.2266891096" lon="-4.2151434347">
        <ele>366.88</ele>
        <time>2018-05-19T11:34:52Z</time>
      </trkpt>
      <trkpt lat="43.2266007643" lon="-4.2151498049">
        <ele>367.36</ele>
        <time>2018-05-19T11:34:56Z</time>
      </trkpt>
      <trkpt lat="43.2264925539" lon="-4.2151320353">
        <ele>367.36</ele>
        <time>2018-05-19T11:35:01Z</time>
      </trkpt>
      <trkpt lat="43.2263961621" lon="-4.2151460331">
        <ele>368.32</ele>
        <time>2018-05-19T11:35:05Z</time>
      </trkpt>
      <trkpt lat="43.2263057213" lon="-4.2151793931">
        <ele>368.80</ele>
        <time>2018-05-19T11:35:09Z</time>
      </trkpt>
      <trkpt lat="43.2262125984" lon="-4.2152353842">
        <ele>369.28</ele>
        <time>2018-05-19T11:35:13Z</time>
      </trkpt>
      <trkpt lat="43.2261188049" lon="-4.2152917106">
        <ele>369.76</ele>
        <time>2018-05-19T11:35:17Z</time>
      </trkpt>
      <trkpt lat="43.2260415237" lon="-4.2153665610">
        <ele>371.21</ele>
        <time>2018-05-19T11:35:21Z</time>
      </trkpt>
      <trkpt lat="43.2259655837" lon="-4.2154351249">
        <ele>372.17</ele>
        <time>2018-05-19T11:35:25Z</time>
      </trkpt>
      <trkpt lat="43.2258933317" lon="-4.2155270744">
        <ele>373.13</ele>
        <time>2018-05-19T11:35:29Z</time>
      </trkpt>
      <trkpt lat="43.2258007955" lon="-4.2156113125">
        <ele>374.09</ele>
        <time>2018-05-19T11:35:34Z</time>
      </trkpt>
      <trkpt lat="43.2256987877" lon="-4.2156581674">
        <ele>374.57</ele>
        <time>2018-05-19T11:35:39Z</time>
      </trkpt>
      <trkpt lat="43.2255883142" lon="-4.2156803794">
        <ele>375.53</ele>
        <time>2018-05-19T11:35:44Z</time>
      </trkpt>
      <trkpt lat="43.2254840434" lon="-4.2156979814">
        <ele>376.97</ele>
        <time>2018-05-19T11:35:49Z</time>
      </trkpt>
      <trkpt lat="43.2253861427" lon="-4.2157021724">
        <ele>378.42</ele>
        <time>2018-05-19T11:35:54Z</time>
      </trkpt>
      <trkpt lat="43.2252892479" lon="-4.2157286592">
        <ele>379.86</ele>
        <time>2018-05-19T11:35:59Z</time>
      </trkpt>
      <trkpt lat="43.2252101228" lon="-4.2158002406">
        <ele>380.34</ele>
        <time>2018-05-19T11:36:04Z</time>
      </trkpt>
      <trkpt lat="43.2251420617" lon="-4.2158981413">
        <ele>381.30</ele>
        <time>2018-05-19T11:36:09Z</time>
      </trkpt>
      <trkpt lat="43.2250580750" lon="-4.2159769312">
        <ele>382.74</ele>
        <time>2018-05-19T11:36:15Z</time>
      </trkpt>
      <trkpt lat="43.2249482721" lon="-4.2159781884">
        <ele>384.18</ele>
        <time>2018-05-19T11:36:21Z</time>
      </trkpt>
      <trkpt lat="43.2248408999" lon="-4.2159979697">
        <ele>385.15</ele>
        <time>2018-05-19T11:36:27Z</time>
      </trkpt>
      <trkpt lat="43.2247493695" lon="-4.2160211038">
        <ele>386.11</ele>
        <time>2018-05-19T11:36:32Z</time>
      </trkpt>
      <trkpt lat="43.2246450149" lon="-4.2160527874">
        <ele>387.07</ele>
        <time>2018-05-19T11:36:38Z</time>
      </trkpt>
      <trkpt lat="43.2245463599" lon="-4.2160823755">
        <ele>388.99</ele>
        <time>2018-05-19T11:36:44Z</time>
      </trkpt>
      <trkpt lat="43.2244503032" lon="-4.2161214352">
        <ele>389.95</ele>
        <time>2018-05-19T11:36:50Z</time>
      </trkpt>
      <trkpt lat="43.2243652269" lon="-4.2161864787">
        <ele>390.91</ele>
        <time>2018-05-19T11:36:56Z</time>
      </trkpt>
      <trkpt lat="43.2242626324" lon="-4.2162749916">
        <ele>392.36</ele>
        <time>2018-05-19T11:37:02Z</time>
      </trkpt>
      <trkpt lat="43.2241654862" lon="-4.2163429689">
        <ele>392.84</ele>
        <time>2018-05-19T11:37:07Z</time>
      </trkpt>
      <trkpt lat="43.2240790688" lon="-4.2164030671">
        <ele>393.80</ele>
        <time>2018-05-19T11:37:12Z</time>
      </trkpt>
      <trkpt lat="43.2239949144" lon="-4.2164671049">
        <ele>394.28</ele>
        <time>2018-05-19T11:37:17Z</time>
      </trkpt>
      <trkpt lat="43.2239135262" lon="-4.2165331542">
        <ele>395.72</ele>
        <time>2018-05-19T11:37:22Z</time>
      </trkpt>
      <trkpt lat="43.2238222472" lon="-4.2166122794">
        <ele>397.16</ele>
        <time>2018-05-19T11:37:28Z</time>
      </trkpt>
      <trkpt lat="43.2237231731" lon="-4.2166739702">
        <ele>397.64</ele>
        <time>2018-05-19T11:37:34Z</time>
      </trkpt>
      <trkpt lat="43.2236232609" lon="-4.2167414445">
        <ele>399.08</ele>
        <time>2018-05-19T11:37:40Z</time>
      </trkpt>
      <trkpt lat="43.2235418726" lon="-4.2168168817">
        <ele>400.05</ele>
        <time>2018-05-19T11:37:46Z</time>
      </trkpt>
      <trkpt lat="43.2234364282" lon="-4.2168823443">
        <ele>401.01</ele>
        <time>2018-05-19T11:37:52Z</time>
      </trkpt>
      <trkpt lat="43.2233470771" lon="-4.2169402633">
        <ele>402.45</ele>
        <time>2018-05-19T11:37:57Z</time>
      </trkpt>
      <trkpt lat="43.2232467458" lon="-4.2170030437">
        <ele>403.41</ele>
        <time>2018-05-19T11:38:02Z</time>
      </trkpt>
      <trkpt lat="43.2231565565" lon="-4.2170470487">
        <ele>403.89</ele>
        <time>2018-05-19T11:38:08Z</time>
      </trkpt>
      <trkpt lat="43.2230527885" lon="-4.2170963343">
        <ele>404.85</ele>
        <time>2018-05-19T11:38:13Z</time>
      </trkpt>
      <trkpt lat="43.2229377050" lon="-4.2171184625">
        <ele>406.29</ele>
        <time>2018-05-19T11:38:19Z</time>
      </trkpt>
      <trkpt lat="43.2228317577" lon="-4.2171443626">
        <ele>407.26</ele>
        <time>2018-05-19T11:38:25Z</time>
      </trkpt>
      <trkpt lat="43.2227276545" lon="-4.2171753757">
        <ele>408.22</ele>
        <time>2018-05-19T11:38:30Z</time>
      </trkpt>
      <trkpt lat="43.2226280775" lon="-4.2171923071">
        <ele>409.66</ele>
        <time>2018-05-19T11:38:35Z</time>
      </trkpt>
      <trkpt lat="43.2225358766" lon="-4.2171911336">
        <ele>410.14</ele>
        <time>2018-05-19T11:38:40Z</time>
      </trkpt>
      <trkpt lat="43.2224295102" lon="-4.2171872780">
        <ele>411.10</ele>
        <time>2018-05-19T11:38:46Z</time>
      </trkpt>
      <trkpt lat="43.2223383989" lon="-4.2172762100">
        <ele>412.06</ele>
        <time>2018-05-19T11:38:51Z</time>
      </trkpt>
      <trkpt lat="43.2222664822" lon="-4.2173978314">
        <ele>412.54</ele>
        <time>2018-05-19T11:38:56Z</time>
      </trkpt>
      <trkpt lat="43.2222047076" lon="-4.2174907029">
        <ele>413.50</ele>
        <time>2018-05-19T11:39:01Z</time>
      </trkpt>
      <trkpt lat="43.2221244927" lon="-4.2175553273">
        <ele>414.47</ele>
        <time>2018-05-19T11:39:06Z</time>
      </trkpt>
      <trkpt lat="43.2220247481" lon="-4.2176325247">
        <ele>415.43</ele>
        <time>2018-05-19T11:39:12Z</time>
      </trkpt>
      <trkpt lat="43.2218991872" lon="-4.2176813073">
        <ele>416.39</ele>
        <time>2018-05-19T11:39:18Z</time>
      </trkpt>
      <trkpt lat="43.2217802480" lon="-4.2177153379">
        <ele>416.87</ele>
        <time>2018-05-19T11:39:23Z</time>
      </trkpt>
      <trkpt lat="43.2216714509" lon="-4.2177422438">
        <ele>417.83</ele>
        <time>2018-05-19T11:39:28Z</time>
      </trkpt>
      <trkpt lat="43.2215553615" lon="-4.2177688982">
        <ele>418.79</ele>
        <time>2018-05-19T11:39:33Z</time>
      </trkpt>
      <trkpt lat="43.2214479055" lon="-4.2177938763">
        <ele>419.27</ele>
        <time>2018-05-19T11:39:38Z</time>
      </trkpt>
      <trkpt lat="43.2213405333" lon="-4.2177942116">
        <ele>420.71</ele>
        <time>2018-05-19T11:39:43Z</time>
      </trkpt>
      <trkpt lat="43.2212337479" lon="-4.2177991569">
        <ele>422.16</ele>
        <time>2018-05-19T11:39:48Z</time>
      </trkpt>
      <trkpt lat="43.2211250346" lon="-4.2178108077">
        <ele>423.12</ele>
        <time>2018-05-19T11:39:53Z</time>
      </trkpt>
      <trkpt lat="43.2210260443" lon="-4.2178209499">
        <ele>423.60</ele>
        <time>2018-05-19T11:39:58Z</time>
      </trkpt>
      <trkpt lat="43.2209259644" lon="-4.2178217880">
        <ele>425.04</ele>
        <time>2018-05-19T11:40:03Z</time>
      </trkpt>
      <trkpt lat="43.2208182570" lon="-4.2177941278">
        <ele>426.00</ele>
        <time>2018-05-19T11:40:08Z</time>
      </trkpt>
      <trkpt lat="43.2207165007" lon="-4.2177542299">
        <ele>426.96</ele>
        <time>2018-05-19T11:40:13Z</time>
      </trkpt>
      <trkpt lat="43.2206358667" lon="-4.2177172657">
        <ele>427.44</ele>
        <time>2018-05-19T11:40:17Z</time>
      </trkpt>
      <trkpt lat="43.2205362897" lon="-4.2176891025">
        <ele>427.92</ele>
        <time>2018-05-19T11:40:22Z</time>
      </trkpt>
      <trkpt lat="43.2204315159" lon="-4.2176802177">
        <ele>428.40</ele>
        <time>2018-05-19T11:40:27Z</time>
      </trkpt>
      <trkpt lat="43.2203176059" lon="-4.2176831514">
        <ele>429.37</ele>
        <time>2018-05-19T11:40:32Z</time>
      </trkpt>
      <trkpt lat="43.2202146761" lon="-4.2176984902">
        <ele>430.33</ele>
        <time>2018-05-19T11:40:37Z</time>
      </trkpt>
      <trkpt lat="43.2201216370" lon="-4.2177067883">
        <ele>430.81</ele>
        <time>2018-05-19T11:40:42Z</time>
      </trkpt>
      <trkpt lat="43.2200284302" lon="-4.2177082971">
        <ele>432.25</ele>
        <time>2018-05-19T11:40:47Z</time>
      </trkpt>
      <trkpt lat="43.2199315354" lon="-4.2177064531">
        <ele>432.73</ele>
        <time>2018-05-19T11:40:51Z</time>
      </trkpt>
      <trkpt lat="43.2198314555" lon="-4.2176917847">
        <ele>433.69</ele>
        <time>2018-05-19T11:40:56Z</time>
      </trkpt>
      <trkpt lat="43.2197255921" lon="-4.2176709138">
        <ele>435.13</ele>
        <time>2018-05-19T11:41:01Z</time>
      </trkpt>
      <trkpt lat="43.2196331397" lon="-4.2176363803">
        <ele>436.10</ele>
        <time>2018-05-19T11:41:06Z</time>
      </trkpt>
      <trkpt lat="43.2195450459" lon="-4.2175758630">
        <ele>437.06</ele>
        <time>2018-05-19T11:41:11Z</time>
      </trkpt>
      <trkpt lat="43.2194525097" lon="-4.2175180279">
        <ele>438.02</ele>
        <time>2018-05-19T11:41:16Z</time>
      </trkpt>
      <trkpt lat="43.2193489932" lon="-4.2174705863">
        <ele>438.98</ele>
        <time>2018-05-19T11:41:21Z</time>
      </trkpt>
      <trkpt lat="43.2192553673" lon="-4.2174171936">
        <ele>440.42</ele>
        <time>2018-05-19T11:41:26Z</time>
      </trkpt>
      <trkpt lat="43.2191587240" lon="-4.2173539940">
        <ele>440.90</ele>
        <time>2018-05-19T11:41:31Z</time>
      </trkpt>
      <trkpt lat="43.2190635055" lon="-4.2172923032">
        <ele>441.86</ele>
        <time>2018-05-19T11:41:36Z</time>
      </trkpt>
      <trkpt lat="43.2189708855" lon="-4.2172211409">
        <ele>443.31</ele>
        <time>2018-05-19T11:41:41Z</time>
      </trkpt>
      <trkpt lat="43.2188912574" lon="-4.2171431892">
        <ele>444.27</ele>
        <time>2018-05-19T11:41:46Z</time>
      </trkpt>
      <trkpt lat="43.2188097015" lon="-4.2170706019">
        <ele>444.75</ele>
        <time>2018-05-19T11:41:51Z</time>
      </trkpt>
      <trkpt lat="43.2187326718" lon="-4.2169948295">
        <ele>445.71</ele>
        <time>2018-05-19T11:41:56Z</time>
      </trkpt>
      <trkpt lat="43.2186415605" lon="-4.2169043887">
        <ele>447.15</ele>
        <time>2018-05-19T11:42:02Z</time>
      </trkpt>
      <trkpt lat="43.2185641956" lon="-4.2168240063">
        <ele>448.59</ele>
        <time>2018-05-19T11:42:07Z</time>
      </trkpt>
      <trkpt lat="43.2184854057" lon="-4.2167576216">
        <ele>449.55</ele>
        <time>2018-05-19T11:42:12Z</time>
      </trkpt>
      <trkpt lat="43.2184012514" lon="-4.2166870460">
        <ele>450.52</ele>
        <time>2018-05-19T11:42:17Z</time>
      </trkpt>
      <trkpt lat="43.2183227967" lon="-4.2166120280">
        <ele>451.48</ele>
        <time>2018-05-19T11:42:22Z</time>
      </trkpt>
      <trkpt lat="43.2182447612" lon="-4.2165317293">
        <ele>451.96</ele>
        <time>2018-05-19T11:42:27Z</time>
      </trkpt>
      <trkpt lat="43.2181616966" lon="-4.2164536938">
        <ele>452.92</ele>
        <time>2018-05-19T11:42:32Z</time>
      </trkpt>
      <trkpt lat="43.2180844154" lon="-4.2163694557">
        <ele>454.36</ele>
        <time>2018-05-19T11:42:37Z</time>
      </trkpt>
      <trkpt lat="43.2180036139" lon="-4.2162869778">
        <ele>454.84</ele>
        <time>2018-05-19T11:42:42Z</time>
      </trkpt>
      <trkpt lat="43.2179268356" lon="-4.2161879875">
        <ele>455.32</ele>
        <time>2018-05-19T11:42:47Z</time>
      </trkpt>
      <trkpt lat="43.2178555895" lon="-4.2160821240">
        <ele>456.76</ele>
        <time>2018-05-19T11:42:52Z</time>
      </trkpt>
      <trkpt lat="43.2177997660" lon="-4.2159737460">
        <ele>456.76</ele>
        <time>2018-05-19T11:42:57Z</time>
      </trkpt>
      <trkpt lat="43.2177359797" lon="-4.2158683017">
        <ele>457.24</ele>
        <time>2018-05-19T11:43:02Z</time>
      </trkpt>
      <trkpt lat="43.2176718581" lon="-4.2157555651">
        <ele>458.21</ele>
        <time>2018-05-19T11:43:07Z</time>
      </trkpt>
      <trkpt lat="43.2176125981" lon="-4.2156515457">
        <ele>459.17</ele>
        <time>2018-05-19T11:43:12Z</time>
      </trkpt>
      <trkpt lat="43.2175473869" lon="-4.2155350372">
        <ele>460.13</ele>
        <time>2018-05-19T11:43:17Z</time>
      </trkpt>
      <trkpt lat="43.2174729556" lon="-4.2154231388">
        <ele>461.09</ele>
        <time>2018-05-19T11:43:22Z</time>
      </trkpt>
      <trkpt lat="43.2174117677" lon="-4.2153252382">
        <ele>462.05</ele>
        <time>2018-05-19T11:43:27Z</time>
      </trkpt>
      <trkpt lat="43.2173535973" lon="-4.2152241524">
        <ele>463.01</ele>
        <time>2018-05-19T11:43:32Z</time>
      </trkpt>
      <trkpt lat="43.2172889728" lon="-4.2151311133">
        <ele>463.97</ele>
        <time>2018-05-19T11:43:37Z</time>
      </trkpt>
      <trkpt lat="43.2172173075" lon="-4.2150339670">
        <ele>464.45</ele>
        <time>2018-05-19T11:43:42Z</time>
      </trkpt>
      <trkpt lat="43.2171516772" lon="-4.2149384972">
        <ele>465.90</ele>
        <time>2018-05-19T11:43:47Z</time>
      </trkpt>
      <trkpt lat="43.2170861308" lon="-4.2148320470">
        <ele>466.86</ele>
        <time>2018-05-19T11:43:52Z</time>
      </trkpt>
      <trkpt lat="43.2170079276" lon="-4.2147552688">
        <ele>468.30</ele>
        <time>2018-05-19T11:43:57Z</time>
      </trkpt>
      <trkpt lat="43.2169283833" lon="-4.2146877944">
        <ele>468.78</ele>
        <time>2018-05-19T11:44:02Z</time>
      </trkpt>
      <trkpt lat="43.2168599870" lon="-4.2145914026">
        <ele>470.22</ele>
        <time>2018-05-19T11:44:07Z</time>
      </trkpt>
      <trkpt lat="43.2167884056" lon="-4.2144981958">
        <ele>471.18</ele>
        <time>2018-05-19T11:44:13Z</time>
      </trkpt>
      <trkpt lat="43.2167110406" lon="-4.2144096829">
        <ele>472.14</ele>
        <time>2018-05-19T11:44:18Z</time>
      </trkpt>
      <trkpt lat="43.2166214380" lon="-4.2143360060">
        <ele>473.59</ele>
        <time>2018-05-19T11:44:24Z</time>
      </trkpt>
      <trkpt lat="43.2165237889" lon="-4.2142789252">
        <ele>474.55</ele>
        <time>2018-05-19T11:44:30Z</time>
      </trkpt>
      <trkpt lat="43.2164272293" lon="-4.2142137140">
        <ele>475.51</ele>
        <time>2018-05-19T11:44:36Z</time>
      </trkpt>
      <trkpt lat="43.2163291611" lon="-4.2141650151">
        <ele>476.47</ele>
        <time>2018-05-19T11:44:42Z</time>
      </trkpt>
      <trkpt lat="43.2162336074" lon="-4.2141380254">
        <ele>476.95</ele>
        <time>2018-05-19T11:44:47Z</time>
      </trkpt>
      <trkpt lat="43.2161383890" lon="-4.2141087726">
        <ele>477.91</ele>
        <time>2018-05-19T11:44:52Z</time>
      </trkpt>
      <trkpt lat="43.2160532288" lon="-4.2140595708">
        <ele>479.35</ele>
        <time>2018-05-19T11:44:57Z</time>
      </trkpt>
      <trkpt lat="43.2159599382" lon="-4.2140227742">
        <ele>479.84</ele>
        <time>2018-05-19T11:45:02Z</time>
      </trkpt>
      <trkpt lat="43.2158518955" lon="-4.2139915936">
        <ele>481.28</ele>
        <time>2018-05-19T11:45:08Z</time>
      </trkpt>
      <trkpt lat="43.2157498039" lon="-4.2139552161">
        <ele>482.24</ele>
        <time>2018-05-19T11:45:14Z</time>
      </trkpt>
      <trkpt lat="43.2156449463" lon="-4.2139346804">
        <ele>484.16</ele>
        <time>2018-05-19T11:45:20Z</time>
      </trkpt>
      <trkpt lat="43.2155373227" lon="-4.2139123008">
        <ele>484.64</ele>
        <time>2018-05-19T11:45:26Z</time>
      </trkpt>
      <trkpt lat="43.2154279388" lon="-4.2138833832">
        <ele>485.60</ele>
        <time>2018-05-19T11:45:32Z</time>
      </trkpt>
      <trkpt lat="43.2153136935" lon="-4.2138811201">
        <ele>487.05</ele>
        <time>2018-05-19T11:45:38Z</time>
      </trkpt>
      <trkpt lat="43.2152213249" lon="-4.2138773482">
        <ele>488.49</ele>
        <time>2018-05-19T11:45:43Z</time>
      </trkpt>
      <trkpt lat="43.2151189819" lon="-4.2138576508">
        <ele>488.97</ele>
        <time>2018-05-19T11:45:49Z</time>
      </trkpt>
      <trkpt lat="43.2150297984" lon="-4.2138278112">
        <ele>489.93</ele>
        <time>2018-05-19T11:45:54Z</time>
      </trkpt>
      <trkpt lat="43.2149223424" lon="-4.2138259672">
        <ele>491.37</ele>
        <time>2018-05-19T11:46:00Z</time>
      </trkpt>
      <trkpt lat="43.2148098573" lon="-4.2138179205">
        <ele>492.81</ele>
        <time>2018-05-19T11:46:06Z</time>
      </trkpt>
      <trkpt lat="43.2147045806" lon="-4.2137874942">
        <ele>494.74</ele>
        <time>2018-05-19T11:46:12Z</time>
      </trkpt>
      <trkpt lat="43.2146632578" lon="-4.2136708181">
        <ele>495.22</ele>
        <time>2018-05-19T11:46:17Z</time>
      </trkpt>
      <trkpt lat="43.2146598212" lon="-4.2135351989">
        <ele>495.70</ele>
        <time>2018-05-19T11:46:22Z</time>
      </trkpt>
      <trkpt lat="43.2146345079" lon="-4.2134056985">
        <ele>496.66</ele>
        <time>2018-05-19T11:46:27Z</time>
      </trkpt>
      <trkpt lat="43.2145692967" lon="-4.2132968176">
        <ele>497.62</ele>
        <time>2018-05-19T11:46:32Z</time>
      </trkpt>
      <trkpt lat="43.2144709770" lon="-4.2132409103">
        <ele>498.10</ele>
        <time>2018-05-19T11:46:37Z</time>
      </trkpt>
      <trkpt lat="43.2143776026" lon="-4.2132096458">
        <ele>499.06</ele>
        <time>2018-05-19T11:46:42Z</time>
      </trkpt>
      <trkpt lat="43.2142734155" lon="-4.2131832428">
        <ele>499.54</ele>
        <time>2018-05-19T11:46:47Z</time>
      </trkpt>
      <trkpt lat="43.2141692284" lon="-4.2131438479">
        <ele>500.98</ele>
        <time>2018-05-19T11:46:52Z</time>
      </trkpt>
      <trkpt lat="43.2140787039" lon="-4.2130896170">
        <ele>501.95</ele>
        <time>2018-05-19T11:46:57Z</time>
      </trkpt>
      <trkpt lat="43.2139782049" lon="-4.2130439356">
        <ele>502.91</ele>
        <time>2018-05-19T11:47:02Z</time>
      </trkpt>
      <trkpt lat="43.2138912845" lon="-4.2129971646">
        <ele>504.35</ele>
        <time>2018-05-19T11:47:07Z</time>
      </trkpt>
      <trkpt lat="43.2137964852" lon="-4.2129275110">
        <ele>504.83</ele>
        <time>2018-05-19T11:47:13Z</time>
      </trkpt>
      <trkpt lat="43.2137057930" lon="-4.2128763814">
        <ele>505.79</ele>
        <time>2018-05-19T11:47:18Z</time>
      </trkpt>
      <trkpt lat="43.2136238180" lon="-4.2129197158">
        <ele>507.23</ele>
        <time>2018-05-19T11:47:23Z</time>
      </trkpt>
      <trkpt lat="43.2136192080" lon="-4.2130467016">
        <ele>508.67</ele>
        <time>2018-05-19T11:47:28Z</time>
      </trkpt>
      <trkpt lat="43.2136716787" lon="-4.2131522298">
        <ele>509.16</ele>
        <time>2018-05-19T11:47:33Z</time>
      </trkpt>
      <trkpt lat="43.2137094811" lon="-4.2132890224">
        <ele>510.12</ele>
        <time>2018-05-19T11:47:39Z</time>
      </trkpt>
      <trkpt lat="43.2137154322" lon="-4.2134157568">
        <ele>511.56</ele>
        <time>2018-05-19T11:47:44Z</time>
      </trkpt>
      <trkpt lat="43.2136829104" lon="-4.2135383841">
        <ele>513.48</ele>
        <time>2018-05-19T11:47:49Z</time>
      </trkpt>
      <trkpt lat="43.2136236504" lon="-4.2136372067">
        <ele>513.96</ele>
        <time>2018-05-19T11:47:54Z</time>
      </trkpt>
      <trkpt lat="43.2135498896" lon="-4.2137366999">
        <ele>515.40</ele>
        <time>2018-05-19T11:48:01Z</time>
      </trkpt>
      <trkpt lat="43.2134716865" lon="-4.2138086166">
        <ele>516.37</ele>
        <time>2018-05-19T11:48:06Z</time>
      </trkpt>
      <trkpt lat="43.2133875322" lon="-4.2139052600">
        <ele>517.81</ele>
        <time>2018-05-19T11:48:12Z</time>
      </trkpt>
      <trkpt lat="43.2133245841" lon="-4.2140296474">
        <ele>518.29</ele>
        <time>2018-05-19T11:48:18Z</time>
      </trkpt>
      <trkpt lat="43.2132907212" lon="-4.2141568847">
        <ele>519.73</ele>
        <time>2018-05-19T11:48:23Z</time>
      </trkpt>
      <trkpt lat="43.2132551819" lon="-4.2142961081">
        <ele>520.69</ele>
        <time>2018-05-19T11:48:29Z</time>
      </trkpt>
      <trkpt lat="43.2132030465" lon="-4.2144288775">
        <ele>522.13</ele>
        <time>2018-05-19T11:48:35Z</time>
      </trkpt>
      <trkpt lat="43.2131563593" lon="-4.2145648319">
        <ele>523.09</ele>
        <time>2018-05-19T11:48:41Z</time>
      </trkpt>
      <trkpt lat="43.2131259330" lon="-4.2147043906">
        <ele>524.54</ele>
        <time>2018-05-19T11:48:47Z</time>
      </trkpt>
      <trkpt lat="43.2131369971" lon="-4.2148407642">
        <ele>525.98</ele>
        <time>2018-05-19T11:48:53Z</time>
      </trkpt>
      <trkpt lat="43.2131767273" lon="-4.2149674986">
        <ele>527.42</ele>
        <time>2018-05-19T11:48:59Z</time>
      </trkpt>
      <trkpt lat="43.2132576127" lon="-4.2150314525">
        <ele>528.38</ele>
        <time>2018-05-19T11:49:05Z</time>
      </trkpt>
      <trkpt lat="43.2133530825" lon="-4.2150734458">
        <ele>529.34</ele>
        <time>2018-05-19T11:49:10Z</time>
      </trkpt>
      <trkpt lat="43.2134547550" lon="-4.2151270900">
        <ele>530.30</ele>
        <time>2018-05-19T11:49:16Z</time>
      </trkpt>
      <trkpt lat="43.2135407533" lon="-4.2151936423">
        <ele>530.79</ele>
        <time>2018-05-19T11:49:21Z</time>
      </trkpt>
      <trkpt lat="43.2136111613" lon="-4.2153014336">
        <ele>532.71</ele>
        <time>2018-05-19T11:49:27Z</time>
      </trkpt>
      <trkpt lat="43.2136668172" lon="-4.2154006753">
        <ele>532.71</ele>
        <time>2018-05-19T11:49:32Z</time>
      </trkpt>
      <trkpt lat="43.2137066312" lon="-4.2155154236">
        <ele>534.15</ele>
        <time>2018-05-19T11:49:38Z</time>
      </trkpt>
      <trkpt lat="43.2137285080" lon="-4.2156504560">
        <ele>535.59</ele>
        <time>2018-05-19T11:49:44Z</time>
      </trkpt>
      <trkpt lat="43.2137544919" lon="-4.2158094607">
        <ele>536.55</ele>
        <time>2018-05-19T11:49:50Z</time>
      </trkpt>
      <trkpt lat="43.2137611974" lon="-4.2159416433">
        <ele>537.51</ele>
        <time>2018-05-19T11:49:55Z</time>
      </trkpt>
      <trkpt lat="43.2137382310" lon="-4.2160644382">
        <ele>538.48</ele>
        <time>2018-05-19T11:50:00Z</time>
      </trkpt>
      <trkpt lat="43.2136596087" lon="-4.2161490116">
        <ele>539.44</ele>
        <time>2018-05-19T11:50:05Z</time>
      </trkpt>
      <trkpt lat="43.2135697547" lon="-4.2162280530">
        <ele>540.88</ele>
        <time>2018-05-19T11:50:11Z</time>
      </trkpt>
      <trkpt lat="43.2134841755" lon="-4.2162901629">
        <ele>541.36</ele>
        <time>2018-05-19T11:50:16Z</time>
      </trkpt>
      <trkpt lat="43.2133794017" lon="-4.2163211759">
        <ele>542.80</ele>
        <time>2018-05-19T11:50:22Z</time>
      </trkpt>
      <trkpt lat="43.2132712752" lon="-4.2163371015">
        <ele>544.24</ele>
        <time>2018-05-19T11:50:28Z</time>
      </trkpt>
      <trkpt lat="43.2131607179" lon="-4.2163485009">
        <ele>544.72</ele>
        <time>2018-05-19T11:50:34Z</time>
      </trkpt>
      <trkpt lat="43.2130543515" lon="-4.2163591459">
        <ele>546.17</ele>
        <time>2018-05-19T11:50:40Z</time>
      </trkpt>
      <trkpt lat="43.2129660901" lon="-4.2163775861">
        <ele>547.13</ele>
        <time>2018-05-19T11:50:45Z</time>
      </trkpt>
      <trkpt lat="43.2128653396" lon="-4.2164017260">
        <ele>548.09</ele>
        <time>2018-05-19T11:50:51Z</time>
      </trkpt>
      <trkpt lat="43.2127634156" lon="-4.2164421268">
        <ele>549.53</ele>
        <time>2018-05-19T11:50:57Z</time>
      </trkpt>
      <trkpt lat="43.2126675267" lon="-4.2164787557">
        <ele>550.49</ele>
        <time>2018-05-19T11:51:03Z</time>
      </trkpt>
      <trkpt lat="43.2125863899" lon="-4.2165323161">
        <ele>551.93</ele>
        <time>2018-05-19T11:51:08Z</time>
      </trkpt>
      <trkpt lat="43.2125024032" lon="-4.2165780813">
        <ele>552.90</ele>
        <time>2018-05-19T11:51:13Z</time>
      </trkpt>
      <trkpt lat="43.2124050055" lon="-4.2166180629">
        <ele>554.34</ele>
        <time>2018-05-19T11:51:18Z</time>
      </trkpt>
      <trkpt lat="43.2123071048" lon="-4.2166367546">
        <ele>555.78</ele>
        <time>2018-05-19T11:51:23Z</time>
      </trkpt>
      <trkpt lat="43.2122132275" lon="-4.2166634090">
        <ele>556.26</ele>
        <time>2018-05-19T11:51:28Z</time>
      </trkpt>
      <trkpt lat="43.2121062744" lon="-4.2166856211">
        <ele>557.22</ele>
        <time>2018-05-19T11:51:34Z</time>
      </trkpt>
      <trkpt lat="43.2120096311" lon="-4.2166814301">
        <ele>558.18</ele>
        <time>2018-05-19T11:51:39Z</time>
      </trkpt>
      <trkpt lat="43.2118976489" lon="-4.2166814301">
        <ele>560.11</ele>
        <time>2018-05-19T11:51:46Z</time>
      </trkpt>
      <trkpt lat="43.2118055318" lon="-4.2166774906">
        <ele>561.07</ele>
        <time>2018-05-19T11:51:51Z</time>
      </trkpt>
      <trkpt lat="43.2116983272" lon="-4.2166819330">
        <ele>562.51</ele>
        <time>2018-05-19T11:51:57Z</time>
      </trkpt>
      <trkpt lat="43.2115857583" lon="-4.2166862916">
        <ele>563.47</ele>
        <time>2018-05-19T11:52:03Z</time>
      </trkpt>
      <trkpt lat="43.2114794757" lon="-4.2167183943">
        <ele>564.43</ele>
        <time>2018-05-19T11:52:09Z</time>
      </trkpt>
      <trkpt lat="43.2113900408" lon="-4.2167763971">
        <ele>564.91</ele>
        <time>2018-05-19T11:52:14Z</time>
      </trkpt>
      <trkpt lat="43.2112809084" lon="-4.2168148700">
        <ele>566.35</ele>
        <time>2018-05-19T11:52:20Z</time>
      </trkpt>
      <trkpt lat="43.2111717761" lon="-4.2168456316">
        <ele>567.80</ele>
        <time>2018-05-19T11:52:26Z</time>
      </trkpt>
      <trkpt lat="43.2110789046" lon="-4.2168845236">
        <ele>569.24</ele>
        <time>2018-05-19T11:52:32Z</time>
      </trkpt>
      <trkpt lat="43.2109847758" lon="-4.2169351503">
        <ele>570.68</ele>
        <time>2018-05-19T11:52:37Z</time>
      </trkpt>
      <trkpt lat="43.2108762302" lon="-4.2169531714">
        <ele>572.12</ele>
        <time>2018-05-19T11:52:43Z</time>
      </trkpt>
      <trkpt lat="43.2108124439" lon="-4.2168761417">
        <ele>573.08</ele>
        <time>2018-05-19T11:52:48Z</time>
      </trkpt>
      <trkpt lat="43.2107821014" lon="-4.2167410254">
        <ele>574.53</ele>
        <time>2018-05-19T11:52:54Z</time>
      </trkpt>
      <trkpt lat="43.2107920758" lon="-4.2166079208">
        <ele>575.49</ele>
        <time>2018-05-19T11:52:59Z</time>
      </trkpt>
      <trkpt lat="43.2108095102" lon="-4.2164857127">
        <ele>575.97</ele>
        <time>2018-05-19T11:53:04Z</time>
      </trkpt>
      <trkpt lat="43.2108216640" lon="-4.2163520213">
        <ele>576.45</ele>
        <time>2018-05-19T11:53:09Z</time>
      </trkpt>
      <trkpt lat="43.2108070794" lon="-4.2162089422">
        <ele>577.89</ele>
        <time>2018-05-19T11:53:15Z</time>
      </trkpt>
      <trkpt lat="43.2107841130" lon="-4.2160805315">
        <ele>578.37</ele>
        <time>2018-05-19T11:53:20Z</time>
      </trkpt>
      <trkpt lat="43.2107614819" lon="-4.2159578204">
        <ele>578.85</ele>
        <time>2018-05-19T11:53:25Z</time>
      </trkpt>
      <trkpt lat="43.2107203268" lon="-4.2158408929">
        <ele>579.81</ele>
        <time>2018-05-19T11:53:30Z</time>
      </trkpt>
      <trkpt lat="43.2106673531" lon="-4.2157310061">
        <ele>580.77</ele>
        <time>2018-05-19T11:53:35Z</time>
      </trkpt>
      <trkpt lat="43.2106077578" lon="-4.2156292498">
        <ele>581.73</ele>
        <time>2018-05-19T11:53:40Z</time>
      </trkpt>
      <trkpt lat="43.2105412055" lon="-4.2155324388">
        <ele>582.22</ele>
        <time>2018-05-19T11:53:45Z</time>
      </trkpt>
      <trkpt lat="43.2104723062" lon="-4.2154197861">
        <ele>583.66</ele>
        <time>2018-05-19T11:53:51Z</time>
      </trkpt>
      <trkpt lat="43.2104021497" lon="-4.2153068818">
        <ele>585.10</ele>
        <time>2018-05-19T11:53:57Z</time>
      </trkpt>
      <trkpt lat="43.2103309873" lon="-4.2151924688">
        <ele>586.06</ele>
        <time>2018-05-19T11:54:03Z</time>
      </trkpt>
      <trkpt lat="43.2102567237" lon="-4.2150710151">
        <ele>587.02</ele>
        <time>2018-05-19T11:54:09Z</time>
      </trkpt>
      <trkpt lat="43.2101892494" lon="-4.2149781436">
        <ele>588.46</ele>
        <time>2018-05-19T11:54:14Z</time>
      </trkpt>
      <trkpt lat="43.2101109624" lon="-4.2148918938">
        <ele>589.43</ele>
        <time>2018-05-19T11:54:20Z</time>
      </trkpt>
      <trkpt lat="43.2100309990" lon="-4.2148040514">
        <ele>590.39</ele>
        <time>2018-05-19T11:54:26Z</time>
      </trkpt>
      <trkpt lat="43.2099416479" lon="-4.2147028819">
        <ele>591.83</ele>
        <time>2018-05-19T11:54:32Z</time>
      </trkpt>
      <trkpt lat="43.2098643668" lon="-4.2146060709">
        <ele>592.79</ele>
        <time>2018-05-19T11:54:38Z</time>
      </trkpt>
      <trkpt lat="43.2097884268" lon="-4.2145269457">
        <ele>594.23</ele>
        <time>2018-05-19T11:54:43Z</time>
      </trkpt>
      <trkpt lat="43.2096935436" lon="-4.2144420370">
        <ele>595.19</ele>
        <time>2018-05-19T11:54:49Z</time>
      </trkpt>
      <trkpt lat="43.2096046116" lon="-4.2143889796">
        <ele>595.67</ele>
        <time>2018-05-19T11:54:54Z</time>
      </trkpt>
      <trkpt lat="43.2095095608" lon="-4.2143163085">
        <ele>597.12</ele>
        <time>2018-05-19T11:55:00Z</time>
      </trkpt>
      <trkpt lat="43.2094217185" lon="-4.2142254487">
        <ele>598.08</ele>
        <time>2018-05-19T11:55:06Z</time>
      </trkpt>
      <trkpt lat="43.2093368936" lon="-4.2141557112">
        <ele>599.52</ele>
        <time>2018-05-19T11:55:12Z</time>
      </trkpt>
      <trkpt lat="43.2092472911" lon="-4.2141904961">
        <ele>600.96</ele>
        <time>2018-05-19T11:55:18Z</time>
      </trkpt>
      <trkpt lat="43.2092641387" lon="-4.2143082619">
        <ele>601.92</ele>
        <time>2018-05-19T11:55:24Z</time>
      </trkpt>
      <trkpt lat="43.2093332894" lon="-4.2144106887">
        <ele>602.88</ele>
        <time>2018-05-19T11:55:30Z</time>
      </trkpt>
      <trkpt lat="43.2093700022" lon="-4.2145302147">
        <ele>604.33</ele>
        <time>2018-05-19T11:55:35Z</time>
      </trkpt>
      <trkpt lat="43.2093922980" lon="-4.2146789934">
        <ele>605.77</ele>
        <time>2018-05-19T11:55:41Z</time>
      </trkpt>
      <trkpt lat="43.2094051223" lon="-4.2148344778">
        <ele>606.73</ele>
        <time>2018-05-19T11:55:46Z</time>
      </trkpt>
      <trkpt lat="43.2094160188" lon="-4.2149770539">
        <ele>607.69</ele>
        <time>2018-05-19T11:55:51Z</time>
      </trkpt>
      <trkpt lat="43.2094236463" lon="-4.2151207197">
        <ele>608.65</ele>
        <time>2018-05-19T11:55:56Z</time>
      </trkpt>
      <trkpt lat="43.2094264124" lon="-4.2152501363">
        <ele>610.09</ele>
        <time>2018-05-19T11:56:01Z</time>
      </trkpt>
      <trkpt lat="43.2094146777" lon="-4.2153777089">
        <ele>610.57</ele>
        <time>2018-05-19T11:56:06Z</time>
      </trkpt>
      <trkpt lat="43.2093921304" lon="-4.2155179381">
        <ele>612.02</ele>
        <time>2018-05-19T11:56:12Z</time>
      </trkpt>
      <trkpt lat="43.2093618717" lon="-4.2156703211">
        <ele>612.50</ele>
        <time>2018-05-19T11:56:18Z</time>
      </trkpt>
      <trkpt lat="43.2093110774" lon="-4.2158107180">
        <ele>613.46</ele>
        <time>2018-05-19T11:56:24Z</time>
      </trkpt>
      <trkpt lat="43.2092367299" lon="-4.2159137316">
        <ele>614.90</ele>
        <time>2018-05-19T11:56:29Z</time>
      </trkpt>
      <trkpt lat="43.2091456186" lon="-4.2159121390">
        <ele>615.86</ele>
        <time>2018-05-19T11:56:34Z</time>
      </trkpt>
      <trkpt lat="43.2090669964" lon="-4.2158341873">
        <ele>617.78</ele>
        <time>2018-05-19T11:56:39Z</time>
      </trkpt>
      <trkpt lat="43.2090261765" lon="-4.2157016695">
        <ele>618.75</ele>
        <time>2018-05-19T11:56:44Z</time>
      </trkpt>
      <trkpt lat="43.2089856919" lon="-4.2155866697">
        <ele>620.19</ele>
        <time>2018-05-19T11:56:49Z</time>
      </trkpt>
      <trkpt lat="43.2089314610" lon="-4.2154545709">
        <ele>620.67</ele>
        <time>2018-05-19T11:56:55Z</time>
      </trkpt>
      <trkpt lat="43.2088837679" lon="-4.2153423373">
        <ele>621.63</ele>
        <time>2018-05-19T11:57:00Z</time>
      </trkpt>
      <trkpt lat="43.2088215742" lon="-4.2152337916">
        <ele>623.07</ele>
        <time>2018-05-19T11:57:05Z</time>
      </trkpt>
      <trkpt lat="43.2087577879" lon="-4.2151333764">
        <ele>624.03</ele>
        <time>2018-05-19T11:57:10Z</time>
      </trkpt>
      <trkpt lat="43.2086781599" lon="-4.2150587775">
        <ele>624.51</ele>
        <time>2018-05-19T11:57:15Z</time>
      </trkpt>
      <trkpt lat="43.2085977774" lon="-4.2149959970">
        <ele>625.47</ele>
        <time>2018-05-19T11:57:20Z</time>
      </trkpt>
      <trkpt lat="43.2085077558" lon="-4.2149227392">
        <ele>626.44</ele>
        <time>2018-05-19T11:57:26Z</time>
      </trkpt>
      <trkpt lat="43.2084011380" lon="-4.2148539238">
        <ele>627.88</ele>
        <time>2018-05-19T11:57:32Z</time>
      </trkpt>
      <trkpt lat="43.2083081827" lon="-4.2147992738">
        <ele>628.84</ele>
        <time>2018-05-19T11:57:37Z</time>
      </trkpt>
      <trkpt lat="43.2082221005" lon="-4.2147466354">
        <ele>629.32</ele>
        <time>2018-05-19T11:57:42Z</time>
      </trkpt>
      <trkpt lat="43.2081284747" lon="-4.2147038877">
        <ele>630.76</ele>
        <time>2018-05-19T11:57:47Z</time>
      </trkpt>
      <trkpt lat="43.2080352679" lon="-4.2146591283">
        <ele>631.24</ele>
        <time>2018-05-19T11:57:52Z</time>
      </trkpt>
      <trkpt lat="43.2079285663" lon="-4.2146294564">
        <ele>632.20</ele>
        <time>2018-05-19T11:57:57Z</time>
      </trkpt>
      <trkpt lat="43.2078293245" lon="-4.2146145366">
        <ele>633.17</ele>
        <time>2018-05-19T11:58:02Z</time>
      </trkpt>
      <trkpt lat="43.2077268139" lon="-4.2146166321">
        <ele>634.13</ele>
        <time>2018-05-19T11:58:07Z</time>
      </trkpt>
      <trkpt lat="43.2076277398" lon="-4.2146187276">
        <ele>635.09</ele>
        <time>2018-05-19T11:58:12Z</time>
      </trkpt>
      <trkpt lat="43.2075345330" lon="-4.2146517523">
        <ele>636.05</ele>
        <time>2018-05-19T11:58:17Z</time>
      </trkpt>
      <trkpt lat="43.2074317709" lon="-4.2146995291">
        <ele>637.49</ele>
        <time>2018-05-19T11:58:23Z</time>
      </trkpt>
      <trkpt lat="43.2073435932" lon="-4.2147482280">
        <ele>638.45</ele>
        <time>2018-05-19T11:58:28Z</time>
      </trkpt>
      <trkpt lat="43.2072554994" lon="-4.2147969268">
        <ele>638.45</ele>
        <time>2018-05-19T11:58:33Z</time>
      </trkpt>
      <trkpt lat="43.2071594428" lon="-4.2148369085">
        <ele>638.93</ele>
        <time>2018-05-19T11:58:38Z</time>
      </trkpt>
      <trkpt lat="43.2070570998" lon="-4.2148455419">
        <ele>640.38</ele>
        <time>2018-05-19T11:58:44Z</time>
      </trkpt>
      <trkpt lat="43.2069468778" lon="-4.2148361541">
        <ele>640.86</ele>
        <time>2018-05-19T11:58:50Z</time>
      </trkpt>
      <trkpt lat="43.2068361528" lon="-4.2148373276">
        <ele>641.82</ele>
        <time>2018-05-19T11:58:56Z</time>
      </trkpt>
      <trkpt lat="43.2067323849" lon="-4.2148224916">
        <ele>643.26</ele>
        <time>2018-05-19T11:59:01Z</time>
      </trkpt>
      <trkpt lat="43.2066369150" lon="-4.2147948314">
        <ele>644.70</ele>
        <time>2018-05-19T11:59:06Z</time>
      </trkpt>
      <trkpt lat="43.2065387629" lon="-4.2147747986">
        <ele>645.18</ele>
        <time>2018-05-19T11:59:11Z</time>
      </trkpt>
      <trkpt lat="43.2064391859" lon="-4.2147696018">
        <ele>646.14</ele>
        <time>2018-05-19T11:59:16Z</time>
      </trkpt>
      <trkpt lat="43.2063389383" lon="-4.2147473898">
        <ele>647.10</ele>
        <time>2018-05-19T11:59:21Z</time>
      </trkpt>
      <trkpt lat="43.2062437199" lon="-4.2147216573">
        <ele>648.07</ele>
        <time>2018-05-19T11:59:26Z</time>
      </trkpt>
      <trkpt lat="43.2061485015" lon="-4.2146992777">
        <ele>649.03</ele>
        <time>2018-05-19T11:59:31Z</time>
      </trkpt>
      <trkpt lat="43.2060425542" lon="-4.2146825138">
        <ele>649.51</ele>
        <time>2018-05-19T11:59:37Z</time>
      </trkpt>
      <trkpt lat="43.2059453242" lon="-4.2146851961">
        <ele>650.47</ele>
        <time>2018-05-19T11:59:42Z</time>
      </trkpt>
      <trkpt lat="43.2058508601" lon="-4.2146939132">
        <ele>651.91</ele>
        <time>2018-05-19T11:59:47Z</time>
      </trkpt>
      <trkpt lat="43.2057525404" lon="-4.2147102579">
        <ele>652.39</ele>
        <time>2018-05-19T11:59:52Z</time>
      </trkpt>
      <trkpt lat="43.2056556456" lon="-4.2147229984">
        <ele>653.35</ele>
        <time>2018-05-19T11:59:57Z</time>
      </trkpt>
      <trkpt lat="43.2055616844" lon="-4.2147139460">
        <ele>654.31</ele>
        <time>2018-05-19T12:00:02Z</time>
      </trkpt>
      <trkpt lat="43.2054618560" lon="-4.2146970984">
        <ele>655.76</ele>
        <time>2018-05-19T12:00:07Z</time>
      </trkpt>
      <trkpt lat="43.2053680625" lon="-4.2146598827">
        <ele>656.24</ele>
        <time>2018-05-19T12:00:12Z</time>
      </trkpt>
      <trkpt lat="43.2052726764" lon="-4.2146285344">
        <ele>657.20</ele>
        <time>2018-05-19T12:00:17Z</time>
      </trkpt>
      <trkpt lat="43.2051681541" lon="-4.2145936657">
        <ele>658.64</ele>
        <time>2018-05-19T12:00:22Z</time>
      </trkpt>
      <trkpt lat="43.2050769590" lon="-4.2145673465">
        <ele>659.12</ele>
        <time>2018-05-19T12:00:26Z</time>
      </trkpt>
      <trkpt lat="43.2049805671" lon="-4.2145256046">
        <ele>660.56</ele>
        <time>2018-05-19T12:00:31Z</time>
      </trkpt>
      <trkpt lat="43.2048881147" lon="-4.2144753132">
        <ele>661.52</ele>
        <time>2018-05-19T12:00:36Z</time>
      </trkpt>
      <trkpt lat="43.2047976740" lon="-4.2144220881">
        <ele>662.49</ele>
        <time>2018-05-19T12:00:42Z</time>
      </trkpt>
      <trkpt lat="43.2047172077" lon="-4.2143638339">
        <ele>662.97</ele>
        <time>2018-05-19T12:00:48Z</time>
      </trkpt>
      <trkpt lat="43.2046274375" lon="-4.2143225111">
        <ele>664.41</ele>
        <time>2018-05-19T12:00:55Z</time>
      </trkpt>
      <trkpt lat="43.2045307942" lon="-4.2142987903">
        <ele>665.37</ele>
        <time>2018-05-19T12:01:01Z</time>
      </trkpt>
      <trkpt lat="43.2044333965" lon="-4.2143028136">
        <ele>666.33</ele>
        <time>2018-05-19T12:01:07Z</time>
      </trkpt>
      <trkpt lat="43.2043430395" lon="-4.2143452261">
        <ele>666.33</ele>
        <time>2018-05-19T12:01:10Z</time>
      </trkpt>
      <trkpt lat="43.2042455580" lon="-4.2143847048">
        <ele>667.29</ele>
        <time>2018-05-19T12:01:14Z</time>
      </trkpt>
      <trkpt lat="43.2041486632" lon="-4.2144234292">
        <ele>668.25</ele>
        <time>2018-05-19T12:01:18Z</time>
      </trkpt>
      <trkpt lat="43.2040562946" lon="-4.2144634947">
        <ele>669.22</ele>
        <time>2018-05-19T12:01:22Z</time>
      </trkpt>
      <trkpt lat="43.2039654348" lon="-4.2145173904">
        <ele>670.18</ele>
        <time>2018-05-19T12:01:27Z</time>
      </trkpt>
      <trkpt lat="43.2038724795" lon="-4.2145851161">
        <ele>671.14</ele>
        <time>2018-05-19T12:01:32Z</time>
      </trkpt>
      <trkpt lat="43.2037806138" lon="-4.2146644089">
        <ele>671.62</ele>
        <time>2018-05-19T12:01:37Z</time>
      </trkpt>
      <trkpt lat="43.2036935259" lon="-4.2147631478">
        <ele>672.58</ele>
        <time>2018-05-19T12:01:42Z</time>
      </trkpt>
      <trkpt lat="43.2036037557" lon="-4.2148538399">
        <ele>673.06</ele>
        <time>2018-05-19T12:01:47Z</time>
      </trkpt>
      <trkpt lat="43.2035040110" lon="-4.2149255052">
        <ele>674.50</ele>
        <time>2018-05-19T12:01:52Z</time>
      </trkpt>
      <trkpt lat="43.2033998240" lon="-4.2149719410">
        <ele>675.46</ele>
        <time>2018-05-19T12:01:57Z</time>
      </trkpt>
      <trkpt lat="43.2033004146" lon="-4.2150047142">
        <ele>676.91</ele>
        <time>2018-05-19T12:02:02Z</time>
      </trkpt>
      <trkpt lat="43.2031979039" lon="-4.2149528302">
        <ele>677.87</ele>
        <time>2018-05-19T12:02:07Z</time>
      </trkpt>
      <trkpt lat="43.2031323574" lon="-4.2148349807">
        <ele>678.83</ele>
        <time>2018-05-19T12:02:12Z</time>
      </trkpt>
      <trkpt lat="43.2030585967" lon="-4.2147266027">
        <ele>679.31</ele>
        <time>2018-05-19T12:02:17Z</time>
      </trkpt>
      <trkpt lat="43.2029869314" lon="-4.2146297079">
        <ele>679.79</ele>
        <time>2018-05-19T12:02:22Z</time>
      </trkpt>
      <trkpt lat="43.2029153500" lon="-4.2145246826">
        <ele>681.23</ele>
        <time>2018-05-19T12:02:27Z</time>
      </trkpt>
      <trkpt lat="43.2028473727" lon="-4.2144276202">
        <ele>681.71</ele>
        <time>2018-05-19T12:02:32Z</time>
      </trkpt>
      <trkpt lat="43.2027725223" lon="-4.2143104412">
        <ele>682.19</ele>
        <time>2018-05-19T12:02:37Z</time>
      </trkpt>
      <trkpt lat="43.2026902121" lon="-4.2142062541">
        <ele>682.67</ele>
        <time>2018-05-19T12:02:42Z</time>
      </trkpt>
      <trkpt lat="43.2026126795" lon="-4.2141378578">
        <ele>683.15</ele>
        <time>2018-05-19T12:02:46Z</time>
      </trkpt>
      <trkpt lat="43.2025313750" lon="-4.2140545417">
        <ele>683.63</ele>
        <time>2018-05-19T12:02:50Z</time>
      </trkpt>
      <trkpt lat="43.2024296187" lon="-4.2139816191">
        <ele>684.12</ele>
        <time>2018-05-19T12:02:55Z</time>
      </trkpt>
      <trkpt lat="43.2023371663" lon="-4.2139340937">
        <ele>684.60</ele>
        <time>2018-05-19T12:02:59Z</time>
      </trkpt>
      <trkpt lat="43.2022449654" lon="-4.2138891667">
        <ele>684.60</ele>
        <time>2018-05-19T12:03:03Z</time>
      </trkpt>
      <trkpt lat="43.2021633256" lon="-4.2138314992">
        <ele>685.08</ele>
        <time>2018-05-19T12:03:07Z</time>
      </trkpt>
      <trkpt lat="43.2020795066" lon="-4.2137625162">
        <ele>686.04</ele>
        <time>2018-05-19T12:03:11Z</time>
      </trkpt>
      <trkpt lat="43.2020045724" lon="-4.2136430740">
        <ele>686.52</ele>
        <time>2018-05-19T12:03:16Z</time>
      </trkpt>
      <trkpt lat="43.2019686978" lon="-4.2135227099">
        <ele>687.00</ele>
        <time>2018-05-19T12:03:20Z</time>
      </trkpt>
      <trkpt lat="43.2019428816" lon="-4.2133737635">
        <ele>687.96</ele>
        <time>2018-05-19T12:03:25Z</time>
      </trkpt>
      <trkpt lat="43.2019226812" lon="-4.2132425867">
        <ele>688.44</ele>
        <time>2018-05-19T12:03:29Z</time>
      </trkpt>
      <trkpt lat="43.2019000500" lon="-4.2131011840">
        <ele>688.92</ele>
        <time>2018-05-19T12:03:33Z</time>
      </trkpt>
      <trkpt lat="43.2018764131" lon="-4.2129703425">
        <ele>689.40</ele>
        <time>2018-05-19T12:03:37Z</time>
      </trkpt>
      <trkpt lat="43.2018231880" lon="-4.2128312867">
        <ele>689.88</ele>
        <time>2018-05-19T12:03:41Z</time>
      </trkpt>
      <trkpt lat="43.2017552946" lon="-4.2127204780">
        <ele>689.88</ele>
        <time>2018-05-19T12:03:45Z</time>
      </trkpt>
      <trkpt lat="43.2016718108" lon="-4.2126309592">
        <ele>690.36</ele>
        <time>2018-05-19T12:03:49Z</time>
      </trkpt>
      <trkpt lat="43.2015877403" lon="-4.2125560250">
        <ele>690.84</ele>
        <time>2018-05-19T12:03:53Z</time>
      </trkpt>
      <trkpt lat="43.2015185058" lon="-4.2124771513">
        <ele>691.33</ele>
        <time>2018-05-19T12:03:57Z</time>
      </trkpt>
      <trkpt lat="43.2014558930" lon="-4.2123811785">
        <ele>692.29</ele>
        <time>2018-05-19T12:04:01Z</time>
      </trkpt>
      <trkpt lat="43.2014120556" lon="-4.2122432124">
        <ele>694.21</ele>
        <time>2018-05-19T12:04:06Z</time>
      </trkpt>
      <trkpt lat="43.2013996504" lon="-4.2121182382">
        <ele>695.17</ele>
        <time>2018-05-19T12:04:10Z</time>
      </trkpt>
      <trkpt lat="43.2013957947" lon="-4.2119687051">
        <ele>696.13</ele>
        <time>2018-05-19T12:04:15Z</time>
      </trkpt>
      <trkpt lat="43.2013957109" lon="-4.2118230276">
        <ele>697.09</ele>
        <time>2018-05-19T12:04:20Z</time>
      </trkpt>
      <trkpt lat="43.2013900951" lon="-4.2116840556">
        <ele>697.57</ele>
        <time>2018-05-19T12:04:25Z</time>
      </trkpt>
      <trkpt lat="43.2013866585" lon="-4.2115441617">
        <ele>698.53</ele>
        <time>2018-05-19T12:04:30Z</time>
      </trkpt>
      <trkpt lat="43.2013869938" lon="-4.2113957182">
        <ele>699.50</ele>
        <time>2018-05-19T12:04:35Z</time>
      </trkpt>
      <trkpt lat="43.2013971359" lon="-4.2112682294">
        <ele>699.98</ele>
        <time>2018-05-19T12:04:39Z</time>
      </trkpt>
      <trkpt lat="43.2014084514" lon="-4.2111360468">
        <ele>699.98</ele>
        <time>2018-05-19T12:04:43Z</time>
      </trkpt>
      <trkpt lat="43.2014343515" lon="-4.2109897826">
        <ele>700.94</ele>
        <time>2018-05-19T12:04:48Z</time>
      </trkpt>
      <trkpt lat="43.2014520373" lon="-4.2108679935">
        <ele>701.42</ele>
        <time>2018-05-19T12:04:52Z</time>
      </trkpt>
      <trkpt lat="43.2014686335" lon="-4.2107260041">
        <ele>701.90</ele>
        <time>2018-05-19T12:04:56Z</time>
      </trkpt>
      <trkpt lat="43.2014857326" lon="-4.2105909716">
        <ele>701.90</ele>
        <time>2018-05-19T12:05:00Z</time>
      </trkpt>
      <trkpt lat="43.2014987245" lon="-4.2104341462">
        <ele>702.38</ele>
        <time>2018-05-19T12:05:04Z</time>
      </trkpt>
      <trkpt lat="43.2015126385" lon="-4.2103100941">
        <ele>702.38</ele>
        <time>2018-05-19T12:05:07Z</time>
      </trkpt>
      <trkpt lat="43.2015236188" lon="-4.2101649195">
        <ele>702.86</ele>
        <time>2018-05-19T12:05:11Z</time>
      </trkpt>
      <trkpt lat="43.2015221938" lon="-4.2100366764">
        <ele>702.86</ele>
        <time>2018-05-19T12:05:14Z</time>
      </trkpt>
      <trkpt lat="43.2015188411" lon="-4.2098759953">
        <ele>702.86</ele>
        <time>2018-05-19T12:05:18Z</time>
      </trkpt>
      <trkpt lat="43.2015209366" lon="-4.2097230256">
        <ele>703.82</ele>
        <time>2018-05-19T12:05:22Z</time>
      </trkpt>
      <trkpt lat="43.2015121356" lon="-4.2095705587">
        <ele>704.78</ele>
        <time>2018-05-19T12:05:26Z</time>
      </trkpt>
      <trkpt lat="43.2014958747" lon="-4.2094219476">
        <ele>704.78</ele>
        <time>2018-05-19T12:05:30Z</time>
      </trkpt>
      <trkpt lat="43.2014781889" lon="-4.2092785332">
        <ele>705.26</ele>
        <time>2018-05-19T12:05:34Z</time>
      </trkpt>
      <trkpt lat="43.2014565635" lon="-4.2091383878">
        <ele>706.23</ele>
        <time>2018-05-19T12:05:38Z</time>
      </trkpt>
      <trkpt lat="43.2014263887" lon="-4.2090010922">
        <ele>706.71</ele>
        <time>2018-05-19T12:05:42Z</time>
      </trkpt>
      <trkpt lat="43.2014000695" lon="-4.2088629585">
        <ele>707.19</ele>
        <time>2018-05-19T12:05:46Z</time>
      </trkpt>
      <trkpt lat="43.2013768516" lon="-4.2087194603">
        <ele>708.15</ele>
        <time>2018-05-19T12:05:50Z</time>
      </trkpt>
      <trkpt lat="43.2013575733" lon="-4.2085890379">
        <ele>709.11</ele>
        <time>2018-05-19T12:05:54Z</time>
      </trkpt>
      <trkpt lat="43.2013355289" lon="-4.2084535863">
        <ele>709.59</ele>
        <time>2018-05-19T12:05:58Z</time>
      </trkpt>
      <trkpt lat="43.2013089582" lon="-4.2083110102">
        <ele>710.07</ele>
        <time>2018-05-19T12:06:02Z</time>
      </trkpt>
      <trkpt lat="43.2012833934" lon="-4.2081703618">
        <ele>710.55</ele>
        <time>2018-05-19T12:06:06Z</time>
      </trkpt>
      <trkpt lat="43.2012513746" lon="-4.2080204934">
        <ele>711.03</ele>
        <time>2018-05-19T12:06:10Z</time>
      </trkpt>
      <trkpt lat="43.2012348622" lon="-4.2078972794">
        <ele>711.51</ele>
        <time>2018-05-19T12:06:13Z</time>
      </trkpt>
      <trkpt lat="43.2012279052" lon="-4.2077430524">
        <ele>711.99</ele>
        <time>2018-05-19T12:06:17Z</time>
      </trkpt>
      <trkpt lat="43.2012328506" lon="-4.2075919267">
        <ele>712.95</ele>
        <time>2018-05-19T12:06:21Z</time>
      </trkpt>
      <trkpt lat="43.2012404781" lon="-4.2074429803">
        <ele>713.44</ele>
        <time>2018-05-19T12:06:25Z</time>
      </trkpt>
      <trkpt lat="43.2012341078" lon="-4.2073138990">
        <ele>713.92</ele>
        <time>2018-05-19T12:06:29Z</time>
      </trkpt>
      <trkpt lat="43.2012200262" lon="-4.2071636114">
        <ele>714.40</ele>
        <time>2018-05-19T12:06:33Z</time>
      </trkpt>
      <trkpt lat="43.2011887617" lon="-4.2070353683">
        <ele>715.36</ele>
        <time>2018-05-19T12:06:37Z</time>
      </trkpt>
      <trkpt lat="43.2011399791" lon="-4.2069062870">
        <ele>715.84</ele>
        <time>2018-05-19T12:06:41Z</time>
      </trkpt>
      <trkpt lat="43.2010834012" lon="-4.2067674827">
        <ele>715.84</ele>
        <time>2018-05-19T12:06:45Z</time>
      </trkpt>
      <trkpt lat="43.2010546513" lon="-4.2066296842">
        <ele>716.32</ele>
        <time>2018-05-19T12:06:49Z</time>
      </trkpt>
      <trkpt lat="43.2010465208" lon="-4.2064776365">
        <ele>717.28</ele>
        <time>2018-05-19T12:06:53Z</time>
      </trkpt>
      <trkpt lat="43.2010528911" lon="-4.2063276842">
        <ele>717.76</ele>
        <time>2018-05-19T12:06:57Z</time>
      </trkpt>
      <trkpt lat="43.2010626141" lon="-4.2061763909">
        <ele>718.24</ele>
        <time>2018-05-19T12:07:01Z</time>
      </trkpt>
      <trkpt lat="43.2010666374" lon="-4.2060224991">
        <ele>718.72</ele>
        <time>2018-05-19T12:07:05Z</time>
      </trkpt>
      <trkpt lat="43.2010723371" lon="-4.2058826890">
        <ele>719.20</ele>
        <time>2018-05-19T12:07:09Z</time>
      </trkpt>
      <trkpt lat="43.2010693196" lon="-4.2057385202">
        <ele>719.68</ele>
        <time>2018-05-19T12:07:13Z</time>
      </trkpt>
      <trkpt lat="43.2010705769" lon="-4.2055825330">
        <ele>719.68</ele>
        <time>2018-05-19T12:07:17Z</time>
      </trkpt>
      <trkpt lat="43.2010589261" lon="-4.2054412980">
        <ele>720.16</ele>
        <time>2018-05-19T12:07:21Z</time>
      </trkpt>
      <trkpt lat="43.2010523882" lon="-4.2052923515">
        <ele>720.65</ele>
        <time>2018-05-19T12:07:25Z</time>
      </trkpt>
      <trkpt lat="43.2010768633" lon="-4.2051349394">
        <ele>721.13</ele>
        <time>2018-05-19T12:07:29Z</time>
      </trkpt>
      <trkpt lat="43.2011153363" lon="-4.2050015833">
        <ele>721.61</ele>
        <time>2018-05-19T12:07:33Z</time>
      </trkpt>
      <trkpt lat="43.2011680584" lon="-4.2048752680">
        <ele>722.57</ele>
        <time>2018-05-19T12:07:37Z</time>
      </trkpt>
      <trkpt lat="43.2012294978" lon="-4.2047529761">
        <ele>722.57</ele>
        <time>2018-05-19T12:07:41Z</time>
      </trkpt>
      <trkpt lat="43.2013071980" lon="-4.2046357132">
        <ele>723.05</ele>
        <time>2018-05-19T12:07:45Z</time>
      </trkpt>
      <trkpt lat="43.2014034223" lon="-4.2045417521">
        <ele>723.53</ele>
        <time>2018-05-19T12:07:49Z</time>
      </trkpt>
      <trkpt lat="43.2014927734" lon="-4.2044562567">
        <ele>724.01</ele>
        <time>2018-05-19T12:07:53Z</time>
      </trkpt>
      <trkpt lat="43.2015855610" lon="-4.2043589428">
        <ele>724.49</ele>
        <time>2018-05-19T12:07:57Z</time>
      </trkpt>
      <trkpt lat="43.2016843837" lon="-4.2042632215">
        <ele>725.45</ele>
        <time>2018-05-19T12:08:01Z</time>
      </trkpt>
      <trkpt lat="43.2017739862" lon="-4.2041795701">
        <ele>725.93</ele>
        <time>2018-05-19T12:08:05Z</time>
      </trkpt>
      <trkpt lat="43.2018603198" lon="-4.2040945776">
        <ele>726.89</ele>
        <time>2018-05-19T12:08:09Z</time>
      </trkpt>
      <trkpt lat="43.2019421272" lon="-4.2040007841">
        <ele>727.37</ele>
        <time>2018-05-19T12:08:14Z</time>
      </trkpt>
      <trkpt lat="43.2020194083" lon="-4.2038956750">
        <ele>728.34</ele>
        <time>2018-05-19T12:08:19Z</time>
      </trkpt>
      <trkpt lat="43.2020833623" lon="-4.2038064916">
        <ele>728.82</ele>
        <time>2018-05-19T12:08:23Z</time>
      </trkpt>
      <trkpt lat="43.2021394372" lon="-4.2036946770">
        <ele>728.82</ele>
        <time>2018-05-19T12:08:27Z</time>
      </trkpt>
      <trkpt lat="43.2021816820" lon="-4.2035655957">
        <ele>729.78</ele>
        <time>2018-05-19T12:08:31Z</time>
      </trkpt>
      <trkpt lat="43.2022120245" lon="-4.2034399509">
        <ele>730.26</ele>
        <time>2018-05-19T12:08:35Z</time>
      </trkpt>
      <trkpt lat="43.2022414450" lon="-4.2032992188">
        <ele>731.22</ele>
        <time>2018-05-19T12:08:40Z</time>
      </trkpt>
      <trkpt lat="43.2022631541" lon="-4.2031597439">
        <ele>732.18</ele>
        <time>2018-05-19T12:08:45Z</time>
      </trkpt>
      <trkpt lat="43.2022852823" lon="-4.2030227836">
        <ele>733.14</ele>
        <time>2018-05-19T12:08:50Z</time>
      </trkpt>
      <trkpt lat="43.2023110986" lon="-4.2028863262">
        <ele>734.10</ele>
        <time>2018-05-19T12:08:55Z</time>
      </trkpt>
      <trkpt lat="43.2023217436" lon="-4.2027439177">
        <ele>734.58</ele>
        <time>2018-05-19T12:09:00Z</time>
      </trkpt>
      <trkpt lat="43.2023230847" lon="-4.2026202008">
        <ele>735.55</ele>
        <time>2018-05-19T12:09:04Z</time>
      </trkpt>
      <trkpt lat="43.2023076620" lon="-4.2024805583">
        <ele>736.51</ele>
        <time>2018-05-19T12:09:09Z</time>
      </trkpt>
      <trkpt lat="43.2022820134" lon="-4.2023627087">
        <ele>736.99</ele>
        <time>2018-05-19T12:09:13Z</time>
      </trkpt>
      <trkpt lat="43.2022492401" lon="-4.2022231501">
        <ele>737.95</ele>
        <time>2018-05-19T12:09:18Z</time>
      </trkpt>
      <trkpt lat="43.2022137847" lon="-4.2021110840">
        <ele>738.91</ele>
        <time>2018-05-19T12:09:22Z</time>
      </trkpt>
      <trkpt lat="43.2021717075" lon="-4.2019721121">
        <ele>739.39</ele>
        <time>2018-05-19T12:09:27Z</time>
      </trkpt>
      <trkpt lat="43.2021334860" lon="-4.2018581182">
        <ele>739.87</ele>
        <time>2018-05-19T12:09:31Z</time>
      </trkpt>
      <trkpt lat="43.2020869665" lon="-4.2017264385">
        <ele>740.83</ele>
        <time>2018-05-19T12:09:35Z</time>
      </trkpt>
      <trkpt lat="43.2020520139" lon="-4.2016033083">
        <ele>741.31</ele>
        <time>2018-05-19T12:09:39Z</time>
      </trkpt>
      <trkpt lat="43.2020274550" lon="-4.2014796752">
        <ele>741.79</ele>
        <time>2018-05-19T12:09:43Z</time>
      </trkpt>
      <trkpt lat="43.2020017225" lon="-4.2013517674">
        <ele>742.76</ele>
        <time>2018-05-19T12:09:47Z</time>
      </trkpt>
      <trkpt lat="43.2019651774" lon="-4.2012163997">
        <ele>743.72</ele>
        <time>2018-05-19T12:09:52Z</time>
      </trkpt>
      <trkpt lat="43.2019307278" lon="-4.2010817863">
        <ele>745.16</ele>
        <time>2018-05-19T12:09:57Z</time>
      </trkpt>
      <trkpt lat="43.2019041572" lon="-4.2009575665">
        <ele>746.60</ele>
        <time>2018-05-19T12:10:02Z</time>
      </trkpt>
      <trkpt lat="43.2018698752" lon="-4.2008286528">
        <ele>747.56</ele>
        <time>2018-05-19T12:10:07Z</time>
      </trkpt>
      <trkpt lat="43.2018414605" lon="-4.2007154133">
        <ele>748.04</ele>
        <time>2018-05-19T12:10:12Z</time>
      </trkpt>
      <trkpt lat="43.2018061727" lon="-4.2005989887">
        <ele>749.00</ele>
        <time>2018-05-19T12:10:17Z</time>
      </trkpt>
      <trkpt lat="43.2017640118" lon="-4.2004828155">
        <ele>749.97</ele>
        <time>2018-05-19T12:10:22Z</time>
      </trkpt>
      <trkpt lat="43.2017193362" lon="-4.2003661394">
        <ele>750.93</ele>
        <time>2018-05-19T12:10:27Z</time>
      </trkpt>
      <trkpt lat="43.2016687095" lon="-4.2002575938">
        <ele>751.89</ele>
        <time>2018-05-19T12:10:32Z</time>
      </trkpt>
      <trkpt lat="43.2016132213" lon="-4.2001483776">
        <ele>752.37</ele>
        <time>2018-05-19T12:10:37Z</time>
      </trkpt>
      <trkpt lat="43.2015404664" lon="-4.2000524048">
        <ele>753.81</ele>
        <time>2018-05-19T12:10:42Z</time>
      </trkpt>
      <trkpt lat="43.2014736626" lon="-4.1999514028">
        <ele>754.77</ele>
        <time>2018-05-19T12:10:47Z</time>
      </trkpt>
      <trkpt lat="43.2013905142" lon="-4.1998620518">
        <ele>755.73</ele>
        <time>2018-05-19T12:10:52Z</time>
      </trkpt>
      <trkpt lat="43.2013058569" lon="-4.1997908894">
        <ele>756.69</ele>
        <time>2018-05-19T12:10:57Z</time>
      </trkpt>
      <trkpt lat="43.2012317609" lon="-4.1997247562">
        <ele>756.69</ele>
        <time>2018-05-19T12:11:01Z</time>
      </trkpt>
      <trkpt lat="43.2011499535" lon="-4.1996418592">
        <ele>757.66</ele>
        <time>2018-05-19T12:11:06Z</time>
      </trkpt>
      <trkpt lat="43.2010749355" lon="-4.1995460540">
        <ele>758.14</ele>
        <time>2018-05-19T12:11:11Z</time>
      </trkpt>
      <trkpt lat="43.2010000013" lon="-4.1994515061">
        <ele>759.10</ele>
        <time>2018-05-19T12:11:16Z</time>
      </trkpt>
      <trkpt lat="43.2009365503" lon="-4.1993519291">
        <ele>760.54</ele>
        <time>2018-05-19T12:11:21Z</time>
      </trkpt>
      <trkpt lat="43.2008755300" lon="-4.1992438026">
        <ele>761.98</ele>
        <time>2018-05-19T12:11:26Z</time>
      </trkpt>
      <trkpt lat="43.2008235622" lon="-4.1991325747">
        <ele>762.94</ele>
        <time>2018-05-19T12:11:31Z</time>
      </trkpt>
      <trkpt lat="43.2007617038" lon="-4.1990264598">
        <ele>763.90</ele>
        <time>2018-05-19T12:11:36Z</time>
      </trkpt>
      <trkpt lat="43.2006993424" lon="-4.1989040002">
        <ele>765.35</ele>
        <time>2018-05-19T12:11:42Z</time>
      </trkpt>
      <trkpt lat="43.2006404176" lon="-4.1987921018">
        <ele>766.31</ele>
        <time>2018-05-19T12:11:47Z</time>
      </trkpt>
      <trkpt lat="43.2005778048" lon="-4.1986687202">
        <ele>767.27</ele>
        <time>2018-05-19T12:11:53Z</time>
      </trkpt>
      <trkpt lat="43.2005238254" lon="-4.1985557321">
        <ele>768.23</ele>
        <time>2018-05-19T12:11:58Z</time>
      </trkpt>
      <trkpt lat="43.2004675828" lon="-4.1984424926">
        <ele>769.67</ele>
        <time>2018-05-19T12:12:04Z</time>
      </trkpt>
      <trkpt lat="43.2004108373" lon="-4.1983329412">
        <ele>771.11</ele>
        <time>2018-05-19T12:12:09Z</time>
      </trkpt>
      <trkpt lat="43.2003596239" lon="-4.1982345376">
        <ele>771.60</ele>
        <time>2018-05-19T12:12:14Z</time>
      </trkpt>
      <trkpt lat="43.2003057282" lon="-4.1981234774">
        <ele>772.56</ele>
        <time>2018-05-19T12:12:19Z</time>
      </trkpt>
      <trkpt lat="43.2002465520" lon="-4.1980083100">
        <ele>773.52</ele>
        <time>2018-05-19T12:12:25Z</time>
      </trkpt>
      <trkpt lat="43.2001919020" lon="-4.1979037039">
        <ele>774.48</ele>
        <time>2018-05-19T12:12:30Z</time>
      </trkpt>
      <trkpt lat="43.2001221646" lon="-4.1977915540">
        <ele>775.92</ele>
        <time>2018-05-19T12:12:36Z</time>
      </trkpt>
      <trkpt lat="43.2000574563" lon="-4.1976939049">
        <ele>776.40</ele>
        <time>2018-05-19T12:12:41Z</time>
      </trkpt>
      <trkpt lat="43.2000107691" lon="-4.1975906398">
        <ele>777.84</ele>
        <time>2018-05-19T12:12:46Z</time>
      </trkpt>
      <trkpt lat="43.1999642495" lon="-4.1974792443">
        <ele>778.81</ele>
        <time>2018-05-19T12:12:51Z</time>
      </trkpt>
      <trkpt lat="43.1998961046" lon="-4.1973606404">
        <ele>780.25</ele>
        <time>2018-05-19T12:12:57Z</time>
      </trkpt>
      <trkpt lat="43.1998216733" lon="-4.1972703673">
        <ele>781.21</ele>
        <time>2018-05-19T12:13:02Z</time>
      </trkpt>
      <trkpt lat="43.1997492537" lon="-4.1971883923">
        <ele>782.65</ele>
        <time>2018-05-19T12:13:07Z</time>
      </trkpt>
      <trkpt lat="43.1996725593" lon="-4.1971163917">
        <ele>783.61</ele>
        <time>2018-05-19T12:13:12Z</time>
      </trkpt>
      <trkpt lat="43.1995899137" lon="-4.1970414575">
        <ele>784.57</ele>
        <time>2018-05-19T12:13:17Z</time>
      </trkpt>
      <trkpt lat="43.1994952820" lon="-4.1969763301">
        <ele>785.53</ele>
        <time>2018-05-19T12:13:22Z</time>
      </trkpt>
      <trkpt lat="43.1993873231" lon="-4.1969355103">
        <ele>786.02</ele>
        <time>2018-05-19T12:13:27Z</time>
      </trkpt>
      <trkpt lat="43.1992779393" lon="-4.1969122086">
        <ele>786.98</ele>
        <time>2018-05-19T12:13:32Z</time>
      </trkpt>
      <trkpt lat="43.1991685554" lon="-4.1969153099">
        <ele>787.94</ele>
        <time>2018-05-19T12:13:37Z</time>
      </trkpt>
      <trkpt lat="43.1990654580" lon="-4.1969428025">
        <ele>788.42</ele>
        <time>2018-05-19T12:13:42Z</time>
      </trkpt>
      <trkpt lat="43.1989586726" lon="-4.1969652660">
        <ele>789.38</ele>
        <time>2018-05-19T12:13:47Z</time>
      </trkpt>
      <trkpt lat="43.1988501269" lon="-4.1969694570">
        <ele>790.34</ele>
        <time>2018-05-19T12:13:52Z</time>
      </trkpt>
      <trkpt lat="43.1987574231" lon="-4.1969611589">
        <ele>791.30</ele>
        <time>2018-05-19T12:13:56Z</time>
      </trkpt>
      <trkpt lat="43.1986598577" lon="-4.1969503462">
        <ele>791.78</ele>
        <time>2018-05-19T12:14:01Z</time>
      </trkpt>
      <trkpt lat="43.1985600293" lon="-4.1969556268">
        <ele>793.22</ele>
        <time>2018-05-19T12:14:07Z</time>
      </trkpt>
      <trkpt lat="43.1984693371" lon="-4.1969560459">
        <ele>793.71</ele>
        <time>2018-05-19T12:14:13Z</time>
      </trkpt>
      <trkpt lat="43.1983698439" lon="-4.1969387792">
        <ele>794.67</ele>
        <time>2018-05-19T12:14:18Z</time>
      </trkpt>
      <trkpt lat="43.1982679199" lon="-4.1969314031">
        <ele>795.15</ele>
        <time>2018-05-19T12:14:23Z</time>
      </trkpt>
      <trkpt lat="43.1981633138" lon="-4.1969325766">
        <ele>796.11</ele>
        <time>2018-05-19T12:14:28Z</time>
      </trkpt>
      <trkpt lat="43.1980666704" lon="-4.1969362646">
        <ele>796.59</ele>
        <time>2018-05-19T12:14:33Z</time>
      </trkpt>
      <trkpt lat="43.1979673449" lon="-4.1969473287">
        <ele>797.07</ele>
        <time>2018-05-19T12:14:38Z</time>
      </trkpt>
      <trkpt lat="43.1978770718" lon="-4.1969650146">
        <ele>798.03</ele>
        <time>2018-05-19T12:14:43Z</time>
      </trkpt>
      <trkpt lat="43.1977825239" lon="-4.1969891544">
        <ele>798.51</ele>
        <time>2018-05-19T12:14:48Z</time>
      </trkpt>
      <trkpt lat="43.1976878084" lon="-4.1970129590">
        <ele>800.44</ele>
        <time>2018-05-19T12:14:53Z</time>
      </trkpt>
      <trkpt lat="43.1975956075" lon="-4.1970236879">
        <ele>800.92</ele>
        <time>2018-05-19T12:14:58Z</time>
      </trkpt>
      <trkpt lat="43.1975055020" lon="-4.1970363446">
        <ele>801.88</ele>
        <time>2018-05-19T12:15:03Z</time>
      </trkpt>
      <trkpt lat="43.1974008121" lon="-4.1970557906">
        <ele>802.84</ele>
        <time>2018-05-19T12:15:09Z</time>
      </trkpt>
      <trkpt lat="43.1972957030" lon="-4.1970728058">
        <ele>804.28</ele>
        <time>2018-05-19T12:15:15Z</time>
      </trkpt>
      <trkpt lat="43.1972050108" lon="-4.1970818583">
        <ele>805.24</ele>
        <time>2018-05-19T12:15:20Z</time>
      </trkpt>
      <trkpt lat="43.1970973872" lon="-4.1970866360">
        <ele>806.20</ele>
        <time>2018-05-19T12:15:26Z</time>
      </trkpt>
      <trkpt lat="43.1969885062" lon="-4.1970954370">
        <ele>807.16</ele>
        <time>2018-05-19T12:15:32Z</time>
      </trkpt>
      <trkpt lat="43.1968823075" lon="-4.1970901564">
        <ele>807.64</ele>
        <time>2018-05-19T12:15:38Z</time>
      </trkpt>
      <trkpt lat="43.1967859156" lon="-4.1970676091">
        <ele>809.09</ele>
        <time>2018-05-19T12:15:44Z</time>
      </trkpt>
      <trkpt lat="43.1967004202" lon="-4.1970380209">
        <ele>810.05</ele>
        <time>2018-05-19T12:15:49Z</time>
      </trkpt>
      <trkpt lat="43.1966067106" lon="-4.1970137972">
        <ele>810.53</ele>
        <time>2018-05-19T12:15:55Z</time>
      </trkpt>
      <trkpt lat="43.1965161022" lon="-4.1969934292">
        <ele>811.97</ele>
        <time>2018-05-19T12:16:00Z</time>
      </trkpt>
      <trkpt lat="43.1964177825" lon="-4.1969757434">
        <ele>812.45</ele>
        <time>2018-05-19T12:16:05Z</time>
      </trkpt>
      <trkpt lat="43.1963277608" lon="-4.1969412938">
        <ele>812.93</ele>
        <time>2018-05-19T12:16:10Z</time>
      </trkpt>
      <trkpt lat="43.1962218136" lon="-4.1969166510">
        <ele>814.37</ele>
        <time>2018-05-19T12:16:15Z</time>
      </trkpt>
      <trkpt lat="43.1961247511" lon="-4.1968759149">
        <ele>814.85</ele>
        <time>2018-05-19T12:16:19Z</time>
      </trkpt>
      <trkpt lat="43.1960296165" lon="-4.1968493443">
        <ele>815.34</ele>
        <time>2018-05-19T12:16:24Z</time>
      </trkpt>
      <trkpt lat="43.1959252618" lon="-4.1968262941">
        <ele>816.78</ele>
        <time>2018-05-19T12:16:29Z</time>
      </trkpt>
      <trkpt lat="43.1958249304" lon="-4.1968084406">
        <ele>817.26</ele>
        <time>2018-05-19T12:16:34Z</time>
      </trkpt>
      <trkpt lat="43.1957380101" lon="-4.1967845522">
        <ele>818.22</ele>
        <time>2018-05-19T12:16:38Z</time>
      </trkpt>
      <trkpt lat="43.1956323143" lon="-4.1967457440">
        <ele>819.18</ele>
        <time>2018-05-19T12:16:43Z</time>
      </trkpt>
      <trkpt lat="43.1955276243" lon="-4.1967031639">
        <ele>819.66</ele>
        <time>2018-05-19T12:16:48Z</time>
      </trkpt>
      <trkpt lat="43.1954376027" lon="-4.1966733243">
        <ele>820.14</ele>
        <time>2018-05-19T12:16:52Z</time>
      </trkpt>
      <trkpt lat="43.1953324936" lon="-4.1966280621">
        <ele>821.10</ele>
        <time>2018-05-19T12:16:57Z</time>
      </trkpt>
      <trkpt lat="43.1952407956" lon="-4.1965991445">
        <ele>821.58</ele>
        <time>2018-05-19T12:17:01Z</time>
      </trkpt>
      <trkpt lat="43.1951319147" lon="-4.1965551395">
        <ele>822.55</ele>
        <time>2018-05-19T12:17:06Z</time>
      </trkpt>
      <trkpt lat="43.1950261351" lon="-4.1965161636">
        <ele>823.03</ele>
        <time>2018-05-19T12:17:11Z</time>
      </trkpt>
      <trkpt lat="43.1949222833" lon="-4.1964904312">
        <ele>823.51</ele>
        <time>2018-05-19T12:17:16Z</time>
      </trkpt>
      <trkpt lat="43.1948221195" lon="-4.1964660399">
        <ele>824.95</ele>
        <time>2018-05-19T12:17:21Z</time>
      </trkpt>
      <trkpt lat="43.1947172619" lon="-4.1964408942">
        <ele>825.43</ele>
        <time>2018-05-19T12:17:26Z</time>
      </trkpt>
      <trkpt lat="43.1946145836" lon="-4.1964224540">
        <ele>825.91</ele>
        <time>2018-05-19T12:17:31Z</time>
      </trkpt>
      <trkpt lat="43.1945199519" lon="-4.1963954642">
        <ele>826.39</ele>
        <time>2018-05-19T12:17:35Z</time>
      </trkpt>
      <trkpt lat="43.1944211293" lon="-4.1963765211">
        <ele>827.83</ele>
        <time>2018-05-19T12:17:40Z</time>
      </trkpt>
      <trkpt lat="43.1943104044" lon="-4.1963654570">
        <ele>828.79</ele>
        <time>2018-05-19T12:17:45Z</time>
      </trkpt>
      <trkpt lat="43.1942095701" lon="-4.1963590868">
        <ele>829.27</ele>
        <time>2018-05-19T12:17:50Z</time>
      </trkpt>
      <trkpt lat="43.1941090710" lon="-4.1963514592">
        <ele>830.72</ele>
        <time>2018-05-19T12:17:55Z</time>
      </trkpt>
      <trkpt lat="43.1940181274" lon="-4.1963429097">
        <ele>831.68</ele>
        <time>2018-05-19T12:18:00Z</time>
      </trkpt>
      <trkpt lat="43.1939176284" lon="-4.1963360365">
        <ele>832.64</ele>
        <time>2018-05-19T12:18:05Z</time>
      </trkpt>
      <trkpt lat="43.1938233320" lon="-4.1963265650">
        <ele>833.12</ele>
        <time>2018-05-19T12:18:10Z</time>
      </trkpt>
      <trkpt lat="43.1937237550" lon="-4.1963159200">
        <ele>834.08</ele>
        <time>2018-05-19T12:18:15Z</time>
      </trkpt>
      <trkpt lat="43.1936185621" lon="-4.1963113099">
        <ele>835.52</ele>
        <time>2018-05-19T12:18:20Z</time>
      </trkpt>
      <trkpt lat="43.1935126148" lon="-4.1963075381">
        <ele>836.48</ele>
        <time>2018-05-19T12:18:26Z</time>
      </trkpt>
      <trkpt lat="43.1934141275" lon="-4.1963134892">
        <ele>837.45</ele>
        <time>2018-05-19T12:18:31Z</time>
      </trkpt>
      <trkpt lat="43.1933236867" lon="-4.1963165905">
        <ele>838.41</ele>
        <time>2018-05-19T12:18:36Z</time>
      </trkpt>
      <trkpt lat="43.1932163145" lon="-4.1963221226">
        <ele>838.89</ele>
        <time>2018-05-19T12:18:41Z</time>
      </trkpt>
      <trkpt lat="43.1931125466" lon="-4.1963182669">
        <ele>840.33</ele>
        <time>2018-05-19T12:18:47Z</time>
      </trkpt>
      <trkpt lat="43.1930146459" lon="-4.1963132378">
        <ele>840.33</ele>
        <time>2018-05-19T12:18:52Z</time>
      </trkpt>
      <trkpt lat="43.1929251272" lon="-4.1963098850">
        <ele>841.29</ele>
        <time>2018-05-19T12:18:57Z</time>
      </trkpt>
      <trkpt lat="43.1928370334" lon="-4.1963659599">
        <ele>842.25</ele>
        <time>2018-05-19T12:19:02Z</time>
      </trkpt>
      <trkpt lat="43.1928235386" lon="-4.1965004057">
        <ele>843.21</ele>
        <time>2018-05-19T12:19:08Z</time>
      </trkpt>
      <trkpt lat="43.1928519532" lon="-4.1966367792">
        <ele>844.18</ele>
        <time>2018-05-19T12:19:13Z</time>
      </trkpt>
      <trkpt lat="43.1928888336" lon="-4.1967563890">
        <ele>845.62</ele>
        <time>2018-05-19T12:19:18Z</time>
      </trkpt>
      <trkpt lat="43.1929250434" lon="-4.1968782619">
        <ele>846.10</ele>
        <time>2018-05-19T12:19:23Z</time>
      </trkpt>
      <trkpt lat="43.1929605827" lon="-4.1969973687">
        <ele>846.58</ele>
        <time>2018-05-19T12:19:28Z</time>
      </trkpt>
      <trkpt lat="43.1930056773" lon="-4.1971199960">
        <ele>848.02</ele>
        <time>2018-05-19T12:19:33Z</time>
      </trkpt>
      <trkpt lat="43.1930579804" lon="-4.1972279549">
        <ele>848.50</ele>
        <time>2018-05-19T12:19:38Z</time>
      </trkpt>
      <trkpt lat="43.1931055058" lon="-4.1973444633">
        <ele>849.94</ele>
        <time>2018-05-19T12:19:43Z</time>
      </trkpt>
      <trkpt lat="43.1931537855" lon="-4.1974748019">
        <ele>850.42</ele>
        <time>2018-05-19T12:19:48Z</time>
      </trkpt>
      <trkpt lat="43.1931961142" lon="-4.1976023745">
        <ele>850.42</ele>
        <time>2018-05-19T12:19:53Z</time>
      </trkpt>
      <trkpt lat="43.1932353415" lon="-4.1977270134">
        <ele>850.90</ele>
        <time>2018-05-19T12:19:58Z</time>
      </trkpt>
      <trkpt lat="43.1932693720" lon="-4.1978586931">
        <ele>850.90</ele>
        <time>2018-05-19T12:20:03Z</time>
      </trkpt>
      <trkpt lat="43.1933087669" lon="-4.1979943123">
        <ele>851.87</ele>
        <time>2018-05-19T12:20:08Z</time>
      </trkpt>
      <trkpt lat="43.1933391932" lon="-4.1981277522">
        <ele>852.83</ele>
        <time>2018-05-19T12:20:13Z</time>
      </trkpt>
      <trkpt lat="43.1933465693" lon="-4.1982725915">
        <ele>852.83</ele>
        <time>2018-05-19T12:20:18Z</time>
      </trkpt>
      <trkpt lat="43.1933154725" lon="-4.1984072886">
        <ele>854.27</ele>
        <time>2018-05-19T12:20:23Z</time>
      </trkpt>
      <trkpt lat="43.1932519376" lon="-4.1985165887">
        <ele>855.23</ele>
        <time>2018-05-19T12:20:28Z</time>
      </trkpt>
      <trkpt lat="43.1931729801" lon="-4.1985932831">
        <ele>856.67</ele>
        <time>2018-05-19T12:20:33Z</time>
      </trkpt>
      <trkpt lat="43.1930705532" lon="-4.1986316722">
        <ele>858.11</ele>
        <time>2018-05-19T12:20:38Z</time>
      </trkpt>
      <trkpt lat="43.1929729879" lon="-4.1986522079">
        <ele>859.56</ele>
        <time>2018-05-19T12:20:43Z</time>
      </trkpt>
      <trkpt lat="43.1928717345" lon="-4.1986589972">
        <ele>860.52</ele>
        <time>2018-05-19T12:20:48Z</time>
      </trkpt>
      <trkpt lat="43.1927810423" lon="-4.1986576561">
        <ele>861.96</ele>
        <time>2018-05-19T12:20:53Z</time>
      </trkpt>
      <trkpt lat="43.1926845666" lon="-4.1986459214">
        <ele>863.40</ele>
        <time>2018-05-19T12:20:58Z</time>
      </trkpt>
      <trkpt lat="43.1925959699" lon="-4.1986117233">
        <ele>864.84</ele>
        <time>2018-05-19T12:21:03Z</time>
      </trkpt>
      <trkpt lat="43.1925118994" lon="-4.1985743400">
        <ele>865.80</ele>
        <time>2018-05-19T12:21:08Z</time>
      </trkpt>
      <trkpt lat="43.1924240571" lon="-4.1985338554">
        <ele>866.29</ele>
        <time>2018-05-19T12:21:13Z</time>
      </trkpt>
      <trkpt lat="43.1923350412" lon="-4.1984740924">
        <ele>867.25</ele>
        <time>2018-05-19T12:21:18Z</time>
      </trkpt>
      <trkpt lat="43.1922454387" lon="-4.1984112281">
        <ele>868.21</ele>
        <time>2018-05-19T12:21:23Z</time>
      </trkpt>
      <trkpt lat="43.1921623740" lon="-4.1983480286">
        <ele>869.17</ele>
        <time>2018-05-19T12:21:28Z</time>
      </trkpt>
      <trkpt lat="43.1920783874" lon="-4.1982772853">
        <ele>869.65</ele>
        <time>2018-05-19T12:21:33Z</time>
      </trkpt>
      <trkpt lat="43.1919956580" lon="-4.1982039437">
        <ele>870.13</ele>
        <time>2018-05-19T12:21:38Z</time>
      </trkpt>
      <trkpt lat="43.1919127610" lon="-4.1981368884">
        <ele>871.09</ele>
        <time>2018-05-19T12:21:43Z</time>
      </trkpt>
      <trkpt lat="43.1918217335" lon="-4.1980785504">
        <ele>871.57</ele>
        <time>2018-05-19T12:21:48Z</time>
      </trkpt>
      <trkpt lat="43.1917146128" lon="-4.1980079748">
        <ele>872.53</ele>
        <time>2018-05-19T12:21:53Z</time>
      </trkpt>
      <trkpt lat="43.1916288659" lon="-4.1979596950">
        <ele>873.50</ele>
        <time>2018-05-19T12:21:57Z</time>
      </trkpt>
      <trkpt lat="43.1915479805" lon="-4.1979188751">
        <ele>874.46</ele>
        <time>2018-05-19T12:22:01Z</time>
      </trkpt>
      <trkpt lat="43.1914596353" lon="-4.1978677455">
        <ele>874.94</ele>
        <time>2018-05-19T12:22:05Z</time>
      </trkpt>
      <trkpt lat="43.1913546938" lon="-4.1978080664">
        <ele>874.94</ele>
        <time>2018-05-19T12:22:10Z</time>
      </trkpt>
      <trkpt lat="43.1912685279" lon="-4.1977632232">
        <ele>876.38</ele>
        <time>2018-05-19T12:22:14Z</time>
      </trkpt>
      <trkpt lat="43.1911823619" lon="-4.1977125965">
        <ele>877.34</ele>
        <time>2018-05-19T12:22:18Z</time>
      </trkpt>
      <trkpt lat="43.1910904963" lon="-4.1976592038">
        <ele>878.78</ele>
        <time>2018-05-19T12:22:23Z</time>
      </trkpt>
      <trkpt lat="43.1909858901" lon="-4.1976115108">
        <ele>879.74</ele>
        <time>2018-05-19T12:22:28Z</time>
      </trkpt>
      <trkpt lat="43.1908907555" lon="-4.1975761391">
        <ele>880.71</ele>
        <time>2018-05-19T12:22:33Z</time>
      </trkpt>
      <trkpt lat="43.1908014882" lon="-4.1975324694">
        <ele>882.15</ele>
        <time>2018-05-19T12:22:38Z</time>
      </trkpt>
      <trkpt lat="43.1907103769" lon="-4.1974887997">
        <ele>882.15</ele>
        <time>2018-05-19T12:22:43Z</time>
      </trkpt>
      <trkpt lat="43.1906107161" lon="-4.1974537633">
        <ele>883.11</ele>
        <time>2018-05-19T12:22:48Z</time>
      </trkpt>
      <trkpt lat="43.1905139890" lon="-4.1974179726">
        <ele>884.07</ele>
        <time>2018-05-19T12:22:53Z</time>
      </trkpt>
      <trkpt lat="43.1904123165" lon="-4.1973649152">
        <ele>884.55</ele>
        <time>2018-05-19T12:22:58Z</time>
      </trkpt>
      <trkpt lat="43.1903163437" lon="-4.1973318066">
        <ele>885.51</ele>
        <time>2018-05-19T12:23:02Z</time>
      </trkpt>
      <trkpt lat="43.1902121566" lon="-4.1972906515">
        <ele>886.47</ele>
        <time>2018-05-19T12:23:07Z</time>
      </trkpt>
      <trkpt lat="43.1901257392" lon="-4.1972442158">
        <ele>886.95</ele>
        <time>2018-05-19T12:23:11Z</time>
      </trkpt>
      <trkpt lat="43.1900214683" lon="-4.1971965227">
        <ele>888.40</ele>
        <time>2018-05-19T12:23:16Z</time>
      </trkpt>
      <trkpt lat="43.1899356376" lon="-4.1971629951">
        <ele>888.88</ele>
        <time>2018-05-19T12:23:20Z</time>
      </trkpt>
      <trkpt lat="43.1898394134" lon="-4.1971241869">
        <ele>889.36</ele>
        <time>2018-05-19T12:23:24Z</time>
      </trkpt>
      <trkpt lat="43.1897431053" lon="-4.1970943473">
        <ele>890.32</ele>
        <time>2018-05-19T12:23:29Z</time>
      </trkpt>
      <trkpt lat="43.1896393374" lon="-4.1970495880">
        <ele>891.76</ele>
        <time>2018-05-19T12:23:34Z</time>
      </trkpt>
      <trkpt lat="43.1895458791" lon="-4.1970083490">
        <ele>892.72</ele>
        <time>2018-05-19T12:23:39Z</time>
      </trkpt>
      <trkpt lat="43.1894491520" lon="-4.1969696246">
        <ele>893.68</ele>
        <time>2018-05-19T12:23:44Z</time>
      </trkpt>
      <trkpt lat="43.1893524248" lon="-4.1969266254">
        <ele>894.16</ele>
        <time>2018-05-19T12:23:49Z</time>
      </trkpt>
      <trkpt lat="43.1892701145" lon="-4.1968858056">
        <ele>895.12</ele>
        <time>2018-05-19T12:23:53Z</time>
      </trkpt>
      <trkpt lat="43.1891634967" lon="-4.1968434770">
        <ele>896.09</ele>
        <time>2018-05-19T12:23:58Z</time>
      </trkpt>
      <trkpt lat="43.1890573818" lon="-4.1968075186">
        <ele>896.57</ele>
        <time>2018-05-19T12:24:03Z</time>
      </trkpt>
      <trkpt lat="43.1889666058" lon="-4.1967763379">
        <ele>898.01</ele>
        <time>2018-05-19T12:24:07Z</time>
      </trkpt>
      <trkpt lat="43.1888713874" lon="-4.1967161559">
        <ele>898.01</ele>
        <time>2018-05-19T12:24:12Z</time>
      </trkpt>
      <trkpt lat="43.1887760013" lon="-4.1966392938">
        <ele>899.45</ele>
        <time>2018-05-19T12:24:17Z</time>
      </trkpt>
      <trkpt lat="43.1886938587" lon="-4.1965501942">
        <ele>900.41</ele>
        <time>2018-05-19T12:24:22Z</time>
      </trkpt>
      <trkpt lat="43.1886300724" lon="-4.1964253038">
        <ele>900.41</ele>
        <time>2018-05-19T12:24:27Z</time>
      </trkpt>
      <trkpt lat="43.1885852292" lon="-4.1962906066">
        <ele>901.37</ele>
        <time>2018-05-19T12:24:32Z</time>
      </trkpt>
      <trkpt lat="43.1885670405" lon="-4.1961405706">
        <ele>902.33</ele>
        <time>2018-05-19T12:24:37Z</time>
      </trkpt>
      <trkpt lat="43.1885657832" lon="-4.1959839966">
        <ele>903.30</ele>
        <time>2018-05-19T12:24:42Z</time>
      </trkpt>
      <trkpt lat="43.1885986403" lon="-4.1958425939">
        <ele>904.26</ele>
        <time>2018-05-19T12:24:47Z</time>
      </trkpt>
      <trkpt lat="43.1886292342" lon="-4.1956934799">
        <ele>904.74</ele>
        <time>2018-05-19T12:24:52Z</time>
      </trkpt>
      <trkpt lat="43.1886702217" lon="-4.1955469642">
        <ele>905.22</ele>
        <time>2018-05-19T12:24:57Z</time>
      </trkpt>
      <trkpt lat="43.1887177471" lon="-4.1954269353">
        <ele>906.66</ele>
        <time>2018-05-19T12:25:01Z</time>
      </trkpt>
      <trkpt lat="43.1887772586" lon="-4.1953085829">
        <ele>907.14</ele>
        <time>2018-05-19T12:25:06Z</time>
      </trkpt>
      <trkpt lat="43.1888413802" lon="-4.1951898113">
        <ele>908.10</ele>
        <time>2018-05-19T12:25:10Z</time>
      </trkpt>
      <trkpt lat="43.1889044121" lon="-4.1950817686">
        <ele>908.58</ele>
        <time>2018-05-19T12:25:14Z</time>
      </trkpt>
      <trkpt lat="43.1889687851" lon="-4.1949697863">
        <ele>909.06</ele>
        <time>2018-05-19T12:25:18Z</time>
      </trkpt>
      <trkpt lat="43.1890445575" lon="-4.1948760767">
        <ele>909.54</ele>
        <time>2018-05-19T12:25:22Z</time>
      </trkpt>
      <trkpt lat="43.1891086791" lon="-4.1947661899">
        <ele>910.03</ele>
        <time>2018-05-19T12:25:26Z</time>
      </trkpt>
      <trkpt lat="43.1891681068" lon="-4.1946543753">
        <ele>910.03</ele>
        <time>2018-05-19T12:25:30Z</time>
      </trkpt>
      <trkpt lat="43.1892256066" lon="-4.1945547983">
        <ele>910.99</ele>
        <time>2018-05-19T12:25:34Z</time>
      </trkpt>
      <trkpt lat="43.1892867107" lon="-4.1944497731">
        <ele>910.99</ele>
        <time>2018-05-19T12:25:38Z</time>
      </trkpt>
      <trkpt lat="43.1893499941" lon="-4.1943440773">
        <ele>911.47</ele>
        <time>2018-05-19T12:25:42Z</time>
      </trkpt>
      <trkpt lat="43.1894189771" lon="-4.1942368727">
        <ele>912.43</ele>
        <time>2018-05-19T12:25:46Z</time>
      </trkpt>
      <trkpt lat="43.1894876249" lon="-4.1941258963">
        <ele>912.91</ele>
        <time>2018-05-19T12:25:50Z</time>
      </trkpt>
      <trkpt lat="43.1895467173" lon="-4.1940144170">
        <ele>914.35</ele>
        <time>2018-05-19T12:25:54Z</time>
      </trkpt>
      <trkpt lat="43.1896076538" lon="-4.1939015966">
        <ele>914.83</ele>
        <time>2018-05-19T12:25:58Z</time>
      </trkpt>
      <trkpt lat="43.1896653213" lon="-4.1937915422">
        <ele>915.79</ele>
        <time>2018-05-19T12:26:02Z</time>
      </trkpt>
      <trkpt lat="43.1897262577" lon="-4.1936689150">
        <ele>916.27</ele>
        <time>2018-05-19T12:26:07Z</time>
      </trkpt>
      <trkpt lat="43.1897830032" lon="-4.1935374867">
        <ele>916.75</ele>
        <time>2018-05-19T12:26:12Z</time>
      </trkpt>
      <trkpt lat="43.1898262538" lon="-4.1934264265">
        <ele>916.75</ele>
        <time>2018-05-19T12:26:16Z</time>
      </trkpt>
      <trkpt lat="43.1898682471" lon="-4.1933096666">
        <ele>918.20</ele>
        <time>2018-05-19T12:26:20Z</time>
      </trkpt>
      <trkpt lat="43.1899125036" lon="-4.1931808367">
        <ele>919.16</ele>
        <time>2018-05-19T12:26:24Z</time>
      </trkpt>
      <trkpt lat="43.1899517309" lon="-4.1930619814">
        <ele>919.64</ele>
        <time>2018-05-19T12:26:28Z</time>
      </trkpt>
      <trkpt lat="43.1899950653" lon="-4.1929468140">
        <ele>920.12</ele>
        <time>2018-05-19T12:26:32Z</time>
      </trkpt>
      <trkpt lat="43.1900412496" lon="-4.1928244382">
        <ele>920.60</ele>
        <time>2018-05-19T12:26:36Z</time>
      </trkpt>
      <trkpt lat="43.1900913734" lon="-4.1927153058">
        <ele>921.56</ele>
        <time>2018-05-19T12:26:40Z</time>
      </trkpt>
      <trkpt lat="43.1901418325" lon="-4.1926016472">
        <ele>922.04</ele>
        <time>2018-05-19T12:26:44Z</time>
      </trkpt>
      <trkpt lat="43.1901840772" lon="-4.1924703028">
        <ele>922.52</ele>
        <time>2018-05-19T12:26:48Z</time>
      </trkpt>
      <trkpt lat="43.1902198680" lon="-4.1923431493">
        <ele>923.00</ele>
        <time>2018-05-19T12:26:52Z</time>
      </trkpt>
      <trkpt lat="43.1902510487" lon="-4.1922045965">
        <ele>923.96</ele>
        <time>2018-05-19T12:26:56Z</time>
      </trkpt>
      <trkpt lat="43.1902967300" lon="-4.1920735035">
        <ele>923.96</ele>
        <time>2018-05-19T12:27:00Z</time>
      </trkpt>
      <trkpt lat="43.1903411541" lon="-4.1919433326">
        <ele>924.93</ele>
        <time>2018-05-19T12:27:04Z</time>
      </trkpt>
      <trkpt lat="43.1903839856" lon="-4.1918130778">
        <ele>924.93</ele>
        <time>2018-05-19T12:27:08Z</time>
      </trkpt>
      <trkpt lat="43.1904274039" lon="-4.1916948091">
        <ele>925.41</ele>
        <time>2018-05-19T12:27:12Z</time>
      </trkpt>
      <trkpt lat="43.1904655416" lon="-4.1915698349">
        <ele>926.37</ele>
        <time>2018-05-19T12:27:16Z</time>
      </trkpt>
      <trkpt lat="43.1904867478" lon="-4.1914378200">
        <ele>926.85</ele>
        <time>2018-05-19T12:27:20Z</time>
      </trkpt>
      <trkpt lat="43.1905144081" lon="-4.1913107503">
        <ele>926.85</ele>
        <time>2018-05-19T12:27:24Z</time>
      </trkpt>
      <trkpt lat="43.1905455887" lon="-4.1911694314">
        <ele>927.81</ele>
        <time>2018-05-19T12:27:28Z</time>
      </trkpt>
      <trkpt lat="43.1905696448" lon="-4.1910504922">
        <ele>927.81</ele>
        <time>2018-05-19T12:27:31Z</time>
      </trkpt>
      <trkpt lat="43.1905852351" lon="-4.1908913199">
        <ele>928.77</ele>
        <time>2018-05-19T12:27:35Z</time>
      </trkpt>
      <trkpt lat="43.1905996520" lon="-4.1907619871">
        <ele>928.77</ele>
        <time>2018-05-19T12:27:38Z</time>
      </trkpt>
      <trkpt lat="43.1906073634" lon="-4.1906241886">
        <ele>929.25</ele>
        <time>2018-05-19T12:27:41Z</time>
      </trkpt>
      <trkpt lat="43.1906053517" lon="-4.1904827021">
        <ele>929.25</ele>
        <time>2018-05-19T12:27:44Z</time>
      </trkpt>
      <trkpt lat="43.1906041782" lon="-4.1903273016">
        <ele>929.25</ele>
        <time>2018-05-19T12:27:47Z</time>
      </trkpt>
      <trkpt lat="43.1905921921" lon="-4.1901636869">
        <ele>929.25</ele>
        <time>2018-05-19T12:27:50Z</time>
      </trkpt>
      <trkpt lat="43.1905688904" lon="-4.1899889242">
        <ele>929.25</ele>
        <time>2018-05-19T12:27:53Z</time>
      </trkpt>
      <trkpt lat="43.1905464269" lon="-4.1898244713">
        <ele>929.25</ele>
        <time>2018-05-19T12:27:56Z</time>
      </trkpt>
      <trkpt lat="43.1905241311" lon="-4.1896999162">
        <ele>927.81</ele>
        <time>2018-05-19T12:27:58Z</time>
      </trkpt>
      <trkpt lat="43.1904999912" lon="-4.1895617824">
        <ele>926.85</ele>
        <time>2018-05-19T12:28:00Z</time>
      </trkpt>
      <trkpt lat="43.1904794555" lon="-4.1894168593">
        <ele>926.37</ele>
        <time>2018-05-19T12:28:02Z</time>
      </trkpt>
      <trkpt lat="43.1904477719" lon="-4.1892677452">
        <ele>926.37</ele>
        <time>2018-05-19T12:28:04Z</time>
      </trkpt>
      <trkpt lat="43.1904092152" lon="-4.1890895460">
        <ele>924.93</ele>
        <time>2018-05-19T12:28:06Z</time>
      </trkpt>
      <trkpt lat="43.1903674733" lon="-4.1889354028">
        <ele>924.45</ele>
        <time>2018-05-19T12:28:08Z</time>
      </trkpt>
      <trkpt lat="43.1903147511" lon="-4.1887608077">
        <ele>923.00</ele>
        <time>2018-05-19T12:28:10Z</time>
      </trkpt>
      <trkpt lat="43.1902625319" lon="-4.1885903198">
        <ele>922.52</ele>
        <time>2018-05-19T12:28:12Z</time>
      </trkpt>
      <trkpt lat="43.1902049482" lon="-4.1884272080">
        <ele>922.52</ele>
        <time>2018-05-19T12:28:14Z</time>
      </trkpt>
      <trkpt lat="43.1901373900" lon="-4.1882464103">
        <ele>921.08</ele>
        <time>2018-05-19T12:28:16Z</time>
      </trkpt>
      <trkpt lat="43.1900590193" lon="-4.1880654451">
        <ele>920.60</ele>
        <time>2018-05-19T12:28:18Z</time>
      </trkpt>
      <trkpt lat="43.1899684947" lon="-4.1879247967">
        <ele>920.12</ele>
        <time>2018-05-19T12:28:20Z</time>
      </trkpt>
      <trkpt lat="43.1898586079" lon="-4.1877761856">
        <ele>918.20</ele>
        <time>2018-05-19T12:28:22Z</time>
      </trkpt>
      <trkpt lat="43.1897491403" lon="-4.1876150016">
        <ele>917.24</ele>
        <time>2018-05-19T12:28:24Z</time>
      </trkpt>
      <trkpt lat="43.1896912213" lon="-4.1875224654">
        <ele>916.75</ele>
        <time>2018-05-19T12:28:25Z</time>
      </trkpt>
      <trkpt lat="43.1895847712" lon="-4.1873524804">
        <ele>915.31</ele>
        <time>2018-05-19T12:28:27Z</time>
      </trkpt>
      <trkpt lat="43.1895287801" lon="-4.1872644704">
        <ele>915.31</ele>
        <time>2018-05-19T12:28:28Z</time>
      </trkpt>
      <trkpt lat="43.1894137803" lon="-4.1870918870">
        <ele>915.31</ele>
        <time>2018-05-19T12:28:30Z</time>
      </trkpt>
      <trkpt lat="43.1893009599" lon="-4.1869210638">
        <ele>913.39</ele>
        <time>2018-05-19T12:28:32Z</time>
      </trkpt>
      <trkpt lat="43.1892040651" lon="-4.1867554374">
        <ele>911.95</ele>
        <time>2018-05-19T12:28:34Z</time>
      </trkpt>
      <trkpt lat="43.1891235989" lon="-4.1866042279">
        <ele>911.47</ele>
        <time>2018-05-19T12:28:36Z</time>
      </trkpt>
      <trkpt lat="43.1890044920" lon="-4.1864673514">
        <ele>909.54</ele>
        <time>2018-05-19T12:28:38Z</time>
      </trkpt>
      <trkpt lat="43.1888680346" lon="-4.1863903217">
        <ele>909.06</ele>
        <time>2018-05-19T12:28:40Z</time>
      </trkpt>
      <trkpt lat="43.1887253746" lon="-4.1863364261">
        <ele>909.06</ele>
        <time>2018-05-19T12:28:42Z</time>
      </trkpt>
      <trkpt lat="43.1885886658" lon="-4.1862792615">
        <ele>908.58</ele>
        <time>2018-05-19T12:28:44Z</time>
      </trkpt>
      <trkpt lat="43.1884632725" lon="-4.1862251982">
        <ele>908.58</ele>
        <time>2018-05-19T12:28:46Z</time>
      </trkpt>
      <trkpt lat="43.1883470155" lon="-4.1861902457">
        <ele>908.58</ele>
        <time>2018-05-19T12:28:48Z</time>
      </trkpt>
      <trkpt lat="43.1882296689" lon="-4.1861492582">
        <ele>908.58</ele>
        <time>2018-05-19T12:28:50Z</time>
      </trkpt>
      <trkpt lat="43.1881133281" lon="-4.1861086898">
        <ele>908.58</ele>
        <time>2018-05-19T12:28:52Z</time>
      </trkpt>
      <trkpt lat="43.1879935507" lon="-4.1860692948">
        <ele>908.58</ele>
        <time>2018-05-19T12:28:54Z</time>
      </trkpt>
      <trkpt lat="43.1878623739" lon="-4.1860171594">
        <ele>908.10</ele>
        <time>2018-05-19T12:28:56Z</time>
      </trkpt>
      <trkpt lat="43.1877560075" lon="-4.1859493498">
        <ele>905.70</ele>
        <time>2018-05-19T12:28:58Z</time>
      </trkpt>
      <trkpt lat="43.1876528263" lon="-4.1858316679">
        <ele>905.70</ele>
        <time>2018-05-19T12:29:00Z</time>
      </trkpt>
      <trkpt lat="43.1875620503" lon="-4.1856734175">
        <ele>905.22</ele>
        <time>2018-05-19T12:29:02Z</time>
      </trkpt>
      <trkpt lat="43.1874664966" lon="-4.1855118144">
        <ele>904.26</ele>
        <time>2018-05-19T12:29:04Z</time>
      </trkpt>
      <trkpt lat="43.1873449590" lon="-4.1853695735">
        <ele>902.33</ele>
        <time>2018-05-19T12:29:06Z</time>
      </trkpt>
      <trkpt lat="43.1871981919" lon="-4.1852335352">
        <ele>901.85</ele>
        <time>2018-05-19T12:29:08Z</time>
      </trkpt>
      <trkpt lat="43.1870781630" lon="-4.1851186194">
        <ele>901.85</ele>
        <time>2018-05-19T12:29:10Z</time>
      </trkpt>
      <trkpt lat="43.1869536918" lon="-4.1849943157">
        <ele>901.37</ele>
        <time>2018-05-19T12:29:12Z</time>
      </trkpt>
      <trkpt lat="43.1868315674" lon="-4.1848590318">
        <ele>900.89</ele>
        <time>2018-05-19T12:29:14Z</time>
      </trkpt>
      <trkpt lat="43.1867197528" lon="-4.1847266816">
        <ele>899.93</ele>
        <time>2018-05-19T12:29:16Z</time>
      </trkpt>
      <trkpt lat="43.1866074353" lon="-4.1845799144">
        <ele>899.93</ele>
        <time>2018-05-19T12:29:18Z</time>
      </trkpt>
      <trkpt lat="43.1865002308" lon="-4.1844233405">
        <ele>898.97</ele>
        <time>2018-05-19T12:29:20Z</time>
      </trkpt>
      <trkpt lat="43.1864015758" lon="-4.1842831951">
        <ele>899.45</ele>
        <time>2018-05-19T12:29:22Z</time>
      </trkpt>
      <trkpt lat="43.1862904318" lon="-4.1841272917">
        <ele>897.53</ele>
        <time>2018-05-19T12:29:24Z</time>
      </trkpt>
      <trkpt lat="43.1861826405" lon="-4.1839778423">
        <ele>897.53</ele>
        <time>2018-05-19T12:29:26Z</time>
      </trkpt>
      <trkpt lat="43.1860611029" lon="-4.1838045884">
        <ele>895.61</ele>
        <time>2018-05-19T12:29:28Z</time>
      </trkpt>
      <trkpt lat="43.1859616935" lon="-4.1836157441">
        <ele>895.12</ele>
        <time>2018-05-19T12:29:30Z</time>
      </trkpt>
      <trkpt lat="43.1858715881" lon="-4.1834397241">
        <ele>894.16</ele>
        <time>2018-05-19T12:29:32Z</time>
      </trkpt>
      <trkpt lat="43.1857554987" lon="-4.1832693201">
        <ele>894.16</ele>
        <time>2018-05-19T12:29:34Z</time>
      </trkpt>
      <trkpt lat="43.1856280938" lon="-4.1831265762">
        <ele>894.16</ele>
        <time>2018-05-19T12:29:36Z</time>
      </trkpt>
      <trkpt lat="43.1854922231" lon="-4.1830234788">
        <ele>894.16</ele>
        <time>2018-05-19T12:29:38Z</time>
      </trkpt>
      <trkpt lat="43.1853718590" lon="-4.1829544958">
        <ele>896.09</ele>
        <time>2018-05-19T12:29:40Z</time>
      </trkpt>
      <trkpt lat="43.1852763053" lon="-4.1829147656">
        <ele>897.53</ele>
        <time>2018-05-19T12:29:42Z</time>
      </trkpt>
      <trkpt lat="43.1851872057" lon="-4.1828851774">
        <ele>898.01</ele>
        <time>2018-05-19T12:29:44Z</time>
      </trkpt>
      <trkpt lat="43.1850743853" lon="-4.1828565951">
        <ele>899.45</ele>
        <time>2018-05-19T12:29:47Z</time>
      </trkpt>
      <trkpt lat="43.1849725451" lon="-4.1828340478">
        <ele>900.41</ele>
        <time>2018-05-19T12:29:50Z</time>
      </trkpt>
      <trkpt lat="43.1848568749" lon="-4.1828265041">
        <ele>901.37</ele>
        <time>2018-05-19T12:29:54Z</time>
      </trkpt>
      <trkpt lat="43.1847394444" lon="-4.1828090698">
        <ele>902.82</ele>
        <time>2018-05-19T12:29:58Z</time>
      </trkpt>
      <trkpt lat="43.1846485846" lon="-4.1827907134">
        <ele>902.82</ele>
        <time>2018-05-19T12:30:01Z</time>
      </trkpt>
      <trkpt lat="43.1845364347" lon="-4.1827737819">
        <ele>903.30</ele>
        <time>2018-05-19T12:30:05Z</time>
      </trkpt>
      <trkpt lat="43.1844273023" lon="-4.1827652324">
        <ele>904.26</ele>
        <time>2018-05-19T12:30:09Z</time>
      </trkpt>
      <trkpt lat="43.1843169127" lon="-4.1827776376">
        <ele>905.22</ele>
        <time>2018-05-19T12:30:13Z</time>
      </trkpt>
      <trkpt lat="43.1842123903" lon="-4.1828074772">
        <ele>906.18</ele>
        <time>2018-05-19T12:30:17Z</time>
      </trkpt>
      <trkpt lat="43.1841119751" lon="-4.1828302760">
        <ele>906.66</ele>
        <time>2018-05-19T12:30:21Z</time>
      </trkpt>
      <trkpt lat="43.1840226240" lon="-4.1828455310">
        <ele>907.14</ele>
        <time>2018-05-19T12:30:25Z</time>
      </trkpt>
      <trkpt lat="43.1839320995" lon="-4.1828612890">
        <ele>907.62</ele>
        <time>2018-05-19T12:30:29Z</time>
      </trkpt>
      <trkpt lat="43.1838383060" lon="-4.1828684136">
        <ele>908.58</ele>
        <time>2018-05-19T12:30:33Z</time>
      </trkpt>
      <trkpt lat="43.1837440096" lon="-4.1828734428">
        <ele>909.54</ele>
        <time>2018-05-19T12:30:37Z</time>
      </trkpt>
      <trkpt lat="43.1836516410" lon="-4.1828821599">
        <ele>910.51</ele>
        <time>2018-05-19T12:30:41Z</time>
      </trkpt>
      <trkpt lat="43.1835420057" lon="-4.1828885302">
        <ele>910.99</ele>
        <time>2018-05-19T12:30:46Z</time>
      </trkpt>
      <trkpt lat="43.1834487151" lon="-4.1829011869">
        <ele>911.95</ele>
        <time>2018-05-19T12:30:50Z</time>
      </trkpt>
      <trkpt lat="43.1833577715" lon="-4.1829166934">
        <ele>912.43</ele>
        <time>2018-05-19T12:30:54Z</time>
      </trkpt>
      <trkpt lat="43.1832616311" lon="-4.1829347145">
        <ele>912.91</ele>
        <time>2018-05-19T12:30:58Z</time>
      </trkpt>
      <trkpt lat="43.1831530016" lon="-4.1829673201">
        <ele>913.39</ele>
        <time>2018-05-19T12:31:02Z</time>
      </trkpt>
      <trkpt lat="43.1830515806" lon="-4.1830000933">
        <ele>913.39</ele>
        <time>2018-05-19T12:31:06Z</time>
      </trkpt>
      <trkpt lat="43.1829449628" lon="-4.1830047034">
        <ele>914.83</ele>
        <time>2018-05-19T12:31:10Z</time>
      </trkpt>
      <trkpt lat="43.1828354113" lon="-4.1830022726">
        <ele>914.83</ele>
        <time>2018-05-19T12:31:14Z</time>
      </trkpt>
      <trkpt lat="43.1827349961" lon="-4.1829930525">
        <ele>915.31</ele>
        <time>2018-05-19T12:31:18Z</time>
      </trkpt>
      <trkpt lat="43.1826279592" lon="-4.1829885263">
        <ele>916.27</ele>
        <time>2018-05-19T12:31:22Z</time>
      </trkpt>
      <trkpt lat="43.1825200841" lon="-4.1829885263">
        <ele>916.75</ele>
        <time>2018-05-19T12:31:26Z</time>
      </trkpt>
      <trkpt lat="43.1824199203" lon="-4.1829896998">
        <ele>917.24</ele>
        <time>2018-05-19T12:31:30Z</time>
      </trkpt>
      <trkpt lat="43.1823173258" lon="-4.1830133367">
        <ele>918.20</ele>
        <time>2018-05-19T12:31:34Z</time>
      </trkpt>
      <trkpt lat="43.1822129712" lon="-4.1830461100">
        <ele>918.68</ele>
        <time>2018-05-19T12:31:38Z</time>
      </trkpt>
      <trkpt lat="43.1821045093" lon="-4.1830841638">
        <ele>918.68</ele>
        <time>2018-05-19T12:31:42Z</time>
      </trkpt>
      <trkpt lat="43.1819932815" lon="-4.1831401549">
        <ele>919.16</ele>
        <time>2018-05-19T12:31:46Z</time>
      </trkpt>
      <trkpt lat="43.1819014996" lon="-4.1831746884">
        <ele>919.64</ele>
        <time>2018-05-19T12:31:49Z</time>
      </trkpt>
      <trkpt lat="43.1818116456" lon="-4.1832113173">
        <ele>920.12</ele>
        <time>2018-05-19T12:31:52Z</time>
      </trkpt>
      <trkpt lat="43.1816994958" lon="-4.1832699068">
        <ele>920.60</ele>
        <time>2018-05-19T12:31:56Z</time>
      </trkpt>
      <trkpt lat="43.1816071272" lon="-4.1833195277">
        <ele>920.60</ele>
        <time>2018-05-19T12:31:59Z</time>
      </trkpt>
      <trkpt lat="43.1815177761" lon="-4.1833740938">
        <ele>921.08</ele>
        <time>2018-05-19T12:32:02Z</time>
      </trkpt>
      <trkpt lat="43.1814130861" lon="-4.1834245529">
        <ele>921.08</ele>
        <time>2018-05-19T12:32:05Z</time>
      </trkpt>
      <trkpt lat="43.1813028641" lon="-4.1834969725">
        <ele>921.08</ele>
        <time>2018-05-19T12:32:08Z</time>
      </trkpt>
      <trkpt lat="43.1812147703" lon="-4.1835562326">
        <ele>921.08</ele>
        <time>2018-05-19T12:32:10Z</time>
      </trkpt>
      <trkpt lat="43.1811061408" lon="-4.1836364474">
        <ele>921.08</ele>
        <time>2018-05-19T12:32:13Z</time>
      </trkpt>
      <trkpt lat="43.1809860282" lon="-4.1837249603">
        <ele>921.08</ele>
        <time>2018-05-19T12:32:16Z</time>
      </trkpt>
      <trkpt lat="43.1808976829" lon="-4.1837863158">
        <ele>919.64</ele>
        <time>2018-05-19T12:32:18Z</time>
      </trkpt>
      <trkpt lat="43.1808033027" lon="-4.1838495992">
        <ele>919.64</ele>
        <time>2018-05-19T12:32:20Z</time>
      </trkpt>
      <trkpt lat="43.1807139516" lon="-4.1839027405">
        <ele>919.16</ele>
        <time>2018-05-19T12:32:22Z</time>
      </trkpt>
      <trkpt lat="43.1806166377" lon="-4.1839500144">
        <ele>919.16</ele>
        <time>2018-05-19T12:32:24Z</time>
      </trkpt>
      <trkpt lat="43.1805068348" lon="-4.1839930136">
        <ele>918.68</ele>
        <time>2018-05-19T12:32:26Z</time>
      </trkpt>
      <trkpt lat="43.1803982891" lon="-4.1840389464">
        <ele>918.68</ele>
        <time>2018-05-19T12:32:28Z</time>
      </trkpt>
      <trkpt lat="43.1802824512" lon="-4.1840896569">
        <ele>918.68</ele>
        <time>2018-05-19T12:32:30Z</time>
      </trkpt>
      <trkpt lat="43.1801567227" lon="-4.1841170657">
        <ele>918.20</ele>
        <time>2018-05-19T12:32:32Z</time>
      </trkpt>
      <trkpt lat="43.1800345145" lon="-4.1841074266">
        <ele>917.24</ele>
        <time>2018-05-19T12:32:34Z</time>
      </trkpt>
      <trkpt lat="43.1798957102" lon="-4.1840505134">
        <ele>916.27</ele>
        <time>2018-05-19T12:32:36Z</time>
      </trkpt>
      <trkpt lat="43.1797718257" lon="-4.1839304008">
        <ele>915.31</ele>
        <time>2018-05-19T12:32:38Z</time>
      </trkpt>
      <trkpt lat="43.1796811335" lon="-4.1837600805">
        <ele>913.87</ele>
        <time>2018-05-19T12:32:40Z</time>
      </trkpt>
      <trkpt lat="43.1796461809" lon="-4.1836525407">
        <ele>912.43</ele>
        <time>2018-05-19T12:32:41Z</time>
      </trkpt>
      <trkpt lat="43.1796210352" lon="-4.1835258063">
        <ele>911.47</ele>
        <time>2018-05-19T12:32:42Z</time>
      </trkpt>
      <trkpt lat="43.1796159223" lon="-4.1833284125">
        <ele>911.47</ele>
        <time>2018-05-19T12:32:44Z</time>
      </trkpt>
      <trkpt lat="43.1796261482" lon="-4.1831056215">
        <ele>909.54</ele>
        <time>2018-05-19T12:32:46Z</time>
      </trkpt>
      <trkpt lat="43.1796340272" lon="-4.1828760412">
        <ele>908.10</ele>
        <time>2018-05-19T12:32:48Z</time>
      </trkpt>
      <trkpt lat="43.1796516292" lon="-4.1826527473">
        <ele>907.14</ele>
        <time>2018-05-19T12:32:50Z</time>
      </trkpt>
      <trkpt lat="43.1797023397" lon="-4.1824615560">
        <ele>904.74</ele>
        <time>2018-05-19T12:32:52Z</time>
      </trkpt>
      <trkpt lat="43.1797454227" lon="-4.1822724603">
        <ele>902.82</ele>
        <time>2018-05-19T12:32:54Z</time>
      </trkpt>
      <trkpt lat="43.1796896830" lon="-4.1821286269">
        <ele>902.82</ele>
        <time>2018-05-19T12:32:56Z</time>
      </trkpt>
      <trkpt lat="43.1795498729" lon="-4.1820669360">
        <ele>902.33</ele>
        <time>2018-05-19T12:32:58Z</time>
      </trkpt>
      <trkpt lat="43.1793883536" lon="-4.1820415389">
        <ele>900.41</ele>
        <time>2018-05-19T12:33:00Z</time>
      </trkpt>
      <trkpt lat="43.1792295165" lon="-4.1819557082">
        <ele>899.45</ele>
        <time>2018-05-19T12:33:02Z</time>
      </trkpt>
      <trkpt lat="43.1791174505" lon="-4.1817933507">
        <ele>899.45</ele>
        <time>2018-05-19T12:33:04Z</time>
      </trkpt>
      <trkpt lat="43.1790479645" lon="-4.1816247907">
        <ele>899.45</ele>
        <time>2018-05-19T12:33:06Z</time>
      </trkpt>
      <trkpt lat="43.1789864413" lon="-4.1814667080">
        <ele>899.45</ele>
        <time>2018-05-19T12:33:08Z</time>
      </trkpt>
      <trkpt lat="43.1789358985" lon="-4.1813002434">
        <ele>899.45</ele>
        <time>2018-05-19T12:33:10Z</time>
      </trkpt>
      <trkpt lat="43.1788912229" lon="-4.1811636183">
        <ele>900.89</ele>
        <time>2018-05-19T12:33:12Z</time>
      </trkpt>
      <trkpt lat="43.1788386684" lon="-4.1810207907">
        <ele>900.89</ele>
        <time>2018-05-19T12:33:14Z</time>
      </trkpt>
      <trkpt lat="43.1787872873" lon="-4.1808663122">
        <ele>902.82</ele>
        <time>2018-05-19T12:33:17Z</time>
      </trkpt>
      <trkpt lat="43.1787382532" lon="-4.1807202995">
        <ele>903.78</ele>
        <time>2018-05-19T12:33:20Z</time>
      </trkpt>
      <trkpt lat="43.1786862854" lon="-4.1805944033">
        <ele>904.26</ele>
        <time>2018-05-19T12:33:23Z</time>
      </trkpt>
      <trkpt lat="43.1786376704" lon="-4.1804825049">
        <ele>904.74</ele>
        <time>2018-05-19T12:33:26Z</time>
      </trkpt>
      <trkpt lat="43.1785836071" lon="-4.1803385038">
        <ele>906.18</ele>
        <time>2018-05-19T12:33:30Z</time>
      </trkpt>
      <trkpt lat="43.1785232574" lon="-4.1801990289">
        <ele>907.14</ele>
        <time>2018-05-19T12:33:34Z</time>
      </trkpt>
      <trkpt lat="43.1784663443" lon="-4.1800792515">
        <ele>908.10</ele>
        <time>2018-05-19T12:33:38Z</time>
      </trkpt>
      <trkpt lat="43.1783985347" lon="-4.1799691133">
        <ele>909.06</ele>
        <time>2018-05-19T12:33:42Z</time>
      </trkpt>
      <trkpt lat="43.1783073395" lon="-4.1798868869">
        <ele>910.03</ele>
        <time>2018-05-19T12:33:46Z</time>
      </trkpt>
      <trkpt lat="43.1782088522" lon="-4.1798666865">
        <ele>910.51</ele>
        <time>2018-05-19T12:33:50Z</time>
      </trkpt>
      <trkpt lat="43.1781069282" lon="-4.1798917484">
        <ele>911.47</ele>
        <time>2018-05-19T12:33:54Z</time>
      </trkpt>
      <trkpt lat="43.1780220196" lon="-4.1799499188">
        <ele>912.43</ele>
        <time>2018-05-19T12:33:58Z</time>
      </trkpt>
      <trkpt lat="43.1779296510" lon="-4.1800281219">
        <ele>913.87</ele>
        <time>2018-05-19T12:34:03Z</time>
      </trkpt>
      <trkpt lat="43.1778356899" lon="-4.1800499149">
        <ele>914.35</ele>
        <time>2018-05-19T12:34:07Z</time>
      </trkpt>
      <trkpt lat="43.1777376216" lon="-4.1800005455">
        <ele>914.83</ele>
        <time>2018-05-19T12:34:12Z</time>
      </trkpt>
      <trkpt lat="43.1776696444" lon="-4.1799265333">
        <ele>915.79</ele>
        <time>2018-05-19T12:34:16Z</time>
      </trkpt>
      <trkpt lat="43.1775825564" lon="-4.1798534431">
        <ele>916.75</ele>
        <time>2018-05-19T12:34:21Z</time>
      </trkpt>
      <trkpt lat="43.1774919480" lon="-4.1797992960">
        <ele>917.72</ele>
        <time>2018-05-19T12:34:26Z</time>
      </trkpt>
      <trkpt lat="43.1774002500" lon="-4.1797469929">
        <ele>918.68</ele>
        <time>2018-05-19T12:34:31Z</time>
      </trkpt>
      <trkpt lat="43.1773022655" lon="-4.1797422152">
        <ele>920.12</ele>
        <time>2018-05-19T12:34:36Z</time>
      </trkpt>
      <trkpt lat="43.1772029400" lon="-4.1797680315">
        <ele>921.08</ele>
        <time>2018-05-19T12:34:41Z</time>
      </trkpt>
      <trkpt lat="43.1771067996" lon="-4.1797807720">
        <ele>922.04</ele>
        <time>2018-05-19T12:34:46Z</time>
      </trkpt>
      <trkpt lat="43.1770128384" lon="-4.1797572188">
        <ele>923.00</ele>
        <time>2018-05-19T12:34:51Z</time>
      </trkpt>
      <trkpt lat="43.1769228168" lon="-4.1797224339">
        <ele>923.96</ele>
        <time>2018-05-19T12:34:56Z</time>
      </trkpt>
      <trkpt lat="43.1768378243" lon="-4.1796575580">
        <ele>925.41</ele>
        <time>2018-05-19T12:35:01Z</time>
      </trkpt>
      <trkpt lat="43.1767621357" lon="-4.1795835458">
        <ele>926.37</ele>
        <time>2018-05-19T12:35:06Z</time>
      </trkpt>
      <trkpt lat="43.1766887102" lon="-4.1794953682">
        <ele>926.85</ele>
        <time>2018-05-19T12:35:11Z</time>
      </trkpt>
      <trkpt lat="43.1766227446" lon="-4.1793948691">
        <ele>927.81</ele>
        <time>2018-05-19T12:35:16Z</time>
      </trkpt>
      <trkpt lat="43.1765718665" lon="-4.1792826355">
        <ele>928.29</ele>
        <time>2018-05-19T12:35:21Z</time>
      </trkpt>
      <trkpt lat="43.1765307952" lon="-4.1791598406">
        <ele>929.25</ele>
        <time>2018-05-19T12:35:26Z</time>
      </trkpt>
      <trkpt lat="43.1764749717" lon="-4.1790511273">
        <ele>930.21</ele>
        <time>2018-05-19T12:35:31Z</time>
      </trkpt>
      <trkpt lat="43.1764220819" lon="-4.1789440066">
        <ele>931.65</ele>
        <time>2018-05-19T12:35:36Z</time>
      </trkpt>
      <trkpt lat="43.1763697788" lon="-4.1788378917">
        <ele>932.62</ele>
        <time>2018-05-19T12:35:41Z</time>
      </trkpt>
      <trkpt lat="43.1763125304" lon="-4.1787144262">
        <ele>934.06</ele>
        <time>2018-05-19T12:35:47Z</time>
      </trkpt>
      <trkpt lat="43.1762577128" lon="-4.1786118317">
        <ele>935.02</ele>
        <time>2018-05-19T12:35:52Z</time>
      </trkpt>
      <trkpt lat="43.1761992909" lon="-4.1785001010">
        <ele>935.98</ele>
        <time>2018-05-19T12:35:58Z</time>
      </trkpt>
      <trkpt lat="43.1761400308" lon="-4.1784025356">
        <ele>936.94</ele>
        <time>2018-05-19T12:36:03Z</time>
      </trkpt>
      <trkpt lat="43.1760718022" lon="-4.1782899667">
        <ele>937.90</ele>
        <time>2018-05-19T12:36:09Z</time>
      </trkpt>
      <trkpt lat="43.1760101113" lon="-4.1781902220">
        <ele>939.35</ele>
        <time>2018-05-19T12:36:14Z</time>
      </trkpt>
      <trkpt lat="43.1759288069" lon="-4.1780851129">
        <ele>940.31</ele>
        <time>2018-05-19T12:36:20Z</time>
      </trkpt>
      <trkpt lat="43.1758567225" lon="-4.1780007072">
        <ele>941.27</ele>
        <time>2018-05-19T12:36:25Z</time>
      </trkpt>
      <trkpt lat="43.1757734064" lon="-4.1779139545">
        <ele>942.71</ele>
        <time>2018-05-19T12:36:31Z</time>
      </trkpt>
      <trkpt lat="43.1756931078" lon="-4.1778432112">
        <ele>943.67</ele>
        <time>2018-05-19T12:36:36Z</time>
      </trkpt>
      <trkpt lat="43.1755945366" lon="-4.1777814366">
        <ele>944.63</ele>
        <time>2018-05-19T12:36:42Z</time>
      </trkpt>
      <trkpt lat="43.1755031738" lon="-4.1777341627">
        <ele>946.07</ele>
        <time>2018-05-19T12:36:47Z</time>
      </trkpt>
      <trkpt lat="43.1754144095" lon="-4.1776974499">
        <ele>947.04</ele>
        <time>2018-05-19T12:36:52Z</time>
      </trkpt>
      <trkpt lat="43.1753177661" lon="-4.1776473261">
        <ele>947.52</ele>
        <time>2018-05-19T12:36:57Z</time>
      </trkpt>
      <trkpt lat="43.1752305105" lon="-4.1776098590">
        <ele>948.48</ele>
        <time>2018-05-19T12:37:02Z</time>
      </trkpt>
      <trkpt lat="43.1751333643" lon="-4.1775738169">
        <ele>948.96</ele>
        <time>2018-05-19T12:37:07Z</time>
      </trkpt>
      <trkpt lat="43.1750391517" lon="-4.1775362659">
        <ele>950.40</ele>
        <time>2018-05-19T12:37:12Z</time>
      </trkpt>
      <trkpt lat="43.1749493815" lon="-4.1774883214">
        <ele>950.88</ele>
        <time>2018-05-19T12:37:17Z</time>
      </trkpt>
      <trkpt lat="43.1748557556" lon="-4.1774491780">
        <ele>951.84</ele>
        <time>2018-05-19T12:37:22Z</time>
      </trkpt>
      <trkpt lat="43.1747648958" lon="-4.1774179973">
        <ele>952.80</ele>
        <time>2018-05-19T12:37:27Z</time>
      </trkpt>
      <trkpt lat="43.1746749580" lon="-4.1773928516">
        <ele>953.77</ele>
        <time>2018-05-19T12:37:32Z</time>
      </trkpt>
      <trkpt lat="43.1745809130" lon="-4.1773803625">
        <ele>954.25</ele>
        <time>2018-05-19T12:37:37Z</time>
      </trkpt>
      <trkpt lat="43.1744804978" lon="-4.1773734055">
        <ele>954.73</ele>
        <time>2018-05-19T12:37:42Z</time>
      </trkpt>
      <trkpt lat="43.1743752211" lon="-4.1773790214">
        <ele>955.21</ele>
        <time>2018-05-19T12:37:47Z</time>
      </trkpt>
      <trkpt lat="43.1742638256" lon="-4.1774054244">
        <ele>956.17</ele>
        <time>2018-05-19T12:37:52Z</time>
      </trkpt>
      <trkpt lat="43.1741608959" lon="-4.1774371918">
        <ele>956.65</ele>
        <time>2018-05-19T12:37:57Z</time>
      </trkpt>
      <trkpt lat="43.1740497518" lon="-4.1774749104">
        <ele>957.13</ele>
        <time>2018-05-19T12:38:02Z</time>
      </trkpt>
      <trkpt lat="43.1739489175" lon="-4.1775129642">
        <ele>958.09</ele>
        <time>2018-05-19T12:38:07Z</time>
      </trkpt>
      <trkpt lat="43.1738531124" lon="-4.1775387805">
        <ele>959.53</ele>
        <time>2018-05-19T12:38:12Z</time>
      </trkpt>
      <trkpt lat="43.1737583969" lon="-4.1775635909">
        <ele>960.49</ele>
        <time>2018-05-19T12:38:17Z</time>
      </trkpt>
      <trkpt lat="43.1736599095" lon="-4.1775774211">
        <ele>961.94</ele>
        <time>2018-05-19T12:38:22Z</time>
      </trkpt>
      <trkpt lat="43.1735626794" lon="-4.1775733139">
        <ele>962.42</ele>
        <time>2018-05-19T12:38:27Z</time>
      </trkpt>
      <trkpt lat="43.1734707300" lon="-4.1775563825">
        <ele>963.38</ele>
        <time>2018-05-19T12:38:32Z</time>
      </trkpt>
      <trkpt lat="43.1733719073" lon="-4.1775406245">
        <ele>964.34</ele>
        <time>2018-05-19T12:38:37Z</time>
      </trkpt>
      <trkpt lat="43.1732700672" lon="-4.1775299795">
        <ele>965.30</ele>
        <time>2018-05-19T12:38:42Z</time>
      </trkpt>
      <trkpt lat="43.1731792074" lon="-4.1774872318">
        <ele>966.26</ele>
        <time>2018-05-19T12:38:47Z</time>
      </trkpt>
      <trkpt lat="43.1730844080" lon="-4.1774584819">
        <ele>967.22</ele>
        <time>2018-05-19T12:38:52Z</time>
      </trkpt>
      <trkpt lat="43.1729869265" lon="-4.1774279717">
        <ele>967.70</ele>
        <time>2018-05-19T12:38:57Z</time>
      </trkpt>
      <trkpt lat="43.1729020178" lon="-4.1773909237">
        <ele>968.67</ele>
        <time>2018-05-19T12:39:02Z</time>
      </trkpt>
      <trkpt lat="43.1728076376" lon="-4.1773444880">
        <ele>969.63</ele>
        <time>2018-05-19T12:39:07Z</time>
      </trkpt>
      <trkpt lat="43.1727173645" lon="-4.1772912629">
        <ele>970.59</ele>
        <time>2018-05-19T12:39:12Z</time>
      </trkpt>
      <trkpt lat="43.1726228166" lon="-4.1772365291">
        <ele>971.07</ele>
        <time>2018-05-19T12:39:17Z</time>
      </trkpt>
      <trkpt lat="43.1725353934" lon="-4.1771882493">
        <ele>972.51</ele>
        <time>2018-05-19T12:39:22Z</time>
      </trkpt>
      <trkpt lat="43.1724410132" lon="-4.1771371197">
        <ele>972.99</ele>
        <time>2018-05-19T12:39:27Z</time>
      </trkpt>
      <trkpt lat="43.1723469682" lon="-4.1770889238">
        <ele>973.95</ele>
        <time>2018-05-19T12:39:32Z</time>
      </trkpt>
      <trkpt lat="43.1722463854" lon="-4.1770470981">
        <ele>974.91</ele>
        <time>2018-05-19T12:39:37Z</time>
      </trkpt>
      <trkpt lat="43.1721417792" lon="-4.1770113073">
        <ele>975.39</ele>
        <time>2018-05-19T12:39:42Z</time>
      </trkpt>
      <trkpt lat="43.1720478181" lon="-4.1769885086">
        <ele>975.88</ele>
        <time>2018-05-19T12:39:46Z</time>
      </trkpt>
      <trkpt lat="43.1719578803" lon="-4.1769553162">
        <ele>976.36</ele>
        <time>2018-05-19T12:39:50Z</time>
      </trkpt>
      <trkpt lat="43.1718578003" lon="-4.1769125685">
        <ele>976.84</ele>
        <time>2018-05-19T12:39:55Z</time>
      </trkpt>
      <trkpt lat="43.1717510149" lon="-4.1768611874">
        <ele>978.28</ele>
        <time>2018-05-19T12:40:00Z</time>
      </trkpt>
      <trkpt lat="43.1716566347" lon="-4.1768246423">
        <ele>979.24</ele>
        <time>2018-05-19T12:40:05Z</time>
      </trkpt>
      <trkpt lat="43.1715469994" lon="-4.1767857503">
        <ele>980.68</ele>
        <time>2018-05-19T12:40:10Z</time>
      </trkpt>
      <trkpt lat="43.1714437343" lon="-4.1767698247">
        <ele>981.64</ele>
        <time>2018-05-19T12:40:15Z</time>
      </trkpt>
      <trkpt lat="43.1713341828" lon="-4.1767566651">
        <ele>982.12</ele>
        <time>2018-05-19T12:40:20Z</time>
      </trkpt>
      <trkpt lat="43.1712309178" lon="-4.1767221317">
        <ele>983.09</ele>
        <time>2018-05-19T12:40:25Z</time>
      </trkpt>
      <trkpt lat="43.1711239647" lon="-4.1767050326">
        <ele>984.53</ele>
        <time>2018-05-19T12:40:30Z</time>
      </trkpt>
      <trkpt lat="43.1710258126" lon="-4.1766760312">
        <ele>985.01</ele>
        <time>2018-05-19T12:40:35Z</time>
      </trkpt>
      <trkpt lat="43.1709310971" lon="-4.1766551603">
        <ele>985.97</ele>
        <time>2018-05-19T12:40:40Z</time>
      </trkpt>
      <trkpt lat="43.1708346214" lon="-4.1766356304">
        <ele>986.93</ele>
        <time>2018-05-19T12:40:45Z</time>
      </trkpt>
      <trkpt lat="43.1707368046" lon="-4.1766126640">
        <ele>987.89</ele>
        <time>2018-05-19T12:40:50Z</time>
      </trkpt>
      <trkpt lat="43.1706323661" lon="-4.1765979957">
        <ele>989.33</ele>
        <time>2018-05-19T12:40:55Z</time>
      </trkpt>
      <trkpt lat="43.1705275923" lon="-4.1765914578">
        <ele>989.81</ele>
        <time>2018-05-19T12:41:00Z</time>
      </trkpt>
      <trkpt lat="43.1704192143" lon="-4.1765874345">
        <ele>991.26</ele>
        <time>2018-05-19T12:41:05Z</time>
      </trkpt>
      <trkpt lat="43.1703093275" lon="-4.1765942238">
        <ele>991.74</ele>
        <time>2018-05-19T12:41:10Z</time>
      </trkpt>
      <trkpt lat="43.1701970939" lon="-4.1766132507">
        <ele>992.70</ele>
        <time>2018-05-19T12:41:15Z</time>
      </trkpt>
      <trkpt lat="43.1700949185" lon="-4.1766502149">
        <ele>994.14</ele>
        <time>2018-05-19T12:41:20Z</time>
      </trkpt>
      <trkpt lat="43.1699893065" lon="-4.1766751092">
        <ele>994.62</ele>
        <time>2018-05-19T12:41:25Z</time>
      </trkpt>
      <trkpt lat="43.1698863767" lon="-4.1767029371">
        <ele>995.58</ele>
        <time>2018-05-19T12:41:30Z</time>
      </trkpt>
      <trkpt lat="43.1697871350" lon="-4.1767219640">
        <ele>996.54</ele>
        <time>2018-05-19T12:41:35Z</time>
      </trkpt>
      <trkpt lat="43.1696914975" lon="-4.1767497081">
        <ele>997.51</ele>
        <time>2018-05-19T12:41:40Z</time>
      </trkpt>
      <trkpt lat="43.1695969496" lon="-4.1767846607">
        <ele>997.99</ele>
        <time>2018-05-19T12:41:45Z</time>
      </trkpt>
      <trkpt lat="43.1694977917" lon="-4.1768156737">
        <ele>998.95</ele>
        <time>2018-05-19T12:41:50Z</time>
      </trkpt>
      <trkpt lat="43.1694053393" lon="-4.1768150870">
        <ele>999.91</ele>
        <time>2018-05-19T12:41:55Z</time>
      </trkpt>
      <trkpt lat="43.1693163235" lon="-4.1767782066">
        <ele>1000.39</ele>
        <time>2018-05-19T12:42:00Z</time>
      </trkpt>
      <trkpt lat="43.1692283135" lon="-4.1767485347">
        <ele>1000.87</ele>
        <time>2018-05-19T12:42:05Z</time>
      </trkpt>
      <trkpt lat="43.1691320054" lon="-4.1767428350">
        <ele>1000.87</ele>
        <time>2018-05-19T12:42:13Z</time>
      </trkpt>
      <trkpt lat="43.1690331828" lon="-4.1767578386">
        <ele>1000.87</ele>
        <time>2018-05-19T12:42:20Z</time>
      </trkpt>
      <trkpt lat="43.1689451728" lon="-4.1767657176">
        <ele>999.91</ele>
        <time>2018-05-19T12:42:31Z</time>
      </trkpt>
      <trkpt lat="43.1689116452" lon="-4.1768574156">
        <ele>999.91</ele>
        <time>2018-05-19T12:42:44Z</time>
      </trkpt>
      <trkpt lat="43.1689217873" lon="-4.1768918652">
        <ele>998.95</ele>
        <time>2018-05-19T12:54:27Z</time>
      </trkpt>
      <trkpt lat="43.1689069513" lon="-4.1768903565">
        <ele>999.43</ele>
        <time>2018-05-19T12:57:04Z</time>
      </trkpt>
      <trkpt lat="43.1688547321" lon="-4.1767735127">
        <ele>999.43</ele>
        <time>2018-05-19T12:58:04Z</time>
      </trkpt>
      <trkpt lat="43.1687913649" lon="-4.1766869277">
        <ele>999.43</ele>
        <time>2018-05-19T12:58:09Z</time>
      </trkpt>
      <trkpt lat="43.1687036064" lon="-4.1766192019">
        <ele>998.47</ele>
        <time>2018-05-19T12:58:14Z</time>
      </trkpt>
      <trkpt lat="43.1686114892" lon="-4.1765434295">
        <ele>997.99</ele>
        <time>2018-05-19T12:58:20Z</time>
      </trkpt>
      <trkpt lat="43.1685262453" lon="-4.1764487140">
        <ele>996.54</ele>
        <time>2018-05-19T12:58:24Z</time>
      </trkpt>
      <trkpt lat="43.1684324518" lon="-4.1763336305">
        <ele>995.58</ele>
        <time>2018-05-19T12:58:28Z</time>
      </trkpt>
      <trkpt lat="43.1683551706" lon="-4.1762337182">
        <ele>994.62</ele>
        <time>2018-05-19T12:58:30Z</time>
      </trkpt>
      <trkpt lat="43.1682868581" lon="-4.1761241667">
        <ele>993.18</ele>
        <time>2018-05-19T12:58:32Z</time>
      </trkpt>
      <trkpt lat="43.1682117563" lon="-4.1759792436">
        <ele>991.74</ele>
        <time>2018-05-19T12:58:34Z</time>
      </trkpt>
      <trkpt lat="43.1681423541" lon="-4.1758062411">
        <ele>989.33</ele>
        <time>2018-05-19T12:58:36Z</time>
      </trkpt>
      <trkpt lat="43.1680690963" lon="-4.1756059974">
        <ele>987.89</ele>
        <time>2018-05-19T12:58:38Z</time>
      </trkpt>
      <trkpt lat="43.1679841038" lon="-4.1754027363">
        <ele>986.45</ele>
        <time>2018-05-19T12:58:40Z</time>
      </trkpt>
      <trkpt lat="43.1679059844" lon="-4.1751993075">
        <ele>985.01</ele>
        <time>2018-05-19T12:58:42Z</time>
      </trkpt>
      <trkpt lat="43.1678261887" lon="-4.1749840602">
        <ele>982.60</ele>
        <time>2018-05-19T12:58:44Z</time>
      </trkpt>
      <trkpt lat="43.1677415315" lon="-4.1748267319">
        <ele>981.16</ele>
        <time>2018-05-19T12:58:46Z</time>
      </trkpt>
      <trkpt lat="43.1676351652" lon="-4.1746764444">
        <ele>979.72</ele>
        <time>2018-05-19T12:58:48Z</time>
      </trkpt>
      <trkpt lat="43.1675132923" lon="-4.1745213792">
        <ele>978.28</ele>
        <time>2018-05-19T12:58:50Z</time>
      </trkpt>
      <trkpt lat="43.1673855521" lon="-4.1743773781">
        <ele>977.80</ele>
        <time>2018-05-19T12:58:52Z</time>
      </trkpt>
      <trkpt lat="43.1673014816" lon="-4.1742953192">
        <ele>976.36</ele>
        <time>2018-05-19T12:58:53Z</time>
      </trkpt>
      <trkpt lat="43.1671772618" lon="-4.1741794813">
        <ele>974.91</ele>
        <time>2018-05-19T12:58:55Z</time>
      </trkpt>
      <trkpt lat="43.1670339312" lon="-4.1740453709">
        <ele>973.47</ele>
        <time>2018-05-19T12:58:57Z</time>
      </trkpt>
      <trkpt lat="43.1669641100" lon="-4.1739777289">
        <ele>972.03</ele>
        <time>2018-05-19T12:58:58Z</time>
      </trkpt>
      <trkpt lat="43.1668075360" lon="-4.1738552693">
        <ele>969.63</ele>
        <time>2018-05-19T12:59:00Z</time>
      </trkpt>
      <trkpt lat="43.1667093839" lon="-4.1737878788">
        <ele>969.63</ele>
        <time>2018-05-19T12:59:01Z</time>
      </trkpt>
      <trkpt lat="43.1665471103" lon="-4.1736852005">
        <ele>968.67</ele>
        <time>2018-05-19T12:59:03Z</time>
      </trkpt>
      <trkpt lat="43.1664684881" lon="-4.1736272816">
        <ele>967.22</ele>
        <time>2018-05-19T12:59:04Z</time>
      </trkpt>
      <trkpt lat="43.1663264986" lon="-4.1735101026">
        <ele>965.78</ele>
        <time>2018-05-19T12:59:06Z</time>
      </trkpt>
      <trkpt lat="43.1661718525" lon="-4.1733694542">
        <ele>962.90</ele>
        <time>2018-05-19T12:59:08Z</time>
      </trkpt>
      <trkpt lat="43.1660288572" lon="-4.1732184123">
        <ele>961.46</ele>
        <time>2018-05-19T12:59:10Z</time>
      </trkpt>
      <trkpt lat="43.1659505703" lon="-4.1731366888">
        <ele>960.98</ele>
        <time>2018-05-19T12:59:11Z</time>
      </trkpt>
      <trkpt lat="43.1658224948" lon="-4.1729936935">
        <ele>959.05</ele>
        <time>2018-05-19T12:59:13Z</time>
      </trkpt>
      <trkpt lat="43.1657073274" lon="-4.1728315875">
        <ele>957.13</ele>
        <time>2018-05-19T12:59:15Z</time>
      </trkpt>
      <trkpt lat="43.1656078342" lon="-4.1726601776">
        <ele>956.65</ele>
        <time>2018-05-19T12:59:17Z</time>
      </trkpt>
      <trkpt lat="43.1655054912" lon="-4.1724677291">
        <ele>954.73</ele>
        <time>2018-05-19T12:59:19Z</time>
      </trkpt>
      <trkpt lat="43.1653844565" lon="-4.1723173577">
        <ele>952.80</ele>
        <time>2018-05-19T12:59:21Z</time>
      </trkpt>
      <trkpt lat="43.1652326602" lon="-4.1722005140">
        <ele>951.36</ele>
        <time>2018-05-19T12:59:23Z</time>
      </trkpt>
      <trkpt lat="43.1650577299" lon="-4.1721238196">
        <ele>949.44</ele>
        <time>2018-05-19T12:59:25Z</time>
      </trkpt>
      <trkpt lat="43.1649669539" lon="-4.1720907111">
        <ele>948.00</ele>
        <time>2018-05-19T12:59:26Z</time>
      </trkpt>
      <trkpt lat="43.1648815423" lon="-4.1720635537">
        <ele>947.04</ele>
        <time>2018-05-19T12:59:27Z</time>
      </trkpt>
      <trkpt lat="43.1647817977" lon="-4.1720421799">
        <ele>946.56</ele>
        <time>2018-05-19T12:59:28Z</time>
      </trkpt>
      <trkpt lat="43.1646844000" lon="-4.1720367316">
        <ele>945.59</ele>
        <time>2018-05-19T12:59:29Z</time>
      </trkpt>
      <trkpt lat="43.1645206176" lon="-4.1720355581">
        <ele>945.11</ele>
        <time>2018-05-19T12:59:31Z</time>
      </trkpt>
      <trkpt lat="43.1643401552" lon="-4.1720085684">
        <ele>942.71</ele>
        <time>2018-05-19T12:59:33Z</time>
      </trkpt>
      <trkpt lat="43.1641713437" lon="-4.1719780583">
        <ele>942.23</ele>
        <time>2018-05-19T12:59:35Z</time>
      </trkpt>
      <trkpt lat="43.1639982574" lon="-4.1719431058">
        <ele>940.31</ele>
        <time>2018-05-19T12:59:37Z</time>
      </trkpt>
      <trkpt lat="43.1639053859" lon="-4.1719104163">
        <ele>939.83</ele>
        <time>2018-05-19T12:59:38Z</time>
      </trkpt>
      <trkpt lat="43.1638218183" lon="-4.1718664952">
        <ele>938.38</ele>
        <time>2018-05-19T12:59:39Z</time>
      </trkpt>
      <trkpt lat="43.1636903062" lon="-4.1717603803">
        <ele>937.42</ele>
        <time>2018-05-19T12:59:41Z</time>
      </trkpt>
      <trkpt lat="43.1635653321" lon="-4.1715960111">
        <ele>935.50</ele>
        <time>2018-05-19T12:59:43Z</time>
      </trkpt>
      <trkpt lat="43.1635079999" lon="-4.1714946739">
        <ele>934.54</ele>
        <time>2018-05-19T12:59:44Z</time>
      </trkpt>
      <trkpt lat="43.1634025555" lon="-4.1712805163">
        <ele>933.10</ele>
        <time>2018-05-19T12:59:46Z</time>
      </trkpt>
      <trkpt lat="43.1633556169" lon="-4.1711718868">
        <ele>932.14</ele>
        <time>2018-05-19T12:59:47Z</time>
      </trkpt>
      <trkpt lat="43.1633061636" lon="-4.1710431408">
        <ele>930.69</ele>
        <time>2018-05-19T12:59:48Z</time>
      </trkpt>
      <trkpt lat="43.1632655114" lon="-4.1709112097">
        <ele>929.25</ele>
        <time>2018-05-19T12:59:49Z</time>
      </trkpt>
      <trkpt lat="43.1632148847" lon="-4.1706873290">
        <ele>927.33</ele>
        <time>2018-05-19T12:59:51Z</time>
      </trkpt>
      <trkpt lat="43.1631947681" lon="-4.1705672164">
        <ele>926.37</ele>
        <time>2018-05-19T12:59:52Z</time>
      </trkpt>
      <trkpt lat="43.1631755736" lon="-4.1704327706">
        <ele>925.89</ele>
        <time>2018-05-19T12:59:53Z</time>
      </trkpt>
      <trkpt lat="43.1631607376" lon="-4.1703011747">
        <ele>925.41</ele>
        <time>2018-05-19T12:59:54Z</time>
      </trkpt>
      <trkpt lat="43.1631464884" lon="-4.1701744404">
        <ele>924.93</ele>
        <time>2018-05-19T12:59:55Z</time>
      </trkpt>
      <trkpt lat="43.1631282158" lon="-4.1700429283">
        <ele>923.96</ele>
        <time>2018-05-19T12:59:56Z</time>
      </trkpt>
      <trkpt lat="43.1630998850" lon="-4.1698956583">
        <ele>922.52</ele>
        <time>2018-05-19T12:59:57Z</time>
      </trkpt>
      <trkpt lat="43.1630709674" lon="-4.1697706841">
        <ele>922.04</ele>
        <time>2018-05-19T12:59:58Z</time>
      </trkpt>
      <trkpt lat="43.1630234420" lon="-4.1695622262">
        <ele>921.56</ele>
        <time>2018-05-19T13:00:00Z</time>
      </trkpt>
      <trkpt lat="43.1629979610" lon="-4.1694375873">
        <ele>920.60</ele>
        <time>2018-05-19T13:00:01Z</time>
      </trkpt>
      <trkpt lat="43.1629675347" lon="-4.1693028901">
        <ele>920.12</ele>
        <time>2018-05-19T13:00:02Z</time>
      </trkpt>
      <trkpt lat="43.1629386172" lon="-4.1691815201">
        <ele>919.16</ele>
        <time>2018-05-19T13:00:03Z</time>
      </trkpt>
      <trkpt lat="43.1629102863" lon="-4.1690655146">
        <ele>918.20</ele>
        <time>2018-05-19T13:00:04Z</time>
      </trkpt>
      <trkpt lat="43.1628722325" lon="-4.1689386964">
        <ele>916.75</ele>
        <time>2018-05-19T13:00:05Z</time>
      </trkpt>
      <trkpt lat="43.1628264673" lon="-4.1688229423">
        <ele>916.27</ele>
        <time>2018-05-19T13:00:06Z</time>
      </trkpt>
      <trkpt lat="43.1627798639" lon="-4.1687164083">
        <ele>915.31</ele>
        <time>2018-05-19T13:00:07Z</time>
      </trkpt>
      <trkpt lat="43.1627246272" lon="-4.1685977206">
        <ele>915.31</ele>
        <time>2018-05-19T13:00:08Z</time>
      </trkpt>
      <trkpt lat="43.1626733299" lon="-4.1685001552">
        <ele>913.87</ele>
        <time>2018-05-19T13:00:09Z</time>
      </trkpt>
      <trkpt lat="43.1625692267" lon="-4.1683267336">
        <ele>911.95</ele>
        <time>2018-05-19T13:00:11Z</time>
      </trkpt>
      <trkpt lat="43.1624511257" lon="-4.1681689024">
        <ele>910.03</ele>
        <time>2018-05-19T13:00:13Z</time>
      </trkpt>
      <trkpt lat="43.1623846572" lon="-4.1680932138">
        <ele>909.54</ele>
        <time>2018-05-19T13:00:14Z</time>
      </trkpt>
      <trkpt lat="43.1622477807" lon="-4.1679397412">
        <ele>908.58</ele>
        <time>2018-05-19T13:00:16Z</time>
      </trkpt>
      <trkpt lat="43.1621052884" lon="-4.1677782219">
        <ele>908.10</ele>
        <time>2018-05-19T13:00:18Z</time>
      </trkpt>
      <trkpt lat="43.1620358024" lon="-4.1676975042">
        <ele>907.14</ele>
        <time>2018-05-19T13:00:19Z</time>
      </trkpt>
      <trkpt lat="43.1619213894" lon="-4.1675576940">
        <ele>905.70</ele>
        <time>2018-05-19T13:00:21Z</time>
      </trkpt>
      <trkpt lat="43.1617923919" lon="-4.1674100049">
        <ele>904.26</ele>
        <time>2018-05-19T13:00:23Z</time>
      </trkpt>
      <trkpt lat="43.1616720278" lon="-4.1672461387">
        <ele>902.33</ele>
        <time>2018-05-19T13:00:25Z</time>
      </trkpt>
      <trkpt lat="43.1616183836" lon="-4.1671566200">
        <ele>901.37</ele>
        <time>2018-05-19T13:00:26Z</time>
      </trkpt>
      <trkpt lat="43.1615133584" lon="-4.1669562925">
        <ele>900.89</ele>
        <time>2018-05-19T13:00:28Z</time>
      </trkpt>
      <trkpt lat="43.1614653300" lon="-4.1668474115">
        <ele>898.97</ele>
        <time>2018-05-19T13:00:29Z</time>
      </trkpt>
      <trkpt lat="43.1614214927" lon="-4.1667367704">
        <ele>898.49</ele>
        <time>2018-05-19T13:00:30Z</time>
      </trkpt>
      <trkpt lat="43.1613453012" lon="-4.1665573977">
        <ele>897.53</ele>
        <time>2018-05-19T13:00:32Z</time>
      </trkpt>
      <trkpt lat="43.1612269487" lon="-4.1664074454">
        <ele>897.05</ele>
        <time>2018-05-19T13:00:34Z</time>
      </trkpt>
      <trkpt lat="43.1610590592" lon="-4.1663020011">
        <ele>894.16</ele>
        <time>2018-05-19T13:00:36Z</time>
      </trkpt>
      <trkpt lat="43.1609695405" lon="-4.1662734188">
        <ele>893.68</ele>
        <time>2018-05-19T13:00:37Z</time>
      </trkpt>
      <trkpt lat="43.1608757470" lon="-4.1662554815">
        <ele>892.72</ele>
        <time>2018-05-19T13:00:38Z</time>
      </trkpt>
      <trkpt lat="43.1607729848" lon="-4.1662413999">
        <ele>892.24</ele>
        <time>2018-05-19T13:00:39Z</time>
      </trkpt>
      <trkpt lat="43.1606664509" lon="-4.1662326828">
        <ele>889.36</ele>
        <time>2018-05-19T13:00:40Z</time>
      </trkpt>
      <trkpt lat="43.1604834739" lon="-4.1662342753">
        <ele>887.91</ele>
        <time>2018-05-19T13:00:42Z</time>
      </trkpt>
      <trkpt lat="43.1603836454" lon="-4.1662422381">
        <ele>885.51</ele>
        <time>2018-05-19T13:00:43Z</time>
      </trkpt>
      <trkpt lat="43.1602849904" lon="-4.1662515420">
        <ele>885.03</ele>
        <time>2018-05-19T13:00:44Z</time>
      </trkpt>
      <trkpt lat="43.1601828989" lon="-4.1662605945">
        <ele>884.55</ele>
        <time>2018-05-19T13:00:45Z</time>
      </trkpt>
      <trkpt lat="43.1600883510" lon="-4.1662698984">
        <ele>882.63</ele>
        <time>2018-05-19T13:00:46Z</time>
      </trkpt>
      <trkpt lat="43.1599927135" lon="-4.1662771907">
        <ele>882.63</ele>
        <time>2018-05-19T13:00:47Z</time>
      </trkpt>
      <trkpt lat="43.1598952319" lon="-4.1662823036">
        <ele>881.67</ele>
        <time>2018-05-19T13:00:48Z</time>
      </trkpt>
      <trkpt lat="43.1598032825" lon="-4.1662927810">
        <ele>880.22</ele>
        <time>2018-05-19T13:00:49Z</time>
      </trkpt>
      <trkpt lat="43.1597079802" lon="-4.1663128138">
        <ele>879.74</ele>
        <time>2018-05-19T13:00:50Z</time>
      </trkpt>
      <trkpt lat="43.1596120074" lon="-4.1663443297">
        <ele>878.30</ele>
        <time>2018-05-19T13:00:51Z</time>
      </trkpt>
      <trkpt lat="43.1595265120" lon="-4.1663852334">
        <ele>876.86</ele>
        <time>2018-05-19T13:00:52Z</time>
      </trkpt>
      <trkpt lat="43.1593708601" lon="-4.1664759256">
        <ele>875.90</ele>
        <time>2018-05-19T13:00:54Z</time>
      </trkpt>
      <trkpt lat="43.1592218298" lon="-4.1665910929">
        <ele>874.94</ele>
        <time>2018-05-19T13:00:56Z</time>
      </trkpt>
      <trkpt lat="43.1590743922" lon="-4.1667222697">
        <ele>873.50</ele>
        <time>2018-05-19T13:00:58Z</time>
      </trkpt>
      <trkpt lat="43.1589205842" lon="-4.1668455675">
        <ele>871.57</ele>
        <time>2018-05-19T13:01:00Z</time>
      </trkpt>
      <trkpt lat="43.1588413753" lon="-4.1669222619">
        <ele>871.57</ele>
        <time>2018-05-19T13:01:01Z</time>
      </trkpt>
      <trkpt lat="43.1587771699" lon="-4.1670158878">
        <ele>870.61</ele>
        <time>2018-05-19T13:01:02Z</time>
      </trkpt>
      <trkpt lat="43.1587087736" lon="-4.1672040615">
        <ele>869.17</ele>
        <time>2018-05-19T13:01:04Z</time>
      </trkpt>
      <trkpt lat="43.1586403772" lon="-4.1674325522">
        <ele>868.21</ele>
        <time>2018-05-19T13:01:06Z</time>
      </trkpt>
      <trkpt lat="43.1585993897" lon="-4.1675443668">
        <ele>867.25</ele>
        <time>2018-05-19T13:01:07Z</time>
      </trkpt>
      <trkpt lat="43.1585497689" lon="-4.1676535830">
        <ele>865.32</ele>
        <time>2018-05-19T13:01:08Z</time>
      </trkpt>
      <trkpt lat="43.1584926043" lon="-4.1677610390">
        <ele>865.32</ele>
        <time>2018-05-19T13:01:09Z</time>
      </trkpt>
      <trkpt lat="43.1583893392" lon="-4.1679339577">
        <ele>863.88</ele>
        <time>2018-05-19T13:01:11Z</time>
      </trkpt>
      <trkpt lat="43.1582763512" lon="-4.1681036912">
        <ele>862.44</ele>
        <time>2018-05-19T13:01:13Z</time>
      </trkpt>
      <trkpt lat="43.1581766903" lon="-4.1682474408">
        <ele>861.00</ele>
        <time>2018-05-19T13:01:15Z</time>
      </trkpt>
      <trkpt lat="43.1580628641" lon="-4.1684244666">
        <ele>858.11</ele>
        <time>2018-05-19T13:01:17Z</time>
      </trkpt>
      <trkpt lat="43.1579430029" lon="-4.1686097067">
        <ele>856.67</ele>
        <time>2018-05-19T13:01:19Z</time>
      </trkpt>
      <trkpt lat="43.1578793004" lon="-4.1686983034">
        <ele>855.71</ele>
        <time>2018-05-19T13:01:20Z</time>
      </trkpt>
      <trkpt lat="43.1577446032" lon="-4.1688823700">
        <ele>853.79</ele>
        <time>2018-05-19T13:01:22Z</time>
      </trkpt>
      <trkpt lat="43.1576717645" lon="-4.1689799353">
        <ele>853.31</ele>
        <time>2018-05-19T13:01:23Z</time>
      </trkpt>
      <trkpt lat="43.1575945672" lon="-4.1690750699">
        <ele>851.87</ele>
        <time>2018-05-19T13:01:24Z</time>
      </trkpt>
      <trkpt lat="43.1574577745" lon="-4.1692327335">
        <ele>850.42</ele>
        <time>2018-05-19T13:01:26Z</time>
      </trkpt>
      <trkpt lat="43.1573042180" lon="-4.1694022994">
        <ele>848.50</ele>
        <time>2018-05-19T13:01:28Z</time>
      </trkpt>
      <trkpt lat="43.1572275236" lon="-4.1694836877">
        <ele>847.06</ele>
        <time>2018-05-19T13:01:29Z</time>
      </trkpt>
      <trkpt lat="43.1571453810" lon="-4.1695664171">
        <ele>846.58</ele>
        <time>2018-05-19T13:01:30Z</time>
      </trkpt>
      <trkpt lat="43.1570689380" lon="-4.1696433630">
        <ele>846.10</ele>
        <time>2018-05-19T13:01:31Z</time>
      </trkpt>
      <trkpt lat="43.1569950934" lon="-4.1697193868">
        <ele>844.66</ele>
        <time>2018-05-19T13:01:32Z</time>
      </trkpt>
      <trkpt lat="43.1569179799" lon="-4.1698037926">
        <ele>844.18</ele>
        <time>2018-05-19T13:01:33Z</time>
      </trkpt>
      <trkpt lat="43.1568391901" lon="-4.1698891204">
        <ele>843.21</ele>
        <time>2018-05-19T13:01:34Z</time>
      </trkpt>
      <trkpt lat="43.1567611545" lon="-4.1699774656">
        <ele>842.25</ele>
        <time>2018-05-19T13:01:35Z</time>
      </trkpt>
      <trkpt lat="43.1566434726" lon="-4.1701130848">
        <ele>840.81</ele>
        <time>2018-05-19T13:01:37Z</time>
      </trkpt>
      <trkpt lat="43.1565062609" lon="-4.1702576727">
        <ele>838.89</ele>
        <time>2018-05-19T13:01:39Z</time>
      </trkpt>
      <trkpt lat="43.1563728210" lon="-4.1703966446">
        <ele>836.48</ele>
        <time>2018-05-19T13:01:41Z</time>
      </trkpt>
      <trkpt lat="43.1562385429" lon="-4.1705196910">
        <ele>836.00</ele>
        <time>2018-05-19T13:01:43Z</time>
      </trkpt>
      <trkpt lat="43.1560761854" lon="-4.1706258059">
        <ele>835.04</ele>
        <time>2018-05-19T13:01:45Z</time>
      </trkpt>
      <trkpt lat="43.1559865829" lon="-4.1706731636">
        <ele>833.12</ele>
        <time>2018-05-19T13:01:46Z</time>
      </trkpt>
      <trkpt lat="43.1558466889" lon="-4.1707378719">
        <ele>831.20</ele>
        <time>2018-05-19T13:01:48Z</time>
      </trkpt>
      <trkpt lat="43.1556869298" lon="-4.1707965452">
        <ele>829.76</ele>
        <time>2018-05-19T13:01:50Z</time>
      </trkpt>
      <trkpt lat="43.1555225607" lon="-4.1708400473">
        <ele>828.31</ele>
        <time>2018-05-19T13:01:52Z</time>
      </trkpt>
      <trkpt lat="43.1553561799" lon="-4.1708766762">
        <ele>826.39</ele>
        <time>2018-05-19T13:01:54Z</time>
      </trkpt>
      <trkpt lat="43.1551792379" lon="-4.1709008999">
        <ele>824.95</ele>
        <time>2018-05-19T13:01:56Z</time>
      </trkpt>
      <trkpt lat="43.1550342310" lon="-4.1708991397">
        <ele>823.51</ele>
        <time>2018-05-19T13:01:58Z</time>
      </trkpt>
      <trkpt lat="43.1548771542" lon="-4.1708843037">
        <ele>821.58</ele>
        <time>2018-05-19T13:02:00Z</time>
      </trkpt>
      <trkpt lat="43.1547117792" lon="-4.1708667856">
        <ele>820.62</ele>
        <time>2018-05-19T13:02:02Z</time>
      </trkpt>
      <trkpt lat="43.1545408722" lon="-4.1708437353">
        <ele>819.18</ele>
        <time>2018-05-19T13:02:04Z</time>
      </trkpt>
      <trkpt lat="43.1544500124" lon="-4.1708263848">
        <ele>818.22</ele>
        <time>2018-05-19T13:02:05Z</time>
      </trkpt>
      <trkpt lat="43.1542989705" lon="-4.1707983892">
        <ele>816.30</ele>
        <time>2018-05-19T13:02:07Z</time>
      </trkpt>
      <trkpt lat="43.1541350204" lon="-4.1707529593">
        <ele>815.34</ele>
        <time>2018-05-19T13:02:09Z</time>
      </trkpt>
      <trkpt lat="43.1539736688" lon="-4.1706921905">
        <ele>813.41</ele>
        <time>2018-05-19T13:02:11Z</time>
      </trkpt>
      <trkpt lat="43.1538292486" lon="-4.1706260573">
        <ele>811.49</ele>
        <time>2018-05-19T13:02:13Z</time>
      </trkpt>
      <trkpt lat="43.1536910310" lon="-4.1705424897">
        <ele>810.05</ele>
        <time>2018-05-19T13:02:15Z</time>
      </trkpt>
      <trkpt lat="43.1535546575" lon="-4.1704457626">
        <ele>809.09</ele>
        <time>2018-05-19T13:02:17Z</time>
      </trkpt>
      <trkpt lat="43.1534421723" lon="-4.1703575850">
        <ele>808.61</ele>
        <time>2018-05-19T13:02:19Z</time>
      </trkpt>
      <trkpt lat="43.1533341296" lon="-4.1702379752">
        <ele>807.16</ele>
        <time>2018-05-19T13:02:21Z</time>
      </trkpt>
      <trkpt lat="43.1532468740" lon="-4.1701254062">
        <ele>806.68</ele>
        <time>2018-05-19T13:02:23Z</time>
      </trkpt>
      <trkpt lat="43.1531560142" lon="-4.1700593568">
        <ele>805.72</ele>
        <time>2018-05-19T13:02:25Z</time>
      </trkpt>
      <trkpt lat="43.1530707702" lon="-4.1700994223">
        <ele>804.76</ele>
        <time>2018-05-19T13:02:27Z</time>
      </trkpt>
      <trkpt lat="43.1530555990" lon="-4.1702356283">
        <ele>803.32</ele>
        <time>2018-05-19T13:02:29Z</time>
      </trkpt>
      <trkpt lat="43.1531205587" lon="-4.1703337803">
        <ele>802.84</ele>
        <time>2018-05-19T13:02:31Z</time>
      </trkpt>
      <trkpt lat="43.1532293558" lon="-4.1704260651">
        <ele>800.44</ele>
        <time>2018-05-19T13:02:33Z</time>
      </trkpt>
      <trkpt lat="43.1533419248" lon="-4.1705696471">
        <ele>798.51</ele>
        <time>2018-05-19T13:02:35Z</time>
      </trkpt>
      <trkpt lat="43.1534420047" lon="-4.1707600839">
        <ele>797.07</ele>
        <time>2018-05-19T13:02:37Z</time>
      </trkpt>
      <trkpt lat="43.1535034440" lon="-4.1708586551">
        <ele>795.63</ele>
        <time>2018-05-19T13:02:38Z</time>
      </trkpt>
      <trkpt lat="43.1535680685" lon="-4.1709563881">
        <ele>795.15</ele>
        <time>2018-05-19T13:02:39Z</time>
      </trkpt>
      <trkpt lat="43.1536752731" lon="-4.1711087711">
        <ele>792.26</ele>
        <time>2018-05-19T13:02:41Z</time>
      </trkpt>
      <trkpt lat="43.1537459325" lon="-4.1711976193">
        <ele>792.26</ele>
        <time>2018-05-19T13:02:42Z</time>
      </trkpt>
      <trkpt lat="43.1538085453" lon="-4.1712772474">
        <ele>790.82</ele>
        <time>2018-05-19T13:02:43Z</time>
      </trkpt>
      <trkpt lat="43.1538776122" lon="-4.1713606473">
        <ele>790.82</ele>
        <time>2018-05-19T13:02:44Z</time>
      </trkpt>
      <trkpt lat="43.1539474335" lon="-4.1714442149">
        <ele>789.38</ele>
        <time>2018-05-19T13:02:45Z</time>
      </trkpt>
      <trkpt lat="43.1540201884" lon="-4.1715330631">
        <ele>787.94</ele>
        <time>2018-05-19T13:02:46Z</time>
      </trkpt>
      <trkpt lat="43.1541597471" lon="-4.1717063170">
        <ele>786.02</ele>
        <time>2018-05-19T13:02:48Z</time>
      </trkpt>
      <trkpt lat="43.1542304065" lon="-4.1717920639">
        <ele>786.02</ele>
        <time>2018-05-19T13:02:49Z</time>
      </trkpt>
      <trkpt lat="43.1543472502" lon="-4.1719230730">
        <ele>784.09</ele>
        <time>2018-05-19T13:02:51Z</time>
      </trkpt>
      <trkpt lat="43.1544185802" lon="-4.1719990969">
        <ele>783.13</ele>
        <time>2018-05-19T13:02:52Z</time>
      </trkpt>
      <trkpt lat="43.1544910837" lon="-4.1720732767">
        <ele>781.69</ele>
        <time>2018-05-19T13:02:53Z</time>
      </trkpt>
      <trkpt lat="43.1545700412" lon="-4.1721475404">
        <ele>781.21</ele>
        <time>2018-05-19T13:02:54Z</time>
      </trkpt>
      <trkpt lat="43.1547196582" lon="-4.1722701676">
        <ele>779.29</ele>
        <time>2018-05-19T13:02:56Z</time>
      </trkpt>
      <trkpt lat="43.1548023038" lon="-4.1723340377">
        <ele>777.84</ele>
        <time>2018-05-19T13:02:57Z</time>
      </trkpt>
      <trkpt lat="43.1548862904" lon="-4.1723952256">
        <ele>777.36</ele>
        <time>2018-05-19T13:02:58Z</time>
      </trkpt>
      <trkpt lat="43.1549673434" lon="-4.1724476963">
        <ele>776.40</ele>
        <time>2018-05-19T13:02:59Z</time>
      </trkpt>
      <trkpt lat="43.1551009510" lon="-4.1725343652">
        <ele>774.00</ele>
        <time>2018-05-19T13:03:01Z</time>
      </trkpt>
      <trkpt lat="43.1552465446" lon="-4.1726267338">
        <ele>772.56</ele>
        <time>2018-05-19T13:03:03Z</time>
      </trkpt>
      <trkpt lat="43.1554043759" lon="-4.1726956330">
        <ele>771.60</ele>
        <time>2018-05-19T13:03:05Z</time>
      </trkpt>
      <trkpt lat="43.1554985046" lon="-4.1727268975">
        <ele>770.15</ele>
        <time>2018-05-19T13:03:06Z</time>
      </trkpt>
      <trkpt lat="43.1555894483" lon="-4.1727549769">
        <ele>769.19</ele>
        <time>2018-05-19T13:03:07Z</time>
      </trkpt>
      <trkpt lat="43.1556834932" lon="-4.1727794521">
        <ele>768.23</ele>
        <time>2018-05-19T13:03:08Z</time>
      </trkpt>
      <trkpt lat="43.1558320206" lon="-4.1728113871">
        <ele>767.75</ele>
        <time>2018-05-19T13:03:10Z</time>
      </trkpt>
      <trkpt lat="43.1559976470" lon="-4.1728651151">
        <ele>765.83</ele>
        <time>2018-05-19T13:03:12Z</time>
      </trkpt>
      <trkpt lat="43.1561535504" lon="-4.1729135625">
        <ele>765.35</ele>
        <time>2018-05-19T13:03:14Z</time>
      </trkpt>
      <trkpt lat="43.1563030835" lon="-4.1729444079">
        <ele>763.42</ele>
        <time>2018-05-19T13:03:16Z</time>
      </trkpt>
      <trkpt lat="43.1564641837" lon="-4.1729770973">
        <ele>761.98</ele>
        <time>2018-05-19T13:03:18Z</time>
      </trkpt>
      <trkpt lat="43.1565823685" lon="-4.1729811206">
        <ele>761.02</ele>
        <time>2018-05-19T13:03:20Z</time>
      </trkpt>
      <trkpt lat="43.1567225978" lon="-4.1729641054">
        <ele>759.10</ele>
        <time>2018-05-19T13:03:22Z</time>
      </trkpt>
      <trkpt lat="43.1568564568" lon="-4.1729209386">
        <ele>757.18</ele>
        <time>2018-05-19T13:03:24Z</time>
      </trkpt>
      <trkpt lat="43.1569837779" lon="-4.1728526261">
        <ele>755.25</ele>
        <time>2018-05-19T13:03:26Z</time>
      </trkpt>
      <trkpt lat="43.1571245100" lon="-4.1727425717">
        <ele>754.29</ele>
        <time>2018-05-19T13:03:28Z</time>
      </trkpt>
      <trkpt lat="43.1572467182" lon="-4.1726188548">
        <ele>752.37</ele>
        <time>2018-05-19T13:03:30Z</time>
      </trkpt>
      <trkpt lat="43.1573856901" lon="-4.1724790446">
        <ele>751.41</ele>
        <time>2018-05-19T13:03:32Z</time>
      </trkpt>
      <trkpt lat="43.1575225666" lon="-4.1723569203">
        <ele>748.52</ele>
        <time>2018-05-19T13:03:34Z</time>
      </trkpt>
      <trkpt lat="43.1576610357" lon="-4.1722454410">
        <ele>747.56</ele>
        <time>2018-05-19T13:03:36Z</time>
      </trkpt>
      <trkpt lat="43.1578005105" lon="-4.1721497197">
        <ele>746.60</ele>
        <time>2018-05-19T13:03:38Z</time>
      </trkpt>
      <trkpt lat="43.1579498760" lon="-4.1720702592">
        <ele>744.68</ele>
        <time>2018-05-19T13:03:40Z</time>
      </trkpt>
      <trkpt lat="43.1580789573" lon="-4.1720050480">
        <ele>741.79</ele>
        <time>2018-05-19T13:03:42Z</time>
      </trkpt>
      <trkpt lat="43.1582307536" lon="-4.1719426867">
        <ele>740.35</ele>
        <time>2018-05-19T13:03:44Z</time>
      </trkpt>
      <trkpt lat="43.1583648641" lon="-4.1718828399">
        <ele>739.87</ele>
        <time>2018-05-19T13:03:46Z</time>
      </trkpt>
      <trkpt lat="43.1584817916" lon="-4.1717990208">
        <ele>738.91</ele>
        <time>2018-05-19T13:03:48Z</time>
      </trkpt>
      <trkpt lat="43.1585869007" lon="-4.1717012040">
        <ele>738.43</ele>
        <time>2018-05-19T13:03:50Z</time>
      </trkpt>
      <trkpt lat="43.1587012298" lon="-4.1716823447">
        <ele>737.47</ele>
        <time>2018-05-19T13:03:53Z</time>
      </trkpt>
      <trkpt lat="43.1587623339" lon="-4.1718395893">
        <ele>736.51</ele>
        <time>2018-05-19T13:03:56Z</time>
      </trkpt>
      <trkpt lat="43.1587384455" lon="-4.1719819978">
        <ele>736.03</ele>
        <time>2018-05-19T13:03:58Z</time>
      </trkpt>
      <trkpt lat="43.1586936023" lon="-4.1721126717">
        <ele>735.55</ele>
        <time>2018-05-19T13:04:00Z</time>
      </trkpt>
      <trkpt lat="43.1586315762" lon="-4.1722643841">
        <ele>735.55</ele>
        <time>2018-05-19T13:04:02Z</time>
      </trkpt>
      <trkpt lat="43.1585843861" lon="-4.1724006739">
        <ele>735.55</ele>
        <time>2018-05-19T13:04:04Z</time>
      </trkpt>
      <trkpt lat="43.1585367769" lon="-4.1725638695">
        <ele>735.07</ele>
        <time>2018-05-19T13:04:06Z</time>
      </trkpt>
      <trkpt lat="43.1584838871" lon="-4.1727326810">
        <ele>735.07</ele>
        <time>2018-05-19T13:04:08Z</time>
      </trkpt>
      <trkpt lat="43.1584216096" lon="-4.1729175858">
        <ele>734.58</ele>
        <time>2018-05-19T13:04:10Z</time>
      </trkpt>
      <trkpt lat="43.1583396345" lon="-4.1731096990">
        <ele>733.62</ele>
        <time>2018-05-19T13:04:12Z</time>
      </trkpt>
      <trkpt lat="43.1582626048" lon="-4.1733129602">
        <ele>732.66</ele>
        <time>2018-05-19T13:04:14Z</time>
      </trkpt>
      <trkpt lat="43.1581997406" lon="-4.1734987870">
        <ele>730.26</ele>
        <time>2018-05-19T13:04:16Z</time>
      </trkpt>
      <trkpt lat="43.1581426598" lon="-4.1737269424">
        <ele>729.30</ele>
        <time>2018-05-19T13:04:18Z</time>
      </trkpt>
      <trkpt lat="43.1580880098" lon="-4.1739373282">
        <ele>728.34</ele>
        <time>2018-05-19T13:04:20Z</time>
      </trkpt>
      <trkpt lat="43.1580332760" lon="-4.1741480492">
        <ele>726.89</ele>
        <time>2018-05-19T13:04:22Z</time>
      </trkpt>
      <trkpt lat="43.1580006704" lon="-4.1743533220">
        <ele>725.45</ele>
        <time>2018-05-19T13:04:24Z</time>
      </trkpt>
      <trkpt lat="43.1580378022" lon="-4.1745478660">
        <ele>723.53</ele>
        <time>2018-05-19T13:04:26Z</time>
      </trkpt>
      <trkpt lat="43.1581263151" lon="-4.1747393925">
        <ele>721.13</ele>
        <time>2018-05-19T13:04:28Z</time>
      </trkpt>
      <trkpt lat="43.1581803784" lon="-4.1748389695">
        <ele>720.16</ele>
        <time>2018-05-19T13:04:29Z</time>
      </trkpt>
      <trkpt lat="43.1582378782" lon="-4.1749419831">
        <ele>720.16</ele>
        <time>2018-05-19T13:04:30Z</time>
      </trkpt>
      <trkpt lat="43.1583372876" lon="-4.1751258820">
        <ele>719.20</ele>
        <time>2018-05-19T13:04:32Z</time>
      </trkpt>
      <trkpt lat="43.1584356911" lon="-4.1752941068">
        <ele>718.24</ele>
        <time>2018-05-19T13:04:34Z</time>
      </trkpt>
      <trkpt lat="43.1585309096" lon="-4.1754560452">
        <ele>716.80</ele>
        <time>2018-05-19T13:04:36Z</time>
      </trkpt>
      <trkpt lat="43.1586033292" lon="-4.1755980346">
        <ele>715.84</ele>
        <time>2018-05-19T13:04:38Z</time>
      </trkpt>
      <trkpt lat="43.1586842984" lon="-4.1757826041">
        <ele>714.40</ele>
        <time>2018-05-19T13:04:40Z</time>
      </trkpt>
      <trkpt lat="43.1587712187" lon="-4.1759823449">
        <ele>712.47</ele>
        <time>2018-05-19T13:04:42Z</time>
      </trkpt>
      <trkpt lat="43.1588574685" lon="-4.1761830077">
        <ele>711.03</ele>
        <time>2018-05-19T13:04:44Z</time>
      </trkpt>
      <trkpt lat="43.1589006353" lon="-4.1762966663">
        <ele>710.07</ele>
        <time>2018-05-19T13:04:45Z</time>
      </trkpt>
      <trkpt lat="43.1589434668" lon="-4.1764177848">
        <ele>709.59</ele>
        <time>2018-05-19T13:04:46Z</time>
      </trkpt>
      <trkpt lat="43.1590038165" lon="-4.1765882727">
        <ele>708.15</ele>
        <time>2018-05-19T13:04:48Z</time>
      </trkpt>
      <trkpt lat="43.1590730511" lon="-4.1767636221">
        <ele>707.19</ele>
        <time>2018-05-19T13:04:50Z</time>
      </trkpt>
      <trkpt lat="43.1591503322" lon="-4.1769521311">
        <ele>705.75</ele>
        <time>2018-05-19T13:04:52Z</time>
      </trkpt>
      <trkpt lat="43.1592250150" lon="-4.1771410592">
        <ele>704.78</ele>
        <time>2018-05-19T13:04:54Z</time>
      </trkpt>
      <trkpt lat="43.1593034696" lon="-4.1773392912">
        <ele>702.86</ele>
        <time>2018-05-19T13:04:56Z</time>
      </trkpt>
      <trkpt lat="43.1593419425" lon="-4.1774477530">
        <ele>701.90</ele>
        <time>2018-05-19T13:04:57Z</time>
      </trkpt>
      <trkpt lat="43.1594038848" lon="-4.1776350047">
        <ele>700.46</ele>
        <time>2018-05-19T13:04:59Z</time>
      </trkpt>
      <trkpt lat="43.1594754662" lon="-4.1778339911">
        <ele>699.02</ele>
        <time>2018-05-19T13:05:01Z</time>
      </trkpt>
      <trkpt lat="43.1595632248" lon="-4.1780292057">
        <ele>697.09</ele>
        <time>2018-05-19T13:05:03Z</time>
      </trkpt>
      <trkpt lat="43.1596626341" lon="-4.1782182176">
        <ele>695.65</ele>
        <time>2018-05-19T13:05:05Z</time>
      </trkpt>
      <trkpt lat="43.1597682461" lon="-4.1783830058">
        <ele>694.69</ele>
        <time>2018-05-19T13:05:07Z</time>
      </trkpt>
      <trkpt lat="43.1598989200" lon="-4.1784925573">
        <ele>693.25</ele>
        <time>2018-05-19T13:05:09Z</time>
      </trkpt>
      <trkpt lat="43.1600337010" lon="-4.1785296053">
        <ele>691.81</ele>
        <time>2018-05-19T13:05:11Z</time>
      </trkpt>
      <trkpt lat="43.1601880956" lon="-4.1785618756">
        <ele>690.36</ele>
        <time>2018-05-19T13:05:13Z</time>
      </trkpt>
      <trkpt lat="43.1603235472" lon="-4.1786194593">
        <ele>689.40</ele>
        <time>2018-05-19T13:05:15Z</time>
      </trkpt>
      <trkpt lat="43.1603985652" lon="-4.1787278373">
        <ele>688.92</ele>
        <time>2018-05-19T13:05:17Z</time>
      </trkpt>
      <trkpt lat="43.1603905186" lon="-4.1788750235">
        <ele>687.96</ele>
        <time>2018-05-19T13:05:19Z</time>
      </trkpt>
      <trkpt lat="43.1603025086" lon="-4.1789777856">
        <ele>687.48</ele>
        <time>2018-05-19T13:05:21Z</time>
      </trkpt>
      <trkpt lat="43.1601966452" lon="-4.1790479422">
        <ele>686.04</ele>
        <time>2018-05-19T13:05:23Z</time>
      </trkpt>
      <trkpt lat="43.1600767840" lon="-4.1791491117">
        <ele>685.08</ele>
        <time>2018-05-19T13:05:25Z</time>
      </trkpt>
      <trkpt lat="43.1599979103" lon="-4.1793239582">
        <ele>683.63</ele>
        <time>2018-05-19T13:05:27Z</time>
      </trkpt>
      <trkpt lat="43.1599777937" lon="-4.1795628425">
        <ele>682.19</ele>
        <time>2018-05-19T13:05:29Z</time>
      </trkpt>
      <trkpt lat="43.1600190327" lon="-4.1797649302">
        <ele>680.75</ele>
        <time>2018-05-19T13:05:31Z</time>
      </trkpt>
      <trkpt lat="43.1600567512" lon="-4.1798816901">
        <ele>679.79</ele>
        <time>2018-05-19T13:05:32Z</time>
      </trkpt>
      <trkpt lat="43.1601051148" lon="-4.1799951810">
        <ele>678.83</ele>
        <time>2018-05-19T13:05:33Z</time>
      </trkpt>
      <trkpt lat="43.1601528078" lon="-4.1801097617">
        <ele>677.87</ele>
        <time>2018-05-19T13:05:34Z</time>
      </trkpt>
      <trkpt lat="43.1602396443" lon="-4.1803546809">
        <ele>677.87</ele>
        <time>2018-05-19T13:05:36Z</time>
      </trkpt>
      <trkpt lat="43.1602933723" lon="-4.1805827525">
        <ele>677.87</ele>
        <time>2018-05-19T13:05:38Z</time>
      </trkpt>
      <trkpt lat="43.1602965575" lon="-4.1810504626">
        <ele>672.58</ele>
        <time>2018-05-19T13:05:42Z</time>
      </trkpt>
      <trkpt lat="43.1602642033" lon="-4.1812831443">
        <ele>670.66</ele>
        <time>2018-05-19T13:05:44Z</time>
      </trkpt>
      <trkpt lat="43.1602564082" lon="-4.1814312525">
        <ele>669.70</ele>
        <time>2018-05-19T13:05:45Z</time>
      </trkpt>
      <trkpt lat="43.1602802966" lon="-4.1819293890">
        <ele>665.37</ele>
        <time>2018-05-19T13:05:49Z</time>
      </trkpt>
      <trkpt lat="43.1602802128" lon="-4.1821142938">
        <ele>664.41</ele>
        <time>2018-05-19T13:05:51Z</time>
      </trkpt>
      <trkpt lat="43.1602738425" lon="-4.1824413557">
        <ele>662.01</ele>
        <time>2018-05-19T13:05:54Z</time>
      </trkpt>
      <trkpt lat="43.1603694800" lon="-4.1827910487">
        <ele>657.68</ele>
        <time>2018-05-19T13:05:57Z</time>
      </trkpt>
      <trkpt lat="43.1604635250" lon="-4.1829873528">
        <ele>656.72</ele>
        <time>2018-05-19T13:06:00Z</time>
      </trkpt>
      <trkpt lat="43.1605359446" lon="-4.1831520572">
        <ele>653.83</ele>
        <time>2018-05-19T13:06:02Z</time>
      </trkpt>
      <trkpt lat="43.1607319135" lon="-4.1834964696">
        <ele>650.95</ele>
        <time>2018-05-19T13:06:04Z</time>
      </trkpt>
      <trkpt lat="43.1608849671" lon="-4.1836746689">
        <ele>649.99</ele>
        <time>2018-05-19T13:06:07Z</time>
      </trkpt>
      <trkpt lat="43.1609905791" lon="-4.1838108748">
        <ele>648.07</ele>
        <time>2018-05-19T13:06:09Z</time>
      </trkpt>
      <trkpt lat="43.1610041577" lon="-4.1841479950">
        <ele>646.14</ele>
        <time>2018-05-19T13:06:12Z</time>
      </trkpt>
      <trkpt lat="43.1610092707" lon="-4.1843337379">
        <ele>645.18</ele>
        <time>2018-05-19T13:06:14Z</time>
      </trkpt>
      <trkpt lat="43.1610384397" lon="-4.1845581215">
        <ele>645.18</ele>
        <time>2018-05-19T13:06:16Z</time>
      </trkpt>
      <trkpt lat="43.1612076703" lon="-4.1849501431">
        <ele>642.78</ele>
        <time>2018-05-19T13:06:20Z</time>
      </trkpt>
      <trkpt lat="43.1613121927" lon="-4.1851064656">
        <ele>641.82</ele>
        <time>2018-05-19T13:06:22Z</time>
      </trkpt>
      <trkpt lat="43.1614378374" lon="-4.1853187792">
        <ele>641.34</ele>
        <time>2018-05-19T13:06:24Z</time>
      </trkpt>
      <trkpt lat="43.1615415215" lon="-4.1855450068">
        <ele>638.45</ele>
        <time>2018-05-19T13:06:26Z</time>
      </trkpt>
      <trkpt lat="43.1617451180" lon="-4.1859678738">
        <ele>637.97</ele>
        <time>2018-05-19T13:06:31Z</time>
      </trkpt>
      <trkpt lat="43.1618379895" lon="-4.1861151438">
        <ele>637.01</ele>
        <time>2018-05-19T13:06:32Z</time>
      </trkpt>
      <trkpt lat="43.1621090602" lon="-4.1864343267">
        <ele>636.05</ele>
        <time>2018-05-19T13:06:36Z</time>
      </trkpt>
      <trkpt lat="43.1622038595" lon="-4.1865888890">
        <ele>635.09</ele>
        <time>2018-05-19T13:06:38Z</time>
      </trkpt>
      <trkpt lat="43.1622725073" lon="-4.1867193114">
        <ele>634.61</ele>
        <time>2018-05-19T13:06:39Z</time>
      </trkpt>
      <trkpt lat="43.1623823103" lon="-4.1871893685">
        <ele>633.17</ele>
        <time>2018-05-19T13:06:43Z</time>
      </trkpt>
      <trkpt lat="43.1624098867" lon="-4.1872864310">
        <ele>633.17</ele>
        <time>2018-05-19T13:06:44Z</time>
      </trkpt>
      <trkpt lat="43.1625103857" lon="-4.1875481978">
        <ele>632.68</ele>
        <time>2018-05-19T13:06:46Z</time>
      </trkpt>
      <trkpt lat="43.1625564862" lon="-4.1876658797">
        <ele>628.84</ele>
        <time>2018-05-19T13:06:47Z</time>
      </trkpt>
      <trkpt lat="43.1627252977" lon="-4.1881651059">
        <ele>627.40</ele>
        <time>2018-05-19T13:06:51Z</time>
      </trkpt>
      <trkpt lat="43.1627858989" lon="-4.1883720551">
        <ele>630.28</ele>
        <time>2018-05-19T13:06:53Z</time>
      </trkpt>
      <trkpt lat="43.1628392078" lon="-4.1885427944">
        <ele>626.92</ele>
        <time>2018-05-19T13:06:54Z</time>
      </trkpt>
      <trkpt lat="43.1629189197" lon="-4.1889791563">
        <ele>625.47</ele>
        <time>2018-05-19T13:06:58Z</time>
      </trkpt>
      <trkpt lat="43.1629534531" lon="-4.1892053839">
        <ele>626.92</ele>
        <time>2018-05-19T13:07:00Z</time>
      </trkpt>
      <trkpt lat="43.1630380265" lon="-4.1895774566">
        <ele>625.96</ele>
        <time>2018-05-19T13:07:03Z</time>
      </trkpt>
      <trkpt lat="43.1631076802" lon="-4.1897793766">
        <ele>624.99</ele>
        <time>2018-05-19T13:07:05Z</time>
      </trkpt>
      <trkpt lat="43.1631545350" lon="-4.1899017524">
        <ele>624.51</ele>
        <time>2018-05-19T13:07:06Z</time>
      </trkpt>
      <trkpt lat="43.1631930918" lon="-4.1899888404">
        <ele>624.03</ele>
        <time>2018-05-19T13:07:07Z</time>
      </trkpt>
      <trkpt lat="43.1633074209" lon="-4.1901988070">
        <ele>624.03</ele>
        <time>2018-05-19T13:07:09Z</time>
      </trkpt>
      <trkpt lat="43.1633569580" lon="-4.1902972944">
        <ele>622.59</ele>
        <time>2018-05-19T13:07:10Z</time>
      </trkpt>
      <trkpt lat="43.1634125300" lon="-4.1904318240">
        <ele>621.63</ele>
        <time>2018-05-19T13:07:11Z</time>
      </trkpt>
      <trkpt lat="43.1634539366" lon="-4.1905264556">
        <ele>621.63</ele>
        <time>2018-05-19T13:07:12Z</time>
      </trkpt>
      <trkpt lat="43.1635774020" lon="-4.1907173954">
        <ele>621.15</ele>
        <time>2018-05-19T13:07:14Z</time>
      </trkpt>
      <trkpt lat="43.1637708563" lon="-4.1909810062">
        <ele>618.75</ele>
        <time>2018-05-19T13:07:17Z</time>
      </trkpt>
      <trkpt lat="43.1638234109" lon="-4.1911706049">
        <ele>617.78</ele>
        <time>2018-05-19T13:07:19Z</time>
      </trkpt>
      <trkpt lat="43.1639121752" lon="-4.1914549191">
        <ele>614.42</ele>
        <time>2018-05-19T13:07:21Z</time>
      </trkpt>
      <trkpt lat="43.1640016939" lon="-4.1919509601">
        <ele>612.02</ele>
        <time>2018-05-19T13:07:25Z</time>
      </trkpt>
      <trkpt lat="43.1640109140" lon="-4.1920782812">
        <ele>611.06</ele>
        <time>2018-05-19T13:07:26Z</time>
      </trkpt>
      <trkpt lat="43.1640175357" lon="-4.1922213603">
        <ele>609.61</ele>
        <time>2018-05-19T13:07:27Z</time>
      </trkpt>
      <trkpt lat="43.1640252471" lon="-4.1923735756">
        <ele>608.65</ele>
        <time>2018-05-19T13:07:28Z</time>
      </trkpt>
      <trkpt lat="43.1640367303" lon="-4.1925337538">
        <ele>607.69</ele>
        <time>2018-05-19T13:07:29Z</time>
      </trkpt>
      <trkpt lat="43.1640530750" lon="-4.1926931776">
        <ele>606.73</ele>
        <time>2018-05-19T13:07:30Z</time>
      </trkpt>
      <trkpt lat="43.1640964095" lon="-4.1929442994">
        <ele>604.81</ele>
        <time>2018-05-19T13:07:32Z</time>
      </trkpt>
      <trkpt lat="43.1641233154" lon="-4.1930794157">
        <ele>603.85</ele>
        <time>2018-05-19T13:07:33Z</time>
      </trkpt>
      <trkpt lat="43.1641415879" lon="-4.1932109278">
        <ele>602.40</ele>
        <time>2018-05-19T13:07:34Z</time>
      </trkpt>
      <trkpt lat="43.1641511433" lon="-4.1933452059">
        <ele>601.44</ele>
        <time>2018-05-19T13:07:35Z</time>
      </trkpt>
      <trkpt lat="43.1641541608" lon="-4.1934834234">
        <ele>600.96</ele>
        <time>2018-05-19T13:07:36Z</time>
      </trkpt>
      <trkpt lat="43.1641495507" lon="-4.1936125886">
        <ele>600.00</ele>
        <time>2018-05-19T13:07:37Z</time>
      </trkpt>
      <trkpt lat="43.1641402468" lon="-4.1937525664">
        <ele>598.56</ele>
        <time>2018-05-19T13:07:38Z</time>
      </trkpt>
      <trkpt lat="43.1641389057" lon="-4.1938958969">
        <ele>597.12</ele>
        <time>2018-05-19T13:07:39Z</time>
      </trkpt>
      <trkpt lat="43.1641489640" lon="-4.1940320190">
        <ele>595.67</ele>
        <time>2018-05-19T13:07:40Z</time>
      </trkpt>
      <trkpt lat="43.1641692482" lon="-4.1941697337">
        <ele>595.19</ele>
        <time>2018-05-19T13:07:41Z</time>
      </trkpt>
      <trkpt lat="43.1642207969" lon="-4.1944112163">
        <ele>592.31</ele>
        <time>2018-05-19T13:07:43Z</time>
      </trkpt>
      <trkpt lat="43.1642553303" lon="-4.1945397947">
        <ele>591.35</ele>
        <time>2018-05-19T13:07:44Z</time>
      </trkpt>
      <trkpt lat="43.1642865948" lon="-4.1946581472">
        <ele>590.39</ele>
        <time>2018-05-19T13:07:45Z</time>
      </trkpt>
      <trkpt lat="43.1643169373" lon="-4.1947913356">
        <ele>588.95</ele>
        <time>2018-05-19T13:07:46Z</time>
      </trkpt>
      <trkpt lat="43.1643360481" lon="-4.1949087661">
        <ele>587.98</ele>
        <time>2018-05-19T13:07:47Z</time>
      </trkpt>
      <trkpt lat="43.1643506326" lon="-4.1950412840">
        <ele>586.54</ele>
        <time>2018-05-19T13:07:48Z</time>
      </trkpt>
      <trkpt lat="43.1643598527" lon="-4.1951685213">
        <ele>586.06</ele>
        <time>2018-05-19T13:07:49Z</time>
      </trkpt>
      <trkpt lat="43.1643706653" lon="-4.1953111812">
        <ele>585.10</ele>
        <time>2018-05-19T13:07:50Z</time>
      </trkpt>
      <trkpt lat="43.1643892732" lon="-4.1954601277">
        <ele>583.66</ele>
        <time>2018-05-19T13:07:51Z</time>
      </trkpt>
      <trkpt lat="43.1644308474" lon="-4.1956901271">
        <ele>581.73</ele>
        <time>2018-05-19T13:07:53Z</time>
      </trkpt>
      <trkpt lat="43.1644589268" lon="-4.1958298534">
        <ele>580.77</ele>
        <time>2018-05-19T13:07:54Z</time>
      </trkpt>
      <trkpt lat="43.1644846592" lon="-4.1959604435">
        <ele>580.77</ele>
        <time>2018-05-19T13:07:55Z</time>
      </trkpt>
      <trkpt lat="43.1645076256" lon="-4.1960876808">
        <ele>579.33</ele>
        <time>2018-05-19T13:07:56Z</time>
      </trkpt>
      <trkpt lat="43.1645328552" lon="-4.1962157562">
        <ele>578.37</ele>
        <time>2018-05-19T13:07:57Z</time>
      </trkpt>
      <trkpt lat="43.1645627785" lon="-4.1963351984">
        <ele>577.89</ele>
        <time>2018-05-19T13:07:58Z</time>
      </trkpt>
      <trkpt lat="43.1646134052" lon="-4.1965674609">
        <ele>575.97</ele>
        <time>2018-05-19T13:08:00Z</time>
      </trkpt>
      <trkpt lat="43.1646188535" lon="-4.1966946982">
        <ele>575.49</ele>
        <time>2018-05-19T13:08:01Z</time>
      </trkpt>
      <trkpt lat="43.1646026764" lon="-4.1968247853">
        <ele>575.97</ele>
        <time>2018-05-19T13:08:02Z</time>
      </trkpt>
      <trkpt lat="43.1645486970" lon="-4.1969795991">
        <ele>575.49</ele>
        <time>2018-05-19T13:08:04Z</time>
      </trkpt>
      <trkpt lat="43.1645059492" lon="-4.1971743107">
        <ele>575.49</ele>
        <time>2018-05-19T13:08:06Z</time>
      </trkpt>
      <trkpt lat="43.1645027641" lon="-4.1973677650">
        <ele>576.93</ele>
        <time>2018-05-19T13:08:08Z</time>
      </trkpt>
      <trkpt lat="43.1645227131" lon="-4.1975583695">
        <ele>576.93</ele>
        <time>2018-05-19T13:08:10Z</time>
      </trkpt>
      <trkpt lat="43.1645683944" lon="-4.1977585293">
        <ele>575.97</ele>
        <time>2018-05-19T13:08:12Z</time>
      </trkpt>
      <trkpt lat="43.1645909417" lon="-4.1978860181">
        <ele>575.97</ele>
        <time>2018-05-19T13:08:13Z</time>
      </trkpt>
      <trkpt lat="43.1646067835" lon="-4.1980939731">
        <ele>574.53</ele>
        <time>2018-05-19T13:08:15Z</time>
      </trkpt>
      <trkpt lat="43.1645916961" lon="-4.1983320192">
        <ele>573.56</ele>
        <time>2018-05-19T13:08:17Z</time>
      </trkpt>
      <trkpt lat="43.1645366270" lon="-4.1985367890">
        <ele>573.56</ele>
        <time>2018-05-19T13:08:19Z</time>
      </trkpt>
      <trkpt lat="43.1644425821" lon="-4.1987148207">
        <ele>572.60</ele>
        <time>2018-05-19T13:08:21Z</time>
      </trkpt>
      <trkpt lat="43.1643171050" lon="-4.1988765914">
        <ele>572.60</ele>
        <time>2018-05-19T13:08:23Z</time>
      </trkpt>
      <trkpt lat="43.1641973276" lon="-4.1990159824">
        <ele>572.12</ele>
        <time>2018-05-19T13:08:25Z</time>
      </trkpt>
      <trkpt lat="43.1640798133" lon="-4.1991851293">
        <ele>571.64</ele>
        <time>2018-05-19T13:08:27Z</time>
      </trkpt>
      <trkpt lat="43.1639808230" lon="-4.1993806791">
        <ele>570.68</ele>
        <time>2018-05-19T13:08:29Z</time>
      </trkpt>
      <trkpt lat="43.1638807431" lon="-4.1995888855">
        <ele>570.20</ele>
        <time>2018-05-19T13:08:31Z</time>
      </trkpt>
      <trkpt lat="43.1638224050" lon="-4.1996939108">
        <ele>569.72</ele>
        <time>2018-05-19T13:08:32Z</time>
      </trkpt>
      <trkpt lat="43.1637293659" lon="-4.1998853534">
        <ele>568.76</ele>
        <time>2018-05-19T13:08:34Z</time>
      </trkpt>
      <trkpt lat="43.1636617240" lon="-4.2000981700">
        <ele>567.80</ele>
        <time>2018-05-19T13:08:36Z</time>
      </trkpt>
      <trkpt lat="43.1636406016" lon="-4.2002203781">
        <ele>566.83</ele>
        <time>2018-05-19T13:08:37Z</time>
      </trkpt>
      <trkpt lat="43.1636240054" lon="-4.2004705779">
        <ele>565.87</ele>
        <time>2018-05-19T13:08:39Z</time>
      </trkpt>
      <trkpt lat="43.1636291184" lon="-4.2005961388">
        <ele>565.87</ele>
        <time>2018-05-19T13:08:40Z</time>
      </trkpt>
      <trkpt lat="43.1636409368" lon="-4.2007335182">
        <ele>565.39</ele>
        <time>2018-05-19T13:08:41Z</time>
      </trkpt>
      <trkpt lat="43.1636514142" lon="-4.2008703109">
        <ele>564.43</ele>
        <time>2018-05-19T13:08:42Z</time>
      </trkpt>
      <trkpt lat="43.1636353210" lon="-4.2010928504">
        <ele>563.47</ele>
        <time>2018-05-19T13:08:44Z</time>
      </trkpt>
      <trkpt lat="43.1636064034" lon="-4.2012107000">
        <ele>563.47</ele>
        <time>2018-05-19T13:08:45Z</time>
      </trkpt>
      <trkpt lat="43.1635220814" lon="-4.2014261987">
        <ele>562.51</ele>
        <time>2018-05-19T13:08:47Z</time>
      </trkpt>
      <trkpt lat="43.1634217501" lon="-4.2016142048">
        <ele>561.07</ele>
        <time>2018-05-19T13:08:49Z</time>
      </trkpt>
      <trkpt lat="43.1633227598" lon="-4.2017741315">
        <ele>560.11</ele>
        <time>2018-05-19T13:08:51Z</time>
      </trkpt>
      <trkpt lat="43.1632632483" lon="-4.2019227426">
        <ele>559.14</ele>
        <time>2018-05-19T13:08:53Z</time>
      </trkpt>
      <trkpt lat="43.1632906571" lon="-4.2020466272">
        <ele>558.66</ele>
        <time>2018-05-19T13:08:55Z</time>
      </trkpt>
      <trkpt lat="43.1633950118" lon="-4.2021341342">
        <ele>557.70</ele>
        <time>2018-05-19T13:08:57Z</time>
      </trkpt>
      <trkpt lat="43.1635006238" lon="-4.2022664845">
        <ele>555.78</ele>
        <time>2018-05-19T13:08:59Z</time>
      </trkpt>
      <trkpt lat="43.1635934114" lon="-4.2024651356">
        <ele>553.86</ele>
        <time>2018-05-19T13:09:01Z</time>
      </trkpt>
      <trkpt lat="43.1636316329" lon="-4.2025754414">
        <ele>552.41</ele>
        <time>2018-05-19T13:09:02Z</time>
      </trkpt>
      <trkpt lat="43.1636696868" lon="-4.2026969790">
        <ele>551.45</ele>
        <time>2018-05-19T13:09:03Z</time>
      </trkpt>
      <trkpt lat="43.1637043040" lon="-4.2028143257">
        <ele>550.49</ele>
        <time>2018-05-19T13:09:04Z</time>
      </trkpt>
      <trkpt lat="43.1637312938" lon="-4.2030124739">
        <ele>548.57</ele>
        <time>2018-05-19T13:09:06Z</time>
      </trkpt>
      <trkpt lat="43.1636944134" lon="-4.2032034136">
        <ele>548.09</ele>
        <time>2018-05-19T13:09:08Z</time>
      </trkpt>
      <trkpt lat="43.1636080798" lon="-4.2033763323">
        <ele>548.09</ele>
        <time>2018-05-19T13:09:10Z</time>
      </trkpt>
      <trkpt lat="43.1634845305" lon="-4.2035238538">
        <ele>548.09</ele>
        <time>2018-05-19T13:09:12Z</time>
      </trkpt>
      <trkpt lat="43.1633650884" lon="-4.2036244366">
        <ele>548.09</ele>
        <time>2018-05-19T13:09:14Z</time>
      </trkpt>
      <trkpt lat="43.1633086782" lon="-4.2037546076">
        <ele>548.09</ele>
        <time>2018-05-19T13:09:16Z</time>
      </trkpt>
      <trkpt lat="43.1633421220" lon="-4.2038961779">
        <ele>548.09</ele>
        <time>2018-05-19T13:09:18Z</time>
      </trkpt>
      <trkpt lat="43.1634308863" lon="-4.2040126864">
        <ele>547.61</ele>
        <time>2018-05-19T13:09:20Z</time>
      </trkpt>
      <trkpt lat="43.1635651644" lon="-4.2041279376">
        <ele>546.17</ele>
        <time>2018-05-19T13:09:22Z</time>
      </trkpt>
      <trkpt lat="43.1636627298" lon="-4.2042592820">
        <ele>545.20</ele>
        <time>2018-05-19T13:09:24Z</time>
      </trkpt>
      <trkpt lat="43.1637239177" lon="-4.2044513952">
        <ele>542.80</ele>
        <time>2018-05-19T13:09:26Z</time>
      </trkpt>
      <trkpt lat="43.1637242530" lon="-4.2046773713">
        <ele>540.40</ele>
        <time>2018-05-19T13:09:28Z</time>
      </trkpt>
      <trkpt lat="43.1636603829" lon="-4.2049079575">
        <ele>538.96</ele>
        <time>2018-05-19T13:09:30Z</time>
      </trkpt>
      <trkpt lat="43.1636095047" lon="-4.2050149944">
        <ele>538.48</ele>
        <time>2018-05-19T13:09:31Z</time>
      </trkpt>
      <trkpt lat="43.1635463051" lon="-4.2051272281">
        <ele>537.51</ele>
        <time>2018-05-19T13:09:32Z</time>
      </trkpt>
      <trkpt lat="43.1634261925" lon="-4.2053081095">
        <ele>537.03</ele>
        <time>2018-05-19T13:09:34Z</time>
      </trkpt>
      <trkpt lat="43.1632744800" lon="-4.2054449860">
        <ele>536.07</ele>
        <time>2018-05-19T13:09:36Z</time>
      </trkpt>
      <trkpt lat="43.1631016452" lon="-4.2055095267">
        <ele>535.11</ele>
        <time>2018-05-19T13:09:38Z</time>
      </trkpt>
      <trkpt lat="43.1629262958" lon="-4.2055652663">
        <ele>533.19</ele>
        <time>2018-05-19T13:09:40Z</time>
      </trkpt>
      <trkpt lat="43.1628384534" lon="-4.2056210898">
        <ele>532.71</ele>
        <time>2018-05-19T13:09:41Z</time>
      </trkpt>
      <trkpt lat="43.1627503596" lon="-4.2057466507">
        <ele>532.23</ele>
        <time>2018-05-19T13:09:43Z</time>
      </trkpt>
      <trkpt lat="43.1627274770" lon="-4.2059309687">
        <ele>530.79</ele>
        <time>2018-05-19T13:09:45Z</time>
      </trkpt>
      <trkpt lat="43.1627924368" lon="-4.2061146162">
        <ele>528.86</ele>
        <time>2018-05-19T13:09:47Z</time>
      </trkpt>
      <trkpt lat="43.1629111245" lon="-4.2062847689">
        <ele>527.90</ele>
        <time>2018-05-19T13:09:49Z</time>
      </trkpt>
      <trkpt lat="43.1630174071" lon="-4.2064367328">
        <ele>527.42</ele>
        <time>2018-05-19T13:09:51Z</time>
      </trkpt>
      <trkpt lat="43.1630832888" lon="-4.2065319512">
        <ele>526.46</ele>
        <time>2018-05-19T13:09:52Z</time>
      </trkpt>
      <trkpt lat="43.1631655153" lon="-4.2067460250">
        <ele>525.98</ele>
        <time>2018-05-19T13:09:54Z</time>
      </trkpt>
      <trkpt lat="43.1631876435" lon="-4.2069835681">
        <ele>525.02</ele>
        <time>2018-05-19T13:09:56Z</time>
      </trkpt>
      <trkpt lat="43.1631682813" lon="-4.2072395515">
        <ele>524.54</ele>
        <time>2018-05-19T13:09:58Z</time>
      </trkpt>
      <trkpt lat="43.1631459855" lon="-4.2073590774">
        <ele>524.54</ele>
        <time>2018-05-19T13:09:59Z</time>
      </trkpt>
      <trkpt lat="43.1631033216" lon="-4.2075743247">
        <ele>523.58</ele>
        <time>2018-05-19T13:10:01Z</time>
      </trkpt>
      <trkpt lat="43.1630471628" lon="-4.2078033183">
        <ele>522.61</ele>
        <time>2018-05-19T13:10:03Z</time>
      </trkpt>
      <trkpt lat="43.1629547942" lon="-4.2079865467">
        <ele>521.17</ele>
        <time>2018-05-19T13:10:05Z</time>
      </trkpt>
      <trkpt lat="43.1628736574" lon="-4.2080660909">
        <ele>520.21</ele>
        <time>2018-05-19T13:10:06Z</time>
      </trkpt>
      <trkpt lat="43.1627262197" lon="-4.2081523407">
        <ele>519.25</ele>
        <time>2018-05-19T13:10:08Z</time>
      </trkpt>
      <trkpt lat="43.1626407243" lon="-4.2081903946">
        <ele>518.77</ele>
        <time>2018-05-19T13:10:09Z</time>
      </trkpt>
      <trkpt lat="43.1624869164" lon="-4.2082857806">
        <ele>517.33</ele>
        <time>2018-05-19T13:10:11Z</time>
      </trkpt>
      <trkpt lat="43.1624129880" lon="-4.2083576135">
        <ele>515.88</ele>
        <time>2018-05-19T13:10:12Z</time>
      </trkpt>
      <trkpt lat="43.1623376347" lon="-4.2084612139">
        <ele>515.40</ele>
        <time>2018-05-19T13:10:13Z</time>
      </trkpt>
      <trkpt lat="43.1622452661" lon="-4.2086462863">
        <ele>513.48</ele>
        <time>2018-05-19T13:10:15Z</time>
      </trkpt>
      <trkpt lat="43.1621887721" lon="-4.2088781297">
        <ele>511.56</ele>
        <time>2018-05-19T13:10:17Z</time>
      </trkpt>
      <trkpt lat="43.1621801388" lon="-4.2090077978">
        <ele>510.60</ele>
        <time>2018-05-19T13:10:18Z</time>
      </trkpt>
      <trkpt lat="43.1621878501" lon="-4.2091422435">
        <ele>510.12</ele>
        <time>2018-05-19T13:10:19Z</time>
      </trkpt>
      <trkpt lat="43.1622368842" lon="-4.2093600892">
        <ele>510.12</ele>
        <time>2018-05-19T13:10:21Z</time>
      </trkpt>
      <trkpt lat="43.1622762792" lon="-4.2095990572">
        <ele>509.16</ele>
        <time>2018-05-19T13:10:23Z</time>
      </trkpt>
      <trkpt lat="43.1622735132" lon="-4.2097178288">
        <ele>508.19</ele>
        <time>2018-05-19T13:10:24Z</time>
      </trkpt>
      <trkpt lat="43.1622566655" lon="-4.2098433059">
        <ele>507.71</ele>
        <time>2018-05-19T13:10:25Z</time>
      </trkpt>
      <trkpt lat="43.1622241437" lon="-4.2099777516">
        <ele>506.27</ele>
        <time>2018-05-19T13:10:26Z</time>
      </trkpt>
      <trkpt lat="43.1621803902" lon="-4.2100965232">
        <ele>505.31</ele>
        <time>2018-05-19T13:10:27Z</time>
      </trkpt>
      <trkpt lat="43.1620697491" lon="-4.2102907319">
        <ele>504.83</ele>
        <time>2018-05-19T13:10:29Z</time>
      </trkpt>
      <trkpt lat="43.1620058790" lon="-4.2103763949">
        <ele>503.87</ele>
        <time>2018-05-19T13:10:30Z</time>
      </trkpt>
      <trkpt lat="43.1618646439" lon="-4.2105218209">
        <ele>503.39</ele>
        <time>2018-05-19T13:10:32Z</time>
      </trkpt>
      <trkpt lat="43.1617328804" lon="-4.2106472142">
        <ele>502.91</ele>
        <time>2018-05-19T13:10:34Z</time>
      </trkpt>
      <trkpt lat="43.1616412662" lon="-4.2108055484">
        <ele>501.95</ele>
        <time>2018-05-19T13:10:36Z</time>
      </trkpt>
      <trkpt lat="43.1615762226" lon="-4.2110109888">
        <ele>501.95</ele>
        <time>2018-05-19T13:10:38Z</time>
      </trkpt>
      <trkpt lat="43.1615094189" lon="-4.2111567501">
        <ele>501.95</ele>
        <time>2018-05-19T13:10:40Z</time>
      </trkpt>
      <trkpt lat="43.1614339817" lon="-4.2113236338">
        <ele>501.95</ele>
        <time>2018-05-19T13:10:42Z</time>
      </trkpt>
      <trkpt lat="43.1614127755" lon="-4.2114997376">
        <ele>501.95</ele>
        <time>2018-05-19T13:10:44Z</time>
      </trkpt>
      <trkpt lat="43.1614372507" lon="-4.2117000651">
        <ele>501.46</ele>
        <time>2018-05-19T13:10:46Z</time>
      </trkpt>
      <trkpt lat="43.1614950858" lon="-4.2118984647">
        <ele>500.98</ele>
        <time>2018-05-19T13:10:48Z</time>
      </trkpt>
      <trkpt lat="43.1615493167" lon="-4.2120790109">
        <ele>500.50</ele>
        <time>2018-05-19T13:10:50Z</time>
      </trkpt>
      <trkpt lat="43.1616048887" lon="-4.2122644186">
        <ele>499.54</ele>
        <time>2018-05-19T13:10:52Z</time>
      </trkpt>
      <trkpt lat="43.1616664957" lon="-4.2124587111">
        <ele>499.06</ele>
        <time>2018-05-19T13:10:54Z</time>
      </trkpt>
      <trkpt lat="43.1617243309" lon="-4.2126473039">
        <ele>498.58</ele>
        <time>2018-05-19T13:10:56Z</time>
      </trkpt>
      <trkpt lat="43.1617822498" lon="-4.2128633894">
        <ele>497.62</ele>
        <time>2018-05-19T13:10:58Z</time>
      </trkpt>
      <trkpt lat="43.1618056353" lon="-4.2130943947">
        <ele>497.14</ele>
        <time>2018-05-19T13:11:00Z</time>
      </trkpt>
      <trkpt lat="43.1617941521" lon="-4.2132783774">
        <ele>497.14</ele>
        <time>2018-05-19T13:11:02Z</time>
      </trkpt>
      <trkpt lat="43.1617779750" lon="-4.2134680599">
        <ele>497.14</ele>
        <time>2018-05-19T13:11:04Z</time>
      </trkpt>
      <trkpt lat="43.1617577747" lon="-4.2136576585">
        <ele>498.58</ele>
        <time>2018-05-19T13:11:06Z</time>
      </trkpt>
      <trkpt lat="43.1617019512" lon="-4.2138230335">
        <ele>498.58</ele>
        <time>2018-05-19T13:11:08Z</time>
      </trkpt>
      <trkpt lat="43.1616077386" lon="-4.2139754165">
        <ele>498.58</ele>
        <time>2018-05-19T13:11:10Z</time>
      </trkpt>
      <trkpt lat="43.1615072396" lon="-4.2140780110">
        <ele>498.58</ele>
        <time>2018-05-19T13:11:12Z</time>
      </trkpt>
      <trkpt lat="43.1613822654" lon="-4.2141795158">
        <ele>498.58</ele>
        <time>2018-05-19T13:11:14Z</time>
      </trkpt>
      <trkpt lat="43.1612567883" lon="-4.2142758239">
        <ele>497.14</ele>
        <time>2018-05-19T13:11:16Z</time>
      </trkpt>
      <trkpt lat="43.1611158047" lon="-4.2143834475">
        <ele>496.18</ele>
        <time>2018-05-19T13:11:18Z</time>
      </trkpt>
      <trkpt lat="43.1609825324" lon="-4.2145130318">
        <ele>495.70</ele>
        <time>2018-05-19T13:11:20Z</time>
      </trkpt>
      <trkpt lat="43.1609128788" lon="-4.2145934142">
        <ele>494.74</ele>
        <time>2018-05-19T13:11:21Z</time>
      </trkpt>
      <trkpt lat="43.1608151458" lon="-4.2147614714">
        <ele>493.77</ele>
        <time>2018-05-19T13:11:23Z</time>
      </trkpt>
      <trkpt lat="43.1607582327" lon="-4.2149743717">
        <ele>493.29</ele>
        <time>2018-05-19T13:11:25Z</time>
      </trkpt>
      <trkpt lat="43.1607437320" lon="-4.2152061313">
        <ele>492.81</ele>
        <time>2018-05-19T13:11:27Z</time>
      </trkpt>
      <trkpt lat="43.1607384514" lon="-4.2154394835">
        <ele>491.85</ele>
        <time>2018-05-19T13:11:29Z</time>
      </trkpt>
      <trkpt lat="43.1607414689" lon="-4.2156801280">
        <ele>491.37</ele>
        <time>2018-05-19T13:11:31Z</time>
      </trkpt>
      <trkpt lat="43.1607221905" lon="-4.2159013264">
        <ele>491.37</ele>
        <time>2018-05-19T13:11:33Z</time>
      </trkpt>
      <trkpt lat="43.1606591586" lon="-4.2160262167">
        <ele>490.41</ele>
        <time>2018-05-19T13:11:35Z</time>
      </trkpt>
      <trkpt lat="43.1605705619" lon="-4.2161262967">
        <ele>492.33</ele>
        <time>2018-05-19T13:11:37Z</time>
      </trkpt>
      <trkpt lat="43.1604806241" lon="-4.2162153125">
        <ele>493.29</ele>
        <time>2018-05-19T13:11:39Z</time>
      </trkpt>
      <trkpt lat="43.1603927817" lon="-4.2163031548">
        <ele>493.29</ele>
        <time>2018-05-19T13:11:41Z</time>
      </trkpt>
      <trkpt lat="43.1602945458" lon="-4.2163982056">
        <ele>494.26</ele>
        <time>2018-05-19T13:11:43Z</time>
      </trkpt>
      <trkpt lat="43.1602164265" lon="-4.2164864670">
        <ele>494.26</ele>
        <time>2018-05-19T13:11:45Z</time>
      </trkpt>
      <trkpt lat="43.1601267401" lon="-4.2165930849">
        <ele>494.26</ele>
        <time>2018-05-19T13:11:47Z</time>
      </trkpt>
      <trkpt lat="43.1600353774" lon="-4.2167080846">
        <ele>494.26</ele>
        <time>2018-05-19T13:11:49Z</time>
      </trkpt>
      <trkpt lat="43.1599492952" lon="-4.2168606352">
        <ele>491.37</ele>
        <time>2018-05-19T13:11:51Z</time>
      </trkpt>
      <trkpt lat="43.1598908734" lon="-4.2170677520">
        <ele>488.49</ele>
        <time>2018-05-19T13:11:53Z</time>
      </trkpt>
      <trkpt lat="43.1598577648" lon="-4.2172922194">
        <ele>487.05</ele>
        <time>2018-05-19T13:11:55Z</time>
      </trkpt>
      <trkpt lat="43.1598425098" lon="-4.2174907029">
        <ele>484.64</ele>
        <time>2018-05-19T13:11:57Z</time>
      </trkpt>
      <trkpt lat="43.1598456949" lon="-4.2177328561">
        <ele>482.72</ele>
        <time>2018-05-19T13:11:59Z</time>
      </trkpt>
      <trkpt lat="43.1598492153" lon="-4.2178631946">
        <ele>482.24</ele>
        <time>2018-05-19T13:12:00Z</time>
      </trkpt>
      <trkpt lat="43.1598530710" lon="-4.2179957125">
        <ele>481.28</ele>
        <time>2018-05-19T13:12:01Z</time>
      </trkpt>
      <trkpt lat="43.1598629616" lon="-4.2181295715">
        <ele>480.80</ele>
        <time>2018-05-19T13:12:02Z</time>
      </trkpt>
      <trkpt lat="43.1598854251" lon="-4.2182643525">
        <ele>479.84</ele>
        <time>2018-05-19T13:12:03Z</time>
      </trkpt>
      <trkpt lat="43.1599227246" lon="-4.2184091918">
        <ele>478.87</ele>
        <time>2018-05-19T13:12:04Z</time>
      </trkpt>
      <trkpt lat="43.1599628739" lon="-4.2185552046">
        <ele>477.43</ele>
        <time>2018-05-19T13:12:05Z</time>
      </trkpt>
      <trkpt lat="43.1599999219" lon="-4.2186925001">
        <ele>476.47</ele>
        <time>2018-05-19T13:12:06Z</time>
      </trkpt>
      <trkpt lat="43.1600661390" lon="-4.2189397663">
        <ele>475.99</ele>
        <time>2018-05-19T13:12:08Z</time>
      </trkpt>
      <trkpt lat="43.1600914523" lon="-4.2190700211">
        <ele>475.99</ele>
        <time>2018-05-19T13:12:09Z</time>
      </trkpt>
      <trkpt lat="43.1601089705" lon="-4.2192001082">
        <ele>475.03</ele>
        <time>2018-05-19T13:12:10Z</time>
      </trkpt>
      <trkpt lat="43.1601223815" lon="-4.2193260044">
        <ele>474.55</ele>
        <time>2018-05-19T13:12:11Z</time>
      </trkpt>
      <trkpt lat="43.1601304282" lon="-4.2194512300">
        <ele>473.59</ele>
        <time>2018-05-19T13:12:12Z</time>
      </trkpt>
      <trkpt lat="43.1601361278" lon="-4.2195774615">
        <ele>473.11</ele>
        <time>2018-05-19T13:12:13Z</time>
      </trkpt>
      <trkpt lat="43.1601411570" lon="-4.2197067942">
        <ele>473.11</ele>
        <time>2018-05-19T13:12:14Z</time>
      </trkpt>
      <trkpt lat="43.1601431686" lon="-4.2198525555">
        <ele>472.63</ele>
        <time>2018-05-19T13:12:15Z</time>
      </trkpt>
      <trkpt lat="43.1601371337" lon="-4.2199972272">
        <ele>472.14</ele>
        <time>2018-05-19T13:12:16Z</time>
      </trkpt>
      <trkpt lat="43.1601210404" lon="-4.2201266438">
        <ele>471.18</ele>
        <time>2018-05-19T13:12:17Z</time>
      </trkpt>
      <trkpt lat="43.1600705814" lon="-4.2203436513">
        <ele>471.18</ele>
        <time>2018-05-19T13:12:19Z</time>
      </trkpt>
      <trkpt lat="43.1599903665" lon="-4.2205617484">
        <ele>471.18</ele>
        <time>2018-05-19T13:12:21Z</time>
      </trkpt>
      <trkpt lat="43.1599099841" lon="-4.2207567114">
        <ele>471.18</ele>
        <time>2018-05-19T13:12:23Z</time>
      </trkpt>
      <trkpt lat="43.1598475389" lon="-4.2209417839">
        <ele>471.18</ele>
        <time>2018-05-19T13:12:25Z</time>
      </trkpt>
      <trkpt lat="43.1598038692" lon="-4.2211424466">
        <ele>472.14</ele>
        <time>2018-05-19T13:12:27Z</time>
      </trkpt>
      <trkpt lat="43.1597966608" lon="-4.2213024572">
        <ele>472.63</ele>
        <time>2018-05-19T13:12:29Z</time>
      </trkpt>
      <trkpt lat="43.1598114967" lon="-4.2214774713">
        <ele>472.63</ele>
        <time>2018-05-19T13:12:31Z</time>
      </trkpt>
      <trkpt lat="43.1598610338" lon="-4.2216415890">
        <ele>473.11</ele>
        <time>2018-05-19T13:12:33Z</time>
      </trkpt>
      <trkpt lat="43.1599381473" lon="-4.2217960674">
        <ele>473.11</ele>
        <time>2018-05-19T13:12:35Z</time>
      </trkpt>
      <trkpt lat="43.1600356288" lon="-4.2219636217">
        <ele>472.14</ele>
        <time>2018-05-19T13:12:37Z</time>
      </trkpt>
      <trkpt lat="43.1601036899" lon="-4.2221284937">
        <ele>471.18</ele>
        <time>2018-05-19T13:12:39Z</time>
      </trkpt>
      <trkpt lat="43.1601517182" lon="-4.2223434895">
        <ele>470.22</ele>
        <time>2018-05-19T13:12:41Z</time>
      </trkpt>
      <trkpt lat="43.1601605192" lon="-4.2225695495">
        <ele>467.34</ele>
        <time>2018-05-19T13:12:43Z</time>
      </trkpt>
      <trkpt lat="43.1601174362" lon="-4.2227919213">
        <ele>466.38</ele>
        <time>2018-05-19T13:12:45Z</time>
      </trkpt>
      <trkpt lat="43.1600237265" lon="-4.2229971103">
        <ele>466.38</ele>
        <time>2018-05-19T13:12:47Z</time>
      </trkpt>
      <trkpt lat="43.1599641312" lon="-4.2230923288">
        <ele>466.38</ele>
        <time>2018-05-19T13:12:48Z</time>
      </trkpt>
      <trkpt lat="43.1598571781" lon="-4.2232427839">
        <ele>465.90</ele>
        <time>2018-05-19T13:12:50Z</time>
      </trkpt>
      <trkpt lat="43.1597364787" lon="-4.2234018724">
        <ele>465.90</ele>
        <time>2018-05-19T13:12:52Z</time>
      </trkpt>
      <trkpt lat="43.1596097443" lon="-4.2235671636">
        <ele>465.90</ele>
        <time>2018-05-19T13:12:54Z</time>
      </trkpt>
      <trkpt lat="43.1595120952" lon="-4.2237570975">
        <ele>463.97</ele>
        <time>2018-05-19T13:12:56Z</time>
      </trkpt>
      <trkpt lat="43.1594428606" lon="-4.2239706684">
        <ele>463.01</ele>
        <time>2018-05-19T13:12:58Z</time>
      </trkpt>
      <trkpt lat="43.1594376639" lon="-4.2241860833">
        <ele>461.57</ele>
        <time>2018-05-19T13:13:00Z</time>
      </trkpt>
      <trkpt lat="43.1594556011" lon="-4.2243089620">
        <ele>461.09</ele>
        <time>2018-05-19T13:13:01Z</time>
      </trkpt>
      <trkpt lat="43.1594785675" lon="-4.2244455032">
        <ele>459.65</ele>
        <time>2018-05-19T13:13:02Z</time>
      </trkpt>
      <trkpt lat="43.1595002767" lon="-4.2245773505">
        <ele>458.69</ele>
        <time>2018-05-19T13:13:03Z</time>
      </trkpt>
      <trkpt lat="43.1595204771" lon="-4.2247077730">
        <ele>457.24</ele>
        <time>2018-05-19T13:13:04Z</time>
      </trkpt>
      <trkpt lat="43.1595428567" lon="-4.2248326633">
        <ele>456.76</ele>
        <time>2018-05-19T13:13:05Z</time>
      </trkpt>
      <trkpt lat="43.1595695112" lon="-4.2249469087">
        <ele>456.76</ele>
        <time>2018-05-19T13:13:06Z</time>
      </trkpt>
      <trkpt lat="43.1596485525" lon="-4.2251474876">
        <ele>456.76</ele>
        <time>2018-05-19T13:13:08Z</time>
      </trkpt>
      <trkpt lat="43.1597400829" lon="-4.2253022175">
        <ele>457.72</ele>
        <time>2018-05-19T13:13:10Z</time>
      </trkpt>
      <trkpt lat="43.1597862672" lon="-4.2254513316">
        <ele>456.28</ele>
        <time>2018-05-19T13:13:12Z</time>
      </trkpt>
      <trkpt lat="43.1597795617" lon="-4.2256261781">
        <ele>454.84</ele>
        <time>2018-05-19T13:13:14Z</time>
      </trkpt>
      <trkpt lat="43.1597099081" lon="-4.2257922236">
        <ele>454.36</ele>
        <time>2018-05-19T13:13:16Z</time>
      </trkpt>
      <trkpt lat="43.1595895439" lon="-4.2259669863">
        <ele>453.40</ele>
        <time>2018-05-19T13:13:18Z</time>
      </trkpt>
      <trkpt lat="43.1594887096" lon="-4.2261010967">
        <ele>452.44</ele>
        <time>2018-05-19T13:13:20Z</time>
      </trkpt>
      <trkpt lat="43.1593718659" lon="-4.2262702435">
        <ele>451.48</ele>
        <time>2018-05-19T13:13:22Z</time>
      </trkpt>
      <trkpt lat="43.1592630688" lon="-4.2264302541">
        <ele>450.03</ele>
        <time>2018-05-19T13:13:24Z</time>
      </trkpt>
      <trkpt lat="43.1591395196" lon="-4.2266028374">
        <ele>449.07</ele>
        <time>2018-05-19T13:13:26Z</time>
      </trkpt>
      <trkpt lat="43.1590192392" lon="-4.2267650273">
        <ele>448.11</ele>
        <time>2018-05-19T13:13:28Z</time>
      </trkpt>
      <trkpt lat="43.1589153875" lon="-4.2269110400">
        <ele>446.19</ele>
        <time>2018-05-19T13:13:30Z</time>
      </trkpt>
      <trkpt lat="43.1587995496" lon="-4.2270805221">
        <ele>446.19</ele>
        <time>2018-05-19T13:13:32Z</time>
      </trkpt>
      <trkpt lat="43.1587159820" lon="-4.2272207513">
        <ele>447.15</ele>
        <time>2018-05-19T13:13:34Z</time>
      </trkpt>
      <trkpt lat="43.1586410478" lon="-4.2273540236">
        <ele>448.11</ele>
        <time>2018-05-19T13:13:36Z</time>
      </trkpt>
      <trkpt lat="43.1585718133" lon="-4.2274942528">
        <ele>449.55</ele>
        <time>2018-05-19T13:13:38Z</time>
      </trkpt>
      <trkpt lat="43.1585184205" lon="-4.2276261840">
        <ele>450.52</ele>
        <time>2018-05-19T13:13:40Z</time>
      </trkpt>
      <trkpt lat="43.1584928557" lon="-4.2277488112">
        <ele>451.48</ele>
        <time>2018-05-19T13:13:42Z</time>
      </trkpt>
      <trkpt lat="43.1584908441" lon="-4.2278841790">
        <ele>452.44</ele>
        <time>2018-05-19T13:13:44Z</time>
      </trkpt>
      <trkpt lat="43.1585123017" lon="-4.2280225642">
        <ele>452.92</ele>
        <time>2018-05-19T13:13:46Z</time>
      </trkpt>
      <trkpt lat="43.1585513614" lon="-4.2281498853">
        <ele>453.88</ele>
        <time>2018-05-19T13:13:48Z</time>
      </trkpt>
      <trkpt lat="43.1585956179" lon="-4.2282846663">
        <ele>454.84</ele>
        <time>2018-05-19T13:13:50Z</time>
      </trkpt>
      <trkpt lat="43.1586017366" lon="-4.2284619436">
        <ele>455.32</ele>
        <time>2018-05-19T13:13:53Z</time>
      </trkpt>
      <trkpt lat="43.1585796922" lon="-4.2286030948">
        <ele>455.32</ele>
        <time>2018-05-19T13:13:55Z</time>
      </trkpt>
      <trkpt lat="43.1585423928" lon="-4.2287363671">
        <ele>453.88</ele>
        <time>2018-05-19T13:13:57Z</time>
      </trkpt>
      <trkpt lat="43.1584786903" lon="-4.2288698908">
        <ele>453.88</ele>
        <time>2018-05-19T13:13:59Z</time>
      </trkpt>
      <trkpt lat="43.1584009062" lon="-4.2290102877">
        <ele>453.40</ele>
        <time>2018-05-19T13:14:01Z</time>
      </trkpt>
      <trkpt lat="43.1583422329" lon="-4.2291417997">
        <ele>452.92</ele>
        <time>2018-05-19T13:14:03Z</time>
      </trkpt>
      <trkpt lat="43.1582862418" lon="-4.2293094378">
        <ele>451.96</ele>
        <time>2018-05-19T13:14:05Z</time>
      </trkpt>
      <trkpt lat="43.1582422368" lon="-4.2294794228">
        <ele>451.48</ele>
        <time>2018-05-19T13:14:07Z</time>
      </trkpt>
      <trkpt lat="43.1581983157" lon="-4.2296726257">
        <ele>451.00</ele>
        <time>2018-05-19T13:14:09Z</time>
      </trkpt>
      <trkpt lat="43.1581635308" lon="-4.2298344802">
        <ele>450.03</ele>
        <time>2018-05-19T13:14:11Z</time>
      </trkpt>
      <trkpt lat="43.1581300870" lon="-4.2300125118">
        <ele>449.55</ele>
        <time>2018-05-19T13:14:13Z</time>
      </trkpt>
      <trkpt lat="43.1580920331" lon="-4.2301943991">
        <ele>449.07</ele>
        <time>2018-05-19T13:14:15Z</time>
      </trkpt>
      <trkpt lat="43.1580485310" lon="-4.2303785495">
        <ele>448.59</ele>
        <time>2018-05-19T13:14:17Z</time>
      </trkpt>
      <trkpt lat="43.1579948030" lon="-4.2305929586">
        <ele>447.63</ele>
        <time>2018-05-19T13:14:19Z</time>
      </trkpt>
      <trkpt lat="43.1579395663" lon="-4.2307522986">
        <ele>447.15</ele>
        <time>2018-05-19T13:14:21Z</time>
      </trkpt>
      <trkpt lat="43.1578507181" lon="-4.2309128959">
        <ele>447.15</ele>
        <time>2018-05-19T13:14:23Z</time>
      </trkpt>
      <trkpt lat="43.1577471178" lon="-4.2310548015">
        <ele>447.15</ele>
        <time>2018-05-19T13:14:25Z</time>
      </trkpt>
      <trkpt lat="43.1576334592" lon="-4.2311693821">
        <ele>446.67</ele>
        <time>2018-05-19T13:14:27Z</time>
      </trkpt>
      <trkpt lat="43.1575143524" lon="-4.2312988825">
        <ele>446.67</ele>
        <time>2018-05-19T13:14:29Z</time>
      </trkpt>
      <trkpt lat="43.1574399211" lon="-4.2314029858">
        <ele>446.67</ele>
        <time>2018-05-19T13:14:31Z</time>
      </trkpt>
      <trkpt lat="43.1573665794" lon="-4.2315332405">
        <ele>446.67</ele>
        <time>2018-05-19T13:14:33Z</time>
      </trkpt>
      <trkpt lat="43.1573133543" lon="-4.2316820193">
        <ele>446.67</ele>
        <time>2018-05-19T13:14:35Z</time>
      </trkpt>
      <trkpt lat="43.1572581176" lon="-4.2318380903">
        <ele>446.67</ele>
        <time>2018-05-19T13:14:37Z</time>
      </trkpt>
      <trkpt lat="43.1571991928" lon="-4.2320013698">
        <ele>445.71</ele>
        <time>2018-05-19T13:14:39Z</time>
      </trkpt>
      <trkpt lat="43.1571392622" lon="-4.2321535852">
        <ele>445.71</ele>
        <time>2018-05-19T13:14:41Z</time>
      </trkpt>
      <trkpt lat="43.1570598856" lon="-4.2323042080">
        <ele>445.71</ele>
        <time>2018-05-19T13:14:43Z</time>
      </trkpt>
      <trkpt lat="43.1569750607" lon="-4.2324421741">
        <ele>445.71</ele>
        <time>2018-05-19T13:14:45Z</time>
      </trkpt>
      <trkpt lat="43.1568787526" lon="-4.2325808946">
        <ele>444.75</ele>
        <time>2018-05-19T13:14:47Z</time>
      </trkpt>
      <trkpt lat="43.1567645073" lon="-4.2327414081">
        <ele>444.27</ele>
        <time>2018-05-19T13:14:49Z</time>
      </trkpt>
      <trkpt lat="43.1566745695" lon="-4.2328787874">
        <ele>443.31</ele>
        <time>2018-05-19T13:14:51Z</time>
      </trkpt>
      <trkpt lat="43.1565780938" lon="-4.2330429051">
        <ele>441.86</ele>
        <time>2018-05-19T13:14:53Z</time>
      </trkpt>
      <trkpt lat="43.1564902514" lon="-4.2332162429">
        <ele>440.90</ele>
        <time>2018-05-19T13:14:55Z</time>
      </trkpt>
      <trkpt lat="43.1563994754" lon="-4.2333918437">
        <ele>439.94</ele>
        <time>2018-05-19T13:14:57Z</time>
      </trkpt>
      <trkpt lat="43.1563259661" lon="-4.2335725576">
        <ele>439.46</ele>
        <time>2018-05-19T13:14:59Z</time>
      </trkpt>
      <trkpt lat="43.1562962104" lon="-4.2337489966">
        <ele>438.98</ele>
        <time>2018-05-19T13:15:01Z</time>
      </trkpt>
      <trkpt lat="43.1562812906" lon="-4.2339320574">
        <ele>438.02</ele>
        <time>2018-05-19T13:15:03Z</time>
      </trkpt>
      <trkpt lat="43.1562711485" lon="-4.2340929061">
        <ele>437.06</ele>
        <time>2018-05-19T13:15:05Z</time>
      </trkpt>
      <trkpt lat="43.1562559772" lon="-4.2342199758">
        <ele>436.58</ele>
        <time>2018-05-19T13:15:07Z</time>
      </trkpt>
      <trkpt lat="43.1562202703" lon="-4.2343033757">
        <ele>436.10</ele>
        <time>2018-05-19T13:15:12Z</time>
      </trkpt>
      <trkpt lat="43.1561828870" lon="-4.2344255000">
        <ele>435.13</ele>
        <time>2018-05-19T13:15:47Z</time>
      </trkpt>
      <trkpt lat="43.1561371218" lon="-4.2345931381">
        <ele>434.17</ele>
        <time>2018-05-19T13:15:50Z</time>
      </trkpt>
      <trkpt lat="43.1560667139" lon="-4.2346914578">
        <ele>433.21</ele>
        <time>2018-05-19T13:15:52Z</time>
      </trkpt>
      <trkpt lat="43.1559599284" lon="-4.2346529849">
        <ele>432.25</ele>
        <time>2018-05-19T13:15:55Z</time>
      </trkpt>
      <trkpt lat="43.1558489520" lon="-4.2345720995">
        <ele>432.25</ele>
        <time>2018-05-19T13:15:57Z</time>
      </trkpt>
      <trkpt lat="43.1557635404" lon="-4.2345201317">
        <ele>432.73</ele>
        <time>2018-05-19T13:15:59Z</time>
      </trkpt>
      <trkpt lat="43.1556428410" lon="-4.2344558425">
        <ele>432.73</ele>
        <time>2018-05-19T13:16:02Z</time>
      </trkpt>
      <trkpt lat="43.1555336248" lon="-4.2343819980">
        <ele>432.25</ele>
        <time>2018-05-19T13:16:05Z</time>
      </trkpt>
      <trkpt lat="43.1554344669" lon="-4.2342408467">
        <ele>432.25</ele>
        <time>2018-05-19T13:16:08Z</time>
      </trkpt>
      <trkpt lat="43.1553773861" lon="-4.2341169622">
        <ele>432.25</ele>
        <time>2018-05-19T13:16:10Z</time>
      </trkpt>
      <trkpt lat="43.1553270947" lon="-4.2339610588">
        <ele>431.77</ele>
        <time>2018-05-19T13:16:12Z</time>
      </trkpt>
      <trkpt lat="43.1552782282" lon="-4.2338120285">
        <ele>431.77</ele>
        <time>2018-05-19T13:16:14Z</time>
      </trkpt>
      <trkpt lat="43.1552367378" lon="-4.2336914130">
        <ele>431.77</ele>
        <time>2018-05-19T13:16:16Z</time>
      </trkpt>
      <trkpt lat="43.1551927328" lon="-4.2335436400">
        <ele>431.77</ele>
        <time>2018-05-19T13:16:18Z</time>
      </trkpt>
      <trkpt lat="43.1551522482" lon="-4.2334042490">
        <ele>432.73</ele>
        <time>2018-05-19T13:16:20Z</time>
      </trkpt>
      <trkpt lat="43.1551122665" lon="-4.2332703900">
        <ele>433.21</ele>
        <time>2018-05-19T13:16:22Z</time>
      </trkpt>
      <trkpt lat="43.1550721172" lon="-4.2331300769">
        <ele>434.65</ele>
        <time>2018-05-19T13:16:24Z</time>
      </trkpt>
      <trkpt lat="43.1550260168" lon="-4.2329519615">
        <ele>435.13</ele>
        <time>2018-05-19T13:16:27Z</time>
      </trkpt>
      <trkpt lat="43.1549928244" lon="-4.2328278255">
        <ele>435.61</ele>
        <time>2018-05-19T13:16:29Z</time>
      </trkpt>
      <trkpt lat="43.1549564470" lon="-4.2327049468">
        <ele>436.10</ele>
        <time>2018-05-19T13:16:31Z</time>
      </trkpt>
      <trkpt lat="43.1549173873" lon="-4.2325875163">
        <ele>436.10</ele>
        <time>2018-05-19T13:16:33Z</time>
      </trkpt>
      <trkpt lat="43.1548722927" lon="-4.2324608658">
        <ele>436.58</ele>
        <time>2018-05-19T13:16:35Z</time>
      </trkpt>
      <trkpt lat="43.1548027229" lon="-4.2322947364">
        <ele>436.10</ele>
        <time>2018-05-19T13:16:38Z</time>
      </trkpt>
      <trkpt lat="43.1547391880" lon="-4.2321970034">
        <ele>436.10</ele>
        <time>2018-05-19T13:16:40Z</time>
      </trkpt>
      <trkpt lat="43.1546606496" lon="-4.2321147770">
        <ele>436.10</ele>
        <time>2018-05-19T13:16:42Z</time>
      </trkpt>
      <trkpt lat="43.1545670237" lon="-4.2320430279">
        <ele>436.10</ele>
        <time>2018-05-19T13:16:44Z</time>
      </trkpt>
      <trkpt lat="43.1544684526" lon="-4.2319969274">
        <ele>436.10</ele>
        <time>2018-05-19T13:16:46Z</time>
      </trkpt>
      <trkpt lat="43.1543609966" lon="-4.2319732066">
        <ele>436.10</ele>
        <time>2018-05-19T13:16:48Z</time>
      </trkpt>
      <trkpt lat="43.1542467512" lon="-4.2319798283">
        <ele>436.10</ele>
        <time>2018-05-19T13:16:50Z</time>
      </trkpt>
      <trkpt lat="43.1541346852" lon="-4.2319940776">
        <ele>436.10</ele>
        <time>2018-05-19T13:16:52Z</time>
      </trkpt>
      <trkpt lat="43.1540144049" lon="-4.2320095003">
        <ele>436.10</ele>
        <time>2018-05-19T13:16:54Z</time>
      </trkpt>
      <trkpt lat="43.1538866647" lon="-4.2320228275">
        <ele>436.10</ele>
        <time>2018-05-19T13:16:56Z</time>
      </trkpt>
      <trkpt lat="43.1537768617" lon="-4.2320295330">
        <ele>436.10</ele>
        <time>2018-05-19T13:16:58Z</time>
      </trkpt>
      <trkpt lat="43.1536610238" lon="-4.2320433632">
        <ele>436.58</ele>
        <time>2018-05-19T13:17:00Z</time>
      </trkpt>
      <trkpt lat="43.1535493769" lon="-4.2320401780">
        <ele>437.06</ele>
        <time>2018-05-19T13:17:02Z</time>
      </trkpt>
      <trkpt lat="43.1534399092" lon="-4.2319965083">
        <ele>438.50</ele>
        <time>2018-05-19T13:17:04Z</time>
      </trkpt>
      <trkpt lat="43.1533442717" lon="-4.2319464684">
        <ele>438.98</ele>
        <time>2018-05-19T13:17:06Z</time>
      </trkpt>
      <trkpt lat="43.1532544177" lon="-4.2318889685">
        <ele>438.98</ele>
        <time>2018-05-19T13:17:08Z</time>
      </trkpt>
      <trkpt lat="43.1531668268" lon="-4.2318257689">
        <ele>439.46</ele>
        <time>2018-05-19T13:17:10Z</time>
      </trkpt>
      <trkpt lat="43.1530902162" lon="-4.2317490745">
        <ele>439.94</ele>
        <time>2018-05-19T13:17:12Z</time>
      </trkpt>
      <trkpt lat="43.1530236639" lon="-4.2316582985">
        <ele>439.94</ele>
        <time>2018-05-19T13:17:14Z</time>
      </trkpt>
      <trkpt lat="43.1529403478" lon="-4.2315381858">
        <ele>440.90</ele>
        <time>2018-05-19T13:17:17Z</time>
      </trkpt>
      <trkpt lat="43.1528701913" lon="-4.2313956935">
        <ele>441.38</ele>
        <time>2018-05-19T13:17:20Z</time>
      </trkpt>
      <trkpt lat="43.1527981907" lon="-4.2312438134">
        <ele>441.86</ele>
        <time>2018-05-19T13:17:23Z</time>
      </trkpt>
      <trkpt lat="43.1527511682" lon="-4.2311315797">
        <ele>441.86</ele>
        <time>2018-05-19T13:17:25Z</time>
      </trkpt>
      <trkpt lat="43.1527002901" lon="-4.2309719883">
        <ele>442.34</ele>
        <time>2018-05-19T13:17:28Z</time>
      </trkpt>
      <trkpt lat="43.1526593864" lon="-4.2308035120">
        <ele>442.82</ele>
        <time>2018-05-19T13:17:31Z</time>
      </trkpt>
      <trkpt lat="43.1526363362" lon="-4.2306224629">
        <ele>442.82</ele>
        <time>2018-05-19T13:17:34Z</time>
      </trkpt>
      <trkpt lat="43.1526300497" lon="-4.2304953933">
        <ele>443.31</ele>
        <time>2018-05-19T13:17:36Z</time>
      </trkpt>
      <trkpt lat="43.1526353303" lon="-4.2303326167">
        <ele>443.31</ele>
        <time>2018-05-19T13:17:39Z</time>
      </trkpt>
      <trkpt lat="43.1526427902" lon="-4.2301444430">
        <ele>443.31</ele>
        <time>2018-05-19T13:17:42Z</time>
      </trkpt>
      <trkpt lat="43.1526560336" lon="-4.2300124280">
        <ele>443.79</ele>
        <time>2018-05-19T13:17:44Z</time>
      </trkpt>
      <trkpt lat="43.1526746415" lon="-4.2298722826">
        <ele>443.79</ele>
        <time>2018-05-19T13:17:46Z</time>
      </trkpt>
      <trkpt lat="43.1526988652" lon="-4.2296991963">
        <ele>444.75</ele>
        <time>2018-05-19T13:17:49Z</time>
      </trkpt>
      <trkpt lat="43.1527322251" lon="-4.2295241822">
        <ele>445.23</ele>
        <time>2018-05-19T13:17:52Z</time>
      </trkpt>
      <trkpt lat="43.1527755596" lon="-4.2293500900">
        <ele>445.23</ele>
        <time>2018-05-19T13:17:55Z</time>
      </trkpt>
      <trkpt lat="43.1528090034" lon="-4.2292339168">
        <ele>445.23</ele>
        <time>2018-05-19T13:17:57Z</time>
      </trkpt>
      <trkpt lat="43.1528552715" lon="-4.2290754151">
        <ele>445.71</ele>
        <time>2018-05-19T13:18:00Z</time>
      </trkpt>
      <trkpt lat="43.1529115979" lon="-4.2289123032">
        <ele>445.71</ele>
        <time>2018-05-19T13:18:03Z</time>
      </trkpt>
      <trkpt lat="43.1529674213" lon="-4.2287493590">
        <ele>446.19</ele>
        <time>2018-05-19T13:18:06Z</time>
      </trkpt>
      <trkpt lat="43.1530271005" lon="-4.2285786197">
        <ele>446.67</ele>
        <time>2018-05-19T13:18:09Z</time>
      </trkpt>
      <trkpt lat="43.1530570239" lon="-4.2284129094">
        <ele>446.67</ele>
        <time>2018-05-19T13:18:12Z</time>
      </trkpt>
      <trkpt lat="43.1530848518" lon="-4.2282425892">
        <ele>446.67</ele>
        <time>2018-05-19T13:18:15Z</time>
      </trkpt>
      <trkpt lat="43.1530974247" lon="-4.2280568462">
        <ele>446.67</ele>
        <time>2018-05-19T13:18:18Z</time>
      </trkpt>
      <trkpt lat="43.1531090755" lon="-4.2278799042">
        <ele>447.63</ele>
        <time>2018-05-19T13:18:21Z</time>
      </trkpt>
      <trkpt lat="43.1531235762" lon="-4.2277072370">
        <ele>447.63</ele>
        <time>2018-05-19T13:18:24Z</time>
      </trkpt>
      <trkpt lat="43.1531283539" lon="-4.2275400180">
        <ele>447.63</ele>
        <time>2018-05-19T13:18:27Z</time>
      </trkpt>
      <trkpt lat="43.1531265937" lon="-4.2274077516">
        <ele>448.11</ele>
        <time>2018-05-19T13:18:29Z</time>
      </trkpt>
      <trkpt lat="43.1531316228" lon="-4.2272416223">
        <ele>448.11</ele>
        <time>2018-05-19T13:18:32Z</time>
      </trkpt>
      <trkpt lat="43.1531384122" lon="-4.2270542867">
        <ele>448.59</ele>
        <time>2018-05-19T13:18:35Z</time>
      </trkpt>
      <trkpt lat="43.1531536672" lon="-4.2268717289">
        <ele>448.59</ele>
        <time>2018-05-19T13:18:38Z</time>
      </trkpt>
      <trkpt lat="43.1531542540" lon="-4.2267331760">
        <ele>449.07</ele>
        <time>2018-05-19T13:18:40Z</time>
      </trkpt>
      <trkpt lat="43.1531467102" lon="-4.2265579104">
        <ele>449.07</ele>
        <time>2018-05-19T13:18:43Z</time>
      </trkpt>
      <trkpt lat="43.1531339698" lon="-4.2263658810">
        <ele>449.55</ele>
        <time>2018-05-19T13:18:46Z</time>
      </trkpt>
      <trkpt lat="43.1531200558" lon="-4.2262389790">
        <ele>449.55</ele>
        <time>2018-05-19T13:18:48Z</time>
      </trkpt>
      <trkpt lat="43.1531031244" lon="-4.2261067126">
        <ele>449.55</ele>
        <time>2018-05-19T13:18:50Z</time>
      </trkpt>
      <trkpt lat="43.1530725304" lon="-4.2259315308">
        <ele>450.03</ele>
        <time>2018-05-19T13:18:53Z</time>
      </trkpt>
      <trkpt lat="43.1530482229" lon="-4.2258161120">
        <ele>450.03</ele>
        <time>2018-05-19T13:18:55Z</time>
      </trkpt>
      <trkpt lat="43.1530280225" lon="-4.2256934848">
        <ele>450.03</ele>
        <time>2018-05-19T13:18:57Z</time>
      </trkpt>
      <trkpt lat="43.1530079059" lon="-4.2255688459">
        <ele>450.52</ele>
        <time>2018-05-19T13:18:59Z</time>
      </trkpt>
      <trkpt lat="43.1529808324" lon="-4.2254320532">
        <ele>450.52</ele>
        <time>2018-05-19T13:19:01Z</time>
      </trkpt>
      <trkpt lat="43.1529486459" lon="-4.2252992839">
        <ele>450.52</ele>
        <time>2018-05-19T13:19:03Z</time>
      </trkpt>
      <trkpt lat="43.1529115140" lon="-4.2251203302">
        <ele>450.52</ele>
        <time>2018-05-19T13:19:06Z</time>
      </trkpt>
      <trkpt lat="43.1528720353" lon="-4.2249832861">
        <ele>449.07</ele>
        <time>2018-05-19T13:19:08Z</time>
      </trkpt>
      <trkpt lat="43.1528252643" lon="-4.2248449009">
        <ele>449.07</ele>
        <time>2018-05-19T13:19:10Z</time>
      </trkpt>
      <trkpt lat="43.1527763139" lon="-4.2246775981">
        <ele>448.59</ele>
        <time>2018-05-19T13:19:12Z</time>
      </trkpt>
      <trkpt lat="43.1527284533" lon="-4.2245309148">
        <ele>448.59</ele>
        <time>2018-05-19T13:19:14Z</time>
      </trkpt>
      <trkpt lat="43.1526722945" lon="-4.2243673839">
        <ele>448.11</ele>
        <time>2018-05-19T13:19:16Z</time>
      </trkpt>
      <trkpt lat="43.1526150461" lon="-4.2241957225">
        <ele>447.63</ele>
        <time>2018-05-19T13:19:18Z</time>
      </trkpt>
      <trkpt lat="43.1525564566" lon="-4.2240158468">
        <ele>447.15</ele>
        <time>2018-05-19T13:19:20Z</time>
      </trkpt>
      <trkpt lat="43.1524951849" lon="-4.2238203809">
        <ele>447.15</ele>
        <time>2018-05-19T13:19:22Z</time>
      </trkpt>
      <trkpt lat="43.1524420436" lon="-4.2236605380">
        <ele>447.15</ele>
        <time>2018-05-19T13:19:24Z</time>
      </trkpt>
      <trkpt lat="43.1523800176" lon="-4.2234908044">
        <ele>446.67</ele>
        <time>2018-05-19T13:19:26Z</time>
      </trkpt>
      <trkpt lat="43.1523194164" lon="-4.2233273573">
        <ele>446.67</ele>
        <time>2018-05-19T13:19:28Z</time>
      </trkpt>
      <trkpt lat="43.1522607431" lon="-4.2231641617">
        <ele>446.67</ele>
        <time>2018-05-19T13:19:30Z</time>
      </trkpt>
      <trkpt lat="43.1522014830" lon="-4.2230101023">
        <ele>446.67</ele>
        <time>2018-05-19T13:19:32Z</time>
      </trkpt>
      <trkpt lat="43.1521532871" lon="-4.2228727229">
        <ele>446.67</ele>
        <time>2018-05-19T13:19:34Z</time>
      </trkpt>
      <trkpt lat="43.1521071028" lon="-4.2227443960">
        <ele>446.67</ele>
        <time>2018-05-19T13:19:36Z</time>
      </trkpt>
      <trkpt lat="43.1520652771" lon="-4.2226165719">
        <ele>446.67</ele>
        <time>2018-05-19T13:19:38Z</time>
      </trkpt>
      <trkpt lat="43.1520200986" lon="-4.2224823777">
        <ele>446.67</ele>
        <time>2018-05-19T13:19:40Z</time>
      </trkpt>
      <trkpt lat="43.1519657001" lon="-4.2223397177">
        <ele>448.11</ele>
        <time>2018-05-19T13:19:42Z</time>
      </trkpt>
      <trkpt lat="43.1519181747" lon="-4.2222258914">
        <ele>447.63</ele>
        <time>2018-05-19T13:19:44Z</time>
      </trkpt>
      <trkpt lat="43.1518714037" lon="-4.2220906075">
        <ele>448.59</ele>
        <time>2018-05-19T13:19:46Z</time>
      </trkpt>
      <trkpt lat="43.1518201064" lon="-4.2219610233">
        <ele>448.59</ele>
        <time>2018-05-19T13:19:48Z</time>
      </trkpt>
      <trkpt lat="43.1517682225" lon="-4.2218230572">
        <ele>449.07</ele>
        <time>2018-05-19T13:19:50Z</time>
      </trkpt>
      <trkpt lat="43.1517190207" lon="-4.2216955684">
        <ele>449.55</ele>
        <time>2018-05-19T13:19:52Z</time>
      </trkpt>
      <trkpt lat="43.1516675558" lon="-4.2215711810">
        <ele>450.03</ele>
        <time>2018-05-19T13:19:54Z</time>
      </trkpt>
      <trkpt lat="43.1516197789" lon="-4.2214481346">
        <ele>450.03</ele>
        <time>2018-05-19T13:19:56Z</time>
      </trkpt>
      <trkpt lat="43.1515653804" lon="-4.2213186342">
        <ele>450.52</ele>
        <time>2018-05-19T13:19:58Z</time>
      </trkpt>
      <trkpt lat="43.1515132450" lon="-4.2211882956">
        <ele>450.52</ele>
        <time>2018-05-19T13:20:00Z</time>
      </trkpt>
      <trkpt lat="43.1514690723" lon="-4.2210631538">
        <ele>451.00</ele>
        <time>2018-05-19T13:20:02Z</time>
      </trkpt>
      <trkpt lat="43.1514243968" lon="-4.2209401913">
        <ele>451.48</ele>
        <time>2018-05-19T13:20:04Z</time>
      </trkpt>
      <trkpt lat="43.1513803080" lon="-4.2208205815">
        <ele>451.48</ele>
        <time>2018-05-19T13:20:06Z</time>
      </trkpt>
      <trkpt lat="43.1513490435" lon="-4.2207003850">
        <ele>451.96</ele>
        <time>2018-05-19T13:20:08Z</time>
      </trkpt>
      <trkpt lat="43.1513207126" lon="-4.2205739859">
        <ele>452.44</ele>
        <time>2018-05-19T13:20:10Z</time>
      </trkpt>
      <trkpt lat="43.1513032783" lon="-4.2204285599">
        <ele>452.92</ele>
        <time>2018-05-19T13:20:12Z</time>
      </trkpt>
      <trkpt lat="43.1512994226" lon="-4.2202371173">
        <ele>452.44</ele>
        <time>2018-05-19T13:20:15Z</time>
      </trkpt>
      <trkpt lat="43.1513086427" lon="-4.2201086227">
        <ele>452.92</ele>
        <time>2018-05-19T13:20:17Z</time>
      </trkpt>
      <trkpt lat="43.1513203774" lon="-4.2199784517">
        <ele>452.92</ele>
        <time>2018-05-19T13:20:19Z</time>
      </trkpt>
      <trkpt lat="43.1513285078" lon="-4.2198436707">
        <ele>453.88</ele>
        <time>2018-05-19T13:20:21Z</time>
      </trkpt>
      <trkpt lat="43.1513310224" lon="-4.2196831573">
        <ele>454.84</ele>
        <time>2018-05-19T13:20:24Z</time>
      </trkpt>
      <trkpt lat="43.1513314415" lon="-4.2195278406">
        <ele>455.32</ele>
        <time>2018-05-19T13:20:27Z</time>
      </trkpt>
      <trkpt lat="43.1513162702" lon="-4.2193758767">
        <ele>455.80</ele>
        <time>2018-05-19T13:20:30Z</time>
      </trkpt>
      <trkpt lat="43.1512928847" lon="-4.2192473821">
        <ele>456.76</ele>
        <time>2018-05-19T13:20:33Z</time>
      </trkpt>
      <trkpt lat="43.1512576807" lon="-4.2191152833">
        <ele>457.72</ele>
        <time>2018-05-19T13:20:36Z</time>
      </trkpt>
      <trkpt lat="43.1512039527" lon="-4.2189828493">
        <ele>458.21</ele>
        <time>2018-05-19T13:20:39Z</time>
      </trkpt>
      <trkpt lat="43.1511343829" lon="-4.2188717052">
        <ele>458.69</ele>
        <time>2018-05-19T13:20:42Z</time>
      </trkpt>
      <trkpt lat="43.1510468759" lon="-4.2187568732">
        <ele>458.69</ele>
        <time>2018-05-19T13:20:45Z</time>
      </trkpt>
      <trkpt lat="43.1509535015" lon="-4.2186558712">
        <ele>459.17</ele>
        <time>2018-05-19T13:20:48Z</time>
      </trkpt>
      <trkpt lat="43.1508442014" lon="-4.2185368482">
        <ele>459.17</ele>
        <time>2018-05-19T13:20:51Z</time>
      </trkpt>
      <trkpt lat="43.1507380866" lon="-4.2184259556">
        <ele>459.17</ele>
        <time>2018-05-19T13:20:54Z</time>
      </trkpt>
      <trkpt lat="43.1506640743" lon="-4.2183381133">
        <ele>459.17</ele>
        <time>2018-05-19T13:20:56Z</time>
      </trkpt>
      <trkpt lat="43.1505785789" lon="-4.2182448227">
        <ele>459.17</ele>
        <time>2018-05-19T13:20:58Z</time>
      </trkpt>
      <trkpt lat="43.1504808459" lon="-4.2181605846">
        <ele>459.17</ele>
        <time>2018-05-19T13:21:00Z</time>
      </trkpt>
      <trkpt lat="43.1503948476" lon="-4.2180772685">
        <ele>459.17</ele>
        <time>2018-05-19T13:21:02Z</time>
      </trkpt>
      <trkpt lat="43.1503087655" lon="-4.2179821339">
        <ele>457.72</ele>
        <time>2018-05-19T13:21:04Z</time>
      </trkpt>
      <trkpt lat="43.1502181571" lon="-4.2178825568">
        <ele>457.72</ele>
        <time>2018-05-19T13:21:06Z</time>
      </trkpt>
      <trkpt lat="43.1501247827" lon="-4.2177865002">
        <ele>457.72</ele>
        <time>2018-05-19T13:21:08Z</time>
      </trkpt>
      <trkpt lat="43.1500291452" lon="-4.2176771164">
        <ele>457.24</ele>
        <time>2018-05-19T13:21:10Z</time>
      </trkpt>
      <trkpt lat="43.1499511097" lon="-4.2175842449">
        <ele>457.24</ele>
        <time>2018-05-19T13:21:12Z</time>
      </trkpt>
      <trkpt lat="43.1498600822" lon="-4.2174711730">
        <ele>457.24</ele>
        <time>2018-05-19T13:21:14Z</time>
      </trkpt>
      <trkpt lat="43.1497764308" lon="-4.2173572630">
        <ele>457.24</ele>
        <time>2018-05-19T13:21:16Z</time>
      </trkpt>
      <trkpt lat="43.1496927794" lon="-4.2172337137">
        <ele>456.76</ele>
        <time>2018-05-19T13:21:18Z</time>
      </trkpt>
      <trkpt lat="43.1496137381" lon="-4.2171003576">
        <ele>456.76</ele>
        <time>2018-05-19T13:21:20Z</time>
      </trkpt>
      <trkpt lat="43.1495484430" lon="-4.2169772275">
        <ele>456.76</ele>
        <time>2018-05-19T13:21:22Z</time>
      </trkpt>
      <trkpt lat="43.1494818907" lon="-4.2168508284">
        <ele>456.76</ele>
        <time>2018-05-19T13:21:24Z</time>
      </trkpt>
      <trkpt lat="43.1494142488" lon="-4.2167201545">
        <ele>456.76</ele>
        <time>2018-05-19T13:21:26Z</time>
      </trkpt>
      <trkpt lat="43.1493543182" lon="-4.2165865470">
        <ele>456.76</ele>
        <time>2018-05-19T13:21:28Z</time>
      </trkpt>
      <trkpt lat="43.1493072957" lon="-4.2164753191">
        <ele>456.76</ele>
        <time>2018-05-19T13:21:30Z</time>
      </trkpt>
      <trkpt lat="43.1492503826" lon="-4.2163640913">
        <ele>458.21</ele>
        <time>2018-05-19T13:21:32Z</time>
      </trkpt>
      <trkpt lat="43.1491975766" lon="-4.2162520252">
        <ele>458.21</ele>
        <time>2018-05-19T13:21:34Z</time>
      </trkpt>
      <trkpt lat="43.1491565891" lon="-4.2161428090">
        <ele>458.69</ele>
        <time>2018-05-19T13:21:36Z</time>
      </trkpt>
      <trkpt lat="43.1491126679" lon="-4.2160233669">
        <ele>458.69</ele>
        <time>2018-05-19T13:21:38Z</time>
      </trkpt>
      <trkpt lat="43.1490408350" lon="-4.2158660386">
        <ele>459.17</ele>
        <time>2018-05-19T13:21:41Z</time>
      </trkpt>
      <trkpt lat="43.1489855982" lon="-4.2157591693">
        <ele>459.17</ele>
        <time>2018-05-19T13:21:43Z</time>
      </trkpt>
      <trkpt lat="43.1489314511" lon="-4.2156559881">
        <ele>459.17</ele>
        <time>2018-05-19T13:21:45Z</time>
      </trkpt>
      <trkpt lat="43.1488820817" lon="-4.2155385576">
        <ele>459.65</ele>
        <time>2018-05-19T13:21:47Z</time>
      </trkpt>
      <trkpt lat="43.1488123443" lon="-4.2153969873">
        <ele>460.13</ele>
        <time>2018-05-19T13:21:50Z</time>
      </trkpt>
      <trkpt lat="43.1487425230" lon="-4.2152435146">
        <ele>460.13</ele>
        <time>2018-05-19T13:21:53Z</time>
      </trkpt>
      <trkpt lat="43.1486737914" lon="-4.2150912154">
        <ele>460.13</ele>
        <time>2018-05-19T13:21:56Z</time>
      </trkpt>
      <trkpt lat="43.1486236677" lon="-4.2149828374">
        <ele>460.13</ele>
        <time>2018-05-19T13:21:58Z</time>
      </trkpt>
      <trkpt lat="43.1485577859" lon="-4.2148446199">
        <ele>460.61</ele>
        <time>2018-05-19T13:22:01Z</time>
      </trkpt>
      <trkpt lat="43.1484882161" lon="-4.2146921530">
        <ele>460.61</ele>
        <time>2018-05-19T13:22:04Z</time>
      </trkpt>
      <trkpt lat="43.1484174728" lon="-4.2145409435">
        <ele>461.09</ele>
        <time>2018-05-19T13:22:07Z</time>
      </trkpt>
      <trkpt lat="43.1483650021" lon="-4.2144300509">
        <ele>461.09</ele>
        <time>2018-05-19T13:22:09Z</time>
      </trkpt>
      <trkpt lat="43.1483031437" lon="-4.2142838705">
        <ele>461.57</ele>
        <time>2018-05-19T13:22:12Z</time>
      </trkpt>
      <trkpt lat="43.1482352503" lon="-4.2141291406">
        <ele>462.05</ele>
        <time>2018-05-19T13:22:15Z</time>
      </trkpt>
      <trkpt lat="43.1481676083" lon="-4.2139780987">
        <ele>462.53</ele>
        <time>2018-05-19T13:22:18Z</time>
      </trkpt>
      <trkpt lat="43.1481210049" lon="-4.2138636857">
        <ele>462.53</ele>
        <time>2018-05-19T13:22:20Z</time>
      </trkpt>
      <trkpt lat="43.1480647624" lon="-4.2137138173">
        <ele>463.01</ele>
        <time>2018-05-19T13:22:23Z</time>
      </trkpt>
      <trkpt lat="43.1480090227" lon="-4.2135391384">
        <ele>463.01</ele>
        <time>2018-05-19T13:22:26Z</time>
      </trkpt>
      <trkpt lat="43.1479777582" lon="-4.2134129070">
        <ele>463.01</ele>
        <time>2018-05-19T13:22:28Z</time>
      </trkpt>
      <trkpt lat="43.1479511876" lon="-4.2132755276">
        <ele>463.01</ele>
        <time>2018-05-19T13:22:30Z</time>
      </trkpt>
      <trkpt lat="43.1479236949" lon="-4.2131311912">
        <ele>463.01</ele>
        <time>2018-05-19T13:22:32Z</time>
      </trkpt>
      <trkpt lat="43.1479029078" lon="-4.2130031995">
        <ele>463.01</ele>
        <time>2018-05-19T13:22:34Z</time>
      </trkpt>
      <trkpt lat="43.1478808634" lon="-4.2128624674">
        <ele>463.49</ele>
        <time>2018-05-19T13:22:36Z</time>
      </trkpt>
      <trkpt lat="43.1478541251" lon="-4.2127160355">
        <ele>463.49</ele>
        <time>2018-05-19T13:22:38Z</time>
      </trkpt>
      <trkpt lat="43.1478306558" lon="-4.2125772312">
        <ele>463.49</ele>
        <time>2018-05-19T13:22:40Z</time>
      </trkpt>
      <trkpt lat="43.1478092819" lon="-4.2124247644">
        <ele>464.45</ele>
        <time>2018-05-19T13:22:42Z</time>
      </trkpt>
      <trkpt lat="43.1477853097" lon="-4.2122337408">
        <ele>464.93</ele>
        <time>2018-05-19T13:22:45Z</time>
      </trkpt>
      <trkpt lat="43.1477698032" lon="-4.2121044919">
        <ele>464.93</ele>
        <time>2018-05-19T13:22:47Z</time>
      </trkpt>
      <trkpt lat="43.1477573141" lon="-4.2119713034">
        <ele>465.90</ele>
        <time>2018-05-19T13:22:49Z</time>
      </trkpt>
      <trkpt lat="43.1477481779" lon="-4.2118406296">
        <ele>466.38</ele>
        <time>2018-05-19T13:22:51Z</time>
      </trkpt>
      <trkpt lat="43.1477381196" lon="-4.2117036693">
        <ele>466.86</ele>
        <time>2018-05-19T13:22:53Z</time>
      </trkpt>
      <trkpt lat="43.1477353536" lon="-4.2115296610">
        <ele>467.34</ele>
        <time>2018-05-19T13:22:56Z</time>
      </trkpt>
      <trkpt lat="43.1477346830" lon="-4.2114040162">
        <ele>467.82</ele>
        <time>2018-05-19T13:22:58Z</time>
      </trkpt>
      <trkpt lat="43.1477373652" lon="-4.2112195306">
        <ele>468.30</ele>
        <time>2018-05-19T13:23:01Z</time>
      </trkpt>
      <trkpt lat="43.1477447413" lon="-4.2110865097">
        <ele>468.30</ele>
        <time>2018-05-19T13:23:03Z</time>
      </trkpt>
      <trkpt lat="43.1477540452" lon="-4.2108954862">
        <ele>469.26</ele>
        <time>2018-05-19T13:23:06Z</time>
      </trkpt>
      <trkpt lat="43.1477637682" lon="-4.2107291054">
        <ele>469.26</ele>
        <time>2018-05-19T13:23:09Z</time>
      </trkpt>
      <trkpt lat="43.1477721501" lon="-4.2105525825">
        <ele>469.74</ele>
        <time>2018-05-19T13:23:12Z</time>
      </trkpt>
      <trkpt lat="43.1477774307" lon="-4.2103784066">
        <ele>470.22</ele>
        <time>2018-05-19T13:23:15Z</time>
      </trkpt>
      <trkpt lat="43.1477829628" lon="-4.2102007940">
        <ele>470.70</ele>
        <time>2018-05-19T13:23:18Z</time>
      </trkpt>
      <trkpt lat="43.1477896683" lon="-4.2100247741">
        <ele>470.70</ele>
        <time>2018-05-19T13:23:21Z</time>
      </trkpt>
      <trkpt lat="43.1477972120" lon="-4.2098472454">
        <ele>470.70</ele>
        <time>2018-05-19T13:23:24Z</time>
      </trkpt>
      <trkpt lat="43.1478019059" lon="-4.2096750811">
        <ele>471.18</ele>
        <time>2018-05-19T13:23:27Z</time>
      </trkpt>
      <trkpt lat="43.1478119642" lon="-4.2094966304">
        <ele>472.14</ele>
        <time>2018-05-19T13:23:30Z</time>
      </trkpt>
      <trkpt lat="43.1478156522" lon="-4.2093688902">
        <ele>472.63</ele>
        <time>2018-05-19T13:23:32Z</time>
      </trkpt>
      <trkpt lat="43.1478247046" lon="-4.2092049401">
        <ele>473.59</ele>
        <time>2018-05-19T13:23:35Z</time>
      </trkpt>
      <trkpt lat="43.1478294823" lon="-4.2090288363">
        <ele>473.11</ele>
        <time>2018-05-19T13:23:38Z</time>
      </trkpt>
      <trkpt lat="43.1478401273" lon="-4.2088435125">
        <ele>474.07</ele>
        <time>2018-05-19T13:23:41Z</time>
      </trkpt>
      <trkpt lat="43.1478501018" lon="-4.2086831667">
        <ele>474.55</ele>
        <time>2018-05-19T13:23:44Z</time>
      </trkpt>
      <trkpt lat="43.1478578970" lon="-4.2085136846">
        <ele>475.03</ele>
        <time>2018-05-19T13:23:47Z</time>
      </trkpt>
      <trkpt lat="43.1478697993" lon="-4.2083333898">
        <ele>475.03</ele>
        <time>2018-05-19T13:23:50Z</time>
      </trkpt>
      <trkpt lat="43.1478756666" lon="-4.2081786599">
        <ele>475.51</ele>
        <time>2018-05-19T13:23:53Z</time>
      </trkpt>
      <trkpt lat="43.1478795223" lon="-4.2080217507">
        <ele>475.99</ele>
        <time>2018-05-19T13:23:56Z</time>
      </trkpt>
      <trkpt lat="43.1478843838" lon="-4.2078448925">
        <ele>476.47</ele>
        <time>2018-05-19T13:23:59Z</time>
      </trkpt>
      <trkpt lat="43.1478936877" lon="-4.2076904979">
        <ele>476.47</ele>
        <time>2018-05-19T13:24:02Z</time>
      </trkpt>
      <trkpt lat="43.1479014829" lon="-4.2075325828">
        <ele>476.47</ele>
        <time>2018-05-19T13:24:05Z</time>
      </trkpt>
      <trkpt lat="43.1479090266" lon="-4.2073595803">
        <ele>476.95</ele>
        <time>2018-05-19T13:24:08Z</time>
      </trkpt>
      <trkpt lat="43.1479184143" lon="-4.2072066944">
        <ele>477.43</ele>
        <time>2018-05-19T13:24:11Z</time>
      </trkpt>
      <trkpt lat="43.1479277182" lon="-4.2070430797">
        <ele>477.91</ele>
        <time>2018-05-19T13:24:14Z</time>
      </trkpt>
      <trkpt lat="43.1479391176" lon="-4.2068725079">
        <ele>478.39</ele>
        <time>2018-05-19T13:24:17Z</time>
      </trkpt>
      <trkpt lat="43.1479466613" lon="-4.2067268305">
        <ele>478.87</ele>
        <time>2018-05-19T13:24:20Z</time>
      </trkpt>
      <trkpt lat="43.1479539536" lon="-4.2065659817">
        <ele>479.35</ele>
        <time>2018-05-19T13:24:23Z</time>
      </trkpt>
      <trkpt lat="43.1479595695" lon="-4.2063941527">
        <ele>479.35</ele>
        <time>2018-05-19T13:24:26Z</time>
      </trkpt>
      <trkpt lat="43.1479648501" lon="-4.2062451225">
        <ele>479.84</ele>
        <time>2018-05-19T13:24:29Z</time>
      </trkpt>
      <trkpt lat="43.1479718909" lon="-4.2060825136">
        <ele>480.32</ele>
        <time>2018-05-19T13:24:32Z</time>
      </trkpt>
      <trkpt lat="43.1479781773" lon="-4.2059122771">
        <ele>480.80</ele>
        <time>2018-05-19T13:24:35Z</time>
      </trkpt>
      <trkpt lat="43.1479834579" lon="-4.2057645880">
        <ele>480.80</ele>
        <time>2018-05-19T13:24:38Z</time>
      </trkpt>
      <trkpt lat="43.1479900796" lon="-4.2056086846">
        <ele>481.28</ele>
        <time>2018-05-19T13:24:41Z</time>
      </trkpt>
      <trkpt lat="43.1479964498" lon="-4.2054372746">
        <ele>482.24</ele>
        <time>2018-05-19T13:24:44Z</time>
      </trkpt>
      <trkpt lat="43.1479996350" lon="-4.2052897532">
        <ele>482.24</ele>
        <time>2018-05-19T13:24:47Z</time>
      </trkpt>
      <trkpt lat="43.1480091903" lon="-4.2051242106">
        <ele>482.72</ele>
        <time>2018-05-19T13:24:50Z</time>
      </trkpt>
      <trkpt lat="43.1480152253" lon="-4.2049599253">
        <ele>483.20</ele>
        <time>2018-05-19T13:24:53Z</time>
      </trkpt>
      <trkpt lat="43.1480247807" lon="-4.2048023455">
        <ele>483.68</ele>
        <time>2018-05-19T13:24:56Z</time>
      </trkpt>
      <trkpt lat="43.1480315700" lon="-4.2046363838">
        <ele>483.68</ele>
        <time>2018-05-19T13:24:59Z</time>
      </trkpt>
      <trkpt lat="43.1480408739" lon="-4.2044706736">
        <ele>483.68</ele>
        <time>2018-05-19T13:25:02Z</time>
      </trkpt>
      <trkpt lat="43.1480490044" lon="-4.2043493874">
        <ele>483.68</ele>
        <time>2018-05-19T13:25:04Z</time>
      </trkpt>
      <trkpt lat="43.1480545364" lon="-4.2042032070">
        <ele>484.16</ele>
        <time>2018-05-19T13:25:07Z</time>
      </trkpt>
      <trkpt lat="43.1480647624" lon="-4.2040346470">
        <ele>484.64</ele>
        <time>2018-05-19T13:25:10Z</time>
      </trkpt>
      <trkpt lat="43.1480728090" lon="-4.2038661707">
        <ele>484.64</ele>
        <time>2018-05-19T13:25:13Z</time>
      </trkpt>
      <trkpt lat="43.1480845436" lon="-4.2036997899">
        <ele>485.12</ele>
        <time>2018-05-19T13:25:16Z</time>
      </trkpt>
      <trkpt lat="43.1480910815" lon="-4.2035308108">
        <ele>485.12</ele>
        <time>2018-05-19T13:25:19Z</time>
      </trkpt>
      <trkpt lat="43.1480987929" lon="-4.2033513542">
        <ele>485.60</ele>
        <time>2018-05-19T13:25:22Z</time>
      </trkpt>
      <trkpt lat="43.1481049955" lon="-4.2031853087">
        <ele>485.60</ele>
        <time>2018-05-19T13:25:25Z</time>
      </trkpt>
      <trkpt lat="43.1481155567" lon="-4.2030105460">
        <ele>485.60</ele>
        <time>2018-05-19T13:25:28Z</time>
      </trkpt>
      <trkpt lat="43.1481199153" lon="-4.2028399743">
        <ele>485.60</ele>
        <time>2018-05-19T13:25:31Z</time>
      </trkpt>
      <trkpt lat="43.1481296383" lon="-4.2026802991">
        <ele>485.60</ele>
        <time>2018-05-19T13:25:34Z</time>
      </trkpt>
      <trkpt lat="43.1481365114" lon="-4.2025130801">
        <ele>485.60</ele>
        <time>2018-05-19T13:25:37Z</time>
      </trkpt>
      <trkpt lat="43.1481459830" lon="-4.2023593560">
        <ele>486.56</ele>
        <time>2018-05-19T13:25:40Z</time>
      </trkpt>
      <trkpt lat="43.1481567118" lon="-4.2022050451">
        <ele>486.56</ele>
        <time>2018-05-19T13:25:43Z</time>
      </trkpt>
      <trkpt lat="43.1481712963" lon="-4.2020452861">
        <ele>487.05</ele>
        <time>2018-05-19T13:25:46Z</time>
      </trkpt>
      <trkpt lat="43.1481709611" lon="-4.2018856108">
        <ele>487.53</ele>
        <time>2018-05-19T13:25:49Z</time>
      </trkpt>
      <trkpt lat="43.1481775828" lon="-4.2017308809">
        <ele>487.53</ele>
        <time>2018-05-19T13:25:52Z</time>
      </trkpt>
      <trkpt lat="43.1481882278" lon="-4.2015705351">
        <ele>487.53</ele>
        <time>2018-05-19T13:25:55Z</time>
      </trkpt>
      <trkpt lat="43.1481912453" lon="-4.2014033999">
        <ele>488.01</ele>
        <time>2018-05-19T13:25:58Z</time>
      </trkpt>
      <trkpt lat="43.1481977832" lon="-4.2012739833">
        <ele>488.01</ele>
        <time>2018-05-19T13:26:00Z</time>
      </trkpt>
      <trkpt lat="43.1482036505" lon="-4.2011138052">
        <ele>488.49</ele>
        <time>2018-05-19T13:26:03Z</time>
      </trkpt>
      <trkpt lat="43.1482099369" lon="-4.2009307444">
        <ele>488.97</ele>
        <time>2018-05-19T13:26:06Z</time>
      </trkpt>
      <trkpt lat="43.1482055783" lon="-4.2007336020">
        <ele>489.45</ele>
        <time>2018-05-19T13:26:09Z</time>
      </trkpt>
      <trkpt lat="43.1481980346" lon="-4.2005580012">
        <ele>489.93</ele>
        <time>2018-05-19T13:26:12Z</time>
      </trkpt>
      <trkpt lat="43.1481777504" lon="-4.2003820650">
        <ele>490.41</ele>
        <time>2018-05-19T13:26:15Z</time>
      </trkpt>
      <trkpt lat="43.1481444743" lon="-4.2001975793">
        <ele>491.37</ele>
        <time>2018-05-19T13:26:18Z</time>
      </trkpt>
      <trkpt lat="43.1481059175" lon="-4.2000286002">
        <ele>491.37</ele>
        <time>2018-05-19T13:26:21Z</time>
      </trkpt>
      <trkpt lat="43.1480771676" lon="-4.1999120917">
        <ele>491.85</ele>
        <time>2018-05-19T13:26:23Z</time>
      </trkpt>
      <trkpt lat="43.1480393652" lon="-4.1997945774">
        <ele>492.33</ele>
        <time>2018-05-19T13:26:25Z</time>
      </trkpt>
      <trkpt lat="43.1480001379" lon="-4.1996840201">
        <ele>492.33</ele>
        <time>2018-05-19T13:26:27Z</time>
      </trkpt>
      <trkpt lat="43.1479542051" lon="-4.1995618958">
        <ele>492.81</ele>
        <time>2018-05-19T13:26:29Z</time>
      </trkpt>
      <trkpt lat="43.1478949450" lon="-4.1994169727">
        <ele>493.29</ele>
        <time>2018-05-19T13:26:32Z</time>
      </trkpt>
      <trkpt lat="43.1478507724" lon="-4.1993090976">
        <ele>493.29</ele>
        <time>2018-05-19T13:26:34Z</time>
      </trkpt>
      <trkpt lat="43.1477765087" lon="-4.1991389450">
        <ele>493.77</ele>
        <time>2018-05-19T13:26:37Z</time>
      </trkpt>
      <trkpt lat="43.1477099564" lon="-4.1989932675">
        <ele>493.77</ele>
        <time>2018-05-19T13:26:40Z</time>
      </trkpt>
      <trkpt lat="43.1476442423" lon="-4.1988392081">
        <ele>494.74</ele>
        <time>2018-05-19T13:26:43Z</time>
      </trkpt>
      <trkpt lat="43.1475743372" lon="-4.1986765154">
        <ele>494.74</ele>
        <time>2018-05-19T13:26:46Z</time>
      </trkpt>
      <trkpt lat="43.1475113053" lon="-4.1985285748">
        <ele>495.70</ele>
        <time>2018-05-19T13:26:49Z</time>
      </trkpt>
      <trkpt lat="43.1474447530" lon="-4.1983743478">
        <ele>496.18</ele>
        <time>2018-05-19T13:26:52Z</time>
      </trkpt>
      <trkpt lat="43.1473791227" lon="-4.1982161812">
        <ele>496.66</ele>
        <time>2018-05-19T13:26:55Z</time>
      </trkpt>
      <trkpt lat="43.1473144982" lon="-4.1980663966">
        <ele>497.14</ele>
        <time>2018-05-19T13:26:58Z</time>
      </trkpt>
      <trkpt lat="43.1472522207" lon="-4.1979094036">
        <ele>497.14</ele>
        <time>2018-05-19T13:27:01Z</time>
      </trkpt>
      <trkpt lat="43.1471912842" lon="-4.1977551766">
        <ele>498.10</ele>
        <time>2018-05-19T13:27:04Z</time>
      </trkpt>
      <trkpt lat="43.1471463572" lon="-4.1976478044">
        <ele>498.58</ele>
        <time>2018-05-19T13:27:06Z</time>
      </trkpt>
      <trkpt lat="43.1470929645" lon="-4.1975106765">
        <ele>500.02</ele>
        <time>2018-05-19T13:27:09Z</time>
      </trkpt>
      <trkpt lat="43.1470363028" lon="-4.1973769851">
        <ele>500.50</ele>
        <time>2018-05-19T13:27:12Z</time>
      </trkpt>
      <trkpt lat="43.1469811499" lon="-4.1972492449">
        <ele>501.46</ele>
        <time>2018-05-19T13:27:15Z</time>
      </trkpt>
      <trkpt lat="43.1469370611" lon="-4.1971351672">
        <ele>502.43</ele>
        <time>2018-05-19T13:27:18Z</time>
      </trkpt>
      <trkpt lat="43.1468892004" lon="-4.1970120370">
        <ele>502.91</ele>
        <time>2018-05-19T13:27:21Z</time>
      </trkpt>
      <trkpt lat="43.1468432676" lon="-4.1968787648">
        <ele>503.87</ele>
        <time>2018-05-19T13:27:24Z</time>
      </trkpt>
      <trkpt lat="43.1467953231" lon="-4.1967668664">
        <ele>504.83</ele>
        <time>2018-05-19T13:27:27Z</time>
      </trkpt>
      <trkpt lat="43.1467478815" lon="-4.1966323368">
        <ele>505.31</ele>
        <time>2018-05-19T13:27:30Z</time>
      </trkpt>
      <trkpt lat="43.1466930639" lon="-4.1964941192">
        <ele>505.79</ele>
        <time>2018-05-19T13:27:33Z</time>
      </trkpt>
      <trkpt lat="43.1466467958" lon="-4.1963641997">
        <ele>505.79</ele>
        <time>2018-05-19T13:27:36Z</time>
      </trkpt>
      <trkpt lat="43.1465996895" lon="-4.1962334421">
        <ele>505.79</ele>
        <time>2018-05-19T13:27:39Z</time>
      </trkpt>
      <trkpt lat="43.1465382501" lon="-4.1961108986">
        <ele>506.27</ele>
        <time>2018-05-19T13:27:42Z</time>
      </trkpt>
      <trkpt lat="43.1464806665" lon="-4.1960020177">
        <ele>506.75</ele>
        <time>2018-05-19T13:27:45Z</time>
      </trkpt>
      <trkpt lat="43.1464154553" lon="-4.1958850063">
        <ele>507.23</ele>
        <time>2018-05-19T13:27:48Z</time>
      </trkpt>
      <trkpt lat="43.1463527586" lon="-4.1957677435">
        <ele>507.71</ele>
        <time>2018-05-19T13:27:51Z</time>
      </trkpt>
      <trkpt lat="43.1462955941" lon="-4.1956548393">
        <ele>508.19</ele>
        <time>2018-05-19T13:27:54Z</time>
      </trkpt>
      <trkpt lat="43.1462307181" lon="-4.1955530830">
        <ele>508.19</ele>
        <time>2018-05-19T13:27:57Z</time>
      </trkpt>
      <trkpt lat="43.1461572926" lon="-4.1954450402">
        <ele>508.67</ele>
        <time>2018-05-19T13:28:00Z</time>
      </trkpt>
      <trkpt lat="43.1460878905" lon="-4.1953357402">
        <ele>509.16</ele>
        <time>2018-05-19T13:28:03Z</time>
      </trkpt>
      <trkpt lat="43.1460117828" lon="-4.1952223331">
        <ele>509.64</ele>
        <time>2018-05-19T13:28:06Z</time>
      </trkpt>
      <trkpt lat="43.1459435541" lon="-4.1951141227">
        <ele>510.12</ele>
        <time>2018-05-19T13:28:09Z</time>
      </trkpt>
      <trkpt lat="43.1458780915" lon="-4.1949999612">
        <ele>510.60</ele>
        <time>2018-05-19T13:28:12Z</time>
      </trkpt>
      <trkpt lat="43.1457978766" lon="-4.1948940977">
        <ele>511.08</ele>
        <time>2018-05-19T13:28:15Z</time>
      </trkpt>
      <trkpt lat="43.1457291450" lon="-4.1947840434">
        <ele>511.56</ele>
        <time>2018-05-19T13:28:18Z</time>
      </trkpt>
      <trkpt lat="43.1456637662" lon="-4.1946853884">
        <ele>511.56</ele>
        <time>2018-05-19T13:28:21Z</time>
      </trkpt>
      <trkpt lat="43.1455993932" lon="-4.1945795249">
        <ele>512.52</ele>
        <time>2018-05-19T13:28:24Z</time>
      </trkpt>
      <trkpt lat="43.1455406360" lon="-4.1944719851">
        <ele>513.00</ele>
        <time>2018-05-19T13:28:27Z</time>
      </trkpt>
      <trkpt lat="43.1454790290" lon="-4.1943644453">
        <ele>513.48</ele>
        <time>2018-05-19T13:28:30Z</time>
      </trkpt>
      <trkpt lat="43.1454088725" lon="-4.1942609288">
        <ele>514.44</ele>
        <time>2018-05-19T13:28:33Z</time>
      </trkpt>
      <trkpt lat="43.1453372072" lon="-4.1941657104">
        <ele>514.92</ele>
        <time>2018-05-19T13:28:36Z</time>
      </trkpt>
      <trkpt lat="43.1452609319" lon="-4.1940705758">
        <ele>515.40</ele>
        <time>2018-05-19T13:28:39Z</time>
      </trkpt>
      <trkpt lat="43.1451852433" lon="-4.1939673107">
        <ele>515.88</ele>
        <time>2018-05-19T13:28:42Z</time>
      </trkpt>
      <trkpt lat="43.1451202836" lon="-4.1938632913">
        <ele>516.85</ele>
        <time>2018-05-19T13:28:45Z</time>
      </trkpt>
      <trkpt lat="43.1450317707" lon="-4.1937751137">
        <ele>516.37</ele>
        <time>2018-05-19T13:28:48Z</time>
      </trkpt>
      <trkpt lat="43.1449142564" lon="-4.1936932225">
        <ele>514.92</ele>
        <time>2018-05-19T13:28:51Z</time>
      </trkpt>
      <trkpt lat="43.1447791401" lon="-4.1936811525">
        <ele>513.00</ele>
        <time>2018-05-19T13:28:54Z</time>
      </trkpt>
      <trkpt lat="43.1446712650" lon="-4.1937235650">
        <ele>511.56</ele>
        <time>2018-05-19T13:28:56Z</time>
      </trkpt>
      <trkpt lat="43.1445830036" lon="-4.1937632952">
        <ele>511.08</ele>
        <time>2018-05-19T13:28:58Z</time>
      </trkpt>
      <trkpt lat="43.1444840133" lon="-4.1937580984">
        <ele>510.12</ele>
        <time>2018-05-19T13:29:00Z</time>
      </trkpt>
      <trkpt lat="43.1443939079" lon="-4.1937054601">
        <ele>509.64</ele>
        <time>2018-05-19T13:29:02Z</time>
      </trkpt>
      <trkpt lat="43.1443001982" lon="-4.1936384048">
        <ele>508.67</ele>
        <time>2018-05-19T13:29:04Z</time>
      </trkpt>
      <trkpt lat="43.1442018785" lon="-4.1935462039">
        <ele>507.71</ele>
        <time>2018-05-19T13:29:06Z</time>
      </trkpt>
      <trkpt lat="43.1440814305" lon="-4.1934773885">
        <ele>507.71</ele>
        <time>2018-05-19T13:29:09Z</time>
      </trkpt>
      <trkpt lat="43.1439435482" lon="-4.1934602894">
        <ele>506.27</ele>
        <time>2018-05-19T13:29:12Z</time>
      </trkpt>
      <trkpt lat="43.1438098568" lon="-4.1934383288">
        <ele>506.75</ele>
        <time>2018-05-19T13:29:15Z</time>
      </trkpt>
      <trkpt lat="43.1436929293" lon="-4.1933994368">
        <ele>506.75</ele>
        <time>2018-05-19T13:29:18Z</time>
      </trkpt>
      <trkpt lat="43.1435741577" lon="-4.1933278553">
        <ele>506.75</ele>
        <time>2018-05-19T13:29:21Z</time>
      </trkpt>
      <trkpt lat="43.1434657797" lon="-4.1932247579">
        <ele>506.75</ele>
        <time>2018-05-19T13:29:24Z</time>
      </trkpt>
      <trkpt lat="43.1433747523" lon="-4.1930941679">
        <ele>506.75</ele>
        <time>2018-05-19T13:29:27Z</time>
      </trkpt>
      <trkpt lat="43.1432940345" lon="-4.1929800902">
        <ele>506.75</ele>
        <time>2018-05-19T13:29:30Z</time>
      </trkpt>
      <trkpt lat="43.1432071142" lon="-4.1928662639">
        <ele>507.71</ele>
        <time>2018-05-19T13:29:33Z</time>
      </trkpt>
      <trkpt lat="43.1431172602" lon="-4.1927619092">
        <ele>507.71</ele>
        <time>2018-05-19T13:29:36Z</time>
      </trkpt>
      <trkpt lat="43.1430049427" lon="-4.1926783416">
        <ele>507.71</ele>
        <time>2018-05-19T13:29:39Z</time>
      </trkpt>
      <trkpt lat="43.1429072935" lon="-4.1926301457">
        <ele>507.71</ele>
        <time>2018-05-19T13:29:41Z</time>
      </trkpt>
      <trkpt lat="43.1427970715" lon="-4.1925713047">
        <ele>507.71</ele>
        <time>2018-05-19T13:29:44Z</time>
      </trkpt>
      <trkpt lat="43.1426903699" lon="-4.1924800258">
        <ele>506.75</ele>
        <time>2018-05-19T13:29:47Z</time>
      </trkpt>
      <trkpt lat="43.1426132564" lon="-4.1924081929">
        <ele>506.75</ele>
        <time>2018-05-19T13:29:49Z</time>
      </trkpt>
      <trkpt lat="43.1425203849" lon="-4.1923038382">
        <ele>507.71</ele>
        <time>2018-05-19T13:29:52Z</time>
      </trkpt>
      <trkpt lat="43.1424405053" lon="-4.1921990644">
        <ele>508.19</ele>
        <time>2018-05-19T13:29:55Z</time>
      </trkpt>
      <trkpt lat="43.1423744559" lon="-4.1921127308">
        <ele>508.67</ele>
        <time>2018-05-19T13:29:58Z</time>
      </trkpt>
      <trkpt lat="43.1422887091" lon="-4.1920169257">
        <ele>510.60</ele>
        <time>2018-05-19T13:30:02Z</time>
      </trkpt>
      <trkpt lat="43.1422131881" lon="-4.1919214558">
        <ele>511.08</ele>
        <time>2018-05-19T13:30:06Z</time>
      </trkpt>
      <trkpt lat="43.1421656627" lon="-4.1918032710">
        <ele>511.56</ele>
        <time>2018-05-19T13:30:10Z</time>
      </trkpt>
      <trkpt lat="43.1421263516" lon="-4.1916835774">
        <ele>513.00</ele>
        <time>2018-05-19T13:30:14Z</time>
      </trkpt>
      <trkpt lat="43.1420862861" lon="-4.1915474553">
        <ele>514.44</ele>
        <time>2018-05-19T13:30:19Z</time>
      </trkpt>
      <trkpt lat="43.1420108490" lon="-4.1914496385">
        <ele>515.88</ele>
        <time>2018-05-19T13:30:24Z</time>
      </trkpt>
      <trkpt lat="43.1419055723" lon="-4.1914044600">
        <ele>515.88</ele>
        <time>2018-05-19T13:30:29Z</time>
      </trkpt>
      <trkpt lat="43.1418118626" lon="-4.1913879476">
        <ele>515.88</ele>
        <time>2018-05-19T13:30:32Z</time>
      </trkpt>
      <trkpt lat="43.1417114474" lon="-4.1913675796">
        <ele>513.96</ele>
        <time>2018-05-19T13:30:34Z</time>
      </trkpt>
      <trkpt lat="43.1416174024" lon="-4.1913542524">
        <ele>513.00</ele>
        <time>2018-05-19T13:30:36Z</time>
      </trkpt>
      <trkpt lat="43.1414949428" lon="-4.1913433559">
        <ele>512.04</ele>
        <time>2018-05-19T13:30:38Z</time>
      </trkpt>
      <trkpt lat="43.1413542107" lon="-4.1913631372">
        <ele>510.60</ele>
        <time>2018-05-19T13:30:40Z</time>
      </trkpt>
      <trkpt lat="43.1411740836" lon="-4.1914047115">
        <ele>508.67</ele>
        <time>2018-05-19T13:30:42Z</time>
      </trkpt>
      <trkpt lat="43.1410815474" lon="-4.1914300248">
        <ele>507.23</ele>
        <time>2018-05-19T13:30:43Z</time>
      </trkpt>
      <trkpt lat="43.1409366243" lon="-4.1914629657">
        <ele>506.27</ele>
        <time>2018-05-19T13:30:45Z</time>
      </trkpt>
      <trkpt lat="43.1407759432" lon="-4.1914472915">
        <ele>506.27</ele>
        <time>2018-05-19T13:30:47Z</time>
      </trkpt>
      <trkpt lat="43.1406250689" lon="-4.1914053820">
        <ele>506.27</ele>
        <time>2018-05-19T13:30:49Z</time>
      </trkpt>
      <trkpt lat="43.1404872704" lon="-4.1913440265">
        <ele>508.19</ele>
        <time>2018-05-19T13:30:51Z</time>
      </trkpt>
      <trkpt lat="43.1403846759" lon="-4.1912984289">
        <ele>509.16</ele>
        <time>2018-05-19T13:30:53Z</time>
      </trkpt>
      <trkpt lat="43.1403023656" lon="-4.1912578605">
        <ele>509.64</ele>
        <time>2018-05-19T13:30:55Z</time>
      </trkpt>
      <trkpt lat="43.1401726138" lon="-4.1911981814">
        <ele>510.60</ele>
        <time>2018-05-19T13:30:58Z</time>
      </trkpt>
      <trkpt lat="43.1400504056" lon="-4.1911513265">
        <ele>511.08</ele>
        <time>2018-05-19T13:31:01Z</time>
      </trkpt>
      <trkpt lat="43.1399613060" lon="-4.1911082435">
        <ele>511.56</ele>
        <time>2018-05-19T13:31:04Z</time>
      </trkpt>
      <trkpt lat="43.1398842763" lon="-4.1910613049">
        <ele>512.04</ele>
        <time>2018-05-19T13:32:44Z</time>
      </trkpt>
      <trkpt lat="43.1397896446" lon="-4.1910615563">
        <ele>512.04</ele>
        <time>2018-05-19T13:32:50Z</time>
      </trkpt>
      <trkpt lat="43.1396924984" lon="-4.1910613049">
        <ele>512.04</ele>
        <time>2018-05-19T13:32:53Z</time>
      </trkpt>
      <trkpt lat="43.1395933405" lon="-4.1910485644">
        <ele>512.04</ele>
        <time>2018-05-19T13:32:56Z</time>
      </trkpt>
      <trkpt lat="43.1394859683" lon="-4.1910264362">
        <ele>512.04</ele>
        <time>2018-05-19T13:32:59Z</time>
      </trkpt>
      <trkpt lat="43.1393692084" lon="-4.1910031345">
        <ele>512.04</ele>
        <time>2018-05-19T13:33:02Z</time>
      </trkpt>
      <trkpt lat="43.1392489281" lon="-4.1909622308">
        <ele>512.04</ele>
        <time>2018-05-19T13:33:05Z</time>
      </trkpt>
      <trkpt lat="43.1391425617" lon="-4.1909421142">
        <ele>512.04</ele>
        <time>2018-05-19T13:33:08Z</time>
      </trkpt>
      <trkpt lat="43.1390281487" lon="-4.1909087542">
        <ele>512.04</ele>
        <time>2018-05-19T13:33:11Z</time>
      </trkpt>
      <trkpt lat="43.1389077008" lon="-4.1908706166">
        <ele>512.04</ele>
        <time>2018-05-19T13:33:14Z</time>
      </trkpt>
      <trkpt lat="43.1387950480" lon="-4.1908199061">
        <ele>512.04</ele>
        <time>2018-05-19T13:33:17Z</time>
      </trkpt>
      <trkpt lat="43.1386859994" lon="-4.1907645855">
        <ele>512.04</ele>
        <time>2018-05-19T13:33:20Z</time>
      </trkpt>
      <trkpt lat="43.1385886855" lon="-4.1907100193">
        <ele>513.00</ele>
        <time>2018-05-19T13:33:23Z</time>
      </trkpt>
      <trkpt lat="43.1384885218" lon="-4.1906505078">
        <ele>513.48</ele>
        <time>2018-05-19T13:33:26Z</time>
      </trkpt>
      <trkpt lat="43.1383873522" lon="-4.1905912478">
        <ele>513.96</ele>
        <time>2018-05-19T13:33:29Z</time>
      </trkpt>
      <trkpt lat="43.1382917147" lon="-4.1905345861">
        <ele>514.44</ele>
        <time>2018-05-19T13:33:32Z</time>
      </trkpt>
      <trkpt lat="43.1381948199" lon="-4.1904661898">
        <ele>514.92</ele>
        <time>2018-05-19T13:33:35Z</time>
      </trkpt>
      <trkpt lat="43.1380993500" lon="-4.1903970391">
        <ele>515.40</ele>
        <time>2018-05-19T13:33:38Z</time>
      </trkpt>
      <trkpt lat="43.1379858591" lon="-4.1903103702">
        <ele>516.37</ele>
        <time>2018-05-19T13:33:42Z</time>
      </trkpt>
      <trkpt lat="43.1378965918" lon="-4.1902446561">
        <ele>516.85</ele>
        <time>2018-05-19T13:33:45Z</time>
      </trkpt>
      <trkpt lat="43.1378009543" lon="-4.1901720688">
        <ele>516.85</ele>
        <time>2018-05-19T13:33:48Z</time>
      </trkpt>
      <trkpt lat="43.1377193984" lon="-4.1900999006">
        <ele>517.33</ele>
        <time>2018-05-19T13:33:51Z</time>
      </trkpt>
      <trkpt lat="43.1376277003" lon="-4.1900246311">
        <ele>517.81</ele>
        <time>2018-05-19T13:33:54Z</time>
      </trkpt>
      <trkpt lat="43.1375444680" lon="-4.1899470147">
        <ele>518.29</ele>
        <time>2018-05-19T13:33:57Z</time>
      </trkpt>
      <trkpt lat="43.1374458969" lon="-4.1898697335">
        <ele>518.29</ele>
        <time>2018-05-19T13:34:00Z</time>
      </trkpt>
      <trkpt lat="43.1373584736" lon="-4.1898110602">
        <ele>518.77</ele>
        <time>2018-05-19T13:34:03Z</time>
      </trkpt>
      <trkpt lat="43.1372711342" lon="-4.1897475254">
        <ele>519.25</ele>
        <time>2018-05-19T13:34:06Z</time>
      </trkpt>
      <trkpt lat="43.1371781789" lon="-4.1896786261">
        <ele>519.73</ele>
        <time>2018-05-19T13:34:09Z</time>
      </trkpt>
      <trkpt lat="43.1370998919" lon="-4.1896094754">
        <ele>520.21</ele>
        <time>2018-05-19T13:34:12Z</time>
      </trkpt>
      <trkpt lat="43.1370190904" lon="-4.1895306017">
        <ele>520.69</ele>
        <time>2018-05-19T13:34:15Z</time>
      </trkpt>
      <trkpt lat="43.1369393785" lon="-4.1894538235">
        <ele>521.65</ele>
        <time>2018-05-19T13:34:18Z</time>
      </trkpt>
      <trkpt lat="43.1368534639" lon="-4.1893633828">
        <ele>521.65</ele>
        <time>2018-05-19T13:34:21Z</time>
      </trkpt>
      <trkpt lat="43.1367749255" lon="-4.1892841738">
        <ele>522.13</ele>
        <time>2018-05-19T13:34:24Z</time>
      </trkpt>
      <trkpt lat="43.1366910227" lon="-4.1892019473">
        <ele>522.13</ele>
        <time>2018-05-19T13:34:27Z</time>
      </trkpt>
      <trkpt lat="43.1366092991" lon="-4.1891161166">
        <ele>522.13</ele>
        <time>2018-05-19T13:34:30Z</time>
      </trkpt>
      <trkpt lat="43.1365316827" lon="-4.1890152823">
        <ele>522.61</ele>
        <time>2018-05-19T13:34:33Z</time>
      </trkpt>
      <trkpt lat="43.1364756078" lon="-4.1889098380">
        <ele>522.61</ele>
        <time>2018-05-19T13:34:36Z</time>
      </trkpt>
      <trkpt lat="43.1364349555" lon="-4.1887853667">
        <ele>523.09</ele>
        <time>2018-05-19T13:34:39Z</time>
      </trkpt>
      <trkpt lat="43.1363975722" lon="-4.1886502504">
        <ele>523.58</ele>
        <time>2018-05-19T13:34:42Z</time>
      </trkpt>
      <trkpt lat="43.1363678165" lon="-4.1885311436">
        <ele>524.06</ele>
        <time>2018-05-19T13:34:45Z</time>
      </trkpt>
      <trkpt lat="43.1363349594" lon="-4.1883987095">
        <ele>524.54</ele>
        <time>2018-05-19T13:34:48Z</time>
      </trkpt>
      <trkpt lat="43.1362903677" lon="-4.1882744897">
        <ele>524.54</ele>
        <time>2018-05-19T13:34:51Z</time>
      </trkpt>
      <trkpt lat="43.1362468656" lon="-4.1881492641">
        <ele>525.02</ele>
        <time>2018-05-19T13:34:54Z</time>
      </trkpt>
      <trkpt lat="43.1361960713" lon="-4.1879878286">
        <ele>525.50</ele>
        <time>2018-05-19T13:34:58Z</time>
      </trkpt>
      <trkpt lat="43.1361550000" lon="-4.1878469288">
        <ele>525.50</ele>
        <time>2018-05-19T13:35:01Z</time>
      </trkpt>
      <trkpt lat="43.1361219753" lon="-4.1877009999">
        <ele>525.50</ele>
        <time>2018-05-19T13:35:04Z</time>
      </trkpt>
      <trkpt lat="43.1360865198" lon="-4.1875393130">
        <ele>525.50</ele>
        <time>2018-05-19T13:35:07Z</time>
      </trkpt>
      <trkpt lat="43.1360586919" lon="-4.1873666458">
        <ele>525.50</ele>
        <time>2018-05-19T13:35:10Z</time>
      </trkpt>
      <trkpt lat="43.1360370666" lon="-4.1872371454">
        <ele>525.50</ele>
        <time>2018-05-19T13:35:12Z</time>
      </trkpt>
      <trkpt lat="43.1360172015" lon="-4.1870951559">
        <ele>525.50</ele>
        <time>2018-05-19T13:35:14Z</time>
      </trkpt>
      <trkpt lat="43.1359991804" lon="-4.1869623028">
        <ele>525.50</ele>
        <time>2018-05-19T13:35:16Z</time>
      </trkpt>
      <trkpt lat="43.1359785609" lon="-4.1868136078">
        <ele>524.06</ele>
        <time>2018-05-19T13:35:18Z</time>
      </trkpt>
      <trkpt lat="43.1359576061" lon="-4.1866537649">
        <ele>524.06</ele>
        <time>2018-05-19T13:35:20Z</time>
      </trkpt>
      <trkpt lat="43.1359193847" lon="-4.1864870489">
        <ele>523.09</ele>
        <time>2018-05-19T13:35:22Z</time>
      </trkpt>
      <trkpt lat="43.1358527485" lon="-4.1863932554">
        <ele>523.09</ele>
        <time>2018-05-19T13:35:24Z</time>
      </trkpt>
      <trkpt lat="43.1357577816" lon="-4.1863298882">
        <ele>523.09</ele>
        <time>2018-05-19T13:35:26Z</time>
      </trkpt>
      <trkpt lat="43.1356710289" lon="-4.1863334924">
        <ele>523.09</ele>
        <time>2018-05-19T13:35:28Z</time>
      </trkpt>
      <trkpt lat="43.1356043927" lon="-4.1864371765">
        <ele>525.50</ele>
        <time>2018-05-19T13:35:31Z</time>
      </trkpt>
      <trkpt lat="43.1355587114" lon="-4.1865733825">
        <ele>526.94</ele>
        <time>2018-05-19T13:35:35Z</time>
      </trkpt>
      <trkpt lat="43.1355313864" lon="-4.1867183056">
        <ele>527.42</ele>
        <time>2018-05-19T13:35:39Z</time>
      </trkpt>
      <trkpt lat="43.1354874652" lon="-4.1868644860">
        <ele>528.86</ele>
        <time>2018-05-19T13:35:43Z</time>
      </trkpt>
      <trkpt lat="43.1354152132" lon="-4.1869869456">
        <ele>528.86</ele>
        <time>2018-05-19T13:35:47Z</time>
      </trkpt>
      <trkpt lat="43.1353365071" lon="-4.1870724410">
        <ele>528.86</ele>
        <time>2018-05-19T13:35:50Z</time>
      </trkpt>
      <trkpt lat="43.1352396961" lon="-4.1871045437">
        <ele>529.34</ele>
        <time>2018-05-19T13:35:53Z</time>
      </trkpt>
      <trkpt lat="43.1351469085" lon="-4.1870285198">
        <ele>529.82</ele>
        <time>2018-05-19T13:35:57Z</time>
      </trkpt>
      <trkpt lat="43.1350776739" lon="-4.1869015340">
        <ele>530.30</ele>
        <time>2018-05-19T13:36:01Z</time>
      </trkpt>
      <trkpt lat="43.1350188330" lon="-4.1867763083">
        <ele>531.27</ele>
        <time>2018-05-19T13:36:05Z</time>
      </trkpt>
      <trkpt lat="43.1349583995" lon="-4.1866559442">
        <ele>531.75</ele>
        <time>2018-05-19T13:36:09Z</time>
      </trkpt>
      <trkpt lat="43.1348960381" lon="-4.1865292937">
        <ele>532.23</ele>
        <time>2018-05-19T13:36:13Z</time>
      </trkpt>
      <trkpt lat="43.1348411366" lon="-4.1864102706">
        <ele>532.71</ele>
        <time>2018-05-19T13:36:17Z</time>
      </trkpt>
      <trkpt lat="43.1348175835" lon="-4.1862738971">
        <ele>533.19</ele>
        <time>2018-05-19T13:36:21Z</time>
      </trkpt>
      <trkpt lat="43.1348139793" lon="-4.1861403733">
        <ele>533.19</ele>
        <time>2018-05-19T13:36:26Z</time>
      </trkpt>
      <trkpt lat="43.1348063517" lon="-4.1859974619">
        <ele>533.67</ele>
        <time>2018-05-19T13:36:32Z</time>
      </trkpt>
      <trkpt lat="43.1347811222" lon="-4.1858662013">
        <ele>533.67</ele>
        <time>2018-05-19T13:36:41Z</time>
      </trkpt>
      <trkpt lat="43.1347517855" lon="-4.1857608408">
        <ele>533.67</ele>
        <time>2018-05-19T13:36:49Z</time>
      </trkpt>
      <trkpt lat="43.1347537134" lon="-4.1857530456">
        <ele>532.71</ele>
        <time>2018-05-19T13:52:57Z</time>
      </trkpt>
      <trkpt lat="43.1346966326" lon="-4.1857397184">
        <ele>533.19</ele>
        <time>2018-05-19T13:53:44Z</time>
      </trkpt>
      <trkpt lat="43.1345989835" lon="-4.1856849845">
        <ele>532.71</ele>
        <time>2018-05-19T13:53:48Z</time>
      </trkpt>
      <trkpt lat="43.1344993226" lon="-4.1856615152">
        <ele>532.71</ele>
        <time>2018-05-19T13:53:51Z</time>
      </trkpt>
      <trkpt lat="43.1343856640" lon="-4.1856527980">
        <ele>532.71</ele>
        <time>2018-05-19T13:53:55Z</time>
      </trkpt>
      <trkpt lat="43.1342869252" lon="-4.1856507026">
        <ele>533.19</ele>
        <time>2018-05-19T13:53:58Z</time>
      </trkpt>
      <trkpt lat="43.1341797207" lon="-4.1856396385">
        <ele>532.71</ele>
        <time>2018-05-19T13:54:01Z</time>
      </trkpt>
      <trkpt lat="43.1340872683" lon="-4.1856261436">
        <ele>533.19</ele>
        <time>2018-05-19T13:54:04Z</time>
      </trkpt>
      <trkpt lat="43.1339972466" lon="-4.1856024228">
        <ele>533.19</ele>
        <time>2018-05-19T13:54:07Z</time>
      </trkpt>
      <trkpt lat="43.1339096557" lon="-4.1855723318">
        <ele>534.63</ele>
        <time>2018-05-19T13:54:10Z</time>
      </trkpt>
      <trkpt lat="43.1337955780" lon="-4.1855135746">
        <ele>535.11</ele>
        <time>2018-05-19T13:54:14Z</time>
      </trkpt>
      <trkpt lat="43.1337071490" lon="-4.1854672227">
        <ele>535.11</ele>
        <time>2018-05-19T13:54:17Z</time>
      </trkpt>
      <trkpt lat="43.1336162053" lon="-4.1854106449">
        <ele>535.11</ele>
        <time>2018-05-19T13:54:20Z</time>
      </trkpt>
      <trkpt lat="43.1335338112" lon="-4.1853426676">
        <ele>535.59</ele>
        <time>2018-05-19T13:54:23Z</time>
      </trkpt>
      <trkpt lat="43.1334567815" lon="-4.1852679849">
        <ele>535.59</ele>
        <time>2018-05-19T13:54:26Z</time>
      </trkpt>
      <trkpt lat="43.1333773211" lon="-4.1851936374">
        <ele>536.07</ele>
        <time>2018-05-19T13:54:29Z</time>
      </trkpt>
      <trkpt lat="43.1333026383" lon="-4.1851165239">
        <ele>536.55</ele>
        <time>2018-05-19T13:54:32Z</time>
      </trkpt>
      <trkpt lat="43.1332142092" lon="-4.1850353032">
        <ele>537.03</ele>
        <time>2018-05-19T13:54:36Z</time>
      </trkpt>
      <trkpt lat="43.1331295520" lon="-4.1849462874">
        <ele>537.51</ele>
        <time>2018-05-19T13:54:40Z</time>
      </trkpt>
      <trkpt lat="43.1330533605" lon="-4.1848436929">
        <ele>538.48</ele>
        <time>2018-05-19T13:54:44Z</time>
      </trkpt>
      <trkpt lat="43.1329910830" lon="-4.1847193893">
        <ele>538.96</ele>
        <time>2018-05-19T13:54:48Z</time>
      </trkpt>
      <trkpt lat="43.1329340860" lon="-4.1846048087">
        <ele>539.92</ele>
        <time>2018-05-19T13:54:52Z</time>
      </trkpt>
      <trkpt lat="43.1328565534" lon="-4.1844965983">
        <ele>540.40</ele>
        <time>2018-05-19T13:54:56Z</time>
      </trkpt>
      <trkpt lat="43.1327835470" lon="-4.1843801737">
        <ele>540.40</ele>
        <time>2018-05-19T13:55:00Z</time>
      </trkpt>
      <trkpt lat="43.1327202637" lon="-4.1842413694">
        <ele>540.88</ele>
        <time>2018-05-19T13:55:04Z</time>
      </trkpt>
      <trkpt lat="43.1326848082" lon="-4.1840975359">
        <ele>540.88</ele>
        <time>2018-05-19T13:55:08Z</time>
      </trkpt>
      <trkpt lat="43.1326712295" lon="-4.1839602403">
        <ele>540.88</ele>
        <time>2018-05-19T13:55:11Z</time>
      </trkpt>
      <trkpt lat="43.1326603331" lon="-4.1838046722">
        <ele>540.88</ele>
        <time>2018-05-19T13:55:14Z</time>
      </trkpt>
      <trkpt lat="43.1326490175" lon="-4.1836454999">
        <ele>540.88</ele>
        <time>2018-05-19T13:55:17Z</time>
      </trkpt>
      <trkpt lat="43.1326341815" lon="-4.1835005768">
        <ele>540.88</ele>
        <time>2018-05-19T13:55:20Z</time>
      </trkpt>
      <trkpt lat="43.1325787771" lon="-4.1833697353">
        <ele>540.88</ele>
        <time>2018-05-19T13:55:23Z</time>
      </trkpt>
      <trkpt lat="43.1324905157" lon="-4.1832925379">
        <ele>540.88</ele>
        <time>2018-05-19T13:55:26Z</time>
      </trkpt>
      <trkpt lat="43.1323983986" lon="-4.1832357086">
        <ele>541.36</ele>
        <time>2018-05-19T13:55:29Z</time>
      </trkpt>
      <trkpt lat="43.1322988216" lon="-4.1831823159">
        <ele>541.36</ele>
        <time>2018-05-19T13:55:32Z</time>
      </trkpt>
      <trkpt lat="43.1321942154" lon="-4.1831346229">
        <ele>541.36</ele>
        <time>2018-05-19T13:55:35Z</time>
      </trkpt>
      <trkpt lat="43.1320956443" lon="-4.1830942221">
        <ele>541.84</ele>
        <time>2018-05-19T13:55:38Z</time>
      </trkpt>
      <trkpt lat="43.1320078857" lon="-4.1830501333">
        <ele>541.84</ele>
        <time>2018-05-19T13:55:41Z</time>
      </trkpt>
      <trkpt lat="43.1319003459" lon="-4.1829972435">
        <ele>542.80</ele>
        <time>2018-05-19T13:55:45Z</time>
      </trkpt>
      <trkpt lat="43.1317986734" lon="-4.1829359718">
        <ele>542.80</ele>
        <time>2018-05-19T13:55:49Z</time>
      </trkpt>
      <trkpt lat="43.1317193806" lon="-4.1828412563">
        <ele>544.72</ele>
        <time>2018-05-19T13:55:54Z</time>
      </trkpt>
      <trkpt lat="43.1316358130" lon="-4.1827082355">
        <ele>546.17</ele>
        <time>2018-05-19T13:56:00Z</time>
      </trkpt>
      <trkpt lat="43.1315630581" lon="-4.1825655755">
        <ele>547.61</ele>
        <time>2018-05-19T13:56:05Z</time>
      </trkpt>
      <trkpt lat="43.1315053906" lon="-4.1824079957">
        <ele>548.57</ele>
        <time>2018-05-19T13:56:10Z</time>
      </trkpt>
      <trkpt lat="43.1314670015" lon="-4.1822789144">
        <ele>549.05</ele>
        <time>2018-05-19T13:56:15Z</time>
      </trkpt>
      <trkpt lat="43.1314346474" lon="-4.1821126174">
        <ele>550.49</ele>
        <time>2018-05-19T13:56:21Z</time>
      </trkpt>
      <trkpt lat="43.1314138602" lon="-4.1819685325">
        <ele>550.97</ele>
        <time>2018-05-19T13:56:26Z</time>
      </trkpt>
      <trkpt lat="43.1314000301" lon="-4.1818072647">
        <ele>551.45</ele>
        <time>2018-05-19T13:56:32Z</time>
      </trkpt>
      <trkpt lat="43.1313808355" lon="-4.1816252936">
        <ele>552.41</ele>
        <time>2018-05-19T13:56:38Z</time>
      </trkpt>
      <trkpt lat="43.1313599646" lon="-4.1814930271">
        <ele>552.90</ele>
        <time>2018-05-19T13:56:43Z</time>
      </trkpt>
      <trkpt lat="43.1313571148" lon="-4.1813540552">
        <ele>554.34</ele>
        <time>2018-05-19T13:56:48Z</time>
      </trkpt>
      <trkpt lat="43.1313679274" lon="-4.1812098864">
        <ele>554.82</ele>
        <time>2018-05-19T13:56:53Z</time>
      </trkpt>
      <trkpt lat="43.1313925702" lon="-4.1810713336">
        <ele>555.30</ele>
        <time>2018-05-19T13:56:58Z</time>
      </trkpt>
      <trkpt lat="43.1314211525" lon="-4.1809032764">
        <ele>556.26</ele>
        <time>2018-05-19T13:57:03Z</time>
      </trkpt>
      <trkpt lat="43.1314312108" lon="-4.1807520669">
        <ele>557.22</ele>
        <time>2018-05-19T13:57:08Z</time>
      </trkpt>
      <trkpt lat="43.1314281933" lon="-4.1806151066">
        <ele>557.70</ele>
        <time>2018-05-19T13:57:12Z</time>
      </trkpt>
      <trkpt lat="43.1314069871" lon="-4.1804616340">
        <ele>558.66</ele>
        <time>2018-05-19T13:57:17Z</time>
      </trkpt>
      <trkpt lat="43.1313870382" lon="-4.1803376656">
        <ele>559.14</ele>
        <time>2018-05-19T13:57:21Z</time>
      </trkpt>
      <trkpt lat="43.1313558575" lon="-4.1802070756">
        <ele>559.62</ele>
        <time>2018-05-19T13:57:25Z</time>
      </trkpt>
      <trkpt lat="43.1313202344" lon="-4.1800736357">
        <ele>559.62</ele>
        <time>2018-05-19T13:57:29Z</time>
      </trkpt>
      <trkpt lat="43.1312722061" lon="-4.1799287964">
        <ele>560.11</ele>
        <time>2018-05-19T13:57:33Z</time>
      </trkpt>
      <trkpt lat="43.1312188972" lon="-4.1797875613">
        <ele>561.07</ele>
        <time>2018-05-19T13:57:37Z</time>
      </trkpt>
      <trkpt lat="43.1311535183" lon="-4.1796767525">
        <ele>560.59</ele>
        <time>2018-05-19T13:57:40Z</time>
      </trkpt>
      <trkpt lat="43.1310826913" lon="-4.1795576457">
        <ele>559.14</ele>
        <time>2018-05-19T13:57:43Z</time>
      </trkpt>
      <trkpt lat="43.1310256105" lon="-4.1794429813">
        <ele>559.14</ele>
        <time>2018-05-19T13:57:46Z</time>
      </trkpt>
      <trkpt lat="43.1309760734" lon="-4.1793150734">
        <ele>559.14</ele>
        <time>2018-05-19T13:57:49Z</time>
      </trkpt>
      <trkpt lat="43.1309401151" lon="-4.1791631095">
        <ele>559.14</ele>
        <time>2018-05-19T13:57:52Z</time>
      </trkpt>
      <trkpt lat="43.1309118681" lon="-4.1789921187">
        <ele>559.14</ele>
        <time>2018-05-19T13:57:55Z</time>
      </trkpt>
      <trkpt lat="43.1308860518" lon="-4.1788271628">
        <ele>559.14</ele>
        <time>2018-05-19T13:57:58Z</time>
      </trkpt>
      <trkpt lat="43.1308621634" lon="-4.1786684934">
        <ele>559.14</ele>
        <time>2018-05-19T13:58:01Z</time>
      </trkpt>
      <trkpt lat="43.1308452319" lon="-4.1785232350">
        <ele>559.14</ele>
        <time>2018-05-19T13:58:04Z</time>
      </trkpt>
      <trkpt lat="43.1308209244" lon="-4.1783687565">
        <ele>559.14</ele>
        <time>2018-05-19T13:58:07Z</time>
      </trkpt>
      <trkpt lat="43.1307927612" lon="-4.1782487277">
        <ele>558.66</ele>
        <time>2018-05-19T13:58:09Z</time>
      </trkpt>
      <trkpt lat="43.1307513546" lon="-4.1780869570">
        <ele>558.18</ele>
        <time>2018-05-19T13:58:12Z</time>
      </trkpt>
      <trkpt lat="43.1307172403" lon="-4.1779173911">
        <ele>557.70</ele>
        <time>2018-05-19T13:58:15Z</time>
      </trkpt>
      <trkpt lat="43.1306921784" lon="-4.1777369287">
        <ele>557.70</ele>
        <time>2018-05-19T13:58:18Z</time>
      </trkpt>
      <trkpt lat="43.1306729838" lon="-4.1776039917">
        <ele>557.70</ele>
        <time>2018-05-19T13:58:20Z</time>
      </trkpt>
      <trkpt lat="43.1306675356" lon="-4.1774404608">
        <ele>557.70</ele>
        <time>2018-05-19T13:58:23Z</time>
      </trkpt>
      <trkpt lat="43.1306791864" lon="-4.1772675421">
        <ele>557.70</ele>
        <time>2018-05-19T13:58:26Z</time>
      </trkpt>
      <trkpt lat="43.1307032425" lon="-4.1770934500">
        <ele>557.70</ele>
        <time>2018-05-19T13:58:29Z</time>
      </trkpt>
      <trkpt lat="43.1307272986" lon="-4.1769486107">
        <ele>557.70</ele>
        <time>2018-05-19T13:58:32Z</time>
      </trkpt>
      <trkpt lat="43.1307579763" lon="-4.1767803859">
        <ele>557.70</ele>
        <time>2018-05-19T13:58:35Z</time>
      </trkpt>
      <trkpt lat="43.1307895761" lon="-4.1766045336">
        <ele>557.70</ele>
        <time>2018-05-19T13:58:38Z</time>
      </trkpt>
      <trkpt lat="43.1308120396" lon="-4.1764859296">
        <ele>557.22</ele>
        <time>2018-05-19T13:58:40Z</time>
      </trkpt>
      <trkpt lat="43.1308377720" lon="-4.1763384920">
        <ele>557.22</ele>
        <time>2018-05-19T13:58:43Z</time>
      </trkpt>
      <trkpt lat="43.1308640912" lon="-4.1761974245">
        <ele>558.66</ele>
        <time>2018-05-19T13:58:46Z</time>
      </trkpt>
      <trkpt lat="43.1308852974" lon="-4.1760529205">
        <ele>558.66</ele>
        <time>2018-05-19T13:58:49Z</time>
      </trkpt>
      <trkpt lat="43.1308871415" lon="-4.1759154573">
        <ele>559.14</ele>
        <time>2018-05-19T13:58:52Z</time>
      </trkpt>
      <trkpt lat="43.1308795977" lon="-4.1757672653">
        <ele>559.14</ele>
        <time>2018-05-19T13:58:55Z</time>
      </trkpt>
      <trkpt lat="43.1308666058" lon="-4.1756147146">
        <ele>559.14</ele>
        <time>2018-05-19T13:58:58Z</time>
      </trkpt>
      <trkpt lat="43.1308415439" lon="-4.1754612420">
        <ele>559.14</ele>
        <time>2018-05-19T13:59:01Z</time>
      </trkpt>
      <trkpt lat="43.1308112014" lon="-4.1753280535">
        <ele>559.62</ele>
        <time>2018-05-19T13:59:04Z</time>
      </trkpt>
      <trkpt lat="43.1307722256" lon="-4.1751530394">
        <ele>560.11</ele>
        <time>2018-05-19T13:59:08Z</time>
      </trkpt>
      <trkpt lat="43.1307293102" lon="-4.1749969684">
        <ele>560.11</ele>
        <time>2018-05-19T13:59:12Z</time>
      </trkpt>
      <trkpt lat="43.1306881551" lon="-4.1748587508">
        <ele>561.55</ele>
        <time>2018-05-19T13:59:16Z</time>
      </trkpt>
      <trkpt lat="43.1306515262" lon="-4.1747124866">
        <ele>562.03</ele>
        <time>2018-05-19T13:59:20Z</time>
      </trkpt>
      <trkpt lat="43.1306345947" lon="-4.1745644622">
        <ele>562.99</ele>
        <time>2018-05-19T13:59:24Z</time>
      </trkpt>
      <trkpt lat="43.1306221895" lon="-4.1744181979">
        <ele>563.95</ele>
        <time>2018-05-19T13:59:28Z</time>
      </trkpt>
      <trkpt lat="43.1306171604" lon="-4.1742595285">
        <ele>564.43</ele>
        <time>2018-05-19T13:59:32Z</time>
      </trkpt>
      <trkpt lat="43.1306078564" lon="-4.1741061397">
        <ele>564.43</ele>
        <time>2018-05-19T13:59:36Z</time>
      </trkpt>
      <trkpt lat="43.1305949483" lon="-4.1739405133">
        <ele>564.43</ele>
        <time>2018-05-19T13:59:40Z</time>
      </trkpt>
      <trkpt lat="43.1305853929" lon="-4.1737805028">
        <ele>565.39</ele>
        <time>2018-05-19T13:59:44Z</time>
      </trkpt>
      <trkpt lat="43.1305750832" lon="-4.1736455541">
        <ele>565.87</ele>
        <time>2018-05-19T13:59:48Z</time>
      </trkpt>
      <trkpt lat="43.1305569783" lon="-4.1735044867">
        <ele>566.35</ele>
        <time>2018-05-19T13:59:52Z</time>
      </trkpt>
      <trkpt lat="43.1305233669" lon="-4.1733609885">
        <ele>566.83</ele>
        <time>2018-05-19T13:59:56Z</time>
      </trkpt>
      <trkpt lat="43.1304799486" lon="-4.1732255369">
        <ele>567.32</ele>
        <time>2018-05-19T14:00:00Z</time>
      </trkpt>
      <trkpt lat="43.1304233707" lon="-4.1731001437">
        <ele>567.80</ele>
        <time>2018-05-19T14:00:04Z</time>
      </trkpt>
      <trkpt lat="43.1303487718" lon="-4.1730136424">
        <ele>568.28</ele>
        <time>2018-05-19T14:00:08Z</time>
      </trkpt>
      <trkpt lat="43.1302638631" lon="-4.1729658656">
        <ele>569.24</ele>
        <time>2018-05-19T14:00:12Z</time>
      </trkpt>
      <trkpt lat="43.1301636994" lon="-4.1729058512">
        <ele>569.24</ele>
        <time>2018-05-19T14:00:16Z</time>
      </trkpt>
      <trkpt lat="43.1300850771" lon="-4.1728275642">
        <ele>569.72</ele>
        <time>2018-05-19T14:00:20Z</time>
      </trkpt>
      <trkpt lat="43.1300046947" lon="-4.1727607604">
        <ele>570.68</ele>
        <time>2018-05-19T14:00:24Z</time>
      </trkpt>
      <trkpt lat="43.1299010105" lon="-4.1726745106">
        <ele>571.64</ele>
        <time>2018-05-19T14:00:29Z</time>
      </trkpt>
      <trkpt lat="43.1298295967" lon="-4.1725678090">
        <ele>572.12</ele>
        <time>2018-05-19T14:00:33Z</time>
      </trkpt>
      <trkpt lat="43.1297929678" lon="-4.1724386439">
        <ele>572.12</ele>
        <time>2018-05-19T14:00:36Z</time>
      </trkpt>
      <trkpt lat="43.1297493819" lon="-4.1722835787">
        <ele>572.12</ele>
        <time>2018-05-19T14:00:39Z</time>
      </trkpt>
      <trkpt lat="43.1297144294" lon="-4.1721546650">
        <ele>572.12</ele>
        <time>2018-05-19T14:00:42Z</time>
      </trkpt>
      <trkpt lat="43.1296678260" lon="-4.1720087361">
        <ele>572.12</ele>
        <time>2018-05-19T14:00:45Z</time>
      </trkpt>
      <trkpt lat="43.1296324544" lon="-4.1718584485">
        <ele>572.60</ele>
        <time>2018-05-19T14:00:48Z</time>
      </trkpt>
      <trkpt lat="43.1296083145" lon="-4.1716827638">
        <ele>572.60</ele>
        <time>2018-05-19T14:00:51Z</time>
      </trkpt>
      <trkpt lat="43.1295876950" lon="-4.1715048160">
        <ele>572.60</ele>
        <time>2018-05-19T14:00:54Z</time>
      </trkpt>
      <trkpt lat="43.1295599509" lon="-4.1713311430">
        <ele>572.60</ele>
        <time>2018-05-19T14:00:57Z</time>
      </trkpt>
      <trkpt lat="43.1295408402" lon="-4.1711469088">
        <ele>573.08</ele>
        <time>2018-05-19T14:01:00Z</time>
      </trkpt>
      <trkpt lat="43.1295276806" lon="-4.1709747445">
        <ele>573.08</ele>
        <time>2018-05-19T14:01:03Z</time>
      </trkpt>
      <trkpt lat="43.1294969190" lon="-4.1708049271">
        <ele>573.08</ele>
        <time>2018-05-19T14:01:06Z</time>
      </trkpt>
      <trkpt lat="43.1294395030" lon="-4.1706257220">
        <ele>573.08</ele>
        <time>2018-05-19T14:01:09Z</time>
      </trkpt>
      <trkpt lat="43.1293929834" lon="-4.1705076210">
        <ele>573.08</ele>
        <time>2018-05-19T14:01:11Z</time>
      </trkpt>
      <trkpt lat="43.1293100864" lon="-4.1703668050">
        <ele>573.08</ele>
        <time>2018-05-19T14:01:14Z</time>
      </trkpt>
      <trkpt lat="43.1292235851" lon="-4.1702444293">
        <ele>573.08</ele>
        <time>2018-05-19T14:01:17Z</time>
      </trkpt>
      <trkpt lat="43.1291380897" lon="-4.1701342911">
        <ele>573.08</ele>
        <time>2018-05-19T14:01:20Z</time>
      </trkpt>
      <trkpt lat="43.1290535163" lon="-4.1700216383">
        <ele>574.04</ele>
        <time>2018-05-19T14:01:23Z</time>
      </trkpt>
      <trkpt lat="43.1289926637" lon="-4.1699102428">
        <ele>574.53</ele>
        <time>2018-05-19T14:01:26Z</time>
      </trkpt>
      <trkpt lat="43.1289450545" lon="-4.1697844304">
        <ele>575.49</ele>
        <time>2018-05-19T14:01:29Z</time>
      </trkpt>
      <trkpt lat="43.1289261114" lon="-4.1696394235">
        <ele>575.49</ele>
        <time>2018-05-19T14:01:32Z</time>
      </trkpt>
      <trkpt lat="43.1288886443" lon="-4.1694537643">
        <ele>575.97</ele>
        <time>2018-05-19T14:01:36Z</time>
      </trkpt>
      <trkpt lat="43.1288564578" lon="-4.1693154629">
        <ele>575.97</ele>
        <time>2018-05-19T14:01:39Z</time>
      </trkpt>
      <trkpt lat="43.1288195774" lon="-4.1691864654">
        <ele>576.45</ele>
        <time>2018-05-19T14:01:42Z</time>
      </trkpt>
      <trkpt lat="43.1287775002" lon="-4.1690630838">
        <ele>577.41</ele>
        <time>2018-05-19T14:01:45Z</time>
      </trkpt>
      <trkpt lat="43.1287224311" lon="-4.1689334996">
        <ele>577.89</ele>
        <time>2018-05-19T14:01:49Z</time>
      </trkpt>
      <trkpt lat="43.1286576390" lon="-4.1688012332">
        <ele>579.33</ele>
        <time>2018-05-19T14:01:53Z</time>
      </trkpt>
      <trkpt lat="43.1285980437" lon="-4.1686879937">
        <ele>580.29</ele>
        <time>2018-05-19T14:01:57Z</time>
      </trkpt>
      <trkpt lat="43.1285209302" lon="-4.1685654502">
        <ele>581.25</ele>
        <time>2018-05-19T14:02:02Z</time>
      </trkpt>
      <trkpt lat="43.1284344289" lon="-4.1684707347">
        <ele>582.22</ele>
        <time>2018-05-19T14:02:06Z</time>
      </trkpt>
      <trkpt lat="43.1283339299" lon="-4.1683723312">
        <ele>582.70</ele>
        <time>2018-05-19T14:02:10Z</time>
      </trkpt>
      <trkpt lat="43.1282506138" lon="-4.1682842374">
        <ele>582.70</ele>
        <time>2018-05-19T14:02:13Z</time>
      </trkpt>
      <trkpt lat="43.1281760149" lon="-4.1681502108">
        <ele>582.70</ele>
        <time>2018-05-19T14:02:16Z</time>
      </trkpt>
      <trkpt lat="43.1281230412" lon="-4.1679808963">
        <ele>581.25</ele>
        <time>2018-05-19T14:02:19Z</time>
      </trkpt>
      <trkpt lat="43.1280932855" lon="-4.1678568441">
        <ele>580.29</ele>
        <time>2018-05-19T14:02:21Z</time>
      </trkpt>
      <trkpt lat="43.1280533038" lon="-4.1676817462">
        <ele>580.29</ele>
        <time>2018-05-19T14:02:24Z</time>
      </trkpt>
      <trkpt lat="43.1280285772" lon="-4.1675557662">
        <ele>580.29</ele>
        <time>2018-05-19T14:02:26Z</time>
      </trkpt>
      <trkpt lat="43.1280075386" lon="-4.1673960071">
        <ele>580.29</ele>
        <time>2018-05-19T14:02:29Z</time>
      </trkpt>
      <trkpt lat="43.1279994920" lon="-4.1672267765">
        <ele>580.29</ele>
        <time>2018-05-19T14:02:32Z</time>
      </trkpt>
      <trkpt lat="43.1279989891" lon="-4.1670397762">
        <ele>580.29</ele>
        <time>2018-05-19T14:02:35Z</time>
      </trkpt>
      <trkpt lat="43.1280077063" lon="-4.1668609902">
        <ele>580.29</ele>
        <time>2018-05-19T14:02:38Z</time>
      </trkpt>
      <trkpt lat="43.1280058622" lon="-4.1667119600">
        <ele>580.29</ele>
        <time>2018-05-19T14:02:41Z</time>
      </trkpt>
      <trkpt lat="43.1280231290" lon="-4.1665169131">
        <ele>580.29</ele>
        <time>2018-05-19T14:02:44Z</time>
      </trkpt>
      <trkpt lat="43.1280447543" lon="-4.1663769353">
        <ele>580.29</ele>
        <time>2018-05-19T14:02:46Z</time>
      </trkpt>
      <trkpt lat="43.1280652061" lon="-4.1661990713">
        <ele>581.73</ele>
        <time>2018-05-19T14:02:49Z</time>
      </trkpt>
      <trkpt lat="43.1280537229" lon="-4.1660337802">
        <ele>582.22</ele>
        <time>2018-05-19T14:02:52Z</time>
      </trkpt>
      <trkpt lat="43.1279968936" lon="-4.1658882704">
        <ele>582.22</ele>
        <time>2018-05-19T14:02:55Z</time>
      </trkpt>
      <trkpt lat="43.1279287487" lon="-4.1657874361">
        <ele>583.18</ele>
        <time>2018-05-19T14:02:58Z</time>
      </trkpt>
      <trkpt lat="43.1278502103" lon="-4.1656909604">
        <ele>583.18</ele>
        <time>2018-05-19T14:03:01Z</time>
      </trkpt>
      <trkpt lat="43.1277677324" lon="-4.1655894555">
        <ele>583.18</ele>
        <time>2018-05-19T14:03:04Z</time>
      </trkpt>
      <trkpt lat="43.1276834104" lon="-4.1655021161">
        <ele>583.66</ele>
        <time>2018-05-19T14:03:07Z</time>
      </trkpt>
      <trkpt lat="43.1275930535" lon="-4.1654309537">
        <ele>584.14</ele>
        <time>2018-05-19T14:03:10Z</time>
      </trkpt>
      <trkpt lat="43.1275000982" lon="-4.1653620545">
        <ele>584.14</ele>
        <time>2018-05-19T14:03:13Z</time>
      </trkpt>
      <trkpt lat="43.1274001859" lon="-4.1652836837">
        <ele>584.62</ele>
        <time>2018-05-19T14:03:16Z</time>
      </trkpt>
      <trkpt lat="43.1273153611" lon="-4.1652092524">
        <ele>585.10</ele>
        <time>2018-05-19T14:03:19Z</time>
      </trkpt>
      <trkpt lat="43.1272307876" lon="-4.1651289538">
        <ele>585.58</ele>
        <time>2018-05-19T14:03:22Z</time>
      </trkpt>
      <trkpt lat="43.1271395087" lon="-4.1650470626">
        <ele>585.58</ele>
        <time>2018-05-19T14:03:25Z</time>
      </trkpt>
      <trkpt lat="43.1270556059" lon="-4.1649689432">
        <ele>586.06</ele>
        <time>2018-05-19T14:03:28Z</time>
      </trkpt>
      <trkpt lat="43.1269717868" lon="-4.1648904886">
        <ele>586.06</ele>
        <time>2018-05-19T14:03:31Z</time>
      </trkpt>
      <trkpt lat="43.1268948410" lon="-4.1647995450">
        <ele>587.02</ele>
        <time>2018-05-19T14:03:34Z</time>
      </trkpt>
      <trkpt lat="43.1268173084" lon="-4.1647225153">
        <ele>587.02</ele>
        <time>2018-05-19T14:03:37Z</time>
      </trkpt>
      <trkpt lat="43.1267347466" lon="-4.1646349244">
        <ele>587.98</ele>
        <time>2018-05-19T14:03:40Z</time>
      </trkpt>
      <trkpt lat="43.1266588066" lon="-4.1645459086">
        <ele>587.98</ele>
        <time>2018-05-19T14:03:43Z</time>
      </trkpt>
      <trkpt lat="43.1265793461" lon="-4.1644538753">
        <ele>588.46</ele>
        <time>2018-05-19T14:03:46Z</time>
      </trkpt>
      <trkpt lat="43.1264982931" lon="-4.1643670388">
        <ele>588.95</ele>
        <time>2018-05-19T14:03:49Z</time>
      </trkpt>
      <trkpt lat="43.1264160667" lon="-4.1642731614">
        <ele>588.95</ele>
        <time>2018-05-19T14:03:52Z</time>
      </trkpt>
      <trkpt lat="43.1263314094" lon="-4.1641768534">
        <ele>588.95</ele>
        <time>2018-05-19T14:03:55Z</time>
      </trkpt>
      <trkpt lat="43.1262347661" lon="-4.1640922800">
        <ele>588.95</ele>
        <time>2018-05-19T14:03:58Z</time>
      </trkpt>
      <trkpt lat="43.1261315849" lon="-4.1640173458">
        <ele>588.95</ele>
        <time>2018-05-19T14:04:01Z</time>
      </trkpt>
      <trkpt lat="43.1260325108" lon="-4.1639561579">
        <ele>588.95</ele>
        <time>2018-05-19T14:04:04Z</time>
      </trkpt>
      <trkpt lat="43.1259351969" lon="-4.1638756916">
        <ele>588.95</ele>
        <time>2018-05-19T14:04:07Z</time>
      </trkpt>
      <trkpt lat="43.1258804630" lon="-4.1637474485">
        <ele>589.43</ele>
        <time>2018-05-19T14:04:10Z</time>
      </trkpt>
      <trkpt lat="43.1258466002" lon="-4.1635994241">
        <ele>589.91</ele>
        <time>2018-05-19T14:04:13Z</time>
      </trkpt>
      <trkpt lat="43.1257863343" lon="-4.1634686664">
        <ele>589.91</ele>
        <time>2018-05-19T14:04:16Z</time>
      </trkpt>
      <trkpt lat="43.1257057004" lon="-4.1633853503">
        <ele>590.39</ele>
        <time>2018-05-19T14:04:19Z</time>
      </trkpt>
      <trkpt lat="43.1256129965" lon="-4.1633201391">
        <ele>591.83</ele>
        <time>2018-05-19T14:04:22Z</time>
      </trkpt>
      <trkpt lat="43.1255093962" lon="-4.1632467974">
        <ele>592.31</ele>
        <time>2018-05-19T14:04:26Z</time>
      </trkpt>
      <trkpt lat="43.1254084781" lon="-4.1631646547">
        <ele>593.75</ele>
        <time>2018-05-19T14:04:30Z</time>
      </trkpt>
      <trkpt lat="43.1253055483" lon="-4.1630899720">
        <ele>594.23</ele>
        <time>2018-05-19T14:04:34Z</time>
      </trkpt>
      <trkpt lat="43.1252124254" lon="-4.1629891377">
        <ele>594.71</ele>
        <time>2018-05-19T14:04:38Z</time>
      </trkpt>
      <trkpt lat="43.1251364853" lon="-4.1629168019">
        <ele>595.19</ele>
        <time>2018-05-19T14:04:41Z</time>
      </trkpt>
      <trkpt lat="43.1250288617" lon="-4.1628234275">
        <ele>595.67</ele>
        <time>2018-05-19T14:04:45Z</time>
      </trkpt>
      <trkpt lat="43.1249486469" lon="-4.1627486609">
        <ele>595.67</ele>
        <time>2018-05-19T14:04:48Z</time>
      </trkpt>
      <trkpt lat="43.1248666719" lon="-4.1626741458">
        <ele>596.15</ele>
        <time>2018-05-19T14:04:51Z</time>
      </trkpt>
      <trkpt lat="43.1247850321" lon="-4.1626013070">
        <ele>596.64</ele>
        <time>2018-05-19T14:04:54Z</time>
      </trkpt>
      <trkpt lat="43.1247005425" lon="-4.1625365987">
        <ele>596.64</ele>
        <time>2018-05-19T14:04:57Z</time>
      </trkpt>
      <trkpt lat="43.1246045697" lon="-4.1624666937">
        <ele>597.12</ele>
        <time>2018-05-19T14:05:00Z</time>
      </trkpt>
      <trkpt lat="43.1245035678" lon="-4.1623838805">
        <ele>597.12</ele>
        <time>2018-05-19T14:05:03Z</time>
      </trkpt>
      <trkpt lat="43.1244105287" lon="-4.1623115446">
        <ele>597.12</ele>
        <time>2018-05-19T14:05:06Z</time>
      </trkpt>
      <trkpt lat="43.1243180763" lon="-4.1622428130">
        <ele>597.60</ele>
        <time>2018-05-19T14:05:09Z</time>
      </trkpt>
      <trkpt lat="43.1242361851" lon="-4.1621592455">
        <ele>598.08</ele>
        <time>2018-05-19T14:05:12Z</time>
      </trkpt>
      <trkpt lat="43.1241438165" lon="-4.1620467603">
        <ele>599.04</ele>
        <time>2018-05-19T14:05:16Z</time>
      </trkpt>
      <trkpt lat="43.1240760069" lon="-4.1619543917">
        <ele>599.52</ele>
        <time>2018-05-19T14:05:19Z</time>
      </trkpt>
      <trkpt lat="43.1240110472" lon="-4.1618557367">
        <ele>599.52</ele>
        <time>2018-05-19T14:05:22Z</time>
      </trkpt>
      <trkpt lat="43.1239413936" lon="-4.1617493704">
        <ele>600.00</ele>
        <time>2018-05-19T14:05:25Z</time>
      </trkpt>
      <trkpt lat="43.1238753442" lon="-4.1616265755">
        <ele>600.48</ele>
        <time>2018-05-19T14:05:29Z</time>
      </trkpt>
      <trkpt lat="43.1238103844" lon="-4.1614898667">
        <ele>601.44</ele>
        <time>2018-05-19T14:05:33Z</time>
      </trkpt>
      <trkpt lat="43.1237614341" lon="-4.1613501403">
        <ele>602.88</ele>
        <time>2018-05-19T14:05:37Z</time>
      </trkpt>
      <trkpt lat="43.1236940436" lon="-4.1612151079">
        <ele>603.36</ele>
        <time>2018-05-19T14:05:41Z</time>
      </trkpt>
      <trkpt lat="43.1236264855" lon="-4.1611018684">
        <ele>603.36</ele>
        <time>2018-05-19T14:05:44Z</time>
      </trkpt>
      <trkpt lat="43.1235480309" lon="-4.1609976813">
        <ele>603.36</ele>
        <time>2018-05-19T14:05:47Z</time>
      </trkpt>
      <trkpt lat="43.1234487053" lon="-4.1608837713">
        <ele>603.36</ele>
        <time>2018-05-19T14:05:51Z</time>
      </trkpt>
      <trkpt lat="43.1233471166" lon="-4.1608147044">
        <ele>603.36</ele>
        <time>2018-05-19T14:05:54Z</time>
      </trkpt>
      <trkpt lat="43.1232288480" lon="-4.1607451346">
        <ele>603.36</ele>
        <time>2018-05-19T14:05:57Z</time>
      </trkpt>
      <trkpt lat="43.1231177039" lon="-4.1606846172">
        <ele>603.36</ele>
        <time>2018-05-19T14:06:00Z</time>
      </trkpt>
      <trkpt lat="43.1230136845" lon="-4.1606205795">
        <ele>603.85</ele>
        <time>2018-05-19T14:06:03Z</time>
      </trkpt>
      <trkpt lat="43.1229061447" lon="-4.1605584696">
        <ele>603.85</ele>
        <time>2018-05-19T14:06:06Z</time>
      </trkpt>
      <trkpt lat="43.1228043046" lon="-4.1604823619">
        <ele>604.81</ele>
        <time>2018-05-19T14:06:09Z</time>
      </trkpt>
      <trkpt lat="43.1227194797" lon="-4.1604153905">
        <ele>605.29</ele>
        <time>2018-05-19T14:06:12Z</time>
      </trkpt>
      <trkpt lat="43.1226313021" lon="-4.1603350919">
        <ele>605.77</ele>
        <time>2018-05-19T14:06:15Z</time>
      </trkpt>
      <trkpt lat="43.1225515902" lon="-4.1602495126">
        <ele>606.25</ele>
        <time>2018-05-19T14:06:18Z</time>
      </trkpt>
      <trkpt lat="43.1224785000" lon="-4.1601563897">
        <ele>606.25</ele>
        <time>2018-05-19T14:06:21Z</time>
      </trkpt>
      <trkpt lat="43.1223968603" lon="-4.1600674577">
        <ele>606.73</ele>
        <time>2018-05-19T14:06:24Z</time>
      </trkpt>
      <trkpt lat="43.1223153882" lon="-4.1599752568">
        <ele>607.21</ele>
        <time>2018-05-19T14:06:27Z</time>
      </trkpt>
      <trkpt lat="43.1222405378" lon="-4.1598716564">
        <ele>607.69</ele>
        <time>2018-05-19T14:06:30Z</time>
      </trkpt>
      <trkpt lat="43.1221494265" lon="-4.1597570758">
        <ele>608.65</ele>
        <time>2018-05-19T14:06:34Z</time>
      </trkpt>
      <trkpt lat="43.1220599078" lon="-4.1596552357">
        <ele>609.61</ele>
        <time>2018-05-19T14:06:38Z</time>
      </trkpt>
      <trkpt lat="43.1219758373" lon="-4.1595531441">
        <ele>610.57</ele>
        <time>2018-05-19T14:06:42Z</time>
      </trkpt>
      <trkpt lat="43.1218952034" lon="-4.1594378091">
        <ele>611.06</ele>
        <time>2018-05-19T14:06:46Z</time>
      </trkpt>
      <trkpt lat="43.1218108814" lon="-4.1593305208">
        <ele>612.02</ele>
        <time>2018-05-19T14:06:50Z</time>
      </trkpt>
      <trkpt lat="43.1217263080" lon="-4.1592362244">
        <ele>612.02</ele>
        <time>2018-05-19T14:06:54Z</time>
      </trkpt>
      <trkpt lat="43.1216476858" lon="-4.1591575183">
        <ele>612.02</ele>
        <time>2018-05-19T14:06:57Z</time>
      </trkpt>
      <trkpt lat="43.1215569098" lon="-4.1590969171">
        <ele>612.50</ele>
        <time>2018-05-19T14:07:00Z</time>
      </trkpt>
      <trkpt lat="43.1214622781" lon="-4.1590480506">
        <ele>612.50</ele>
        <time>2018-05-19T14:07:03Z</time>
      </trkpt>
      <trkpt lat="43.1213660538" lon="-4.1589968372">
        <ele>612.98</ele>
        <time>2018-05-19T14:07:06Z</time>
      </trkpt>
      <trkpt lat="43.1212654710" lon="-4.1589398403">
        <ele>613.46</ele>
        <time>2018-05-19T14:07:09Z</time>
      </trkpt>
      <trkpt lat="43.1211474538" lon="-4.1588820051">
        <ele>612.98</ele>
        <time>2018-05-19T14:07:12Z</time>
      </trkpt>
      <trkpt lat="43.1210356392" lon="-4.1588321328">
        <ele>612.02</ele>
        <time>2018-05-19T14:07:15Z</time>
      </trkpt>
      <trkpt lat="43.1209509820" lon="-4.1587981023">
        <ele>612.02</ele>
        <time>2018-05-19T14:07:17Z</time>
      </trkpt>
      <trkpt lat="43.1208601221" lon="-4.1587658320">
        <ele>612.02</ele>
        <time>2018-05-19T14:07:19Z</time>
      </trkpt>
      <trkpt lat="43.1207729504" lon="-4.1587349027">
        <ele>612.02</ele>
        <time>2018-05-19T14:07:21Z</time>
      </trkpt>
      <trkpt lat="43.1206581183" lon="-4.1586933285">
        <ele>612.02</ele>
        <time>2018-05-19T14:07:24Z</time>
      </trkpt>
      <trkpt lat="43.1205380056" lon="-4.1586416122">
        <ele>612.02</ele>
        <time>2018-05-19T14:07:27Z</time>
      </trkpt>
      <trkpt lat="43.1204185635" lon="-4.1585890576">
        <ele>612.02</ele>
        <time>2018-05-19T14:07:30Z</time>
      </trkpt>
      <trkpt lat="43.1202932540" lon="-4.1585317254">
        <ele>612.98</ele>
        <time>2018-05-19T14:07:33Z</time>
      </trkpt>
      <trkpt lat="43.1201901566" lon="-4.1584794223">
        <ele>612.98</ele>
        <time>2018-05-19T14:07:36Z</time>
      </trkpt>
      <trkpt lat="43.1200838741" lon="-4.1584233474">
        <ele>613.46</ele>
        <time>2018-05-19T14:07:39Z</time>
      </trkpt>
      <trkpt lat="43.1199887395" lon="-4.1583626624">
        <ele>613.94</ele>
        <time>2018-05-19T14:07:42Z</time>
      </trkpt>
      <trkpt lat="43.1199007295" lon="-4.1582931764">
        <ele>614.90</ele>
        <time>2018-05-19T14:07:45Z</time>
      </trkpt>
      <trkpt lat="43.1198266335" lon="-4.1582105309">
        <ele>615.38</ele>
        <time>2018-05-19T14:07:48Z</time>
      </trkpt>
      <trkpt lat="43.1197526213" lon="-4.1581257898">
        <ele>615.86</ele>
        <time>2018-05-19T14:07:51Z</time>
      </trkpt>
      <trkpt lat="43.1196796149" lon="-4.1580309067">
        <ele>616.34</ele>
        <time>2018-05-19T14:07:54Z</time>
      </trkpt>
      <trkpt lat="43.1195968855" lon="-4.1579157393">
        <ele>616.82</ele>
        <time>2018-05-19T14:07:58Z</time>
      </trkpt>
      <trkpt lat="43.1195088755" lon="-4.1578099597">
        <ele>618.26</ele>
        <time>2018-05-19T14:08:02Z</time>
      </trkpt>
      <trkpt lat="43.1194214523" lon="-4.1576970555">
        <ele>618.75</ele>
        <time>2018-05-19T14:08:06Z</time>
      </trkpt>
      <trkpt lat="43.1193428300" lon="-4.1575794574">
        <ele>619.71</ele>
        <time>2018-05-19T14:08:10Z</time>
      </trkpt>
      <trkpt lat="43.1192782056" lon="-4.1574438382">
        <ele>620.19</ele>
        <time>2018-05-19T14:08:14Z</time>
      </trkpt>
      <trkpt lat="43.1192217115" lon="-4.1573063750">
        <ele>620.67</ele>
        <time>2018-05-19T14:08:18Z</time>
      </trkpt>
      <trkpt lat="43.1191707496" lon="-4.1571614519">
        <ele>620.67</ele>
        <time>2018-05-19T14:08:22Z</time>
      </trkpt>
      <trkpt lat="43.1191247329" lon="-4.1570209712">
        <ele>621.15</ele>
        <time>2018-05-19T14:08:26Z</time>
      </trkpt>
      <trkpt lat="43.1190774590" lon="-4.1568844300">
        <ele>622.11</ele>
        <time>2018-05-19T14:08:30Z</time>
      </trkpt>
      <trkpt lat="43.1190370582" lon="-4.1567342263">
        <ele>623.07</ele>
        <time>2018-05-19T14:08:34Z</time>
      </trkpt>
      <trkpt lat="43.1190024409" lon="-4.1565881297">
        <ele>624.03</ele>
        <time>2018-05-19T14:08:38Z</time>
      </trkpt>
      <trkpt lat="43.1189633813" lon="-4.1564359982">
        <ele>624.03</ele>
        <time>2018-05-19T14:08:42Z</time>
      </trkpt>
      <trkpt lat="43.1188985892" lon="-4.1563044023">
        <ele>624.51</ele>
        <time>2018-05-19T14:08:46Z</time>
      </trkpt>
      <trkpt lat="43.1188354734" lon="-4.1562107764">
        <ele>624.51</ele>
        <time>2018-05-19T14:08:49Z</time>
      </trkpt>
      <trkpt lat="43.1187591981" lon="-4.1561320703">
        <ele>624.99</ele>
        <time>2018-05-19T14:08:52Z</time>
      </trkpt>
      <trkpt lat="43.1186760496" lon="-4.1560683679">
        <ele>624.99</ele>
        <time>2018-05-19T14:08:55Z</time>
      </trkpt>
      <trkpt lat="43.1185723655" lon="-4.1559891589">
        <ele>625.96</ele>
        <time>2018-05-19T14:08:59Z</time>
      </trkpt>
      <trkpt lat="43.1184706930" lon="-4.1558982152">
        <ele>627.40</ele>
        <time>2018-05-19T14:09:03Z</time>
      </trkpt>
      <trkpt lat="43.1183990277" lon="-4.1557866521">
        <ele>627.40</ele>
        <time>2018-05-19T14:09:07Z</time>
      </trkpt>
      <trkpt lat="43.1183347385" lon="-4.1556488536">
        <ele>627.88</ele>
        <time>2018-05-19T14:09:11Z</time>
      </trkpt>
      <trkpt lat="43.1182652526" lon="-4.1555023380">
        <ele>627.88</ele>
        <time>2018-05-19T14:09:15Z</time>
      </trkpt>
      <trkpt lat="43.1181984488" lon="-4.1553951334">
        <ele>627.88</ele>
        <time>2018-05-19T14:09:18Z</time>
      </trkpt>
      <trkpt lat="43.1181208324" lon="-4.1552740987">
        <ele>627.88</ele>
        <time>2018-05-19T14:09:21Z</time>
      </trkpt>
      <trkpt lat="43.1180342473" lon="-4.1551419161">
        <ele>628.36</ele>
        <time>2018-05-19T14:09:24Z</time>
      </trkpt>
      <trkpt lat="43.1179780886" lon="-4.1550162714">
        <ele>628.36</ele>
        <time>2018-05-19T14:09:27Z</time>
      </trkpt>
      <trkpt lat="43.1179184932" lon="-4.1548973322">
        <ele>628.84</ele>
        <time>2018-05-19T14:09:30Z</time>
      </trkpt>
      <trkpt lat="43.1178607419" lon="-4.1547918040">
        <ele>629.32</ele>
        <time>2018-05-19T14:09:33Z</time>
      </trkpt>
      <trkpt lat="43.1177643500" lon="-4.1547114216">
        <ele>629.80</ele>
        <time>2018-05-19T14:09:37Z</time>
      </trkpt>
      <trkpt lat="43.1176668685" lon="-4.1546715237">
        <ele>630.76</ele>
        <time>2018-05-19T14:09:41Z</time>
      </trkpt>
      <trkpt lat="43.1175610889" lon="-4.1546619684">
        <ele>631.72</ele>
        <time>2018-05-19T14:09:45Z</time>
      </trkpt>
      <trkpt lat="43.1174613442" lon="-4.1546424385">
        <ele>632.20</ele>
        <time>2018-05-19T14:09:49Z</time>
      </trkpt>
      <trkpt lat="43.1173646171" lon="-4.1546370741">
        <ele>632.68</ele>
        <time>2018-05-19T14:09:54Z</time>
      </trkpt>
      <trkpt lat="43.1172134914" lon="-4.1545270197">
        <ele>633.17</ele>
        <time>2018-05-19T14:10:49Z</time>
      </trkpt>
      <trkpt lat="43.1171485316" lon="-4.1546134371">
        <ele>634.61</ele>
        <time>2018-05-19T14:10:54Z</time>
      </trkpt>
      <trkpt lat="43.1171605177" lon="-4.1547565162">
        <ele>636.05</ele>
        <time>2018-05-19T14:10:59Z</time>
      </trkpt>
      <trkpt lat="43.1172001641" lon="-4.1548736114">
        <ele>637.49</ele>
        <time>2018-05-19T14:11:04Z</time>
      </trkpt>
      <trkpt lat="43.1172393076" lon="-4.1549795587">
        <ele>638.45</ele>
        <time>2018-05-19T14:11:09Z</time>
      </trkpt>
      <trkpt lat="43.1173010822" lon="-4.1551067960">
        <ele>638.93</ele>
        <time>2018-05-19T14:11:14Z</time>
      </trkpt>
      <trkpt lat="43.1173734181" lon="-4.1552152578">
        <ele>639.89</ele>
        <time>2018-05-19T14:11:19Z</time>
      </trkpt>
      <trkpt lat="43.1174590811" lon="-4.1552972328">
        <ele>641.34</ele>
        <time>2018-05-19T14:11:25Z</time>
      </trkpt>
      <trkpt lat="43.1175402179" lon="-4.1553740948">
        <ele>643.26</ele>
        <time>2018-05-19T14:11:31Z</time>
      </trkpt>
      <trkpt lat="43.1176355202" lon="-4.1554367915">
        <ele>644.70</ele>
        <time>2018-05-19T14:11:38Z</time>
      </trkpt>
      <trkpt lat="43.1177120470" lon="-4.1555697285">
        <ele>645.66</ele>
        <time>2018-05-19T14:11:45Z</time>
      </trkpt>
      <trkpt lat="43.1177457422" lon="-4.1557408031">
        <ele>647.10</ele>
        <time>2018-05-19T14:11:52Z</time>
      </trkpt>
      <trkpt lat="43.1177443173" lon="-4.1558913421">
        <ele>648.07</ele>
        <time>2018-05-19T14:11:57Z</time>
      </trkpt>
      <trkpt lat="43.1177300680" lon="-4.1560355946">
        <ele>648.07</ele>
        <time>2018-05-19T14:12:03Z</time>
      </trkpt>
      <trkpt lat="43.1176599953" lon="-4.1561127082">
        <ele>649.03</ele>
        <time>2018-05-19T14:12:10Z</time>
      </trkpt>
      <trkpt lat="43.1175683811" lon="-4.1560820304">
        <ele>650.95</ele>
        <time>2018-05-19T14:12:16Z</time>
      </trkpt>
      <trkpt lat="43.1174810417" lon="-4.1560003906">
        <ele>652.39</ele>
        <time>2018-05-19T14:12:22Z</time>
      </trkpt>
      <trkpt lat="43.1173915230" lon="-4.1559205949">
        <ele>653.35</ele>
        <time>2018-05-19T14:12:28Z</time>
      </trkpt>
      <trkpt lat="43.1173038483" lon="-4.1558501031">
        <ele>654.31</ele>
        <time>2018-05-19T14:12:34Z</time>
      </trkpt>
      <trkpt lat="43.1172138266" lon="-4.1557804495">
        <ele>655.28</ele>
        <time>2018-05-19T14:12:39Z</time>
      </trkpt>
      <trkpt lat="43.1171299238" lon="-4.1556883324">
        <ele>656.24</ele>
        <time>2018-05-19T14:12:45Z</time>
      </trkpt>
      <trkpt lat="43.1170484517" lon="-4.1556214448">
        <ele>657.20</ele>
        <time>2018-05-19T14:12:51Z</time>
      </trkpt>
      <trkpt lat="43.1169592682" lon="-4.1555496957">
        <ele>658.16</ele>
        <time>2018-05-19T14:12:57Z</time>
      </trkpt>
      <trkpt lat="43.1168850884" lon="-4.1554333549">
        <ele>659.60</ele>
        <time>2018-05-19T14:13:04Z</time>
      </trkpt>
      <trkpt lat="43.1167966593" lon="-4.1553140804">
        <ele>661.04</ele>
        <time>2018-05-19T14:13:10Z</time>
      </trkpt>
      <trkpt lat="43.1167114992" lon="-4.1552339494">
        <ele>661.04</ele>
        <time>2018-05-19T14:13:16Z</time>
      </trkpt>
      <trkpt lat="43.1166021153" lon="-4.1551572550">
        <ele>662.49</ele>
        <time>2018-05-19T14:13:22Z</time>
      </trkpt>
      <trkpt lat="43.1165002752" lon="-4.1550790519">
        <ele>663.93</ele>
        <time>2018-05-19T14:13:28Z</time>
      </trkpt>
      <trkpt lat="43.1164067332" lon="-4.1549995914">
        <ele>665.37</ele>
        <time>2018-05-19T14:13:34Z</time>
      </trkpt>
      <trkpt lat="43.1163112633" lon="-4.1549148504">
        <ele>666.81</ele>
        <time>2018-05-19T14:13:40Z</time>
      </trkpt>
      <trkpt lat="43.1162214931" lon="-4.1548266727">
        <ele>668.25</ele>
        <time>2018-05-19T14:13:46Z</time>
      </trkpt>
      <trkpt lat="43.1161549408" lon="-4.1547405068">
        <ele>669.22</ele>
        <time>2018-05-19T14:13:51Z</time>
      </trkpt>
      <trkpt lat="43.1160849519" lon="-4.1546428576">
        <ele>669.70</ele>
        <time>2018-05-19T14:13:56Z</time>
      </trkpt>
      <trkpt lat="43.1160184834" lon="-4.1545369104">
        <ele>670.66</ele>
        <time>2018-05-19T14:14:01Z</time>
      </trkpt>
      <trkpt lat="43.1159322336" lon="-4.1544226650">
        <ele>671.62</ele>
        <time>2018-05-19T14:14:07Z</time>
      </trkpt>
      <trkpt lat="43.1158541143" lon="-4.1543185618">
        <ele>672.10</ele>
        <time>2018-05-19T14:14:12Z</time>
      </trkpt>
      <trkpt lat="43.1157862209" lon="-4.1542266123">
        <ele>673.06</ele>
        <time>2018-05-19T14:14:17Z</time>
      </trkpt>
      <trkpt lat="43.1157174893" lon="-4.1541214194">
        <ele>674.50</ele>
        <time>2018-05-19T14:14:22Z</time>
      </trkpt>
      <trkpt lat="43.1156491768" lon="-4.1540110298">
        <ele>675.46</ele>
        <time>2018-05-19T14:14:28Z</time>
      </trkpt>
      <trkpt lat="43.1155687105" lon="-4.1539005563">
        <ele>676.42</ele>
        <time>2018-05-19T14:14:34Z</time>
      </trkpt>
      <trkpt lat="43.1154873222" lon="-4.1538146418">
        <ele>677.87</ele>
        <time>2018-05-19T14:14:40Z</time>
      </trkpt>
      <trkpt lat="43.1153892539" lon="-4.1537153162">
        <ele>679.31</ele>
        <time>2018-05-19T14:14:46Z</time>
      </trkpt>
      <trkpt lat="43.1152973045" lon="-4.1536093690">
        <ele>680.75</ele>
        <time>2018-05-19T14:14:52Z</time>
      </trkpt>
      <trkpt lat="43.1152061932" lon="-4.1535219457">
        <ele>681.71</ele>
        <time>2018-05-19T14:14:58Z</time>
      </trkpt>
      <trkpt lat="43.1151165068" lon="-4.1534311697">
        <ele>683.15</ele>
        <time>2018-05-19T14:15:04Z</time>
      </trkpt>
      <trkpt lat="43.1150323525" lon="-4.1533382144">
        <ele>684.60</ele>
        <time>2018-05-19T14:15:10Z</time>
      </trkpt>
      <trkpt lat="43.1149401516" lon="-4.1532533057">
        <ele>685.56</ele>
        <time>2018-05-19T14:15:16Z</time>
      </trkpt>
      <trkpt lat="43.1148326118" lon="-4.1531800479">
        <ele>686.04</ele>
        <time>2018-05-19T14:15:22Z</time>
      </trkpt>
      <trkpt lat="43.1147181988" lon="-4.1531162616">
        <ele>686.52</ele>
        <time>2018-05-19T14:15:27Z</time>
      </trkpt>
      <trkpt lat="43.1146155205" lon="-4.1530396510">
        <ele>686.52</ele>
        <time>2018-05-19T14:15:31Z</time>
      </trkpt>
      <trkpt lat="43.1145027000" lon="-4.1529482882">
        <ele>687.00</ele>
        <time>2018-05-19T14:15:35Z</time>
      </trkpt>
      <trkpt lat="43.1143920589" lon="-4.1528172791">
        <ele>687.00</ele>
        <time>2018-05-19T14:15:39Z</time>
      </trkpt>
      <trkpt lat="43.1143184658" lon="-4.1527173668">
        <ele>687.00</ele>
        <time>2018-05-19T14:15:42Z</time>
      </trkpt>
      <trkpt lat="43.1142338086" lon="-4.1526052170">
        <ele>687.96</ele>
        <time>2018-05-19T14:15:46Z</time>
      </trkpt>
      <trkpt lat="43.1141525880" lon="-4.1524985153">
        <ele>689.40</ele>
        <time>2018-05-19T14:15:50Z</time>
      </trkpt>
      <trkpt lat="43.1140740495" lon="-4.1523975134">
        <ele>690.84</ele>
        <time>2018-05-19T14:15:54Z</time>
      </trkpt>
      <trkpt lat="43.1139781605" lon="-4.1522877943">
        <ele>691.81</ele>
        <time>2018-05-19T14:15:59Z</time>
      </trkpt>
      <trkpt lat="43.1138875522" lon="-4.1522202361">
        <ele>692.29</ele>
        <time>2018-05-19T14:16:03Z</time>
      </trkpt>
      <trkpt lat="43.1137829460" lon="-4.1522111837">
        <ele>693.25</ele>
        <time>2018-05-19T14:16:07Z</time>
      </trkpt>
      <trkpt lat="43.1136842072" lon="-4.1522337310">
        <ele>693.25</ele>
        <time>2018-05-19T14:16:11Z</time>
      </trkpt>
      <trkpt lat="43.1135837920" lon="-4.1522603016">
        <ele>693.73</ele>
        <time>2018-05-19T14:16:15Z</time>
      </trkpt>
      <trkpt lat="43.1134642661" lon="-4.1522803344">
        <ele>695.17</ele>
        <time>2018-05-19T14:16:20Z</time>
      </trkpt>
      <trkpt lat="43.1133485120" lon="-4.1522891354">
        <ele>696.13</ele>
        <time>2018-05-19T14:16:25Z</time>
      </trkpt>
      <trkpt lat="43.1132430676" lon="-4.1522585414">
        <ele>697.09</ele>
        <time>2018-05-19T14:16:30Z</time>
      </trkpt>
      <trkpt lat="43.1131657865" lon="-4.1521987785">
        <ele>698.53</ele>
        <time>2018-05-19T14:16:35Z</time>
      </trkpt>
      <trkpt lat="43.1130842306" lon="-4.1521338187">
        <ele>699.98</ele>
        <time>2018-05-19T14:16:40Z</time>
      </trkpt>
      <trkpt lat="43.1129946280" lon="-4.1520328168">
        <ele>701.42</ele>
        <time>2018-05-19T14:16:46Z</time>
      </trkpt>
      <trkpt lat="43.1129205320" lon="-4.1519443039">
        <ele>702.38</ele>
        <time>2018-05-19T14:16:51Z</time>
      </trkpt>
      <trkpt lat="43.1128429994" lon="-4.1518652625">
        <ele>703.82</ele>
        <time>2018-05-19T14:16:56Z</time>
      </trkpt>
      <trkpt lat="43.1127556600" lon="-4.1518074274">
        <ele>705.26</ele>
        <time>2018-05-19T14:17:01Z</time>
      </trkpt>
      <trkpt lat="43.1126480363" lon="-4.1517557949">
        <ele>706.23</ele>
        <time>2018-05-19T14:17:07Z</time>
      </trkpt>
      <trkpt lat="43.1125454418" lon="-4.1517026536">
        <ele>708.15</ele>
        <time>2018-05-19T14:17:13Z</time>
      </trkpt>
      <trkpt lat="43.1124306936" lon="-4.1516912542">
        <ele>709.11</ele>
        <time>2018-05-19T14:17:18Z</time>
      </trkpt>
      <trkpt lat="43.1123084016" lon="-4.1517038271">
        <ele>710.07</ele>
        <time>2018-05-19T14:17:23Z</time>
      </trkpt>
      <trkpt lat="43.1121911388" lon="-4.1516959481">
        <ele>710.55</ele>
        <time>2018-05-19T14:17:28Z</time>
      </trkpt>
      <trkpt lat="43.1120732054" lon="-4.1516420525">
        <ele>710.07</ele>
        <time>2018-05-19T14:17:32Z</time>
      </trkpt>
      <trkpt lat="43.1119836029" lon="-4.1515590716">
        <ele>711.03</ele>
        <time>2018-05-19T14:17:36Z</time>
      </trkpt>
      <trkpt lat="43.1118990295" lon="-4.1514650267">
        <ele>711.51</ele>
        <time>2018-05-19T14:17:40Z</time>
      </trkpt>
      <trkpt lat="43.1117947586" lon="-4.1513705626">
        <ele>712.47</ele>
        <time>2018-05-19T14:17:44Z</time>
      </trkpt>
      <trkpt lat="43.1117035635" lon="-4.1513087042">
        <ele>712.95</ele>
        <time>2018-05-19T14:17:48Z</time>
      </trkpt>
      <trkpt lat="43.1116179843" lon="-4.1512382124">
        <ele>713.92</ele>
        <time>2018-05-19T14:17:52Z</time>
      </trkpt>
      <trkpt lat="43.1115350872" lon="-4.1511201113">
        <ele>715.36</ele>
        <time>2018-05-19T14:17:57Z</time>
      </trkpt>
      <trkpt lat="43.1114693731" lon="-4.1509926226">
        <ele>716.32</ele>
        <time>2018-05-19T14:18:02Z</time>
      </trkpt>
      <trkpt lat="43.1114119571" lon="-4.1508722585">
        <ele>717.76</ele>
        <time>2018-05-19T14:18:07Z</time>
      </trkpt>
      <trkpt lat="43.1113429740" lon="-4.1507493798">
        <ele>718.24</ele>
        <time>2018-05-19T14:18:12Z</time>
      </trkpt>
      <trkpt lat="43.1112427264" lon="-4.1506928857">
        <ele>718.72</ele>
        <time>2018-05-19T14:18:16Z</time>
      </trkpt>
      <trkpt lat="43.1111314986" lon="-4.1506816540">
        <ele>719.68</ele>
        <time>2018-05-19T14:18:20Z</time>
      </trkpt>
      <trkpt lat="43.1110153254" lon="-4.1506797262">
        <ele>719.68</ele>
        <time>2018-05-19T14:18:24Z</time>
      </trkpt>
      <trkpt lat="43.1109188497" lon="-4.1506692488">
        <ele>719.68</ele>
        <time>2018-05-19T14:18:27Z</time>
      </trkpt>
      <trkpt lat="43.1108132377" lon="-4.1506693326">
        <ele>719.68</ele>
        <time>2018-05-19T14:18:30Z</time>
      </trkpt>
      <trkpt lat="43.1107000820" lon="-4.1506498028">
        <ele>719.68</ele>
        <time>2018-05-19T14:18:33Z</time>
      </trkpt>
      <trkpt lat="43.1105978228" lon="-4.1506092343">
        <ele>719.68</ele>
        <time>2018-05-19T14:18:36Z</time>
      </trkpt>
      <trkpt lat="43.1105143391" lon="-4.1505432688">
        <ele>720.65</ele>
        <time>2018-05-19T14:18:39Z</time>
      </trkpt>
      <trkpt lat="43.1104294304" lon="-4.1504811589">
        <ele>721.13</ele>
        <time>2018-05-19T14:18:43Z</time>
      </trkpt>
      <trkpt lat="43.1103404984" lon="-4.1504068114">
        <ele>722.57</ele>
        <time>2018-05-19T14:18:47Z</time>
      </trkpt>
      <trkpt lat="43.1102475431" lon="-4.1503520776">
        <ele>724.01</ele>
        <time>2018-05-19T14:18:51Z</time>
      </trkpt>
      <trkpt lat="43.1101425178" lon="-4.1503483057">
        <ele>724.49</ele>
        <time>2018-05-19T14:18:55Z</time>
      </trkpt>
      <trkpt lat="43.1100374926" lon="-4.1504106671">
        <ele>724.97</ele>
        <time>2018-05-19T14:18:59Z</time>
      </trkpt>
      <trkpt lat="43.1099747960" lon="-4.1505151894">
        <ele>725.93</ele>
        <time>2018-05-19T14:19:03Z</time>
      </trkpt>
      <trkpt lat="43.1099032145" lon="-4.1506280936">
        <ele>726.89</ele>
        <time>2018-05-19T14:19:08Z</time>
      </trkpt>
      <trkpt lat="43.1098173838" lon="-4.1507221386">
        <ele>728.34</ele>
        <time>2018-05-19T14:19:14Z</time>
      </trkpt>
      <trkpt lat="43.1097186450" lon="-4.1508019343">
        <ele>729.78</ele>
        <time>2018-05-19T14:19:20Z</time>
      </trkpt>
      <trkpt lat="43.1096277852" lon="-4.1508924589">
        <ele>731.70</ele>
        <time>2018-05-19T14:19:27Z</time>
      </trkpt>
      <trkpt lat="43.1095492467" lon="-4.1509752721">
        <ele>732.66</ele>
        <time>2018-05-19T14:19:33Z</time>
      </trkpt>
      <trkpt lat="43.1094756536" lon="-4.1510790400">
        <ele>734.58</ele>
        <time>2018-05-19T14:19:40Z</time>
      </trkpt>
      <trkpt lat="43.1093801837" lon="-4.1511785332">
        <ele>736.51</ele>
        <time>2018-05-19T14:19:47Z</time>
      </trkpt>
      <trkpt lat="43.1093195826" lon="-4.1512678843">
        <ele>737.95</ele>
        <time>2018-05-19T14:19:54Z</time>
      </trkpt>
      <trkpt lat="43.1092345063" lon="-4.1513797827">
        <ele>739.87</ele>
        <time>2018-05-19T14:20:02Z</time>
      </trkpt>
      <trkpt lat="43.1091333367" lon="-4.1514895856">
        <ele>741.31</ele>
        <time>2018-05-19T14:20:10Z</time>
      </trkpt>
      <trkpt lat="43.1090162415" lon="-4.1515449900">
        <ele>742.76</ele>
        <time>2018-05-19T14:20:17Z</time>
      </trkpt>
      <trkpt lat="43.1089131441" lon="-4.1515643522">
        <ele>744.68</ele>
        <time>2018-05-19T14:20:24Z</time>
      </trkpt>
      <trkpt lat="43.1087977253" lon="-4.1516050044">
        <ele>745.64</ele>
        <time>2018-05-19T14:20:31Z</time>
      </trkpt>
      <trkpt lat="43.1086968072" lon="-4.1516547929">
        <ele>747.08</ele>
        <time>2018-05-19T14:20:38Z</time>
      </trkpt>
      <trkpt lat="43.1085865013" lon="-4.1517365165">
        <ele>748.04</ele>
        <time>2018-05-19T14:20:45Z</time>
      </trkpt>
      <trkpt lat="43.1084870081" lon="-4.1518080141">
        <ele>749.97</ele>
        <time>2018-05-19T14:20:52Z</time>
      </trkpt>
      <trkpt lat="43.1084032729" lon="-4.1518899892">
        <ele>751.89</ele>
        <time>2018-05-19T14:21:00Z</time>
      </trkpt>
      <trkpt lat="43.1083389837" lon="-4.1519912425">
        <ele>753.33</ele>
        <time>2018-05-19T14:21:07Z</time>
      </trkpt>
      <trkpt lat="43.1082673185" lon="-4.1521438770">
        <ele>754.77</ele>
        <time>2018-05-19T14:21:14Z</time>
      </trkpt>
      <trkpt lat="43.1082084775" lon="-4.1522585414">
        <ele>756.21</ele>
        <time>2018-05-19T14:21:21Z</time>
      </trkpt>
      <trkpt lat="43.1081311125" lon="-4.1523648240">
        <ele>757.66</ele>
        <time>2018-05-19T14:21:28Z</time>
      </trkpt>
      <trkpt lat="43.1080602016" lon="-4.1524549294">
        <ele>758.62</ele>
        <time>2018-05-19T14:21:34Z</time>
      </trkpt>
      <trkpt lat="43.1079740357" lon="-4.1525729466">
        <ele>760.06</ele>
        <time>2018-05-19T14:21:41Z</time>
      </trkpt>
      <trkpt lat="43.1078998558" lon="-4.1526789777">
        <ele>761.50</ele>
        <time>2018-05-19T14:21:48Z</time>
      </trkpt>
      <trkpt lat="43.1078092474" lon="-4.1527916305">
        <ele>762.46</ele>
        <time>2018-05-19T14:21:56Z</time>
      </trkpt>
      <trkpt lat="43.1077118497" lon="-4.1528806463">
        <ele>763.90</ele>
        <time>2018-05-19T14:22:03Z</time>
      </trkpt>
      <trkpt lat="43.1076142844" lon="-4.1529468633">
        <ele>764.87</ele>
        <time>2018-05-19T14:22:09Z</time>
      </trkpt>
      <trkpt lat="43.1075131986" lon="-4.1530088056">
        <ele>765.83</ele>
        <time>2018-05-19T14:22:15Z</time>
      </trkpt>
      <trkpt lat="43.1074279547" lon="-4.1530694067">
        <ele>766.79</ele>
        <time>2018-05-19T14:22:21Z</time>
      </trkpt>
      <trkpt lat="43.1073418725" lon="-4.1531345341">
        <ele>767.75</ele>
        <time>2018-05-19T14:22:26Z</time>
      </trkpt>
      <trkpt lat="43.1072339974" lon="-4.1531685647">
        <ele>768.71</ele>
        <time>2018-05-19T14:22:32Z</time>
      </trkpt>
      <trkpt lat="43.1071152259" lon="-4.1531629488">
        <ele>769.19</ele>
        <time>2018-05-19T14:22:37Z</time>
      </trkpt>
      <trkpt lat="43.1070112064" lon="-4.1531240568">
        <ele>769.67</ele>
        <time>2018-05-19T14:22:42Z</time>
      </trkpt>
      <trkpt lat="43.1069236156" lon="-4.1530588455">
        <ele>770.63</ele>
        <time>2018-05-19T14:22:47Z</time>
      </trkpt>
      <trkpt lat="43.1068364438" lon="-4.1529989988">
        <ele>770.63</ele>
        <time>2018-05-19T14:22:51Z</time>
      </trkpt>
      <trkpt lat="43.1067577377" lon="-4.1529213823">
        <ele>771.60</ele>
        <time>2018-05-19T14:22:55Z</time>
      </trkpt>
      <trkpt lat="43.1066837255" lon="-4.1527927201">
        <ele>772.08</ele>
        <time>2018-05-19T14:23:00Z</time>
      </trkpt>
      <trkpt lat="43.1066455040" lon="-4.1526708473">
        <ele>772.56</ele>
        <time>2018-05-19T14:23:05Z</time>
      </trkpt>
      <trkpt lat="43.1066273153" lon="-4.1525272653">
        <ele>774.48</ele>
        <time>2018-05-19T14:23:11Z</time>
      </trkpt>
      <trkpt lat="43.1066156644" lon="-4.1523567773">
        <ele>775.44</ele>
        <time>2018-05-19T14:23:17Z</time>
      </trkpt>
      <trkpt lat="43.1065953802" lon="-4.1521978565">
        <ele>776.40</ele>
        <time>2018-05-19T14:23:22Z</time>
      </trkpt>
      <trkpt lat="43.1065575778" lon="-4.1520261951">
        <ele>777.84</ele>
        <time>2018-05-19T14:23:28Z</time>
      </trkpt>
      <trkpt lat="43.1065114774" lon="-4.1519002151">
        <ele>778.81</ele>
        <time>2018-05-19T14:23:33Z</time>
      </trkpt>
      <trkpt lat="43.1064542290" lon="-4.1517869756">
        <ele>779.29</ele>
        <time>2018-05-19T14:23:38Z</time>
      </trkpt>
      <trkpt lat="43.1063913647" lon="-4.1516626719">
        <ele>780.25</ele>
        <time>2018-05-19T14:23:43Z</time>
      </trkpt>
      <trkpt lat="43.1063542329" lon="-4.1515177488">
        <ele>781.21</ele>
        <time>2018-05-19T14:23:48Z</time>
      </trkpt>
      <trkpt lat="43.1063403189" lon="-4.1513731610">
        <ele>782.17</ele>
        <time>2018-05-19T14:23:53Z</time>
      </trkpt>
      <trkpt lat="43.1062893569" lon="-4.1512405593">
        <ele>782.65</ele>
        <time>2018-05-19T14:23:58Z</time>
      </trkpt>
      <trkpt lat="43.1062393170" lon="-4.1511270683">
        <ele>783.13</ele>
        <time>2018-05-19T14:24:02Z</time>
      </trkpt>
      <trkpt lat="43.1061627902" lon="-4.1510101408">
        <ele>783.61</ele>
        <time>2018-05-19T14:24:06Z</time>
      </trkpt>
      <trkpt lat="43.1060628779" lon="-4.1509281658">
        <ele>783.61</ele>
        <time>2018-05-19T14:24:10Z</time>
      </trkpt>
      <trkpt lat="43.1059550028" lon="-4.1508735996">
        <ele>783.61</ele>
        <time>2018-05-19T14:24:13Z</time>
      </trkpt>
      <trkpt lat="43.1058694236" lon="-4.1508311871">
        <ele>783.61</ele>
        <time>2018-05-19T14:24:15Z</time>
      </trkpt>
      <trkpt lat="43.1057798211" lon="-4.1507779621">
        <ele>783.61</ele>
        <time>2018-05-19T14:24:17Z</time>
      </trkpt>
      <trkpt lat="43.1056726165" lon="-4.1506860964">
        <ele>782.17</ele>
        <time>2018-05-19T14:24:20Z</time>
      </trkpt>
      <trkpt lat="43.1055711117" lon="-4.1505939793">
        <ele>782.17</ele>
        <time>2018-05-19T14:24:23Z</time>
      </trkpt>
      <trkpt lat="43.1054782402" lon="-4.1505115014">
        <ele>783.61</ele>
        <time>2018-05-19T14:24:26Z</time>
      </trkpt>
      <trkpt lat="43.1053725444" lon="-4.1504293587">
        <ele>784.57</ele>
        <time>2018-05-19T14:24:30Z</time>
      </trkpt>
      <trkpt lat="43.1052857917" lon="-4.1503653210">
        <ele>785.05</ele>
        <time>2018-05-19T14:24:33Z</time>
      </trkpt>
      <trkpt lat="43.1052036490" lon="-4.1503139399">
        <ele>785.53</ele>
        <time>2018-05-19T14:24:36Z</time>
      </trkpt>
      <trkpt lat="43.1051077601" lon="-4.1502695996">
        <ele>786.02</ele>
        <time>2018-05-19T14:24:40Z</time>
      </trkpt>
      <trkpt lat="43.1050096918" lon="-4.1502142791">
        <ele>786.98</ele>
        <time>2018-05-19T14:24:44Z</time>
      </trkpt>
      <trkpt lat="43.1049178261" lon="-4.1501532588">
        <ele>786.98</ele>
        <time>2018-05-19T14:24:48Z</time>
      </trkpt>
      <trkpt lat="43.1048188359" lon="-4.1500880476">
        <ele>788.42</ele>
        <time>2018-05-19T14:24:52Z</time>
      </trkpt>
      <trkpt lat="43.1047240365" lon="-4.1500137001">
        <ele>788.90</ele>
        <time>2018-05-19T14:24:56Z</time>
      </trkpt>
      <trkpt lat="43.1046385411" lon="-4.1499399394">
        <ele>789.38</ele>
        <time>2018-05-19T14:25:00Z</time>
      </trkpt>
      <trkpt lat="43.1045532133" lon="-4.1498702019">
        <ele>789.86</ele>
        <time>2018-05-19T14:25:04Z</time>
      </trkpt>
      <trkpt lat="43.1044586655" lon="-4.1497985367">
        <ele>790.34</ele>
        <time>2018-05-19T14:25:08Z</time>
      </trkpt>
      <trkpt lat="43.1043763552" lon="-4.1497610696">
        <ele>791.30</ele>
        <time>2018-05-19T14:25:12Z</time>
      </trkpt>
      <trkpt lat="43.1042715814" lon="-4.1497510113">
        <ele>791.30</ele>
        <time>2018-05-19T14:25:16Z</time>
      </trkpt>
      <trkpt lat="43.1041701604" lon="-4.1497511789">
        <ele>792.26</ele>
        <time>2018-05-19T14:25:20Z</time>
      </trkpt>
      <trkpt lat="43.1040556636" lon="-4.1497342475">
        <ele>792.26</ele>
        <time>2018-05-19T14:25:24Z</time>
      </trkpt>
      <trkpt lat="43.1039421726" lon="-4.1496950202">
        <ele>792.74</ele>
        <time>2018-05-19T14:25:28Z</time>
      </trkpt>
      <trkpt lat="43.1038601138" lon="-4.1496376880">
        <ele>792.74</ele>
        <time>2018-05-19T14:25:31Z</time>
      </trkpt>
      <trkpt lat="43.1037662365" lon="-4.1495905817">
        <ele>792.74</ele>
        <time>2018-05-19T14:25:34Z</time>
      </trkpt>
      <trkpt lat="43.1036591996" lon="-4.1495618317">
        <ele>792.74</ele>
        <time>2018-05-19T14:25:37Z</time>
      </trkpt>
      <trkpt lat="43.1035281066" lon="-4.1495082714">
        <ele>792.74</ele>
        <time>2018-05-19T14:25:40Z</time>
      </trkpt>
      <trkpt lat="43.1034369115" lon="-4.1494727321">
        <ele>792.74</ele>
        <time>2018-05-19T14:25:42Z</time>
      </trkpt>
      <trkpt lat="43.1033389270" lon="-4.1494319122">
        <ele>791.78</ele>
        <time>2018-05-19T14:25:44Z</time>
      </trkpt>
      <trkpt lat="43.1032082532" lon="-4.1493833810">
        <ele>791.30</ele>
        <time>2018-05-19T14:25:47Z</time>
      </trkpt>
      <trkpt lat="43.1031153817" lon="-4.1493387893">
        <ele>791.30</ele>
        <time>2018-05-19T14:25:49Z</time>
      </trkpt>
      <trkpt lat="43.1030179840" lon="-4.1493250430">
        <ele>790.34</ele>
        <time>2018-05-19T14:25:51Z</time>
      </trkpt>
      <trkpt lat="43.1029106956" lon="-4.1493565589">
        <ele>790.34</ele>
        <time>2018-05-19T14:25:53Z</time>
      </trkpt>
      <trkpt lat="43.1027993839" lon="-4.1493668687">
        <ele>788.90</ele>
        <time>2018-05-19T14:25:55Z</time>
      </trkpt>
      <trkpt lat="43.1026946101" lon="-4.1492975503">
        <ele>788.90</ele>
        <time>2018-05-19T14:25:57Z</time>
      </trkpt>
      <trkpt lat="43.1026268844" lon="-4.1491698939">
        <ele>788.90</ele>
        <time>2018-05-19T14:25:59Z</time>
      </trkpt>
      <trkpt lat="43.1025786046" lon="-4.1490533855">
        <ele>788.90</ele>
        <time>2018-05-19T14:26:01Z</time>
      </trkpt>
      <trkpt lat="43.1025027484" lon="-4.1489931196">
        <ele>788.90</ele>
        <time>2018-05-19T14:26:03Z</time>
      </trkpt>
      <trkpt lat="43.1023957115" lon="-4.1489749309">
        <ele>790.82</ele>
        <time>2018-05-19T14:26:06Z</time>
      </trkpt>
      <trkpt lat="43.1022894289" lon="-4.1489796247">
        <ele>790.82</ele>
        <time>2018-05-19T14:26:09Z</time>
      </trkpt>
      <trkpt lat="43.1021958869" lon="-4.1489568260">
        <ele>791.78</ele>
        <time>2018-05-19T14:26:12Z</time>
      </trkpt>
      <trkpt lat="43.1021161750" lon="-4.1489042714">
        <ele>792.26</ele>
        <time>2018-05-19T14:26:15Z</time>
      </trkpt>
      <trkpt lat="43.1020329427" lon="-4.1488402337">
        <ele>792.74</ele>
        <time>2018-05-19T14:26:19Z</time>
      </trkpt>
      <trkpt lat="43.1019361317" lon="-4.1487921216">
        <ele>793.71</ele>
        <time>2018-05-19T14:26:23Z</time>
      </trkpt>
      <trkpt lat="43.1018487085" lon="-4.1487627849">
        <ele>794.19</ele>
        <time>2018-05-19T14:26:27Z</time>
      </trkpt>
      <trkpt lat="43.1017355528" lon="-4.1487525590">
        <ele>794.67</ele>
        <time>2018-05-19T14:26:32Z</time>
      </trkpt>
      <trkpt lat="43.1016374007" lon="-4.1487433389">
        <ele>794.67</ele>
        <time>2018-05-19T14:26:36Z</time>
      </trkpt>
      <trkpt lat="43.1015409250" lon="-4.1487092245">
        <ele>795.63</ele>
        <time>2018-05-19T14:26:40Z</time>
      </trkpt>
      <trkpt lat="43.1014374923" lon="-4.1486789659">
        <ele>796.11</ele>
        <time>2018-05-19T14:26:44Z</time>
      </trkpt>
      <trkpt lat="43.1013429444" lon="-4.1486497968">
        <ele>796.59</ele>
        <time>2018-05-19T14:26:48Z</time>
      </trkpt>
      <trkpt lat="43.1012421101" lon="-4.1486427560">
        <ele>797.07</ele>
        <time>2018-05-19T14:26:52Z</time>
      </trkpt>
      <trkpt lat="43.1011252664" lon="-4.1486308537">
        <ele>798.03</ele>
        <time>2018-05-19T14:26:56Z</time>
      </trkpt>
      <trkpt lat="43.1010271981" lon="-4.1486333683">
        <ele>798.99</ele>
        <time>2018-05-19T14:27:00Z</time>
      </trkpt>
      <trkpt lat="43.1009138748" lon="-4.1486202925">
        <ele>799.47</ele>
        <time>2018-05-19T14:27:04Z</time>
      </trkpt>
      <trkpt lat="43.1008128729" lon="-4.1486026905">
        <ele>799.47</ele>
        <time>2018-05-19T14:27:08Z</time>
      </trkpt>
      <trkpt lat="43.1007083505" lon="-4.1485813167">
        <ele>800.44</ele>
        <time>2018-05-19T14:27:12Z</time>
      </trkpt>
      <trkpt lat="43.1006130483" lon="-4.1485273372">
        <ele>801.40</ele>
        <time>2018-05-19T14:27:16Z</time>
      </trkpt>
      <trkpt lat="43.1005370244" lon="-4.1484480444">
        <ele>801.88</ele>
        <time>2018-05-19T14:27:20Z</time>
      </trkpt>
      <trkpt lat="43.1004939415" lon="-4.1483253334">
        <ele>802.84</ele>
        <time>2018-05-19T14:27:24Z</time>
      </trkpt>
      <trkpt lat="43.1004485954" lon="-4.1481844336">
        <ele>803.80</ele>
        <time>2018-05-19T14:27:29Z</time>
      </trkpt>
      <trkpt lat="43.1003806181" lon="-4.1480750497">
        <ele>804.76</ele>
        <time>2018-05-19T14:27:34Z</time>
      </trkpt>
      <trkpt lat="43.1002911832" lon="-4.1479928233">
        <ele>805.24</ele>
        <time>2018-05-19T14:27:39Z</time>
      </trkpt>
      <trkpt lat="43.1001861580" lon="-4.1479448788">
        <ele>805.72</ele>
        <time>2018-05-19T14:27:44Z</time>
      </trkpt>
      <trkpt lat="43.1000781152" lon="-4.1479104292">
        <ele>806.68</ele>
        <time>2018-05-19T14:27:49Z</time>
      </trkpt>
      <trkpt lat="43.0999716651" lon="-4.1478976049">
        <ele>807.64</ele>
        <time>2018-05-19T14:27:54Z</time>
      </trkpt>
      <trkpt lat="43.0998598505" lon="-4.1479188111">
        <ele>808.13</ele>
        <time>2018-05-19T14:27:59Z</time>
      </trkpt>
      <trkpt lat="43.0997515563" lon="-4.1479054838">
        <ele>809.09</ele>
        <time>2018-05-19T14:28:04Z</time>
      </trkpt>
      <trkpt lat="43.0996737722" lon="-4.1478267778">
        <ele>810.05</ele>
        <time>2018-05-19T14:28:08Z</time>
      </trkpt>
      <trkpt lat="43.0995905399" lon="-4.1477375943">
        <ele>810.53</ele>
        <time>2018-05-19T14:28:13Z</time>
      </trkpt>
      <trkpt lat="43.0995149352" lon="-4.1476655100">
        <ele>811.49</ele>
        <time>2018-05-19T14:28:17Z</time>
      </trkpt>
      <trkpt lat="43.0994343851" lon="-4.1476076748">
        <ele>811.97</ele>
        <time>2018-05-19T14:28:21Z</time>
      </trkpt>
      <trkpt lat="43.0993392505" lon="-4.1475799307">
        <ele>812.93</ele>
        <time>2018-05-19T14:28:25Z</time>
      </trkpt>
      <trkpt lat="43.0992380809" lon="-4.1475788411">
        <ele>813.41</ele>
        <time>2018-05-19T14:28:29Z</time>
      </trkpt>
      <trkpt lat="43.0991452094" lon="-4.1475511808">
        <ele>813.89</ele>
        <time>2018-05-19T14:28:33Z</time>
      </trkpt>
      <trkpt lat="43.0990518350" lon="-4.1474984586">
        <ele>814.85</ele>
        <time>2018-05-19T14:28:37Z</time>
      </trkpt>
      <trkpt lat="43.0989670102" lon="-4.1474282183">
        <ele>815.34</ele>
        <time>2018-05-19T14:28:41Z</time>
      </trkpt>
      <trkpt lat="43.0988473166" lon="-4.1473970376">
        <ele>815.82</ele>
        <time>2018-05-19T14:28:46Z</time>
      </trkpt>
      <trkpt lat="43.0987392738" lon="-4.1474035755">
        <ele>816.78</ele>
        <time>2018-05-19T14:28:50Z</time>
      </trkpt>
      <trkpt lat="43.0986364279" lon="-4.1474356782">
        <ele>817.26</ele>
        <time>2018-05-19T14:28:54Z</time>
      </trkpt>
      <trkpt lat="43.0985320732" lon="-4.1474563815">
        <ele>818.22</ele>
        <time>2018-05-19T14:28:58Z</time>
      </trkpt>
      <trkpt lat="43.0984214321" lon="-4.1474595666">
        <ele>818.22</ele>
        <time>2018-05-19T14:29:02Z</time>
      </trkpt>
      <trkpt lat="43.0983341765" lon="-4.1474364325">
        <ele>818.70</ele>
        <time>2018-05-19T14:29:06Z</time>
      </trkpt>
      <trkpt lat="43.0982377008" lon="-4.1473932657">
        <ele>819.18</ele>
        <time>2018-05-19T14:29:10Z</time>
      </trkpt>
      <trkpt lat="43.0981315859" lon="-4.1473464109">
        <ele>820.14</ele>
        <time>2018-05-19T14:29:14Z</time>
      </trkpt>
      <trkpt lat="43.0980408937" lon="-4.1473082732">
        <ele>820.62</ele>
        <time>2018-05-19T14:29:18Z</time>
      </trkpt>
      <trkpt lat="43.0979362037" lon="-4.1472568084">
        <ele>821.10</ele>
        <time>2018-05-19T14:29:22Z</time>
      </trkpt>
      <trkpt lat="43.0978345312" lon="-4.1471839696">
        <ele>821.58</ele>
        <time>2018-05-19T14:29:26Z</time>
      </trkpt>
      <trkpt lat="43.0977490358" lon="-4.1471215244">
        <ele>822.06</ele>
        <time>2018-05-19T14:29:30Z</time>
      </trkpt>
      <trkpt lat="43.0976507999" lon="-4.1470723227">
        <ele>822.55</ele>
        <time>2018-05-19T14:29:34Z</time>
      </trkpt>
      <trkpt lat="43.0975328665" lon="-4.1470719036">
        <ele>822.55</ele>
        <time>2018-05-19T14:29:38Z</time>
      </trkpt>
      <trkpt lat="43.0974442698" lon="-4.1471666191">
        <ele>823.03</ele>
        <time>2018-05-19T14:29:42Z</time>
      </trkpt>
      <trkpt lat="43.0973886978" lon="-4.1472865641">
        <ele>823.51</ele>
        <time>2018-05-19T14:29:45Z</time>
      </trkpt>
      <trkpt lat="43.0973362271" lon="-4.1474193335">
        <ele>823.03</ele>
        <time>2018-05-19T14:29:48Z</time>
      </trkpt>
      <trkpt lat="43.0972704291" lon="-4.1475618258">
        <ele>822.06</ele>
        <time>2018-05-19T14:29:51Z</time>
      </trkpt>
      <trkpt lat="43.0972204730" lon="-4.1476650909">
        <ele>821.10</ele>
        <time>2018-05-19T14:29:53Z</time>
      </trkpt>
      <trkpt lat="43.0971595366" lon="-4.1477779113">
        <ele>821.10</ele>
        <time>2018-05-19T14:29:55Z</time>
      </trkpt>
      <trkpt lat="43.0970951635" lon="-4.1478712857">
        <ele>820.14</ele>
        <time>2018-05-19T14:29:57Z</time>
      </trkpt>
      <trkpt lat="43.0970127694" lon="-4.1479649954">
        <ele>820.14</ele>
        <time>2018-05-19T14:29:59Z</time>
      </trkpt>
      <trkpt lat="43.0969223287" lon="-4.1480436176">
        <ele>819.18</ele>
        <time>2018-05-19T14:30:01Z</time>
      </trkpt>
      <trkpt lat="43.0968134478" lon="-4.1481108405">
        <ele>818.70</ele>
        <time>2018-05-19T14:30:03Z</time>
      </trkpt>
      <trkpt lat="43.0966942571" lon="-4.1481818352">
        <ele>817.74</ele>
        <time>2018-05-19T14:30:05Z</time>
      </trkpt>
      <trkpt lat="43.0965927523" lon="-4.1482581943">
        <ele>817.26</ele>
        <time>2018-05-19T14:30:07Z</time>
      </trkpt>
      <trkpt lat="43.0964761600" lon="-4.1483594477">
        <ele>816.78</ele>
        <time>2018-05-19T14:30:09Z</time>
      </trkpt>
      <trkpt lat="43.0963676982" lon="-4.1484771296">
        <ele>815.34</ele>
        <time>2018-05-19T14:30:11Z</time>
      </trkpt>
      <trkpt lat="43.0962809455" lon="-4.1486247350">
        <ele>814.85</ele>
        <time>2018-05-19T14:30:13Z</time>
      </trkpt>
      <trkpt lat="43.0962162372" lon="-4.1488080472">
        <ele>814.37</ele>
        <time>2018-05-19T14:30:15Z</time>
      </trkpt>
      <trkpt lat="43.0961661972" lon="-4.1489352845">
        <ele>814.37</ele>
        <time>2018-05-19T14:30:17Z</time>
      </trkpt>
      <trkpt lat="43.0960822944" lon="-4.1490150802">
        <ele>813.41</ele>
        <time>2018-05-19T14:30:19Z</time>
      </trkpt>
      <trkpt lat="43.0959883332" lon="-4.1489929520">
        <ele>813.41</ele>
        <time>2018-05-19T14:30:21Z</time>
      </trkpt>
      <trkpt lat="43.0959361978" lon="-4.1488934588">
        <ele>813.41</ele>
        <time>2018-05-19T14:30:23Z</time>
      </trkpt>
      <trkpt lat="43.0959079508" lon="-4.1487358790">
        <ele>813.41</ele>
        <time>2018-05-19T14:30:26Z</time>
      </trkpt>
      <trkpt lat="43.0958916899" lon="-4.1485848371">
        <ele>813.41</ele>
        <time>2018-05-19T14:30:29Z</time>
      </trkpt>
      <trkpt lat="43.0958801229" lon="-4.1484560911">
        <ele>813.41</ele>
        <time>2018-05-19T14:30:32Z</time>
      </trkpt>
      <trkpt lat="43.0958921090" lon="-4.1483169515">
        <ele>815.34</ele>
        <time>2018-05-19T14:30:35Z</time>
      </trkpt>
      <trkpt lat="43.0959095433" lon="-4.1481733695">
        <ele>815.82</ele>
        <time>2018-05-19T14:30:38Z</time>
      </trkpt>
      <trkpt lat="43.0959310848" lon="-4.1480323020">
        <ele>816.30</ele>
        <time>2018-05-19T14:30:41Z</time>
      </trkpt>
      <trkpt lat="43.0959534645" lon="-4.1478673462">
        <ele>817.26</ele>
        <time>2018-05-19T14:30:45Z</time>
      </trkpt>
      <trkpt lat="43.0959470104" lon="-4.1476883087">
        <ele>817.74</ele>
        <time>2018-05-19T14:30:49Z</time>
      </trkpt>
      <trkpt lat="43.0959275644" lon="-4.1475466546">
        <ele>818.70</ele>
        <time>2018-05-19T14:30:52Z</time>
      </trkpt>
      <trkpt lat="43.0958975572" lon="-4.1474256199">
        <ele>819.18</ele>
        <time>2018-05-19T14:30:55Z</time>
      </trkpt>
      <trkpt lat="43.0958512053" lon="-4.1472837981">
        <ele>819.66</ele>
        <time>2018-05-19T14:30:59Z</time>
      </trkpt>
      <trkpt lat="43.0958107207" lon="-4.1471696366">
        <ele>820.62</ele>
        <time>2018-05-19T14:31:02Z</time>
      </trkpt>
      <trkpt lat="43.0957514606" lon="-4.1470316704">
        <ele>821.10</ele>
        <time>2018-05-19T14:31:06Z</time>
      </trkpt>
      <trkpt lat="43.0956953857" lon="-4.1468838137">
        <ele>821.58</ele>
        <time>2018-05-19T14:31:10Z</time>
      </trkpt>
      <trkpt lat="43.0956243910" lon="-4.1467799619">
        <ele>822.06</ele>
        <time>2018-05-19T14:31:13Z</time>
      </trkpt>
      <trkpt lat="43.0955334473" lon="-4.1467346996">
        <ele>822.06</ele>
        <time>2018-05-19T14:31:16Z</time>
      </trkpt>
      <trkpt lat="43.0954227224" lon="-4.1467093024">
        <ele>821.58</ele>
        <time>2018-05-19T14:31:19Z</time>
      </trkpt>
      <trkpt lat="43.0953093991" lon="-4.1466946341">
        <ele>822.06</ele>
        <time>2018-05-19T14:31:22Z</time>
      </trkpt>
      <trkpt lat="43.0951988418" lon="-4.1466899402">
        <ele>822.55</ele>
        <time>2018-05-19T14:31:25Z</time>
      </trkpt>
      <trkpt lat="43.0950815789" lon="-4.1466950532">
        <ele>822.55</ele>
        <time>2018-05-19T14:31:28Z</time>
      </trkpt>
      <trkpt lat="43.0949602928" lon="-4.1467171814">
        <ele>822.55</ele>
        <time>2018-05-19T14:31:31Z</time>
      </trkpt>
      <trkpt lat="43.0948641524" lon="-4.1467471048">
        <ele>822.55</ele>
        <time>2018-05-19T14:31:33Z</time>
      </trkpt>
      <trkpt lat="43.0947291199" lon="-4.1467939597">
        <ele>822.06</ele>
        <time>2018-05-19T14:31:36Z</time>
      </trkpt>
      <trkpt lat="43.0946246814" lon="-4.1468243022">
        <ele>821.10</ele>
        <time>2018-05-19T14:31:38Z</time>
      </trkpt>
      <trkpt lat="43.0945236795" lon="-4.1468457598">
        <ele>820.62</ele>
        <time>2018-05-19T14:31:40Z</time>
      </trkpt>
      <trkpt lat="43.0944133736" lon="-4.1468635295">
        <ele>820.14</ele>
        <time>2018-05-19T14:31:42Z</time>
      </trkpt>
      <trkpt lat="43.0942945182" lon="-4.1468880884">
        <ele>819.66</ele>
        <time>2018-05-19T14:31:44Z</time>
      </trkpt>
      <trkpt lat="43.0941869784" lon="-4.1469056066">
        <ele>819.18</ele>
        <time>2018-05-19T14:31:46Z</time>
      </trkpt>
      <trkpt lat="43.0940744933" lon="-4.1469224542">
        <ele>818.70</ele>
        <time>2018-05-19T14:31:48Z</time>
      </trkpt>
      <trkpt lat="43.0939532071" lon="-4.1469219513">
        <ele>817.74</ele>
        <time>2018-05-19T14:31:50Z</time>
      </trkpt>
      <trkpt lat="43.0938268919" lon="-4.1469339374">
        <ele>817.26</ele>
        <time>2018-05-19T14:31:52Z</time>
      </trkpt>
      <trkpt lat="43.0936806276" lon="-4.1469414812">
        <ele>816.30</ele>
        <time>2018-05-19T14:31:54Z</time>
      </trkpt>
      <trkpt lat="43.0935604312" lon="-4.1469464265">
        <ele>816.30</ele>
        <time>2018-05-19T14:31:56Z</time>
      </trkpt>
      <trkpt lat="43.0934138317" lon="-4.1469301656">
        <ele>813.41</ele>
        <time>2018-05-19T14:31:58Z</time>
      </trkpt>
      <trkpt lat="43.0932549108" lon="-4.1468939558">
        <ele>811.97</ele>
        <time>2018-05-19T14:32:00Z</time>
      </trkpt>
      <trkpt lat="43.0931625422" lon="-4.1468543932">
        <ele>811.01</ele>
        <time>2018-05-19T14:32:01Z</time>
      </trkpt>
      <trkpt lat="43.0930201337" lon="-4.1467725020">
        <ele>810.05</ele>
        <time>2018-05-19T14:32:03Z</time>
      </trkpt>
      <trkpt lat="43.0928649846" lon="-4.1466870066">
        <ele>810.05</ele>
        <time>2018-05-19T14:32:05Z</time>
      </trkpt>
      <trkpt lat="43.0927021243" lon="-4.1465940513">
        <ele>808.61</ele>
        <time>2018-05-19T14:32:07Z</time>
      </trkpt>
      <trkpt lat="43.0925414432" lon="-4.1464923788">
        <ele>807.16</ele>
        <time>2018-05-19T14:32:09Z</time>
      </trkpt>
      <trkpt lat="43.0924380105" lon="-4.1464315262">
        <ele>806.68</ele>
        <time>2018-05-19T14:32:10Z</time>
      </trkpt>
      <trkpt lat="43.0922883935" lon="-4.1463327873">
        <ele>805.72</ele>
        <time>2018-05-19T14:32:12Z</time>
      </trkpt>
      <trkpt lat="43.0922026467" lon="-4.1462793946">
        <ele>805.72</ele>
        <time>2018-05-19T14:32:13Z</time>
      </trkpt>
      <trkpt lat="43.0921106972" lon="-4.1462291032">
        <ele>804.76</ele>
        <time>2018-05-19T14:32:14Z</time>
      </trkpt>
      <trkpt lat="43.0920242798" lon="-4.1461835057">
        <ele>804.28</ele>
        <time>2018-05-19T14:32:15Z</time>
      </trkpt>
      <trkpt lat="43.0919400416" lon="-4.1461350583">
        <ele>803.80</ele>
        <time>2018-05-19T14:32:16Z</time>
      </trkpt>
      <trkpt lat="43.0918579828" lon="-4.1460827552">
        <ele>803.80</ele>
        <time>2018-05-19T14:32:17Z</time>
      </trkpt>
      <trkpt lat="43.0917660333" lon="-4.1460219026">
        <ele>802.84</ele>
        <time>2018-05-19T14:32:18Z</time>
      </trkpt>
      <trkpt lat="43.0916716531" lon="-4.1459589545">
        <ele>802.84</ele>
        <time>2018-05-19T14:32:19Z</time>
      </trkpt>
      <trkpt lat="43.0915931985" lon="-4.1458994430">
        <ele>802.84</ele>
        <time>2018-05-19T14:32:20Z</time>
      </trkpt>
      <trkpt lat="43.0914538074" lon="-4.1457914002">
        <ele>802.36</ele>
        <time>2018-05-19T14:32:22Z</time>
      </trkpt>
      <trkpt lat="43.0912906118" lon="-4.1456774063">
        <ele>801.88</ele>
        <time>2018-05-19T14:32:24Z</time>
      </trkpt>
      <trkpt lat="43.0912081338" lon="-4.1456294619">
        <ele>800.92</ele>
        <time>2018-05-19T14:32:25Z</time>
      </trkpt>
      <trkpt lat="43.0910342932" lon="-4.1455484089">
        <ele>799.95</ele>
        <time>2018-05-19T14:32:27Z</time>
      </trkpt>
      <trkpt lat="43.0909504741" lon="-4.1455059964">
        <ele>799.47</ele>
        <time>2018-05-19T14:32:28Z</time>
      </trkpt>
      <trkpt lat="43.0908653978" lon="-4.1454600636">
        <ele>798.99</ele>
        <time>2018-05-19T14:32:29Z</time>
      </trkpt>
      <trkpt lat="43.0907606240" lon="-4.1453960259">
        <ele>798.03</ele>
        <time>2018-05-19T14:32:30Z</time>
      </trkpt>
      <trkpt lat="43.0906787328" lon="-4.1453443095">
        <ele>797.55</ele>
        <time>2018-05-19T14:32:31Z</time>
      </trkpt>
      <trkpt lat="43.0905346479" lon="-4.1452704649">
        <ele>797.07</ele>
        <time>2018-05-19T14:32:33Z</time>
      </trkpt>
      <trkpt lat="43.0903832708" lon="-4.1452435590">
        <ele>796.11</ele>
        <time>2018-05-19T14:32:35Z</time>
      </trkpt>
      <trkpt lat="43.0902621523" lon="-4.1453031544">
        <ele>796.11</ele>
        <time>2018-05-19T14:32:37Z</time>
      </trkpt>
      <trkpt lat="43.0901600607" lon="-4.1453808546">
        <ele>795.63</ele>
        <time>2018-05-19T14:32:39Z</time>
      </trkpt>
      <trkpt lat="43.0900372658" lon="-4.1453400347">
        <ele>795.63</ele>
        <time>2018-05-19T14:32:42Z</time>
      </trkpt>
      <trkpt lat="43.0899816938" lon="-4.1451806109">
        <ele>795.63</ele>
        <time>2018-05-19T14:32:45Z</time>
      </trkpt>
      <trkpt lat="43.0899186619" lon="-4.1450384539">
        <ele>795.63</ele>
        <time>2018-05-19T14:32:48Z</time>
      </trkpt>
      <trkpt lat="43.0898191687" lon="-4.1449256334">
        <ele>797.07</ele>
        <time>2018-05-19T14:32:51Z</time>
      </trkpt>
      <trkpt lat="43.0897194240" lon="-4.1448422335">
        <ele>797.55</ele>
        <time>2018-05-19T14:32:54Z</time>
      </trkpt>
      <trkpt lat="43.0896117166" lon="-4.1447529662">
        <ele>797.55</ele>
        <time>2018-05-19T14:32:57Z</time>
      </trkpt>
      <trkpt lat="43.0894876644" lon="-4.1446704883">
        <ele>798.03</ele>
        <time>2018-05-19T14:33:00Z</time>
      </trkpt>
      <trkpt lat="43.0893740896" lon="-4.1446133237">
        <ele>798.03</ele>
        <time>2018-05-19T14:33:03Z</time>
      </trkpt>
      <trkpt lat="43.0892500374" lon="-4.1445642896">
        <ele>798.51</ele>
        <time>2018-05-19T14:33:06Z</time>
      </trkpt>
      <trkpt lat="43.0891184416" lon="-4.1445367131">
        <ele>798.51</ele>
        <time>2018-05-19T14:33:09Z</time>
      </trkpt>
      <trkpt lat="43.0890179425" lon="-4.1445197817">
        <ele>798.51</ele>
        <time>2018-05-19T14:33:11Z</time>
      </trkpt>
      <trkpt lat="43.0888834968" lon="-4.1445130762">
        <ele>798.51</ele>
        <time>2018-05-19T14:33:14Z</time>
      </trkpt>
      <trkpt lat="43.0887454469" lon="-4.1445163451">
        <ele>798.51</ele>
        <time>2018-05-19T14:33:17Z</time>
      </trkpt>
      <trkpt lat="43.0886101630" lon="-4.1445186920">
        <ele>798.51</ele>
        <time>2018-05-19T14:33:20Z</time>
      </trkpt>
      <trkpt lat="43.0884787347" lon="-4.1445163451">
        <ele>798.99</ele>
        <time>2018-05-19T14:33:23Z</time>
      </trkpt>
      <trkpt lat="43.0883653276" lon="-4.1445129085">
        <ele>799.47</ele>
        <time>2018-05-19T14:33:26Z</time>
      </trkpt>
      <trkpt lat="43.0882436223" lon="-4.1445361264">
        <ele>799.47</ele>
        <time>2018-05-19T14:33:29Z</time>
      </trkpt>
      <trkpt lat="43.0881300475" lon="-4.1446206160">
        <ele>799.95</ele>
        <time>2018-05-19T14:33:32Z</time>
      </trkpt>
      <trkpt lat="43.0880503356" lon="-4.1447289940">
        <ele>800.44</ele>
        <time>2018-05-19T14:33:35Z</time>
      </trkpt>
      <trkpt lat="43.0879817717" lon="-4.1448572371">
        <ele>800.92</ele>
        <time>2018-05-19T14:33:38Z</time>
      </trkpt>
      <trkpt lat="43.0879157223" lon="-4.1449943651">
        <ele>801.40</ele>
        <time>2018-05-19T14:33:41Z</time>
      </trkpt>
      <trkpt lat="43.0878241919" lon="-4.1451242007">
        <ele>801.40</ele>
        <time>2018-05-19T14:33:44Z</time>
      </trkpt>
      <trkpt lat="43.0877321586" lon="-4.1452380270">
        <ele>801.40</ele>
        <time>2018-05-19T14:33:47Z</time>
      </trkpt>
      <trkpt lat="43.0876527820" lon="-4.1453223489">
        <ele>801.40</ele>
        <time>2018-05-19T14:33:49Z</time>
      </trkpt>
      <trkpt lat="43.0875594914" lon="-4.1454097722">
        <ele>801.40</ele>
        <time>2018-05-19T14:33:51Z</time>
      </trkpt>
      <trkpt lat="43.0874606688" lon="-4.1455138754">
        <ele>799.95</ele>
        <time>2018-05-19T14:33:53Z</time>
      </trkpt>
      <trkpt lat="43.0873786099" lon="-4.1456170566">
        <ele>799.47</ele>
        <time>2018-05-19T14:33:55Z</time>
      </trkpt>
      <trkpt lat="43.0872925278" lon="-4.1457411926">
        <ele>798.99</ele>
        <time>2018-05-19T14:33:57Z</time>
      </trkpt>
      <trkpt lat="43.0872183479" lon="-4.1458692681">
        <ele>798.51</ele>
        <time>2018-05-19T14:33:59Z</time>
      </trkpt>
      <trkpt lat="43.0871569924" lon="-4.1460224055">
        <ele>797.55</ele>
        <time>2018-05-19T14:34:01Z</time>
      </trkpt>
      <trkpt lat="43.0870791245" lon="-4.1461757943">
        <ele>796.59</ele>
        <time>2018-05-19T14:34:03Z</time>
      </trkpt>
      <trkpt lat="43.0869890191" lon="-4.1463117488">
        <ele>796.59</ele>
        <time>2018-05-19T14:34:05Z</time>
      </trkpt>
      <trkpt lat="43.0869026855" lon="-4.1464264132">
        <ele>795.63</ele>
        <time>2018-05-19T14:34:07Z</time>
      </trkpt>
      <trkpt lat="43.0868060421" lon="-4.1465508007">
        <ele>794.67</ele>
        <time>2018-05-19T14:34:09Z</time>
      </trkpt>
      <trkpt lat="43.0867035314" lon="-4.1466894373">
        <ele>794.67</ele>
        <time>2018-05-19T14:34:11Z</time>
      </trkpt>
      <trkpt lat="43.0865940638" lon="-4.1468369588">
        <ele>793.71</ele>
        <time>2018-05-19T14:34:13Z</time>
      </trkpt>
      <trkpt lat="43.0864705984" lon="-4.1469495278">
        <ele>792.74</ele>
        <time>2018-05-19T14:34:15Z</time>
      </trkpt>
      <trkpt lat="43.0863548443" lon="-4.1470066924">
        <ele>792.74</ele>
        <time>2018-05-19T14:34:17Z</time>
      </trkpt>
      <trkpt lat="43.0862512439" lon="-4.1470663715">
        <ele>793.22</ele>
        <time>2018-05-19T14:34:19Z</time>
      </trkpt>
      <trkpt lat="43.0861983541" lon="-4.1471921001">
        <ele>795.15</ele>
        <time>2018-05-19T14:34:22Z</time>
      </trkpt>
      <trkpt lat="43.0861632340" lon="-4.1473196726">
        <ele>796.59</ele>
        <time>2018-05-19T14:34:25Z</time>
      </trkpt>
      <trkpt lat="43.0861255992" lon="-4.1474376898">
        <ele>797.55</ele>
        <time>2018-05-19T14:34:29Z</time>
      </trkpt>
      <trkpt lat="43.0860908981" lon="-4.1475676093">
        <ele>798.51</ele>
        <time>2018-05-19T14:34:33Z</time>
      </trkpt>
      <trkpt lat="43.0860582087" lon="-4.1476939246">
        <ele>799.95</ele>
        <time>2018-05-19T14:34:37Z</time>
      </trkpt>
      <trkpt lat="43.0860194843" lon="-4.1478160489">
        <ele>800.92</ele>
        <time>2018-05-19T14:34:41Z</time>
      </trkpt>
      <trkpt lat="43.0859742220" lon="-4.1479412746">
        <ele>801.88</ele>
        <time>2018-05-19T14:34:45Z</time>
      </trkpt>
      <trkpt lat="43.0858997069" lon="-4.1480720323">
        <ele>803.32</ele>
        <time>2018-05-19T14:34:50Z</time>
      </trkpt>
      <trkpt lat="43.0858273711" lon="-4.1481580306">
        <ele>803.80</ele>
        <time>2018-05-19T14:34:54Z</time>
      </trkpt>
      <trkpt lat="43.0857256148" lon="-4.1482400894">
        <ele>804.76</ele>
        <time>2018-05-19T14:34:59Z</time>
      </trkpt>
      <trkpt lat="43.0856338330" lon="-4.1483307816">
        <ele>805.72</ele>
        <time>2018-05-19T14:35:04Z</time>
      </trkpt>
      <trkpt lat="43.0855630059" lon="-4.1484457813">
        <ele>806.68</ele>
        <time>2018-05-19T14:35:09Z</time>
      </trkpt>
      <trkpt lat="43.0855067633" lon="-4.1485678218">
        <ele>807.64</ele>
        <time>2018-05-19T14:35:14Z</time>
      </trkpt>
      <trkpt lat="43.0854663625" lon="-4.1486938018">
        <ele>808.61</ele>
        <time>2018-05-19T14:35:19Z</time>
      </trkpt>
      <trkpt lat="43.0854479223" lon="-4.1488454305">
        <ele>810.05</ele>
        <time>2018-05-19T14:35:25Z</time>
      </trkpt>
      <trkpt lat="43.0854346789" lon="-4.1489928681">
        <ele>811.01</ele>
        <time>2018-05-19T14:35:31Z</time>
      </trkpt>
      <trkpt lat="43.0854112934" lon="-4.1491381265">
        <ele>811.97</ele>
        <time>2018-05-19T14:35:37Z</time>
      </trkpt>
      <trkpt lat="43.0853858124" lon="-4.1492833849">
        <ele>812.93</ele>
        <time>2018-05-19T14:35:43Z</time>
      </trkpt>
      <trkpt lat="43.0853493512" lon="-4.1494163219">
        <ele>813.89</ele>
        <time>2018-05-19T14:35:49Z</time>
      </trkpt>
      <trkpt lat="43.0853143148" lon="-4.1495418828">
        <ele>815.82</ele>
        <time>2018-05-19T14:35:55Z</time>
      </trkpt>
      <trkpt lat="43.0852543004" lon="-4.1496640909">
        <ele>816.30</ele>
        <time>2018-05-19T14:36:01Z</time>
      </trkpt>
      <trkpt lat="43.0851745885" lon="-4.1497591417">
        <ele>817.26</ele>
        <time>2018-05-19T14:36:07Z</time>
      </trkpt>
      <trkpt lat="43.0850870814" lon="-4.1498618200">
        <ele>818.70</ele>
        <time>2018-05-19T14:36:14Z</time>
      </trkpt>
      <trkpt lat="43.0850080401" lon="-4.1499669291">
        <ele>820.14</ele>
        <time>2018-05-19T14:36:20Z</time>
      </trkpt>
      <trkpt lat="43.0849268194" lon="-4.1500560287">
        <ele>821.10</ele>
        <time>2018-05-19T14:36:26Z</time>
      </trkpt>
      <trkpt lat="43.0848289188" lon="-4.1501411889">
        <ele>822.55</ele>
        <time>2018-05-19T14:36:33Z</time>
      </trkpt>
      <trkpt lat="43.0847408250" lon="-4.1502053943">
        <ele>823.51</ele>
        <time>2018-05-19T14:36:39Z</time>
      </trkpt>
      <trkpt lat="43.0846359674" lon="-4.1502661631">
        <ele>824.47</ele>
        <time>2018-05-19T14:36:46Z</time>
      </trkpt>
      <trkpt lat="43.0845385697" lon="-4.1503229924">
        <ele>825.43</ele>
        <time>2018-05-19T14:36:52Z</time>
      </trkpt>
      <trkpt lat="43.0844489671" lon="-4.1503803246">
        <ele>826.87</ele>
        <time>2018-05-19T14:36:58Z</time>
      </trkpt>
      <trkpt lat="43.0843503121" lon="-4.1504445300">
        <ele>827.83</ele>
        <time>2018-05-19T14:37:04Z</time>
      </trkpt>
      <trkpt lat="43.0842426885" lon="-4.1504942346">
        <ele>829.27</ele>
        <time>2018-05-19T14:37:10Z</time>
      </trkpt>
      <trkpt lat="43.0841390043" lon="-4.1505155247">
        <ele>829.27</ele>
        <time>2018-05-19T14:37:16Z</time>
      </trkpt>
      <trkpt lat="43.0840348173" lon="-4.1505291872">
        <ele>830.24</ele>
        <time>2018-05-19T14:37:22Z</time>
      </trkpt>
      <trkpt lat="43.0839302950" lon="-4.1505270917">
        <ele>831.68</ele>
        <time>2018-05-19T14:37:28Z</time>
      </trkpt>
      <trkpt lat="43.0838287901" lon="-4.1505099088">
        <ele>832.64</ele>
        <time>2018-05-19T14:37:34Z</time>
      </trkpt>
      <trkpt lat="43.0837312248" lon="-4.1504811589">
        <ele>833.60</ele>
        <time>2018-05-19T14:37:40Z</time>
      </trkpt>
      <trkpt lat="43.0836390238" lon="-4.1504234076">
        <ele>834.56</ele>
        <time>2018-05-19T14:37:46Z</time>
      </trkpt>
      <trkpt lat="43.0835423805" lon="-4.1503703501">
        <ele>835.52</ele>
        <time>2018-05-19T14:37:52Z</time>
      </trkpt>
      <trkpt lat="43.0834520236" lon="-4.1503267642">
        <ele>836.48</ele>
        <time>2018-05-19T14:37:58Z</time>
      </trkpt>
      <trkpt lat="43.0833583139" lon="-4.1502632294">
        <ele>837.45</ele>
        <time>2018-05-19T14:38:04Z</time>
      </trkpt>
      <trkpt lat="43.0832733214" lon="-4.1501913965">
        <ele>838.41</ele>
        <time>2018-05-19T14:38:10Z</time>
      </trkpt>
      <trkpt lat="43.0831913464" lon="-4.1501165461">
        <ele>839.37</ele>
        <time>2018-05-19T14:38:16Z</time>
      </trkpt>
      <trkpt lat="43.0830945354" lon="-4.1500489879">
        <ele>839.85</ele>
        <time>2018-05-19T14:38:22Z</time>
      </trkpt>
      <trkpt lat="43.0830009934" lon="-4.1499728803">
        <ele>840.81</ele>
        <time>2018-05-19T14:38:28Z</time>
      </trkpt>
      <trkpt lat="43.0829121452" lon="-4.1499142069">
        <ele>841.77</ele>
        <time>2018-05-19T14:38:33Z</time>
      </trkpt>
      <trkpt lat="43.0828159209" lon="-4.1498960182">
        <ele>842.73</ele>
        <time>2018-05-19T14:38:38Z</time>
      </trkpt>
      <trkpt lat="43.0827231333" lon="-4.1499322280">
        <ele>842.73</ele>
        <time>2018-05-19T14:38:43Z</time>
      </trkpt>
      <trkpt lat="43.0826627836" lon="-4.1500246804">
        <ele>843.69</ele>
        <time>2018-05-19T14:38:48Z</time>
      </trkpt>
      <trkpt lat="43.0826645438" lon="-4.1501528397">
        <ele>844.66</ele>
        <time>2018-05-19T14:38:54Z</time>
      </trkpt>
      <trkpt lat="43.0827115662" lon="-4.1502849385">
        <ele>845.62</ele>
        <time>2018-05-19T14:39:00Z</time>
      </trkpt>
      <trkpt lat="43.0827244744" lon="-4.1504085716">
        <ele>846.10</ele>
        <time>2018-05-19T14:39:05Z</time>
      </trkpt>
      <trkpt lat="43.0826869234" lon="-4.1505219787">
        <ele>847.06</ele>
        <time>2018-05-19T14:39:10Z</time>
      </trkpt>
      <trkpt lat="43.0826045293" lon="-4.1506304406">
        <ele>847.54</ele>
        <time>2018-05-19T14:39:17Z</time>
      </trkpt>
      <trkpt lat="43.0825150944" lon="-4.1507290117">
        <ele>848.02</ele>
        <time>2018-05-19T14:39:23Z</time>
      </trkpt>
      <trkpt lat="43.0824247375" lon="-4.1508271638">
        <ele>848.98</ele>
        <time>2018-05-19T14:39:28Z</time>
      </trkpt>
      <trkpt lat="43.0823291000" lon="-4.1509132460">
        <ele>849.94</ele>
        <time>2018-05-19T14:39:34Z</time>
      </trkpt>
      <trkpt lat="43.0822365638" lon="-4.1510257311">
        <ele>850.42</ele>
        <time>2018-05-19T14:39:40Z</time>
      </trkpt>
      <trkpt lat="43.0821324605" lon="-4.1511263978">
        <ele>850.90</ele>
        <time>2018-05-19T14:39:46Z</time>
      </trkpt>
      <trkpt lat="43.0820504017" lon="-4.1512298305">
        <ele>851.87</ele>
        <time>2018-05-19T14:39:51Z</time>
      </trkpt>
      <trkpt lat="43.0819750484" lon="-4.1513275634">
        <ele>852.35</ele>
        <time>2018-05-19T14:39:56Z</time>
      </trkpt>
      <trkpt lat="43.0818936601" lon="-4.1514416412">
        <ele>852.83</ele>
        <time>2018-05-19T14:40:01Z</time>
      </trkpt>
      <trkpt lat="43.0818301253" lon="-4.1515439004">
        <ele>853.31</ele>
        <time>2018-05-19T14:40:06Z</time>
      </trkpt>
      <trkpt lat="43.0817665905" lon="-4.1516537871">
        <ele>853.79</ele>
        <time>2018-05-19T14:40:11Z</time>
      </trkpt>
      <trkpt lat="43.0817258544" lon="-4.1517759115">
        <ele>854.27</ele>
        <time>2018-05-19T14:40:16Z</time>
      </trkpt>
      <trkpt lat="43.0816793349" lon="-4.1518876422">
        <ele>854.75</ele>
        <time>2018-05-19T14:40:21Z</time>
      </trkpt>
      <trkpt lat="43.0816339888" lon="-4.1520174779">
        <ele>855.23</ele>
        <time>2018-05-19T14:40:27Z</time>
      </trkpt>
      <trkpt lat="43.0815876368" lon="-4.1521271970">
        <ele>856.67</ele>
        <time>2018-05-19T14:40:32Z</time>
      </trkpt>
      <trkpt lat="43.0815484095" lon="-4.1522430349">
        <ele>857.15</ele>
        <time>2018-05-19T14:40:37Z</time>
      </trkpt>
      <trkpt lat="43.0815012194" lon="-4.1523701884">
        <ele>857.63</ele>
        <time>2018-05-19T14:40:42Z</time>
      </trkpt>
      <trkpt lat="43.0814514309" lon="-4.1524892952">
        <ele>858.11</ele>
        <time>2018-05-19T14:40:47Z</time>
      </trkpt>
      <trkpt lat="43.0814167298" lon="-4.1526275966">
        <ele>859.08</ele>
        <time>2018-05-19T14:40:52Z</time>
      </trkpt>
      <trkpt lat="43.0813942663" lon="-4.1527609527">
        <ele>859.56</ele>
        <time>2018-05-19T14:40:57Z</time>
      </trkpt>
      <trkpt lat="43.0813948531" lon="-4.1529128328">
        <ele>860.04</ele>
        <time>2018-05-19T14:41:02Z</time>
      </trkpt>
      <trkpt lat="43.0814239383" lon="-4.1530599352">
        <ele>860.52</ele>
        <time>2018-05-19T14:41:07Z</time>
      </trkpt>
      <trkpt lat="43.0814620759" lon="-4.1532004997">
        <ele>860.52</ele>
        <time>2018-05-19T14:41:12Z</time>
      </trkpt>
      <trkpt lat="43.0814997945" lon="-4.1533402260">
        <ele>861.96</ele>
        <time>2018-05-19T14:41:17Z</time>
      </trkpt>
      <trkpt lat="43.0815194920" lon="-4.1534669604">
        <ele>862.44</ele>
        <time>2018-05-19T14:41:21Z</time>
      </trkpt>
      <trkpt lat="43.0815231800" lon="-4.1535937786">
        <ele>862.92</ele>
        <time>2018-05-19T14:41:25Z</time>
      </trkpt>
      <trkpt lat="43.0814987049" lon="-4.1537338402">
        <ele>863.40</ele>
        <time>2018-05-19T14:41:29Z</time>
      </trkpt>
      <trkpt lat="43.0814603157" lon="-4.1538807750">
        <ele>863.88</ele>
        <time>2018-05-19T14:41:34Z</time>
      </trkpt>
      <trkpt lat="43.0813992955" lon="-4.1540214233">
        <ele>864.84</ele>
        <time>2018-05-19T14:41:39Z</time>
      </trkpt>
      <trkpt lat="43.0813355092" lon="-4.1541613173">
        <ele>865.80</ele>
        <time>2018-05-19T14:41:44Z</time>
      </trkpt>
      <trkpt lat="43.0812752433" lon="-4.1542922426">
        <ele>866.29</ele>
        <time>2018-05-19T14:41:49Z</time>
      </trkpt>
      <trkpt lat="43.0812222697" lon="-4.1544354055">
        <ele>867.25</ele>
        <time>2018-05-19T14:41:54Z</time>
      </trkpt>
      <trkpt lat="43.0811852217" lon="-4.1545532551">
        <ele>867.73</ele>
        <time>2018-05-19T14:41:58Z</time>
      </trkpt>
      <trkpt lat="43.0811451562" lon="-4.1546942387">
        <ele>868.69</ele>
        <time>2018-05-19T14:42:03Z</time>
      </trkpt>
      <trkpt lat="43.0810881592" lon="-4.1548252478">
        <ele>869.17</ele>
        <time>2018-05-19T14:42:08Z</time>
      </trkpt>
      <trkpt lat="43.0810377002" lon="-4.1549768765">
        <ele>870.13</ele>
        <time>2018-05-19T14:42:14Z</time>
      </trkpt>
      <trkpt lat="43.0809736624" lon="-4.1551103164">
        <ele>871.09</ele>
        <time>2018-05-19T14:42:19Z</time>
      </trkpt>
      <trkpt lat="43.0809031706" lon="-4.1552332789">
        <ele>871.57</ele>
        <time>2018-05-19T14:42:24Z</time>
      </trkpt>
      <trkpt lat="43.0808186810" lon="-4.1553560738">
        <ele>872.53</ele>
        <time>2018-05-19T14:42:29Z</time>
      </trkpt>
      <trkpt lat="43.0807403941" lon="-4.1554584168">
        <ele>873.01</ele>
        <time>2018-05-19T14:42:34Z</time>
      </trkpt>
      <trkpt lat="43.0806731712" lon="-4.1555548925">
        <ele>873.50</ele>
        <time>2018-05-19T14:42:38Z</time>
      </trkpt>
      <trkpt lat="43.0805954710" lon="-4.1556725744">
        <ele>874.46</ele>
        <time>2018-05-19T14:42:43Z</time>
      </trkpt>
      <trkpt lat="43.0805210397" lon="-4.1557677928">
        <ele>874.46</ele>
        <time>2018-05-19T14:42:48Z</time>
      </trkpt>
      <trkpt lat="43.0804416630" lon="-4.1558706388">
        <ele>875.42</ele>
        <time>2018-05-19T14:42:54Z</time>
      </trkpt>
      <trkpt lat="43.0803528149" lon="-4.1559566371">
        <ele>875.90</ele>
        <time>2018-05-19T14:42:59Z</time>
      </trkpt>
      <trkpt lat="43.0802767072" lon="-4.1560796835">
        <ele>876.86</ele>
        <time>2018-05-19T14:43:04Z</time>
      </trkpt>
      <trkpt lat="43.0801959056" lon="-4.1562066693">
        <ele>877.34</ele>
        <time>2018-05-19T14:43:09Z</time>
      </trkpt>
      <trkpt lat="43.0801114161" lon="-4.1563174780">
        <ele>877.82</ele>
        <time>2018-05-19T14:43:14Z</time>
      </trkpt>
      <trkpt lat="43.0800402537" lon="-4.1564131994">
        <ele>878.78</ele>
        <time>2018-05-19T14:43:19Z</time>
      </trkpt>
      <trkpt lat="43.0799624696" lon="-4.1565152071">
        <ele>879.26</ele>
        <time>2018-05-19T14:43:23Z</time>
      </trkpt>
      <trkpt lat="43.0798803270" lon="-4.1566181369">
        <ele>880.22</ele>
        <time>2018-05-19T14:43:28Z</time>
      </trkpt>
      <trkpt lat="43.0798058119" lon="-4.1567186359">
        <ele>880.71</ele>
        <time>2018-05-19T14:43:33Z</time>
      </trkpt>
      <trkpt lat="43.0797228310" lon="-4.1568217333">
        <ele>881.19</ele>
        <time>2018-05-19T14:43:38Z</time>
      </trkpt>
      <trkpt lat="43.0796437059" lon="-4.1569161974">
        <ele>882.15</ele>
        <time>2018-05-19T14:43:42Z</time>
      </trkpt>
      <trkpt lat="43.0795664247" lon="-4.1569976695">
        <ele>883.11</ele>
        <time>2018-05-19T14:43:46Z</time>
      </trkpt>
      <trkpt lat="43.0794711225" lon="-4.1570482962">
        <ele>883.11</ele>
        <time>2018-05-19T14:43:50Z</time>
      </trkpt>
      <trkpt lat="43.0793764908" lon="-4.1571125016">
        <ele>884.07</ele>
        <time>2018-05-19T14:43:55Z</time>
      </trkpt>
      <trkpt lat="43.0792930070" lon="-4.1571750306">
        <ele>885.03</ele>
        <time>2018-05-19T14:44:00Z</time>
      </trkpt>
      <trkpt lat="43.0792129599" lon="-4.1572615318">
        <ele>885.51</ele>
        <time>2018-05-19T14:44:05Z</time>
      </trkpt>
      <trkpt lat="43.0791400373" lon="-4.1573783755">
        <ele>885.99</ele>
        <time>2018-05-19T14:44:10Z</time>
      </trkpt>
      <trkpt lat="43.0790699646" lon="-4.1574883461">
        <ele>886.95</ele>
        <time>2018-05-19T14:44:15Z</time>
      </trkpt>
      <trkpt lat="43.0790109560" lon="-4.1576354485">
        <ele>886.95</ele>
        <time>2018-05-19T14:44:20Z</time>
      </trkpt>
      <trkpt lat="43.0789509416" lon="-4.1577984765">
        <ele>887.91</ele>
        <time>2018-05-19T14:44:25Z</time>
      </trkpt>
      <trkpt lat="43.0788964592" lon="-4.1579501051">
        <ele>888.88</ele>
        <time>2018-05-19T14:44:30Z</time>
      </trkpt>
      <trkpt lat="43.0788779352" lon="-4.1581101157">
        <ele>889.36</ele>
        <time>2018-05-19T14:44:35Z</time>
      </trkpt>
      <trkpt lat="43.0788731575" lon="-4.1582364310">
        <ele>890.32</ele>
        <time>2018-05-19T14:44:39Z</time>
      </trkpt>
      <trkpt lat="43.0788819585" lon="-4.1583821084">
        <ele>890.80</ele>
        <time>2018-05-19T14:44:43Z</time>
      </trkpt>
      <trkpt lat="43.0789029971" lon="-4.1585147101">
        <ele>891.28</ele>
        <time>2018-05-19T14:44:47Z</time>
      </trkpt>
      <trkpt lat="43.0789240357" lon="-4.1586634051">
        <ele>891.76</ele>
        <time>2018-05-19T14:44:52Z</time>
      </trkpt>
      <trkpt lat="43.0789340939" lon="-4.1588032991">
        <ele>892.24</ele>
        <time>2018-05-19T14:44:56Z</time>
      </trkpt>
      <trkpt lat="43.0789301544" lon="-4.1589608788">
        <ele>893.20</ele>
        <time>2018-05-19T14:45:01Z</time>
      </trkpt>
      <trkpt lat="43.0789071880" lon="-4.1591006052">
        <ele>893.68</ele>
        <time>2018-05-19T14:45:05Z</time>
      </trkpt>
      <trkpt lat="43.0788594950" lon="-4.1592188738">
        <ele>894.16</ele>
        <time>2018-05-19T14:45:09Z</time>
      </trkpt>
      <trkpt lat="43.0787847284" lon="-4.1593132541">
        <ele>894.64</ele>
        <time>2018-05-19T14:45:13Z</time>
      </trkpt>
      <trkpt lat="43.0786888395" lon="-4.1593892779">
        <ele>894.64</ele>
        <time>2018-05-19T14:45:17Z</time>
      </trkpt>
      <trkpt lat="43.0786020868" lon="-4.1594425030">
        <ele>894.64</ele>
        <time>2018-05-19T14:45:20Z</time>
      </trkpt>
      <trkpt lat="43.0784987379" lon="-4.1595093068">
        <ele>894.64</ele>
        <time>2018-05-19T14:45:23Z</time>
      </trkpt>
      <trkpt lat="43.0784119014" lon="-4.1595606878">
        <ele>893.20</ele>
        <time>2018-05-19T14:45:25Z</time>
      </trkpt>
      <trkpt lat="43.0782829039" lon="-4.1596398968">
        <ele>892.24</ele>
        <time>2018-05-19T14:45:28Z</time>
      </trkpt>
      <trkpt lat="43.0781824887" lon="-4.1596969776">
        <ele>891.76</ele>
        <time>2018-05-19T14:45:30Z</time>
      </trkpt>
      <trkpt lat="43.0780683272" lon="-4.1597616859">
        <ele>891.28</ele>
        <time>2018-05-19T14:45:32Z</time>
      </trkpt>
      <trkpt lat="43.0779343843" lon="-4.1598300822">
        <ele>889.84</ele>
        <time>2018-05-19T14:45:34Z</time>
      </trkpt>
      <trkpt lat="43.0778190494" lon="-4.1598787811">
        <ele>889.84</ele>
        <time>2018-05-19T14:45:36Z</time>
      </trkpt>
      <trkpt lat="43.0776863638" lon="-4.1599398851">
        <ele>888.40</ele>
        <time>2018-05-19T14:45:38Z</time>
      </trkpt>
      <trkpt lat="43.0775538459" lon="-4.1600204352">
        <ele>887.91</ele>
        <time>2018-05-19T14:45:40Z</time>
      </trkpt>
      <trkpt lat="43.0774219148" lon="-4.1601225268">
        <ele>886.47</ele>
        <time>2018-05-19T14:45:42Z</time>
      </trkpt>
      <trkpt lat="43.0773132853" lon="-4.1602910869">
        <ele>885.51</ele>
        <time>2018-05-19T14:45:44Z</time>
      </trkpt>
      <trkpt lat="43.0772618204" lon="-4.1604465712">
        <ele>885.03</ele>
        <time>2018-05-19T14:45:46Z</time>
      </trkpt>
      <trkpt lat="43.0772187375" lon="-4.1606347449">
        <ele>884.07</ele>
        <time>2018-05-19T14:45:48Z</time>
      </trkpt>
      <trkpt lat="43.0771951843" lon="-4.1608401854">
        <ele>883.11</ele>
        <time>2018-05-19T14:45:50Z</time>
      </trkpt>
      <trkpt lat="43.0771855451" lon="-4.1610522475">
        <ele>883.11</ele>
        <time>2018-05-19T14:45:52Z</time>
      </trkpt>
      <trkpt lat="43.0771569628" lon="-4.1612053011">
        <ele>883.11</ele>
        <time>2018-05-19T14:45:54Z</time>
      </trkpt>
      <trkpt lat="43.0771117844" lon="-4.1613236535">
        <ele>885.51</ele>
        <time>2018-05-19T14:45:56Z</time>
      </trkpt>
      <trkpt lat="43.0770587269" lon="-4.1614434309">
        <ele>886.95</ele>
        <time>2018-05-19T14:45:59Z</time>
      </trkpt>
      <trkpt lat="43.0770112853" lon="-4.1615507193">
        <ele>887.91</ele>
        <time>2018-05-19T14:46:02Z</time>
      </trkpt>
      <trkpt lat="43.0769617483" lon="-4.1616665572">
        <ele>889.36</ele>
        <time>2018-05-19T14:46:06Z</time>
      </trkpt>
      <trkpt lat="43.0769019853" lon="-4.1617714148">
        <ele>890.32</ele>
        <time>2018-05-19T14:46:10Z</time>
      </trkpt>
      <trkpt lat="43.0768437311" lon="-4.1618837323">
        <ele>891.28</ele>
        <time>2018-05-19T14:46:14Z</time>
      </trkpt>
      <trkpt lat="43.0767596606" lon="-4.1619833931">
        <ele>891.76</ele>
        <time>2018-05-19T14:46:19Z</time>
      </trkpt>
      <trkpt lat="43.0766840558" lon="-4.1620656196">
        <ele>892.72</ele>
        <time>2018-05-19T14:46:23Z</time>
      </trkpt>
      <trkpt lat="43.0765944533" lon="-4.1621383745">
        <ele>894.16</ele>
        <time>2018-05-19T14:46:28Z</time>
      </trkpt>
      <trkpt lat="43.0765066948" lon="-4.1621987242">
        <ele>895.12</ele>
        <time>2018-05-19T14:46:33Z</time>
      </trkpt>
      <trkpt lat="43.0764229596" lon="-4.1622622591">
        <ele>896.57</ele>
        <time>2018-05-19T14:46:38Z</time>
      </trkpt>
      <trkpt lat="43.0763287470" lon="-4.1623395402">
        <ele>897.05</ele>
        <time>2018-05-19T14:46:44Z</time>
      </trkpt>
      <trkpt lat="43.0762374680" lon="-4.1624238621">
        <ele>898.49</ele>
        <time>2018-05-19T14:46:50Z</time>
      </trkpt>
      <trkpt lat="43.0761567503" lon="-4.1625272948">
        <ele>899.45</ele>
        <time>2018-05-19T14:46:56Z</time>
      </trkpt>
      <trkpt lat="43.0761114042" lon="-4.1626656801">
        <ele>900.41</ele>
        <time>2018-05-19T14:47:02Z</time>
      </trkpt>
      <trkpt lat="43.0760926288" lon="-4.1627943423">
        <ele>901.37</ele>
        <time>2018-05-19T14:47:07Z</time>
      </trkpt>
      <trkpt lat="43.0760795530" lon="-4.1629382595">
        <ele>902.33</ele>
        <time>2018-05-19T14:47:13Z</time>
      </trkpt>
      <trkpt lat="43.0760559998" lon="-4.1630525049">
        <ele>902.82</ele>
        <time>2018-05-19T14:47:18Z</time>
      </trkpt>
      <trkpt lat="43.0760098156" lon="-4.1631675046">
        <ele>904.26</ele>
        <time>2018-05-19T14:47:23Z</time>
      </trkpt>
      <trkpt lat="43.0759518966" lon="-4.1632998548">
        <ele>905.22</ele>
        <time>2018-05-19T14:47:29Z</time>
      </trkpt>
      <trkpt lat="43.0759035330" lon="-4.1634309478">
        <ele>906.18</ele>
        <time>2018-05-19T14:47:35Z</time>
      </trkpt>
      <trkpt lat="43.0758596119" lon="-4.1635594424">
        <ele>907.14</ele>
        <time>2018-05-19T14:47:41Z</time>
      </trkpt>
      <trkpt lat="43.0758130923" lon="-4.1636865120">
        <ele>908.58</ele>
        <time>2018-05-19T14:47:47Z</time>
      </trkpt>
      <trkpt lat="43.0757610407" lon="-4.1638110671">
        <ele>909.54</ele>
        <time>2018-05-19T14:47:53Z</time>
      </trkpt>
      <trkpt lat="43.0757177062" lon="-4.1639415734">
        <ele>910.51</ele>
        <time>2018-05-19T14:47:59Z</time>
      </trkpt>
      <trkpt lat="43.0756814126" lon="-4.1640714090">
        <ele>910.99</ele>
        <time>2018-05-19T14:48:04Z</time>
      </trkpt>
      <trkpt lat="43.0756514054" lon="-4.1642061062">
        <ele>911.47</ele>
        <time>2018-05-19T14:48:09Z</time>
      </trkpt>
      <trkpt lat="43.0755743757" lon="-4.1642685514">
        <ele>911.95</ele>
        <time>2018-05-19T14:48:13Z</time>
      </trkpt>
      <trkpt lat="43.0754727870" lon="-4.1641890071">
        <ele>912.91</ele>
        <time>2018-05-19T14:48:18Z</time>
      </trkpt>
      <trkpt lat="43.0754354037" lon="-4.1640602611">
        <ele>914.35</ele>
        <time>2018-05-19T14:48:23Z</time>
      </trkpt>
      <trkpt lat="43.0754107609" lon="-4.1639307607">
        <ele>914.83</ele>
        <time>2018-05-19T14:48:28Z</time>
      </trkpt>
      <trkpt lat="43.0753534287" lon="-4.1638131626">
        <ele>915.79</ele>
        <time>2018-05-19T14:48:33Z</time>
      </trkpt>
      <trkpt lat="43.0752595514" lon="-4.1637608595">
        <ele>917.24</ele>
        <time>2018-05-19T14:48:38Z</time>
      </trkpt>
      <trkpt lat="43.0751626566" lon="-4.1637839936">
        <ele>918.20</ele>
        <time>2018-05-19T14:48:43Z</time>
      </trkpt>
      <trkpt lat="43.0750810169" lon="-4.1638352908">
        <ele>919.16</ele>
        <time>2018-05-19T14:48:48Z</time>
      </trkpt>
      <trkpt lat="43.0750007182" lon="-4.1638907790">
        <ele>919.64</ele>
        <time>2018-05-19T14:48:53Z</time>
      </trkpt>
      <trkpt lat="43.0749310646" lon="-4.1639824770">
        <ele>921.08</ele>
        <time>2018-05-19T14:48:58Z</time>
      </trkpt>
      <trkpt lat="43.0748764146" lon="-4.1641045175">
        <ele>921.56</ele>
        <time>2018-05-19T14:49:03Z</time>
      </trkpt>
      <trkpt lat="43.0748267099" lon="-4.1642541345">
        <ele>922.52</ele>
        <time>2018-05-19T14:49:08Z</time>
      </trkpt>
      <trkpt lat="43.0747695453" lon="-4.1643527057">
        <ele>923.00</ele>
        <time>2018-05-19T14:49:13Z</time>
      </trkpt>
      <trkpt lat="43.0746919289" lon="-4.1644163243">
        <ele>923.96</ele>
        <time>2018-05-19T14:49:18Z</time>
      </trkpt>
      <trkpt lat="43.0745933577" lon="-4.1644636821">
        <ele>924.93</ele>
        <time>2018-05-19T14:49:23Z</time>
      </trkpt>
      <trkpt lat="43.0744738318" lon="-4.1645161528">
        <ele>926.37</ele>
        <time>2018-05-19T14:49:29Z</time>
      </trkpt>
      <trkpt lat="43.0743819661" lon="-4.1646069288">
        <ele>927.81</ele>
        <time>2018-05-19T14:49:35Z</time>
      </trkpt>
      <trkpt lat="43.0742932018" lon="-4.1647174023">
        <ele>928.77</ele>
        <time>2018-05-19T14:49:41Z</time>
      </trkpt>
      <trkpt lat="43.0742038507" lon="-4.1648252774">
        <ele>929.73</ele>
        <time>2018-05-19T14:49:47Z</time>
      </trkpt>
      <trkpt lat="43.0741366278" lon="-4.1649168916">
        <ele>931.17</ele>
        <time>2018-05-19T14:49:52Z</time>
      </trkpt>
      <trkpt lat="43.0740576703" lon="-4.1650076676">
        <ele>931.65</ele>
        <time>2018-05-19T14:49:58Z</time>
      </trkpt>
      <trkpt lat="43.0739828199" lon="-4.1650950909">
        <ele>933.10</ele>
        <time>2018-05-19T14:50:03Z</time>
      </trkpt>
      <trkpt lat="43.0738971569" lon="-4.1651967634">
        <ele>934.06</ele>
        <time>2018-05-19T14:50:09Z</time>
      </trkpt>
      <trkpt lat="43.0738105718" lon="-4.1652708594">
        <ele>934.54</ele>
        <time>2018-05-19T14:50:14Z</time>
      </trkpt>
      <trkpt lat="43.0737311114" lon="-4.1653461289">
        <ele>935.02</ele>
        <time>2018-05-19T14:50:19Z</time>
      </trkpt>
      <trkpt lat="43.0736508127" lon="-4.1654196382">
        <ele>935.50</ele>
        <time>2018-05-19T14:50:24Z</time>
      </trkpt>
      <trkpt lat="43.0735684186" lon="-4.1654973384">
        <ele>935.98</ele>
        <time>2018-05-19T14:50:29Z</time>
      </trkpt>
      <trkpt lat="43.0734933168" lon="-4.1656021960">
        <ele>936.46</ele>
        <time>2018-05-19T14:50:34Z</time>
      </trkpt>
      <trkpt lat="43.0734483059" lon="-4.1657097358">
        <ele>936.46</ele>
        <time>2018-05-19T14:50:38Z</time>
      </trkpt>
      <trkpt lat="43.0734248366" lon="-4.1658551618">
        <ele>936.94</ele>
        <time>2018-05-19T14:50:43Z</time>
      </trkpt>
      <trkpt lat="43.0734216515" lon="-4.1659819800">
        <ele>937.42</ele>
        <time>2018-05-19T14:50:47Z</time>
      </trkpt>
      <trkpt lat="43.0734233279" lon="-4.1661268193">
        <ele>937.42</ele>
        <time>2018-05-19T14:50:52Z</time>
      </trkpt>
      <trkpt lat="43.0734350625" lon="-4.1662537213">
        <ele>937.90</ele>
        <time>2018-05-19T14:50:56Z</time>
      </trkpt>
      <trkpt lat="43.0734486412" lon="-4.1663997341">
        <ele>938.38</ele>
        <time>2018-05-19T14:51:01Z</time>
      </trkpt>
      <trkpt lat="43.0734543409" lon="-4.1665521171">
        <ele>939.35</ele>
        <time>2018-05-19T14:51:06Z</time>
      </trkpt>
      <trkpt lat="43.0734389182" lon="-4.1666851379">
        <ele>940.31</ele>
        <time>2018-05-19T14:51:11Z</time>
      </trkpt>
      <trkpt lat="43.0733870342" lon="-4.1668105312">
        <ele>940.79</ele>
        <time>2018-05-19T14:51:16Z</time>
      </trkpt>
      <trkpt lat="43.0733250920" lon="-4.1669080965">
        <ele>942.23</ele>
        <time>2018-05-19T14:51:21Z</time>
      </trkpt>
      <trkpt lat="43.0732468050" lon="-4.1669993754">
        <ele>942.71</ele>
        <time>2018-05-19T14:51:26Z</time>
      </trkpt>
      <trkpt lat="43.0731511675" lon="-4.1670573782">
        <ele>944.15</ele>
        <time>2018-05-19T14:51:31Z</time>
      </trkpt>
      <trkpt lat="43.0730496626" lon="-4.1670466494">
        <ele>944.63</ele>
        <time>2018-05-19T14:51:36Z</time>
      </trkpt>
      <trkpt lat="43.0729578808" lon="-4.1670383513">
        <ele>946.07</ele>
        <time>2018-05-19T14:51:41Z</time>
      </trkpt>
      <trkpt lat="43.0728650931" lon="-4.1670504212">
        <ele>946.56</ele>
        <time>2018-05-19T14:51:46Z</time>
      </trkpt>
      <trkpt lat="43.0727771670" lon="-4.1670911573">
        <ele>947.52</ele>
        <time>2018-05-19T14:51:51Z</time>
      </trkpt>
      <trkpt lat="43.0726891570" lon="-4.1671386827">
        <ele>948.48</ele>
        <time>2018-05-19T14:51:56Z</time>
      </trkpt>
      <trkpt lat="43.0725993030" lon="-4.1671748087">
        <ele>949.92</ele>
        <time>2018-05-19T14:52:01Z</time>
      </trkpt>
      <trkpt lat="43.0725045875" lon="-4.1672331467">
        <ele>950.40</ele>
        <time>2018-05-19T14:52:07Z</time>
      </trkpt>
      <trkpt lat="43.0724201817" lon="-4.1673155408">
        <ele>951.36</ele>
        <time>2018-05-19T14:52:13Z</time>
      </trkpt>
      <trkpt lat="43.0723898392" lon="-4.1674339771">
        <ele>952.80</ele>
        <time>2018-05-19T14:52:18Z</time>
      </trkpt>
      <trkpt lat="43.0724344309" lon="-4.1675546765">
        <ele>953.28</ele>
        <time>2018-05-19T14:52:24Z</time>
      </trkpt>
      <trkpt lat="43.0725086946" lon="-4.1676254198">
        <ele>953.77</ele>
        <time>2018-05-19T14:52:29Z</time>
      </trkpt>
      <trkpt lat="43.0726059247" lon="-4.1676800698">
        <ele>953.77</ele>
        <time>2018-05-19T14:52:34Z</time>
      </trkpt>
      <trkpt lat="43.0727046635" lon="-4.1676989291">
        <ele>954.73</ele>
        <time>2018-05-19T14:52:38Z</time>
      </trkpt>
      <trkpt lat="43.0728117842" lon="-4.1676615458">
        <ele>955.69</ele>
        <time>2018-05-19T14:52:43Z</time>
      </trkpt>
      <trkpt lat="43.0728986207" lon="-4.1676172055">
        <ele>956.65</ele>
        <time>2018-05-19T14:52:47Z</time>
      </trkpt>
      <trkpt lat="43.0730012991" lon="-4.1675988492">
        <ele>957.13</ele>
        <time>2018-05-19T14:52:52Z</time>
      </trkpt>
      <trkpt lat="43.0731107667" lon="-4.1676238272">
        <ele>958.09</ele>
        <time>2018-05-19T14:52:57Z</time>
      </trkpt>
      <trkpt lat="43.0731849466" lon="-4.1677006055">
        <ele>959.05</ele>
        <time>2018-05-19T14:53:02Z</time>
      </trkpt>
      <trkpt lat="43.0732372496" lon="-4.1678198799">
        <ele>959.53</ele>
        <time>2018-05-19T14:53:07Z</time>
      </trkpt>
      <trkpt lat="43.0732356571" lon="-4.1679529846">
        <ele>960.98</ele>
        <time>2018-05-19T14:53:12Z</time>
      </trkpt>
      <trkpt lat="43.0731904786" lon="-4.1680848319">
        <ele>961.94</ele>
        <time>2018-05-19T14:53:17Z</time>
      </trkpt>
      <trkpt lat="43.0731437076" lon="-4.1682174336">
        <ele>962.42</ele>
        <time>2018-05-19T14:53:22Z</time>
      </trkpt>
      <trkpt lat="43.0731311347" lon="-4.1683367919">
        <ele>963.38</ele>
        <time>2018-05-19T14:53:26Z</time>
      </trkpt>
      <trkpt lat="43.0731394328" lon="-4.1684683040">
        <ele>964.34</ele>
        <time>2018-05-19T14:53:31Z</time>
      </trkpt>
      <trkpt lat="43.0731571186" lon="-4.1685892548">
        <ele>964.82</ele>
        <time>2018-05-19T14:53:36Z</time>
      </trkpt>
      <trkpt lat="43.0731930770" lon="-4.1687231977">
        <ele>965.78</ele>
        <time>2018-05-19T14:53:42Z</time>
      </trkpt>
      <trkpt lat="43.0732281134" lon="-4.1688512731">
        <ele>967.22</ele>
        <time>2018-05-19T14:53:47Z</time>
      </trkpt>
      <trkpt lat="43.0732552707" lon="-4.1690008063">
        <ele>967.70</ele>
        <time>2018-05-19T14:53:53Z</time>
      </trkpt>
      <trkpt lat="43.0732716992" lon="-4.1691229306">
        <ele>968.67</ele>
        <time>2018-05-19T14:53:58Z</time>
      </trkpt>
      <trkpt lat="43.0732872058" lon="-4.1692585498">
        <ele>969.63</ele>
        <time>2018-05-19T14:54:03Z</time>
      </trkpt>
      <trkpt lat="43.0732983537" lon="-4.1693897266">
        <ele>970.11</ele>
        <time>2018-05-19T14:54:08Z</time>
      </trkpt>
      <trkpt lat="43.0733053945" lon="-4.1695202328">
        <ele>971.07</ele>
        <time>2018-05-19T14:54:13Z</time>
      </trkpt>
      <trkpt lat="43.0733219068" lon="-4.1696710233">
        <ele>972.03</ele>
        <time>2018-05-19T14:54:18Z</time>
      </trkpt>
      <trkpt lat="43.0733478069" lon="-4.1698078159">
        <ele>972.99</ele>
        <time>2018-05-19T14:54:23Z</time>
      </trkpt>
      <trkpt lat="43.0734113418" lon="-4.1699165292">
        <ele>973.95</ele>
        <time>2018-05-19T14:54:28Z</time>
      </trkpt>
      <trkpt lat="43.0734862760" lon="-4.1700103227">
        <ele>974.43</ele>
        <time>2018-05-19T14:54:33Z</time>
      </trkpt>
      <trkpt lat="43.0735421833" lon="-4.1701348778">
        <ele>975.39</ele>
        <time>2018-05-19T14:54:38Z</time>
      </trkpt>
      <trkpt lat="43.0735810753" lon="-4.1702575888">
        <ele>976.36</ele>
        <time>2018-05-19T14:54:43Z</time>
      </trkpt>
      <trkpt lat="43.0736249965" lon="-4.1703882627">
        <ele>976.84</ele>
        <time>2018-05-19T14:54:48Z</time>
      </trkpt>
      <trkpt lat="43.0736778025" lon="-4.1705058608">
        <ele>977.32</ele>
        <time>2018-05-19T14:54:53Z</time>
      </trkpt>
      <trkpt lat="43.0737293512" lon="-4.1706268117">
        <ele>978.76</ele>
        <time>2018-05-19T14:54:58Z</time>
      </trkpt>
      <trkpt lat="43.0737639684" lon="-4.1707443260">
        <ele>978.76</ele>
        <time>2018-05-19T14:55:03Z</time>
      </trkpt>
      <trkpt lat="43.0737697519" lon="-4.1708939429">
        <ele>980.20</ele>
        <time>2018-05-19T14:55:09Z</time>
      </trkpt>
      <trkpt lat="43.0737679917" lon="-4.1710213479">
        <ele>981.16</ele>
        <time>2018-05-19T14:55:14Z</time>
      </trkpt>
      <trkpt lat="43.0738314427" lon="-4.1711324081">
        <ele>981.64</ele>
        <time>2018-05-19T14:55:20Z</time>
      </trkpt>
      <trkpt lat="43.0739224702" lon="-4.1711002216">
        <ele>982.60</ele>
        <time>2018-05-19T14:55:26Z</time>
      </trkpt>
      <trkpt lat="43.0740005895" lon="-4.1710054222">
        <ele>983.09</ele>
        <time>2018-05-19T14:55:32Z</time>
      </trkpt>
      <trkpt lat="43.0740650464" lon="-4.1709095333">
        <ele>983.57</ele>
        <time>2018-05-19T14:55:37Z</time>
      </trkpt>
      <trkpt lat="43.0741322692" lon="-4.1708219424">
        <ele>984.53</ele>
        <time>2018-05-19T14:55:42Z</time>
      </trkpt>
      <trkpt lat="43.0742278229" lon="-4.1707615089">
        <ele>985.49</ele>
        <time>2018-05-19T14:55:48Z</time>
      </trkpt>
      <trkpt lat="43.0743375421" lon="-4.1707542166">
        <ele>985.97</ele>
        <time>2018-05-19T14:55:54Z</time>
      </trkpt>
      <trkpt lat="43.0744339339" lon="-4.1708055977">
        <ele>986.93</ele>
        <time>2018-05-19T14:56:00Z</time>
      </trkpt>
      <trkpt lat="43.0745256320" lon="-4.1708785202">
        <ele>987.89</ele>
        <time>2018-05-19T14:56:06Z</time>
      </trkpt>
      <trkpt lat="43.0746099539" lon="-4.1709538735">
        <ele>988.85</ele>
        <time>2018-05-19T14:56:11Z</time>
      </trkpt>
      <trkpt lat="43.0746966228" lon="-4.1710533667">
        <ele>989.33</ele>
        <time>2018-05-19T14:56:17Z</time>
      </trkpt>
      <trkpt lat="43.0747429747" lon="-4.1711649299">
        <ele>990.30</ele>
        <time>2018-05-19T14:56:22Z</time>
      </trkpt>
      <trkpt lat="43.0747372750" lon="-4.1713033989">
        <ele>991.74</ele>
        <time>2018-05-19T14:56:28Z</time>
      </trkpt>
      <trkpt lat="43.0746656097" lon="-4.1714043170">
        <ele>992.70</ele>
        <time>2018-05-19T14:56:34Z</time>
      </trkpt>
      <trkpt lat="43.0745892506" lon="-4.1715027206">
        <ele>994.14</ele>
        <time>2018-05-19T14:56:40Z</time>
      </trkpt>
      <trkpt lat="43.0745173339" lon="-4.1716009565">
        <ele>995.10</ele>
        <time>2018-05-19T14:56:45Z</time>
      </trkpt>
      <trkpt lat="43.0744466744" lon="-4.1717112623">
        <ele>996.06</ele>
        <time>2018-05-19T14:56:51Z</time>
      </trkpt>
      <trkpt lat="43.0743672140" lon="-4.1718080733">
        <ele>997.02</ele>
        <time>2018-05-19T14:56:57Z</time>
      </trkpt>
      <trkpt lat="43.0743035115" lon="-4.1718997713">
        <ele>997.99</ele>
        <time>2018-05-19T14:57:02Z</time>
      </trkpt>
      <trkpt lat="43.0742289126" lon="-4.1720134299">
        <ele>998.95</ele>
        <time>2018-05-19T14:57:08Z</time>
      </trkpt>
      <trkpt lat="43.0741621088" lon="-4.1721296031">
        <ele>999.91</ele>
        <time>2018-05-19T14:57:14Z</time>
      </trkpt>
      <trkpt lat="43.0741181877" lon="-4.1722639650">
        <ele>1000.87</ele>
        <time>2018-05-19T14:57:20Z</time>
      </trkpt>
      <trkpt lat="43.0741051119" lon="-4.1724103130">
        <ele>1001.83</ele>
        <time>2018-05-19T14:57:26Z</time>
      </trkpt>
      <trkpt lat="43.0741056986" lon="-4.1725449264">
        <ele>1002.79</ele>
        <time>2018-05-19T14:57:32Z</time>
      </trkpt>
      <trkpt lat="43.0741264019" lon="-4.1726885922">
        <ele>1004.72</ele>
        <time>2018-05-19T14:57:38Z</time>
      </trkpt>
      <trkpt lat="43.0741708260" lon="-4.1728146560">
        <ele>1004.72</ele>
        <time>2018-05-19T14:57:44Z</time>
      </trkpt>
      <trkpt lat="43.0742255598" lon="-4.1729278117">
        <ele>1006.16</ele>
        <time>2018-05-19T14:57:50Z</time>
      </trkpt>
      <trkpt lat="43.0742705707" lon="-4.1730518639">
        <ele>1006.64</ele>
        <time>2018-05-19T14:57:57Z</time>
      </trkpt>
      <trkpt lat="43.0742987338" lon="-4.1731842980">
        <ele>1008.08</ele>
        <time>2018-05-19T14:58:03Z</time>
      </trkpt>
      <trkpt lat="43.0743111391" lon="-4.1733311489">
        <ele>1008.56</ele>
        <time>2018-05-19T14:58:09Z</time>
      </trkpt>
      <trkpt lat="43.0743159167" lon="-4.1734747309">
        <ele>1009.52</ele>
        <time>2018-05-19T14:58:15Z</time>
      </trkpt>
      <trkpt lat="43.0742982309" lon="-4.1736179776">
        <ele>1010.96</ele>
        <time>2018-05-19T14:58:21Z</time>
      </trkpt>
      <trkpt lat="43.0742748454" lon="-4.1737587098">
        <ele>1011.93</ele>
        <time>2018-05-19T14:58:27Z</time>
      </trkpt>
      <trkpt lat="43.0742682237" lon="-4.1738845222">
        <ele>1012.89</ele>
        <time>2018-05-19T14:58:33Z</time>
      </trkpt>
      <trkpt lat="43.0742469337" lon="-4.1740202252">
        <ele>1013.85</ele>
        <time>2018-05-19T14:58:39Z</time>
      </trkpt>
      <trkpt lat="43.0742204469" lon="-4.1741677467">
        <ele>1015.29</ele>
        <time>2018-05-19T14:58:45Z</time>
      </trkpt>
      <trkpt lat="43.0741902720" lon="-4.1742988396">
        <ele>1016.25</ele>
        <time>2018-05-19T14:58:51Z</time>
      </trkpt>
      <trkpt lat="43.0741424114" lon="-4.1744353808">
        <ele>1016.73</ele>
        <time>2018-05-19T14:58:57Z</time>
      </trkpt>
      <trkpt lat="43.0740891863" lon="-4.1745544877">
        <ele>1017.69</ele>
        <time>2018-05-19T14:59:03Z</time>
      </trkpt>
      <trkpt lat="43.0740421638" lon="-4.1746799648">
        <ele>1018.17</ele>
        <time>2018-05-19T14:59:09Z</time>
      </trkpt>
      <trkpt lat="43.0739963148" lon="-4.1748045199">
        <ele>1019.62</ele>
        <time>2018-05-19T14:59:15Z</time>
      </trkpt>
      <trkpt lat="43.0739555787" lon="-4.1749354452">
        <ele>1020.10</ele>
        <time>2018-05-19T14:59:21Z</time>
      </trkpt>
      <trkpt lat="43.0739161000" lon="-4.1750685498">
        <ele>1021.54</ele>
        <time>2018-05-19T14:59:27Z</time>
      </trkpt>
      <trkpt lat="43.0738778785" lon="-4.1751896683">
        <ele>1022.50</ele>
        <time>2018-05-19T14:59:33Z</time>
      </trkpt>
      <trkpt lat="43.0738398246" lon="-4.1753124632">
        <ele>1023.46</ele>
        <time>2018-05-19T14:59:39Z</time>
      </trkpt>
      <trkpt lat="43.0738003459" lon="-4.1754305642">
        <ele>1024.90</ele>
        <time>2018-05-19T14:59:45Z</time>
      </trkpt>
      <trkpt lat="43.0737472884" lon="-4.1755428817">
        <ele>1025.86</ele>
        <time>2018-05-19T14:59:51Z</time>
      </trkpt>
      <trkpt lat="43.0736644752" lon="-4.1756308917">
        <ele>1026.83</ele>
        <time>2018-05-19T14:59:57Z</time>
      </trkpt>
      <trkpt lat="43.0735614616" lon="-4.1756635811">
        <ele>1027.79</ele>
        <time>2018-05-19T15:00:04Z</time>
      </trkpt>
      <trkpt lat="43.0734615494" lon="-4.1756697837">
        <ele>1028.75</ele>
        <time>2018-05-19T15:00:10Z</time>
      </trkpt>
      <trkpt lat="43.0733665824" lon="-4.1756241862">
        <ele>1030.19</ele>
        <time>2018-05-19T15:00:16Z</time>
      </trkpt>
      <trkpt lat="43.0732722022" lon="-4.1755425464">
        <ele>1031.15</ele>
        <time>2018-05-19T15:00:23Z</time>
      </trkpt>
      <trkpt lat="43.0732152052" lon="-4.1754201706">
        <ele>1031.63</ele>
        <time>2018-05-19T15:00:29Z</time>
      </trkpt>
      <trkpt lat="43.0731625669" lon="-4.1752987169">
        <ele>1033.07</ele>
        <time>2018-05-19T15:00:35Z</time>
      </trkpt>
      <trkpt lat="43.0730926618" lon="-4.1751806997">
        <ele>1033.55</ele>
        <time>2018-05-19T15:00:41Z</time>
      </trkpt>
      <trkpt lat="43.0730289593" lon="-4.1750649456">
        <ele>1034.52</ele>
        <time>2018-05-19T15:00:47Z</time>
      </trkpt>
      <trkpt lat="43.0729417875" lon="-4.1750019137">
        <ele>1035.96</ele>
        <time>2018-05-19T15:00:53Z</time>
      </trkpt>
      <trkpt lat="43.0728389416" lon="-4.1749722417">
        <ele>1036.92</ele>
        <time>2018-05-19T15:00:59Z</time>
      </trkpt>
      <trkpt lat="43.0727363471" lon="-4.1749943700">
        <ele>1038.36</ele>
        <time>2018-05-19T15:01:05Z</time>
      </trkpt>
      <trkpt lat="43.0726371054" lon="-4.1750423145">
        <ele>1038.84</ele>
        <time>2018-05-19T15:01:11Z</time>
      </trkpt>
      <trkpt lat="43.0725583993" lon="-4.1751170810">
        <ele>1039.80</ele>
        <time>2018-05-19T15:01:17Z</time>
      </trkpt>
      <trkpt lat="43.0725047551" lon="-4.1752112936">
        <ele>1041.25</ele>
        <time>2018-05-19T15:01:23Z</time>
      </trkpt>
      <trkpt lat="43.0724371970" lon="-4.1753264610">
        <ele>1041.73</ele>
        <time>2018-05-19T15:01:30Z</time>
      </trkpt>
      <trkpt lat="43.0723594967" lon="-4.1754416283">
        <ele>1043.17</ele>
        <time>2018-05-19T15:01:36Z</time>
      </trkpt>
      <trkpt lat="43.0722932797" lon="-4.1755555384">
        <ele>1044.13</ele>
        <time>2018-05-19T15:01:42Z</time>
      </trkpt>
      <trkpt lat="43.0722377915" lon="-4.1756650899">
        <ele>1044.61</ele>
        <time>2018-05-19T15:01:48Z</time>
      </trkpt>
      <trkpt lat="43.0721896794" lon="-4.1757752281">
        <ele>1046.05</ele>
        <time>2018-05-19T15:01:54Z</time>
      </trkpt>
      <trkpt lat="43.0721403938" lon="-4.1758950055">
        <ele>1047.49</ele>
        <time>2018-05-19T15:02:01Z</time>
      </trkpt>
      <trkpt lat="43.0720848218" lon="-4.1760120168">
        <ele>1048.45</ele>
        <time>2018-05-19T15:02:08Z</time>
      </trkpt>
      <trkpt lat="43.0720289983" lon="-4.1761308722">
        <ele>1049.90</ele>
        <time>2018-05-19T15:02:14Z</time>
      </trkpt>
      <trkpt lat="43.0719776172" lon="-4.1762446146">
        <ele>1050.86</ele>
        <time>2018-05-19T15:02:20Z</time>
      </trkpt>
      <trkpt lat="43.0719178542" lon="-4.1763586085">
        <ele>1051.82</ele>
        <time>2018-05-19T15:02:26Z</time>
      </trkpt>
      <trkpt lat="43.0718692392" lon="-4.1764938086">
        <ele>1052.78</ele>
        <time>2018-05-19T15:02:33Z</time>
      </trkpt>
      <trkpt lat="43.0718174390" lon="-4.1766108200">
        <ele>1053.74</ele>
        <time>2018-05-19T15:02:40Z</time>
      </trkpt>
      <trkpt lat="43.0717652198" lon="-4.1767421644">
        <ele>1055.18</ele>
        <time>2018-05-19T15:02:47Z</time>
      </trkpt>
      <trkpt lat="43.0717125814" lon="-4.1768596787">
        <ele>1056.15</ele>
        <time>2018-05-19T15:02:53Z</time>
      </trkpt>
      <trkpt lat="43.0716692470" lon="-4.1770180129">
        <ele>1057.11</ele>
        <time>2018-05-19T15:02:59Z</time>
      </trkpt>
      <trkpt lat="43.0716344621" lon="-4.1771734972">
        <ele>1058.07</ele>
        <time>2018-05-19T15:03:05Z</time>
      </trkpt>
      <trkpt lat="43.0716415029" lon="-4.1773097869">
        <ele>1059.03</ele>
        <time>2018-05-19T15:03:09Z</time>
      </trkpt>
      <trkpt lat="43.0715761241" lon="-4.1774254572">
        <ele>1060.47</ele>
        <time>2018-05-19T15:03:15Z</time>
      </trkpt>
      <trkpt lat="43.0714681651" lon="-4.1774745751">
        <ele>1061.91</ele>
        <time>2018-05-19T15:03:21Z</time>
      </trkpt>
      <trkpt lat="43.0713686720" lon="-4.1775054205">
        <ele>1063.36</ele>
        <time>2018-05-19T15:03:27Z</time>
      </trkpt>
      <trkpt lat="43.0712706875" lon="-4.1775103658">
        <ele>1064.32</ele>
        <time>2018-05-19T15:03:33Z</time>
      </trkpt>
      <trkpt lat="43.0711799953" lon="-4.1774753295">
        <ele>1065.28</ele>
        <time>2018-05-19T15:03:39Z</time>
      </trkpt>
      <trkpt lat="43.0710796639" lon="-4.1774232779">
        <ele>1066.72</ele>
        <time>2018-05-19T15:03:46Z</time>
      </trkpt>
      <trkpt lat="43.0709919054" lon="-4.1773796920">
        <ele>1068.16</ele>
        <time>2018-05-19T15:03:52Z</time>
      </trkpt>
      <trkpt lat="43.0709006265" lon="-4.1773409676">
        <ele>1069.12</ele>
        <time>2018-05-19T15:03:58Z</time>
      </trkpt>
      <trkpt lat="43.0708164722" lon="-4.1772837192">
        <ele>1070.08</ele>
        <time>2018-05-19T15:04:04Z</time>
      </trkpt>
      <trkpt lat="43.0707425438" lon="-4.1771805380">
        <ele>1071.05</ele>
        <time>2018-05-19T15:04:10Z</time>
      </trkpt>
      <trkpt lat="43.0706734769" lon="-4.1770932823">
        <ele>1072.01</ele>
        <time>2018-05-19T15:04:16Z</time>
      </trkpt>
      <trkpt lat="43.0705858022" lon="-4.1770207789">
        <ele>1072.97</ele>
        <time>2018-05-19T15:04:22Z</time>
      </trkpt>
      <trkpt lat="43.0704837944" lon="-4.1769924480">
        <ele>1073.93</ele>
        <time>2018-05-19T15:04:28Z</time>
      </trkpt>
      <trkpt lat="43.0703806132" lon="-4.1770061944">
        <ele>1074.89</ele>
        <time>2018-05-19T15:04:34Z</time>
      </trkpt>
      <trkpt lat="43.0702827126" lon="-4.1770481039">
        <ele>1075.85</ele>
        <time>2018-05-19T15:04:40Z</time>
      </trkpt>
      <trkpt lat="43.0702073593" lon="-4.1771172546">
        <ele>1077.29</ele>
        <time>2018-05-19T15:04:46Z</time>
      </trkpt>
      <trkpt lat="43.0701292399" lon="-4.1772054322">
        <ele>1077.78</ele>
        <time>2018-05-19T15:04:52Z</time>
      </trkpt>
      <trkpt lat="43.0700658727" lon="-4.1773052607">
        <ele>1079.22</ele>
        <time>2018-05-19T15:04:58Z</time>
      </trkpt>
      <trkpt lat="43.0699941237" lon="-4.1774132196">
        <ele>1079.70</ele>
        <time>2018-05-19T15:05:04Z</time>
      </trkpt>
      <trkpt lat="43.0699292477" lon="-4.1775202565">
        <ele>1080.66</ele>
        <time>2018-05-19T15:05:10Z</time>
      </trkpt>
      <trkpt lat="43.0698665511" lon="-4.1776223481">
        <ele>1081.62</ele>
        <time>2018-05-19T15:05:16Z</time>
      </trkpt>
      <trkpt lat="43.0697979871" lon="-4.1777209193">
        <ele>1082.58</ele>
        <time>2018-05-19T15:05:22Z</time>
      </trkpt>
      <trkpt lat="43.0697344523" lon="-4.1778228432">
        <ele>1083.54</ele>
        <time>2018-05-19T15:05:28Z</time>
      </trkpt>
      <trkpt lat="43.0696952250" lon="-4.1779427882">
        <ele>1084.50</ele>
        <time>2018-05-19T15:05:34Z</time>
      </trkpt>
      <trkpt lat="43.0696572550" lon="-4.1780617274">
        <ele>1085.95</ele>
        <time>2018-05-19T15:05:40Z</time>
      </trkpt>
      <trkpt lat="43.0696180277" lon="-4.1781916469">
        <ele>1086.43</ele>
        <time>2018-05-19T15:05:46Z</time>
      </trkpt>
      <trkpt lat="43.0695908703" lon="-4.1783200577">
        <ele>1087.39</ele>
        <time>2018-05-19T15:05:52Z</time>
      </trkpt>
      <trkpt lat="43.0695505533" lon="-4.1784423497">
        <ele>1087.87</ele>
        <time>2018-05-19T15:05:58Z</time>
      </trkpt>
      <trkpt lat="43.0695083924" lon="-4.1785722692">
        <ele>1089.31</ele>
        <time>2018-05-19T15:06:04Z</time>
      </trkpt>
      <trkpt lat="43.0694538262" lon="-4.1786808986">
        <ele>1090.27</ele>
        <time>2018-05-19T15:06:10Z</time>
      </trkpt>
      <trkpt lat="43.0693785567" lon="-4.1787831578">
        <ele>1091.23</ele>
        <time>2018-05-19T15:06:16Z</time>
      </trkpt>
      <trkpt lat="43.0693153571" lon="-4.1788941342">
        <ele>1092.20</ele>
        <time>2018-05-19T15:06:22Z</time>
      </trkpt>
      <trkpt lat="43.0692546722" lon="-4.1790076252">
        <ele>1093.16</ele>
        <time>2018-05-19T15:06:28Z</time>
      </trkpt>
      <trkpt lat="43.0692053027" lon="-4.1791216191">
        <ele>1094.12</ele>
        <time>2018-05-19T15:06:34Z</time>
      </trkpt>
      <trkpt lat="43.0691564362" lon="-4.1792341042">
        <ele>1095.08</ele>
        <time>2018-05-19T15:06:40Z</time>
      </trkpt>
      <trkpt lat="43.0691082403" lon="-4.1793526243">
        <ele>1096.04</ele>
        <time>2018-05-19T15:06:46Z</time>
      </trkpt>
      <trkpt lat="43.0690683424" lon="-4.1794792749">
        <ele>1097.00</ele>
        <time>2018-05-19T15:06:52Z</time>
      </trkpt>
      <trkpt lat="43.0690305401" lon="-4.1795978788">
        <ele>1097.48</ele>
        <time>2018-05-19T15:06:58Z</time>
      </trkpt>
      <trkpt lat="43.0690027960" lon="-4.1797204223">
        <ele>1098.92</ele>
        <time>2018-05-19T15:07:04Z</time>
      </trkpt>
      <trkpt lat="43.0689758062" lon="-4.1798545327">
        <ele>1099.89</ele>
        <time>2018-05-19T15:07:10Z</time>
      </trkpt>
      <trkpt lat="43.0689510796" lon="-4.1799843684">
        <ele>1100.85</ele>
        <time>2018-05-19T15:07:16Z</time>
      </trkpt>
      <trkpt lat="43.0689152051" lon="-4.1801222507">
        <ele>1101.33</ele>
        <time>2018-05-19T15:07:22Z</time>
      </trkpt>
      <trkpt lat="43.0688736308" lon="-4.1802442074">
        <ele>1102.29</ele>
        <time>2018-05-19T15:07:28Z</time>
      </trkpt>
      <trkpt lat="43.0688287038" lon="-4.1803684272">
        <ele>1102.77</ele>
        <time>2018-05-19T15:07:34Z</time>
      </trkpt>
      <trkpt lat="43.0687870458" lon="-4.1804936528">
        <ele>1104.21</ele>
        <time>2018-05-19T15:07:40Z</time>
      </trkpt>
      <trkpt lat="43.0687370058" lon="-4.1806057189">
        <ele>1105.17</ele>
        <time>2018-05-19T15:07:46Z</time>
      </trkpt>
      <trkpt lat="43.0686953478" lon="-4.1807248257">
        <ele>1106.13</ele>
        <time>2018-05-19T15:07:52Z</time>
      </trkpt>
      <trkpt lat="43.0686532706" lon="-4.1808393225">
        <ele>1107.10</ele>
        <time>2018-05-19T15:07:58Z</time>
      </trkpt>
      <trkpt lat="43.0686309747" lon="-4.1809692420">
        <ele>1108.54</ele>
        <time>2018-05-19T15:08:04Z</time>
      </trkpt>
      <trkpt lat="43.0686153844" lon="-4.1810963117">
        <ele>1109.02</ele>
        <time>2018-05-19T15:08:10Z</time>
      </trkpt>
      <trkpt lat="43.0686101038" lon="-4.1812263150">
        <ele>1109.98</ele>
        <time>2018-05-19T15:08:16Z</time>
      </trkpt>
      <trkpt lat="43.0685992073" lon="-4.1813683044">
        <ele>1110.46</ele>
        <time>2018-05-19T15:08:22Z</time>
      </trkpt>
      <trkpt lat="43.0685865507" lon="-4.1814929433">
        <ele>1111.90</ele>
        <time>2018-05-19T15:08:28Z</time>
      </trkpt>
      <trkpt lat="43.0685751513" lon="-4.1816258803">
        <ele>1112.38</ele>
        <time>2018-05-19T15:08:34Z</time>
      </trkpt>
      <trkpt lat="43.0685540289" lon="-4.1817552131">
        <ele>1113.34</ele>
        <time>2018-05-19T15:08:40Z</time>
      </trkpt>
      <trkpt lat="43.0685402825" lon="-4.1818877310">
        <ele>1114.31</ele>
        <time>2018-05-19T15:08:46Z</time>
      </trkpt>
      <trkpt lat="43.0685341638" lon="-4.1820278764">
        <ele>1115.27</ele>
        <time>2018-05-19T15:08:52Z</time>
      </trkpt>
      <trkpt lat="43.0685226806" lon="-4.1821607295">
        <ele>1115.75</ele>
        <time>2018-05-19T15:08:58Z</time>
      </trkpt>
      <trkpt lat="43.0685087666" lon="-4.1822952591">
        <ele>1116.23</ele>
        <time>2018-05-19T15:09:04Z</time>
      </trkpt>
      <trkpt lat="43.0684764124" lon="-4.1824167967">
        <ele>1117.67</ele>
        <time>2018-05-19T15:09:10Z</time>
      </trkpt>
      <trkpt lat="43.0684041604" lon="-4.1824861988">
        <ele>1118.63</ele>
        <time>2018-05-19T15:09:16Z</time>
      </trkpt>
      <trkpt lat="43.0683109537" lon="-4.1824305430">
        <ele>1120.07</ele>
        <time>2018-05-19T15:09:22Z</time>
      </trkpt>
      <trkpt lat="43.0682548787" lon="-4.1823226679">
        <ele>1121.03</ele>
        <time>2018-05-19T15:09:28Z</time>
      </trkpt>
      <trkpt lat="43.0681697186" lon="-4.1822316404">
        <ele>1122.00</ele>
        <time>2018-05-19T15:09:34Z</time>
      </trkpt>
      <trkpt lat="43.0680724047" lon="-4.1822016332">
        <ele>1122.96</ele>
        <time>2018-05-19T15:09:40Z</time>
      </trkpt>
      <trkpt lat="43.0679677147" lon="-4.1821867973">
        <ele>1124.40</ele>
        <time>2018-05-19T15:09:46Z</time>
      </trkpt>
      <trkpt lat="43.0678633600" lon="-4.1821913235">
        <ele>1125.36</ele>
        <time>2018-05-19T15:09:52Z</time>
      </trkpt>
      <trkpt lat="43.0677677225" lon="-4.1822235100">
        <ele>1126.32</ele>
        <time>2018-05-19T15:09:58Z</time>
      </trkpt>
      <trkpt lat="43.0676663853" lon="-4.1822486557">
        <ele>1126.80</ele>
        <time>2018-05-19T15:10:04Z</time>
      </trkpt>
      <trkpt lat="43.0675845779" lon="-4.1823116038">
        <ele>1128.24</ele>
        <time>2018-05-19T15:10:10Z</time>
      </trkpt>
      <trkpt lat="43.0674925447" lon="-4.1823785752">
        <ele>1129.21</ele>
        <time>2018-05-19T15:10:16Z</time>
      </trkpt>
      <trkpt lat="43.0673885252" lon="-4.1824333929">
        <ele>1130.17</ele>
        <time>2018-05-19T15:10:22Z</time>
      </trkpt>
      <trkpt lat="43.0672860984" lon="-4.1824900545">
        <ele>1131.61</ele>
        <time>2018-05-19T15:10:28Z</time>
      </trkpt>
      <trkpt lat="43.0671772175" lon="-4.1825213190">
        <ele>1132.57</ele>
        <time>2018-05-19T15:10:34Z</time>
      </trkpt>
      <trkpt lat="43.0670684204" lon="-4.1825544275">
        <ele>1133.53</ele>
        <time>2018-05-19T15:10:40Z</time>
      </trkpt>
      <trkpt lat="43.0669774767" lon="-4.1825962532">
        <ele>1134.49</ele>
        <time>2018-05-19T15:10:45Z</time>
      </trkpt>
      <trkpt lat="43.0668940768" lon="-4.1826724447">
        <ele>1134.97</ele>
        <time>2018-05-19T15:10:51Z</time>
      </trkpt>
      <trkpt lat="43.0668113474" lon="-4.1827211436">
        <ele>1136.42</ele>
        <time>2018-05-19T15:10:56Z</time>
      </trkpt>
      <trkpt lat="43.0667407718" lon="-4.1828254145">
        <ele>1136.90</ele>
        <time>2018-05-19T15:11:02Z</time>
      </trkpt>
      <trkpt lat="43.0667097587" lon="-4.1829590220">
        <ele>1138.34</ele>
        <time>2018-05-19T15:11:08Z</time>
      </trkpt>
      <trkpt lat="43.0667150393" lon="-4.1830859240">
        <ele>1139.30</ele>
        <time>2018-05-19T15:11:14Z</time>
      </trkpt>
      <trkpt lat="43.0667193979" lon="-4.1832263209">
        <ele>1140.26</ele>
        <time>2018-05-19T15:11:20Z</time>
      </trkpt>
      <trkpt lat="43.0667288695" lon="-4.1833660472">
        <ele>1141.22</ele>
        <time>2018-05-19T15:11:26Z</time>
      </trkpt>
      <trkpt lat="43.0667590443" lon="-4.1834938712">
        <ele>1141.70</ele>
        <time>2018-05-19T15:11:32Z</time>
      </trkpt>
      <trkpt lat="43.0667960923" lon="-4.1836206056">
        <ele>1142.66</ele>
        <time>2018-05-19T15:11:38Z</time>
      </trkpt>
      <trkpt lat="43.0668298714" lon="-4.1837377008">
        <ele>1143.63</ele>
        <time>2018-05-19T15:11:44Z</time>
      </trkpt>
      <trkpt lat="43.0668785702" lon="-4.1838552151">
        <ele>1144.59</ele>
        <time>2018-05-19T15:11:50Z</time>
      </trkpt>
      <trkpt lat="43.0669353995" lon="-4.1839822009">
        <ele>1145.55</ele>
        <time>2018-05-19T15:11:57Z</time>
      </trkpt>
      <trkpt lat="43.0669828411" lon="-4.1840942670">
        <ele>1146.51</ele>
        <time>2018-05-19T15:12:03Z</time>
      </trkpt>
      <trkpt lat="43.0670266785" lon="-4.1842141282">
        <ele>1147.47</ele>
        <time>2018-05-19T15:12:09Z</time>
      </trkpt>
      <trkpt lat="43.0670606252" lon="-4.1843607277">
        <ele>1148.43</ele>
        <time>2018-05-19T15:12:16Z</time>
      </trkpt>
      <trkpt lat="43.0670824181" lon="-4.1844971851">
        <ele>1149.87</ele>
        <time>2018-05-19T15:12:22Z</time>
      </trkpt>
      <trkpt lat="43.0670871120" lon="-4.1846370790">
        <ele>1150.84</ele>
        <time>2018-05-19T15:12:29Z</time>
      </trkpt>
      <trkpt lat="43.0671130121" lon="-4.1847840976">
        <ele>1152.28</ele>
        <time>2018-05-19T15:12:36Z</time>
      </trkpt>
      <trkpt lat="43.0671322066" lon="-4.1849128436">
        <ele>1152.76</ele>
        <time>2018-05-19T15:12:42Z</time>
      </trkpt>
      <trkpt lat="43.0671402533" lon="-4.1850535758">
        <ele>1153.72</ele>
        <time>2018-05-19T15:12:48Z</time>
      </trkpt>
      <trkpt lat="43.0671420973" lon="-4.1851856746">
        <ele>1154.68</ele>
        <time>2018-05-19T15:12:54Z</time>
      </trkpt>
      <trkpt lat="43.0670866091" lon="-4.1852826532">
        <ele>1156.12</ele>
        <time>2018-05-19T15:13:01Z</time>
      </trkpt>
      <trkpt lat="43.0669783149" lon="-4.1852706671">
        <ele>1157.56</ele>
        <time>2018-05-19T15:13:08Z</time>
      </trkpt>
      <trkpt lat="43.0668846890" lon="-4.1852246504">
        <ele>1158.53</ele>
        <time>2018-05-19T15:13:14Z</time>
      </trkpt>
      <trkpt lat="43.0667883810" lon="-4.1851785500">
        <ele>1159.49</ele>
        <time>2018-05-19T15:13:20Z</time>
      </trkpt>
      <trkpt lat="43.0666948389" lon="-4.1851202119">
        <ele>1160.93</ele>
        <time>2018-05-19T15:13:26Z</time>
      </trkpt>
      <trkpt lat="43.0666069966" lon="-4.1850583535">
        <ele>1161.89</ele>
        <time>2018-05-19T15:13:32Z</time>
      </trkpt>
      <trkpt lat="43.0665107723" lon="-4.1849750374">
        <ele>1162.85</ele>
        <time>2018-05-19T15:13:38Z</time>
      </trkpt>
      <trkpt lat="43.0664318148" lon="-4.1849085689">
        <ele>1163.81</ele>
        <time>2018-05-19T15:13:44Z</time>
      </trkpt>
      <trkpt lat="43.0663386919" lon="-4.1848724429">
        <ele>1164.29</ele>
        <time>2018-05-19T15:13:50Z</time>
      </trkpt>
      <trkpt lat="43.0662469100" lon="-4.1848719399">
        <ele>1165.74</ele>
        <time>2018-05-19T15:13:56Z</time>
      </trkpt>
      <trkpt lat="43.0661473330" lon="-4.1848542541">
        <ele>1166.70</ele>
        <time>2018-05-19T15:14:02Z</time>
      </trkpt>
      <trkpt lat="43.0660433974" lon="-4.1848390829">
        <ele>1167.66</ele>
        <time>2018-05-19T15:14:08Z</time>
      </trkpt>
      <trkpt lat="43.0659520347" lon="-4.1848462913">
        <ele>1169.10</ele>
        <time>2018-05-19T15:14:14Z</time>
      </trkpt>
      <trkpt lat="43.0658654496" lon="-4.1849083174">
        <ele>1169.58</ele>
        <time>2018-05-19T15:14:20Z</time>
      </trkpt>
      <trkpt lat="43.0657993164" lon="-4.1850056313">
        <ele>1170.54</ele>
        <time>2018-05-19T15:14:26Z</time>
      </trkpt>
      <trkpt lat="43.0657709856" lon="-4.1851228941">
        <ele>1171.50</ele>
        <time>2018-05-19T15:14:32Z</time>
      </trkpt>
      <trkpt lat="43.0657481030" lon="-4.1852447670">
        <ele>1172.47</ele>
        <time>2018-05-19T15:14:38Z</time>
      </trkpt>
      <trkpt lat="43.0657305010" lon="-4.1853659693">
        <ele>1173.43</ele>
        <time>2018-05-19T15:14:44Z</time>
      </trkpt>
      <trkpt lat="43.0656911060" lon="-4.1854903568">
        <ele>1174.39</ele>
        <time>2018-05-19T15:14:50Z</time>
      </trkpt>
      <trkpt lat="43.0656460114" lon="-4.1856151633">
        <ele>1175.35</ele>
        <time>2018-05-19T15:14:56Z</time>
      </trkpt>
      <trkpt lat="43.0655977316" lon="-4.1857397184">
        <ele>1176.31</ele>
        <time>2018-05-19T15:15:02Z</time>
      </trkpt>
      <trkpt lat="43.0655359570" lon="-4.1858377866">
        <ele>1176.79</ele>
        <time>2018-05-19T15:15:08Z</time>
      </trkpt>
      <trkpt lat="43.0654470250" lon="-4.1859066859">
        <ele>1178.23</ele>
        <time>2018-05-19T15:15:14Z</time>
      </trkpt>
      <trkpt lat="43.0653631222" lon="-4.1859589051">
        <ele>1179.19</ele>
        <time>2018-05-19T15:15:20Z</time>
      </trkpt>
      <trkpt lat="43.0652832426" lon="-4.1860177461">
        <ele>1180.16</ele>
        <time>2018-05-19T15:15:26Z</time>
      </trkpt>
      <trkpt lat="43.0652033631" lon="-4.1860837117">
        <ele>1180.64</ele>
        <time>2018-05-19T15:15:32Z</time>
      </trkpt>
      <trkpt lat="43.0651191249" lon="-4.1861877311">
        <ele>1182.08</ele>
        <time>2018-05-19T15:15:38Z</time>
      </trkpt>
      <trkpt lat="43.0650433525" lon="-4.1862733103">
        <ele>1182.56</ele>
        <time>2018-05-19T15:15:43Z</time>
      </trkpt>
      <trkpt lat="43.0649750400" lon="-4.1863855440">
        <ele>1183.52</ele>
        <time>2018-05-19T15:15:49Z</time>
      </trkpt>
      <trkpt lat="43.0649337173" lon="-4.1864969395">
        <ele>1184.00</ele>
        <time>2018-05-19T15:15:54Z</time>
      </trkpt>
      <trkpt lat="43.0648995191" lon="-4.1866166331">
        <ele>1185.44</ele>
        <time>2018-05-19T15:15:59Z</time>
      </trkpt>
      <trkpt lat="43.0648852699" lon="-4.1867354885">
        <ele>1185.92</ele>
        <time>2018-05-19T15:16:04Z</time>
      </trkpt>
      <trkpt lat="43.0648796540" lon="-4.1868840158">
        <ele>1186.88</ele>
        <time>2018-05-19T15:16:10Z</time>
      </trkpt>
      <trkpt lat="43.0648659915" lon="-4.1870206408">
        <ele>1188.33</ele>
        <time>2018-05-19T15:16:16Z</time>
      </trkpt>
      <trkpt lat="43.0648490600" lon="-4.1871490516">
        <ele>1189.29</ele>
        <time>2018-05-19T15:16:22Z</time>
      </trkpt>
      <trkpt lat="43.0648227409" lon="-4.1872781329">
        <ele>1190.73</ele>
        <time>2018-05-19T15:16:28Z</time>
      </trkpt>
      <trkpt lat="43.0647793226" lon="-4.1873950604">
        <ele>1191.21</ele>
        <time>2018-05-19T15:16:34Z</time>
      </trkpt>
      <trkpt lat="43.0647022091" lon="-4.1874848306">
        <ele>1191.69</ele>
        <time>2018-05-19T15:16:40Z</time>
      </trkpt>
      <trkpt lat="43.0645996984" lon="-4.1875083838">
        <ele>1193.13</ele>
        <time>2018-05-19T15:16:46Z</time>
      </trkpt>
      <trkpt lat="43.0645059887" lon="-4.1875168495">
        <ele>1193.61</ele>
        <time>2018-05-19T15:16:52Z</time>
      </trkpt>
      <trkpt lat="43.0644100159" lon="-4.1875303444">
        <ele>1195.06</ele>
        <time>2018-05-19T15:16:58Z</time>
      </trkpt>
      <trkpt lat="43.0643225927" lon="-4.1875657998">
        <ele>1196.02</ele>
        <time>2018-05-19T15:17:04Z</time>
      </trkpt>
      <trkpt lat="43.0642364267" lon="-4.1876304243">
        <ele>1196.50</ele>
        <time>2018-05-19T15:17:10Z</time>
      </trkpt>
      <trkpt lat="43.0641534459" lon="-4.1877271514">
        <ele>1196.98</ele>
        <time>2018-05-19T15:17:17Z</time>
      </trkpt>
      <trkpt lat="43.0640997179" lon="-4.1878353618">
        <ele>1198.42</ele>
        <time>2018-05-19T15:17:23Z</time>
      </trkpt>
      <trkpt lat="43.0640396196" lon="-4.1879436560">
        <ele>1199.38</ele>
        <time>2018-05-19T15:17:29Z</time>
      </trkpt>
      <trkpt lat="43.0639889929" lon="-4.1880480945">
        <ele>1199.86</ele>
        <time>2018-05-19T15:17:35Z</time>
      </trkpt>
      <trkpt lat="43.0639410485" lon="-4.1881726496">
        <ele>1200.82</ele>
        <time>2018-05-19T15:17:41Z</time>
      </trkpt>
      <trkpt lat="43.0638968758" lon="-4.1882844642">
        <ele>1201.79</ele>
        <time>2018-05-19T15:17:47Z</time>
      </trkpt>
      <trkpt lat="43.0638303235" lon="-4.1883690376">
        <ele>1202.27</ele>
        <time>2018-05-19T15:17:53Z</time>
      </trkpt>
      <trkpt lat="43.0637470912" lon="-4.1884437203">
        <ele>1203.23</ele>
        <time>2018-05-19T15:17:59Z</time>
      </trkpt>
      <trkpt lat="43.0636665411" lon="-4.1885184031">
        <ele>1204.67</ele>
        <time>2018-05-19T15:18:05Z</time>
      </trkpt>
      <trkpt lat="43.0635764357" lon="-4.1886008810">
        <ele>1205.63</ele>
        <time>2018-05-19T15:18:11Z</time>
      </trkpt>
      <trkpt lat="43.0635012500" lon="-4.1886930820">
        <ele>1206.59</ele>
        <time>2018-05-19T15:18:17Z</time>
      </trkpt>
      <trkpt lat="43.0634339433" lon="-4.1888083331">
        <ele>1207.07</ele>
        <time>2018-05-19T15:18:23Z</time>
      </trkpt>
      <trkpt lat="43.0633981526" lon="-4.1889332235">
        <ele>1208.03</ele>
        <time>2018-05-19T15:18:29Z</time>
      </trkpt>
      <trkpt lat="43.0633758567" lon="-4.1890482232">
        <ele>1208.03</ele>
        <time>2018-05-19T15:18:34Z</time>
      </trkpt>
      <trkpt lat="43.0633706599" lon="-4.1891791485">
        <ele>1209.00</ele>
        <time>2018-05-19T15:18:39Z</time>
      </trkpt>
      <trkpt lat="43.0633681454" lon="-4.1893243231">
        <ele>1209.48</ele>
        <time>2018-05-19T15:18:44Z</time>
      </trkpt>
      <trkpt lat="43.0633516330" lon="-4.1894415021">
        <ele>1209.48</ele>
        <time>2018-05-19T15:18:48Z</time>
      </trkpt>
      <trkpt lat="43.0633425806" lon="-4.1895775404">
        <ele>1209.96</ele>
        <time>2018-05-19T15:18:52Z</time>
      </trkpt>
      <trkpt lat="43.0633372162" lon="-4.1897292528">
        <ele>1210.44</ele>
        <time>2018-05-19T15:18:57Z</time>
      </trkpt>
      <trkpt lat="43.0633206200" lon="-4.1898541432">
        <ele>1211.40</ele>
        <time>2018-05-19T15:19:01Z</time>
      </trkpt>
      <trkpt lat="43.0632974859" lon="-4.1899880022">
        <ele>1211.88</ele>
        <time>2018-05-19T15:19:06Z</time>
      </trkpt>
      <trkpt lat="43.0632616114" lon="-4.1901233699">
        <ele>1212.36</ele>
        <time>2018-05-19T15:19:11Z</time>
      </trkpt>
      <trkpt lat="43.0631992500" lon="-4.1902435664">
        <ele>1213.32</ele>
        <time>2018-05-19T15:19:17Z</time>
      </trkpt>
      <trkpt lat="43.0631270818" lon="-4.1903488431">
        <ele>1214.76</ele>
        <time>2018-05-19T15:19:22Z</time>
      </trkpt>
      <trkpt lat="43.0630583502" lon="-4.1904222686">
        <ele>1215.72</ele>
        <time>2018-05-19T15:19:27Z</time>
      </trkpt>
      <trkpt lat="43.0629752856" lon="-4.1904865578">
        <ele>1216.69</ele>
        <time>2018-05-19T15:19:32Z</time>
      </trkpt>
      <trkpt lat="43.0628854316" lon="-4.1905484162">
        <ele>1218.13</ele>
        <time>2018-05-19T15:19:38Z</time>
      </trkpt>
      <trkpt lat="43.0628085695" lon="-4.1906085983">
        <ele>1219.09</ele>
        <time>2018-05-19T15:19:43Z</time>
      </trkpt>
      <trkpt lat="43.0627258401" lon="-4.1906765755">
        <ele>1219.57</ele>
        <time>2018-05-19T15:19:48Z</time>
      </trkpt>
      <trkpt lat="43.0626502354" lon="-4.1907458939">
        <ele>1221.01</ele>
        <time>2018-05-19T15:19:53Z</time>
      </trkpt>
      <trkpt lat="43.0625704397" lon="-4.1908407770">
        <ele>1221.49</ele>
        <time>2018-05-19T15:19:59Z</time>
      </trkpt>
      <trkpt lat="43.0625002831" lon="-4.1909288708">
        <ele>1221.97</ele>
        <time>2018-05-19T15:20:04Z</time>
      </trkpt>
      <trkpt lat="43.0624415260" lon="-4.1910283640">
        <ele>1223.90</ele>
        <time>2018-05-19T15:20:09Z</time>
      </trkpt>
      <trkpt lat="43.0623913184" lon="-4.1911373287">
        <ele>1223.90</ele>
        <time>2018-05-19T15:20:14Z</time>
      </trkpt>
      <trkpt lat="43.0623328965" lon="-4.1912653204">
        <ele>1225.34</ele>
        <time>2018-05-19T15:20:20Z</time>
      </trkpt>
      <trkpt lat="43.0622777436" lon="-4.1913853493">
        <ele>1225.82</ele>
        <time>2018-05-19T15:20:26Z</time>
      </trkpt>
      <trkpt lat="43.0622345768" lon="-4.1915037856">
        <ele>1226.78</ele>
        <time>2018-05-19T15:20:32Z</time>
      </trkpt>
      <trkpt lat="43.0621876381" lon="-4.1916210484">
        <ele>1227.26</ele>
        <time>2018-05-19T15:20:38Z</time>
      </trkpt>
      <trkpt lat="43.0621526856" lon="-4.1917418316">
        <ele>1228.22</ele>
        <time>2018-05-19T15:20:44Z</time>
      </trkpt>
      <trkpt lat="43.0621107761" lon="-4.1918721702">
        <ele>1228.70</ele>
        <time>2018-05-19T15:20:50Z</time>
      </trkpt>
      <trkpt lat="43.0620736443" lon="-4.1919938754">
        <ele>1229.66</ele>
        <time>2018-05-19T15:20:56Z</time>
      </trkpt>
      <trkpt lat="43.0620388594" lon="-4.1921185981">
        <ele>1230.14</ele>
        <time>2018-05-19T15:21:02Z</time>
      </trkpt>
      <trkpt lat="43.0620069243" lon="-4.1922442429">
        <ele>1232.07</ele>
        <time>2018-05-19T15:21:08Z</time>
      </trkpt>
      <trkpt lat="43.0619699601" lon="-4.1923807003">
        <ele>1232.07</ele>
        <time>2018-05-19T15:21:14Z</time>
      </trkpt>
      <trkpt lat="43.0619224347" lon="-4.1925005615">
        <ele>1233.03</ele>
        <time>2018-05-19T15:21:20Z</time>
      </trkpt>
      <trkpt lat="43.0618666951" lon="-4.1926184949">
        <ele>1233.51</ele>
        <time>2018-05-19T15:21:26Z</time>
      </trkpt>
      <trkpt lat="43.0618228577" lon="-4.1927317344">
        <ele>1234.47</ele>
        <time>2018-05-19T15:21:32Z</time>
      </trkpt>
      <trkpt lat="43.0617825408" lon="-4.1928463150">
        <ele>1235.91</ele>
        <time>2018-05-19T15:21:38Z</time>
      </trkpt>
      <trkpt lat="43.0617387872" lon="-4.1929590516">
        <ele>1236.87</ele>
        <time>2018-05-19T15:21:44Z</time>
      </trkpt>
      <trkpt lat="43.0616883282" lon="-4.1930702794">
        <ele>1237.35</ele>
        <time>2018-05-19T15:21:50Z</time>
      </trkpt>
      <trkpt lat="43.0616362765" lon="-4.1931920685">
        <ele>1238.32</ele>
        <time>2018-05-19T15:21:56Z</time>
      </trkpt>
      <trkpt lat="43.0615812074" lon="-4.1932971776">
        <ele>1238.80</ele>
        <time>2018-05-19T15:22:02Z</time>
      </trkpt>
      <trkpt lat="43.0615332630" lon="-4.1934083216">
        <ele>1239.76</ele>
        <time>2018-05-19T15:22:08Z</time>
      </trkpt>
      <trkpt lat="43.0614987295" lon="-4.1935278475">
        <ele>1240.72</ele>
        <time>2018-05-19T15:22:14Z</time>
      </trkpt>
      <trkpt lat="43.0614556465" lon="-4.1936337110">
        <ele>1241.68</ele>
        <time>2018-05-19T15:22:20Z</time>
      </trkpt>
      <trkpt lat="43.0614080373" lon="-4.1937503032">
        <ele>1242.64</ele>
        <time>2018-05-19T15:22:26Z</time>
      </trkpt>
      <trkpt lat="43.0613674689" lon="-4.1938676499">
        <ele>1243.60</ele>
        <time>2018-05-19T15:22:32Z</time>
      </trkpt>
      <trkpt lat="43.0613264814" lon="-4.1939879302">
        <ele>1244.56</ele>
        <time>2018-05-19T15:22:38Z</time>
      </trkpt>
      <trkpt lat="43.0612895172" lon="-4.1941052768">
        <ele>1245.04</ele>
        <time>2018-05-19T15:22:44Z</time>
      </trkpt>
      <trkpt lat="43.0612276588" lon="-4.1942165885">
        <ele>1245.53</ele>
        <time>2018-05-19T15:22:50Z</time>
      </trkpt>
      <trkpt lat="43.0611448456" lon="-4.1942786984">
        <ele>1246.97</ele>
        <time>2018-05-19T15:22:56Z</time>
      </trkpt>
      <trkpt lat="43.0610411614" lon="-4.1942737531">
        <ele>1248.41</ele>
        <time>2018-05-19T15:23:02Z</time>
      </trkpt>
      <trkpt lat="43.0609466136" lon="-4.1942220367">
        <ele>1249.37</ele>
        <time>2018-05-19T15:23:08Z</time>
      </trkpt>
      <trkpt lat="43.0608467851" lon="-4.1941999923">
        <ele>1250.81</ele>
        <time>2018-05-19T15:23:14Z</time>
      </trkpt>
      <trkpt lat="43.0607499741" lon="-4.1942041833">
        <ele>1251.77</ele>
        <time>2018-05-19T15:23:20Z</time>
      </trkpt>
      <trkpt lat="43.0606628861" lon="-4.1942406446">
        <ele>1252.25</ele>
        <time>2018-05-19T15:23:26Z</time>
      </trkpt>
      <trkpt lat="43.0605839286" lon="-4.1943198536">
        <ele>1253.22</ele>
        <time>2018-05-19T15:23:32Z</time>
      </trkpt>
      <trkpt lat="43.0605170410" lon="-4.1944148205">
        <ele>1254.18</ele>
        <time>2018-05-19T15:23:37Z</time>
      </trkpt>
      <trkpt lat="43.0604689289" lon="-4.1945463326">
        <ele>1254.66</ele>
        <time>2018-05-19T15:23:42Z</time>
      </trkpt>
      <trkpt lat="43.0604426097" lon="-4.1946653556">
        <ele>1255.14</ele>
        <time>2018-05-19T15:23:47Z</time>
      </trkpt>
      <trkpt lat="43.0604159553" lon="-4.1947804391">
        <ele>1256.10</ele>
        <time>2018-05-19T15:23:52Z</time>
      </trkpt>
      <trkpt lat="43.0603862833" lon="-4.1948992107">
        <ele>1257.54</ele>
        <time>2018-05-19T15:23:58Z</time>
      </trkpt>
      <trkpt lat="43.0603538454" lon="-4.1950299684">
        <ele>1258.02</ele>
        <time>2018-05-19T15:24:04Z</time>
      </trkpt>
      <trkpt lat="43.0603153724" lon="-4.1951530986">
        <ele>1258.98</ele>
        <time>2018-05-19T15:24:10Z</time>
      </trkpt>
      <trkpt lat="43.0602804199" lon="-4.1952732950">
        <ele>1259.46</ele>
        <time>2018-05-19T15:24:16Z</time>
      </trkpt>
      <trkpt lat="43.0602469761" lon="-4.1953986045">
        <ele>1260.43</ele>
        <time>2018-05-19T15:24:22Z</time>
      </trkpt>
      <trkpt lat="43.0602176394" lon="-4.1955398396">
        <ele>1260.43</ele>
        <time>2018-05-19T15:24:28Z</time>
      </trkpt>
      <trkpt lat="43.0601959303" lon="-4.1956634726">
        <ele>1260.91</ele>
        <time>2018-05-19T15:24:33Z</time>
      </trkpt>
      <trkpt lat="43.0601816811" lon="-4.1957882792">
        <ele>1261.87</ele>
        <time>2018-05-19T15:24:38Z</time>
      </trkpt>
      <trkpt lat="43.0601714551" lon="-4.1959161032">
        <ele>1262.35</ele>
        <time>2018-05-19T15:24:43Z</time>
      </trkpt>
      <trkpt lat="43.0601645820" lon="-4.1960491240">
        <ele>1262.35</ele>
        <time>2018-05-19T15:24:48Z</time>
      </trkpt>
      <trkpt lat="43.0601558648" lon="-4.1961787082">
        <ele>1262.83</ele>
        <time>2018-05-19T15:24:53Z</time>
      </trkpt>
      <trkpt lat="43.0601407774" lon="-4.1963035986">
        <ele>1263.31</ele>
        <time>2018-05-19T15:24:58Z</time>
      </trkpt>
      <trkpt lat="43.0601184815" lon="-4.1964315902">
        <ele>1264.75</ele>
        <time>2018-05-19T15:25:03Z</time>
      </trkpt>
      <trkpt lat="43.0600827746" lon="-4.1965678800">
        <ele>1264.75</ele>
        <time>2018-05-19T15:25:09Z</time>
      </trkpt>
      <trkpt lat="43.0600508396" lon="-4.1966933571">
        <ele>1265.71</ele>
        <time>2018-05-19T15:25:14Z</time>
      </trkpt>
      <trkpt lat="43.0600199103" lon="-4.1968044173">
        <ele>1266.67</ele>
        <time>2018-05-19T15:25:21Z</time>
      </trkpt>
      <trkpt lat="43.0600106064" lon="-4.1969171539">
        <ele>1266.67</ele>
        <time>2018-05-19T15:25:36Z</time>
      </trkpt>
      <trkpt lat="43.0599940103" lon="-4.1970405355">
        <ele>1267.16</ele>
        <time>2018-05-19T15:25:46Z</time>
      </trkpt>
      <trkpt lat="43.0599717982" lon="-4.1971101891">
        <ele>1267.16</ele>
        <time>2018-05-19T15:25:59Z</time>
      </trkpt>
      <trkpt lat="43.0599796772" lon="-4.1971414536">
        <ele>1267.16</ele>
        <time>2018-05-19T15:37:11Z</time>
      </trkpt>
      <trkpt lat="43.0600085948" lon="-4.1971256118">
        <ele>1267.16</ele>
        <time>2018-05-19T15:43:45Z</time>
      </trkpt>
      <trkpt lat="43.0600792542" lon="-4.1971519310">
        <ele>1267.16</ele>
        <time>2018-05-19T15:44:47Z</time>
      </trkpt>
      <trkpt lat="43.0601412803" lon="-4.1972472332">
        <ele>1267.16</ele>
        <time>2018-05-19T15:44:51Z</time>
      </trkpt>
      <trkpt lat="43.0601998698" lon="-4.1973458882">
        <ele>1267.16</ele>
        <time>2018-05-19T15:44:54Z</time>
      </trkpt>
      <trkpt lat="43.0602657516" lon="-4.1974719521">
        <ele>1267.16</ele>
        <time>2018-05-19T15:44:58Z</time>
      </trkpt>
      <trkpt lat="43.0603220779" lon="-4.1975809168">
        <ele>1267.16</ele>
        <time>2018-05-19T15:45:01Z</time>
      </trkpt>
      <trkpt lat="43.0603843555" lon="-4.1976918094">
        <ele>1267.16</ele>
        <time>2018-05-19T15:45:04Z</time>
      </trkpt>
      <trkpt lat="43.0604486447" lon="-4.1978094913">
        <ele>1267.16</ele>
        <time>2018-05-19T15:45:07Z</time>
      </trkpt>
      <trkpt lat="43.0605084915" lon="-4.1979064699">
        <ele>1267.16</ele>
        <time>2018-05-19T15:45:10Z</time>
      </trkpt>
      <trkpt lat="43.0605854373" lon="-4.1980193742">
        <ele>1265.23</ele>
        <time>2018-05-19T15:45:13Z</time>
      </trkpt>
      <trkpt lat="43.0606801528" lon="-4.1981362179">
        <ele>1264.75</ele>
        <time>2018-05-19T15:45:16Z</time>
      </trkpt>
      <trkpt lat="43.0607680790" lon="-4.1982052010">
        <ele>1261.39</ele>
        <time>2018-05-19T15:45:18Z</time>
      </trkpt>
      <trkpt lat="43.0608802289" lon="-4.1982575040">
        <ele>1259.46</ele>
        <time>2018-05-19T15:45:20Z</time>
      </trkpt>
      <trkpt lat="43.0610069633" lon="-4.1982873436">
        <ele>1257.54</ele>
        <time>2018-05-19T15:45:22Z</time>
      </trkpt>
      <trkpt lat="43.0611420795" lon="-4.1983188596">
        <ele>1257.06</ele>
        <time>2018-05-19T15:45:24Z</time>
      </trkpt>
      <trkpt lat="43.0612457637" lon="-4.1983815562">
        <ele>1256.10</ele>
        <time>2018-05-19T15:45:26Z</time>
      </trkpt>
      <trkpt lat="43.0613382999" lon="-4.1985135712">
        <ele>1255.62</ele>
        <time>2018-05-19T15:45:28Z</time>
      </trkpt>
      <trkpt lat="43.0613901839" lon="-4.1986672115">
        <ele>1255.62</ele>
        <time>2018-05-19T15:45:30Z</time>
      </trkpt>
      <trkpt lat="43.0614325125" lon="-4.1988050099">
        <ele>1255.14</ele>
        <time>2018-05-19T15:45:32Z</time>
      </trkpt>
      <trkpt lat="43.0614925269" lon="-4.1989503521">
        <ele>1254.18</ele>
        <time>2018-05-19T15:45:34Z</time>
      </trkpt>
      <trkpt lat="43.0615635216" lon="-4.1990542877">
        <ele>1252.25</ele>
        <time>2018-05-19T15:45:36Z</time>
      </trkpt>
      <trkpt lat="43.0616743304" lon="-4.1991231870">
        <ele>1250.81</ele>
        <time>2018-05-19T15:45:38Z</time>
      </trkpt>
      <trkpt lat="43.0617947783" lon="-4.1991516855">
        <ele>1250.33</ele>
        <time>2018-05-19T15:45:40Z</time>
      </trkpt>
      <trkpt lat="43.0619401205" lon="-4.1991972830">
        <ele>1248.41</ele>
        <time>2018-05-19T15:45:42Z</time>
      </trkpt>
      <trkpt lat="43.0620769970" lon="-4.1993254423">
        <ele>1246.97</ele>
        <time>2018-05-19T15:45:44Z</time>
      </trkpt>
      <trkpt lat="43.0621432979" lon="-4.1994245164">
        <ele>1246.01</ele>
        <time>2018-05-19T15:45:45Z</time>
      </trkpt>
      <trkpt lat="43.0622486584" lon="-4.1995971836">
        <ele>1245.04</ele>
        <time>2018-05-19T15:45:47Z</time>
      </trkpt>
      <trkpt lat="43.0623510852" lon="-4.1997817531">
        <ele>1245.04</ele>
        <time>2018-05-19T15:45:49Z</time>
      </trkpt>
      <trkpt lat="43.0624136981" lon="-4.1999500617">
        <ele>1246.49</ele>
        <time>2018-05-19T15:45:51Z</time>
      </trkpt>
      <trkpt lat="43.0624426994" lon="-4.2001041211">
        <ele>1246.49</ele>
        <time>2018-05-19T15:45:53Z</time>
      </trkpt>
      <trkpt lat="43.0624996964" lon="-4.2002468649">
        <ele>1246.49</ele>
        <time>2018-05-19T15:45:55Z</time>
      </trkpt>
      <trkpt lat="43.0625742115" lon="-4.2003526445">
        <ele>1244.56</ele>
        <time>2018-05-19T15:45:57Z</time>
      </trkpt>
      <trkpt lat="43.0626900494" lon="-4.2004722543">
        <ele>1243.12</ele>
        <time>2018-05-19T15:45:59Z</time>
      </trkpt>
      <trkpt lat="43.0628156941" lon="-4.2005532235">
        <ele>1242.64</ele>
        <time>2018-05-19T15:46:01Z</time>
      </trkpt>
      <trkpt lat="43.0629444402" lon="-4.2006121483">
        <ele>1243.12</ele>
        <time>2018-05-19T15:46:03Z</time>
      </trkpt>
      <trkpt lat="43.0630397424" lon="-4.2006684747">
        <ele>1243.12</ele>
        <time>2018-05-19T15:46:05Z</time>
      </trkpt>
      <trkpt lat="43.0631358828" lon="-4.2007392179">
        <ele>1244.08</ele>
        <time>2018-05-19T15:46:07Z</time>
      </trkpt>
      <trkpt lat="43.0632248148" lon="-4.2008232046">
        <ele>1244.08</ele>
        <time>2018-05-19T15:46:09Z</time>
      </trkpt>
      <trkpt lat="43.0633217096" lon="-4.2009080295">
        <ele>1244.08</ele>
        <time>2018-05-19T15:46:11Z</time>
      </trkpt>
      <trkpt lat="43.0634223763" lon="-4.2009829637">
        <ele>1243.12</ele>
        <time>2018-05-19T15:46:13Z</time>
      </trkpt>
      <trkpt lat="43.0635266472" lon="-4.2010796070">
        <ele>1241.20</ele>
        <time>2018-05-19T15:46:15Z</time>
      </trkpt>
      <trkpt lat="43.0636258051" lon="-4.2011666112">
        <ele>1240.24</ele>
        <time>2018-05-19T15:46:17Z</time>
      </trkpt>
      <trkpt lat="43.0637522880" lon="-4.2012650147">
        <ele>1238.32</ele>
        <time>2018-05-19T15:46:19Z</time>
      </trkpt>
      <trkpt lat="43.0638903379" lon="-4.2013722192">
        <ele>1235.91</ele>
        <time>2018-05-19T15:46:21Z</time>
      </trkpt>
      <trkpt lat="43.0639718100" lon="-4.2014402803">
        <ele>1234.47</ele>
        <time>2018-05-19T15:46:22Z</time>
      </trkpt>
      <trkpt lat="43.0641012266" lon="-4.2015490774">
        <ele>1232.07</ele>
        <time>2018-05-19T15:46:24Z</time>
      </trkpt>
      <trkpt lat="43.0642256979" lon="-4.2016983591">
        <ele>1230.62</ele>
        <time>2018-05-19T15:46:26Z</time>
      </trkpt>
      <trkpt lat="43.0643051583" lon="-4.2018581182">
        <ele>1228.70</ele>
        <time>2018-05-19T15:46:28Z</time>
      </trkpt>
      <trkpt lat="43.0643899832" lon="-4.2020229902">
        <ele>1228.70</ele>
        <time>2018-05-19T15:46:30Z</time>
      </trkpt>
      <trkpt lat="43.0644835252" lon="-4.2021948192">
        <ele>1226.78</ele>
        <time>2018-05-19T15:46:32Z</time>
      </trkpt>
      <trkpt lat="43.0645398516" lon="-4.2023655586">
        <ele>1225.34</ele>
        <time>2018-05-19T15:46:34Z</time>
      </trkpt>
      <trkpt lat="43.0645561963" lon="-4.2025347054">
        <ele>1225.82</ele>
        <time>2018-05-19T15:46:36Z</time>
      </trkpt>
      <trkpt lat="43.0645924062" lon="-4.2026901897">
        <ele>1223.42</ele>
        <time>2018-05-19T15:46:38Z</time>
      </trkpt>
      <trkpt lat="43.0646577850" lon="-4.2028539721">
        <ele>1221.49</ele>
        <time>2018-05-19T15:46:40Z</time>
      </trkpt>
      <trkpt lat="43.0647351500" lon="-4.2029804550">
        <ele>1221.49</ele>
        <time>2018-05-19T15:46:42Z</time>
      </trkpt>
      <trkpt lat="43.0648358166" lon="-4.2031088658">
        <ele>1219.57</ele>
        <time>2018-05-19T15:46:44Z</time>
      </trkpt>
      <trkpt lat="43.0649492238" lon="-4.2032361869">
        <ele>1218.13</ele>
        <time>2018-05-19T15:46:46Z</time>
      </trkpt>
      <trkpt lat="43.0650867708" lon="-4.2033728957">
        <ele>1215.72</ele>
        <time>2018-05-19T15:46:48Z</time>
      </trkpt>
      <trkpt lat="43.0652099848" lon="-4.2034915835">
        <ele>1214.76</ele>
        <time>2018-05-19T15:46:50Z</time>
      </trkpt>
      <trkpt lat="43.0653551593" lon="-4.2036090139">
        <ele>1212.36</ele>
        <time>2018-05-19T15:46:52Z</time>
      </trkpt>
      <trkpt lat="43.0654982384" lon="-4.2037083395">
        <ele>1211.88</ele>
        <time>2018-05-19T15:46:54Z</time>
      </trkpt>
      <trkpt lat="43.0656449217" lon="-4.2038044799">
        <ele>1211.88</ele>
        <time>2018-05-19T15:46:56Z</time>
      </trkpt>
      <trkpt lat="43.0657257233" lon="-4.2038623150">
        <ele>1210.44</ele>
        <time>2018-05-19T15:46:57Z</time>
      </trkpt>
      <trkpt lat="43.0658067763" lon="-4.2039250955">
        <ele>1209.00</ele>
        <time>2018-05-19T15:46:58Z</time>
      </trkpt>
      <trkpt lat="43.0659377854" lon="-4.2040503211">
        <ele>1209.48</ele>
        <time>2018-05-19T15:47:00Z</time>
      </trkpt>
      <trkpt lat="43.0660688784" lon="-4.2042042129">
        <ele>1208.03</ele>
        <time>2018-05-19T15:47:02Z</time>
      </trkpt>
      <trkpt lat="43.0661866441" lon="-4.2043424305">
        <ele>1208.03</ele>
        <time>2018-05-19T15:47:04Z</time>
      </trkpt>
      <trkpt lat="43.0663118698" lon="-4.2044506408">
        <ele>1207.55</ele>
        <time>2018-05-19T15:47:06Z</time>
      </trkpt>
      <trkpt lat="43.0664340779" lon="-4.2045275867">
        <ele>1207.55</ele>
        <time>2018-05-19T15:47:08Z</time>
      </trkpt>
      <trkpt lat="43.0665398575" lon="-4.2045978270">
        <ele>1207.55</ele>
        <time>2018-05-19T15:47:10Z</time>
      </trkpt>
      <trkpt lat="43.0666610599" lon="-4.2046670616">
        <ele>1207.55</ele>
        <time>2018-05-19T15:47:12Z</time>
      </trkpt>
      <trkpt lat="43.0667894706" lon="-4.2047256511">
        <ele>1206.59</ele>
        <time>2018-05-19T15:47:14Z</time>
      </trkpt>
      <trkpt lat="43.0669197254" lon="-4.2047746014">
        <ele>1205.63</ele>
        <time>2018-05-19T15:47:16Z</time>
      </trkpt>
      <trkpt lat="43.0670286063" lon="-4.2048072070">
        <ele>1205.63</ele>
        <time>2018-05-19T15:47:18Z</time>
      </trkpt>
      <trkpt lat="43.0671422649" lon="-4.2048412375">
        <ele>1204.67</ele>
        <time>2018-05-19T15:47:20Z</time>
      </trkpt>
      <trkpt lat="43.0672593601" lon="-4.2048797943">
        <ele>1204.67</ele>
        <time>2018-05-19T15:47:22Z</time>
      </trkpt>
      <trkpt lat="43.0673876032" lon="-4.2049279064">
        <ele>1203.23</ele>
        <time>2018-05-19T15:47:24Z</time>
      </trkpt>
      <trkpt lat="43.0675072968" lon="-4.2049738392">
        <ele>1202.27</ele>
        <time>2018-05-19T15:47:26Z</time>
      </trkpt>
      <trkpt lat="43.0676329415" lon="-4.2050238792">
        <ele>1200.82</ele>
        <time>2018-05-19T15:47:28Z</time>
      </trkpt>
      <trkpt lat="43.0677799601" lon="-4.2050815467">
        <ele>1199.38</ele>
        <time>2018-05-19T15:47:30Z</time>
      </trkpt>
      <trkpt lat="43.0679517053" lon="-4.2051194329">
        <ele>1198.42</ele>
        <time>2018-05-19T15:47:32Z</time>
      </trkpt>
      <trkpt lat="43.0680896714" lon="-4.2051434051">
        <ele>1197.94</ele>
        <time>2018-05-19T15:47:34Z</time>
      </trkpt>
      <trkpt lat="43.0682163220" lon="-4.2051538825">
        <ele>1198.42</ele>
        <time>2018-05-19T15:47:36Z</time>
      </trkpt>
      <trkpt lat="43.0683425535" lon="-4.2051724903">
        <ele>1198.42</ele>
        <time>2018-05-19T15:47:38Z</time>
      </trkpt>
      <trkpt lat="43.0684731435" lon="-4.2051812075">
        <ele>1196.50</ele>
        <time>2018-05-19T15:47:40Z</time>
      </trkpt>
      <trkpt lat="43.0686189886" lon="-4.2051781900">
        <ele>1194.58</ele>
        <time>2018-05-19T15:47:42Z</time>
      </trkpt>
      <trkpt lat="43.0687403586" lon="-4.2051744182">
        <ele>1196.50</ele>
        <time>2018-05-19T15:47:44Z</time>
      </trkpt>
      <trkpt lat="43.0688815098" lon="-4.2051647790">
        <ele>1194.09</ele>
        <time>2018-05-19T15:47:46Z</time>
      </trkpt>
      <trkpt lat="43.0690250080" lon="-4.2051423993">
        <ele>1192.65</ele>
        <time>2018-05-19T15:47:48Z</time>
      </trkpt>
      <trkpt lat="43.0691725295" lon="-4.2051109672">
        <ele>1192.17</ele>
        <time>2018-05-19T15:47:50Z</time>
      </trkpt>
      <trkpt lat="43.0693322048" lon="-4.2050560657">
        <ele>1191.69</ele>
        <time>2018-05-19T15:47:52Z</time>
      </trkpt>
      <trkpt lat="43.0694581009" lon="-4.2050069477">
        <ele>1191.69</ele>
        <time>2018-05-19T15:47:54Z</time>
      </trkpt>
      <trkpt lat="43.0696096458" lon="-4.2049517948">
        <ele>1190.25</ele>
        <time>2018-05-19T15:47:56Z</time>
      </trkpt>
      <trkpt lat="43.0697629508" lon="-4.2049061973">
        <ele>1189.29</ele>
        <time>2018-05-19T15:47:58Z</time>
      </trkpt>
      <trkpt lat="43.0699173454" lon="-4.2048669700">
        <ele>1188.33</ele>
        <time>2018-05-19T15:48:00Z</time>
      </trkpt>
      <trkpt lat="43.0700370390" lon="-4.2048136611">
        <ele>1188.33</ele>
        <time>2018-05-19T15:48:02Z</time>
      </trkpt>
      <trkpt lat="43.0701498594" lon="-4.2047158442">
        <ele>1188.33</ele>
        <time>2018-05-19T15:48:04Z</time>
      </trkpt>
      <trkpt lat="43.0702419765" lon="-4.2046073824">
        <ele>1188.33</ele>
        <time>2018-05-19T15:48:06Z</time>
      </trkpt>
      <trkpt lat="43.0703541264" lon="-4.2045918759">
        <ele>1187.85</ele>
        <time>2018-05-19T15:48:08Z</time>
      </trkpt>
      <trkpt lat="43.0704512727" lon="-4.2046464421">
        <ele>1187.85</ele>
        <time>2018-05-19T15:48:10Z</time>
      </trkpt>
      <trkpt lat="43.0705410428" lon="-4.2046712525">
        <ele>1187.85</ele>
        <time>2018-05-19T15:48:12Z</time>
      </trkpt>
      <trkpt lat="43.0706426315" lon="-4.2046720907">
        <ele>1187.85</ele>
        <time>2018-05-19T15:48:14Z</time>
      </trkpt>
      <trkpt lat="43.0707525183" lon="-4.2046622001">
        <ele>1187.85</ele>
        <time>2018-05-19T15:48:16Z</time>
      </trkpt>
      <trkpt lat="43.0708641652" lon="-4.2046504654">
        <ele>1187.85</ele>
        <time>2018-05-19T15:48:18Z</time>
      </trkpt>
      <trkpt lat="43.0709738005" lon="-4.2046455201">
        <ele>1187.37</ele>
        <time>2018-05-19T15:48:20Z</time>
      </trkpt>
      <trkpt lat="43.0710945837" lon="-4.2046370544">
        <ele>1187.37</ele>
        <time>2018-05-19T15:48:22Z</time>
      </trkpt>
      <trkpt lat="43.0711892992" lon="-4.2046316899">
        <ele>1187.37</ele>
        <time>2018-05-19T15:48:24Z</time>
      </trkpt>
      <trkpt lat="43.0712992698" lon="-4.2046199553">
        <ele>1187.37</ele>
        <time>2018-05-19T15:48:26Z</time>
      </trkpt>
      <trkpt lat="43.0714046303" lon="-4.2046083044">
        <ele>1187.37</ele>
        <time>2018-05-19T15:48:28Z</time>
      </trkpt>
      <trkpt lat="43.0715196300" lon="-4.2045964021">
        <ele>1187.37</ele>
        <time>2018-05-19T15:48:30Z</time>
      </trkpt>
      <trkpt lat="43.0716162734" lon="-4.2045894451">
        <ele>1187.37</ele>
        <time>2018-05-19T15:48:32Z</time>
      </trkpt>
      <trkpt lat="43.0717264954" lon="-4.2045891099">
        <ele>1186.88</ele>
        <time>2018-05-19T15:48:34Z</time>
      </trkpt>
      <trkpt lat="43.0718285870" lon="-4.2045906186">
        <ele>1186.88</ele>
        <time>2018-05-19T15:48:36Z</time>
      </trkpt>
      <trkpt lat="43.0719362106" lon="-4.2045957316">
        <ele>1186.88</ele>
        <time>2018-05-19T15:48:38Z</time>
      </trkpt>
      <trkpt lat="43.0720355362" lon="-4.2045979947">
        <ele>1186.88</ele>
        <time>2018-05-19T15:48:40Z</time>
      </trkpt>
      <trkpt lat="43.0721671320" lon="-4.2046010960">
        <ele>1186.88</ele>
        <time>2018-05-19T15:48:43Z</time>
      </trkpt>
      <trkpt lat="43.0722581595" lon="-4.2046041135">
        <ele>1186.88</ele>
        <time>2018-05-19T15:48:45Z</time>
      </trkpt>
      <trkpt lat="43.0723936111" lon="-4.2046145909">
        <ele>1186.88</ele>
        <time>2018-05-19T15:48:48Z</time>
      </trkpt>
      <trkpt lat="43.0724918470" lon="-4.2046180274">
        <ele>1186.88</ele>
        <time>2018-05-19T15:48:50Z</time>
      </trkpt>
      <trkpt lat="43.0726107862" lon="-4.2046277504">
        <ele>1187.85</ele>
        <time>2018-05-19T15:48:53Z</time>
      </trkpt>
      <trkpt lat="43.0727318209" lon="-4.2046427540">
        <ele>1188.33</ele>
        <time>2018-05-19T15:48:56Z</time>
      </trkpt>
      <trkpt lat="43.0728649255" lon="-4.2046656366">
        <ele>1188.33</ele>
        <time>2018-05-19T15:48:59Z</time>
      </trkpt>
      <trkpt lat="43.0729583837" lon="-4.2046801373">
        <ele>1188.33</ele>
        <time>2018-05-19T15:49:01Z</time>
      </trkpt>
      <trkpt lat="43.0730783287" lon="-4.2047002539">
        <ele>1188.33</ele>
        <time>2018-05-19T15:49:04Z</time>
      </trkpt>
      <trkpt lat="43.0731989443" lon="-4.2047152575">
        <ele>1188.33</ele>
        <time>2018-05-19T15:49:07Z</time>
      </trkpt>
      <trkpt lat="43.0733400118" lon="-4.2047354579">
        <ele>1188.33</ele>
        <time>2018-05-19T15:49:10Z</time>
      </trkpt>
      <trkpt lat="43.0734680872" lon="-4.2047515512">
        <ele>1188.81</ele>
        <time>2018-05-19T15:49:13Z</time>
      </trkpt>
      <trkpt lat="43.0735987611" lon="-4.2047627829">
        <ele>1189.29</ele>
        <time>2018-05-19T15:49:16Z</time>
      </trkpt>
      <trkpt lat="43.0736865196" lon="-4.2047716677">
        <ele>1189.29</ele>
        <time>2018-05-19T15:49:18Z</time>
      </trkpt>
      <trkpt lat="43.0738249887" lon="-4.2047744337">
        <ele>1189.29</ele>
        <time>2018-05-19T15:49:21Z</time>
      </trkpt>
      <trkpt lat="43.0739471968" lon="-4.2047785409">
        <ele>1189.29</ele>
        <time>2018-05-19T15:49:24Z</time>
      </trkpt>
      <trkpt lat="43.0740667228" lon="-4.2047831509">
        <ele>1189.77</ele>
        <time>2018-05-19T15:49:27Z</time>
      </trkpt>
      <trkpt lat="43.0741813034" lon="-4.2047795467">
        <ele>1190.73</ele>
        <time>2018-05-19T15:49:30Z</time>
      </trkpt>
      <trkpt lat="43.0743058585" lon="-4.2047648784">
        <ele>1190.73</ele>
        <time>2018-05-19T15:49:33Z</time>
      </trkpt>
      <trkpt lat="43.0744097102" lon="-4.2047503777">
        <ele>1190.73</ele>
        <time>2018-05-19T15:49:36Z</time>
      </trkpt>
      <trkpt lat="43.0745217763" lon="-4.2047292553">
        <ele>1191.69</ele>
        <time>2018-05-19T15:49:39Z</time>
      </trkpt>
      <trkpt lat="43.0746231135" lon="-4.2047048640">
        <ele>1192.17</ele>
        <time>2018-05-19T15:49:42Z</time>
      </trkpt>
      <trkpt lat="43.0747150630" lon="-4.2046745215">
        <ele>1192.17</ele>
        <time>2018-05-19T15:49:45Z</time>
      </trkpt>
      <trkpt lat="43.0748169869" lon="-4.2046437599">
        <ele>1192.65</ele>
        <time>2018-05-19T15:49:48Z</time>
      </trkpt>
      <trkpt lat="43.0749236885" lon="-4.2046046164">
        <ele>1192.65</ele>
        <time>2018-05-19T15:49:51Z</time>
      </trkpt>
      <trkpt lat="43.0750116985" lon="-4.2045626231">
        <ele>1192.65</ele>
        <time>2018-05-19T15:49:53Z</time>
      </trkpt>
      <trkpt lat="43.0751187354" lon="-4.2044962384">
        <ele>1192.65</ele>
        <time>2018-05-19T15:49:56Z</time>
      </trkpt>
      <trkpt lat="43.0752370041" lon="-4.2044073902">
        <ele>1190.73</ele>
        <time>2018-05-19T15:49:59Z</time>
      </trkpt>
      <trkpt lat="43.0753086694" lon="-4.2043249123">
        <ele>1190.73</ele>
        <time>2018-05-19T15:50:01Z</time>
      </trkpt>
      <trkpt lat="43.0753769819" lon="-4.2042206414">
        <ele>1190.25</ele>
        <time>2018-05-19T15:50:03Z</time>
      </trkpt>
      <trkpt lat="43.0754618905" lon="-4.2040604632">
        <ele>1189.29</ele>
        <time>2018-05-19T15:50:06Z</time>
      </trkpt>
      <trkpt lat="43.0755175464" lon="-4.2039327230">
        <ele>1189.29</ele>
        <time>2018-05-19T15:50:08Z</time>
      </trkpt>
      <trkpt lat="43.0755656585" lon="-4.2037945054">
        <ele>1188.81</ele>
        <time>2018-05-19T15:50:10Z</time>
      </trkpt>
      <trkpt lat="43.0756122619" lon="-4.2036486603">
        <ele>1188.81</ele>
        <time>2018-05-19T15:50:12Z</time>
      </trkpt>
      <trkpt lat="43.0756617989" lon="-4.2034834530">
        <ele>1187.85</ele>
        <time>2018-05-19T15:50:14Z</time>
      </trkpt>
      <trkpt lat="43.0756993499" lon="-4.2033485882">
        <ele>1186.88</ele>
        <time>2018-05-19T15:50:16Z</time>
      </trkpt>
      <trkpt lat="43.0757374875" lon="-4.2032169085">
        <ele>1186.88</ele>
        <time>2018-05-19T15:50:18Z</time>
      </trkpt>
      <trkpt lat="43.0757814925" lon="-4.2030945327">
        <ele>1186.88</ele>
        <time>2018-05-19T15:50:20Z</time>
      </trkpt>
      <trkpt lat="43.0758275092" lon="-4.2029716540">
        <ele>1186.88</ele>
        <time>2018-05-19T15:50:22Z</time>
      </trkpt>
      <trkpt lat="43.0758807342" lon="-4.2028330173">
        <ele>1186.88</ele>
        <time>2018-05-19T15:50:24Z</time>
      </trkpt>
      <trkpt lat="43.0759454425" lon="-4.2026892677">
        <ele>1186.40</ele>
        <time>2018-05-19T15:50:26Z</time>
      </trkpt>
      <trkpt lat="43.0760158505" lon="-4.2025786266">
        <ele>1186.40</ele>
        <time>2018-05-19T15:50:28Z</time>
      </trkpt>
      <trkpt lat="43.0760999210" lon="-4.2024708353">
        <ele>1185.92</ele>
        <time>2018-05-19T15:50:30Z</time>
      </trkpt>
      <trkpt lat="43.0761876795" lon="-4.2023606133">
        <ele>1184.96</ele>
        <time>2018-05-19T15:50:32Z</time>
      </trkpt>
      <trkpt lat="43.0762832332" lon="-4.2022379860">
        <ele>1184.00</ele>
        <time>2018-05-19T15:50:34Z</time>
      </trkpt>
      <trkpt lat="43.0764118955" lon="-4.2021092400">
        <ele>1181.12</ele>
        <time>2018-05-19T15:50:36Z</time>
      </trkpt>
      <trkpt lat="43.0765154958" lon="-4.2020051368">
        <ele>1180.16</ele>
        <time>2018-05-19T15:50:38Z</time>
      </trkpt>
      <trkpt lat="43.0766247120" lon="-4.2018900532">
        <ele>1179.19</ele>
        <time>2018-05-19T15:50:40Z</time>
      </trkpt>
      <trkpt lat="43.0767256301" lon="-4.2017711140">
        <ele>1179.19</ele>
        <time>2018-05-19T15:50:42Z</time>
      </trkpt>
      <trkpt lat="43.0768202618" lon="-4.2016439606">
        <ele>1178.23</ele>
        <time>2018-05-19T15:50:44Z</time>
      </trkpt>
      <trkpt lat="43.0769067630" lon="-4.2015620694">
        <ele>1177.75</ele>
        <time>2018-05-19T15:50:46Z</time>
      </trkpt>
      <trkpt lat="43.0770236067" lon="-4.2015386838">
        <ele>1175.83</ele>
        <time>2018-05-19T15:50:48Z</time>
      </trkpt>
      <trkpt lat="43.0771485809" lon="-4.2015633266">
        <ele>1174.87</ele>
        <time>2018-05-19T15:50:50Z</time>
      </trkpt>
      <trkpt lat="43.0772592220" lon="-4.2015851196">
        <ele>1173.91</ele>
        <time>2018-05-19T15:50:52Z</time>
      </trkpt>
      <trkpt lat="43.0773712881" lon="-4.2015668470">
        <ele>1171.98</ele>
        <time>2018-05-19T15:50:54Z</time>
      </trkpt>
      <trkpt lat="43.0774539337" lon="-4.2014925834">
        <ele>1169.58</ele>
        <time>2018-05-19T15:50:56Z</time>
      </trkpt>
      <trkpt lat="43.0775336456" lon="-4.2013490852">
        <ele>1166.22</ele>
        <time>2018-05-19T15:50:58Z</time>
      </trkpt>
      <trkpt lat="43.0776225775" lon="-4.2012130469">
        <ele>1164.29</ele>
        <time>2018-05-19T15:51:00Z</time>
      </trkpt>
      <trkpt lat="43.0777333025" lon="-4.2011155654">
        <ele>1162.85</ele>
        <time>2018-05-19T15:51:02Z</time>
      </trkpt>
      <trkpt lat="43.0778672453" lon="-4.2010494322">
        <ele>1160.93</ele>
        <time>2018-05-19T15:51:04Z</time>
      </trkpt>
      <trkpt lat="43.0780038703" lon="-4.2009923514">
        <ele>1158.05</ele>
        <time>2018-05-19T15:51:06Z</time>
      </trkpt>
      <trkpt lat="43.0781181995" lon="-4.2009418085">
        <ele>1156.60</ele>
        <time>2018-05-19T15:51:08Z</time>
      </trkpt>
      <trkpt lat="43.0782482028" lon="-4.2008772679">
        <ele>1153.72</ele>
        <time>2018-05-19T15:51:10Z</time>
      </trkpt>
      <trkpt lat="43.0783698242" lon="-4.2007998191">
        <ele>1153.24</ele>
        <time>2018-05-19T15:51:12Z</time>
      </trkpt>
      <trkpt lat="43.0784967262" lon="-4.2006834783">
        <ele>1150.84</ele>
        <time>2018-05-19T15:51:14Z</time>
      </trkpt>
      <trkpt lat="43.0785771925" lon="-4.2005870026">
        <ele>1150.35</ele>
        <time>2018-05-19T15:51:16Z</time>
      </trkpt>
      <trkpt lat="43.0786633585" lon="-4.2004678957">
        <ele>1147.95</ele>
        <time>2018-05-19T15:51:18Z</time>
      </trkpt>
      <trkpt lat="43.0787422322" lon="-4.2003287561">
        <ele>1146.51</ele>
        <time>2018-05-19T15:51:20Z</time>
      </trkpt>
      <trkpt lat="43.0788206030" lon="-4.2001625430">
        <ele>1144.59</ele>
        <time>2018-05-19T15:51:22Z</time>
      </trkpt>
      <trkpt lat="43.0788799468" lon="-4.2000458669">
        <ele>1142.66</ele>
        <time>2018-05-19T15:51:24Z</time>
      </trkpt>
      <trkpt lat="43.0789413862" lon="-4.1999168694">
        <ele>1140.74</ele>
        <time>2018-05-19T15:51:26Z</time>
      </trkpt>
      <trkpt lat="43.0790149793" lon="-4.1997772269">
        <ele>1139.30</ele>
        <time>2018-05-19T15:51:28Z</time>
      </trkpt>
      <trkpt lat="43.0791087728" lon="-4.1996539291">
        <ele>1136.90</ele>
        <time>2018-05-19T15:51:30Z</time>
      </trkpt>
      <trkpt lat="43.0792193301" lon="-4.1995550226">
        <ele>1133.53</ele>
        <time>2018-05-19T15:51:32Z</time>
      </trkpt>
      <trkpt lat="43.0793393590" lon="-4.1994660068">
        <ele>1130.65</ele>
        <time>2018-05-19T15:51:34Z</time>
      </trkpt>
      <trkpt lat="43.0794386007" lon="-4.1994041484">
        <ele>1129.21</ele>
        <time>2018-05-19T15:51:36Z</time>
      </trkpt>
      <trkpt lat="43.0795599706" lon="-4.1993287951">
        <ele>1127.28</ele>
        <time>2018-05-19T15:51:38Z</time>
      </trkpt>
      <trkpt lat="43.0796848610" lon="-4.1992482450">
        <ele>1125.84</ele>
        <time>2018-05-19T15:51:40Z</time>
      </trkpt>
      <trkpt lat="43.0798136909" lon="-4.1991594806">
        <ele>1123.44</ele>
        <time>2018-05-19T15:51:42Z</time>
      </trkpt>
      <trkpt lat="43.0799228232" lon="-4.1990605742">
        <ele>1122.48</ele>
        <time>2018-05-19T15:51:44Z</time>
      </trkpt>
      <trkpt lat="43.0800200533" lon="-4.1989257932">
        <ele>1122.00</ele>
        <time>2018-05-19T15:51:46Z</time>
      </trkpt>
      <trkpt lat="43.0800977536" lon="-4.1987423971">
        <ele>1118.63</ele>
        <time>2018-05-19T15:51:48Z</time>
      </trkpt>
      <trkpt lat="43.0801786389" lon="-4.1985206958">
        <ele>1116.71</ele>
        <time>2018-05-19T15:51:50Z</time>
      </trkpt>
      <trkpt lat="43.0802263319" lon="-4.1984089650">
        <ele>1116.71</ele>
        <time>2018-05-19T15:51:51Z</time>
      </trkpt>
      <trkpt lat="43.0803270824" lon="-4.1982301790">
        <ele>1115.27</ele>
        <time>2018-05-19T15:51:53Z</time>
      </trkpt>
      <trkpt lat="43.0804455187" lon="-4.1980626248">
        <ele>1114.31</ele>
        <time>2018-05-19T15:51:55Z</time>
      </trkpt>
      <trkpt lat="43.0805799644" lon="-4.1979111638">
        <ele>1112.86</ele>
        <time>2018-05-19T15:51:57Z</time>
      </trkpt>
      <trkpt lat="43.0806551501" lon="-4.1978317872">
        <ele>1111.90</ele>
        <time>2018-05-19T15:51:58Z</time>
      </trkpt>
      <trkpt lat="43.0807382148" lon="-4.1977456212">
        <ele>1110.94</ele>
        <time>2018-05-19T15:51:59Z</time>
      </trkpt>
      <trkpt lat="43.0808172561" lon="-4.1976649873">
        <ele>1109.98</ele>
        <time>2018-05-19T15:52:00Z</time>
      </trkpt>
      <trkpt lat="43.0809436552" lon="-4.1975289490">
        <ele>1108.06</ele>
        <time>2018-05-19T15:52:02Z</time>
      </trkpt>
      <trkpt lat="43.0810699705" lon="-4.1973889712">
        <ele>1106.61</ele>
        <time>2018-05-19T15:52:04Z</time>
      </trkpt>
      <trkpt lat="43.0811982136" lon="-4.1972534359">
        <ele>1106.13</ele>
        <time>2018-05-19T15:52:06Z</time>
      </trkpt>
      <trkpt lat="43.0813388620" lon="-4.1971075069">
        <ele>1103.73</ele>
        <time>2018-05-19T15:52:08Z</time>
      </trkpt>
      <trkpt lat="43.0814570468" lon="-4.1969692893">
        <ele>1101.33</ele>
        <time>2018-05-19T15:52:10Z</time>
      </trkpt>
      <trkpt lat="43.0815666821" lon="-4.1968217678">
        <ele>1099.89</ele>
        <time>2018-05-19T15:52:12Z</time>
      </trkpt>
      <trkpt lat="43.0816872139" lon="-4.1966599133">
        <ele>1096.52</ele>
        <time>2018-05-19T15:52:14Z</time>
      </trkpt>
      <trkpt lat="43.0818106793" lon="-4.1965265572">
        <ele>1093.64</ele>
        <time>2018-05-19T15:52:16Z</time>
      </trkpt>
      <trkpt lat="43.0819421075" lon="-4.1963923629">
        <ele>1091.71</ele>
        <time>2018-05-19T15:52:18Z</time>
      </trkpt>
      <trkpt lat="43.0820465460" lon="-4.1962928697">
        <ele>1089.79</ele>
        <time>2018-05-19T15:52:20Z</time>
      </trkpt>
      <trkpt lat="43.0821509007" lon="-4.1961730085">
        <ele>1085.95</ele>
        <time>2018-05-19T15:52:22Z</time>
      </trkpt>
      <trkpt lat="43.0822469573" lon="-4.1960062087">
        <ele>1083.54</ele>
        <time>2018-05-19T15:52:24Z</time>
      </trkpt>
      <trkpt lat="43.0823263340" lon="-4.1957869381">
        <ele>1081.62</ele>
        <time>2018-05-19T15:52:26Z</time>
      </trkpt>
      <trkpt lat="43.0823730212" lon="-4.1955985129">
        <ele>1081.14</ele>
        <time>2018-05-19T15:52:28Z</time>
      </trkpt>
      <trkpt lat="43.0824280065" lon="-4.1954084113">
        <ele>1080.18</ele>
        <time>2018-05-19T15:52:30Z</time>
      </trkpt>
      <trkpt lat="43.0825000908" lon="-4.1952427849">
        <ele>1080.18</ele>
        <time>2018-05-19T15:52:32Z</time>
      </trkpt>
      <trkpt lat="43.0825560819" lon="-4.1950588860">
        <ele>1078.74</ele>
        <time>2018-05-19T15:52:34Z</time>
      </trkpt>
      <trkpt lat="43.0825590156" lon="-4.1948519368">
        <ele>1077.29</ele>
        <time>2018-05-19T15:52:36Z</time>
      </trkpt>
      <trkpt lat="43.0825893581" lon="-4.1947205923">
        <ele>1077.78</ele>
        <time>2018-05-19T15:52:38Z</time>
      </trkpt>
      <trkpt lat="43.0826722551" lon="-4.1946512740">
        <ele>1078.74</ele>
        <time>2018-05-19T15:52:40Z</time>
      </trkpt>
      <trkpt lat="43.0827648751" lon="-4.1946276370">
        <ele>1078.74</ele>
        <time>2018-05-19T15:52:42Z</time>
      </trkpt>
      <trkpt lat="43.0828665476" lon="-4.1946351808">
        <ele>1079.22</ele>
        <time>2018-05-19T15:52:44Z</time>
      </trkpt>
      <trkpt lat="43.0829901807" lon="-4.1946434788">
        <ele>1079.22</ele>
        <time>2018-05-19T15:52:47Z</time>
      </trkpt>
      <trkpt lat="43.0831133947" lon="-4.1946827900">
        <ele>1079.22</ele>
        <time>2018-05-19T15:52:50Z</time>
      </trkpt>
      <trkpt lat="43.0832319148" lon="-4.1947105341">
        <ele>1080.18</ele>
        <time>2018-05-19T15:52:53Z</time>
      </trkpt>
      <trkpt lat="43.0833205953" lon="-4.1946678702">
        <ele>1080.18</ele>
        <time>2018-05-19T15:52:56Z</time>
      </trkpt>
      <trkpt lat="43.0833636783" lon="-4.1945554689">
        <ele>1081.14</ele>
        <time>2018-05-19T15:52:59Z</time>
      </trkpt>
      <trkpt lat="43.0833977927" lon="-4.1944138985">
        <ele>1081.14</ele>
        <time>2018-05-19T15:53:02Z</time>
      </trkpt>
      <trkpt lat="43.0834412109" lon="-4.1942406446">
        <ele>1079.70</ele>
        <time>2018-05-19T15:53:05Z</time>
      </trkpt>
      <trkpt lat="43.0834754091" lon="-4.1941177659">
        <ele>1079.70</ele>
        <time>2018-05-19T15:53:07Z</time>
      </trkpt>
      <trkpt lat="43.0834875628" lon="-4.1939848289">
        <ele>1078.74</ele>
        <time>2018-05-19T15:53:09Z</time>
      </trkpt>
      <trkpt lat="43.0834575556" lon="-4.1938282549">
        <ele>1077.29</ele>
        <time>2018-05-19T15:53:11Z</time>
      </trkpt>
      <trkpt lat="43.0834128801" lon="-4.1936973296">
        <ele>1075.37</ele>
        <time>2018-05-19T15:53:13Z</time>
      </trkpt>
      <trkpt lat="43.0834056716" lon="-4.1935356427">
        <ele>1073.45</ele>
        <time>2018-05-19T15:53:15Z</time>
      </trkpt>
      <trkpt lat="43.0834694579" lon="-4.1933899652">
        <ele>1071.05</ele>
        <time>2018-05-19T15:53:17Z</time>
      </trkpt>
      <trkpt lat="43.0835844576" lon="-4.1932573635">
        <ele>1069.12</ele>
        <time>2018-05-19T15:53:19Z</time>
      </trkpt>
      <trkpt lat="43.0836909916" lon="-4.1931779869">
        <ele>1067.68</ele>
        <time>2018-05-19T15:53:21Z</time>
      </trkpt>
      <trkpt lat="43.0838018842" lon="-4.1930927429">
        <ele>1067.20</ele>
        <time>2018-05-19T15:53:23Z</time>
      </trkpt>
      <trkpt lat="43.0838698614" lon="-4.1929650865">
        <ele>1066.72</ele>
        <time>2018-05-19T15:53:25Z</time>
      </trkpt>
      <trkpt lat="43.0839431193" lon="-4.1928251926">
        <ele>1065.76</ele>
        <time>2018-05-19T15:53:27Z</time>
      </trkpt>
      <trkpt lat="43.0840488151" lon="-4.1927666869">
        <ele>1065.28</ele>
        <time>2018-05-19T15:53:29Z</time>
      </trkpt>
      <trkpt lat="43.0841368251" lon="-4.1927742306">
        <ele>1065.28</ele>
        <time>2018-05-19T15:53:31Z</time>
      </trkpt>
      <trkpt lat="43.0842367373" lon="-4.1928076744">
        <ele>1065.76</ele>
        <time>2018-05-19T15:53:33Z</time>
      </trkpt>
      <trkpt lat="43.0843322910" lon="-4.1928507574">
        <ele>1065.76</ele>
        <time>2018-05-19T15:53:35Z</time>
      </trkpt>
      <trkpt lat="43.0844482128" lon="-4.1929076705">
        <ele>1063.84</ele>
        <time>2018-05-19T15:53:37Z</time>
      </trkpt>
      <trkpt lat="43.0845675711" lon="-4.1929738875">
        <ele>1062.39</ele>
        <time>2018-05-19T15:53:39Z</time>
      </trkpt>
      <trkpt lat="43.0847022682" lon="-4.1930667590">
        <ele>1060.47</ele>
        <time>2018-05-19T15:53:41Z</time>
      </trkpt>
      <trkpt lat="43.0848514661" lon="-4.1931713652">
        <ele>1059.51</ele>
        <time>2018-05-19T15:53:43Z</time>
      </trkpt>
      <trkpt lat="43.0849952996" lon="-4.1932610516">
        <ele>1059.03</ele>
        <time>2018-05-19T15:53:45Z</time>
      </trkpt>
      <trkpt lat="43.0851370376" lon="-4.1933288611">
        <ele>1059.03</ele>
        <time>2018-05-19T15:53:47Z</time>
      </trkpt>
      <trkpt lat="43.0852733273" lon="-4.1934004426">
        <ele>1058.55</ele>
        <time>2018-05-19T15:53:49Z</time>
      </trkpt>
      <trkpt lat="43.0853598285" lon="-4.1934918053">
        <ele>1059.03</ele>
        <time>2018-05-19T15:53:51Z</time>
      </trkpt>
      <trkpt lat="43.0854402110" lon="-4.1936111636">
        <ele>1058.55</ele>
        <time>2018-05-19T15:53:53Z</time>
      </trkpt>
      <trkpt lat="43.0855305679" lon="-4.1937275883">
        <ele>1057.59</ele>
        <time>2018-05-19T15:53:55Z</time>
      </trkpt>
      <trkpt lat="43.0856153928" lon="-4.1938254051">
        <ele>1057.11</ele>
        <time>2018-05-19T15:53:57Z</time>
      </trkpt>
      <trkpt lat="43.0856879801" lon="-4.1939248145">
        <ele>1056.63</ele>
        <time>2018-05-19T15:53:59Z</time>
      </trkpt>
      <trkpt lat="43.0857531074" lon="-4.1940386407">
        <ele>1055.67</ele>
        <time>2018-05-19T15:54:01Z</time>
      </trkpt>
      <trkpt lat="43.0858110264" lon="-4.1941916943">
        <ele>1052.78</ele>
        <time>2018-05-19T15:54:03Z</time>
      </trkpt>
      <trkpt lat="43.0858820211" lon="-4.1943890043">
        <ele>1050.86</ele>
        <time>2018-05-19T15:54:05Z</time>
      </trkpt>
      <trkpt lat="43.0859486572" lon="-4.1946109571">
        <ele>1049.90</ele>
        <time>2018-05-19T15:54:07Z</time>
      </trkpt>
      <trkpt lat="43.0859818496" lon="-4.1948406212">
        <ele>1049.90</ele>
        <time>2018-05-19T15:54:09Z</time>
      </trkpt>
      <trkpt lat="43.0859851185" lon="-4.1950359195">
        <ele>1049.42</ele>
        <time>2018-05-19T15:54:11Z</time>
      </trkpt>
      <trkpt lat="43.0859888904" lon="-4.1952312179">
        <ele>1048.94</ele>
        <time>2018-05-19T15:54:13Z</time>
      </trkpt>
      <trkpt lat="43.0859991163" lon="-4.1954138596">
        <ele>1048.94</ele>
        <time>2018-05-19T15:54:15Z</time>
      </trkpt>
      <trkpt lat="43.0860082526" lon="-4.1955996025">
        <ele>1047.49</ele>
        <time>2018-05-19T15:54:17Z</time>
      </trkpt>
      <trkpt lat="43.0860205740" lon="-4.1957967449">
        <ele>1047.49</ele>
        <time>2018-05-19T15:54:19Z</time>
      </trkpt>
      <trkpt lat="43.0860353261" lon="-4.1959578451">
        <ele>1047.01</ele>
        <time>2018-05-19T15:54:21Z</time>
      </trkpt>
      <trkpt lat="43.0860599689" lon="-4.1961326078">
        <ele>1046.53</ele>
        <time>2018-05-19T15:54:23Z</time>
      </trkpt>
      <trkpt lat="43.0861059856" lon="-4.1962845717">
        <ele>1046.53</ele>
        <time>2018-05-19T15:54:25Z</time>
      </trkpt>
      <trkpt lat="43.0861638207" lon="-4.1964299977">
        <ele>1045.57</ele>
        <time>2018-05-19T15:54:27Z</time>
      </trkpt>
      <trkpt lat="43.0862387549" lon="-4.1965931095">
        <ele>1043.17</ele>
        <time>2018-05-19T15:54:29Z</time>
      </trkpt>
      <trkpt lat="43.0863102525" lon="-4.1967314947">
        <ele>1041.25</ele>
        <time>2018-05-19T15:54:31Z</time>
      </trkpt>
      <trkpt lat="43.0863942392" lon="-4.1968785133">
        <ele>1039.32</ele>
        <time>2018-05-19T15:54:33Z</time>
      </trkpt>
      <trkpt lat="43.0864659883" lon="-4.1970236041">
        <ele>1037.88</ele>
        <time>2018-05-19T15:54:35Z</time>
      </trkpt>
      <trkpt lat="43.0865321215" lon="-4.1971947625">
        <ele>1036.44</ele>
        <time>2018-05-19T15:54:37Z</time>
      </trkpt>
      <trkpt lat="43.0865802336" lon="-4.1973308846">
        <ele>1035.48</ele>
        <time>2018-05-19T15:54:39Z</time>
      </trkpt>
      <trkpt lat="43.0866206344" lon="-4.1974782385">
        <ele>1034.04</ele>
        <time>2018-05-19T15:54:41Z</time>
      </trkpt>
      <trkpt lat="43.0866624601" lon="-4.1976193059">
        <ele>1033.07</ele>
        <time>2018-05-19T15:54:43Z</time>
      </trkpt>
      <trkpt lat="43.0867181998" lon="-4.1977580264">
        <ele>1031.63</ele>
        <time>2018-05-19T15:54:45Z</time>
      </trkpt>
      <trkpt lat="43.0867843330" lon="-4.1979140975">
        <ele>1029.23</ele>
        <time>2018-05-19T15:54:47Z</time>
      </trkpt>
      <trkpt lat="43.0868547410" lon="-4.1980729345">
        <ele>1027.31</ele>
        <time>2018-05-19T15:54:49Z</time>
      </trkpt>
      <trkpt lat="43.0869124085" lon="-4.1982052010">
        <ele>1025.86</ele>
        <time>2018-05-19T15:54:51Z</time>
      </trkpt>
      <trkpt lat="43.0869780388" lon="-4.1983560752">
        <ele>1024.42</ele>
        <time>2018-05-19T15:54:53Z</time>
      </trkpt>
      <trkpt lat="43.0870418251" lon="-4.1985110566">
        <ele>1022.02</ele>
        <time>2018-05-19T15:54:55Z</time>
      </trkpt>
      <trkpt lat="43.0870985705" lon="-4.1986846458">
        <ele>1019.62</ele>
        <time>2018-05-19T15:54:57Z</time>
      </trkpt>
      <trkpt lat="43.0871576630" lon="-4.1988819558">
        <ele>1017.21</ele>
        <time>2018-05-19T15:54:59Z</time>
      </trkpt>
      <trkpt lat="43.0872057751" lon="-4.1990426369">
        <ele>1017.21</ele>
        <time>2018-05-19T15:55:01Z</time>
      </trkpt>
      <trkpt lat="43.0872623529" lon="-4.1992271226">
        <ele>1015.29</ele>
        <time>2018-05-19T15:55:03Z</time>
      </trkpt>
      <trkpt lat="43.0872952100" lon="-4.1994060762">
        <ele>1014.81</ele>
        <time>2018-05-19T15:55:05Z</time>
      </trkpt>
      <trkpt lat="43.0873190146" lon="-4.1996090859">
        <ele>1012.41</ele>
        <time>2018-05-19T15:55:07Z</time>
      </trkpt>
      <trkpt lat="43.0873613432" lon="-4.1998404264">
        <ele>1009.52</ele>
        <time>2018-05-19T15:55:09Z</time>
      </trkpt>
      <trkpt lat="43.0873853154" lon="-4.1999622155">
        <ele>1008.56</ele>
        <time>2018-05-19T15:55:10Z</time>
      </trkpt>
      <trkpt lat="43.0874166638" lon="-4.2001695838">
        <ele>1008.08</ele>
        <time>2018-05-19T15:55:12Z</time>
      </trkpt>
      <trkpt lat="43.0874371156" lon="-4.2003929615">
        <ele>1006.64</ele>
        <time>2018-05-19T15:55:14Z</time>
      </trkpt>
      <trkpt lat="43.0874481797" lon="-4.2006087955">
        <ele>1006.16</ele>
        <time>2018-05-19T15:55:16Z</time>
      </trkpt>
      <trkpt lat="43.0874522869" lon="-4.2008241266">
        <ele>1006.16</ele>
        <time>2018-05-19T15:55:18Z</time>
      </trkpt>
      <trkpt lat="43.0874505267" lon="-4.2010373622">
        <ele>1005.68</ele>
        <time>2018-05-19T15:55:20Z</time>
      </trkpt>
      <trkpt lat="43.0874517001" lon="-4.2012535315">
        <ele>1005.20</ele>
        <time>2018-05-19T15:55:22Z</time>
      </trkpt>
      <trkpt lat="43.0874642730" lon="-4.2014373466">
        <ele>1002.79</ele>
        <time>2018-05-19T15:55:24Z</time>
      </trkpt>
      <trkpt lat="43.0874848086" lon="-4.2016348243">
        <ele>1000.87</ele>
        <time>2018-05-19T15:55:26Z</time>
      </trkpt>
      <trkpt lat="43.0875049252" lon="-4.2018329725">
        <ele>1000.87</ele>
        <time>2018-05-19T15:55:28Z</time>
      </trkpt>
      <trkpt lat="43.0875276402" lon="-4.2020269297">
        <ele>999.43</ele>
        <time>2018-05-19T15:55:30Z</time>
      </trkpt>
      <trkpt lat="43.0875571445" lon="-4.2022453621">
        <ele>997.51</ele>
        <time>2018-05-19T15:55:32Z</time>
      </trkpt>
      <trkpt lat="43.0875951145" lon="-4.2024094798">
        <ele>997.02</ele>
        <time>2018-05-19T15:55:34Z</time>
      </trkpt>
      <trkpt lat="43.0876516085" lon="-4.2025813088">
        <ele>997.02</ele>
        <time>2018-05-19T15:55:36Z</time>
      </trkpt>
      <trkpt lat="43.0877182446" lon="-4.2027321830">
        <ele>996.06</ele>
        <time>2018-05-19T15:55:38Z</time>
      </trkpt>
      <trkpt lat="43.0877856351" lon="-4.2028883379">
        <ele>995.58</ele>
        <time>2018-05-19T15:55:40Z</time>
      </trkpt>
      <trkpt lat="43.0878635868" lon="-4.2030152399">
        <ele>995.58</ele>
        <time>2018-05-19T15:55:42Z</time>
      </trkpt>
      <trkpt lat="43.0879414547" lon="-4.2031145655">
        <ele>995.10</ele>
        <time>2018-05-19T15:55:44Z</time>
      </trkpt>
      <trkpt lat="43.0880172271" lon="-4.2032191716">
        <ele>994.14</ele>
        <time>2018-05-19T15:55:46Z</time>
      </trkpt>
      <trkpt lat="43.0880946759" lon="-4.2033188324">
        <ele>993.18</ele>
        <time>2018-05-19T15:55:48Z</time>
      </trkpt>
      <trkpt lat="43.0881840270" lon="-4.2034103628">
        <ele>993.18</ele>
        <time>2018-05-19T15:55:50Z</time>
      </trkpt>
      <trkpt lat="43.0882737972" lon="-4.2035001330">
        <ele>991.74</ele>
        <time>2018-05-19T15:55:52Z</time>
      </trkpt>
      <trkpt lat="43.0883624777" lon="-4.2035936750">
        <ele>990.78</ele>
        <time>2018-05-19T15:55:54Z</time>
      </trkpt>
      <trkpt lat="43.0884465482" lon="-4.2036557011">
        <ele>988.85</ele>
        <time>2018-05-19T15:55:56Z</time>
      </trkpt>
      <trkpt lat="43.0885278527" lon="-4.2037378438">
        <ele>987.41</ele>
        <time>2018-05-19T15:55:58Z</time>
      </trkpt>
      <trkpt lat="43.0885865260" lon="-4.2038437072">
        <ele>985.97</ele>
        <time>2018-05-19T15:56:00Z</time>
      </trkpt>
      <trkpt lat="43.0886721890" lon="-4.2039325554">
        <ele>983.57</ele>
        <time>2018-05-19T15:56:02Z</time>
      </trkpt>
      <trkpt lat="43.0887380708" lon="-4.2040543444">
        <ele>981.64</ele>
        <time>2018-05-19T15:56:04Z</time>
      </trkpt>
      <trkpt lat="43.0887721013" lon="-4.2041510716">
        <ele>980.20</ele>
        <time>2018-05-19T15:56:06Z</time>
      </trkpt>
      <trkpt lat="43.0888686609" lon="-4.2042938154">
        <ele>977.32</ele>
        <time>2018-05-19T15:56:09Z</time>
      </trkpt>
      <trkpt lat="43.0889386497" lon="-4.2043993436">
        <ele>975.39</ele>
        <time>2018-05-19T15:56:11Z</time>
      </trkpt>
      <trkpt lat="43.0890015140" lon="-4.2045142595">
        <ele>973.95</ele>
        <time>2018-05-19T15:56:13Z</time>
      </trkpt>
      <trkpt lat="43.0890756100" lon="-4.2045955639">
        <ele>972.03</ele>
        <time>2018-05-19T15:56:15Z</time>
      </trkpt>
      <trkpt lat="43.0891668890" lon="-4.2046639603">
        <ele>970.11</ele>
        <time>2018-05-19T15:56:17Z</time>
      </trkpt>
      <trkpt lat="43.0892504565" lon="-4.2047318537">
        <ele>968.67</ele>
        <time>2018-05-19T15:56:19Z</time>
      </trkpt>
      <trkpt lat="43.0893233791" lon="-4.2048253957">
        <ele>965.30</ele>
        <time>2018-05-19T15:56:21Z</time>
      </trkpt>
      <trkpt lat="43.0893770233" lon="-4.2049610149">
        <ele>962.42</ele>
        <time>2018-05-19T15:56:23Z</time>
      </trkpt>
      <trkpt lat="43.0894158315" lon="-4.2050898448">
        <ele>960.49</ele>
        <time>2018-05-19T15:56:25Z</time>
      </trkpt>
      <trkpt lat="43.0894559808" lon="-4.2052096222">
        <ele>959.05</ele>
        <time>2018-05-19T15:56:27Z</time>
      </trkpt>
      <trkpt lat="43.0895252991" lon="-4.2053023260">
        <ele>956.17</ele>
        <time>2018-05-19T15:56:29Z</time>
      </trkpt>
      <trkpt lat="43.0896044243" lon="-4.2053849716">
        <ele>954.25</ele>
        <time>2018-05-19T15:56:31Z</time>
      </trkpt>
      <trkpt lat="43.0896804482" lon="-4.2055098619">
        <ele>951.84</ele>
        <time>2018-05-19T15:56:33Z</time>
      </trkpt>
      <trkpt lat="43.0897165742" lon="-4.2056372669">
        <ele>949.92</ele>
        <time>2018-05-19T15:56:35Z</time>
      </trkpt>
      <trkpt lat="43.0897578970" lon="-4.2057789210">
        <ele>948.48</ele>
        <time>2018-05-19T15:56:37Z</time>
      </trkpt>
      <trkpt lat="43.0898107868" lon="-4.2059188150">
        <ele>947.04</ele>
        <time>2018-05-19T15:56:39Z</time>
      </trkpt>
      <trkpt lat="43.0898861401" lon="-4.2060478125">
        <ele>945.59</ele>
        <time>2018-05-19T15:56:41Z</time>
      </trkpt>
      <trkpt lat="43.0899756588" lon="-4.2061602138">
        <ele>943.67</ele>
        <time>2018-05-19T15:56:43Z</time>
      </trkpt>
      <trkpt lat="43.0900554545" lon="-4.2062657420">
        <ele>941.75</ele>
        <time>2018-05-19T15:56:45Z</time>
      </trkpt>
      <trkpt lat="43.0901323166" lon="-4.2063927278">
        <ele>939.83</ele>
        <time>2018-05-19T15:56:47Z</time>
      </trkpt>
      <trkpt lat="43.0902037304" lon="-4.2065004352">
        <ele>938.38</ele>
        <time>2018-05-19T15:56:49Z</time>
      </trkpt>
      <trkpt lat="43.0902686901" lon="-4.2065933067">
        <ele>936.46</ele>
        <time>2018-05-19T15:56:51Z</time>
      </trkpt>
      <trkpt lat="43.0903398525" lon="-4.2066877708">
        <ele>934.54</ele>
        <time>2018-05-19T15:56:53Z</time>
      </trkpt>
      <trkpt lat="43.0904208217" lon="-4.2068295926">
        <ele>931.65</ele>
        <time>2018-05-19T15:56:56Z</time>
      </trkpt>
      <trkpt lat="43.0904379208" lon="-4.2069621105">
        <ele>929.73</ele>
        <time>2018-05-19T15:56:58Z</time>
      </trkpt>
      <trkpt lat="43.0904623121" lon="-4.2070884258">
        <ele>927.33</ele>
        <time>2018-05-19T15:57:00Z</time>
      </trkpt>
      <trkpt lat="43.0905153695" lon="-4.2072222847">
        <ele>925.89</ele>
        <time>2018-05-19T15:57:02Z</time>
      </trkpt>
      <trkpt lat="43.0905956682" lon="-4.2073910125">
        <ele>923.48</ele>
        <time>2018-05-19T15:57:05Z</time>
      </trkpt>
      <trkpt lat="43.0906567723" lon="-4.2074977979">
        <ele>922.52</ele>
        <time>2018-05-19T15:57:07Z</time>
      </trkpt>
      <trkpt lat="43.0907602049" lon="-4.2076022364">
        <ele>920.12</ele>
        <time>2018-05-19T15:57:10Z</time>
      </trkpt>
      <trkpt lat="43.0908724386" lon="-4.2076584790">
        <ele>916.75</ele>
        <time>2018-05-19T15:57:13Z</time>
      </trkpt>
      <trkpt lat="43.0909949820" lon="-4.2077219300">
        <ele>913.39</ele>
        <time>2018-05-19T15:57:16Z</time>
      </trkpt>
      <trkpt lat="43.0910747778" lon="-4.2077940982">
        <ele>910.51</ele>
        <time>2018-05-19T15:57:18Z</time>
      </trkpt>
      <trkpt lat="43.0911507178" lon="-4.2079058290">
        <ele>908.58</ele>
        <time>2018-05-19T15:57:21Z</time>
      </trkpt>
      <trkpt lat="43.0912030209" lon="-4.2080354132">
        <ele>905.70</ele>
        <time>2018-05-19T15:57:24Z</time>
      </trkpt>
      <trkpt lat="43.0912416615" lon="-4.2081759777">
        <ele>903.30</ele>
        <time>2018-05-19T15:57:27Z</time>
      </trkpt>
      <trkpt lat="43.0912773684" lon="-4.2083403468">
        <ele>899.93</ele>
        <time>2018-05-19T15:57:30Z</time>
      </trkpt>
      <trkpt lat="43.0913009215" lon="-4.2084895447">
        <ele>898.01</ele>
        <time>2018-05-19T15:57:33Z</time>
      </trkpt>
      <trkpt lat="43.0913454294" lon="-4.2086365633">
        <ele>894.64</ele>
        <time>2018-05-19T15:57:36Z</time>
      </trkpt>
      <trkpt lat="43.0914211180" lon="-4.2087686621">
        <ele>891.76</ele>
        <time>2018-05-19T15:57:39Z</time>
      </trkpt>
      <trkpt lat="43.0915200245" lon="-4.2088888586">
        <ele>888.88</ele>
        <time>2018-05-19T15:57:42Z</time>
      </trkpt>
      <trkpt lat="43.0916355271" lon="-4.2089997511">
        <ele>885.51</ele>
        <time>2018-05-19T15:57:45Z</time>
      </trkpt>
      <trkpt lat="43.0917256325" lon="-4.2090626992">
        <ele>883.59</ele>
        <time>2018-05-19T15:57:47Z</time>
      </trkpt>
      <trkpt lat="43.0918340106" lon="-4.2091816384">
        <ele>881.19</ele>
        <time>2018-05-19T15:57:50Z</time>
      </trkpt>
      <trkpt lat="43.0918882415" lon="-4.2093501985">
        <ele>878.78</ele>
        <time>2018-05-19T15:57:53Z</time>
      </trkpt>
      <trkpt lat="43.0919235293" lon="-4.2094827164">
        <ele>876.38</ele>
        <time>2018-05-19T15:57:55Z</time>
      </trkpt>
      <trkpt lat="43.0919949431" lon="-4.2096441519">
        <ele>873.98</ele>
        <time>2018-05-19T15:57:58Z</time>
      </trkpt>
      <trkpt lat="43.0920598190" lon="-4.2097312398">
        <ele>873.01</ele>
        <time>2018-05-19T15:58:00Z</time>
      </trkpt>
      <trkpt lat="43.0921371840" lon="-4.2098170705">
        <ele>871.09</ele>
        <time>2018-05-19T15:58:02Z</time>
      </trkpt>
      <trkpt lat="43.0922175664" lon="-4.2099469900">
        <ele>869.65</ele>
        <time>2018-05-19T15:58:05Z</time>
      </trkpt>
      <trkpt lat="43.0922318157" lon="-4.2101084255">
        <ele>867.73</ele>
        <time>2018-05-19T15:58:08Z</time>
      </trkpt>
      <trkpt lat="43.0921406206" lon="-4.2102452181">
        <ele>865.32</ele>
        <time>2018-05-19T15:58:11Z</time>
      </trkpt>
      <trkpt lat="43.0920318235" lon="-4.2102878820">
        <ele>863.88</ele>
        <time>2018-05-19T15:58:13Z</time>
      </trkpt>
      <trkpt lat="43.0919302348" lon="-4.2103166319">
        <ele>861.96</ele>
        <time>2018-05-19T15:58:15Z</time>
      </trkpt>
      <trkpt lat="43.0918179173" lon="-4.2103436217">
        <ele>860.52</ele>
        <time>2018-05-19T15:58:17Z</time>
      </trkpt>
      <trkpt lat="43.0917056836" lon="-4.2103692703">
        <ele>860.04</ele>
        <time>2018-05-19T15:58:19Z</time>
      </trkpt>
      <trkpt lat="43.0915950425" lon="-4.2104093358">
        <ele>858.11</ele>
        <time>2018-05-19T15:58:21Z</time>
      </trkpt>
      <trkpt lat="43.0914885923" lon="-4.2105021235">
        <ele>856.67</ele>
        <time>2018-05-19T15:58:24Z</time>
      </trkpt>
      <trkpt lat="43.0914021749" lon="-4.2105576955">
        <ele>855.71</ele>
        <time>2018-05-19T15:58:26Z</time>
      </trkpt>
      <trkpt lat="43.0913005862" lon="-4.2106014490">
        <ele>854.75</ele>
        <time>2018-05-19T15:58:28Z</time>
      </trkpt>
      <trkpt lat="43.0911653861" lon="-4.2106503155">
        <ele>853.79</ele>
        <time>2018-05-19T15:58:31Z</time>
      </trkpt>
      <trkpt lat="43.0910639651" lon="-4.2106752098">
        <ele>851.87</ele>
        <time>2018-05-19T15:58:33Z</time>
      </trkpt>
      <trkpt lat="43.0909495521" lon="-4.2107142694">
        <ele>850.42</ele>
        <time>2018-05-19T15:58:35Z</time>
      </trkpt>
      <trkpt lat="43.0908173695" lon="-4.2107471265">
        <ele>849.94</ele>
        <time>2018-05-19T15:58:37Z</time>
      </trkpt>
      <trkpt lat="43.0907136016" lon="-4.2107584421">
        <ele>847.54</ele>
        <time>2018-05-19T15:58:39Z</time>
      </trkpt>
      <trkpt lat="43.0905915610" lon="-4.2107898742">
        <ele>846.58</ele>
        <time>2018-05-19T15:58:41Z</time>
      </trkpt>
      <trkpt lat="43.0904720351" lon="-4.2108517326">
        <ele>844.66</ele>
        <time>2018-05-19T15:58:43Z</time>
      </trkpt>
      <trkpt lat="43.0903513357" lon="-4.2109364737">
        <ele>843.69</ele>
        <time>2018-05-19T15:58:45Z</time>
      </trkpt>
      <trkpt lat="43.0902359169" lon="-4.2110193707">
        <ele>842.25</ele>
        <time>2018-05-19T15:58:47Z</time>
      </trkpt>
      <trkpt lat="43.0901407823" lon="-4.2110867612">
        <ele>841.77</ele>
        <time>2018-05-19T15:58:49Z</time>
      </trkpt>
      <trkpt lat="43.0900340807" lon="-4.2111595999">
        <ele>840.81</ele>
        <time>2018-05-19T15:58:51Z</time>
      </trkpt>
      <trkpt lat="43.0899367668" lon="-4.2112473585">
        <ele>840.33</ele>
        <time>2018-05-19T15:58:53Z</time>
      </trkpt>
      <trkpt lat="43.0898483377" lon="-4.2113634478">
        <ele>839.37</ele>
        <time>2018-05-19T15:58:55Z</time>
      </trkpt>
      <trkpt lat="43.0897905864" lon="-4.2114821356">
        <ele>838.41</ele>
        <time>2018-05-19T15:58:57Z</time>
      </trkpt>
      <trkpt lat="43.0897361040" lon="-4.2116191797">
        <ele>837.45</ele>
        <time>2018-05-19T15:58:59Z</time>
      </trkpt>
      <trkpt lat="43.0896725692" lon="-4.2117547989">
        <ele>836.00</ele>
        <time>2018-05-19T15:59:01Z</time>
      </trkpt>
      <trkpt lat="43.0895925220" lon="-4.2118510231">
        <ele>835.04</ele>
        <time>2018-05-19T15:59:03Z</time>
      </trkpt>
      <trkpt lat="43.0894828029" lon="-4.2119034100">
        <ele>833.60</ele>
        <time>2018-05-19T15:59:05Z</time>
      </trkpt>
      <trkpt lat="43.0893748440" lon="-4.2119348422">
        <ele>831.20</ele>
        <time>2018-05-19T15:59:07Z</time>
      </trkpt>
      <trkpt lat="43.0892536417" lon="-4.2119360995">
        <ele>829.27</ele>
        <time>2018-05-19T15:59:09Z</time>
      </trkpt>
      <trkpt lat="43.0891377199" lon="-4.2118999735">
        <ele>829.27</ele>
        <time>2018-05-19T15:59:11Z</time>
      </trkpt>
      <trkpt lat="43.0890239775" lon="-4.2118394561">
        <ele>828.31</ele>
        <time>2018-05-19T15:59:13Z</time>
      </trkpt>
      <trkpt lat="43.0888987519" lon="-4.2117954511">
        <ele>827.35</ele>
        <time>2018-05-19T15:59:15Z</time>
      </trkpt>
      <trkpt lat="43.0887670722" lon="-4.2117735744">
        <ele>826.39</ele>
        <time>2018-05-19T15:59:17Z</time>
      </trkpt>
      <trkpt lat="43.0886369012" lon="-4.2117898352">
        <ele>826.39</ele>
        <time>2018-05-19T15:59:19Z</time>
      </trkpt>
      <trkpt lat="43.0885257572" lon="-4.2117962893">
        <ele>826.39</ele>
        <time>2018-05-19T15:59:21Z</time>
      </trkpt>
      <trkpt lat="43.0884183012" lon="-4.2117597442">
        <ele>829.76</ele>
        <time>2018-05-19T15:59:24Z</time>
      </trkpt>
      <trkpt lat="43.0883253459" lon="-4.2117236182">
        <ele>830.72</ele>
        <time>2018-05-19T15:59:28Z</time>
      </trkpt>
      <trkpt lat="43.0882276967" lon="-4.2117314972">
        <ele>831.20</ele>
        <time>2018-05-19T15:59:33Z</time>
      </trkpt>
      <trkpt lat="43.0881177261" lon="-4.2117564753">
        <ele>832.16</ele>
        <time>2018-05-19T15:59:38Z</time>
      </trkpt>
      <trkpt lat="43.0880194064" lon="-4.2117878236">
        <ele>832.64</ele>
        <time>2018-05-19T15:59:43Z</time>
      </trkpt>
      <trkpt lat="43.0879237689" lon="-4.2118265480">
        <ele>834.08</ele>
        <time>2018-05-19T15:59:48Z</time>
      </trkpt>
      <trkpt lat="43.0878194142" lon="-4.2119021527">
        <ele>834.56</ele>
        <time>2018-05-19T15:59:53Z</time>
      </trkpt>
      <trkpt lat="43.0877340026" lon="-4.2119979579">
        <ele>836.48</ele>
        <time>2018-05-19T15:59:59Z</time>
      </trkpt>
      <trkpt lat="43.0876915902" lon="-4.2120800167">
        <ele>837.45</ele>
        <time>2018-05-19T16:03:04Z</time>
      </trkpt>
      <trkpt lat="43.0876039993" lon="-4.2121381033">
        <ele>838.41</ele>
        <time>2018-05-19T16:03:19Z</time>
      </trkpt>
      <trkpt lat="43.0875269696" lon="-4.2122351658">
        <ele>838.89</ele>
        <time>2018-05-19T16:03:24Z</time>
      </trkpt>
      <trkpt lat="43.0874586571" lon="-4.2123490758">
        <ele>840.33</ele>
        <time>2018-05-19T16:03:29Z</time>
      </trkpt>
      <trkpt lat="43.0873760954" lon="-4.2124686018">
        <ele>840.81</ele>
        <time>2018-05-19T16:03:35Z</time>
      </trkpt>
      <trkpt lat="43.0873051845" lon="-4.2126003653">
        <ele>841.77</ele>
        <time>2018-05-19T16:03:41Z</time>
      </trkpt>
      <trkpt lat="43.0872695614" lon="-4.2127465457">
        <ele>843.21</ele>
        <time>2018-05-19T16:03:47Z</time>
      </trkpt>
      <trkpt lat="43.0872585811" lon="-4.2128924746">
        <ele>844.18</ele>
        <time>2018-05-19T16:03:53Z</time>
      </trkpt>
      <trkpt lat="43.0872034281" lon="-4.2130478751">
        <ele>844.66</ele>
        <time>2018-05-19T16:03:58Z</time>
      </trkpt>
      <trkpt lat="43.0871049408" lon="-4.2131446861">
        <ele>845.14</ele>
        <time>2018-05-19T16:04:03Z</time>
      </trkpt>
      <trkpt lat="43.0869979039" lon="-4.2132289242">
        <ele>845.14</ele>
        <time>2018-05-19T16:04:07Z</time>
      </trkpt>
      <trkpt lat="43.0868756957" lon="-4.2133093067">
        <ele>845.62</ele>
        <time>2018-05-19T16:04:11Z</time>
      </trkpt>
      <trkpt lat="43.0867548287" lon="-4.2133996636">
        <ele>845.62</ele>
        <time>2018-05-19T16:04:14Z</time>
      </trkpt>
      <trkpt lat="43.0866471212" lon="-4.2134608515">
        <ele>843.69</ele>
        <time>2018-05-19T16:04:16Z</time>
      </trkpt>
      <trkpt lat="43.0865540821" lon="-4.2134633660">
        <ele>843.21</ele>
        <time>2018-05-19T16:04:18Z</time>
      </trkpt>
      <trkpt lat="43.0864695925" lon="-4.2134181038">
        <ele>843.21</ele>
        <time>2018-05-19T16:04:20Z</time>
      </trkpt>
      <trkpt lat="43.0863621365" lon="-4.2133476119">
        <ele>843.21</ele>
        <time>2018-05-19T16:04:23Z</time>
      </trkpt>
      <trkpt lat="43.0862608831" lon="-4.2133215442">
        <ele>845.14</ele>
        <time>2018-05-19T16:04:26Z</time>
      </trkpt>
      <trkpt lat="43.0861639045" lon="-4.2133513838">
        <ele>845.14</ele>
        <time>2018-05-19T16:04:29Z</time>
      </trkpt>
      <trkpt lat="43.0860535149" lon="-4.2134162597">
        <ele>846.58</ele>
        <time>2018-05-19T16:04:33Z</time>
      </trkpt>
      <trkpt lat="43.0859592184" lon="-4.2134662997">
        <ele>847.06</ele>
        <time>2018-05-19T16:04:37Z</time>
      </trkpt>
      <trkpt lat="43.0858615693" lon="-4.2134865001">
        <ele>848.02</ele>
        <time>2018-05-19T16:04:41Z</time>
      </trkpt>
      <trkpt lat="43.0857662670" lon="-4.2134598456">
        <ele>848.02</ele>
        <time>2018-05-19T16:04:44Z</time>
      </trkpt>
      <trkpt lat="43.0856464896" lon="-4.2134246416">
        <ele>848.02</ele>
        <time>2018-05-19T16:04:48Z</time>
      </trkpt>
      <trkpt lat="43.0855417158" lon="-4.2133818939">
        <ele>848.02</ele>
        <time>2018-05-19T16:04:51Z</time>
      </trkpt>
      <trkpt lat="43.0854263809" lon="-4.2133452650">
        <ele>848.50</ele>
        <time>2018-05-19T16:04:54Z</time>
      </trkpt>
      <trkpt lat="43.0853385385" lon="-4.2133413255">
        <ele>848.50</ele>
        <time>2018-05-19T16:04:57Z</time>
      </trkpt>
      <trkpt lat="43.0852386262" lon="-4.2133492045">
        <ele>848.98</ele>
        <time>2018-05-19T16:05:00Z</time>
      </trkpt>
      <trkpt lat="43.0850891769" lon="-4.2133705784">
        <ele>847.54</ele>
        <time>2018-05-19T16:05:03Z</time>
      </trkpt>
      <trkpt lat="43.0849684775" lon="-4.2133812234">
        <ele>847.06</ele>
        <time>2018-05-19T16:05:05Z</time>
      </trkpt>
      <trkpt lat="43.0848604348" lon="-4.2133957241">
        <ele>847.06</ele>
        <time>2018-05-19T16:05:07Z</time>
      </trkpt>
      <trkpt lat="43.0847487040" lon="-4.2134326883">
        <ele>846.58</ele>
        <time>2018-05-19T16:05:09Z</time>
      </trkpt>
      <trkpt lat="43.0846505519" lon="-4.2134844046">
        <ele>846.58</ele>
        <time>2018-05-19T16:05:11Z</time>
      </trkpt>
      <trkpt lat="43.0845456943" lon="-4.2135768570">
        <ele>848.02</ele>
        <time>2018-05-19T16:05:14Z</time>
      </trkpt>
      <trkpt lat="43.0844853446" lon="-4.2137148231">
        <ele>848.98</ele>
        <time>2018-05-19T16:05:19Z</time>
      </trkpt>
      <trkpt lat="43.0844559241" lon="-4.2138353549">
        <ele>849.94</ele>
        <time>2018-05-19T16:05:23Z</time>
      </trkpt>
      <trkpt lat="43.0844162777" lon="-4.2139658611">
        <ele>851.38</ele>
        <time>2018-05-19T16:05:28Z</time>
      </trkpt>
      <trkpt lat="43.0843601190" lon="-4.2140905000">
        <ele>852.83</ele>
        <time>2018-05-19T16:05:34Z</time>
      </trkpt>
      <trkpt lat="43.0843189638" lon="-4.2142133787">
        <ele>854.27</ele>
        <time>2018-05-19T16:05:40Z</time>
      </trkpt>
      <trkpt lat="43.0842994340" lon="-4.2143475730">
        <ele>855.71</ele>
        <time>2018-05-19T16:05:46Z</time>
      </trkpt>
      <trkpt lat="43.0843037087" lon="-4.2144748103">
        <ele>857.15</ele>
        <time>2018-05-19T16:05:52Z</time>
      </trkpt>
      <trkpt lat="43.0843267590" lon="-4.2146205716">
        <ele>859.08</ele>
        <time>2018-05-19T16:05:59Z</time>
      </trkpt>
      <trkpt lat="43.0843429361" lon="-4.2147504911">
        <ele>860.04</ele>
        <time>2018-05-19T16:06:05Z</time>
      </trkpt>
      <trkpt lat="43.0843518209" lon="-4.2148882896">
        <ele>861.00</ele>
        <time>2018-05-19T16:06:11Z</time>
      </trkpt>
      <trkpt lat="43.0843521561" lon="-4.2150501441">
        <ele>862.92</ele>
        <time>2018-05-19T16:06:18Z</time>
      </trkpt>
      <trkpt lat="43.0843425170" lon="-4.2152013537">
        <ele>863.88</ele>
        <time>2018-05-19T16:06:26Z</time>
      </trkpt>
      <trkpt lat="43.0843414273" lon="-4.2153440975">
        <ele>864.84</ele>
        <time>2018-05-19T16:06:32Z</time>
      </trkpt>
      <trkpt lat="43.0843311176" lon="-4.2154875118">
        <ele>865.32</ele>
        <time>2018-05-19T16:06:37Z</time>
      </trkpt>
      <trkpt lat="43.0843141861" lon="-4.2156295851">
        <ele>866.77</ele>
        <time>2018-05-19T16:06:42Z</time>
      </trkpt>
      <trkpt lat="43.0843161978" lon="-4.2157733347">
        <ele>867.73</ele>
        <time>2018-05-19T16:06:48Z</time>
      </trkpt>
      <trkpt lat="43.0843487196" lon="-4.2159055173">
        <ele>868.69</ele>
        <time>2018-05-19T16:06:54Z</time>
      </trkpt>
      <trkpt lat="43.0844053812" lon="-4.2160202656">
        <ele>870.61</ele>
        <time>2018-05-19T16:07:00Z</time>
      </trkpt>
      <trkpt lat="43.0844788067" lon="-4.2161256261">
        <ele>872.53</ele>
        <time>2018-05-19T16:07:07Z</time>
      </trkpt>
      <trkpt lat="43.0845503882" lon="-4.2162290588">
        <ele>874.46</ele>
        <time>2018-05-19T16:07:14Z</time>
      </trkpt>
      <trkpt lat="43.0846349616" lon="-4.2163263727">
        <ele>876.38</ele>
        <time>2018-05-19T16:07:22Z</time>
      </trkpt>
      <trkpt lat="43.0847197864" lon="-4.2164263688">
        <ele>878.30</ele>
        <time>2018-05-19T16:07:29Z</time>
      </trkpt>
      <trkpt lat="43.0848023482" lon="-4.2164986208">
        <ele>879.74</ele>
        <time>2018-05-19T16:07:35Z</time>
      </trkpt>
      <trkpt lat="43.0848904420" lon="-4.2165781651">
        <ele>881.19</ele>
        <time>2018-05-19T16:07:42Z</time>
      </trkpt>
      <trkpt lat="43.0849740095" lon="-4.2166717071">
        <ele>882.63</ele>
        <time>2018-05-19T16:07:49Z</time>
      </trkpt>
      <trkpt lat="43.0850579124" lon="-4.2167450488">
        <ele>883.59</ele>
        <time>2018-05-19T16:07:56Z</time>
      </trkpt>
      <trkpt lat="43.0851298291" lon="-4.2168533430">
        <ele>885.03</ele>
        <time>2018-05-19T16:08:03Z</time>
      </trkpt>
      <trkpt lat="43.0851234589" lon="-4.2169841006">
        <ele>885.99</ele>
        <time>2018-05-19T16:08:10Z</time>
      </trkpt>
      <trkpt lat="43.0850542244" lon="-4.2170699313">
        <ele>887.91</ele>
        <time>2018-05-19T16:08:17Z</time>
      </trkpt>
      <trkpt lat="43.0849702377" lon="-4.2171633895">
        <ele>888.40</ele>
        <time>2018-05-19T16:08:24Z</time>
      </trkpt>
      <trkpt lat="43.0848884303" lon="-4.2172250804">
        <ele>889.84</ele>
        <time>2018-05-19T16:08:30Z</time>
      </trkpt>
      <trkpt lat="43.0848072097" lon="-4.2173042893">
        <ele>890.32</ele>
        <time>2018-05-19T16:08:36Z</time>
      </trkpt>
      <trkpt lat="43.0847404897" lon="-4.2174362205">
        <ele>891.76</ele>
        <time>2018-05-19T16:08:44Z</time>
      </trkpt>
      <trkpt lat="43.0846872646" lon="-4.2175634578">
        <ele>893.20</ele>
        <time>2018-05-19T16:08:51Z</time>
      </trkpt>
      <trkpt lat="43.0846371409" lon="-4.2176959757">
        <ele>895.12</ele>
        <time>2018-05-19T16:08:59Z</time>
      </trkpt>
      <trkpt lat="43.0845968239" lon="-4.2178780306">
        <ele>896.57</ele>
        <time>2018-05-19T16:09:07Z</time>
      </trkpt>
      <trkpt lat="43.0845451076" lon="-4.2180167511">
        <ele>898.01</ele>
        <time>2018-05-19T16:09:14Z</time>
      </trkpt>
      <trkpt lat="43.0845214706" lon="-4.2181634344">
        <ele>898.97</ele>
        <time>2018-05-19T16:09:21Z</time>
      </trkpt>
      <trkpt lat="43.0845591053" lon="-4.2183009814">
        <ele>899.93</ele>
        <time>2018-05-19T16:09:28Z</time>
      </trkpt>
      <trkpt lat="43.0846146774" lon="-4.2184277158">
        <ele>900.89</ele>
        <time>2018-05-19T16:09:34Z</time>
      </trkpt>
      <trkpt lat="43.0846984126" lon="-4.2185307294">
        <ele>901.37</ele>
        <time>2018-05-19T16:09:40Z</time>
      </trkpt>
      <trkpt lat="43.0847609416" lon="-4.2186598945">
        <ele>902.82</ele>
        <time>2018-05-19T16:09:47Z</time>
      </trkpt>
      <trkpt lat="43.0848160107" lon="-4.2187829409">
        <ele>903.30</ele>
        <time>2018-05-19T16:09:54Z</time>
      </trkpt>
      <trkpt lat="43.0848663021" lon="-4.2189185601">
        <ele>904.74</ele>
        <time>2018-05-19T16:10:00Z</time>
      </trkpt>
      <trkpt lat="43.0849177670" lon="-4.2190733738">
        <ele>905.22</ele>
        <time>2018-05-19T16:10:07Z</time>
      </trkpt>
      <trkpt lat="43.0849451758" lon="-4.2192258406">
        <ele>906.18</ele>
        <time>2018-05-19T16:10:14Z</time>
      </trkpt>
      <trkpt lat="43.0849818885" lon="-4.2193851806">
        <ele>907.14</ele>
        <time>2018-05-19T16:10:20Z</time>
      </trkpt>
      <trkpt lat="43.0850192718" lon="-4.2195309419">
        <ele>908.10</ele>
        <time>2018-05-19T16:10:26Z</time>
      </trkpt>
      <trkpt lat="43.0850652885" lon="-4.2196772061">
        <ele>909.06</ele>
        <time>2018-05-19T16:10:32Z</time>
      </trkpt>
      <trkpt lat="43.0851075333" lon="-4.2198191956">
        <ele>910.03</ele>
        <time>2018-05-19T16:10:38Z</time>
      </trkpt>
      <trkpt lat="43.0851463415" lon="-4.2199491151">
        <ele>910.99</ele>
        <time>2018-05-19T16:10:44Z</time>
      </trkpt>
      <trkpt lat="43.0851608422" lon="-4.2200797051">
        <ele>911.95</ele>
        <time>2018-05-19T16:10:50Z</time>
      </trkpt>
      <trkpt lat="43.0851921905" lon="-4.2202101275">
        <ele>912.91</ele>
        <time>2018-05-19T16:10:56Z</time>
      </trkpt>
      <trkpt lat="43.0852304120" lon="-4.2203467526">
        <ele>913.87</ele>
        <time>2018-05-19T16:11:02Z</time>
      </trkpt>
      <trkpt lat="43.0852787755" lon="-4.2204729840">
        <ele>914.35</ele>
        <time>2018-05-19T16:11:08Z</time>
      </trkpt>
      <trkpt lat="43.0853501894" lon="-4.2205817811">
        <ele>915.79</ele>
        <time>2018-05-19T16:11:14Z</time>
      </trkpt>
      <trkpt lat="43.0854413006" lon="-4.2206547875">
        <ele>916.75</ele>
        <time>2018-05-19T16:11:20Z</time>
      </trkpt>
      <trkpt lat="43.0855326634" lon="-4.2207160592">
        <ele>918.20</ele>
        <time>2018-05-19T16:11:26Z</time>
      </trkpt>
      <trkpt lat="43.0856149737" lon="-4.2207857966">
        <ele>918.68</ele>
        <time>2018-05-19T16:11:32Z</time>
      </trkpt>
      <trkpt lat="43.0856934283" lon="-4.2208756506">
        <ele>920.12</ele>
        <time>2018-05-19T16:11:39Z</time>
      </trkpt>
      <trkpt lat="43.0857382715" lon="-4.2210090067">
        <ele>921.08</ele>
        <time>2018-05-19T16:11:47Z</time>
      </trkpt>
      <trkpt lat="43.0857749004" lon="-4.2211784050">
        <ele>922.04</ele>
        <time>2018-05-19T16:11:54Z</time>
      </trkpt>
      <trkpt lat="43.0858008843" lon="-4.2213260103">
        <ele>923.00</ele>
        <time>2018-05-19T16:12:00Z</time>
      </trkpt>
      <trkpt lat="43.0858520977" lon="-4.2214514036">
        <ele>923.48</ele>
        <time>2018-05-19T16:12:06Z</time>
      </trkpt>
      <trkpt lat="43.0859208293" lon="-4.2215716001">
        <ele>924.45</ele>
        <time>2018-05-19T16:12:12Z</time>
      </trkpt>
      <trkpt lat="43.0860095099" lon="-4.2216575146">
        <ele>924.93</ele>
        <time>2018-05-19T16:12:18Z</time>
      </trkpt>
      <trkpt lat="43.0861085840" lon="-4.2216244899">
        <ele>925.41</ele>
        <time>2018-05-19T16:12:24Z</time>
      </trkpt>
      <trkpt lat="43.0861851946" lon="-4.2215446103">
        <ele>926.85</ele>
        <time>2018-05-19T16:12:30Z</time>
      </trkpt>
      <trkpt lat="43.0862372462" lon="-4.2214444466">
        <ele>928.29</ele>
        <time>2018-05-19T16:12:36Z</time>
      </trkpt>
      <trkpt lat="43.0862981826" lon="-4.2213569395">
        <ele>929.25</ele>
        <time>2018-05-19T16:12:42Z</time>
      </trkpt>
      <trkpt lat="43.0863605440" lon="-4.2212393414">
        <ele>930.69</ele>
        <time>2018-05-19T16:12:49Z</time>
      </trkpt>
      <trkpt lat="43.0864431057" lon="-4.2211639881">
        <ele>932.14</ele>
        <time>2018-05-19T16:12:55Z</time>
      </trkpt>
      <trkpt lat="43.0865330435" lon="-4.2211478949">
        <ele>933.10</ele>
        <time>2018-05-19T16:13:01Z</time>
      </trkpt>
      <trkpt lat="43.0866404157" lon="-4.2211711966">
        <ele>934.06</ele>
        <time>2018-05-19T16:13:08Z</time>
      </trkpt>
      <trkpt lat="43.0867368076" lon="-4.2212124355">
        <ele>935.50</ele>
        <time>2018-05-19T16:13:15Z</time>
      </trkpt>
      <trkpt lat="43.0868331157" lon="-4.2212717794">
        <ele>936.94</ele>
        <time>2018-05-19T16:13:22Z</time>
      </trkpt>
      <trkpt lat="43.0869131628" lon="-4.2213803250">
        <ele>937.90</ele>
        <time>2018-05-19T16:13:29Z</time>
      </trkpt>
      <trkpt lat="43.0869934615" lon="-4.2214806564">
        <ele>938.86</ele>
        <time>2018-05-19T16:13:35Z</time>
      </trkpt>
      <trkpt lat="43.0870662164" lon="-4.2215817422">
        <ele>939.83</ele>
        <time>2018-05-19T16:13:41Z</time>
      </trkpt>
      <trkpt lat="43.0871367082" lon="-4.2216810677">
        <ele>940.31</ele>
        <time>2018-05-19T16:13:47Z</time>
      </trkpt>
      <trkpt lat="43.0872102175" lon="-4.2217843328">
        <ele>941.75</ele>
        <time>2018-05-19T16:13:54Z</time>
      </trkpt>
      <trkpt lat="43.0872731656" lon="-4.2219160125">
        <ele>942.71</ele>
        <time>2018-05-19T16:14:01Z</time>
      </trkpt>
      <trkpt lat="43.0873455852" lon="-4.2220315151">
        <ele>943.67</ele>
        <time>2018-05-19T16:14:08Z</time>
      </trkpt>
      <trkpt lat="43.0874264706" lon="-4.2221456766">
        <ele>945.59</ele>
        <time>2018-05-19T16:14:15Z</time>
      </trkpt>
      <trkpt lat="43.0874791089" lon="-4.2222552281">
        <ele>946.07</ele>
        <time>2018-05-19T16:14:21Z</time>
      </trkpt>
      <trkpt lat="43.0875195097" lon="-4.2223916017">
        <ele>947.04</ele>
        <time>2018-05-19T16:14:27Z</time>
      </trkpt>
      <trkpt lat="43.0875440687" lon="-4.2225215212">
        <ele>948.00</ele>
        <time>2018-05-19T16:14:32Z</time>
      </trkpt>
      <trkpt lat="43.0875894148" lon="-4.2226547096">
        <ele>948.96</ele>
        <time>2018-05-19T16:14:38Z</time>
      </trkpt>
      <trkpt lat="43.0876559671" lon="-4.2227476649">
        <ele>949.92</ele>
        <time>2018-05-19T16:14:44Z</time>
      </trkpt>
      <trkpt lat="43.0877294764" lon="-4.2228227668">
        <ele>951.36</ele>
        <time>2018-05-19T16:14:50Z</time>
      </trkpt>
      <trkpt lat="43.0877728108" lon="-4.2229645047">
        <ele>952.32</ele>
        <time>2018-05-19T16:14:56Z</time>
      </trkpt>
      <trkpt lat="43.0877148081" lon="-4.2230704520">
        <ele>953.28</ele>
        <time>2018-05-19T16:15:02Z</time>
      </trkpt>
      <trkpt lat="43.0876250379" lon="-4.2230668478">
        <ele>954.73</ele>
        <time>2018-05-19T16:15:08Z</time>
      </trkpt>
      <trkpt lat="43.0875448231" lon="-4.2229919136">
        <ele>955.69</ele>
        <time>2018-05-19T16:15:14Z</time>
      </trkpt>
      <trkpt lat="43.0874534603" lon="-4.2229399458">
        <ele>957.13</ele>
        <time>2018-05-19T16:15:20Z</time>
      </trkpt>
      <trkpt lat="43.0873449985" lon="-4.2229632474">
        <ele>958.09</ele>
        <time>2018-05-19T16:15:26Z</time>
      </trkpt>
      <trkpt lat="43.0872564856" lon="-4.2230500840">
        <ele>958.57</ele>
        <time>2018-05-19T16:15:32Z</time>
      </trkpt>
      <trkpt lat="43.0871904362" lon="-4.2231560312">
        <ele>959.53</ele>
        <time>2018-05-19T16:15:37Z</time>
      </trkpt>
      <trkpt lat="43.0871525500" lon="-4.2232887167">
        <ele>960.01</ele>
        <time>2018-05-19T16:15:43Z</time>
      </trkpt>
      <trkpt lat="43.0871405639" lon="-4.2234082427">
        <ele>960.98</ele>
        <time>2018-05-19T16:15:48Z</time>
      </trkpt>
      <trkpt lat="43.0871412344" lon="-4.2235351447">
        <ele>962.42</ele>
        <time>2018-05-19T16:15:54Z</time>
      </trkpt>
      <trkpt lat="43.0871137418" lon="-4.2236651480">
        <ele>962.90</ele>
        <time>2018-05-19T16:16:00Z</time>
      </trkpt>
      <trkpt lat="43.0870776996" lon="-4.2237824947">
        <ele>963.86</ele>
        <time>2018-05-19T16:16:06Z</time>
      </trkpt>
      <trkpt lat="43.0870285816" lon="-4.2238961533">
        <ele>965.30</ele>
        <time>2018-05-19T16:16:12Z</time>
      </trkpt>
      <trkpt lat="43.0869849958" lon="-4.2240352929">
        <ele>966.26</ele>
        <time>2018-05-19T16:16:19Z</time>
      </trkpt>
      <trkpt lat="43.0869528092" lon="-4.2241723370">
        <ele>967.22</ele>
        <time>2018-05-19T16:16:26Z</time>
      </trkpt>
      <trkpt lat="43.0869362969" lon="-4.2243185174">
        <ele>968.67</ele>
        <time>2018-05-19T16:16:32Z</time>
      </trkpt>
      <trkpt lat="43.0869376380" lon="-4.2244491912">
        <ele>969.15</ele>
        <time>2018-05-19T16:16:38Z</time>
      </trkpt>
      <trkpt lat="43.0869402364" lon="-4.2245991435">
        <ele>970.59</ele>
        <time>2018-05-19T16:16:44Z</time>
      </trkpt>
      <trkpt lat="43.0869412422" lon="-4.2247293983">
        <ele>970.59</ele>
        <time>2018-05-19T16:16:49Z</time>
      </trkpt>
      <trkpt lat="43.0869157612" lon="-4.2248499300">
        <ele>971.55</ele>
        <time>2018-05-19T16:16:54Z</time>
      </trkpt>
      <trkpt lat="43.0868503824" lon="-4.2249324080">
        <ele>972.51</ele>
        <time>2018-05-19T16:16:59Z</time>
      </trkpt>
      <trkpt lat="43.0867535714" lon="-4.2249529436">
        <ele>972.99</ele>
        <time>2018-05-19T16:17:04Z</time>
      </trkpt>
      <trkpt lat="43.0866702553" lon="-4.2249167338">
        <ele>973.47</ele>
        <time>2018-05-19T16:17:09Z</time>
      </trkpt>
      <trkpt lat="43.0865913816" lon="-4.2248348426">
        <ele>974.43</ele>
        <time>2018-05-19T16:17:14Z</time>
      </trkpt>
      <trkpt lat="43.0865182076" lon="-4.2247377802">
        <ele>975.39</ele>
        <time>2018-05-19T16:17:20Z</time>
      </trkpt>
      <trkpt lat="43.0864446145" lon="-4.2246390413">
        <ele>976.36</ele>
        <time>2018-05-19T16:17:26Z</time>
      </trkpt>
      <trkpt lat="43.0863707699" lon="-4.2245516181">
        <ele>977.32</ele>
        <time>2018-05-19T16:17:31Z</time>
      </trkpt>
      <trkpt lat="43.0862783175" lon="-4.2244731635">
        <ele>977.80</ele>
        <time>2018-05-19T16:17:36Z</time>
      </trkpt>
      <trkpt lat="43.0861850269" lon="-4.2244283203">
        <ele>978.28</ele>
        <time>2018-05-19T16:17:41Z</time>
      </trkpt>
      <trkpt lat="43.0860836897" lon="-4.2243813816">
        <ele>978.76</ele>
        <time>2018-05-19T16:17:46Z</time>
      </trkpt>
      <trkpt lat="43.0859873816" lon="-4.2243269831">
        <ele>978.76</ele>
        <time>2018-05-19T16:17:51Z</time>
      </trkpt>
      <trkpt lat="43.0858799256" lon="-4.2242652085">
        <ele>979.24</ele>
        <time>2018-05-19T16:17:56Z</time>
      </trkpt>
      <trkpt lat="43.0857908260" lon="-4.2241912801">
        <ele>980.20</ele>
        <time>2018-05-19T16:18:01Z</time>
      </trkpt>
      <trkpt lat="43.0856967811" lon="-4.2241059523">
        <ele>980.68</ele>
        <time>2018-05-19T16:18:06Z</time>
      </trkpt>
      <trkpt lat="43.0856114533" lon="-4.2240356281">
        <ele>981.16</ele>
        <time>2018-05-19T16:18:11Z</time>
      </trkpt>
      <trkpt lat="43.0855167378" lon="-4.2239596881">
        <ele>981.64</ele>
        <time>2018-05-19T16:18:16Z</time>
      </trkpt>
      <trkpt lat="43.0854330864" lon="-4.2238928005">
        <ele>982.12</ele>
        <time>2018-05-19T16:18:20Z</time>
      </trkpt>
      <trkpt lat="43.0853299052" lon="-4.2238280084">
        <ele>982.12</ele>
        <time>2018-05-19T16:18:25Z</time>
      </trkpt>
      <trkpt lat="43.0852379557" lon="-4.2237990908">
        <ele>983.09</ele>
        <time>2018-05-19T16:18:29Z</time>
      </trkpt>
      <trkpt lat="43.0851265602" lon="-4.2237877753">
        <ele>983.57</ele>
        <time>2018-05-19T16:18:34Z</time>
      </trkpt>
      <trkpt lat="43.0850311741" lon="-4.2238103226">
        <ele>984.05</ele>
        <time>2018-05-19T16:18:38Z</time>
      </trkpt>
      <trkpt lat="43.0849419907" lon="-4.2238845024">
        <ele>984.53</ele>
        <time>2018-05-19T16:18:43Z</time>
      </trkpt>
      <trkpt lat="43.0848515499" lon="-4.2239482049">
        <ele>985.01</ele>
        <time>2018-05-19T16:18:48Z</time>
      </trkpt>
      <trkpt lat="43.0847653840" lon="-4.2240175232">
        <ele>985.97</ele>
        <time>2018-05-19T16:18:53Z</time>
      </trkpt>
      <trkpt lat="43.0846756138" lon="-4.2240870092">
        <ele>985.97</ele>
        <time>2018-05-19T16:18:58Z</time>
      </trkpt>
      <trkpt lat="43.0845770426" lon="-4.2241580877">
        <ele>986.93</ele>
        <time>2018-05-19T16:19:04Z</time>
      </trkpt>
      <trkpt lat="43.0844886974" lon="-4.2242101394">
        <ele>987.41</ele>
        <time>2018-05-19T16:19:09Z</time>
      </trkpt>
      <trkpt lat="43.0843809061" lon="-4.2242673039">
        <ele>987.89</ele>
        <time>2018-05-19T16:19:15Z</time>
      </trkpt>
      <trkpt lat="43.0842884537" lon="-4.2242915276">
        <ele>988.85</ele>
        <time>2018-05-19T16:19:20Z</time>
      </trkpt>
      <trkpt lat="43.0841923133" lon="-4.2243200261">
        <ele>989.81</ele>
        <time>2018-05-19T16:19:25Z</time>
      </trkpt>
      <trkpt lat="43.0840992741" lon="-4.2243739218">
        <ele>990.30</ele>
        <time>2018-05-19T16:19:30Z</time>
      </trkpt>
      <trkpt lat="43.0840156227" lon="-4.2244418152">
        <ele>991.74</ele>
        <time>2018-05-19T16:19:35Z</time>
      </trkpt>
      <trkpt lat="43.0839439575" lon="-4.2245258018">
        <ele>992.70</ele>
        <time>2018-05-19T16:19:40Z</time>
      </trkpt>
      <trkpt lat="43.0838802550" lon="-4.2246169131">
        <ele>992.70</ele>
        <time>2018-05-19T16:19:44Z</time>
      </trkpt>
      <trkpt lat="43.0838284548" lon="-4.2247281410">
        <ele>992.70</ele>
        <time>2018-05-19T16:19:48Z</time>
      </trkpt>
      <trkpt lat="43.0837719608" lon="-4.2248723097">
        <ele>992.70</ele>
        <time>2018-05-19T16:19:52Z</time>
      </trkpt>
      <trkpt lat="43.0837350804" lon="-4.2250147182">
        <ele>992.70</ele>
        <time>2018-05-19T16:19:56Z</time>
      </trkpt>
      <trkpt lat="43.0836995412" lon="-4.2251660954">
        <ele>992.70</ele>
        <time>2018-05-19T16:20:00Z</time>
      </trkpt>
      <trkpt lat="43.0836790055" lon="-4.2253042292">
        <ele>992.70</ele>
        <time>2018-05-19T16:20:04Z</time>
      </trkpt>
      <trkpt lat="43.0836786702" lon="-4.2254362442">
        <ele>993.18</ele>
        <time>2018-05-19T16:20:08Z</time>
      </trkpt>
      <trkpt lat="43.0837083422" lon="-4.2255817540">
        <ele>993.66</ele>
        <time>2018-05-19T16:20:13Z</time>
      </trkpt>
      <trkpt lat="43.0837599747" lon="-4.2256914731">
        <ele>994.14</ele>
        <time>2018-05-19T16:20:18Z</time>
      </trkpt>
      <trkpt lat="43.0838376749" lon="-4.2257849313">
        <ele>995.10</ele>
        <time>2018-05-19T16:20:23Z</time>
      </trkpt>
      <trkpt lat="43.0839267746" lon="-4.2258758750">
        <ele>995.58</ele>
        <time>2018-05-19T16:20:28Z</time>
      </trkpt>
      <trkpt lat="43.0840082467" lon="-4.2259498872">
        <ele>996.06</ele>
        <time>2018-05-19T16:20:33Z</time>
      </trkpt>
      <trkpt lat="43.0841115955" lon="-4.2260073032">
        <ele>997.02</ele>
        <time>2018-05-19T16:20:38Z</time>
      </trkpt>
      <trkpt lat="43.0841968395" lon="-4.2260622885">
        <ele>997.51</ele>
        <time>2018-05-19T16:20:43Z</time>
      </trkpt>
      <trkpt lat="43.0842876993" lon="-4.2261168547">
        <ele>997.99</ele>
        <time>2018-05-19T16:20:48Z</time>
      </trkpt>
      <trkpt lat="43.0843785591" lon="-4.2261545733">
        <ele>998.95</ele>
        <time>2018-05-19T16:20:53Z</time>
      </trkpt>
      <trkpt lat="43.0844912119" lon="-4.2261681519">
        <ele>999.91</ele>
        <time>2018-05-19T16:20:58Z</time>
      </trkpt>
      <trkpt lat="43.0845952313" lon="-4.2261623684">
        <ele>999.91</ele>
        <time>2018-05-19T16:21:03Z</time>
      </trkpt>
      <trkpt lat="43.0846902821" lon="-4.2261605244">
        <ele>999.91</ele>
        <time>2018-05-19T16:21:07Z</time>
      </trkpt>
      <trkpt lat="43.0847807229" lon="-4.2261697445">
        <ele>1000.39</ele>
        <time>2018-05-19T16:21:11Z</time>
      </trkpt>
      <trkpt lat="43.0848765280" lon="-4.2262082174">
        <ele>1000.39</ele>
        <time>2018-05-19T16:21:15Z</time>
      </trkpt>
      <trkpt lat="43.0849562399" lon="-4.2262966465">
        <ele>1000.87</ele>
        <time>2018-05-19T16:21:19Z</time>
      </trkpt>
      <trkpt lat="43.0850170087" lon="-4.2263916135">
        <ele>1000.87</ele>
        <time>2018-05-19T16:21:23Z</time>
      </trkpt>
      <trkpt lat="43.0850750115" lon="-4.2265002429">
        <ele>1001.83</ele>
        <time>2018-05-19T16:21:27Z</time>
      </trkpt>
      <trkpt lat="43.0851485208" lon="-4.2265874986">
        <ele>1002.31</ele>
        <time>2018-05-19T16:21:31Z</time>
      </trkpt>
      <trkpt lat="43.0852309987" lon="-4.2266498599">
        <ele>1002.31</ele>
        <time>2018-05-19T16:21:35Z</time>
      </trkpt>
      <trkpt lat="43.0853167456" lon="-4.2267125566">
        <ele>1002.79</ele>
        <time>2018-05-19T16:21:39Z</time>
      </trkpt>
      <trkpt lat="43.0854001455" lon="-4.2267713137">
        <ele>1002.79</ele>
        <time>2018-05-19T16:21:43Z</time>
      </trkpt>
      <trkpt lat="43.0854880717" lon="-4.2268413026">
        <ele>1003.75</ele>
        <time>2018-05-19T16:21:47Z</time>
      </trkpt>
      <trkpt lat="43.0855757464" lon="-4.2269165721">
        <ele>1004.23</ele>
        <time>2018-05-19T16:21:51Z</time>
      </trkpt>
      <trkpt lat="43.0856671091" lon="-4.2269978765">
        <ele>1005.20</ele>
        <time>2018-05-19T16:21:56Z</time>
      </trkpt>
      <trkpt lat="43.0857539456" lon="-4.2270883173">
        <ele>1005.20</ele>
        <time>2018-05-19T16:22:01Z</time>
      </trkpt>
      <trkpt lat="43.0858272035" lon="-4.2271670233">
        <ele>1006.16</ele>
        <time>2018-05-19T16:22:06Z</time>
      </trkpt>
      <trkpt lat="43.0858927500" lon="-4.2272548657">
        <ele>1007.12</ele>
        <time>2018-05-19T16:22:11Z</time>
      </trkpt>
      <trkpt lat="43.0859477352" lon="-4.2273629084">
        <ele>1008.08</ele>
        <time>2018-05-19T16:22:16Z</time>
      </trkpt>
      <trkpt lat="43.0859919917" lon="-4.2274706159">
        <ele>1009.04</ele>
        <time>2018-05-19T16:22:21Z</time>
      </trkpt>
      <trkpt lat="43.0860452168" lon="-4.2275893874">
        <ele>1010.00</ele>
        <time>2018-05-19T16:22:27Z</time>
      </trkpt>
      <trkpt lat="43.0860932451" lon="-4.2277226597">
        <ele>1011.44</ele>
        <time>2018-05-19T16:22:33Z</time>
      </trkpt>
      <trkpt lat="43.0861520860" lon="-4.2278411798">
        <ele>1011.93</ele>
        <time>2018-05-19T16:22:39Z</time>
      </trkpt>
      <trkpt lat="43.0862443708" lon="-4.2279023677">
        <ele>1013.37</ele>
        <time>2018-05-19T16:22:45Z</time>
      </trkpt>
      <trkpt lat="43.0863254238" lon="-4.2278574407">
        <ele>1013.85</ele>
        <time>2018-05-19T16:22:50Z</time>
      </trkpt>
      <trkpt lat="43.0863991007" lon="-4.2277715262">
        <ele>1014.81</ele>
        <time>2018-05-19T16:22:55Z</time>
      </trkpt>
      <trkpt lat="43.0864836741" lon="-4.2276847735">
        <ele>1015.29</ele>
        <time>2018-05-19T16:23:01Z</time>
      </trkpt>
      <trkpt lat="43.0865691695" lon="-4.2276434507">
        <ele>1016.25</ele>
        <time>2018-05-19T16:23:06Z</time>
      </trkpt>
      <trkpt lat="43.0866713449" lon="-4.2276499886">
        <ele>1017.21</ele>
        <time>2018-05-19T16:23:12Z</time>
      </trkpt>
      <trkpt lat="43.0867554992" lon="-4.2276977655">
        <ele>1017.69</ele>
        <time>2018-05-19T16:23:17Z</time>
      </trkpt>
      <trkpt lat="43.0868384801" lon="-4.2277824227">
        <ele>1017.69</ele>
        <time>2018-05-19T16:23:22Z</time>
      </trkpt>
      <trkpt lat="43.0869207904" lon="-4.2278422695">
        <ele>1017.69</ele>
        <time>2018-05-19T16:23:26Z</time>
      </trkpt>
      <trkpt lat="43.0870233011" lon="-4.2278685048">
        <ele>1018.65</ele>
        <time>2018-05-19T16:23:31Z</time>
      </trkpt>
      <trkpt lat="43.0871309247" lon="-4.2278580274">
        <ele>1019.13</ele>
        <time>2018-05-19T16:23:36Z</time>
      </trkpt>
      <trkpt lat="43.0872217007" lon="-4.2278436944">
        <ele>1020.10</ele>
        <time>2018-05-19T16:23:41Z</time>
      </trkpt>
      <trkpt lat="43.0873226188" lon="-4.2278281040">
        <ele>1021.06</ele>
        <time>2018-05-19T16:23:46Z</time>
      </trkpt>
      <trkpt lat="43.0874269735" lon="-4.2277941573">
        <ele>1021.54</ele>
        <time>2018-05-19T16:23:52Z</time>
      </trkpt>
      <trkpt lat="43.0875247903" lon="-4.2277523316">
        <ele>1022.98</ele>
        <time>2018-05-19T16:23:58Z</time>
      </trkpt>
      <trkpt lat="43.0876192544" lon="-4.2277675029">
        <ele>1023.94</ele>
        <time>2018-05-19T16:24:04Z</time>
      </trkpt>
      <trkpt lat="43.0876551289" lon="-4.2278832570">
        <ele>1023.94</ele>
        <time>2018-05-19T16:24:14Z</time>
      </trkpt>
      <trkpt lat="43.0876820348" lon="-4.2279779725">
        <ele>1024.42</ele>
        <time>2018-05-19T16:24:22Z</time>
      </trkpt>
      <trkpt lat="43.0876946077" lon="-4.2280258331">
        <ele>1024.90</ele>
        <time>2018-05-19T16:49:39Z</time>
      </trkpt>
      <trkpt lat="43.0877130479" lon="-4.2280372325">
        <ele>1024.90</ele>
        <time>2018-05-19T16:50:02Z</time>
      </trkpt>
      <trkpt lat="43.0876439810" lon="-4.2281144299">
        <ele>1024.90</ele>
        <time>2018-05-19T16:50:10Z</time>
      </trkpt>
      <trkpt lat="43.0875712261" lon="-4.2281801440">
        <ele>1025.86</ele>
        <time>2018-05-19T16:50:26Z</time>
      </trkpt>
      <trkpt lat="43.0874962080" lon="-4.2282825708">
        <ele>1025.86</ele>
        <time>2018-05-19T16:50:32Z</time>
      </trkpt>
      <trkpt lat="43.0874270573" lon="-4.2283664737">
        <ele>1026.83</ele>
        <time>2018-05-19T16:50:37Z</time>
      </trkpt>
      <trkpt lat="43.0873724911" lon="-4.2284871731">
        <ele>1027.79</ele>
        <time>2018-05-19T16:50:43Z</time>
      </trkpt>
      <trkpt lat="43.0873324256" lon="-4.2286203615">
        <ele>1028.27</ele>
        <time>2018-05-19T16:50:49Z</time>
      </trkpt>
      <trkpt lat="43.0873154104" lon="-4.2287481017">
        <ele>1029.23</ele>
        <time>2018-05-19T16:50:55Z</time>
      </trkpt>
      <trkpt lat="43.0873018317" lon="-4.2288910970">
        <ele>1030.19</ele>
        <time>2018-05-19T16:51:01Z</time>
      </trkpt>
      <trkpt lat="43.0872945394" lon="-4.2290236149">
        <ele>1031.15</ele>
        <time>2018-05-19T16:51:07Z</time>
      </trkpt>
      <trkpt lat="43.0872849841" lon="-4.2291575577">
        <ele>1031.63</ele>
        <time>2018-05-19T16:51:13Z</time>
      </trkpt>
      <trkpt lat="43.0872722436" lon="-4.2292837892">
        <ele>1032.59</ele>
        <time>2018-05-19T16:51:19Z</time>
      </trkpt>
      <trkpt lat="43.0872514565" lon="-4.2294086795">
        <ele>1033.55</ele>
        <time>2018-05-19T16:51:25Z</time>
      </trkpt>
      <trkpt lat="43.0872242991" lon="-4.2295411136">
        <ele>1034.04</ele>
        <time>2018-05-19T16:51:31Z</time>
      </trkpt>
      <trkpt lat="43.0872041825" lon="-4.2296673451">
        <ele>1035.00</ele>
        <time>2018-05-19T16:51:37Z</time>
      </trkpt>
      <trkpt lat="43.0871880893" lon="-4.2298052274">
        <ele>1035.96</ele>
        <time>2018-05-19T16:51:43Z</time>
      </trkpt>
      <trkpt lat="43.0871829763" lon="-4.2299312074">
        <ele>1035.96</ele>
        <time>2018-05-19T16:51:48Z</time>
      </trkpt>
      <trkpt lat="43.0871864967" lon="-4.2300711013">
        <ele>1036.44</ele>
        <time>2018-05-19T16:51:53Z</time>
      </trkpt>
      <trkpt lat="43.0872158334" lon="-4.2301872745">
        <ele>1036.92</ele>
        <time>2018-05-19T16:51:58Z</time>
      </trkpt>
      <trkpt lat="43.0872706510" lon="-4.2303001788">
        <ele>1037.40</ele>
        <time>2018-05-19T16:52:03Z</time>
      </trkpt>
      <trkpt lat="43.0873328447" lon="-4.2304035276">
        <ele>1037.88</ele>
        <time>2018-05-19T16:52:08Z</time>
      </trkpt>
      <trkpt lat="43.0873879138" lon="-4.2305307649">
        <ele>1038.36</ele>
        <time>2018-05-19T16:52:13Z</time>
      </trkpt>
      <trkpt lat="43.0874247942" lon="-4.2306687310">
        <ele>1038.84</ele>
        <time>2018-05-19T16:52:18Z</time>
      </trkpt>
      <trkpt lat="43.0874234531" lon="-4.2307985667">
        <ele>1039.80</ele>
        <time>2018-05-19T16:52:23Z</time>
      </trkpt>
      <trkpt lat="43.0874133948" lon="-4.2309351079">
        <ele>1041.25</ele>
        <time>2018-05-19T16:52:29Z</time>
      </trkpt>
      <trkpt lat="43.0874019954" lon="-4.2310626805">
        <ele>1041.25</ele>
        <time>2018-05-19T16:52:34Z</time>
      </trkpt>
      <trkpt lat="43.0873982236" lon="-4.2311935220">
        <ele>1042.21</ele>
        <time>2018-05-19T16:52:40Z</time>
      </trkpt>
      <trkpt lat="43.0873971339" lon="-4.2313242797">
        <ele>1043.17</ele>
        <time>2018-05-19T16:52:46Z</time>
      </trkpt>
      <trkpt lat="43.0873957090" lon="-4.2314562108">
        <ele>1044.13</ele>
        <time>2018-05-19T16:52:52Z</time>
      </trkpt>
      <trkpt lat="43.0873938650" lon="-4.2315907404">
        <ele>1045.09</ele>
        <time>2018-05-19T16:52:58Z</time>
      </trkpt>
      <trkpt lat="43.0873998161" lon="-4.2317294609">
        <ele>1045.57</ele>
        <time>2018-05-19T16:53:04Z</time>
      </trkpt>
      <trkpt lat="43.0874149036" lon="-4.2318551056">
        <ele>1046.53</ele>
        <time>2018-05-19T16:53:10Z</time>
      </trkpt>
      <trkpt lat="43.0874460004" lon="-4.2319759727">
        <ele>1047.49</ele>
        <time>2018-05-19T16:53:16Z</time>
      </trkpt>
      <trkpt lat="43.0874952860" lon="-4.2320772260">
        <ele>1047.97</ele>
        <time>2018-05-19T16:53:22Z</time>
      </trkpt>
      <trkpt lat="43.0875622574" lon="-4.2321606260">
        <ele>1048.94</ele>
        <time>2018-05-19T16:53:28Z</time>
      </trkpt>
      <trkpt lat="43.0876548775" lon="-4.2322150245">
        <ele>1049.42</ele>
        <time>2018-05-19T16:53:34Z</time>
      </trkpt>
      <trkpt lat="43.0877496768" lon="-4.2322314531">
        <ele>1049.90</ele>
        <time>2018-05-19T16:53:40Z</time>
      </trkpt>
      <trkpt lat="43.0878429674" lon="-4.2322224844">
        <ele>1051.34</ele>
        <time>2018-05-19T16:53:46Z</time>
      </trkpt>
      <trkpt lat="43.0879385211" lon="-4.2322015297">
        <ele>1051.82</ele>
        <time>2018-05-19T16:53:52Z</time>
      </trkpt>
      <trkpt lat="43.0880323984" lon="-4.2321947403">
        <ele>1052.78</ele>
        <time>2018-05-19T16:53:58Z</time>
      </trkpt>
      <trkpt lat="43.0881320592" lon="-4.2322315369">
        <ele>1053.26</ele>
        <time>2018-05-19T16:54:04Z</time>
      </trkpt>
      <trkpt lat="43.0881995335" lon="-4.2323203012">
        <ele>1054.22</ele>
        <time>2018-05-19T16:54:10Z</time>
      </trkpt>
      <trkpt lat="43.0882485677" lon="-4.2324449401">
        <ele>1054.70</ele>
        <time>2018-05-19T16:54:16Z</time>
      </trkpt>
      <trkpt lat="43.0882723723" lon="-4.2325826548">
        <ele>1055.18</ele>
        <time>2018-05-19T16:54:22Z</time>
      </trkpt>
      <trkpt lat="43.0882926565" lon="-4.2327175196">
        <ele>1056.15</ele>
        <time>2018-05-19T16:54:28Z</time>
      </trkpt>
      <trkpt lat="43.0883136112" lon="-4.2328487802">
        <ele>1057.11</ele>
        <time>2018-05-19T16:54:34Z</time>
      </trkpt>
      <trkpt lat="43.0883353204" lon="-4.2329797056">
        <ele>1058.07</ele>
        <time>2018-05-19T16:54:40Z</time>
      </trkpt>
      <trkpt lat="43.0883683451" lon="-4.2331106309">
        <ele>1058.55</ele>
        <time>2018-05-19T16:54:46Z</time>
      </trkpt>
      <trkpt lat="43.0884006154" lon="-4.2332400475">
        <ele>1059.03</ele>
        <time>2018-05-19T16:54:52Z</time>
      </trkpt>
      <trkpt lat="43.0884434469" lon="-4.2333719786">
        <ele>1059.51</ele>
        <time>2018-05-19T16:54:58Z</time>
      </trkpt>
      <trkpt lat="43.0884737894" lon="-4.2334891576">
        <ele>1060.47</ele>
        <time>2018-05-19T16:55:03Z</time>
      </trkpt>
      <trkpt lat="43.0885146093" lon="-4.2336098570">
        <ele>1061.43</ele>
        <time>2018-05-19T16:55:09Z</time>
      </trkpt>
      <trkpt lat="43.0885496456" lon="-4.2337345798">
        <ele>1061.91</ele>
        <time>2018-05-19T16:55:15Z</time>
      </trkpt>
      <trkpt lat="43.0885799043" lon="-4.2338721268">
        <ele>1062.87</ele>
        <time>2018-05-19T16:55:21Z</time>
      </trkpt>
      <trkpt lat="43.0886172038" lon="-4.2339867074">
        <ele>1063.36</ele>
        <time>2018-05-19T16:55:26Z</time>
      </trkpt>
      <trkpt lat="43.0887075607" lon="-4.2340121884">
        <ele>1063.84</ele>
        <time>2018-05-19T16:55:31Z</time>
      </trkpt>
      <trkpt lat="43.0887854286" lon="-4.2339386791">
        <ele>1063.84</ele>
        <time>2018-05-19T16:55:34Z</time>
      </trkpt>
      <trkpt lat="43.0888891965" lon="-4.2338913213">
        <ele>1063.84</ele>
        <time>2018-05-19T16:55:37Z</time>
      </trkpt>
      <trkpt lat="43.0889938027" lon="-4.2338986136">
        <ele>1063.84</ele>
        <time>2018-05-19T16:55:40Z</time>
      </trkpt>
      <trkpt lat="43.0890766159" lon="-4.2339359131">
        <ele>1063.84</ele>
        <time>2018-05-19T16:55:43Z</time>
      </trkpt>
      <trkpt lat="43.0891726725" lon="-4.2340159602">
        <ele>1064.32</ele>
        <time>2018-05-19T16:55:47Z</time>
      </trkpt>
      <trkpt lat="43.0892604310" lon="-4.2340976838">
        <ele>1064.80</ele>
        <time>2018-05-19T16:55:51Z</time>
      </trkpt>
      <trkpt lat="43.0893558171" lon="-4.2341788206">
        <ele>1065.76</ele>
        <time>2018-05-19T16:55:56Z</time>
      </trkpt>
      <trkpt lat="43.0894387979" lon="-4.2342563532">
        <ele>1066.24</ele>
        <time>2018-05-19T16:56:00Z</time>
      </trkpt>
      <trkpt lat="43.0895248801" lon="-4.2343529966">
        <ele>1066.72</ele>
        <time>2018-05-19T16:56:05Z</time>
      </trkpt>
      <trkpt lat="43.0895952880" lon="-4.2344614584">
        <ele>1067.68</ele>
        <time>2018-05-19T16:56:10Z</time>
      </trkpt>
      <trkpt lat="43.0896644387" lon="-4.2345679086">
        <ele>1068.16</ele>
        <time>2018-05-19T16:56:15Z</time>
      </trkpt>
      <trkpt lat="43.0897367746" lon="-4.2346792202">
        <ele>1069.12</ele>
        <time>2018-05-19T16:56:20Z</time>
      </trkpt>
      <trkpt lat="43.0898142233" lon="-4.2347823177">
        <ele>1069.60</ele>
        <time>2018-05-19T16:56:25Z</time>
      </trkpt>
      <trkpt lat="43.0899127107" lon="-4.2348652985">
        <ele>1070.08</ele>
        <time>2018-05-19T16:56:30Z</time>
      </trkpt>
      <trkpt lat="43.0900084320" lon="-4.2349424958">
        <ele>1070.57</ele>
        <time>2018-05-19T16:56:35Z</time>
      </trkpt>
      <trkpt lat="43.0901064165" lon="-4.2350032646">
        <ele>1071.05</ele>
        <time>2018-05-19T16:56:40Z</time>
      </trkpt>
      <trkpt lat="43.0902011320" lon="-4.2350694817">
        <ele>1071.05</ele>
        <time>2018-05-19T16:56:45Z</time>
      </trkpt>
      <trkpt lat="43.0902945902" lon="-4.2351431586">
        <ele>1072.01</ele>
        <time>2018-05-19T16:56:50Z</time>
      </trkpt>
      <trkpt lat="43.0903892219" lon="-4.2352185957">
        <ele>1073.45</ele>
        <time>2018-05-19T16:56:55Z</time>
      </trkpt>
      <trkpt lat="43.0904783215" lon="-4.2352964636">
        <ele>1073.45</ele>
        <time>2018-05-19T16:57:00Z</time>
      </trkpt>
      <trkpt lat="43.0905768927" lon="-4.2353641056">
        <ele>1073.93</ele>
        <time>2018-05-19T16:57:05Z</time>
      </trkpt>
      <trkpt lat="43.0906829238" lon="-4.2354146484">
        <ele>1074.41</ele>
        <time>2018-05-19T16:57:10Z</time>
      </trkpt>
      <trkpt lat="43.0907851830" lon="-4.2354643531">
        <ele>1075.37</ele>
        <time>2018-05-19T16:57:15Z</time>
      </trkpt>
      <trkpt lat="43.0908877775" lon="-4.2355039157">
        <ele>1075.37</ele>
        <time>2018-05-19T16:57:20Z</time>
      </trkpt>
      <trkpt lat="43.0909895338" lon="-4.2355309054">
        <ele>1075.85</ele>
        <time>2018-05-19T16:57:26Z</time>
      </trkpt>
      <trkpt lat="43.0910682399" lon="-4.2355672829">
        <ele>1076.33</ele>
        <time>2018-05-19T16:58:00Z</time>
      </trkpt>
      <trkpt lat="43.0911753606" lon="-4.2355965357">
        <ele>1076.33</ele>
        <time>2018-05-19T16:58:05Z</time>
      </trkpt>
      <trkpt lat="43.0912704114" lon="-4.2356307339">
        <ele>1076.81</ele>
        <time>2018-05-19T16:58:09Z</time>
      </trkpt>
      <trkpt lat="43.0913709104" lon="-4.2356588133">
        <ele>1077.29</ele>
        <time>2018-05-19T16:58:13Z</time>
      </trkpt>
      <trkpt lat="43.0914707389" lon="-4.2356968671">
        <ele>1077.29</ele>
        <time>2018-05-19T16:58:17Z</time>
      </trkpt>
      <trkpt lat="43.0915859062" lon="-4.2357367650">
        <ele>1077.78</ele>
        <time>2018-05-19T16:58:21Z</time>
      </trkpt>
      <trkpt lat="43.0916818790" lon="-4.2357713822">
        <ele>1078.74</ele>
        <time>2018-05-19T16:58:25Z</time>
      </trkpt>
      <trkpt lat="43.0917873234" lon="-4.2358044069">
        <ele>1078.74</ele>
        <time>2018-05-19T16:58:29Z</time>
      </trkpt>
      <trkpt lat="43.0918848049" lon="-4.2358339112">
        <ele>1078.74</ele>
        <time>2018-05-19T16:58:33Z</time>
      </trkpt>
      <trkpt lat="43.0919850525" lon="-4.2358599789">
        <ele>1079.22</ele>
        <time>2018-05-19T16:58:37Z</time>
      </trkpt>
      <trkpt lat="43.0920821149" lon="-4.2358902376">
        <ele>1079.70</ele>
        <time>2018-05-19T16:58:41Z</time>
      </trkpt>
      <trkpt lat="43.0921776686" lon="-4.2359104380">
        <ele>1079.70</ele>
        <time>2018-05-19T16:58:45Z</time>
      </trkpt>
      <trkpt lat="43.0922737252" lon="-4.2359347455">
        <ele>1080.18</ele>
        <time>2018-05-19T16:58:49Z</time>
      </trkpt>
      <trkpt lat="43.0923702847" lon="-4.2359633278">
        <ele>1080.18</ele>
        <time>2018-05-19T16:58:53Z</time>
      </trkpt>
      <trkpt lat="43.0924686883" lon="-4.2360032257">
        <ele>1080.66</ele>
        <time>2018-05-19T16:58:57Z</time>
      </trkpt>
      <trkpt lat="43.0925781559" lon="-4.2360471468">
        <ele>1081.62</ele>
        <time>2018-05-19T16:59:02Z</time>
      </trkpt>
      <trkpt lat="43.0926705245" lon="-4.2360949237">
        <ele>1082.10</ele>
        <time>2018-05-19T16:59:06Z</time>
      </trkpt>
      <trkpt lat="43.0927587859" lon="-4.2361354921">
        <ele>1082.58</ele>
        <time>2018-05-19T16:59:10Z</time>
      </trkpt>
      <trkpt lat="43.0928550940" lon="-4.2361727078">
        <ele>1083.06</ele>
        <time>2018-05-19T16:59:14Z</time>
      </trkpt>
      <trkpt lat="43.0929480493" lon="-4.2362047266">
        <ele>1083.54</ele>
        <time>2018-05-19T16:59:18Z</time>
      </trkpt>
      <trkpt lat="43.0930476263" lon="-4.2362276930">
        <ele>1084.02</ele>
        <time>2018-05-19T16:59:22Z</time>
      </trkpt>
      <trkpt lat="43.0931432638" lon="-4.2362403497">
        <ele>1084.50</ele>
        <time>2018-05-19T16:59:26Z</time>
      </trkpt>
      <trkpt lat="43.0932389852" lon="-4.2362431996">
        <ele>1084.50</ele>
        <time>2018-05-19T16:59:30Z</time>
      </trkpt>
      <trkpt lat="43.0933430884" lon="-4.2362307943">
        <ele>1084.99</ele>
        <time>2018-05-19T16:59:34Z</time>
      </trkpt>
      <trkpt lat="43.0934336130" lon="-4.2362068221">
        <ele>1084.99</ele>
        <time>2018-05-19T16:59:38Z</time>
      </trkpt>
      <trkpt lat="43.0935293343" lon="-4.2361731268">
        <ele>1085.47</ele>
        <time>2018-05-19T16:59:42Z</time>
      </trkpt>
      <trkpt lat="43.0936192721" lon="-4.2361460533">
        <ele>1085.95</ele>
        <time>2018-05-19T16:59:46Z</time>
      </trkpt>
      <trkpt lat="43.0937126465" lon="-4.2360963486">
        <ele>1086.43</ele>
        <time>2018-05-19T16:59:50Z</time>
      </trkpt>
      <trkpt lat="43.0938118882" lon="-4.2360368371">
        <ele>1086.91</ele>
        <time>2018-05-19T16:59:54Z</time>
      </trkpt>
      <trkpt lat="43.0939092021" lon="-4.2359687760">
        <ele>1086.91</ele>
        <time>2018-05-19T16:59:58Z</time>
      </trkpt>
      <trkpt lat="43.0940160714" lon="-4.2359023076">
        <ele>1087.39</ele>
        <time>2018-05-19T17:00:02Z</time>
      </trkpt>
      <trkpt lat="43.0941178277" lon="-4.2358568776">
        <ele>1087.87</ele>
        <time>2018-05-19T17:00:06Z</time>
      </trkpt>
      <trkpt lat="43.0942346714" lon="-4.2358064186">
        <ele>1087.87</ele>
        <time>2018-05-19T17:00:10Z</time>
      </trkpt>
      <trkpt lat="43.0943464022" lon="-4.2357608210">
        <ele>1087.87</ele>
        <time>2018-05-19T17:00:14Z</time>
      </trkpt>
      <trkpt lat="43.0944549479" lon="-4.2357209232">
        <ele>1088.35</ele>
        <time>2018-05-19T17:00:18Z</time>
      </trkpt>
      <trkpt lat="43.0945568718" lon="-4.2356823664">
        <ele>1088.35</ele>
        <time>2018-05-19T17:00:22Z</time>
      </trkpt>
      <trkpt lat="43.0946556944" lon="-4.2356305663">
        <ele>1088.83</ele>
        <time>2018-05-19T17:00:26Z</time>
      </trkpt>
      <trkpt lat="43.0947521701" lon="-4.2355753295">
        <ele>1089.31</ele>
        <time>2018-05-19T17:00:30Z</time>
      </trkpt>
      <trkpt lat="43.0948375817" lon="-4.2355304025">
        <ele>1090.27</ele>
        <time>2018-05-19T17:00:34Z</time>
      </trkpt>
      <trkpt lat="43.0949192215" lon="-4.2354711425">
        <ele>1090.75</ele>
        <time>2018-05-19T17:00:38Z</time>
      </trkpt>
      <trkpt lat="43.0950043816" lon="-4.2354144808">
        <ele>1091.71</ele>
        <time>2018-05-19T17:00:42Z</time>
      </trkpt>
      <trkpt lat="43.0950902961" lon="-4.2353632674">
        <ele>1091.71</ele>
        <time>2018-05-19T17:00:46Z</time>
      </trkpt>
      <trkpt lat="43.0951774679" lon="-4.2353071086">
        <ele>1092.68</ele>
        <time>2018-05-19T17:00:50Z</time>
      </trkpt>
      <trkpt lat="43.0952741951" lon="-4.2352524586">
        <ele>1093.16</ele>
        <time>2018-05-19T17:00:55Z</time>
      </trkpt>
      <trkpt lat="43.0953751132" lon="-4.2351900972">
        <ele>1094.12</ele>
        <time>2018-05-19T17:01:00Z</time>
      </trkpt>
      <trkpt lat="43.0954708345" lon="-4.2351206951">
        <ele>1095.08</ele>
        <time>2018-05-19T17:01:05Z</time>
      </trkpt>
      <trkpt lat="43.0955711659" lon="-4.2350578308">
        <ele>1096.04</ele>
        <time>2018-05-19T17:01:10Z</time>
      </trkpt>
      <trkpt lat="43.0956590082" lon="-4.2349820584">
        <ele>1097.00</ele>
        <time>2018-05-19T17:01:15Z</time>
      </trkpt>
      <trkpt lat="43.0957559031" lon="-4.2348980717">
        <ele>1097.48</ele>
        <time>2018-05-19T17:01:20Z</time>
      </trkpt>
      <trkpt lat="43.0958382972" lon="-4.2348133307">
        <ele>1098.44</ele>
        <time>2018-05-19T17:01:25Z</time>
      </trkpt>
      <trkpt lat="43.0959272292" lon="-4.2347257398">
        <ele>1098.92</ele>
        <time>2018-05-19T17:01:30Z</time>
      </trkpt>
      <trkpt lat="43.0960086174" lon="-4.2346508894">
        <ele>1099.40</ele>
        <time>2018-05-19T17:01:35Z</time>
      </trkpt>
      <trkpt lat="43.0960931908" lon="-4.2345809005">
        <ele>1100.85</ele>
        <time>2018-05-19T17:01:40Z</time>
      </trkpt>
      <trkpt lat="43.0961665325" lon="-4.2345054634">
        <ele>1101.33</ele>
        <time>2018-05-19T17:01:45Z</time>
      </trkpt>
      <trkpt lat="43.0962411314" lon="-4.2344253324">
        <ele>1102.29</ele>
        <time>2018-05-19T17:01:50Z</time>
      </trkpt>
      <trkpt lat="43.0963078514" lon="-4.2343298625">
        <ele>1103.73</ele>
        <time>2018-05-19T17:01:55Z</time>
      </trkpt>
      <trkpt lat="43.0963704642" lon="-4.2342206463">
        <ele>1104.21</ele>
        <time>2018-05-19T17:02:00Z</time>
      </trkpt>
      <trkpt lat="43.0964508466" lon="-4.2341177166">
        <ele>1104.69</ele>
        <time>2018-05-19T17:02:05Z</time>
      </trkpt>
      <trkpt lat="43.0965355039" lon="-4.2340354063">
        <ele>1105.65</ele>
        <time>2018-05-19T17:02:10Z</time>
      </trkpt>
      <trkpt lat="43.0966106895" lon="-4.2339478992">
        <ele>1106.13</ele>
        <time>2018-05-19T17:02:15Z</time>
      </trkpt>
      <trkpt lat="43.0966890603" lon="-4.2338515911">
        <ele>1106.61</ele>
        <time>2018-05-19T17:02:20Z</time>
      </trkpt>
      <trkpt lat="43.0967626534" lon="-4.2337555345">
        <ele>1107.58</ele>
        <time>2018-05-19T17:02:25Z</time>
      </trkpt>
      <trkpt lat="43.0968333967" lon="-4.2336655129">
        <ele>1108.06</ele>
        <time>2018-05-19T17:02:30Z</time>
      </trkpt>
      <trkpt lat="43.0969048943" lon="-4.2335646786">
        <ele>1109.02</ele>
        <time>2018-05-19T17:02:35Z</time>
      </trkpt>
      <trkpt lat="43.0969666690" lon="-4.2334673647">
        <ele>1109.98</ele>
        <time>2018-05-19T17:02:40Z</time>
      </trkpt>
      <trkpt lat="43.0970174633" lon="-4.2333525326">
        <ele>1110.46</ele>
        <time>2018-05-19T17:02:45Z</time>
      </trkpt>
      <trkpt lat="43.0970727000" lon="-4.2332288157">
        <ele>1111.42</ele>
        <time>2018-05-19T17:02:51Z</time>
      </trkpt>
      <trkpt lat="43.0971169565" lon="-4.2331075296">
        <ele>1112.38</ele>
        <time>2018-05-19T17:02:56Z</time>
      </trkpt>
      <trkpt lat="43.0971605424" lon="-4.2329947930">
        <ele>1112.86</ele>
        <time>2018-05-19T17:03:01Z</time>
      </trkpt>
      <trkpt lat="43.0972073972" lon="-4.2328820564">
        <ele>1113.82</ele>
        <time>2018-05-19T17:03:06Z</time>
      </trkpt>
      <trkpt lat="43.0972607899" lon="-4.2327794619">
        <ele>1114.79</ele>
        <time>2018-05-19T17:03:12Z</time>
      </trkpt>
      <trkpt lat="43.0973285157" lon="-4.2326805554">
        <ele>1115.75</ele>
        <time>2018-05-19T17:03:18Z</time>
      </trkpt>
      <trkpt lat="43.0974157713" lon="-4.2325943895">
        <ele>1116.23</ele>
        <time>2018-05-19T17:03:24Z</time>
      </trkpt>
      <trkpt lat="43.0974845868" lon="-4.2325113248">
        <ele>1117.19</ele>
        <time>2018-05-19T17:03:29Z</time>
      </trkpt>
      <trkpt lat="43.0975507200" lon="-4.2324186210">
        <ele>1118.15</ele>
        <time>2018-05-19T17:03:34Z</time>
      </trkpt>
      <trkpt lat="43.0976088066" lon="-4.2323194630">
        <ele>1118.63</ele>
        <time>2018-05-19T17:03:39Z</time>
      </trkpt>
      <trkpt lat="43.0976687372" lon="-4.2322037090">
        <ele>1119.59</ele>
        <time>2018-05-19T17:03:44Z</time>
      </trkpt>
      <trkpt lat="43.0977149215" lon="-4.2320911400">
        <ele>1120.07</ele>
        <time>2018-05-19T17:03:49Z</time>
      </trkpt>
      <trkpt lat="43.0977585912" lon="-4.2319688480">
        <ele>1120.55</ele>
        <time>2018-05-19T17:03:54Z</time>
      </trkpt>
      <trkpt lat="43.0977957230" lon="-4.2318545189">
        <ele>1121.52</ele>
        <time>2018-05-19T17:03:59Z</time>
      </trkpt>
      <trkpt lat="43.0978299212" lon="-4.2317288741">
        <ele>1122.00</ele>
        <time>2018-05-19T17:04:04Z</time>
      </trkpt>
      <trkpt lat="43.0978571624" lon="-4.2316054925">
        <ele>1122.96</ele>
        <time>2018-05-19T17:04:09Z</time>
      </trkpt>
      <trkpt lat="43.0978759378" lon="-4.2314785905">
        <ele>1123.44</ele>
        <time>2018-05-19T17:04:14Z</time>
      </trkpt>
      <trkpt lat="43.0978918634" lon="-4.2313448153">
        <ele>1124.88</ele>
        <time>2018-05-19T17:04:19Z</time>
      </trkpt>
      <trkpt lat="43.0979092978" lon="-4.2312132195">
        <ele>1125.36</ele>
        <time>2018-05-19T17:04:24Z</time>
      </trkpt>
      <trkpt lat="43.0979173444" lon="-4.2310838029">
        <ele>1125.84</ele>
        <time>2018-05-19T17:04:29Z</time>
      </trkpt>
      <trkpt lat="43.0979414843" lon="-4.2309533805">
        <ele>1126.32</ele>
        <time>2018-05-19T17:04:34Z</time>
      </trkpt>
      <trkpt lat="43.0979580805" lon="-4.2308259755">
        <ele>1127.28</ele>
        <time>2018-05-19T17:04:39Z</time>
      </trkpt>
      <trkpt lat="43.0979721621" lon="-4.2306941282">
        <ele>1128.24</ele>
        <time>2018-05-19T17:04:44Z</time>
      </trkpt>
      <trkpt lat="43.0979881715" lon="-4.2305709980">
        <ele>1128.24</ele>
        <time>2018-05-19T17:04:49Z</time>
      </trkpt>
      <trkpt lat="43.0979951285" lon="-4.2304441798">
        <ele>1129.69</ele>
        <time>2018-05-19T17:04:54Z</time>
      </trkpt>
      <trkpt lat="43.0980087910" lon="-4.2303194571">
        <ele>1130.65</ele>
        <time>2018-05-19T17:04:59Z</time>
      </trkpt>
      <trkpt lat="43.0980294105" lon="-4.2301778868">
        <ele>1131.13</ele>
        <time>2018-05-19T17:05:05Z</time>
      </trkpt>
      <trkpt lat="43.0980590824" lon="-4.2300503980">
        <ele>1131.61</ele>
        <time>2018-05-19T17:05:10Z</time>
      </trkpt>
      <trkpt lat="43.0980901793" lon="-4.2299104203">
        <ele>1133.05</ele>
        <time>2018-05-19T17:05:16Z</time>
      </trkpt>
      <trkpt lat="43.0981190968" lon="-4.2297898885">
        <ele>1133.05</ele>
        <time>2018-05-19T17:05:21Z</time>
      </trkpt>
      <trkpt lat="43.0981501937" lon="-4.2296656687">
        <ele>1134.01</ele>
        <time>2018-05-19T17:05:26Z</time>
      </trkpt>
      <trkpt lat="43.0981825478" lon="-4.2295443825">
        <ele>1134.49</ele>
        <time>2018-05-19T17:05:31Z</time>
      </trkpt>
      <trkpt lat="43.0982265528" lon="-4.2294294666">
        <ele>1134.97</ele>
        <time>2018-05-19T17:05:36Z</time>
      </trkpt>
      <trkpt lat="43.0982708093" lon="-4.2293194961">
        <ele>1135.94</ele>
        <time>2018-05-19T17:05:41Z</time>
      </trkpt>
      <trkpt lat="43.0983247049" lon="-4.2292205896">
        <ele>1136.42</ele>
        <time>2018-05-19T17:05:46Z</time>
      </trkpt>
      <trkpt lat="43.0983801931" lon="-4.2291200906">
        <ele>1136.90</ele>
        <time>2018-05-19T17:05:51Z</time>
      </trkpt>
      <trkpt lat="43.0984454881" lon="-4.2290278897">
        <ele>1137.86</ele>
        <time>2018-05-19T17:05:56Z</time>
      </trkpt>
      <trkpt lat="43.0985143036" lon="-4.2289588228">
        <ele>1138.34</ele>
        <time>2018-05-19T17:06:01Z</time>
      </trkpt>
      <trkpt lat="43.0985942669" lon="-4.2289041728">
        <ele>1139.30</ele>
        <time>2018-05-19T17:06:06Z</time>
      </trkpt>
      <trkpt lat="43.0986784212" lon="-4.2288592458">
        <ele>1140.26</ele>
        <time>2018-05-19T17:06:11Z</time>
      </trkpt>
      <trkpt lat="43.0987652577" lon="-4.2288116366">
        <ele>1141.22</ele>
        <time>2018-05-19T17:06:16Z</time>
      </trkpt>
      <trkpt lat="43.0988508370" lon="-4.2287631892">
        <ele>1142.18</ele>
        <time>2018-05-19T17:06:21Z</time>
      </trkpt>
      <trkpt lat="43.0989476480" lon="-4.2287263088">
        <ele>1142.66</ele>
        <time>2018-05-19T17:06:26Z</time>
      </trkpt>
      <trkpt lat="43.0990458839" lon="-4.2287208606">
        <ele>1143.14</ele>
        <time>2018-05-19T17:06:30Z</time>
      </trkpt>
      <trkpt lat="43.0991446227" lon="-4.2287107185">
        <ele>1143.63</ele>
        <time>2018-05-19T17:06:34Z</time>
      </trkpt>
      <trkpt lat="43.0992449541" lon="-4.2286954634">
        <ele>1144.11</ele>
        <time>2018-05-19T17:06:38Z</time>
      </trkpt>
      <trkpt lat="43.0993442796" lon="-4.2286911886">
        <ele>1144.11</ele>
        <time>2018-05-19T17:06:42Z</time>
      </trkpt>
      <trkpt lat="43.0994447786" lon="-4.2286937870">
        <ele>1144.59</ele>
        <time>2018-05-19T17:06:46Z</time>
      </trkpt>
      <trkpt lat="43.0995565094" lon="-4.2286782805">
        <ele>1145.07</ele>
        <time>2018-05-19T17:06:51Z</time>
      </trkpt>
      <trkpt lat="43.0996523984" lon="-4.2286665458">
        <ele>1146.03</ele>
        <time>2018-05-19T17:06:55Z</time>
      </trkpt>
      <trkpt lat="43.0997594353" lon="-4.2286616005">
        <ele>1146.99</ele>
        <time>2018-05-19T17:07:00Z</time>
      </trkpt>
      <trkpt lat="43.0998554919" lon="-4.2286609299">
        <ele>1148.43</ele>
        <time>2018-05-19T17:07:05Z</time>
      </trkpt>
      <trkpt lat="43.0999482796" lon="-4.2286843155">
        <ele>1149.39</ele>
        <time>2018-05-19T17:07:10Z</time>
      </trkpt>
      <trkpt lat="43.1000405643" lon="-4.2287404742">
        <ele>1150.84</ele>
        <time>2018-05-19T17:07:15Z</time>
      </trkpt>
      <trkpt lat="43.1001142412" lon="-4.2288168333">
        <ele>1152.28</ele>
        <time>2018-05-19T17:07:20Z</time>
      </trkpt>
      <trkpt lat="43.1001873314" lon="-4.2289128900">
        <ele>1153.24</ele>
        <time>2018-05-19T17:07:25Z</time>
      </trkpt>
      <trkpt lat="43.1002843939" lon="-4.2290071864">
        <ele>1154.20</ele>
        <time>2018-05-19T17:07:30Z</time>
      </trkpt>
      <trkpt lat="43.1003781874" lon="-4.2290925141">
        <ele>1155.16</ele>
        <time>2018-05-19T17:07:35Z</time>
      </trkpt>
      <trkpt lat="43.1004719809" lon="-4.2291606590">
        <ele>1155.64</ele>
        <time>2018-05-19T17:07:40Z</time>
      </trkpt>
      <trkpt lat="43.1005644333" lon="-4.2292006407">
        <ele>1157.08</ele>
        <time>2018-05-19T17:07:45Z</time>
      </trkpt>
      <trkpt lat="43.1006467436" lon="-4.2292790953">
        <ele>1158.05</ele>
        <time>2018-05-19T17:07:51Z</time>
      </trkpt>
      <trkpt lat="43.1007281318" lon="-4.2293670215">
        <ele>1158.05</ele>
        <time>2018-05-19T17:07:55Z</time>
      </trkpt>
      <trkpt lat="43.1008095201" lon="-4.2294670176">
        <ele>1156.12</ele>
        <time>2018-05-19T17:07:58Z</time>
      </trkpt>
      <trkpt lat="43.1009037327" lon="-4.2295689415">
        <ele>1155.64</ele>
        <time>2018-05-19T17:08:01Z</time>
      </trkpt>
      <trkpt lat="43.1009867135" lon="-4.2296273634">
        <ele>1155.64</ele>
        <time>2018-05-19T17:08:03Z</time>
      </trkpt>
      <trkpt lat="43.1010979414" lon="-4.2296862043">
        <ele>1155.16</ele>
        <time>2018-05-19T17:08:06Z</time>
      </trkpt>
      <trkpt lat="43.1012126897" lon="-4.2297568638">
        <ele>1154.20</ele>
        <time>2018-05-19T17:08:09Z</time>
      </trkpt>
      <trkpt lat="43.1013256777" lon="-4.2298572790">
        <ele>1153.72</ele>
        <time>2018-05-19T17:08:12Z</time>
      </trkpt>
      <trkpt lat="43.1014331337" lon="-4.2299440317">
        <ele>1152.76</ele>
        <time>2018-05-19T17:08:15Z</time>
      </trkpt>
      <trkpt lat="43.1015559286" lon="-4.2300141044">
        <ele>1152.28</ele>
        <time>2018-05-19T17:08:18Z</time>
      </trkpt>
      <trkpt lat="43.1016858481" lon="-4.2300739512">
        <ele>1151.80</ele>
        <time>2018-05-19T17:08:21Z</time>
      </trkpt>
      <trkpt lat="43.1018037815" lon="-4.2301655654">
        <ele>1151.32</ele>
        <time>2018-05-19T17:08:24Z</time>
      </trkpt>
      <trkpt lat="43.1018742733" lon="-4.2302399129">
        <ele>1151.32</ele>
        <time>2018-05-19T17:08:26Z</time>
      </trkpt>
      <trkpt lat="43.1019616965" lon="-4.2303701676">
        <ele>1151.32</ele>
        <time>2018-05-19T17:08:29Z</time>
      </trkpt>
      <trkpt lat="43.1020241417" lon="-4.2304765340">
        <ele>1150.35</ele>
        <time>2018-05-19T17:08:31Z</time>
      </trkpt>
      <trkpt lat="43.1020855810" lon="-4.2305702437">
        <ele>1149.87</ele>
        <time>2018-05-19T17:08:33Z</time>
      </trkpt>
      <trkpt lat="43.1021692324" lon="-4.2306801304">
        <ele>1147.95</ele>
        <time>2018-05-19T17:08:35Z</time>
      </trkpt>
      <trkpt lat="43.1022869982" lon="-4.2307738401">
        <ele>1145.55</ele>
        <time>2018-05-19T17:08:37Z</time>
      </trkpt>
      <trkpt lat="43.1023709849" lon="-4.2308188509">
        <ele>1144.11</ele>
        <time>2018-05-19T17:08:38Z</time>
      </trkpt>
      <trkpt lat="43.1025202665" lon="-4.2308954615">
        <ele>1142.18</ele>
        <time>2018-05-19T17:08:40Z</time>
      </trkpt>
      <trkpt lat="43.1026713084" lon="-4.2310064379">
        <ele>1141.70</ele>
        <time>2018-05-19T17:08:42Z</time>
      </trkpt>
      <trkpt lat="43.1027808599" lon="-4.2311370280">
        <ele>1141.70</ele>
        <time>2018-05-19T17:08:44Z</time>
      </trkpt>
      <trkpt lat="43.1028588954" lon="-4.2312734015">
        <ele>1143.63</ele>
        <time>2018-05-19T17:08:46Z</time>
      </trkpt>
      <trkpt lat="43.1029054150" lon="-4.2313941009">
        <ele>1145.55</ele>
        <time>2018-05-19T17:08:48Z</time>
      </trkpt>
      <trkpt lat="43.1029437203" lon="-4.2315059155">
        <ele>1146.51</ele>
        <time>2018-05-19T17:08:50Z</time>
      </trkpt>
      <trkpt lat="43.1029930059" lon="-4.2316454742">
        <ele>1147.95</ele>
        <time>2018-05-19T17:08:53Z</time>
      </trkpt>
      <trkpt lat="43.1030469015" lon="-4.2317732144">
        <ele>1148.91</ele>
        <time>2018-05-19T17:08:57Z</time>
      </trkpt>
      <trkpt lat="43.1030914932" lon="-4.2318892200">
        <ele>1149.87</ele>
        <time>2018-05-19T17:09:01Z</time>
      </trkpt>
      <trkpt lat="43.1031328999" lon="-4.2320146132">
        <ele>1150.84</ele>
        <time>2018-05-19T17:09:06Z</time>
      </trkpt>
      <trkpt lat="43.1031771563" lon="-4.2321327142">
        <ele>1151.80</ele>
        <time>2018-05-19T17:09:11Z</time>
      </trkpt>
      <trkpt lat="43.1032326445" lon="-4.2322351411">
        <ele>1152.28</ele>
        <time>2018-05-19T17:09:16Z</time>
      </trkpt>
      <trkpt lat="43.1032988615" lon="-4.2323297728">
        <ele>1153.72</ele>
        <time>2018-05-19T17:09:21Z</time>
      </trkpt>
      <trkpt lat="43.1033754721" lon="-4.2324228957">
        <ele>1154.20</ele>
        <time>2018-05-19T17:09:26Z</time>
      </trkpt>
      <trkpt lat="43.1034440361" lon="-4.2325084750">
        <ele>1154.68</ele>
        <time>2018-05-19T17:09:31Z</time>
      </trkpt>
      <trkpt lat="43.1035255082" lon="-4.2326033581">
        <ele>1156.12</ele>
        <time>2018-05-19T17:09:37Z</time>
      </trkpt>
      <trkpt lat="43.1036120094" lon="-4.2326747719">
        <ele>1157.08</ele>
        <time>2018-05-19T17:09:43Z</time>
      </trkpt>
      <trkpt lat="43.1037043780" lon="-4.2327433359">
        <ele>1158.05</ele>
        <time>2018-05-19T17:09:49Z</time>
      </trkpt>
      <trkpt lat="43.1037942320" lon="-4.2328100558">
        <ele>1159.49</ele>
        <time>2018-05-19T17:09:55Z</time>
      </trkpt>
      <trkpt lat="43.1038816553" lon="-4.2328744289">
        <ele>1160.93</ele>
        <time>2018-05-19T17:10:01Z</time>
      </trkpt>
      <trkpt lat="43.1039612833" lon="-4.2329300009">
        <ele>1161.41</ele>
        <time>2018-05-19T17:10:06Z</time>
      </trkpt>
      <trkpt lat="43.1040488742" lon="-4.2329969723">
        <ele>1162.37</ele>
        <time>2018-05-19T17:10:12Z</time>
      </trkpt>
      <trkpt lat="43.1041304301" lon="-4.2330453359">
        <ele>1163.33</ele>
        <time>2018-05-19T17:10:17Z</time>
      </trkpt>
      <trkpt lat="43.1042171828" lon="-4.2331032548">
        <ele>1163.81</ele>
        <time>2018-05-19T17:10:22Z</time>
      </trkpt>
      <trkpt lat="43.1042980682" lon="-4.2331605870">
        <ele>1164.29</ele>
        <time>2018-05-19T17:10:27Z</time>
      </trkpt>
      <trkpt lat="43.1043975614" lon="-4.2332190927">
        <ele>1165.26</ele>
        <time>2018-05-19T17:10:32Z</time>
      </trkpt>
      <trkpt lat="43.1044839788" lon="-4.2332693003">
        <ele>1165.74</ele>
        <time>2018-05-19T17:10:37Z</time>
      </trkpt>
      <trkpt lat="43.1045760121" lon="-4.2333233636">
        <ele>1166.22</ele>
        <time>2018-05-19T17:10:42Z</time>
      </trkpt>
      <trkpt lat="43.1046719011" lon="-4.2333682068">
        <ele>1167.18</ele>
        <time>2018-05-19T17:10:48Z</time>
      </trkpt>
      <trkpt lat="43.1047709752" lon="-4.2334103677">
        <ele>1168.14</ele>
        <time>2018-05-19T17:10:54Z</time>
      </trkpt>
      <trkpt lat="43.1048681214" lon="-4.2334422190">
        <ele>1169.10</ele>
        <time>2018-05-19T17:11:00Z</time>
      </trkpt>
      <trkpt lat="43.1049683690" lon="-4.2334590666">
        <ele>1170.06</ele>
        <time>2018-05-19T17:11:06Z</time>
      </trkpt>
      <trkpt lat="43.1050702091" lon="-4.2334736511">
        <ele>1171.50</ele>
        <time>2018-05-19T17:11:12Z</time>
      </trkpt>
      <trkpt lat="43.1051610690" lon="-4.2334836256">
        <ele>1172.47</ele>
        <time>2018-05-19T17:11:17Z</time>
      </trkpt>
      <trkpt lat="43.1052584667" lon="-4.2334837932">
        <ele>1172.95</ele>
        <time>2018-05-19T17:11:23Z</time>
      </trkpt>
      <trkpt lat="43.1053622346" lon="-4.2334757466">
        <ele>1173.43</ele>
        <time>2018-05-19T17:11:29Z</time>
      </trkpt>
      <trkpt lat="43.1054677628" lon="-4.2334628385">
        <ele>1174.87</ele>
        <time>2018-05-19T17:11:35Z</time>
      </trkpt>
      <trkpt lat="43.1055728719" lon="-4.2334414646">
        <ele>1175.35</ele>
        <time>2018-05-19T17:11:41Z</time>
      </trkpt>
      <trkpt lat="43.1056611333" lon="-4.2334174924">
        <ele>1176.31</ele>
        <time>2018-05-19T17:11:46Z</time>
      </trkpt>
      <trkpt lat="43.1057587825" lon="-4.2333910894">
        <ele>1176.79</ele>
        <time>2018-05-19T17:11:52Z</time>
      </trkpt>
      <trkpt lat="43.1058622152" lon="-4.2333578970">
        <ele>1177.75</ele>
        <time>2018-05-19T17:11:58Z</time>
      </trkpt>
      <trkpt lat="43.1059513986" lon="-4.2333220225">
        <ele>1178.23</ele>
        <time>2018-05-19T17:12:03Z</time>
      </trkpt>
      <trkpt lat="43.1060577650" lon="-4.2332915124">
        <ele>1178.71</ele>
        <time>2018-05-19T17:12:09Z</time>
      </trkpt>
      <trkpt lat="43.1061625388" lon="-4.2332791071">
        <ele>1179.19</ele>
        <time>2018-05-19T17:12:15Z</time>
      </trkpt>
      <trkpt lat="43.1062581763" lon="-4.2332551349">
        <ele>1180.64</ele>
        <time>2018-05-19T17:12:21Z</time>
      </trkpt>
      <trkpt lat="43.1063565798" lon="-4.2332288995">
        <ele>1181.12</ele>
        <time>2018-05-19T17:12:27Z</time>
      </trkpt>
      <trkpt lat="43.1064548157" lon="-4.2332012393">
        <ele>1182.08</ele>
        <time>2018-05-19T17:12:33Z</time>
      </trkpt>
      <trkpt lat="43.1065462623" lon="-4.2331814580">
        <ele>1182.56</ele>
        <time>2018-05-19T17:12:38Z</time>
      </trkpt>
      <trkpt lat="43.1066442467" lon="-4.2331779376">
        <ele>1183.52</ele>
        <time>2018-05-19T17:12:44Z</time>
      </trkpt>
      <trkpt lat="43.1067442428" lon="-4.2331689689">
        <ele>1185.44</ele>
        <time>2018-05-19T17:12:50Z</time>
      </trkpt>
      <trkpt lat="43.1068513636" lon="-4.2331527080">
        <ele>1185.44</ele>
        <time>2018-05-19T17:12:56Z</time>
      </trkpt>
      <trkpt lat="43.1069461629" lon="-4.2331605870">
        <ele>1185.44</ele>
        <time>2018-05-19T17:13:01Z</time>
      </trkpt>
      <trkpt lat="43.1070456561" lon="-4.2331592459">
        <ele>1185.92</ele>
        <time>2018-05-19T17:13:06Z</time>
      </trkpt>
      <trkpt lat="43.1071507651" lon="-4.2331900075">
        <ele>1186.40</ele>
        <time>2018-05-19T17:13:11Z</time>
      </trkpt>
      <trkpt lat="43.1072420441" lon="-4.2332320847">
        <ele>1186.40</ele>
        <time>2018-05-19T17:13:15Z</time>
      </trkpt>
      <trkpt lat="43.1073406991" lon="-4.2332843877">
        <ele>1186.40</ele>
        <time>2018-05-19T17:13:19Z</time>
      </trkpt>
      <trkpt lat="43.1074425392" lon="-4.2333190050">
        <ele>1186.88</ele>
        <time>2018-05-19T17:13:23Z</time>
      </trkpt>
      <trkpt lat="43.1075415295" lon="-4.2333528679">
        <ele>1187.37</ele>
        <time>2018-05-19T17:13:27Z</time>
      </trkpt>
      <trkpt lat="43.1076305453" lon="-4.2333908379">
        <ele>1187.37</ele>
        <time>2018-05-19T17:13:31Z</time>
      </trkpt>
      <trkpt lat="43.1077259313" lon="-4.2334343400">
        <ele>1187.37</ele>
        <time>2018-05-19T17:13:35Z</time>
      </trkpt>
      <trkpt lat="43.1078122649" lon="-4.2334801890">
        <ele>1187.85</ele>
        <time>2018-05-19T17:13:39Z</time>
      </trkpt>
      <trkpt lat="43.1078943238" lon="-4.2335304804">
        <ele>1187.85</ele>
        <time>2018-05-19T17:13:43Z</time>
      </trkpt>
      <trkpt lat="43.1079795677" lon="-4.2335645109">
        <ele>1188.33</ele>
        <time>2018-05-19T17:13:47Z</time>
      </trkpt>
      <trkpt lat="43.1080710981" lon="-4.2336075939">
        <ele>1188.33</ele>
        <time>2018-05-19T17:13:51Z</time>
      </trkpt>
      <trkpt lat="43.1081596948" lon="-4.2336632498">
        <ele>1188.33</ele>
        <time>2018-05-19T17:13:55Z</time>
      </trkpt>
      <trkpt lat="43.1082447711" lon="-4.2337206658">
        <ele>1189.29</ele>
        <time>2018-05-19T17:13:59Z</time>
      </trkpt>
      <trkpt lat="43.1083383132" lon="-4.2337665986">
        <ele>1190.25</ele>
        <time>2018-05-19T17:14:04Z</time>
      </trkpt>
      <trkpt lat="43.1084316038" lon="-4.2338113580">
        <ele>1192.17</ele>
        <time>2018-05-19T17:14:10Z</time>
      </trkpt>
      <trkpt lat="43.1085176859" lon="-4.2338447180">
        <ele>1193.13</ele>
        <time>2018-05-19T17:14:15Z</time>
      </trkpt>
      <trkpt lat="43.1086168438" lon="-4.2338872980">
        <ele>1193.61</ele>
        <time>2018-05-19T17:14:21Z</time>
      </trkpt>
      <trkpt lat="43.1087173428" lon="-4.2339509167">
        <ele>1194.09</ele>
        <time>2018-05-19T17:14:27Z</time>
      </trkpt>
      <trkpt lat="43.1088039279" lon="-4.2340061534">
        <ele>1194.58</ele>
        <time>2018-05-19T17:14:32Z</time>
      </trkpt>
      <trkpt lat="43.1088917702" lon="-4.2340722028">
        <ele>1195.06</ele>
        <time>2018-05-19T17:14:38Z</time>
      </trkpt>
      <trkpt lat="43.1089738291" lon="-4.2341343127">
        <ele>1195.54</ele>
        <time>2018-05-19T17:14:43Z</time>
      </trkpt>
      <trkpt lat="43.1090632640" lon="-4.2342007812">
        <ele>1196.50</ele>
        <time>2018-05-19T17:14:49Z</time>
      </trkpt>
      <trkpt lat="43.1091459934" lon="-4.2342852708">
        <ele>1197.94</ele>
        <time>2018-05-19T17:14:55Z</time>
      </trkpt>
      <trkpt lat="43.1092128810" lon="-4.2343866080">
        <ele>1199.38</ele>
        <time>2018-05-19T17:15:01Z</time>
      </trkpt>
      <trkpt lat="43.1092754938" lon="-4.2344808206">
        <ele>1200.34</ele>
        <time>2018-05-19T17:15:07Z</time>
      </trkpt>
      <trkpt lat="43.1093516853" lon="-4.2345671542">
        <ele>1200.82</ele>
        <time>2018-05-19T17:15:13Z</time>
      </trkpt>
      <trkpt lat="43.1094099395" lon="-4.2346653063">
        <ele>1202.27</ele>
        <time>2018-05-19T17:15:19Z</time>
      </trkpt>
      <trkpt lat="43.1094724685" lon="-4.2347824015">
        <ele>1204.19</ele>
        <time>2018-05-19T17:15:26Z</time>
      </trkpt>
      <trkpt lat="43.1095119473" lon="-4.2348936293">
        <ele>1205.63</ele>
        <time>2018-05-19T17:15:32Z</time>
      </trkpt>
      <trkpt lat="43.1095466483" lon="-4.2350056116">
        <ele>1206.59</ele>
        <time>2018-05-19T17:15:37Z</time>
      </trkpt>
      <trkpt lat="43.1095972750" lon="-4.2351279873">
        <ele>1206.59</ele>
        <time>2018-05-19T17:15:42Z</time>
      </trkpt>
      <trkpt lat="43.1096639950" lon="-4.2352363653">
        <ele>1206.59</ele>
        <time>2018-05-19T17:15:46Z</time>
      </trkpt>
      <trkpt lat="43.1097205728" lon="-4.2353439052">
        <ele>1206.59</ele>
        <time>2018-05-19T17:15:50Z</time>
      </trkpt>
      <trkpt lat="43.1097784918" lon="-4.2354677897">
        <ele>1206.59</ele>
        <time>2018-05-19T17:15:54Z</time>
      </trkpt>
      <trkpt lat="43.1098499056" lon="-4.2356117908">
        <ele>1205.15</ele>
        <time>2018-05-19T17:15:57Z</time>
      </trkpt>
      <trkpt lat="43.1099249236" lon="-4.2357726395">
        <ele>1204.19</ele>
        <time>2018-05-19T17:16:00Z</time>
      </trkpt>
      <trkpt lat="43.1099773943" lon="-4.2359117791">
        <ele>1202.75</ele>
        <time>2018-05-19T17:16:02Z</time>
      </trkpt>
      <trkpt lat="43.1100342236" lon="-4.2360906489">
        <ele>1201.30</ele>
        <time>2018-05-19T17:16:04Z</time>
      </trkpt>
      <trkpt lat="43.1100791506" lon="-4.2362395953">
        <ele>1201.30</ele>
        <time>2018-05-19T17:16:06Z</time>
      </trkpt>
      <trkpt lat="43.1101359800" lon="-4.2363857757">
        <ele>1200.34</ele>
        <time>2018-05-19T17:16:08Z</time>
      </trkpt>
      <trkpt lat="43.1101988442" lon="-4.2365082353">
        <ele>1200.34</ele>
        <time>2018-05-19T17:16:10Z</time>
      </trkpt>
      <trkpt lat="43.1102787238" lon="-4.2366273422">
        <ele>1202.75</ele>
        <time>2018-05-19T17:16:13Z</time>
      </trkpt>
      <trkpt lat="43.1103480421" lon="-4.2367165256">
        <ele>1204.19</ele>
        <time>2018-05-19T17:16:17Z</time>
      </trkpt>
      <trkpt lat="43.1104315259" lon="-4.2367992550">
        <ele>1206.59</ele>
        <time>2018-05-19T17:16:22Z</time>
      </trkpt>
      <trkpt lat="43.1104995869" lon="-4.2368992511">
        <ele>1207.07</ele>
        <time>2018-05-19T17:16:27Z</time>
      </trkpt>
      <trkpt lat="43.1105720066" lon="-4.2370295059">
        <ele>1207.07</ele>
        <time>2018-05-19T17:16:31Z</time>
      </trkpt>
      <trkpt lat="43.1106472760" lon="-4.2371387221">
        <ele>1207.07</ele>
        <time>2018-05-19T17:16:34Z</time>
      </trkpt>
      <trkpt lat="43.1107389741" lon="-4.2372476030">
        <ele>1205.15</ele>
        <time>2018-05-19T17:16:37Z</time>
      </trkpt>
      <trkpt lat="43.1108201947" lon="-4.2373256385">
        <ele>1205.15</ele>
        <time>2018-05-19T17:16:39Z</time>
      </trkpt>
      <trkpt lat="43.1109064445" lon="-4.2374031711">
        <ele>1203.71</ele>
        <time>2018-05-19T17:16:41Z</time>
      </trkpt>
      <trkpt lat="43.1109936163" lon="-4.2374911811">
        <ele>1203.23</ele>
        <time>2018-05-19T17:16:43Z</time>
      </trkpt>
      <trkpt lat="43.1110756751" lon="-4.2375632655">
        <ele>1202.75</ele>
        <time>2018-05-19T17:16:45Z</time>
      </trkpt>
      <trkpt lat="43.1111817062" lon="-4.2376066837">
        <ele>1202.27</ele>
        <time>2018-05-19T17:16:48Z</time>
      </trkpt>
      <trkpt lat="43.1113138888" lon="-4.2376664467">
        <ele>1201.30</ele>
        <time>2018-05-19T17:16:51Z</time>
      </trkpt>
      <trkpt lat="43.1114173215" lon="-4.2377235275">
        <ele>1199.86</ele>
        <time>2018-05-19T17:16:53Z</time>
      </trkpt>
      <trkpt lat="43.1115248613" lon="-4.2378039099">
        <ele>1199.86</ele>
        <time>2018-05-19T17:16:55Z</time>
      </trkpt>
      <trkpt lat="43.1116101891" lon="-4.2379142158">
        <ele>1199.38</ele>
        <time>2018-05-19T17:16:57Z</time>
      </trkpt>
      <trkpt lat="43.1116779987" lon="-4.2380527686">
        <ele>1198.90</ele>
        <time>2018-05-19T17:16:59Z</time>
      </trkpt>
      <trkpt lat="43.1117365882" lon="-4.2382011283">
        <ele>1198.90</ele>
        <time>2018-05-19T17:17:01Z</time>
      </trkpt>
      <trkpt lat="43.1117888913" lon="-4.2383425310">
        <ele>1198.90</ele>
        <time>2018-05-19T17:17:03Z</time>
      </trkpt>
      <trkpt lat="43.1118440442" lon="-4.2384986859">
        <ele>1197.94</ele>
        <time>2018-05-19T17:17:05Z</time>
      </trkpt>
      <trkpt lat="43.1118907314" lon="-4.2386296112">
        <ele>1197.94</ele>
        <time>2018-05-19T17:17:07Z</time>
      </trkpt>
      <trkpt lat="43.1119446270" lon="-4.2387647275">
        <ele>1196.98</ele>
        <time>2018-05-19T17:17:09Z</time>
      </trkpt>
      <trkpt lat="43.1119851116" lon="-4.2388777994">
        <ele>1196.98</ele>
        <time>2018-05-19T17:17:11Z</time>
      </trkpt>
      <trkpt lat="43.1120217405" lon="-4.2389987502">
        <ele>1198.42</ele>
        <time>2018-05-19T17:17:13Z</time>
      </trkpt>
      <trkpt lat="43.1120639015" lon="-4.2391399015">
        <ele>1198.90</ele>
        <time>2018-05-19T17:17:16Z</time>
      </trkpt>
      <trkpt lat="43.1121164560" lon="-4.2392817233">
        <ele>1198.90</ele>
        <time>2018-05-19T17:17:19Z</time>
      </trkpt>
      <trkpt lat="43.1121795718" lon="-4.2394337710">
        <ele>1198.90</ele>
        <time>2018-05-19T17:17:22Z</time>
      </trkpt>
      <trkpt lat="43.1122431904" lon="-4.2395582423">
        <ele>1198.90</ele>
        <time>2018-05-19T17:17:25Z</time>
      </trkpt>
      <trkpt lat="43.1123102456" lon="-4.2396640219">
        <ele>1196.98</ele>
        <time>2018-05-19T17:17:28Z</time>
      </trkpt>
      <trkpt lat="43.1123925559" lon="-4.2397769261">
        <ele>1196.98</ele>
        <time>2018-05-19T17:17:31Z</time>
      </trkpt>
      <trkpt lat="43.1124643050" lon="-4.2398689594">
        <ele>1196.50</ele>
        <time>2018-05-19T17:17:33Z</time>
      </trkpt>
      <trkpt lat="43.1125379819" lon="-4.2399558797">
        <ele>1195.54</ele>
        <time>2018-05-19T17:17:35Z</time>
      </trkpt>
      <trkpt lat="43.1126384810" lon="-4.2400560435">
        <ele>1194.58</ele>
        <time>2018-05-19T17:17:37Z</time>
      </trkpt>
      <trkpt lat="43.1127493735" lon="-4.2401521839">
        <ele>1193.13</ele>
        <time>2018-05-19T17:17:39Z</time>
      </trkpt>
      <trkpt lat="43.1128599308" lon="-4.2402442172">
        <ele>1192.17</ele>
        <time>2018-05-19T17:17:41Z</time>
      </trkpt>
      <trkpt lat="43.1129932031" lon="-4.2403349932">
        <ele>1190.25</ele>
        <time>2018-05-19T17:17:43Z</time>
      </trkpt>
      <trkpt lat="43.1131197698" lon="-4.2404110171">
        <ele>1190.25</ele>
        <time>2018-05-19T17:17:45Z</time>
      </trkpt>
      <trkpt lat="43.1132350210" lon="-4.2404634878">
        <ele>1190.25</ele>
        <time>2018-05-19T17:17:47Z</time>
      </trkpt>
      <trkpt lat="43.1133324187" lon="-4.2404678464">
        <ele>1190.25</ele>
        <time>2018-05-19T17:17:49Z</time>
      </trkpt>
      <trkpt lat="43.1134157348" lon="-4.2404352408">
        <ele>1191.69</ele>
        <time>2018-05-19T17:17:52Z</time>
      </trkpt>
      <trkpt lat="43.1135109533" lon="-4.2403951753">
        <ele>1191.69</ele>
        <time>2018-05-19T17:17:55Z</time>
      </trkpt>
      <trkpt lat="43.1136063393" lon="-4.2403671797">
        <ele>1189.77</ele>
        <time>2018-05-19T17:17:58Z</time>
      </trkpt>
      <trkpt lat="43.1137202494" lon="-4.2403469793">
        <ele>1188.33</ele>
        <time>2018-05-19T17:18:01Z</time>
      </trkpt>
      <trkpt lat="43.1138174795" lon="-4.2403607257">
        <ele>1188.81</ele>
        <time>2018-05-19T17:18:05Z</time>
      </trkpt>
      <trkpt lat="43.1138947606" lon="-4.2403886374">
        <ele>1187.85</ele>
        <time>2018-05-19T17:18:23Z</time>
      </trkpt>
      <trkpt lat="43.1140130293" lon="-4.2404001206">
        <ele>1185.92</ele>
        <time>2018-05-19T17:18:27Z</time>
      </trkpt>
      <trkpt lat="43.1141138636" lon="-4.2403927445">
        <ele>1184.48</ele>
        <time>2018-05-19T17:18:29Z</time>
      </trkpt>
      <trkpt lat="43.1142368261" lon="-4.2404382583">
        <ele>1181.60</ele>
        <time>2018-05-19T17:18:31Z</time>
      </trkpt>
      <trkpt lat="43.1143429410" lon="-4.2405193951">
        <ele>1180.64</ele>
        <time>2018-05-19T17:18:33Z</time>
      </trkpt>
      <trkpt lat="43.1144562643" lon="-4.2406271026">
        <ele>1178.71</ele>
        <time>2018-05-19T17:18:35Z</time>
      </trkpt>
      <trkpt lat="43.1145645585" lon="-4.2407529149">
        <ele>1178.71</ele>
        <time>2018-05-19T17:18:37Z</time>
      </trkpt>
      <trkpt lat="43.1146680750" lon="-4.2408775538">
        <ele>1178.71</ele>
        <time>2018-05-19T17:18:39Z</time>
      </trkpt>
      <trkpt lat="43.1147521455" lon="-4.2409796454">
        <ele>1178.71</ele>
        <time>2018-05-19T17:18:41Z</time>
      </trkpt>
      <trkpt lat="43.1148471963" lon="-4.2410869338">
        <ele>1178.71</ele>
        <time>2018-05-19T17:18:43Z</time>
      </trkpt>
      <trkpt lat="43.1149322726" lon="-4.2412015144">
        <ele>1178.23</ele>
        <time>2018-05-19T17:18:45Z</time>
      </trkpt>
      <trkpt lat="43.1150139123" lon="-4.2413125746">
        <ele>1178.23</ele>
        <time>2018-05-19T17:18:47Z</time>
      </trkpt>
      <trkpt lat="43.1150884274" lon="-4.2414179351">
        <ele>1178.23</ele>
        <time>2018-05-19T17:18:49Z</time>
      </trkpt>
      <trkpt lat="43.1151555665" lon="-4.2415203620">
        <ele>1178.71</ele>
        <time>2018-05-19T17:18:51Z</time>
      </trkpt>
      <trkpt lat="43.1152240466" lon="-4.2416253034">
        <ele>1178.71</ele>
        <time>2018-05-19T17:18:53Z</time>
      </trkpt>
      <trkpt lat="43.1152909342" lon="-4.2417372856">
        <ele>1179.67</ele>
        <time>2018-05-19T17:18:55Z</time>
      </trkpt>
      <trkpt lat="43.1153620966" lon="-4.2418896686">
        <ele>1180.64</ele>
        <time>2018-05-19T17:18:58Z</time>
      </trkpt>
      <trkpt lat="43.1154107116" lon="-4.2419974599">
        <ele>1180.64</ele>
        <time>2018-05-19T17:19:00Z</time>
      </trkpt>
      <trkpt lat="43.1154573150" lon="-4.2421115376">
        <ele>1180.64</ele>
        <time>2018-05-19T17:19:02Z</time>
      </trkpt>
      <trkpt lat="43.1155071035" lon="-4.2422304768">
        <ele>1180.64</ele>
        <time>2018-05-19T17:19:04Z</time>
      </trkpt>
      <trkpt lat="43.1155576464" lon="-4.2423575465">
        <ele>1180.64</ele>
        <time>2018-05-19T17:19:06Z</time>
      </trkpt>
      <trkpt lat="43.1155941077" lon="-4.2424757313">
        <ele>1180.64</ele>
        <time>2018-05-19T17:19:08Z</time>
      </trkpt>
      <trkpt lat="43.1156284735" lon="-4.2426140327">
        <ele>1179.19</ele>
        <time>2018-05-19T17:19:10Z</time>
      </trkpt>
      <trkpt lat="43.1156759989" lon="-4.2427627277">
        <ele>1177.27</ele>
        <time>2018-05-19T17:19:12Z</time>
      </trkpt>
      <trkpt lat="43.1157481670" lon="-4.2429358978">
        <ele>1175.35</ele>
        <time>2018-05-19T17:19:14Z</time>
      </trkpt>
      <trkpt lat="43.1158336625" lon="-4.2431174498">
        <ele>1171.98</ele>
        <time>2018-05-19T17:19:16Z</time>
      </trkpt>
      <trkpt lat="43.1159073394" lon="-4.2433258239">
        <ele>1170.54</ele>
        <time>2018-05-19T17:19:18Z</time>
      </trkpt>
      <trkpt lat="43.1159534398" lon="-4.2435362935">
        <ele>1170.06</ele>
        <time>2018-05-19T17:19:20Z</time>
      </trkpt>
      <trkpt lat="43.1159865484" lon="-4.2437581625">
        <ele>1170.54</ele>
        <time>2018-05-19T17:19:22Z</time>
      </trkpt>
      <trkpt lat="43.1160119455" lon="-4.2439241242">
        <ele>1171.98</ele>
        <time>2018-05-19T17:19:24Z</time>
      </trkpt>
      <trkpt lat="43.1160377618" lon="-4.2440957855">
        <ele>1171.98</ele>
        <time>2018-05-19T17:19:26Z</time>
      </trkpt>
      <trkpt lat="43.1160715409" lon="-4.2442552932">
        <ele>1171.98</ele>
        <time>2018-05-19T17:19:28Z</time>
      </trkpt>
      <trkpt lat="43.1161167193" lon="-4.2444384377">
        <ele>1171.98</ele>
        <time>2018-05-19T17:19:30Z</time>
      </trkpt>
      <trkpt lat="43.1161783263" lon="-4.2445893958">
        <ele>1168.62</ele>
        <time>2018-05-19T17:19:32Z</time>
      </trkpt>
      <trkpt lat="43.1162681803" lon="-4.2447824311">
        <ele>1166.22</ele>
        <time>2018-05-19T17:19:34Z</time>
      </trkpt>
      <trkpt lat="43.1163530890" lon="-4.2450127658">
        <ele>1163.33</ele>
        <time>2018-05-19T17:19:36Z</time>
      </trkpt>
      <trkpt lat="43.1164004467" lon="-4.2451595329">
        <ele>1162.37</ele>
        <time>2018-05-19T17:19:37Z</time>
      </trkpt>
      <trkpt lat="43.1164629757" lon="-4.2453695834">
        <ele>1162.37</ele>
        <time>2018-05-19T17:19:39Z</time>
      </trkpt>
      <trkpt lat="43.1165291090" lon="-4.2455899436">
        <ele>1162.37</ele>
        <time>2018-05-19T17:19:41Z</time>
      </trkpt>
      <trkpt lat="43.1166055519" lon="-4.2458071187">
        <ele>1161.89</ele>
        <time>2018-05-19T17:19:43Z</time>
      </trkpt>
      <trkpt lat="43.1166861020" lon="-4.2460035067">
        <ele>1161.89</ele>
        <time>2018-05-19T17:19:45Z</time>
      </trkpt>
      <trkpt lat="43.1167347170" lon="-4.2461544648">
        <ele>1163.33</ele>
        <time>2018-05-19T17:19:47Z</time>
      </trkpt>
      <trkpt lat="43.1167660654" lon="-4.2463034950">
        <ele>1163.81</ele>
        <time>2018-05-19T17:19:49Z</time>
      </trkpt>
      <trkpt lat="43.1167790573" lon="-4.2464496754">
        <ele>1165.26</ele>
        <time>2018-05-19T17:19:51Z</time>
      </trkpt>
      <trkpt lat="43.1168207992" lon="-4.2465924192">
        <ele>1165.26</ele>
        <time>2018-05-19T17:19:53Z</time>
      </trkpt>
      <trkpt lat="43.1168732699" lon="-4.2467018031">
        <ele>1165.26</ele>
        <time>2018-05-19T17:19:55Z</time>
      </trkpt>
      <trkpt lat="43.1169451028" lon="-4.2468287051">
        <ele>1165.26</ele>
        <time>2018-05-19T17:19:57Z</time>
      </trkpt>
      <trkpt lat="43.1170180254" lon="-4.2469592951">
        <ele>1163.81</ele>
        <time>2018-05-19T17:19:59Z</time>
      </trkpt>
      <trkpt lat="43.1170892715" lon="-4.2471146956">
        <ele>1164.29</ele>
        <time>2018-05-19T17:20:01Z</time>
      </trkpt>
      <trkpt lat="43.1171352882" lon="-4.2472379934">
        <ele>1164.29</ele>
        <time>2018-05-19T17:20:03Z</time>
      </trkpt>
      <trkpt lat="43.1171745155" lon="-4.2473775521">
        <ele>1164.29</ele>
        <time>2018-05-19T17:20:05Z</time>
      </trkpt>
      <trkpt lat="43.1172100548" lon="-4.2475111596">
        <ele>1164.29</ele>
        <time>2018-05-19T17:20:07Z</time>
      </trkpt>
      <trkpt lat="43.1172465160" lon="-4.2476385646">
        <ele>1165.26</ele>
        <time>2018-05-19T17:20:09Z</time>
      </trkpt>
      <trkpt lat="43.1172849052" lon="-4.2477612756">
        <ele>1165.26</ele>
        <time>2018-05-19T17:20:11Z</time>
      </trkpt>
      <trkpt lat="43.1173517089" lon="-4.2479290813">
        <ele>1165.26</ele>
        <time>2018-05-19T17:20:14Z</time>
      </trkpt>
      <trkpt lat="43.1174206920" lon="-4.2480479367">
        <ele>1163.81</ele>
        <time>2018-05-19T17:20:16Z</time>
      </trkpt>
      <trkpt lat="43.1175344344" lon="-4.2481591646">
        <ele>1160.93</ele>
        <time>2018-05-19T17:20:18Z</time>
      </trkpt>
      <trkpt lat="43.1176889129" lon="-4.2482292373">
        <ele>1158.53</ele>
        <time>2018-05-19T17:20:20Z</time>
      </trkpt>
      <trkpt lat="43.1178281363" lon="-4.2482692190">
        <ele>1157.56</ele>
        <time>2018-05-19T17:20:22Z</time>
      </trkpt>
      <trkpt lat="43.1179966126" lon="-4.2483319994">
        <ele>1154.68</ele>
        <time>2018-05-19T17:20:24Z</time>
      </trkpt>
      <trkpt lat="43.1180894841" lon="-4.2483806144">
        <ele>1153.24</ele>
        <time>2018-05-19T17:20:25Z</time>
      </trkpt>
      <trkpt lat="43.1181936711" lon="-4.2484456580">
        <ele>1151.32</ele>
        <time>2018-05-19T17:20:26Z</time>
      </trkpt>
      <trkpt lat="43.1182757299" lon="-4.2485002242">
        <ele>1149.87</ele>
        <time>2018-05-19T17:20:27Z</time>
      </trkpt>
      <trkpt lat="43.1183689367" lon="-4.2485652678">
        <ele>1148.91</ele>
        <time>2018-05-19T17:20:28Z</time>
      </trkpt>
      <trkpt lat="43.1184541807" lon="-4.2486326583">
        <ele>1147.95</ele>
        <time>2018-05-19T17:20:29Z</time>
      </trkpt>
      <trkpt lat="43.1185411010" lon="-4.2487025633">
        <ele>1147.95</ele>
        <time>2018-05-19T17:20:30Z</time>
      </trkpt>
      <trkpt lat="43.1186215673" lon="-4.2487650923">
        <ele>1147.47</ele>
        <time>2018-05-19T17:20:31Z</time>
      </trkpt>
      <trkpt lat="43.1187165342" lon="-4.2488296330">
        <ele>1147.47</ele>
        <time>2018-05-19T17:20:32Z</time>
      </trkpt>
      <trkpt lat="43.1188089866" lon="-4.2488805950">
        <ele>1146.51</ele>
        <time>2018-05-19T17:20:33Z</time>
      </trkpt>
      <trkpt lat="43.1189489644" lon="-4.2489352450">
        <ele>1145.55</ele>
        <time>2018-05-19T17:20:35Z</time>
      </trkpt>
      <trkpt lat="43.1190891098" lon="-4.2489919066">
        <ele>1147.95</ele>
        <time>2018-05-19T17:20:37Z</time>
      </trkpt>
      <trkpt lat="43.1192235555" lon="-4.2490435392">
        <ele>1147.95</ele>
        <time>2018-05-19T17:20:39Z</time>
      </trkpt>
      <trkpt lat="43.1193797104" lon="-4.2491052300">
        <ele>1146.99</ele>
        <time>2018-05-19T17:20:41Z</time>
      </trkpt>
      <trkpt lat="43.1195115577" lon="-4.2491592932">
        <ele>1145.55</ele>
        <time>2018-05-19T17:20:43Z</time>
      </trkpt>
      <trkpt lat="43.1196575705" lon="-4.2492208164">
        <ele>1145.07</ele>
        <time>2018-05-19T17:20:45Z</time>
      </trkpt>
      <trkpt lat="43.1197935250" lon="-4.2492754664">
        <ele>1145.07</ele>
        <time>2018-05-19T17:20:47Z</time>
      </trkpt>
      <trkpt lat="43.1199361850" lon="-4.2493229080">
        <ele>1145.07</ele>
        <time>2018-05-19T17:20:49Z</time>
      </trkpt>
      <trkpt lat="43.1200256199" lon="-4.2493493110">
        <ele>1147.47</ele>
        <time>2018-05-19T17:20:51Z</time>
      </trkpt>
      <trkpt lat="43.1201479957" lon="-4.2493673321">
        <ele>1148.91</ele>
        <time>2018-05-19T17:20:54Z</time>
      </trkpt>
      <trkpt lat="43.1202387717" lon="-4.2493667454">
        <ele>1150.35</ele>
        <time>2018-05-19T17:20:57Z</time>
      </trkpt>
      <trkpt lat="43.1203313917" lon="-4.2493197229">
        <ele>1152.28</ele>
        <time>2018-05-19T17:21:01Z</time>
      </trkpt>
      <trkpt lat="43.1204325613" lon="-4.2492547631">
        <ele>1152.28</ele>
        <time>2018-05-19T17:21:05Z</time>
      </trkpt>
      <trkpt lat="43.1205188110" lon="-4.2492297851">
        <ele>1152.28</ele>
        <time>2018-05-19T17:21:08Z</time>
      </trkpt>
      <trkpt lat="43.1206124369" lon="-4.2492269352">
        <ele>1152.28</ele>
        <time>2018-05-19T17:21:11Z</time>
      </trkpt>
      <trkpt lat="43.1207087450" lon="-4.2492302042">
        <ele>1152.76</ele>
        <time>2018-05-19T17:21:14Z</time>
      </trkpt>
      <trkpt lat="43.1208057236" lon="-4.2492246721">
        <ele>1153.24</ele>
        <time>2018-05-19T17:21:17Z</time>
      </trkpt>
      <trkpt lat="43.1209184602" lon="-4.2492193915">
        <ele>1153.24</ele>
        <time>2018-05-19T17:21:21Z</time>
      </trkpt>
      <trkpt lat="43.1210098229" lon="-4.2492216546">
        <ele>1154.20</ele>
        <time>2018-05-19T17:21:24Z</time>
      </trkpt>
      <trkpt lat="43.1211204641" lon="-4.2492278572">
        <ele>1154.68</ele>
        <time>2018-05-19T17:21:28Z</time>
      </trkpt>
      <trkpt lat="43.1212295964" lon="-4.2492401786">
        <ele>1155.16</ele>
        <time>2018-05-19T17:21:32Z</time>
      </trkpt>
      <trkpt lat="43.1213412434" lon="-4.2492280249">
        <ele>1156.12</ele>
        <time>2018-05-19T17:21:36Z</time>
      </trkpt>
      <trkpt lat="43.1214355398" lon="-4.2491706926">
        <ele>1156.12</ele>
        <time>2018-05-19T17:21:40Z</time>
      </trkpt>
      <trkpt lat="43.1215153355" lon="-4.2491119355">
        <ele>1156.60</ele>
        <time>2018-05-19T17:21:43Z</time>
      </trkpt>
      <trkpt lat="43.1216001604" lon="-4.2490258534">
        <ele>1156.60</ele>
        <time>2018-05-19T17:21:46Z</time>
      </trkpt>
      <trkpt lat="43.1216936186" lon="-4.2489383463">
        <ele>1154.68</ele>
        <time>2018-05-19T17:21:49Z</time>
      </trkpt>
      <trkpt lat="43.1217780244" lon="-4.2488830257">
        <ele>1154.20</ele>
        <time>2018-05-19T17:21:51Z</time>
      </trkpt>
      <trkpt lat="43.1218716502" lon="-4.2488346621">
        <ele>1153.24</ele>
        <time>2018-05-19T17:21:53Z</time>
      </trkpt>
      <trkpt lat="43.1219788548" lon="-4.2487671878">
        <ele>1152.28</ele>
        <time>2018-05-19T17:21:55Z</time>
      </trkpt>
      <trkpt lat="43.1220517773" lon="-4.2486847099">
        <ele>1151.80</ele>
        <time>2018-05-19T17:21:57Z</time>
      </trkpt>
      <trkpt lat="43.1221335009" lon="-4.2485909164">
        <ele>1151.80</ele>
        <time>2018-05-19T17:21:59Z</time>
      </trkpt>
      <trkpt lat="43.1222307310" lon="-4.2485196702">
        <ele>1150.84</ele>
        <time>2018-05-19T17:22:01Z</time>
      </trkpt>
      <trkpt lat="43.1223324034" lon="-4.2485076003">
        <ele>1150.35</ele>
        <time>2018-05-19T17:22:03Z</time>
      </trkpt>
      <trkpt lat="43.1224273704" lon="-4.2485145573">
        <ele>1149.39</ele>
        <time>2018-05-19T17:22:05Z</time>
      </trkpt>
      <trkpt lat="43.1225346588" lon="-4.2485205922">
        <ele>1149.39</ele>
        <time>2018-05-19T17:22:07Z</time>
      </trkpt>
      <trkpt lat="43.1226504128" lon="-4.2485033255">
        <ele>1148.91</ele>
        <time>2018-05-19T17:22:09Z</time>
      </trkpt>
      <trkpt lat="43.1227697711" lon="-4.2484602425">
        <ele>1147.95</ele>
        <time>2018-05-19T17:22:11Z</time>
      </trkpt>
      <trkpt lat="43.1228763051" lon="-4.2484120466">
        <ele>1147.47</ele>
        <time>2018-05-19T17:22:13Z</time>
      </trkpt>
      <trkpt lat="43.1229980104" lon="-4.2483513616">
        <ele>1146.51</ele>
        <time>2018-05-19T17:22:15Z</time>
      </trkpt>
      <trkpt lat="43.1231187098" lon="-4.2483009025">
        <ele>1145.55</ele>
        <time>2018-05-19T17:22:17Z</time>
      </trkpt>
      <trkpt lat="43.1232400797" lon="-4.2482653633">
        <ele>1145.55</ele>
        <time>2018-05-19T17:22:19Z</time>
      </trkpt>
      <trkpt lat="43.1233678199" lon="-4.2482461687">
        <ele>1144.11</ele>
        <time>2018-05-19T17:22:21Z</time>
      </trkpt>
      <trkpt lat="43.1234689895" lon="-4.2482476775">
        <ele>1143.63</ele>
        <time>2018-05-19T17:22:23Z</time>
      </trkpt>
      <trkpt lat="43.1235760264" lon="-4.2482781038">
        <ele>1142.66</ele>
        <time>2018-05-19T17:22:25Z</time>
      </trkpt>
      <trkpt lat="43.1236811355" lon="-4.2483554687">
        <ele>1141.70</ele>
        <time>2018-05-19T17:22:27Z</time>
      </trkpt>
      <trkpt lat="43.1237737555" lon="-4.2484456580">
        <ele>1141.22</ele>
        <time>2018-05-19T17:22:29Z</time>
      </trkpt>
      <trkpt lat="43.1238688901" lon="-4.2485702969">
        <ele>1140.26</ele>
        <time>2018-05-19T17:22:31Z</time>
      </trkpt>
      <trkpt lat="43.1239455845" lon="-4.2486959416">
        <ele>1139.30</ele>
        <time>2018-05-19T17:22:33Z</time>
      </trkpt>
      <trkpt lat="43.1240282301" lon="-4.2488267832">
        <ele>1138.34</ele>
        <time>2018-05-19T17:22:35Z</time>
      </trkpt>
      <trkpt lat="43.1241231132" lon="-4.2489618994">
        <ele>1136.90</ele>
        <time>2018-05-19T17:22:37Z</time>
      </trkpt>
      <trkpt lat="43.1242238637" lon="-4.2491125222">
        <ele>1135.94</ele>
        <time>2018-05-19T17:22:39Z</time>
      </trkpt>
      <trkpt lat="43.1243395340" lon="-4.2492576130">
        <ele>1134.97</ele>
        <time>2018-05-19T17:22:41Z</time>
      </trkpt>
      <trkpt lat="43.1244490016" lon="-4.2493711878">
        <ele>1134.01</ele>
        <time>2018-05-19T17:22:43Z</time>
      </trkpt>
      <trkpt lat="43.1245756522" lon="-4.2494565994">
        <ele>1133.53</ele>
        <time>2018-05-19T17:22:45Z</time>
      </trkpt>
      <trkpt lat="43.1246908195" lon="-4.2494483013">
        <ele>1133.05</ele>
        <time>2018-05-19T17:22:47Z</time>
      </trkpt>
      <trkpt lat="43.1248007901" lon="-4.2493664101">
        <ele>1133.05</ele>
        <time>2018-05-19T17:22:49Z</time>
      </trkpt>
      <trkpt lat="43.1249177177" lon="-4.2493101675">
        <ele>1132.09</ele>
        <time>2018-05-19T17:22:51Z</time>
      </trkpt>
      <trkpt lat="43.1250131875" lon="-4.2493311223">
        <ele>1131.13</ele>
        <time>2018-05-19T17:22:53Z</time>
      </trkpt>
      <trkpt lat="43.1251283549" lon="-4.2493800726">
        <ele>1130.65</ele>
        <time>2018-05-19T17:22:55Z</time>
      </trkpt>
      <trkpt lat="43.1252533291" lon="-4.2493973393">
        <ele>1129.69</ele>
        <time>2018-05-19T17:22:57Z</time>
      </trkpt>
      <trkpt lat="43.1253899541" lon="-4.2494096607">
        <ele>1128.73</ele>
        <time>2018-05-19T17:22:59Z</time>
      </trkpt>
      <trkpt lat="43.1255051214" lon="-4.2494588625">
        <ele>1127.28</ele>
        <time>2018-05-19T17:23:01Z</time>
      </trkpt>
      <trkpt lat="43.1256350409" lon="-4.2495629657">
        <ele>1125.84</ele>
        <time>2018-05-19T17:23:03Z</time>
      </trkpt>
      <trkpt lat="43.1257592607" lon="-4.2496859282">
        <ele>1123.92</ele>
        <time>2018-05-19T17:23:05Z</time>
      </trkpt>
      <trkpt lat="43.1259030104" lon="-4.2497942224">
        <ele>1123.44</ele>
        <time>2018-05-19T17:23:07Z</time>
      </trkpt>
      <trkpt lat="43.1260410603" lon="-4.2498653010">
        <ele>1122.00</ele>
        <time>2018-05-19T17:23:09Z</time>
      </trkpt>
      <trkpt lat="43.1261762604" lon="-4.2499487009">
        <ele>1121.52</ele>
        <time>2018-05-19T17:23:11Z</time>
      </trkpt>
      <trkpt lat="43.1262898352" lon="-4.2500703223">
        <ele>1121.03</ele>
        <time>2018-05-19T17:23:13Z</time>
      </trkpt>
      <trkpt lat="43.1263887417" lon="-4.2501882557">
        <ele>1119.11</ele>
        <time>2018-05-19T17:23:15Z</time>
      </trkpt>
      <trkpt lat="43.1265277136" lon="-4.2502576578">
        <ele>1118.15</ele>
        <time>2018-05-19T17:23:17Z</time>
      </trkpt>
      <trkpt lat="43.1266594771" lon="-4.2502745055">
        <ele>1117.67</ele>
        <time>2018-05-19T17:23:19Z</time>
      </trkpt>
      <trkpt lat="43.1268108543" lon="-4.2502610944">
        <ele>1116.23</ele>
        <time>2018-05-19T17:23:21Z</time>
      </trkpt>
      <trkpt lat="43.1269580405" lon="-4.2502227053">
        <ele>1115.75</ele>
        <time>2018-05-19T17:23:23Z</time>
      </trkpt>
      <trkpt lat="43.1270868704" lon="-4.2501345277">
        <ele>1114.31</ele>
        <time>2018-05-19T17:23:25Z</time>
      </trkpt>
      <trkpt lat="43.1272283569" lon="-4.2499897722">
        <ele>1112.38</ele>
        <time>2018-05-19T17:23:27Z</time>
      </trkpt>
      <trkpt lat="43.1273426022" lon="-4.2498879321">
        <ele>1111.90</ele>
        <time>2018-05-19T17:23:29Z</time>
      </trkpt>
      <trkpt lat="43.1274826638" lon="-4.2497843318">
        <ele>1109.98</ele>
        <time>2018-05-19T17:23:31Z</time>
      </trkpt>
      <trkpt lat="43.1276252400" lon="-4.2496825755">
        <ele>1108.54</ele>
        <time>2018-05-19T17:23:33Z</time>
      </trkpt>
      <trkpt lat="43.1277583446" lon="-4.2495513987">
        <ele>1107.58</ele>
        <time>2018-05-19T17:23:35Z</time>
      </trkpt>
      <trkpt lat="43.1278822292" lon="-4.2494398355">
        <ele>1105.65</ele>
        <time>2018-05-19T17:23:37Z</time>
      </trkpt>
      <trkpt lat="43.1280049402" lon="-4.2493284401">
        <ele>1105.65</ele>
        <time>2018-05-19T17:23:39Z</time>
      </trkpt>
      <trkpt lat="43.1281288248" lon="-4.2492181342">
        <ele>1104.21</ele>
        <time>2018-05-19T17:23:41Z</time>
      </trkpt>
      <trkpt lat="43.1282467581" lon="-4.2491131090">
        <ele>1102.77</ele>
        <time>2018-05-19T17:23:43Z</time>
      </trkpt>
      <trkpt lat="43.1283490174" lon="-4.2489707004">
        <ele>1101.81</ele>
        <time>2018-05-19T17:23:45Z</time>
      </trkpt>
      <trkpt lat="43.1284148153" lon="-4.2488479055">
        <ele>1101.33</ele>
        <time>2018-05-19T17:23:47Z</time>
      </trkpt>
      <trkpt lat="43.1284844689" lon="-4.2487257812">
        <ele>1100.37</ele>
        <time>2018-05-19T17:23:49Z</time>
      </trkpt>
      <trkpt lat="43.1285740715" lon="-4.2486371845">
        <ele>1099.89</ele>
        <time>2018-05-19T17:23:51Z</time>
      </trkpt>
      <trkpt lat="43.1286868919" lon="-4.2486098595">
        <ele>1098.44</ele>
        <time>2018-05-19T17:23:53Z</time>
      </trkpt>
      <trkpt lat="43.1288162246" lon="-4.2486385256">
        <ele>1096.52</ele>
        <time>2018-05-19T17:23:55Z</time>
      </trkpt>
      <trkpt lat="43.1289319787" lon="-4.2486887332">
        <ele>1095.56</ele>
        <time>2018-05-19T17:23:57Z</time>
      </trkpt>
      <trkpt lat="43.1290717889" lon="-4.2487623263">
        <ele>1093.64</ele>
        <time>2018-05-19T17:23:59Z</time>
      </trkpt>
      <trkpt lat="43.1292144489" lon="-4.2488500848">
        <ele>1092.20</ele>
        <time>2018-05-19T17:24:01Z</time>
      </trkpt>
      <trkpt lat="43.1293527503" lon="-4.2489473987">
        <ele>1091.71</ele>
        <time>2018-05-19T17:24:03Z</time>
      </trkpt>
      <trkpt lat="43.1295052171" lon="-4.2490550224">
        <ele>1089.31</ele>
        <time>2018-05-19T17:24:05Z</time>
      </trkpt>
      <trkpt lat="43.1296290178" lon="-4.2491366621">
        <ele>1088.35</ele>
        <time>2018-05-19T17:24:07Z</time>
      </trkpt>
      <trkpt lat="43.1297651399" lon="-4.2492440343">
        <ele>1087.39</ele>
        <time>2018-05-19T17:24:09Z</time>
      </trkpt>
      <trkpt lat="43.1299110688" lon="-4.2493501492">
        <ele>1085.95</ele>
        <time>2018-05-19T17:24:11Z</time>
      </trkpt>
      <trkpt lat="43.1300740968" lon="-4.2494338006">
        <ele>1084.02</ele>
        <time>2018-05-19T17:24:13Z</time>
      </trkpt>
      <trkpt lat="43.1302065309" lon="-4.2494825833">
        <ele>1083.06</ele>
        <time>2018-05-19T17:24:15Z</time>
      </trkpt>
      <trkpt lat="43.1303430721" lon="-4.2495242413">
        <ele>1082.58</ele>
        <time>2018-05-19T17:24:17Z</time>
      </trkpt>
      <trkpt lat="43.1304747518" lon="-4.2495188769">
        <ele>1082.10</ele>
        <time>2018-05-19T17:24:19Z</time>
      </trkpt>
      <trkpt lat="43.1305957865" lon="-4.2494545039">
        <ele>1082.10</ele>
        <time>2018-05-19T17:24:21Z</time>
      </trkpt>
      <trkpt lat="43.1307210121" lon="-4.2493698467">
        <ele>1081.14</ele>
        <time>2018-05-19T17:24:23Z</time>
      </trkpt>
      <trkpt lat="43.1308325753" lon="-4.2493231595">
        <ele>1080.18</ele>
        <time>2018-05-19T17:24:25Z</time>
      </trkpt>
      <trkpt lat="43.1309586391" lon="-4.2493276857">
        <ele>1079.22</ele>
        <time>2018-05-19T17:24:27Z</time>
      </trkpt>
      <trkpt lat="43.1310790870" lon="-4.2493109219">
        <ele>1078.26</ele>
        <time>2018-05-19T17:24:29Z</time>
      </trkpt>
      <trkpt lat="43.1311978586" lon="-4.2492245045">
        <ele>1077.29</ele>
        <time>2018-05-19T17:24:31Z</time>
      </trkpt>
      <trkpt lat="43.1312945019" lon="-4.2491345666">
        <ele>1076.33</ele>
        <time>2018-05-19T17:24:33Z</time>
      </trkpt>
      <trkpt lat="43.1314033829" lon="-4.2490447965">
        <ele>1074.89</ele>
        <time>2018-05-19T17:24:35Z</time>
      </trkpt>
      <trkpt lat="43.1315188017" lon="-4.2489520088">
        <ele>1073.93</ele>
        <time>2018-05-19T17:24:37Z</time>
      </trkpt>
      <trkpt lat="43.1316410098" lon="-4.2488927487">
        <ele>1072.97</ele>
        <time>2018-05-19T17:24:39Z</time>
      </trkpt>
      <trkpt lat="43.1317420118" lon="-4.2489032261">
        <ele>1071.53</ele>
        <time>2018-05-19T17:24:41Z</time>
      </trkpt>
      <trkpt lat="43.1318542454" lon="-4.2489784118">
        <ele>1070.08</ele>
        <time>2018-05-19T17:24:43Z</time>
      </trkpt>
      <trkpt lat="43.1319569238" lon="-4.2490965966">
        <ele>1069.12</ele>
        <time>2018-05-19T17:24:45Z</time>
      </trkpt>
      <trkpt lat="43.1320808083" lon="-4.2491856962">
        <ele>1068.16</ele>
        <time>2018-05-19T17:24:47Z</time>
      </trkpt>
      <trkpt lat="43.1322020944" lon="-4.2492017895">
        <ele>1067.68</ele>
        <time>2018-05-19T17:24:49Z</time>
      </trkpt>
      <trkpt lat="43.1323462632" lon="-4.2491868697">
        <ele>1065.28</ele>
        <time>2018-05-19T17:24:51Z</time>
      </trkpt>
      <trkpt lat="43.1324931141" lon="-4.2491744645">
        <ele>1064.32</ele>
        <time>2018-05-19T17:24:53Z</time>
      </trkpt>
      <trkpt lat="43.1326579023" lon="-4.2491916474">
        <ele>1063.84</ele>
        <time>2018-05-19T17:24:55Z</time>
      </trkpt>
      <trkpt lat="43.1327946112" lon="-4.2492228281">
        <ele>1061.91</ele>
        <time>2018-05-19T17:24:57Z</time>
      </trkpt>
      <trkpt lat="43.1329481676" lon="-4.2492411844">
        <ele>1059.99</ele>
        <time>2018-05-19T17:24:59Z</time>
      </trkpt>
      <trkpt lat="43.1331036519" lon="-4.2492201459">
        <ele>1059.99</ele>
        <time>2018-05-19T17:25:01Z</time>
      </trkpt>
      <trkpt lat="43.1332574598" lon="-4.2491966765">
        <ele>1058.07</ele>
        <time>2018-05-19T17:25:03Z</time>
      </trkpt>
      <trkpt lat="43.1334010419" lon="-4.2492136918">
        <ele>1058.07</ele>
        <time>2018-05-19T17:25:05Z</time>
      </trkpt>
      <trkpt lat="43.1335059833" lon="-4.2492763884">
        <ele>1058.55</ele>
        <time>2018-05-19T17:25:07Z</time>
      </trkpt>
      <trkpt lat="43.1335772295" lon="-4.2494095769">
        <ele>1057.11</ele>
        <time>2018-05-19T17:25:09Z</time>
      </trkpt>
      <trkpt lat="43.1336100865" lon="-4.2495926376">
        <ele>1055.67</ele>
        <time>2018-05-19T17:25:11Z</time>
      </trkpt>
      <trkpt lat="43.1336470507" lon="-4.2497751117">
        <ele>1054.22</ele>
        <time>2018-05-19T17:25:13Z</time>
      </trkpt>
      <trkpt lat="43.1336925644" lon="-4.2499066237">
        <ele>1054.22</ele>
        <time>2018-05-19T17:25:15Z</time>
      </trkpt>
      <trkpt lat="43.1337669119" lon="-4.2500136606">
        <ele>1053.74</ele>
        <time>2018-05-19T17:25:17Z</time>
      </trkpt>
      <trkpt lat="43.1338571850" lon="-4.2500927020">
        <ele>1052.30</ele>
        <time>2018-05-19T17:25:19Z</time>
      </trkpt>
      <trkpt lat="43.1339580193" lon="-4.2501955479">
        <ele>1051.34</ele>
        <time>2018-05-19T17:25:21Z</time>
      </trkpt>
      <trkpt lat="43.1340344623" lon="-4.2502885871">
        <ele>1050.38</ele>
        <time>2018-05-19T17:25:23Z</time>
      </trkpt>
      <trkpt lat="43.1341150124" lon="-4.2503904272">
        <ele>1049.90</ele>
        <time>2018-05-19T17:25:25Z</time>
      </trkpt>
      <trkpt lat="43.1341998372" lon="-4.2504800297">
        <ele>1048.45</ele>
        <time>2018-05-19T17:25:27Z</time>
      </trkpt>
      <trkpt lat="43.1342957262" lon="-4.2505828757">
        <ele>1047.49</ele>
        <time>2018-05-19T17:25:29Z</time>
      </trkpt>
      <trkpt lat="43.1343757734" lon="-4.2506605759">
        <ele>1046.05</ele>
        <time>2018-05-19T17:25:31Z</time>
      </trkpt>
      <trkpt lat="43.1344691478" lon="-4.2507433053">
        <ele>1045.09</ele>
        <time>2018-05-19T17:25:33Z</time>
      </trkpt>
      <trkpt lat="43.1345685571" lon="-4.2508215085">
        <ele>1044.13</ele>
        <time>2018-05-19T17:25:35Z</time>
      </trkpt>
      <trkpt lat="43.1346683856" lon="-4.2509027291">
        <ele>1044.13</ele>
        <time>2018-05-19T17:25:37Z</time>
      </trkpt>
      <trkpt lat="43.1347435713" lon="-4.2509802617">
        <ele>1043.65</ele>
        <time>2018-05-19T17:25:39Z</time>
      </trkpt>
      <trkpt lat="43.1348045077" lon="-4.2510860413">
        <ele>1043.17</ele>
        <time>2018-05-19T17:25:41Z</time>
      </trkpt>
      <trkpt lat="43.1348474231" lon="-4.2512074951">
        <ele>1041.73</ele>
        <time>2018-05-19T17:25:43Z</time>
      </trkpt>
      <trkpt lat="43.1348804478" lon="-4.2513405997">
        <ele>1041.25</ele>
        <time>2018-05-19T17:25:45Z</time>
      </trkpt>
      <trkpt lat="43.1348725688" lon="-4.2515328806">
        <ele>1040.76</ele>
        <time>2018-05-19T17:25:48Z</time>
      </trkpt>
      <trkpt lat="43.1348252110" lon="-4.2516696732">
        <ele>1039.32</ele>
        <time>2018-05-19T17:25:50Z</time>
      </trkpt>
      <trkpt lat="43.1347752549" lon="-4.2518177815">
        <ele>1038.36</ele>
        <time>2018-05-19T17:25:52Z</time>
      </trkpt>
      <trkpt lat="43.1347469240" lon="-4.2519542389">
        <ele>1037.40</ele>
        <time>2018-05-19T17:25:54Z</time>
      </trkpt>
      <trkpt lat="43.1347317528" lon="-4.2520963121">
        <ele>1036.44</ele>
        <time>2018-05-19T17:25:56Z</time>
      </trkpt>
      <trkpt lat="43.1347099598" lon="-4.2522410676">
        <ele>1035.48</ele>
        <time>2018-05-19T17:25:58Z</time>
      </trkpt>
      <trkpt lat="43.1346695591" lon="-4.2524068616">
        <ele>1035.48</ele>
        <time>2018-05-19T17:26:00Z</time>
      </trkpt>
      <trkpt lat="43.1346376240" lon="-4.2525336798">
        <ele>1034.52</ele>
        <time>2018-05-19T17:26:02Z</time>
      </trkpt>
      <trkpt lat="43.1346325949" lon="-4.2526747473">
        <ele>1032.11</ele>
        <time>2018-05-19T17:26:04Z</time>
      </trkpt>
      <trkpt lat="43.1346776895" lon="-4.2528215144">
        <ele>1031.15</ele>
        <time>2018-05-19T17:26:06Z</time>
      </trkpt>
      <trkpt lat="43.1347104628" lon="-4.2529775854">
        <ele>1031.15</ele>
        <time>2018-05-19T17:26:08Z</time>
      </trkpt>
      <trkpt lat="43.1347040925" lon="-4.2531195749">
        <ele>1030.19</ele>
        <time>2018-05-19T17:26:10Z</time>
      </trkpt>
      <trkpt lat="43.1346501969" lon="-4.2532258574">
        <ele>1029.71</ele>
        <time>2018-05-19T17:26:12Z</time>
      </trkpt>
      <trkpt lat="43.1345574930" lon="-4.2532862909">
        <ele>1029.71</ele>
        <time>2018-05-19T17:26:14Z</time>
      </trkpt>
      <trkpt lat="43.1344644539" lon="-4.2533188127">
        <ele>1028.75</ele>
        <time>2018-05-19T17:26:16Z</time>
      </trkpt>
      <trkpt lat="43.1343672238" lon="-4.2533785757">
        <ele>1028.27</ele>
        <time>2018-05-19T17:26:18Z</time>
      </trkpt>
      <trkpt lat="43.1342963967" lon="-4.2535217386">
        <ele>1027.31</ele>
        <time>2018-05-19T17:26:21Z</time>
      </trkpt>
      <trkpt lat="43.1343174353" lon="-4.2536601238">
        <ele>1025.38</ele>
        <time>2018-05-19T17:26:23Z</time>
      </trkpt>
      <trkpt lat="43.1343882624" lon="-4.2537918873">
        <ele>1024.42</ele>
        <time>2018-05-19T17:26:25Z</time>
      </trkpt>
      <trkpt lat="43.1344808824" lon="-4.2539520655">
        <ele>1022.02</ele>
        <time>2018-05-19T17:26:27Z</time>
      </trkpt>
      <trkpt lat="43.1345596723" lon="-4.2540893611">
        <ele>1021.06</ele>
        <time>2018-05-19T17:26:29Z</time>
      </trkpt>
      <trkpt lat="43.1346517056" lon="-4.2542360444">
        <ele>1019.62</ele>
        <time>2018-05-19T17:26:31Z</time>
      </trkpt>
      <trkpt lat="43.1347470917" lon="-4.2543889303">
        <ele>1018.65</ele>
        <time>2018-05-19T17:26:33Z</time>
      </trkpt>
      <trkpt lat="43.1348107941" lon="-4.2545150779">
        <ele>1018.17</ele>
        <time>2018-05-19T17:26:35Z</time>
      </trkpt>
      <trkpt lat="43.1348397955" lon="-4.2546577379">
        <ele>1017.69</ele>
        <time>2018-05-19T17:26:37Z</time>
      </trkpt>
      <trkpt lat="43.1348658632" lon="-4.2548200954">
        <ele>1016.25</ele>
        <time>2018-05-19T17:26:39Z</time>
      </trkpt>
      <trkpt lat="43.1348968763" lon="-4.2549873143">
        <ele>1014.81</ele>
        <time>2018-05-19T17:26:41Z</time>
      </trkpt>
      <trkpt lat="43.1349582318" lon="-4.2551531922">
        <ele>1013.37</ele>
        <time>2018-05-19T17:26:43Z</time>
      </trkpt>
      <trkpt lat="43.1350433920" lon="-4.2552774958">
        <ele>1012.89</ele>
        <time>2018-05-19T17:26:45Z</time>
      </trkpt>
      <trkpt lat="43.1351426337" lon="-4.2554075830">
        <ele>1011.93</ele>
        <time>2018-05-19T17:26:47Z</time>
      </trkpt>
      <trkpt lat="43.1352417078" lon="-4.2555364966">
        <ele>1010.96</ele>
        <time>2018-05-19T17:26:49Z</time>
      </trkpt>
      <trkpt lat="43.1353482418" lon="-4.2556558549">
        <ele>1010.48</ele>
        <time>2018-05-19T17:26:51Z</time>
      </trkpt>
      <trkpt lat="43.1354376767" lon="-4.2557675019">
        <ele>1008.56</ele>
        <time>2018-05-19T17:26:53Z</time>
      </trkpt>
      <trkpt lat="43.1355346553" lon="-4.2558645643">
        <ele>1007.12</ele>
        <time>2018-05-19T17:26:55Z</time>
      </trkpt>
      <trkpt lat="43.1356522534" lon="-4.2559021153">
        <ele>1006.64</ele>
        <time>2018-05-19T17:26:57Z</time>
      </trkpt>
      <trkpt lat="43.1357837655" lon="-4.2559283506">
        <ele>1005.20</ele>
        <time>2018-05-19T17:26:59Z</time>
      </trkpt>
      <trkpt lat="43.1358965021" lon="-4.2559969146">
        <ele>1003.75</ele>
        <time>2018-05-19T17:27:01Z</time>
      </trkpt>
      <trkpt lat="43.1359957438" lon="-4.2560964916">
        <ele>1003.75</ele>
        <time>2018-05-19T17:27:03Z</time>
      </trkpt>
      <trkpt lat="43.1360848434" lon="-4.2562047020">
        <ele>1003.27</ele>
        <time>2018-05-19T17:27:05Z</time>
      </trkpt>
      <trkpt lat="43.1361496355" lon="-4.2563424166">
        <ele>1001.83</ele>
        <time>2018-05-19T17:27:07Z</time>
      </trkpt>
      <trkpt lat="43.1361941434" lon="-4.2565046065">
        <ele>1001.35</ele>
        <time>2018-05-19T17:27:09Z</time>
      </trkpt>
      <trkpt lat="43.1362519786" lon="-4.2566233780">
        <ele>1000.87</ele>
        <time>2018-05-19T17:27:11Z</time>
      </trkpt>
      <trkpt lat="43.1363506336" lon="-4.2567061912">
        <ele>1000.39</ele>
        <time>2018-05-19T17:27:13Z</time>
      </trkpt>
      <trkpt lat="43.1364691537" lon="-4.2567123100">
        <ele>998.95</ele>
        <time>2018-05-19T17:27:15Z</time>
      </trkpt>
      <trkpt lat="43.1365736760" lon="-4.2566600908">
        <ele>997.99</ele>
        <time>2018-05-19T17:27:17Z</time>
      </trkpt>
      <trkpt lat="43.1366816349" lon="-4.2566458415">
        <ele>997.51</ele>
        <time>2018-05-19T17:27:19Z</time>
      </trkpt>
      <trkpt lat="43.1367527973" lon="-4.2567330971">
        <ele>997.51</ele>
        <time>2018-05-19T17:27:21Z</time>
      </trkpt>
      <trkpt lat="43.1368011609" lon="-4.2568560597">
        <ele>995.58</ele>
        <time>2018-05-19T17:27:23Z</time>
      </trkpt>
      <trkpt lat="43.1368730776" lon="-4.2569491826">
        <ele>994.62</ele>
        <time>2018-05-19T17:27:25Z</time>
      </trkpt>
      <trkpt lat="43.1369738281" lon="-4.2569634318">
        <ele>994.14</ele>
        <time>2018-05-19T17:27:27Z</time>
      </trkpt>
      <trkpt lat="43.1370685436" lon="-4.2569614202">
        <ele>993.66</ele>
        <time>2018-05-19T17:27:29Z</time>
      </trkpt>
      <trkpt lat="43.1371719763" lon="-4.2570076045">
        <ele>992.70</ele>
        <time>2018-05-19T17:27:31Z</time>
      </trkpt>
      <trkpt lat="43.1372567173" lon="-4.2571135517">
        <ele>991.26</ele>
        <time>2018-05-19T17:27:33Z</time>
      </trkpt>
      <trkpt lat="43.1373336632" lon="-4.2572249472">
        <ele>990.30</ele>
        <time>2018-05-19T17:27:35Z</time>
      </trkpt>
      <trkpt lat="43.1374213379" lon="-4.2573383544">
        <ele>988.85</ele>
        <time>2018-05-19T17:27:37Z</time>
      </trkpt>
      <trkpt lat="43.1374972779" lon="-4.2574450560">
        <ele>988.37</ele>
        <time>2018-05-19T17:27:39Z</time>
      </trkpt>
      <trkpt lat="43.1375736371" lon="-4.2575675156">
        <ele>987.89</ele>
        <time>2018-05-19T17:27:41Z</time>
      </trkpt>
      <trkpt lat="43.1376498286" lon="-4.2576917354">
        <ele>986.93</ele>
        <time>2018-05-19T17:27:43Z</time>
      </trkpt>
      <trkpt lat="43.1377434544" lon="-4.2578257620">
        <ele>985.01</ele>
        <time>2018-05-19T17:27:45Z</time>
      </trkpt>
      <trkpt lat="43.1378120184" lon="-4.2579317093">
        <ele>984.53</ele>
        <time>2018-05-19T17:27:47Z</time>
      </trkpt>
      <trkpt lat="43.1378958374" lon="-4.2580451164">
        <ele>983.57</ele>
        <time>2018-05-19T17:27:49Z</time>
      </trkpt>
      <trkpt lat="43.1379690953" lon="-4.2581734434">
        <ele>982.12</ele>
        <time>2018-05-19T17:27:51Z</time>
      </trkpt>
      <trkpt lat="43.1380415987" lon="-4.2583249044">
        <ele>981.64</ele>
        <time>2018-05-19T17:27:53Z</time>
      </trkpt>
      <trkpt lat="43.1380970869" lon="-4.2585113179">
        <ele>980.68</ele>
        <time>2018-05-19T17:27:55Z</time>
      </trkpt>
      <trkpt lat="43.1381568499" lon="-4.2586598452">
        <ele>979.24</ele>
        <time>2018-05-19T17:27:57Z</time>
      </trkpt>
      <trkpt lat="43.1382517330" lon="-4.2588064447">
        <ele>978.28</ele>
        <time>2018-05-19T17:27:59Z</time>
      </trkpt>
      <trkpt lat="43.1383494660" lon="-4.2589325923">
        <ele>976.84</ele>
        <time>2018-05-19T17:28:01Z</time>
      </trkpt>
      <trkpt lat="43.1384405773" lon="-4.2591017392">
        <ele>975.88</ele>
        <time>2018-05-19T17:28:03Z</time>
      </trkpt>
      <trkpt lat="43.1385034416" lon="-4.2592464946">
        <ele>975.39</ele>
        <time>2018-05-19T17:28:05Z</time>
      </trkpt>
      <trkpt lat="43.1385983247" lon="-4.2593935970">
        <ele>973.47</ele>
        <time>2018-05-19T17:28:07Z</time>
      </trkpt>
      <trkpt lat="43.1387067866" lon="-4.2595219240">
        <ele>972.51</ele>
        <time>2018-05-19T17:28:09Z</time>
      </trkpt>
      <trkpt lat="43.1388088781" lon="-4.2596686073">
        <ele>971.07</ele>
        <time>2018-05-19T17:28:11Z</time>
      </trkpt>
      <trkpt lat="43.1389120594" lon="-4.2598380893">
        <ele>969.63</ele>
        <time>2018-05-19T17:28:13Z</time>
      </trkpt>
      <trkpt lat="43.1390142348" lon="-4.2600113433">
        <ele>967.70</ele>
        <time>2018-05-19T17:28:15Z</time>
      </trkpt>
      <trkpt lat="43.1391024124" lon="-4.2601632234">
        <ele>966.26</ele>
        <time>2018-05-19T17:28:17Z</time>
      </trkpt>
      <trkpt lat="43.1392005645" lon="-4.2603259999">
        <ele>964.82</ele>
        <time>2018-05-19T17:28:19Z</time>
      </trkpt>
      <trkpt lat="43.1392996386" lon="-4.2604763713">
        <ele>964.82</ele>
        <time>2018-05-19T17:28:21Z</time>
      </trkpt>
      <trkpt lat="43.1394082680" lon="-4.2606394831">
        <ele>962.90</ele>
        <time>2018-05-19T17:28:23Z</time>
      </trkpt>
      <trkpt lat="43.1394997146" lon="-4.2607736774">
        <ele>961.94</ele>
        <time>2018-05-19T17:28:25Z</time>
      </trkpt>
      <trkpt lat="43.1396151334" lon="-4.2609159183">
        <ele>960.98</ele>
        <time>2018-05-19T17:28:27Z</time>
      </trkpt>
      <trkpt lat="43.1397405267" lon="-4.2610504478">
        <ele>959.53</ele>
        <time>2018-05-19T17:28:29Z</time>
      </trkpt>
      <trkpt lat="43.1398711167" lon="-4.2611869890">
        <ele>957.13</ele>
        <time>2018-05-19T17:28:31Z</time>
      </trkpt>
      <trkpt lat="43.1400089152" lon="-4.2613324989">
        <ele>955.69</ele>
        <time>2018-05-19T17:28:33Z</time>
      </trkpt>
      <trkpt lat="43.1401231606" lon="-4.2614491750">
        <ele>953.77</ele>
        <time>2018-05-19T17:28:35Z</time>
      </trkpt>
      <trkpt lat="43.1402520742" lon="-4.2615729757">
        <ele>953.77</ele>
        <time>2018-05-19T17:28:37Z</time>
      </trkpt>
      <trkpt lat="43.1403792277" lon="-4.2616856284">
        <ele>952.80</ele>
        <time>2018-05-19T17:28:39Z</time>
      </trkpt>
      <trkpt lat="43.1405114941" lon="-4.2617854569">
        <ele>950.88</ele>
        <time>2018-05-19T17:28:41Z</time>
      </trkpt>
      <trkpt lat="43.1406531483" lon="-4.2618688568">
        <ele>950.40</ele>
        <time>2018-05-19T17:28:43Z</time>
      </trkpt>
      <trkpt lat="43.1407876778" lon="-4.2619227525">
        <ele>948.48</ele>
        <time>2018-05-19T17:28:45Z</time>
      </trkpt>
      <trkpt lat="43.1409269851" lon="-4.2619509995">
        <ele>947.52</ele>
        <time>2018-05-19T17:28:47Z</time>
      </trkpt>
      <trkpt lat="43.1410729978" lon="-4.2619597167">
        <ele>947.04</ele>
        <time>2018-05-19T17:28:49Z</time>
      </trkpt>
      <trkpt lat="43.1412188429" lon="-4.2619437911">
        <ele>945.59</ele>
        <time>2018-05-19T17:28:51Z</time>
      </trkpt>
      <trkpt lat="43.1413689628" lon="-4.2618978582">
        <ele>944.63</ele>
        <time>2018-05-19T17:28:53Z</time>
      </trkpt>
      <trkpt lat="43.1415058393" lon="-4.2618446331">
        <ele>943.19</ele>
        <time>2018-05-19T17:28:55Z</time>
      </trkpt>
      <trkpt lat="43.1416377705" lon="-4.2617736384">
        <ele>942.71</ele>
        <time>2018-05-19T17:28:57Z</time>
      </trkpt>
      <trkpt lat="43.1417890638" lon="-4.2617042363">
        <ele>940.79</ele>
        <time>2018-05-19T17:28:59Z</time>
      </trkpt>
      <trkpt lat="43.1419123616" lon="-4.2616854608">
        <ele>938.86</ele>
        <time>2018-05-19T17:29:01Z</time>
      </trkpt>
      <trkpt lat="43.1420462206" lon="-4.2617018893">
        <ele>938.38</ele>
        <time>2018-05-19T17:29:03Z</time>
      </trkpt>
      <trkpt lat="43.1421696022" lon="-4.2617475707">
        <ele>937.42</ele>
        <time>2018-05-19T17:29:05Z</time>
      </trkpt>
      <trkpt lat="43.1422792375" lon="-4.2617633287">
        <ele>936.94</ele>
        <time>2018-05-19T17:29:07Z</time>
      </trkpt>
      <trkpt lat="43.1423716899" lon="-4.2616962735">
        <ele>935.98</ele>
        <time>2018-05-19T17:29:09Z</time>
      </trkpt>
      <trkpt lat="43.1424615439" lon="-4.2615698744">
        <ele>934.54</ele>
        <time>2018-05-19T17:29:11Z</time>
      </trkpt>
      <trkpt lat="43.1425356399" lon="-4.2614683695">
        <ele>934.06</ele>
        <time>2018-05-19T17:29:13Z</time>
      </trkpt>
      <trkpt lat="43.1426188722" lon="-4.2613333371">
        <ele>933.58</ele>
        <time>2018-05-19T17:29:15Z</time>
      </trkpt>
      <trkpt lat="43.1426967401" lon="-4.2611870728">
        <ele>932.14</ele>
        <time>2018-05-19T17:29:17Z</time>
      </trkpt>
      <trkpt lat="43.1427690759" lon="-4.2610444967">
        <ele>931.65</ele>
        <time>2018-05-19T17:29:19Z</time>
      </trkpt>
      <trkpt lat="43.1428572536" lon="-4.2608852405">
        <ele>929.73</ele>
        <time>2018-05-19T17:29:21Z</time>
      </trkpt>
      <trkpt lat="43.1429302599" lon="-4.2607736774">
        <ele>929.25</ele>
        <time>2018-05-19T17:29:23Z</time>
      </trkpt>
      <trkpt lat="43.1430213712" lon="-4.2606525589">
        <ele>927.81</ele>
        <time>2018-05-19T17:29:25Z</time>
      </trkpt>
      <trkpt lat="43.1431147456" lon="-4.2605401576">
        <ele>926.85</ele>
        <time>2018-05-19T17:29:27Z</time>
      </trkpt>
      <trkpt lat="43.1432028394" lon="-4.2604261637">
        <ele>926.37</ele>
        <time>2018-05-19T17:29:29Z</time>
      </trkpt>
      <trkpt lat="43.1432921905" lon="-4.2603134271">
        <ele>924.93</ele>
        <time>2018-05-19T17:29:31Z</time>
      </trkpt>
      <trkpt lat="43.1433781888" lon="-4.2602436058">
        <ele>923.96</ele>
        <time>2018-05-19T17:29:33Z</time>
      </trkpt>
      <trkpt lat="43.1434890814" lon="-4.2602303624">
        <ele>922.52</ele>
        <time>2018-05-19T17:29:35Z</time>
      </trkpt>
      <trkpt lat="43.1435999740" lon="-4.2602483835">
        <ele>922.04</ele>
        <time>2018-05-19T17:29:37Z</time>
      </trkpt>
      <trkpt lat="43.1437176559" lon="-4.2602731939">
        <ele>920.60</ele>
        <time>2018-05-19T17:29:39Z</time>
      </trkpt>
      <trkpt lat="43.1438090187" lon="-4.2602949031">
        <ele>920.12</ele>
        <time>2018-05-19T17:29:41Z</time>
      </trkpt>
      <trkpt lat="43.1439157203" lon="-4.2603339627">
        <ele>919.64</ele>
        <time>2018-05-19T17:29:43Z</time>
      </trkpt>
      <trkpt lat="43.1440206617" lon="-4.2603963241">
        <ele>918.20</ele>
        <time>2018-05-19T17:29:45Z</time>
      </trkpt>
      <trkpt lat="43.1441185623" lon="-4.2604843341">
        <ele>917.24</ele>
        <time>2018-05-19T17:29:47Z</time>
      </trkpt>
      <trkpt lat="43.1441977713" lon="-4.2605682369">
        <ele>916.75</ele>
        <time>2018-05-19T17:29:49Z</time>
      </trkpt>
      <trkpt lat="43.1442749687" lon="-4.2606568336">
        <ele>915.79</ele>
        <time>2018-05-19T17:29:51Z</time>
      </trkpt>
      <trkpt lat="43.1443477236" lon="-4.2607483640">
        <ele>915.31</ele>
        <time>2018-05-19T17:29:53Z</time>
      </trkpt>
      <trkpt lat="43.1444132701" lon="-4.2608454265">
        <ele>914.83</ele>
        <time>2018-05-19T17:29:55Z</time>
      </trkpt>
      <trkpt lat="43.1444844324" lon="-4.2609149963">
        <ele>914.35</ele>
        <time>2018-05-19T17:29:57Z</time>
      </trkpt>
      <trkpt lat="43.1445229892" lon="-4.2608165089">
        <ele>914.35</ele>
        <time>2018-05-19T17:30:01Z</time>
      </trkpt>
      <trkpt lat="43.1444456242" lon="-4.2607077956">
        <ele>914.35</ele>
        <time>2018-05-19T17:30:05Z</time>
      </trkpt>
      <trkpt lat="43.1443648227" lon="-4.2606421653">
        <ele>914.83</ele>
        <time>2018-05-19T17:30:10Z</time>
      </trkpt>
      <trkpt lat="43.1443805806" lon="-4.2606379744">
        <ele>915.31</ele>
        <time>2018-05-19T17:35:12Z</time>
      </trkpt>
      <trkpt lat="43.1443166267" lon="-4.2605287582">
        <ele>915.31</ele>
        <time>2018-05-19T17:35:17Z</time>
      </trkpt>
      <trkpt lat="43.1442516670" lon="-4.2604082264">
        <ele>915.31</ele>
        <time>2018-05-19T17:35:20Z</time>
      </trkpt>
      <trkpt lat="43.1441764813" lon="-4.2602575198">
        <ele>914.35</ele>
        <time>2018-05-19T17:35:23Z</time>
      </trkpt>
      <trkpt lat="43.1441115215" lon="-4.2601348925">
        <ele>914.35</ele>
        <time>2018-05-19T17:35:25Z</time>
      </trkpt>
      <trkpt lat="43.1440499146" lon="-4.2600379977">
        <ele>913.87</ele>
        <time>2018-05-19T17:35:27Z</time>
      </trkpt>
      <trkpt lat="43.1439787522" lon="-4.2599328887">
        <ele>913.87</ele>
        <time>2018-05-19T17:35:29Z</time>
      </trkpt>
      <trkpt lat="43.1438997947" lon="-4.2598251812">
        <ele>913.87</ele>
        <time>2018-05-19T17:35:31Z</time>
      </trkpt>
      <trkpt lat="43.1437981222" lon="-4.2597333156">
        <ele>913.39</ele>
        <time>2018-05-19T17:35:33Z</time>
      </trkpt>
      <trkpt lat="43.1437041610" lon="-4.2596917413">
        <ele>913.39</ele>
        <time>2018-05-19T17:35:35Z</time>
      </trkpt>
      <trkpt lat="43.1436004769" lon="-4.2596572917">
        <ele>913.39</ele>
        <time>2018-05-19T17:35:37Z</time>
      </trkpt>
      <trkpt lat="43.1435018219" lon="-4.2596158851">
        <ele>913.39</ele>
        <time>2018-05-19T17:35:39Z</time>
      </trkpt>
      <trkpt lat="43.1434074417" lon="-4.2595218401">
        <ele>913.39</ele>
        <time>2018-05-19T17:35:41Z</time>
      </trkpt>
      <trkpt lat="43.1433553901" lon="-4.2593931779">
        <ele>912.91</ele>
        <time>2018-05-19T17:35:43Z</time>
      </trkpt>
      <trkpt lat="43.1433068588" lon="-4.2592380289">
        <ele>912.91</ele>
        <time>2018-05-19T17:35:45Z</time>
      </trkpt>
      <trkpt lat="43.1432648655" lon="-4.2590687145">
        <ele>911.47</ele>
        <time>2018-05-19T17:35:47Z</time>
      </trkpt>
      <trkpt lat="43.1432432402" lon="-4.2588740867">
        <ele>909.54</ele>
        <time>2018-05-19T17:35:49Z</time>
      </trkpt>
      <trkpt lat="43.1432102155" lon="-4.2587400600">
        <ele>908.10</ele>
        <time>2018-05-19T17:35:51Z</time>
      </trkpt>
      <trkpt lat="43.1431174278" lon="-4.2586503737">
        <ele>907.62</ele>
        <time>2018-05-19T17:35:53Z</time>
      </trkpt>
      <trkpt lat="43.1429975666" lon="-4.2586505413">
        <ele>906.18</ele>
        <time>2018-05-19T17:35:55Z</time>
      </trkpt>
      <trkpt lat="43.1428770348" lon="-4.2586916965">
        <ele>905.22</ele>
        <time>2018-05-19T17:35:57Z</time>
      </trkpt>
      <trkpt lat="43.1427414995" lon="-4.2587725818">
        <ele>903.78</ele>
        <time>2018-05-19T17:35:59Z</time>
      </trkpt>
      <trkpt lat="43.1426384021" lon="-4.2588718235">
        <ele>902.82</ele>
        <time>2018-05-19T17:36:01Z</time>
      </trkpt>
      <trkpt lat="43.1425370649" lon="-4.2589935288">
        <ele>902.33</ele>
        <time>2018-05-19T17:36:03Z</time>
      </trkpt>
      <trkpt lat="43.1424541678" lon="-4.2590979673">
        <ele>901.85</ele>
        <time>2018-05-19T17:36:05Z</time>
      </trkpt>
      <trkpt lat="43.1423590332" lon="-4.2591193411">
        <ele>901.85</ele>
        <time>2018-05-19T17:36:07Z</time>
      </trkpt>
      <trkpt lat="43.1423153635" lon="-4.2589502782">
        <ele>899.93</ele>
        <time>2018-05-19T17:36:10Z</time>
      </trkpt>
      <trkpt lat="43.1423535850" lon="-4.2587958835">
        <ele>898.97</ele>
        <time>2018-05-19T17:36:12Z</time>
      </trkpt>
      <trkpt lat="43.1424174551" lon="-4.2586358730">
        <ele>898.01</ele>
        <time>2018-05-19T17:36:14Z</time>
      </trkpt>
      <trkpt lat="43.1425006874" lon="-4.2584693246">
        <ele>896.57</ele>
        <time>2018-05-19T17:36:16Z</time>
      </trkpt>
      <trkpt lat="43.1425941456" lon="-4.2583430093">
        <ele>896.09</ele>
        <time>2018-05-19T17:36:18Z</time>
      </trkpt>
      <trkpt lat="43.1427102350" lon="-4.2582220584">
        <ele>895.61</ele>
        <time>2018-05-19T17:36:20Z</time>
      </trkpt>
      <trkpt lat="43.1428248156" lon="-4.2581058852">
        <ele>895.12</ele>
        <time>2018-05-19T17:36:22Z</time>
      </trkpt>
      <trkpt lat="43.1429317687" lon="-4.2579733673">
        <ele>894.64</ele>
        <time>2018-05-19T17:36:24Z</time>
      </trkpt>
      <trkpt lat="43.1430142466" lon="-4.2578322161">
        <ele>894.64</ele>
        <time>2018-05-19T17:36:26Z</time>
      </trkpt>
      <trkpt lat="43.1430890970" lon="-4.2576482333">
        <ele>893.68</ele>
        <time>2018-05-19T17:36:28Z</time>
      </trkpt>
      <trkpt lat="43.1431472674" lon="-4.2574356683">
        <ele>891.76</ele>
        <time>2018-05-19T17:36:30Z</time>
      </trkpt>
      <trkpt lat="43.1431855727" lon="-4.2572075967">
        <ele>890.32</ele>
        <time>2018-05-19T17:36:32Z</time>
      </trkpt>
      <trkpt lat="43.1432033423" lon="-4.2570816167">
        <ele>889.36</ele>
        <time>2018-05-19T17:36:33Z</time>
      </trkpt>
      <trkpt lat="43.1432387140" lon="-4.2568784393">
        <ele>888.40</ele>
        <time>2018-05-19T17:36:35Z</time>
      </trkpt>
      <trkpt lat="43.1432776060" lon="-4.2566557322">
        <ele>886.47</ele>
        <time>2018-05-19T17:36:37Z</time>
      </trkpt>
      <trkpt lat="43.1433175877" lon="-4.2564429995">
        <ele>885.51</ele>
        <time>2018-05-19T17:36:39Z</time>
      </trkpt>
      <trkpt lat="43.1433710642" lon="-4.2562216334">
        <ele>884.07</ele>
        <time>2018-05-19T17:36:41Z</time>
      </trkpt>
      <trkpt lat="43.1434263010" lon="-4.2560519837">
        <ele>883.11</ele>
        <time>2018-05-19T17:36:43Z</time>
      </trkpt>
      <trkpt lat="43.1434842199" lon="-4.2558759637">
        <ele>882.15</ele>
        <time>2018-05-19T17:36:45Z</time>
      </trkpt>
      <trkpt lat="43.1435316615" lon="-4.2557010334">
        <ele>881.19</ele>
        <time>2018-05-19T17:36:47Z</time>
      </trkpt>
      <trkpt lat="43.1435784325" lon="-4.2554986104">
        <ele>879.26</ele>
        <time>2018-05-19T17:36:49Z</time>
      </trkpt>
      <trkpt lat="43.1436455715" lon="-4.2553527653">
        <ele>877.82</ele>
        <time>2018-05-19T17:36:51Z</time>
      </trkpt>
      <trkpt lat="43.1437505968" lon="-4.2552674375">
        <ele>876.86</ele>
        <time>2018-05-19T17:36:53Z</time>
      </trkpt>
      <trkpt lat="43.1438847072" lon="-4.2552664317">
        <ele>876.38</ele>
        <time>2018-05-19T17:36:55Z</time>
      </trkpt>
      <trkpt lat="43.1440204941" lon="-4.2553366721">
        <ele>875.90</ele>
        <time>2018-05-19T17:36:57Z</time>
      </trkpt>
      <trkpt lat="43.1441321410" lon="-4.2554315552">
        <ele>874.94</ele>
        <time>2018-05-19T17:36:59Z</time>
      </trkpt>
      <trkpt lat="43.1442372501" lon="-4.2555540986">
        <ele>874.46</ele>
        <time>2018-05-19T17:37:01Z</time>
      </trkpt>
      <trkpt lat="43.1443420239" lon="-4.2556825094">
        <ele>873.01</ele>
        <time>2018-05-19T17:37:03Z</time>
      </trkpt>
      <trkpt lat="43.1444652379" lon="-4.2558107525">
        <ele>871.57</ele>
        <time>2018-05-19T17:37:05Z</time>
      </trkpt>
      <trkpt lat="43.1445867755" lon="-4.2559466232">
        <ele>869.65</ele>
        <time>2018-05-19T17:37:07Z</time>
      </trkpt>
      <trkpt lat="43.1446857657" lon="-4.2560995929">
        <ele>866.29</ele>
        <time>2018-05-19T17:37:09Z</time>
      </trkpt>
      <trkpt lat="43.1447651424" lon="-4.2563130800">
        <ele>864.84</ele>
        <time>2018-05-19T17:37:11Z</time>
      </trkpt>
      <trkpt lat="43.1447995082" lon="-4.2564236373">
        <ele>864.84</ele>
        <time>2018-05-19T17:37:12Z</time>
      </trkpt>
      <trkpt lat="43.1448399927" lon="-4.2565416545">
        <ele>863.40</ele>
        <time>2018-05-19T17:37:13Z</time>
      </trkpt>
      <trkpt lat="43.1448834110" lon="-4.2566741724">
        <ele>861.96</ele>
        <time>2018-05-19T17:37:14Z</time>
      </trkpt>
      <trkpt lat="43.1449245661" lon="-4.2568021640">
        <ele>861.00</ele>
        <time>2018-05-19T17:37:15Z</time>
      </trkpt>
      <trkpt lat="43.1450015958" lon="-4.2570108734">
        <ele>859.08</ele>
        <time>2018-05-19T17:37:17Z</time>
      </trkpt>
      <trkpt lat="43.1450497918" lon="-4.2571232747">
        <ele>858.59</ele>
        <time>2018-05-19T17:37:18Z</time>
      </trkpt>
      <trkpt lat="43.1451362092" lon="-4.2573338281">
        <ele>857.15</ele>
        <time>2018-05-19T17:37:20Z</time>
      </trkpt>
      <trkpt lat="43.1451866683" lon="-4.2574584670">
        <ele>856.67</ele>
        <time>2018-05-19T17:37:21Z</time>
      </trkpt>
      <trkpt lat="43.1452523824" lon="-4.2576417793">
        <ele>855.23</ele>
        <time>2018-05-19T17:37:23Z</time>
      </trkpt>
      <trkpt lat="43.1453272328" lon="-4.2578285281">
        <ele>852.83</ele>
        <time>2018-05-19T17:37:25Z</time>
      </trkpt>
      <trkpt lat="43.1454346888" lon="-4.2579678353">
        <ele>851.38</ele>
        <time>2018-05-19T17:37:27Z</time>
      </trkpt>
      <trkpt lat="43.1455940288" lon="-4.2580747884">
        <ele>848.98</ele>
        <time>2018-05-19T17:37:29Z</time>
      </trkpt>
      <trkpt lat="43.1457263790" lon="-4.2581610382">
        <ele>847.06</ele>
        <time>2018-05-19T17:37:31Z</time>
      </trkpt>
      <trkpt lat="43.1458861381" lon="-4.2582677398">
        <ele>844.66</ele>
        <time>2018-05-19T17:37:33Z</time>
      </trkpt>
      <trkpt lat="43.1459632516" lon="-4.2583208811">
        <ele>843.69</ele>
        <time>2018-05-19T17:37:34Z</time>
      </trkpt>
      <trkpt lat="43.1460450590" lon="-4.2583864275">
        <ele>842.25</ele>
        <time>2018-05-19T17:37:35Z</time>
      </trkpt>
      <trkpt lat="43.1461299676" lon="-4.2584671453">
        <ele>840.81</ele>
        <time>2018-05-19T17:37:36Z</time>
      </trkpt>
      <trkpt lat="43.1462160498" lon="-4.2585597653">
        <ele>839.37</ele>
        <time>2018-05-19T17:37:37Z</time>
      </trkpt>
      <trkpt lat="43.1463445444" lon="-4.2587041017">
        <ele>838.41</ele>
        <time>2018-05-19T17:37:39Z</time>
      </trkpt>
      <trkpt lat="43.1464152038" lon="-4.2587862443">
        <ele>837.93</ele>
        <time>2018-05-19T17:37:40Z</time>
      </trkpt>
      <trkpt lat="43.1464829296" lon="-4.2588667944">
        <ele>837.93</ele>
        <time>2018-05-19T17:37:41Z</time>
      </trkpt>
      <trkpt lat="43.1466199737" lon="-4.2590200994">
        <ele>836.00</ele>
        <time>2018-05-19T17:37:43Z</time>
      </trkpt>
      <trkpt lat="43.1467093248" lon="-4.2590986378">
        <ele>835.04</ele>
        <time>2018-05-19T17:37:44Z</time>
      </trkpt>
      <trkpt lat="43.1467950717" lon="-4.2591615021">
        <ele>833.60</ele>
        <time>2018-05-19T17:37:45Z</time>
      </trkpt>
      <trkpt lat="43.1469398271" lon="-4.2592689581">
        <ele>832.16</ele>
        <time>2018-05-19T17:37:47Z</time>
      </trkpt>
      <trkpt lat="43.1470876839" lon="-4.2594039906">
        <ele>830.72</ele>
        <time>2018-05-19T17:37:49Z</time>
      </trkpt>
      <trkpt lat="43.1472305954" lon="-4.2595254444">
        <ele>830.24</ele>
        <time>2018-05-19T17:37:51Z</time>
      </trkpt>
      <trkpt lat="43.1473118998" lon="-4.2595917452">
        <ele>828.31</ele>
        <time>2018-05-19T17:37:52Z</time>
      </trkpt>
      <trkpt lat="43.1473972276" lon="-4.2596687749">
        <ele>826.87</ele>
        <time>2018-05-19T17:37:53Z</time>
      </trkpt>
      <trkpt lat="43.1475324277" lon="-4.2598053999">
        <ele>824.95</ele>
        <time>2018-05-19T17:37:55Z</time>
      </trkpt>
      <trkpt lat="43.1476067752" lon="-4.2598849442">
        <ele>824.47</ele>
        <time>2018-05-19T17:37:56Z</time>
      </trkpt>
      <trkpt lat="43.1476812903" lon="-4.2599680927">
        <ele>822.55</ele>
        <time>2018-05-19T17:37:57Z</time>
      </trkpt>
      <trkpt lat="43.1477567274" lon="-4.2600545939">
        <ele>822.06</ele>
        <time>2018-05-19T17:37:58Z</time>
      </trkpt>
      <trkpt lat="43.1478340924" lon="-4.2601434421">
        <ele>820.14</ele>
        <time>2018-05-19T17:37:59Z</time>
      </trkpt>
      <trkpt lat="43.1479156483" lon="-4.2602383252">
        <ele>819.66</ele>
        <time>2018-05-19T17:38:00Z</time>
      </trkpt>
      <trkpt lat="43.1480043288" lon="-4.2603421770">
        <ele>819.66</ele>
        <time>2018-05-19T17:38:01Z</time>
      </trkpt>
      <trkpt lat="43.1481282134" lon="-4.2604783829">
        <ele>818.22</ele>
        <time>2018-05-19T17:38:03Z</time>
      </trkpt>
      <trkpt lat="43.1482017227" lon="-4.2605596874">
        <ele>816.78</ele>
        <time>2018-05-19T17:38:04Z</time>
      </trkpt>
      <trkpt lat="43.1482748128" lon="-4.2606444284">
        <ele>815.34</ele>
        <time>2018-05-19T17:38:05Z</time>
      </trkpt>
      <trkpt lat="43.1483462267" lon="-4.2607323546">
        <ele>814.37</ele>
        <time>2018-05-19T17:38:06Z</time>
      </trkpt>
      <trkpt lat="43.1484181434" lon="-4.2608191073">
        <ele>813.41</ele>
        <time>2018-05-19T17:38:07Z</time>
      </trkpt>
      <trkpt lat="43.1484902278" lon="-4.2609026749">
        <ele>812.45</ele>
        <time>2018-05-19T17:38:08Z</time>
      </trkpt>
      <trkpt lat="43.1485728733" lon="-4.2609911039">
        <ele>811.49</ele>
        <time>2018-05-19T17:38:09Z</time>
      </trkpt>
      <trkpt lat="43.1486446224" lon="-4.2610592488">
        <ele>811.49</ele>
        <time>2018-05-19T17:38:10Z</time>
      </trkpt>
      <trkpt lat="43.1487724464" lon="-4.2611517850">
        <ele>811.01</ele>
        <time>2018-05-19T17:38:12Z</time>
      </trkpt>
      <trkpt lat="43.1489203032" lon="-4.2612261325">
        <ele>808.61</ele>
        <time>2018-05-19T17:38:14Z</time>
      </trkpt>
      <trkpt lat="43.1490669027" lon="-4.2613315769">
        <ele>806.20</ele>
        <time>2018-05-19T17:38:16Z</time>
      </trkpt>
      <trkpt lat="43.1491441838" lon="-4.2613937706">
        <ele>805.24</ele>
        <time>2018-05-19T17:38:17Z</time>
      </trkpt>
      <trkpt lat="43.1492835749" lon="-4.2615213431">
        <ele>803.80</ele>
        <time>2018-05-19T17:38:19Z</time>
      </trkpt>
      <trkpt lat="43.1493898574" lon="-4.2616452277">
        <ele>801.40</ele>
        <time>2018-05-19T17:38:21Z</time>
      </trkpt>
      <trkpt lat="43.1494990736" lon="-4.2617858760">
        <ele>800.92</ele>
        <time>2018-05-19T17:38:23Z</time>
      </trkpt>
      <trkpt lat="43.1496113911" lon="-4.2619308829">
        <ele>798.99</ele>
        <time>2018-05-19T17:38:25Z</time>
      </trkpt>
      <trkpt lat="43.1496750098" lon="-4.2620138638">
        <ele>797.55</ele>
        <time>2018-05-19T17:38:26Z</time>
      </trkpt>
      <trkpt lat="43.1497879140" lon="-4.2621771432">
        <ele>795.15</ele>
        <time>2018-05-19T17:38:28Z</time>
      </trkpt>
      <trkpt lat="43.1498454139" lon="-4.2622700986">
        <ele>794.19</ele>
        <time>2018-05-19T17:38:29Z</time>
      </trkpt>
      <trkpt lat="43.1499596592" lon="-4.2624687497">
        <ele>792.26</ele>
        <time>2018-05-19T17:38:31Z</time>
      </trkpt>
      <trkpt lat="43.1500107050" lon="-4.2625689972">
        <ele>791.78</ele>
        <time>2018-05-19T17:38:32Z</time>
      </trkpt>
      <trkpt lat="43.1501197536" lon="-4.2627803888">
        <ele>789.86</ele>
        <time>2018-05-19T17:38:34Z</time>
      </trkpt>
      <trkpt lat="43.1502341665" lon="-4.2629596777">
        <ele>789.38</ele>
        <time>2018-05-19T17:38:36Z</time>
      </trkpt>
      <trkpt lat="43.1503545307" lon="-4.2631375417">
        <ele>787.94</ele>
        <time>2018-05-19T17:38:38Z</time>
      </trkpt>
      <trkpt lat="43.1504492462" lon="-4.2633069400">
        <ele>787.94</ele>
        <time>2018-05-19T17:38:40Z</time>
      </trkpt>
      <trkpt lat="43.1505404413" lon="-4.2634718120">
        <ele>786.98</ele>
        <time>2018-05-19T17:38:42Z</time>
      </trkpt>
      <trkpt lat="43.1506474782" lon="-4.2636434734">
        <ele>786.02</ele>
        <time>2018-05-19T17:38:44Z</time>
      </trkpt>
      <trkpt lat="43.1507317163" lon="-4.2637842055">
        <ele>785.05</ele>
        <time>2018-05-19T17:38:46Z</time>
      </trkpt>
      <trkpt lat="43.1508286111" lon="-4.2639540229">
        <ele>782.65</ele>
        <time>2018-05-19T17:38:48Z</time>
      </trkpt>
      <trkpt lat="43.1509391684" lon="-4.2641197331">
        <ele>782.17</ele>
        <time>2018-05-19T17:38:50Z</time>
      </trkpt>
      <trkpt lat="43.1510590296" lon="-4.2642988544">
        <ele>780.73</ele>
        <time>2018-05-19T17:38:52Z</time>
      </trkpt>
      <trkpt lat="43.1511172839" lon="-4.2644032929">
        <ele>779.29</ele>
        <time>2018-05-19T17:38:53Z</time>
      </trkpt>
      <trkpt lat="43.1511765439" lon="-4.2645167001">
        <ele>778.32</ele>
        <time>2018-05-19T17:38:54Z</time>
      </trkpt>
      <trkpt lat="43.1512710918" lon="-4.2647036165">
        <ele>778.32</ele>
        <time>2018-05-19T17:38:56Z</time>
      </trkpt>
      <trkpt lat="43.1513205450" lon="-4.2648064625">
        <ele>777.36</ele>
        <time>2018-05-19T17:38:57Z</time>
      </trkpt>
      <trkpt lat="43.1514243130" lon="-4.2650016770">
        <ele>775.44</ele>
        <time>2018-05-19T17:38:59Z</time>
      </trkpt>
      <trkpt lat="43.1515405700" lon="-4.2651792057">
        <ele>774.00</ele>
        <time>2018-05-19T17:39:01Z</time>
      </trkpt>
      <trkpt lat="43.1516082957" lon="-4.2653043475">
        <ele>772.56</ele>
        <time>2018-05-19T17:39:02Z</time>
      </trkpt>
      <trkpt lat="43.1516581681" lon="-4.2654096242">
        <ele>771.60</ele>
        <time>2018-05-19T17:39:03Z</time>
      </trkpt>
      <trkpt lat="43.1517507881" lon="-4.2655946128">
        <ele>771.60</ele>
        <time>2018-05-19T17:39:05Z</time>
      </trkpt>
      <trkpt lat="43.1518094614" lon="-4.2656959500">
        <ele>770.15</ele>
        <time>2018-05-19T17:39:06Z</time>
      </trkpt>
      <trkpt lat="43.1519185938" lon="-4.2658945173">
        <ele>768.71</ele>
        <time>2018-05-19T17:39:08Z</time>
      </trkpt>
      <trkpt lat="43.1519708969" lon="-4.2660140432">
        <ele>767.27</ele>
        <time>2018-05-19T17:39:09Z</time>
      </trkpt>
      <trkpt lat="43.1520639360" lon="-4.2662339006">
        <ele>765.83</ele>
        <time>2018-05-19T17:39:11Z</time>
      </trkpt>
      <trkpt lat="43.1521643512" lon="-4.2664084118">
        <ele>763.90</ele>
        <time>2018-05-19T17:39:13Z</time>
      </trkpt>
      <trkpt lat="43.1522994675" lon="-4.2665751278">
        <ele>762.94</ele>
        <time>2018-05-19T17:39:15Z</time>
      </trkpt>
      <trkpt lat="43.1524369307" lon="-4.2667265050">
        <ele>761.50</ele>
        <time>2018-05-19T17:39:17Z</time>
      </trkpt>
      <trkpt lat="43.1525045726" lon="-4.2668164428">
        <ele>760.06</ele>
        <time>2018-05-19T17:39:18Z</time>
      </trkpt>
      <trkpt lat="43.1525762379" lon="-4.2669164389">
        <ele>759.10</ele>
        <time>2018-05-19T17:39:19Z</time>
      </trkpt>
      <trkpt lat="43.1526441313" lon="-4.2670159321">
        <ele>758.62</ele>
        <time>2018-05-19T17:39:20Z</time>
      </trkpt>
      <trkpt lat="43.1527486537" lon="-4.2671912815">
        <ele>758.14</ele>
        <time>2018-05-19T17:39:22Z</time>
      </trkpt>
      <trkpt lat="43.1528525893" lon="-4.2674022540">
        <ele>756.69</ele>
        <time>2018-05-19T17:39:24Z</time>
      </trkpt>
      <trkpt lat="43.1529022101" lon="-4.2675082851">
        <ele>756.69</ele>
        <time>2018-05-19T17:39:25Z</time>
      </trkpt>
      <trkpt lat="43.1529893819" lon="-4.2677029967">
        <ele>755.73</ele>
        <time>2018-05-19T17:39:27Z</time>
      </trkpt>
      <trkpt lat="43.1530838460" lon="-4.2679079343">
        <ele>754.29</ele>
        <time>2018-05-19T17:39:29Z</time>
      </trkpt>
      <trkpt lat="43.1531623006" lon="-4.2680600658">
        <ele>752.85</ele>
        <time>2018-05-19T17:39:31Z</time>
      </trkpt>
      <trkpt lat="43.1532459520" lon="-4.2682323977">
        <ele>752.37</ele>
        <time>2018-05-19T17:39:33Z</time>
      </trkpt>
      <trkpt lat="43.1532997638" lon="-4.2684337310">
        <ele>750.93</ele>
        <time>2018-05-19T17:39:35Z</time>
      </trkpt>
      <trkpt lat="43.1533106603" lon="-4.2686747946">
        <ele>749.49</ele>
        <time>2018-05-19T17:39:37Z</time>
      </trkpt>
      <trkpt lat="43.1532918010" lon="-4.2688372359">
        <ele>749.00</ele>
        <time>2018-05-19T17:39:39Z</time>
      </trkpt>
      <trkpt lat="43.1533023622" lon="-4.2689717654">
        <ele>747.08</ele>
        <time>2018-05-19T17:39:41Z</time>
      </trkpt>
      <trkpt lat="43.1534000952" lon="-4.2690275051">
        <ele>745.16</ele>
        <time>2018-05-19T17:39:43Z</time>
      </trkpt>
      <trkpt lat="43.1535442639" lon="-4.2689902056">
        <ele>742.28</ele>
        <time>2018-05-19T17:39:45Z</time>
      </trkpt>
      <trkpt lat="43.1536412425" lon="-4.2689410876">
        <ele>740.35</ele>
        <time>2018-05-19T17:39:46Z</time>
      </trkpt>
      <trkpt lat="43.1537518837" lon="-4.2688491382">
        <ele>738.43</ele>
        <time>2018-05-19T17:39:48Z</time>
      </trkpt>
      <trkpt lat="43.1538201962" lon="-4.2687612120">
        <ele>736.99</ele>
        <time>2018-05-19T17:39:49Z</time>
      </trkpt>
      <trkpt lat="43.1538869161" lon="-4.2685853597">
        <ele>736.03</ele>
        <time>2018-05-19T17:39:51Z</time>
      </trkpt>
      <trkpt lat="43.1539149955" lon="-4.2683703639">
        <ele>736.03</ele>
        <time>2018-05-19T17:39:53Z</time>
      </trkpt>
      <trkpt lat="43.1539253052" lon="-4.2681997083">
        <ele>736.03</ele>
        <time>2018-05-19T17:39:55Z</time>
      </trkpt>
      <trkpt lat="43.1539476849" lon="-4.2680598143">
        <ele>735.07</ele>
        <time>2018-05-19T17:39:57Z</time>
      </trkpt>
      <trkpt lat="43.1539758481" lon="-4.2679062579">
        <ele>735.55</ele>
        <time>2018-05-19T17:40:01Z</time>
      </trkpt>
      <trkpt lat="43.1540514529" lon="-4.2677687947">
        <ele>734.58</ele>
        <time>2018-05-19T17:40:05Z</time>
      </trkpt>
      <trkpt lat="43.1541204359" lon="-4.2676721513">
        <ele>734.10</ele>
        <time>2018-05-19T17:40:07Z</time>
      </trkpt>
      <trkpt lat="43.1541976333" lon="-4.2675701436">
        <ele>733.62</ele>
        <time>2018-05-19T17:40:09Z</time>
      </trkpt>
      <trkpt lat="43.1542749144" lon="-4.2674791161">
        <ele>733.14</ele>
        <time>2018-05-19T17:40:11Z</time>
      </trkpt>
      <trkpt lat="43.1542867329" lon="-4.2672706582">
        <ele>730.74</ele>
        <time>2018-05-19T17:40:13Z</time>
      </trkpt>
      <trkpt lat="43.1542268861" lon="-4.2671357095">
        <ele>729.30</ele>
        <time>2018-05-19T17:40:15Z</time>
      </trkpt>
      <trkpt lat="43.1541542988" lon="-4.2669477873">
        <ele>728.82</ele>
        <time>2018-05-19T17:40:17Z</time>
      </trkpt>
      <trkpt lat="43.1541094556" lon="-4.2668251600">
        <ele>727.86</ele>
        <time>2018-05-19T17:40:18Z</time>
      </trkpt>
      <trkpt lat="43.1540300790" lon="-4.2666384950">
        <ele>725.93</ele>
        <time>2018-05-19T17:40:20Z</time>
      </trkpt>
      <trkpt lat="43.1539851520" lon="-4.2665289436">
        <ele>725.93</ele>
        <time>2018-05-19T17:40:21Z</time>
      </trkpt>
      <trkpt lat="43.1539052725" lon="-4.2663180549">
        <ele>724.49</ele>
        <time>2018-05-19T17:40:23Z</time>
      </trkpt>
      <trkpt lat="43.1538608484" lon="-4.2661961820">
        <ele>724.49</ele>
        <time>2018-05-19T17:40:24Z</time>
      </trkpt>
      <trkpt lat="43.1538149994" lon="-4.2660522647">
        <ele>723.05</ele>
        <time>2018-05-19T17:40:25Z</time>
      </trkpt>
      <trkpt lat="43.1537640374" lon="-4.2658408731">
        <ele>722.57</ele>
        <time>2018-05-19T17:40:27Z</time>
      </trkpt>
      <trkpt lat="43.1537352037" lon="-4.2657076847">
        <ele>721.61</ele>
        <time>2018-05-19T17:40:28Z</time>
      </trkpt>
      <trkpt lat="43.1537093874" lon="-4.2655791901">
        <ele>721.61</ele>
        <time>2018-05-19T17:40:29Z</time>
      </trkpt>
      <trkpt lat="43.1536818948" lon="-4.2654380389">
        <ele>719.68</ele>
        <time>2018-05-19T17:40:30Z</time>
      </trkpt>
      <trkpt lat="43.1536260713" lon="-4.2651886772">
        <ele>719.20</ele>
        <time>2018-05-19T17:40:32Z</time>
      </trkpt>
      <trkpt lat="43.1535846647" lon="-4.2650432512">
        <ele>719.20</ele>
        <time>2018-05-19T17:40:33Z</time>
      </trkpt>
      <trkpt lat="43.1535347924" lon="-4.2648929637">
        <ele>716.80</ele>
        <time>2018-05-19T17:40:34Z</time>
      </trkpt>
      <trkpt lat="43.1534660608" lon="-4.2646311130">
        <ele>715.36</ele>
        <time>2018-05-19T17:40:36Z</time>
      </trkpt>
      <trkpt lat="43.1534379814" lon="-4.2644808255">
        <ele>714.40</ele>
        <time>2018-05-19T17:40:37Z</time>
      </trkpt>
      <trkpt lat="43.1534125004" lon="-4.2643178813">
        <ele>711.51</ele>
        <time>2018-05-19T17:40:38Z</time>
      </trkpt>
      <trkpt lat="43.1533877738" lon="-4.2641578708">
        <ele>710.55</ele>
        <time>2018-05-19T17:40:39Z</time>
      </trkpt>
      <trkpt lat="43.1533616222" lon="-4.2639878020">
        <ele>709.11</ele>
        <time>2018-05-19T17:40:40Z</time>
      </trkpt>
      <trkpt lat="43.1533270050" lon="-4.2637924198">
        <ele>708.15</ele>
        <time>2018-05-19T17:40:41Z</time>
      </trkpt>
      <trkpt lat="43.1532898732" lon="-4.2636262067">
        <ele>706.71</ele>
        <time>2018-05-19T17:40:42Z</time>
      </trkpt>
      <trkpt lat="43.1532571837" lon="-4.2634841334">
        <ele>705.26</ele>
        <time>2018-05-19T17:40:43Z</time>
      </trkpt>
      <trkpt lat="43.1532309484" lon="-4.2633296549">
        <ele>704.30</ele>
        <time>2018-05-19T17:40:44Z</time>
      </trkpt>
      <trkpt lat="43.1532172021" lon="-4.2631619330">
        <ele>702.38</ele>
        <time>2018-05-19T17:40:45Z</time>
      </trkpt>
      <trkpt lat="43.1532134302" lon="-4.2629761063">
        <ele>700.94</ele>
        <time>2018-05-19T17:40:46Z</time>
      </trkpt>
      <trkpt lat="43.1532153580" lon="-4.2628013436">
        <ele>699.98</ele>
        <time>2018-05-19T17:40:47Z</time>
      </trkpt>
      <trkpt lat="43.1532203034" lon="-4.2625948973">
        <ele>698.53</ele>
        <time>2018-05-19T17:40:48Z</time>
      </trkpt>
      <trkpt lat="43.1532265060" lon="-4.2624004371">
        <ele>698.05</ele>
        <time>2018-05-19T17:40:49Z</time>
      </trkpt>
      <trkpt lat="43.1532306131" lon="-4.2622540053">
        <ele>696.61</ele>
        <time>2018-05-19T17:40:50Z</time>
      </trkpt>
      <trkpt lat="43.1532357261" lon="-4.2620841879">
        <ele>695.65</ele>
        <time>2018-05-19T17:40:51Z</time>
      </trkpt>
      <trkpt lat="43.1532400846" lon="-4.2619085871">
        <ele>695.65</ele>
        <time>2018-05-19T17:40:52Z</time>
      </trkpt>
      <trkpt lat="43.1532388274" lon="-4.2617511749">
        <ele>695.17</ele>
        <time>2018-05-19T17:40:53Z</time>
      </trkpt>
      <trkpt lat="43.1532265898" lon="-4.2615891527">
        <ele>695.17</ele>
        <time>2018-05-19T17:40:54Z</time>
      </trkpt>
      <trkpt lat="43.1532053836" lon="-4.2614410445">
        <ele>694.69</ele>
        <time>2018-05-19T17:40:55Z</time>
      </trkpt>
      <trkpt lat="43.1531786453" lon="-4.2612873204">
        <ele>693.73</ele>
        <time>2018-05-19T17:40:56Z</time>
      </trkpt>
      <trkpt lat="43.1531472970" lon="-4.2611235380">
        <ele>692.77</ele>
        <time>2018-05-19T17:40:57Z</time>
      </trkpt>
      <trkpt lat="43.1531177927" lon="-4.2609841470">
        <ele>691.81</ele>
        <time>2018-05-19T17:40:58Z</time>
      </trkpt>
      <trkpt lat="43.1530838460" lon="-4.2608309258">
        <ele>690.84</ele>
        <time>2018-05-19T17:40:59Z</time>
      </trkpt>
      <trkpt lat="43.1530512404" lon="-4.2606828175">
        <ele>689.40</ele>
        <time>2018-05-19T17:41:00Z</time>
      </trkpt>
      <trkpt lat="43.1530165393" lon="-4.2605274171">
        <ele>688.44</ele>
        <time>2018-05-19T17:41:01Z</time>
      </trkpt>
      <trkpt lat="43.1529827602" lon="-4.2603793088">
        <ele>687.48</ele>
        <time>2018-05-19T17:41:02Z</time>
      </trkpt>
      <trkpt lat="43.1529435329" lon="-4.2601999361">
        <ele>686.52</ele>
        <time>2018-05-19T17:41:03Z</time>
      </trkpt>
      <trkpt lat="43.1529181357" lon="-4.2600698490">
        <ele>685.56</ele>
        <time>2018-05-19T17:41:04Z</time>
      </trkpt>
      <trkpt lat="43.1528913137" lon="-4.2599074077">
        <ele>684.60</ele>
        <time>2018-05-19T17:41:05Z</time>
      </trkpt>
      <trkpt lat="43.1528680120" lon="-4.2597482353">
        <ele>683.63</ele>
        <time>2018-05-19T17:41:06Z</time>
      </trkpt>
      <trkpt lat="43.1528473087" lon="-4.2595795915">
        <ele>682.19</ele>
        <time>2018-05-19T17:41:07Z</time>
      </trkpt>
      <trkpt lat="43.1528271083" lon="-4.2594180722">
        <ele>680.75</ele>
        <time>2018-05-19T17:41:08Z</time>
      </trkpt>
      <trkpt lat="43.1528048124" lon="-4.2592285573">
        <ele>679.79</ele>
        <time>2018-05-19T17:41:09Z</time>
      </trkpt>
      <trkpt lat="43.1527838577" lon="-4.2590444069">
        <ele>677.87</ele>
        <time>2018-05-19T17:41:10Z</time>
      </trkpt>
      <trkpt lat="43.1527666748" lon="-4.2589040939">
        <ele>677.39</ele>
        <time>2018-05-19T17:41:11Z</time>
      </trkpt>
      <trkpt lat="43.1527468935" lon="-4.2587379646">
        <ele>675.46</ele>
        <time>2018-05-19T17:41:12Z</time>
      </trkpt>
      <trkpt lat="43.1527273636" lon="-4.2585637886">
        <ele>674.98</ele>
        <time>2018-05-19T17:41:13Z</time>
      </trkpt>
      <trkpt lat="43.1527054869" lon="-4.2583979107">
        <ele>673.54</ele>
        <time>2018-05-19T17:41:14Z</time>
      </trkpt>
      <trkpt lat="43.1526783295" lon="-4.2582249083">
        <ele>672.58</ele>
        <time>2018-05-19T17:41:15Z</time>
      </trkpt>
      <trkpt lat="43.1526484061" lon="-4.2580434401">
        <ele>671.14</ele>
        <time>2018-05-19T17:41:16Z</time>
      </trkpt>
      <trkpt lat="43.1526212487" lon="-4.2578540090">
        <ele>669.70</ele>
        <time>2018-05-19T17:41:17Z</time>
      </trkpt>
      <trkpt lat="43.1526054908" lon="-4.2577232514">
        <ele>668.73</ele>
        <time>2018-05-19T17:41:18Z</time>
      </trkpt>
      <trkpt lat="43.1525857095" lon="-4.2575491592">
        <ele>668.25</ele>
        <time>2018-05-19T17:41:19Z</time>
      </trkpt>
      <trkpt lat="43.1525687780" lon="-4.2573821079">
        <ele>667.77</ele>
        <time>2018-05-19T17:41:20Z</time>
      </trkpt>
      <trkpt lat="43.1525529362" lon="-4.2572087701">
        <ele>666.81</ele>
        <time>2018-05-19T17:41:21Z</time>
      </trkpt>
      <trkpt lat="43.1525372621" lon="-4.2570312414">
        <ele>665.37</ele>
        <time>2018-05-19T17:41:22Z</time>
      </trkpt>
      <trkpt lat="43.1525241025" lon="-4.2568817921">
        <ele>664.41</ele>
        <time>2018-05-19T17:41:23Z</time>
      </trkpt>
      <trkpt lat="43.1525116973" lon="-4.2567237932">
        <ele>663.45</ele>
        <time>2018-05-19T17:41:24Z</time>
      </trkpt>
      <trkpt lat="43.1525024772" lon="-4.2565585859">
        <ele>662.49</ele>
        <time>2018-05-19T17:41:25Z</time>
      </trkpt>
      <trkpt lat="43.1524984539" lon="-4.2564001679">
        <ele>660.56</ele>
        <time>2018-05-19T17:41:26Z</time>
      </trkpt>
      <trkpt lat="43.1524981186" lon="-4.2562341224">
        <ele>659.60</ele>
        <time>2018-05-19T17:41:27Z</time>
      </trkpt>
      <trkpt lat="43.1524996273" lon="-4.2560596950">
        <ele>658.64</ele>
        <time>2018-05-19T17:41:28Z</time>
      </trkpt>
      <trkpt lat="43.1525007170" lon="-4.2558825854">
        <ele>657.20</ele>
        <time>2018-05-19T17:41:29Z</time>
      </trkpt>
      <trkpt lat="43.1525002979" lon="-4.2557214852">
        <ele>656.72</ele>
        <time>2018-05-19T17:41:30Z</time>
      </trkpt>
      <trkpt lat="43.1525006332" lon="-4.2556186393">
        <ele>655.76</ele>
        <time>2018-05-19T17:41:31Z</time>
      </trkpt>
      <trkpt lat="43.1525028963" lon="-4.2554833554">
        <ele>655.28</ele>
        <time>2018-05-19T17:41:32Z</time>
      </trkpt>
      <trkpt lat="43.1525063328" lon="-4.2553489935">
        <ele>654.80</ele>
        <time>2018-05-19T17:41:33Z</time>
      </trkpt>
      <trkpt lat="43.1525094341" lon="-4.2552187387">
        <ele>653.83</ele>
        <time>2018-05-19T17:41:34Z</time>
      </trkpt>
      <trkpt lat="43.1525127869" lon="-4.2551019788">
        <ele>653.35</ele>
        <time>2018-05-19T17:41:35Z</time>
      </trkpt>
      <trkpt lat="43.1525178161" lon="-4.2549689580">
        <ele>652.87</ele>
        <time>2018-05-19T17:41:36Z</time>
      </trkpt>
      <trkpt lat="43.1525287963" lon="-4.2547864839">
        <ele>651.91</ele>
        <time>2018-05-19T17:41:38Z</time>
      </trkpt>
      <trkpt lat="43.1525524333" lon="-4.2545953766">
        <ele>651.43</ele>
        <time>2018-05-19T17:41:40Z</time>
      </trkpt>
      <trkpt lat="43.1526075862" lon="-4.2544426583">
        <ele>650.47</ele>
        <time>2018-05-19T17:41:42Z</time>
      </trkpt>
      <trkpt lat="43.1527185626" lon="-4.2543692328">
        <ele>648.55</ele>
        <time>2018-05-19T17:41:44Z</time>
      </trkpt>
      <trkpt lat="43.1528694369" lon="-4.2543447576">
        <ele>647.59</ele>
        <time>2018-05-19T17:41:46Z</time>
      </trkpt>
      <trkpt lat="43.1530093309" lon="-4.2543559056">
        <ele>646.14</ele>
        <time>2018-05-19T17:41:48Z</time>
      </trkpt>
      <trkpt lat="43.1531621329" lon="-4.2543992400">
        <ele>644.70</ele>
        <time>2018-05-19T17:41:50Z</time>
      </trkpt>
      <trkpt lat="43.1533394940" lon="-4.2544152495">
        <ele>642.78</ele>
        <time>2018-05-19T17:41:52Z</time>
      </trkpt>
      <trkpt lat="43.1534547452" lon="-4.2543956358">
        <ele>641.34</ele>
        <time>2018-05-19T17:41:53Z</time>
      </trkpt>
      <trkpt lat="43.1536030211" lon="-4.2543412372">
        <ele>640.38</ele>
        <time>2018-05-19T17:41:55Z</time>
      </trkpt>
      <trkpt lat="43.1537663005" lon="-4.2542229686">
        <ele>639.89</ele>
        <time>2018-05-19T17:41:57Z</time>
      </trkpt>
      <trkpt lat="43.1538484432" lon="-4.2541513033">
        <ele>639.41</ele>
        <time>2018-05-19T17:41:58Z</time>
      </trkpt>
      <trkpt lat="43.1539378781" lon="-4.2540783808">
        <ele>638.93</ele>
        <time>2018-05-19T17:41:59Z</time>
      </trkpt>
      <trkpt lat="43.1540256366" lon="-4.2540075537">
        <ele>637.49</ele>
        <time>2018-05-19T17:42:00Z</time>
      </trkpt>
      <trkpt lat="43.1541859824" lon="-4.2538772989">
        <ele>636.53</ele>
        <time>2018-05-19T17:42:02Z</time>
      </trkpt>
      <trkpt lat="43.1542673707" lon="-4.2538093217">
        <ele>636.05</ele>
        <time>2018-05-19T17:42:03Z</time>
      </trkpt>
      <trkpt lat="43.1543480884" lon="-4.2537386622">
        <ele>635.57</ele>
        <time>2018-05-19T17:42:04Z</time>
      </trkpt>
      <trkpt lat="43.1544360146" lon="-4.2536592018">
        <ele>635.57</ele>
        <time>2018-05-19T17:42:05Z</time>
      </trkpt>
      <trkpt lat="43.1545305625" lon="-4.2535737064">
        <ele>635.09</ele>
        <time>2018-05-19T17:42:06Z</time>
      </trkpt>
      <trkpt lat="43.1546817720" lon="-4.2534142826">
        <ele>634.61</ele>
        <time>2018-05-19T17:42:08Z</time>
      </trkpt>
      <trkpt lat="43.1547500007" lon="-4.2533234227">
        <ele>634.61</ele>
        <time>2018-05-19T17:42:09Z</time>
      </trkpt>
      <trkpt lat="43.1548098475" lon="-4.2532305513">
        <ele>633.65</ele>
        <time>2018-05-19T17:42:10Z</time>
      </trkpt>
      <trkpt lat="43.1549269427" lon="-4.2530391924">
        <ele>633.65</ele>
        <time>2018-05-19T17:42:12Z</time>
      </trkpt>
      <trkpt lat="43.1549879629" lon="-4.2529366817">
        <ele>634.13</ele>
        <time>2018-05-19T17:42:13Z</time>
      </trkpt>
      <trkpt lat="43.1550924852" lon="-4.2527731508">
        <ele>633.65</ele>
        <time>2018-05-19T17:42:15Z</time>
      </trkpt>
      <trkpt lat="43.1551769748" lon="-4.2525952030">
        <ele>633.65</ele>
        <time>2018-05-19T17:42:17Z</time>
      </trkpt>
      <trkpt lat="43.1552197225" lon="-4.2523749266">
        <ele>632.68</ele>
        <time>2018-05-19T17:42:19Z</time>
      </trkpt>
      <trkpt lat="43.1552362349" lon="-4.2522497009">
        <ele>632.20</ele>
        <time>2018-05-19T17:42:20Z</time>
      </trkpt>
      <trkpt lat="43.1552618835" lon="-4.2521252297">
        <ele>632.20</ele>
        <time>2018-05-19T17:42:21Z</time>
      </trkpt>
      <trkpt lat="43.1553350575" lon="-4.2519285064">
        <ele>632.20</ele>
        <time>2018-05-19T17:42:23Z</time>
      </trkpt>
      <trkpt lat="43.1554614566" lon="-4.2518074717">
        <ele>629.80</ele>
        <time>2018-05-19T17:42:25Z</time>
      </trkpt>
      <trkpt lat="43.1556051224" lon="-4.2517369799">
        <ele>628.84</ele>
        <time>2018-05-19T17:42:27Z</time>
      </trkpt>
      <trkpt lat="43.1556701660" lon="-4.2516462877">
        <ele>627.40</ele>
        <time>2018-05-19T17:42:28Z</time>
      </trkpt>
      <trkpt lat="43.1556982454" lon="-4.2515307013">
        <ele>625.96</ele>
        <time>2018-05-19T17:42:29Z</time>
      </trkpt>
      <trkpt lat="43.1557140034" lon="-4.2513033841">
        <ele>624.51</ele>
        <time>2018-05-19T17:42:31Z</time>
      </trkpt>
      <trkpt lat="43.1557200383" lon="-4.2511655018">
        <ele>623.55</ele>
        <time>2018-05-19T17:42:32Z</time>
      </trkpt>
      <trkpt lat="43.1557269115" lon="-4.2510343250">
        <ele>622.11</ele>
        <time>2018-05-19T17:42:33Z</time>
      </trkpt>
      <trkpt lat="43.1557510514" lon="-4.2508099414">
        <ele>620.67</ele>
        <time>2018-05-19T17:42:35Z</time>
      </trkpt>
      <trkpt lat="43.1558387261" lon="-4.2506835423">
        <ele>618.75</ele>
        <time>2018-05-19T17:42:37Z</time>
      </trkpt>
      <trkpt lat="43.1559370458" lon="-4.2507485859">
        <ele>617.78</ele>
        <time>2018-05-19T17:42:39Z</time>
      </trkpt>
      <trkpt lat="43.1560044363" lon="-4.2509333231">
        <ele>615.38</ele>
        <time>2018-05-19T17:42:41Z</time>
      </trkpt>
      <trkpt lat="43.1560561527" lon="-4.2511396855">
        <ele>614.42</ele>
        <time>2018-05-19T17:42:43Z</time>
      </trkpt>
      <trkpt lat="43.1560869142" lon="-4.2512621451">
        <ele>613.94</ele>
        <time>2018-05-19T17:42:44Z</time>
      </trkpt>
      <trkpt lat="43.1561144069" lon="-4.2513795756">
        <ele>613.46</ele>
        <time>2018-05-19T17:42:45Z</time>
      </trkpt>
      <trkpt lat="43.1561594177" lon="-4.2515741196">
        <ele>612.98</ele>
        <time>2018-05-19T17:42:47Z</time>
      </trkpt>
      <trkpt lat="43.1562107988" lon="-4.2518001795">
        <ele>612.02</ele>
        <time>2018-05-19T17:42:49Z</time>
      </trkpt>
      <trkpt lat="43.1562384591" lon="-4.2519245669">
        <ele>611.54</ele>
        <time>2018-05-19T17:42:50Z</time>
      </trkpt>
      <trkpt lat="43.1562695559" lon="-4.2521686479">
        <ele>610.09</ele>
        <time>2018-05-19T17:42:52Z</time>
      </trkpt>
      <trkpt lat="43.1562729087" lon="-4.2523172591">
        <ele>609.13</ele>
        <time>2018-05-19T17:42:53Z</time>
      </trkpt>
      <trkpt lat="43.1562708132" lon="-4.2524494417">
        <ele>607.69</ele>
        <time>2018-05-19T17:42:54Z</time>
      </trkpt>
      <trkpt lat="43.1562706456" lon="-4.2527081911">
        <ele>606.73</ele>
        <time>2018-05-19T17:42:56Z</time>
      </trkpt>
      <trkpt lat="43.1562725734" lon="-4.2528544553">
        <ele>606.25</ele>
        <time>2018-05-19T17:42:57Z</time>
      </trkpt>
      <trkpt lat="43.1562773511" lon="-4.2530034017">
        <ele>605.29</ele>
        <time>2018-05-19T17:42:58Z</time>
      </trkpt>
      <trkpt lat="43.1562873255" lon="-4.2531526834">
        <ele>604.33</ele>
        <time>2018-05-19T17:42:59Z</time>
      </trkpt>
      <trkpt lat="43.1563007366" lon="-4.2533153761">
        <ele>603.36</ele>
        <time>2018-05-19T17:43:00Z</time>
      </trkpt>
      <trkpt lat="43.1563073583" lon="-4.2534837686">
        <ele>602.40</ele>
        <time>2018-05-19T17:43:01Z</time>
      </trkpt>
      <trkpt lat="43.1563033350" lon="-4.2536257580">
        <ele>602.88</ele>
        <time>2018-05-19T17:43:02Z</time>
      </trkpt>
      <trkpt lat="43.1562855653" lon="-4.2538842559">
        <ele>601.44</ele>
        <time>2018-05-19T17:43:04Z</time>
      </trkpt>
      <trkpt lat="43.1562642753" lon="-4.2540933006">
        <ele>600.48</ele>
        <time>2018-05-19T17:43:06Z</time>
      </trkpt>
      <trkpt lat="43.1562897563" lon="-4.2542676441">
        <ele>599.04</ele>
        <time>2018-05-19T17:43:08Z</time>
      </trkpt>
      <trkpt lat="43.1564108748" lon="-4.2543283291">
        <ele>596.15</ele>
        <time>2018-05-19T17:43:10Z</time>
      </trkpt>
      <trkpt lat="43.1565149780" lon="-4.2541835736">
        <ele>594.23</ele>
        <time>2018-05-19T17:43:12Z</time>
      </trkpt>
      <trkpt lat="43.1565506849" lon="-4.2539772950">
        <ele>592.79</ele>
        <time>2018-05-19T17:43:14Z</time>
      </trkpt>
      <trkpt lat="43.1565670297" lon="-4.2538501415">
        <ele>591.83</ele>
        <time>2018-05-19T17:43:15Z</time>
      </trkpt>
      <trkpt lat="43.1565815303" lon="-4.2537110858">
        <ele>591.35</ele>
        <time>2018-05-19T17:43:16Z</time>
      </trkpt>
      <trkpt lat="43.1566008087" lon="-4.2535447888">
        <ele>590.39</ele>
        <time>2018-05-19T17:43:17Z</time>
      </trkpt>
      <trkpt lat="43.1566340011" lon="-4.2533209082">
        <ele>588.46</ele>
        <time>2018-05-19T17:43:19Z</time>
      </trkpt>
      <trkpt lat="43.1566534471" lon="-4.2531821039">
        <ele>588.95</ele>
        <time>2018-05-19T17:43:20Z</time>
      </trkpt>
      <trkpt lat="43.1566758268" lon="-4.2530481610">
        <ele>587.02</ele>
        <time>2018-05-19T17:43:21Z</time>
      </trkpt>
      <trkpt lat="43.1567082647" lon="-4.2528957780">
        <ele>586.06</ele>
        <time>2018-05-19T17:43:22Z</time>
      </trkpt>
      <trkpt lat="43.1567545328" lon="-4.2526569776">
        <ele>585.10</ele>
        <time>2018-05-19T17:43:24Z</time>
      </trkpt>
      <trkpt lat="43.1567739788" lon="-4.2525163293">
        <ele>584.14</ele>
        <time>2018-05-19T17:43:25Z</time>
      </trkpt>
      <trkpt lat="43.1567850430" lon="-4.2523784470">
        <ele>583.18</ele>
        <time>2018-05-19T17:43:26Z</time>
      </trkpt>
      <trkpt lat="43.1567874737" lon="-4.2522313446">
        <ele>582.70</ele>
        <time>2018-05-19T17:43:27Z</time>
      </trkpt>
      <trkpt lat="43.1567814387" lon="-4.2520905286">
        <ele>581.25</ele>
        <time>2018-05-19T17:43:28Z</time>
      </trkpt>
      <trkpt lat="43.1567710452" lon="-4.2519140057">
        <ele>580.77</ele>
        <time>2018-05-19T17:43:29Z</time>
      </trkpt>
      <trkpt lat="43.1567692012" lon="-4.2517700046">
        <ele>579.33</ele>
        <time>2018-05-19T17:43:30Z</time>
      </trkpt>
      <trkpt lat="43.1568020582" lon="-4.2514952458">
        <ele>577.89</ele>
        <time>2018-05-19T17:43:32Z</time>
      </trkpt>
      <trkpt lat="43.1568351667" lon="-4.2513350677">
        <ele>575.97</ele>
        <time>2018-05-19T17:43:33Z</time>
      </trkpt>
      <trkpt lat="43.1568737235" lon="-4.2511779070">
        <ele>575.01</ele>
        <time>2018-05-19T17:43:34Z</time>
      </trkpt>
      <trkpt lat="43.1569151301" lon="-4.2510177288">
        <ele>573.56</ele>
        <time>2018-05-19T17:43:35Z</time>
      </trkpt>
      <trkpt lat="43.1569665950" lon="-4.2508091871">
        <ele>572.12</ele>
        <time>2018-05-19T17:43:36Z</time>
      </trkpt>
      <trkpt lat="43.1570092589" lon="-4.2506405432">
        <ele>570.68</ele>
        <time>2018-05-19T17:43:37Z</time>
      </trkpt>
      <trkpt lat="43.1570491567" lon="-4.2504988890">
        <ele>569.24</ele>
        <time>2018-05-19T17:43:38Z</time>
      </trkpt>
      <trkpt lat="43.1570999511" lon="-4.2503304966">
        <ele>567.80</ele>
        <time>2018-05-19T17:43:39Z</time>
      </trkpt>
      <trkpt lat="43.1571528409" lon="-4.2501471844">
        <ele>566.83</ele>
        <time>2018-05-19T17:43:40Z</time>
      </trkpt>
      <trkpt lat="43.1572011206" lon="-4.2499720864">
        <ele>565.39</ele>
        <time>2018-05-19T17:43:41Z</time>
      </trkpt>
      <trkpt lat="43.1572535913" lon="-4.2497737706">
        <ele>562.99</ele>
        <time>2018-05-19T17:43:42Z</time>
      </trkpt>
      <trkpt lat="43.1572997756" lon="-4.2495581880">
        <ele>561.55</ele>
        <time>2018-05-19T17:43:43Z</time>
      </trkpt>
      <trkpt lat="43.1573374104" lon="-4.2493402585">
        <ele>559.14</ele>
        <time>2018-05-19T17:43:44Z</time>
      </trkpt>
      <trkpt lat="43.1573602092" lon="-4.2491712794">
        <ele>558.18</ele>
        <time>2018-05-19T17:43:45Z</time>
      </trkpt>
      <trkpt lat="43.1573844329" lon="-4.2489687726">
        <ele>556.26</ele>
        <time>2018-05-19T17:43:46Z</time>
      </trkpt>
      <trkpt lat="43.1574075669" lon="-4.2487803474">
        <ele>555.78</ele>
        <time>2018-05-19T17:43:47Z</time>
      </trkpt>
      <trkpt lat="43.1574371550" lon="-4.2485832050">
        <ele>554.34</ele>
        <time>2018-05-19T17:43:48Z</time>
      </trkpt>
      <trkpt lat="43.1574768014" lon="-4.2484004796">
        <ele>552.41</ele>
        <time>2018-05-19T17:43:49Z</time>
      </trkpt>
      <trkpt lat="43.1575457845" lon="-4.2481756769">
        <ele>550.97</ele>
        <time>2018-05-19T17:43:50Z</time>
      </trkpt>
      <trkpt lat="43.1575923879" lon="-4.2480388843">
        <ele>550.01</ele>
        <time>2018-05-19T17:43:51Z</time>
      </trkpt>
      <trkpt lat="43.1576587725" lon="-4.2478420772">
        <ele>548.09</ele>
        <time>2018-05-19T17:43:52Z</time>
      </trkpt>
      <trkpt lat="43.1577167753" lon="-4.2476708349">
        <ele>546.17</ele>
        <time>2018-05-19T17:43:53Z</time>
      </trkpt>
      <trkpt lat="43.1577797234" lon="-4.2474798951">
        <ele>544.72</ele>
        <time>2018-05-19T17:43:54Z</time>
      </trkpt>
      <trkpt lat="43.1580467708" lon="-4.2467502505">
        <ele>538.96</ele>
        <time>2018-05-19T17:43:59Z</time>
      </trkpt>
      <trkpt lat="43.1581764389" lon="-4.2465848755">
        <ele>536.55</ele>
        <time>2018-05-19T17:44:00Z</time>
      </trkpt>
      <trkpt lat="43.1582791172" lon="-4.2464887351">
        <ele>535.11</ele>
        <time>2018-05-19T17:44:01Z</time>
      </trkpt>
      <trkpt lat="43.1583893392" lon="-4.2464093585">
        <ele>533.67</ele>
        <time>2018-05-19T17:44:02Z</time>
      </trkpt>
      <trkpt lat="43.1584980525" lon="-4.2463506013">
        <ele>532.23</ele>
        <time>2018-05-19T17:44:03Z</time>
      </trkpt>
      <trkpt lat="43.1586167403" lon="-4.2462926824">
        <ele>530.79</ele>
        <time>2018-05-19T17:44:04Z</time>
      </trkpt>
      <trkpt lat="43.1587277167" lon="-4.2462240346">
        <ele>529.34</ele>
        <time>2018-05-19T17:44:05Z</time>
      </trkpt>
      <trkpt lat="43.1588320713" lon="-4.2461206857">
        <ele>527.90</ele>
        <time>2018-05-19T17:44:06Z</time>
      </trkpt>
      <trkpt lat="43.1589385215" lon="-4.2459241301">
        <ele>525.98</ele>
        <time>2018-05-19T17:44:08Z</time>
      </trkpt>
      <trkpt lat="43.1590222567" lon="-4.2457531393">
        <ele>525.50</ele>
        <time>2018-05-19T17:44:10Z</time>
      </trkpt>
      <trkpt lat="43.1591156311" lon="-4.2457282450">
        <ele>524.54</ele>
        <time>2018-05-19T17:44:12Z</time>
      </trkpt>
      <trkpt lat="43.1591625698" lon="-4.2458859924">
        <ele>522.61</ele>
        <time>2018-05-19T17:44:14Z</time>
      </trkpt>
      <trkpt lat="43.1591295451" lon="-4.2460945342">
        <ele>520.21</ele>
        <time>2018-05-19T17:44:16Z</time>
      </trkpt>
      <trkpt lat="43.1590914913" lon="-4.2462191731">
        <ele>518.77</ele>
        <time>2018-05-19T17:44:17Z</time>
      </trkpt>
      <trkpt lat="43.1590433791" lon="-4.2463451531">
        <ele>517.33</ele>
        <time>2018-05-19T17:44:18Z</time>
      </trkpt>
      <trkpt lat="43.1589852087" lon="-4.2464640085">
        <ele>515.88</ele>
        <time>2018-05-19T17:44:19Z</time>
      </trkpt>
      <trkpt lat="43.1589127053" lon="-4.2465867195">
        <ele>514.44</ele>
        <time>2018-05-19T17:44:20Z</time>
      </trkpt>
      <trkpt lat="43.1588332448" lon="-4.2467168905">
        <ele>511.56</ele>
        <time>2018-05-19T17:44:21Z</time>
      </trkpt>
      <trkpt lat="43.1587511860" lon="-4.2468627356">
        <ele>510.12</ele>
        <time>2018-05-19T17:44:22Z</time>
      </trkpt>
      <trkpt lat="43.1586967874" lon="-4.2469687667">
        <ele>509.16</ele>
        <time>2018-05-19T17:44:23Z</time>
      </trkpt>
      <trkpt lat="43.1586355995" lon="-4.2470949143">
        <ele>507.71</ele>
        <time>2018-05-19T17:44:24Z</time>
      </trkpt>
      <trkpt lat="43.1585795246" lon="-4.2472272646">
        <ele>506.75</ele>
        <time>2018-05-19T17:44:25Z</time>
      </trkpt>
      <trkpt lat="43.1585288979" lon="-4.2474130914">
        <ele>506.27</ele>
        <time>2018-05-19T17:44:27Z</time>
      </trkpt>
      <trkpt lat="43.1585702207" lon="-4.2475249898">
        <ele>504.83</ele>
        <time>2018-05-19T17:44:29Z</time>
      </trkpt>
      <trkpt lat="43.1586715579" lon="-4.2474759556">
        <ele>502.91</ele>
        <time>2018-05-19T17:44:31Z</time>
      </trkpt>
      <trkpt lat="43.1587596517" lon="-4.2473139334">
        <ele>500.98</ele>
        <time>2018-05-19T17:44:33Z</time>
      </trkpt>
      <trkpt lat="43.1588452309" lon="-4.2471483909">
        <ele>500.02</ele>
        <time>2018-05-19T17:44:35Z</time>
      </trkpt>
      <trkpt lat="43.1589754857" lon="-4.2470005341">
        <ele>498.58</ele>
        <time>2018-05-19T17:44:37Z</time>
      </trkpt>
      <trkpt lat="43.1590657588" lon="-4.2469474766">
        <ele>497.14</ele>
        <time>2018-05-19T17:44:38Z</time>
      </trkpt>
      <trkpt lat="43.1592323072" lon="-4.2468598019">
        <ele>494.74</ele>
        <time>2018-05-19T17:44:40Z</time>
      </trkpt>
      <trkpt lat="43.1593250111" lon="-4.2467995360">
        <ele>493.77</ele>
        <time>2018-05-19T17:44:41Z</time>
      </trkpt>
      <trkpt lat="43.1594082434" lon="-4.2467272002">
        <ele>492.81</ele>
        <time>2018-05-19T17:44:42Z</time>
      </trkpt>
      <trkpt lat="43.1594867818" lon="-4.2466288805">
        <ele>491.85</ele>
        <time>2018-05-19T17:44:43Z</time>
      </trkpt>
      <trkpt lat="43.1595485564" lon="-4.2465165630">
        <ele>491.37</ele>
        <time>2018-05-19T17:44:44Z</time>
      </trkpt>
      <trkpt lat="43.1595945731" lon="-4.2464062572">
        <ele>491.37</ele>
        <time>2018-05-19T17:44:45Z</time>
      </trkpt>
      <trkpt lat="43.1596357282" lon="-4.2462737393">
        <ele>490.89</ele>
        <time>2018-05-19T17:44:46Z</time>
      </trkpt>
      <trkpt lat="43.1596953236" lon="-4.2461617570">
        <ele>490.41</ele>
        <time>2018-05-19T17:44:48Z</time>
      </trkpt>
      <trkpt lat="43.1597756222" lon="-4.2462113779">
        <ele>488.49</ele>
        <time>2018-05-19T17:44:50Z</time>
      </trkpt>
      <trkpt lat="43.1597919669" lon="-4.2463904154">
        <ele>486.08</ele>
        <time>2018-05-19T17:44:52Z</time>
      </trkpt>
      <trkpt lat="43.1597482972" lon="-4.2465945147">
        <ele>484.16</ele>
        <time>2018-05-19T17:44:54Z</time>
      </trkpt>
      <trkpt lat="43.1596615445" lon="-4.2468125280">
        <ele>481.76</ele>
        <time>2018-05-19T17:44:56Z</time>
      </trkpt>
      <trkpt lat="43.1595956627" lon="-4.2469125241">
        <ele>480.80</ele>
        <time>2018-05-19T17:44:57Z</time>
      </trkpt>
      <trkpt lat="43.1594602950" lon="-4.2470721994">
        <ele>478.87</ele>
        <time>2018-05-19T17:44:59Z</time>
      </trkpt>
      <trkpt lat="43.1593816727" lon="-4.2471581977">
        <ele>477.43</ele>
        <time>2018-05-19T17:45:00Z</time>
      </trkpt>
      <trkpt lat="43.1593061518" lon="-4.2472404242">
        <ele>476.95</ele>
        <time>2018-05-19T17:45:01Z</time>
      </trkpt>
      <trkpt lat="43.1592273619" lon="-4.2473323736">
        <ele>475.99</ele>
        <time>2018-05-19T17:45:02Z</time>
      </trkpt>
      <trkpt lat="43.1591511704" lon="-4.2474307772">
        <ele>475.03</ele>
        <time>2018-05-19T17:45:03Z</time>
      </trkpt>
      <trkpt lat="43.1590584666" lon="-4.2475897819">
        <ele>473.59</ele>
        <time>2018-05-19T17:45:05Z</time>
      </trkpt>
      <trkpt lat="43.1590576284" lon="-4.2477230541">
        <ele>473.11</ele>
        <time>2018-05-19T17:45:07Z</time>
      </trkpt>
      <trkpt lat="43.1591510028" lon="-4.2477455176">
        <ele>471.18</ele>
        <time>2018-05-19T17:45:09Z</time>
      </trkpt>
      <trkpt lat="43.1592603866" lon="-4.2476301827">
        <ele>469.26</ele>
        <time>2018-05-19T17:45:11Z</time>
      </trkpt>
      <trkpt lat="43.1593973469" lon="-4.2474978324">
        <ele>466.86</ele>
        <time>2018-05-19T17:45:13Z</time>
      </trkpt>
      <trkpt lat="43.1594795734" lon="-4.2474348005">
        <ele>465.90</ele>
        <time>2018-05-19T17:45:14Z</time>
      </trkpt>
      <trkpt lat="43.1595579442" lon="-4.2473713495">
        <ele>464.45</ele>
        <time>2018-05-19T17:45:15Z</time>
      </trkpt>
      <trkpt lat="43.1597140152" lon="-4.2472439446">
        <ele>462.53</ele>
        <time>2018-05-19T17:45:17Z</time>
      </trkpt>
      <trkpt lat="43.1598013546" lon="-4.2471755482">
        <ele>461.57</ele>
        <time>2018-05-19T17:45:18Z</time>
      </trkpt>
      <trkpt lat="43.1598921306" lon="-4.2471036315">
        <ele>460.13</ele>
        <time>2018-05-19T17:45:19Z</time>
      </trkpt>
      <trkpt lat="43.1599730160" lon="-4.2470343132">
        <ele>459.65</ele>
        <time>2018-05-19T17:45:20Z</time>
      </trkpt>
      <trkpt lat="43.1600432564" lon="-4.2469616421">
        <ele>459.17</ele>
        <time>2018-05-19T17:45:21Z</time>
      </trkpt>
      <trkpt lat="43.1601569150" lon="-4.2467954289">
        <ele>458.21</ele>
        <time>2018-05-19T17:45:23Z</time>
      </trkpt>
      <trkpt lat="43.1602411531" lon="-4.2467298824">
        <ele>456.28</ele>
        <time>2018-05-19T17:45:25Z</time>
      </trkpt>
      <trkpt lat="43.1603006646" lon="-4.2468219995">
        <ele>454.84</ele>
        <time>2018-05-19T17:45:27Z</time>
      </trkpt>
      <trkpt lat="43.1602654606" lon="-4.2469937447">
        <ele>452.44</ele>
        <time>2018-05-19T17:45:29Z</time>
      </trkpt>
      <trkpt lat="43.1601705775" lon="-4.2471778113">
        <ele>450.03</ele>
        <time>2018-05-19T17:45:31Z</time>
      </trkpt>
      <trkpt lat="43.1601065397" lon="-4.2472793162">
        <ele>448.59</ele>
        <time>2018-05-19T17:45:32Z</time>
      </trkpt>
      <trkpt lat="43.1600271631" lon="-4.2473832518">
        <ele>446.67</ele>
        <time>2018-05-19T17:45:33Z</time>
      </trkpt>
      <trkpt lat="43.1598831620" lon="-4.2475065496">
        <ele>444.75</ele>
        <time>2018-05-19T17:45:35Z</time>
      </trkpt>
      <trkpt lat="43.1597296055" lon="-4.2475918774">
        <ele>443.31</ele>
        <time>2018-05-19T17:45:37Z</time>
      </trkpt>
      <trkpt lat="43.1596446969" lon="-4.2476900294">
        <ele>442.82</ele>
        <time>2018-05-19T17:45:39Z</time>
      </trkpt>
      <trkpt lat="43.1596822478" lon="-4.2478018440">
        <ele>440.90</ele>
        <time>2018-05-19T17:45:41Z</time>
      </trkpt>
      <trkpt lat="43.1598030310" lon="-4.2478027660">
        <ele>439.46</ele>
        <time>2018-05-19T17:45:43Z</time>
      </trkpt>
      <trkpt lat="43.1599403266" lon="-4.2476967350">
        <ele>437.06</ele>
        <time>2018-05-19T17:45:45Z</time>
      </trkpt>
      <trkpt lat="43.1600944698" lon="-4.2475743592">
        <ele>435.61</ele>
        <time>2018-05-19T17:45:47Z</time>
      </trkpt>
      <trkpt lat="43.1602415722" lon="-4.2474696692">
        <ele>434.65</ele>
        <time>2018-05-19T17:45:49Z</time>
      </trkpt>
      <trkpt lat="43.1603482738" lon="-4.2474295199">
        <ele>433.21</ele>
        <time>2018-05-19T17:45:51Z</time>
      </trkpt>
      <trkpt lat="43.1603921112" lon="-4.2475355510">
        <ele>430.81</ele>
        <time>2018-05-19T17:45:53Z</time>
      </trkpt>
      <trkpt lat="43.1603111420" lon="-4.2476643808">
        <ele>428.40</ele>
        <time>2018-05-19T17:45:55Z</time>
      </trkpt>
      <trkpt lat="43.1601745170" lon="-4.2477811407">
        <ele>426.00</ele>
        <time>2018-05-19T17:45:57Z</time>
      </trkpt>
      <trkpt lat="43.1600827351" lon="-4.2478657141">
        <ele>424.08</ele>
        <time>2018-05-19T17:45:58Z</time>
      </trkpt>
      <trkpt lat="43.1599491276" lon="-4.2480137385">
        <ele>422.64</ele>
        <time>2018-05-19T17:46:00Z</time>
      </trkpt>
      <trkpt lat="43.1598745286" lon="-4.2481073644">
        <ele>421.68</ele>
        <time>2018-05-19T17:46:01Z</time>
      </trkpt>
      <trkpt lat="43.1598004326" lon="-4.2482142337">
        <ele>420.23</ele>
        <time>2018-05-19T17:46:02Z</time>
      </trkpt>
      <trkpt lat="43.1597242411" lon="-4.2483387049">
        <ele>418.79</ele>
        <time>2018-05-19T17:46:03Z</time>
      </trkpt>
      <trkpt lat="43.1596506480" lon="-4.2484607454">
        <ele>417.83</ele>
        <time>2018-05-19T17:46:04Z</time>
      </trkpt>
      <trkpt lat="43.1595640630" lon="-4.2486040760">
        <ele>416.39</ele>
        <time>2018-05-19T17:46:05Z</time>
      </trkpt>
      <trkpt lat="43.1594980974" lon="-4.2487166449">
        <ele>415.43</ele>
        <time>2018-05-19T17:46:06Z</time>
      </trkpt>
      <trkpt lat="43.1594097521" lon="-4.2488849536">
        <ele>413.98</ele>
        <time>2018-05-19T17:46:08Z</time>
      </trkpt>
      <trkpt lat="43.1593954191" lon="-4.2490510829">
        <ele>412.54</ele>
        <time>2018-05-19T17:46:10Z</time>
      </trkpt>
      <trkpt lat="43.1594923139" lon="-4.2491952516">
        <ele>412.06</ele>
        <time>2018-05-19T17:46:12Z</time>
      </trkpt>
      <trkpt lat="43.1595588662" lon="-4.2492684256">
        <ele>410.62</ele>
        <time>2018-05-19T17:46:13Z</time>
      </trkpt>
      <trkpt lat="43.1596786436" lon="-4.2494042125">
        <ele>409.66</ele>
        <time>2018-05-19T17:46:15Z</time>
      </trkpt>
      <trkpt lat="43.1598047074" lon="-4.2495419271">
        <ele>409.66</ele>
        <time>2018-05-19T17:46:17Z</time>
      </trkpt>
      <trkpt lat="43.1599240657" lon="-4.2496591061">
        <ele>409.66</ele>
        <time>2018-05-19T17:46:19Z</time>
      </trkpt>
      <trkpt lat="43.1600471120" lon="-4.2497762851">
        <ele>409.66</ele>
        <time>2018-05-19T17:46:21Z</time>
      </trkpt>
      <trkpt lat="43.1601518858" lon="-4.2498537339">
        <ele>413.02</ele>
        <time>2018-05-19T17:46:23Z</time>
      </trkpt>
      <trkpt lat="43.1602032669" lon="-4.2500015907">
        <ele>413.50</ele>
        <time>2018-05-19T17:46:26Z</time>
      </trkpt>
      <trkpt lat="43.1602040213" lon="-4.2501522135">
        <ele>413.50</ele>
        <time>2018-05-19T17:46:28Z</time>
      </trkpt>
      <trkpt lat="43.1602008361" lon="-4.2503313348">
        <ele>413.50</ele>
        <time>2018-05-19T17:46:30Z</time>
      </trkpt>
      <trkpt lat="43.1602096371" lon="-4.2504853942">
        <ele>413.50</ele>
        <time>2018-05-19T17:46:32Z</time>
      </trkpt>
      <trkpt lat="43.1602351181" lon="-4.2506579775">
        <ele>412.54</ele>
        <time>2018-05-19T17:46:34Z</time>
      </trkpt>
      <trkpt lat="43.1602697354" lon="-4.2508243583">
        <ele>411.10</ele>
        <time>2018-05-19T17:46:36Z</time>
      </trkpt>
      <trkpt lat="43.1603295822" lon="-4.2509873025">
        <ele>411.10</ele>
        <time>2018-05-19T17:46:38Z</time>
      </trkpt>
      <trkpt lat="43.1603956316" lon="-4.2511154618">
        <ele>411.10</ele>
        <time>2018-05-19T17:46:40Z</time>
      </trkpt>
      <trkpt lat="43.1604769360" lon="-4.2512546014">
        <ele>410.62</ele>
        <time>2018-05-19T17:46:42Z</time>
      </trkpt>
      <trkpt lat="43.1605641078" lon="-4.2513898853">
        <ele>410.14</ele>
        <time>2018-05-19T17:46:44Z</time>
      </trkpt>
      <trkpt lat="43.1606646907" lon="-4.2515383288">
        <ele>409.66</ele>
        <time>2018-05-19T17:46:46Z</time>
      </trkpt>
      <trkpt lat="43.1607485097" lon="-4.2516641412">
        <ele>408.70</ele>
        <time>2018-05-19T17:46:48Z</time>
      </trkpt>
      <trkpt lat="43.1608388666" lon="-4.2518055439">
        <ele>408.22</ele>
        <time>2018-05-19T17:46:50Z</time>
      </trkpt>
      <trkpt lat="43.1609338336" lon="-4.2519467790">
        <ele>408.22</ele>
        <time>2018-05-19T17:46:52Z</time>
      </trkpt>
      <trkpt lat="43.1610303931" lon="-4.2520988267">
        <ele>406.77</ele>
        <time>2018-05-19T17:46:54Z</time>
      </trkpt>
      <trkpt lat="43.1611297186" lon="-4.2522503715">
        <ele>406.77</ele>
        <time>2018-05-19T17:46:56Z</time>
      </trkpt>
      <trkpt lat="43.1612313911" lon="-4.2523985635">
        <ele>406.77</ele>
        <time>2018-05-19T17:46:58Z</time>
      </trkpt>
      <trkpt lat="43.1613342371" lon="-4.2525546346">
        <ele>406.29</ele>
        <time>2018-05-19T17:47:00Z</time>
      </trkpt>
      <trkpt lat="43.1614349876" lon="-4.2527183332">
        <ele>405.33</ele>
        <time>2018-05-19T17:47:02Z</time>
      </trkpt>
      <trkpt lat="43.1615178846" lon="-4.2528587300">
        <ele>405.33</ele>
        <time>2018-05-19T17:47:04Z</time>
      </trkpt>
      <trkpt lat="43.1616084091" lon="-4.2530225962">
        <ele>404.85</ele>
        <time>2018-05-19T17:47:06Z</time>
      </trkpt>
      <trkpt lat="43.1616928987" lon="-4.2531914916">
        <ele>404.37</ele>
        <time>2018-05-19T17:47:08Z</time>
      </trkpt>
      <trkpt lat="43.1617779750" lon="-4.2533762287">
        <ele>403.89</ele>
        <time>2018-05-19T17:47:10Z</time>
      </trkpt>
      <trkpt lat="43.1618430186" lon="-4.2535518296">
        <ele>402.93</ele>
        <time>2018-05-19T17:47:12Z</time>
      </trkpt>
      <trkpt lat="43.1619099062" lon="-4.2537365668">
        <ele>403.41</ele>
        <time>2018-05-19T17:47:14Z</time>
      </trkpt>
      <trkpt lat="43.1619724352" lon="-4.2539198790">
        <ele>402.45</ele>
        <time>2018-05-19T17:47:16Z</time>
      </trkpt>
      <trkpt lat="43.1620412506" lon="-4.2541145068">
        <ele>401.97</ele>
        <time>2018-05-19T17:47:18Z</time>
      </trkpt>
      <trkpt lat="43.1620940566" lon="-4.2542646267">
        <ele>401.01</ele>
        <time>2018-05-19T17:47:20Z</time>
      </trkpt>
      <trkpt lat="43.1621581782" lon="-4.2544363718">
        <ele>400.53</ele>
        <time>2018-05-19T17:47:22Z</time>
      </trkpt>
      <trkpt lat="43.1622169353" lon="-4.2546044290">
        <ele>400.05</ele>
        <time>2018-05-19T17:47:24Z</time>
      </trkpt>
      <trkpt lat="43.1622811407" lon="-4.2547882441">
        <ele>400.05</ele>
        <time>2018-05-19T17:47:26Z</time>
      </trkpt>
      <trkpt lat="43.1623336952" lon="-4.2549341731">
        <ele>400.05</ele>
        <time>2018-05-19T17:47:28Z</time>
      </trkpt>
      <trkpt lat="43.1623902731" lon="-4.2551118694">
        <ele>399.57</ele>
        <time>2018-05-19T17:47:30Z</time>
      </trkpt>
      <trkpt lat="43.1624512095" lon="-4.2552829441">
        <ele>398.60</ele>
        <time>2018-05-19T17:47:32Z</time>
      </trkpt>
      <trkpt lat="43.1625186000" lon="-4.2554634903">
        <ele>398.12</ele>
        <time>2018-05-19T17:47:34Z</time>
      </trkpt>
      <trkpt lat="43.1625760999" lon="-4.2556136101">
        <ele>398.12</ele>
        <time>2018-05-19T17:47:36Z</time>
      </trkpt>
      <trkpt lat="43.1626374554" lon="-4.2557780631">
        <ele>398.12</ele>
        <time>2018-05-19T17:47:38Z</time>
      </trkpt>
      <trkpt lat="43.1626981404" lon="-4.2559462879">
        <ele>398.12</ele>
        <time>2018-05-19T17:47:40Z</time>
      </trkpt>
      <trkpt lat="43.1627558917" lon="-4.2560959049">
        <ele>397.64</ele>
        <time>2018-05-19T17:47:42Z</time>
      </trkpt>
      <trkpt lat="43.1628200132" lon="-4.2562433425">
        <ele>397.64</ele>
        <time>2018-05-19T17:47:44Z</time>
      </trkpt>
      <trkpt lat="43.1628822070" lon="-4.2563963123">
        <ele>397.64</ele>
        <time>2018-05-19T17:47:46Z</time>
      </trkpt>
      <trkpt lat="43.1629458256" lon="-4.2565623578">
        <ele>397.64</ele>
        <time>2018-05-19T17:47:48Z</time>
      </trkpt>
      <trkpt lat="43.1630082708" lon="-4.2567033414">
        <ele>397.64</ele>
        <time>2018-05-19T17:47:50Z</time>
      </trkpt>
      <trkpt lat="43.1630686205" lon="-4.2568422295">
        <ele>397.64</ele>
        <time>2018-05-19T17:47:52Z</time>
      </trkpt>
      <trkpt lat="43.1631264556" lon="-4.2569814529">
        <ele>397.64</ele>
        <time>2018-05-19T17:47:54Z</time>
      </trkpt>
      <trkpt lat="43.1631886493" lon="-4.2571137194">
        <ele>397.64</ele>
        <time>2018-05-19T17:47:56Z</time>
      </trkpt>
      <trkpt lat="43.1632505078" lon="-4.2572606541">
        <ele>397.64</ele>
        <time>2018-05-19T17:47:58Z</time>
      </trkpt>
      <trkpt lat="43.1632980332" lon="-4.2573778331">
        <ele>397.64</ele>
        <time>2018-05-19T17:48:00Z</time>
      </trkpt>
      <trkpt lat="43.1633568741" lon="-4.2575157993">
        <ele>397.64</ele>
        <time>2018-05-19T17:48:02Z</time>
      </trkpt>
      <trkpt lat="43.1634137873" lon="-4.2576468922">
        <ele>397.16</ele>
        <time>2018-05-19T17:48:04Z</time>
      </trkpt>
      <trkpt lat="43.1634764001" lon="-4.2577841040">
        <ele>396.68</ele>
        <time>2018-05-19T17:48:06Z</time>
      </trkpt>
      <trkpt lat="43.1635286193" lon="-4.2579057254">
        <ele>396.68</ele>
        <time>2018-05-19T17:48:08Z</time>
      </trkpt>
      <trkpt lat="43.1635893043" lon="-4.2580365669">
        <ele>396.68</ele>
        <time>2018-05-19T17:48:10Z</time>
      </trkpt>
      <trkpt lat="43.1636475585" lon="-4.2581658997">
        <ele>396.68</ele>
        <time>2018-05-19T17:48:12Z</time>
      </trkpt>
      <trkpt lat="43.1637013704" lon="-4.2582927179">
        <ele>397.64</ele>
        <time>2018-05-19T17:48:14Z</time>
      </trkpt>
      <trkpt lat="43.1637488119" lon="-4.2584252357">
        <ele>397.64</ele>
        <time>2018-05-19T17:48:16Z</time>
      </trkpt>
      <trkpt lat="43.1637903862" lon="-4.2585398164">
        <ele>397.64</ele>
        <time>2018-05-19T17:48:18Z</time>
      </trkpt>
      <trkpt lat="43.1638271827" lon="-4.2586555704">
        <ele>398.60</ele>
        <time>2018-05-19T17:48:20Z</time>
      </trkpt>
      <trkpt lat="43.1638675835" lon="-4.2587722465">
        <ele>399.08</ele>
        <time>2018-05-19T17:48:22Z</time>
      </trkpt>
      <trkpt lat="43.1639120076" lon="-4.2588969693">
        <ele>399.08</ele>
        <time>2018-05-19T17:48:24Z</time>
      </trkpt>
      <trkpt lat="43.1639641430" lon="-4.2590301577">
        <ele>399.57</ele>
        <time>2018-05-19T17:48:27Z</time>
      </trkpt>
      <trkpt lat="43.1640166976" lon="-4.2591784336">
        <ele>400.05</ele>
        <time>2018-05-19T17:48:30Z</time>
      </trkpt>
      <trkpt lat="43.1640633009" lon="-4.2593285535">
        <ele>401.01</ele>
        <time>2018-05-19T17:48:33Z</time>
      </trkpt>
      <trkpt lat="43.1641098205" lon="-4.2594711296">
        <ele>401.97</ele>
        <time>2018-05-19T17:48:36Z</time>
      </trkpt>
      <trkpt lat="43.1641564239" lon="-4.2596102692">
        <ele>401.97</ele>
        <time>2018-05-19T17:48:39Z</time>
      </trkpt>
      <trkpt lat="43.1642063800" lon="-4.2597647477">
        <ele>402.45</ele>
        <time>2018-05-19T17:48:42Z</time>
      </trkpt>
      <trkpt lat="43.1642519776" lon="-4.2598979361">
        <ele>402.93</ele>
        <time>2018-05-19T17:48:45Z</time>
      </trkpt>
      <trkpt lat="43.1643070467" lon="-4.2600361537">
        <ele>403.89</ele>
        <time>2018-05-19T17:48:48Z</time>
      </trkpt>
      <trkpt lat="43.1643601879" lon="-4.2601799034">
        <ele>404.37</ele>
        <time>2018-05-19T17:48:51Z</time>
      </trkpt>
      <trkpt lat="43.1644064561" lon="-4.2603014410">
        <ele>404.37</ele>
        <time>2018-05-19T17:48:54Z</time>
      </trkpt>
      <trkpt lat="43.1644542329" lon="-4.2604251578">
        <ele>405.33</ele>
        <time>2018-05-19T17:48:57Z</time>
      </trkpt>
      <trkpt lat="43.1645131577" lon="-4.2605506349">
        <ele>405.81</ele>
        <time>2018-05-19T17:49:00Z</time>
      </trkpt>
      <trkpt lat="43.1645631976" lon="-4.2606591806">
        <ele>406.29</ele>
        <time>2018-05-19T17:49:03Z</time>
      </trkpt>
      <trkpt lat="43.1646205299" lon="-4.2607725877">
        <ele>406.29</ele>
        <time>2018-05-19T17:49:06Z</time>
      </trkpt>
      <trkpt lat="43.1646756828" lon="-4.2608793732">
        <ele>406.29</ele>
        <time>2018-05-19T17:49:09Z</time>
      </trkpt>
      <trkpt lat="43.1647304166" lon="-4.2609809618">
        <ele>407.26</ele>
        <time>2018-05-19T17:49:12Z</time>
      </trkpt>
      <trkpt lat="43.1647867430" lon="-4.2610817123">
        <ele>407.74</ele>
        <time>2018-05-19T17:49:15Z</time>
      </trkpt>
      <trkpt lat="43.1648407225" lon="-4.2611909285">
        <ele>408.22</ele>
        <time>2018-05-19T17:49:18Z</time>
      </trkpt>
      <trkpt lat="43.1649047602" lon="-4.2613086104">
        <ele>408.22</ele>
        <time>2018-05-19T17:49:21Z</time>
      </trkpt>
      <trkpt lat="43.1649743300" lon="-4.2614426371">
        <ele>408.22</ele>
        <time>2018-05-19T17:49:25Z</time>
      </trkpt>
      <trkpt lat="43.1650282256" lon="-4.2615483329">
        <ele>409.18</ele>
        <time>2018-05-19T17:49:28Z</time>
      </trkpt>
      <trkpt lat="43.1650842167" lon="-4.2616536934">
        <ele>409.66</ele>
        <time>2018-05-19T17:49:31Z</time>
      </trkpt>
      <trkpt lat="43.1651330832" lon="-4.2617596406">
        <ele>410.62</ele>
        <time>2018-05-19T17:49:34Z</time>
      </trkpt>
      <trkpt lat="43.1651842967" lon="-4.2618666776">
        <ele>410.62</ele>
        <time>2018-05-19T17:49:37Z</time>
      </trkpt>
      <trkpt lat="43.1652394496" lon="-4.2619788274">
        <ele>411.10</ele>
        <time>2018-05-19T17:49:40Z</time>
      </trkpt>
      <trkpt lat="43.1652940158" lon="-4.2621192243">
        <ele>412.06</ele>
        <time>2018-05-19T17:49:44Z</time>
      </trkpt>
      <trkpt lat="43.1653328240" lon="-4.2622437794">
        <ele>412.54</ele>
        <time>2018-05-19T17:49:47Z</time>
      </trkpt>
      <trkpt lat="43.1653700396" lon="-4.2623659037">
        <ele>413.02</ele>
        <time>2018-05-19T17:49:50Z</time>
      </trkpt>
      <trkpt lat="43.1654128712" lon="-4.2624988407">
        <ele>413.50</ele>
        <time>2018-05-19T17:49:53Z</time>
      </trkpt>
      <trkpt lat="43.1654368434" lon="-4.2626080569">
        <ele>413.50</ele>
        <time>2018-05-19T17:49:56Z</time>
      </trkpt>
      <trkpt lat="43.1654644199" lon="-4.2627352104">
        <ele>414.47</ele>
        <time>2018-05-19T17:49:59Z</time>
      </trkpt>
      <trkpt lat="43.1654850394" lon="-4.2628580891">
        <ele>414.47</ele>
        <time>2018-05-19T17:50:02Z</time>
      </trkpt>
      <trkpt lat="43.1655163039" lon="-4.2630243022">
        <ele>414.95</ele>
        <time>2018-05-19T17:50:06Z</time>
      </trkpt>
      <trkpt lat="43.1655354146" lon="-4.2631574906">
        <ele>415.43</ele>
        <time>2018-05-19T17:50:09Z</time>
      </trkpt>
      <trkpt lat="43.1655608956" lon="-4.2633178364">
        <ele>415.91</ele>
        <time>2018-05-19T17:50:13Z</time>
      </trkpt>
      <trkpt lat="43.1655864604" lon="-4.2634832114">
        <ele>416.39</ele>
        <time>2018-05-19T17:50:17Z</time>
      </trkpt>
      <trkpt lat="43.1656050682" lon="-4.2636108678">
        <ele>416.39</ele>
        <time>2018-05-19T17:50:20Z</time>
      </trkpt>
      <trkpt lat="43.1656210776" lon="-4.2637419607">
        <ele>417.35</ele>
        <time>2018-05-19T17:50:23Z</time>
      </trkpt>
      <trkpt lat="43.1656344887" lon="-4.2638905719">
        <ele>418.31</ele>
        <time>2018-05-19T17:50:27Z</time>
      </trkpt>
      <trkpt lat="43.1656490732" lon="-4.2640180606">
        <ele>418.31</ele>
        <time>2018-05-19T17:50:30Z</time>
      </trkpt>
      <trkpt lat="43.1656669267" lon="-4.2641875427">
        <ele>418.79</ele>
        <time>2018-05-19T17:50:34Z</time>
      </trkpt>
      <trkpt lat="43.1656815950" lon="-4.2643207312">
        <ele>419.27</ele>
        <time>2018-05-19T17:50:37Z</time>
      </trkpt>
      <trkpt lat="43.1657011248" lon="-4.2644581106">
        <ele>419.75</ele>
        <time>2018-05-19T17:50:40Z</time>
      </trkpt>
      <trkpt lat="43.1657168828" lon="-4.2645909637">
        <ele>420.23</ele>
        <time>2018-05-19T17:50:43Z</time>
      </trkpt>
      <trkpt lat="43.1657338142" lon="-4.2647268344">
        <ele>420.71</ele>
        <time>2018-05-19T17:50:46Z</time>
      </trkpt>
      <trkpt lat="43.1657719519" lon="-4.2650984880">
        <ele>421.68</ele>
        <time>2018-05-19T17:50:55Z</time>
      </trkpt>
      <trkpt lat="43.1657865364" lon="-4.2652496137">
        <ele>422.16</ele>
        <time>2018-05-19T17:50:58Z</time>
      </trkpt>
      <trkpt lat="43.1657973491" lon="-4.2653802875">
        <ele>422.64</ele>
        <time>2018-05-19T17:51:01Z</time>
      </trkpt>
      <trkpt lat="43.1658119336" lon="-4.2655087821">
        <ele>423.60</ele>
        <time>2018-05-19T17:51:04Z</time>
      </trkpt>
      <trkpt lat="43.1658217404" lon="-4.2656443175">
        <ele>424.08</ele>
        <time>2018-05-19T17:51:07Z</time>
      </trkpt>
      <trkpt lat="43.1658262666" lon="-4.2658028193">
        <ele>424.08</ele>
        <time>2018-05-19T17:51:11Z</time>
      </trkpt>
      <trkpt lat="43.1658235006" lon="-4.2659680266">
        <ele>424.56</ele>
        <time>2018-05-19T17:51:15Z</time>
      </trkpt>
      <trkpt lat="43.1658224110" lon="-4.2661209963">
        <ele>425.52</ele>
        <time>2018-05-19T17:51:19Z</time>
      </trkpt>
      <trkpt lat="43.1658164598" lon="-4.2662691046">
        <ele>426.00</ele>
        <time>2018-05-19T17:51:23Z</time>
      </trkpt>
      <trkpt lat="43.1658092514" lon="-4.2664207332">
        <ele>426.96</ele>
        <time>2018-05-19T17:51:27Z</time>
      </trkpt>
      <trkpt lat="43.1658120174" lon="-4.2665608786">
        <ele>427.92</ele>
        <time>2018-05-19T17:51:31Z</time>
      </trkpt>
      <trkpt lat="43.1658018753" lon="-4.2667033710">
        <ele>428.40</ele>
        <time>2018-05-19T17:51:35Z</time>
      </trkpt>
      <trkpt lat="43.1657935772" lon="-4.2668505572">
        <ele>428.40</ele>
        <time>2018-05-19T17:51:39Z</time>
      </trkpt>
      <trkpt lat="43.1657880452" lon="-4.2669994198">
        <ele>429.37</ele>
        <time>2018-05-19T17:51:43Z</time>
      </trkpt>
      <trkpt lat="43.1657833513" lon="-4.2671458516">
        <ele>430.33</ele>
        <time>2018-05-19T17:51:47Z</time>
      </trkpt>
      <trkpt lat="43.1657830160" lon="-4.2672969773">
        <ele>430.81</ele>
        <time>2018-05-19T17:51:51Z</time>
      </trkpt>
      <trkpt lat="43.1657806691" lon="-4.2674369551">
        <ele>431.29</ele>
        <time>2018-05-19T17:51:55Z</time>
      </trkpt>
      <trkpt lat="43.1657895539" lon="-4.2675848119">
        <ele>432.25</ele>
        <time>2018-05-19T17:51:59Z</time>
      </trkpt>
      <trkpt lat="43.1657990254" lon="-4.2677252926">
        <ele>433.21</ele>
        <time>2018-05-19T17:52:03Z</time>
      </trkpt>
      <trkpt lat="43.1658237521" lon="-4.2678631749">
        <ele>433.69</ele>
        <time>2018-05-19T17:52:07Z</time>
      </trkpt>
      <trkpt lat="43.1658454612" lon="-4.2680028174">
        <ele>434.17</ele>
        <time>2018-05-19T17:52:11Z</time>
      </trkpt>
      <trkpt lat="43.1658747979" lon="-4.2681413703">
        <ele>435.13</ele>
        <time>2018-05-19T17:52:15Z</time>
      </trkpt>
      <trkpt lat="43.1659012008" lon="-4.2682716250">
        <ele>435.61</ele>
        <time>2018-05-19T17:52:19Z</time>
      </trkpt>
      <trkpt lat="43.1659324653" lon="-4.2684021313">
        <ele>436.58</ele>
        <time>2018-05-19T17:52:23Z</time>
      </trkpt>
      <trkpt lat="43.1659551803" lon="-4.2685395945">
        <ele>437.54</ele>
        <time>2018-05-19T17:52:27Z</time>
      </trkpt>
      <trkpt lat="43.1659872830" lon="-4.2686846852">
        <ele>438.02</ele>
        <time>2018-05-19T17:52:31Z</time>
      </trkpt>
      <trkpt lat="43.1660281029" lon="-4.2688249983">
        <ele>438.98</ele>
        <time>2018-05-19T17:52:35Z</time>
      </trkpt>
      <trkpt lat="43.1660718564" lon="-4.2689648084">
        <ele>439.46</ele>
        <time>2018-05-19T17:52:39Z</time>
      </trkpt>
      <trkpt lat="43.1661120895" lon="-4.2691133358">
        <ele>439.94</ele>
        <time>2018-05-19T17:52:43Z</time>
      </trkpt>
      <trkpt lat="43.1661348883" lon="-4.2692319397">
        <ele>440.90</ele>
        <time>2018-05-19T17:52:46Z</time>
      </trkpt>
      <trkpt lat="43.1661734451" lon="-4.2693862505">
        <ele>441.38</ele>
        <time>2018-05-19T17:52:50Z</time>
      </trkpt>
      <trkpt lat="43.1662047096" lon="-4.2695132364">
        <ele>441.38</ele>
        <time>2018-05-19T17:52:53Z</time>
      </trkpt>
      <trkpt lat="43.1662337109" lon="-4.2696439102">
        <ele>441.86</ele>
        <time>2018-05-19T17:52:56Z</time>
      </trkpt>
      <trkpt lat="43.1662719324" lon="-4.2697698064">
        <ele>441.86</ele>
        <time>2018-05-19T17:52:59Z</time>
      </trkpt>
      <trkpt lat="43.1663161889" lon="-4.2699102871">
        <ele>441.86</ele>
        <time>2018-05-19T17:53:02Z</time>
      </trkpt>
      <trkpt lat="43.1663726829" lon="-4.2700308189">
        <ele>441.86</ele>
        <time>2018-05-19T17:53:05Z</time>
      </trkpt>
      <trkpt lat="43.1664554123" lon="-4.2701639235">
        <ele>441.86</ele>
        <time>2018-05-19T17:53:08Z</time>
      </trkpt>
      <trkpt lat="43.1665612757" lon="-4.2702779174">
        <ele>441.86</ele>
        <time>2018-05-19T17:53:11Z</time>
      </trkpt>
      <trkpt lat="43.1666515488" lon="-4.2703467328">
        <ele>441.86</ele>
        <time>2018-05-19T17:53:13Z</time>
      </trkpt>
      <trkpt lat="43.1667590048" lon="-4.2704139557">
        <ele>440.42</ele>
        <time>2018-05-19T17:53:15Z</time>
      </trkpt>
      <trkpt lat="43.1668491941" lon="-4.2704609782">
        <ele>440.42</ele>
        <time>2018-05-19T17:53:17Z</time>
      </trkpt>
      <trkpt lat="43.1669631042" lon="-4.2705188133">
        <ele>440.42</ele>
        <time>2018-05-19T17:53:19Z</time>
      </trkpt>
      <trkpt lat="43.1670822110" lon="-4.2705831025">
        <ele>440.42</ele>
        <time>2018-05-19T17:53:21Z</time>
      </trkpt>
      <trkpt lat="43.1671854760" lon="-4.2706377525">
        <ele>439.94</ele>
        <time>2018-05-19T17:53:23Z</time>
      </trkpt>
      <trkpt lat="43.1673064269" lon="-4.2707130220">
        <ele>439.46</ele>
        <time>2018-05-19T17:53:25Z</time>
      </trkpt>
      <trkpt lat="43.1673997175" lon="-4.2707866989">
        <ele>438.50</ele>
        <time>2018-05-19T17:53:27Z</time>
      </trkpt>
      <trkpt lat="43.1674926728" lon="-4.2708836775">
        <ele>438.50</ele>
        <time>2018-05-19T17:53:29Z</time>
      </trkpt>
      <trkpt lat="43.1675708760" lon="-4.2710146029">
        <ele>438.50</ele>
        <time>2018-05-19T17:53:31Z</time>
      </trkpt>
      <trkpt lat="43.1676232629" lon="-4.2711750325">
        <ele>438.50</ele>
        <time>2018-05-19T17:53:33Z</time>
      </trkpt>
      <trkpt lat="43.1676479056" lon="-4.2713518068">
        <ele>438.50</ele>
        <time>2018-05-19T17:53:35Z</time>
      </trkpt>
      <trkpt lat="43.1676421221" lon="-4.2715315148">
        <ele>438.50</ele>
        <time>2018-05-19T17:53:37Z</time>
      </trkpt>
      <trkpt lat="43.1676101871" lon="-4.2716763541">
        <ele>438.50</ele>
        <time>2018-05-19T17:53:39Z</time>
      </trkpt>
      <trkpt lat="43.1675551180" lon="-4.2718134820">
        <ele>438.50</ele>
        <time>2018-05-19T17:53:41Z</time>
      </trkpt>
      <trkpt lat="43.1674839556" lon="-4.2719248775">
        <ele>438.50</ele>
        <time>2018-05-19T17:53:43Z</time>
      </trkpt>
      <trkpt lat="43.1674083509" lon="-4.2720110435">
        <ele>438.50</ele>
        <time>2018-05-19T17:53:45Z</time>
      </trkpt>
      <trkpt lat="43.1673176587" lon="-4.2721023224">
        <ele>438.50</ele>
        <time>2018-05-19T17:53:47Z</time>
      </trkpt>
      <trkpt lat="43.1672426406" lon="-4.2721661925">
        <ele>438.50</ele>
        <time>2018-05-19T17:53:49Z</time>
      </trkpt>
      <trkpt lat="43.1671554688" lon="-4.2722407077">
        <ele>438.50</ele>
        <time>2018-05-19T17:53:51Z</time>
      </trkpt>
      <trkpt lat="43.1670705602" lon="-4.2723293044">
        <ele>439.46</ele>
        <time>2018-05-19T17:53:53Z</time>
      </trkpt>
      <trkpt lat="43.1669997331" lon="-4.2724229302">
        <ele>439.46</ele>
        <time>2018-05-19T17:53:55Z</time>
      </trkpt>
      <trkpt lat="43.1669371203" lon="-4.2725406960">
        <ele>439.94</ele>
        <time>2018-05-19T17:53:57Z</time>
      </trkpt>
      <trkpt lat="43.1669016648" lon="-4.2726583779">
        <ele>439.94</ele>
        <time>2018-05-19T17:53:59Z</time>
      </trkpt>
      <trkpt lat="43.1668888405" lon="-4.2727936618">
        <ele>439.46</ele>
        <time>2018-05-19T17:54:02Z</time>
      </trkpt>
      <trkpt lat="43.1669639423" lon="-4.2729514930">
        <ele>438.50</ele>
        <time>2018-05-19T17:54:05Z</time>
      </trkpt>
      <trkpt lat="43.1670201011" lon="-4.2730423529">
        <ele>438.50</ele>
        <time>2018-05-19T17:54:07Z</time>
      </trkpt>
      <trkpt lat="43.1670744997" lon="-4.2731472105">
        <ele>438.50</ele>
        <time>2018-05-19T17:54:09Z</time>
      </trkpt>
      <trkpt lat="43.1671327539" lon="-4.2732633837">
        <ele>439.94</ele>
        <time>2018-05-19T17:54:12Z</time>
      </trkpt>
      <trkpt lat="43.1671899185" lon="-4.2733811494">
        <ele>440.42</ele>
        <time>2018-05-19T17:54:15Z</time>
      </trkpt>
      <trkpt lat="43.1672498491" lon="-4.2734973226">
        <ele>440.90</ele>
        <time>2018-05-19T17:54:18Z</time>
      </trkpt>
      <trkpt lat="43.1673210952" lon="-4.2736157589">
        <ele>441.86</ele>
        <time>2018-05-19T17:54:21Z</time>
      </trkpt>
      <trkpt lat="43.1673806068" lon="-4.2737152521">
        <ele>441.86</ele>
        <time>2018-05-19T17:54:24Z</time>
      </trkpt>
      <trkpt lat="43.1674500927" lon="-4.2738039326">
        <ele>442.34</ele>
        <time>2018-05-19T17:54:27Z</time>
      </trkpt>
      <trkpt lat="43.1675573811" lon="-4.2738482729">
        <ele>443.31</ele>
        <time>2018-05-19T17:54:31Z</time>
      </trkpt>
      <trkpt lat="43.1676661782" lon="-4.2738639470">
        <ele>444.75</ele>
        <time>2018-05-19T17:54:36Z</time>
      </trkpt>
      <trkpt lat="43.1677761488" lon="-4.2738896795">
        <ele>446.67</ele>
        <time>2018-05-19T17:54:42Z</time>
      </trkpt>
      <trkpt lat="43.1678768154" lon="-4.2739146575">
        <ele>447.15</ele>
        <time>2018-05-19T17:54:47Z</time>
      </trkpt>
      <trkpt lat="43.1679822598" lon="-4.2739569861">
        <ele>448.11</ele>
        <time>2018-05-19T17:54:52Z</time>
      </trkpt>
      <trkpt lat="43.1680845190" lon="-4.2740217783">
        <ele>448.59</ele>
        <time>2018-05-19T17:54:57Z</time>
      </trkpt>
      <trkpt lat="43.1681601238" lon="-4.2741050106">
        <ele>449.07</ele>
        <time>2018-05-19T17:55:02Z</time>
      </trkpt>
      <trkpt lat="43.1682470441" lon="-4.2742191721">
        <ele>450.52</ele>
        <time>2018-05-19T17:55:08Z</time>
      </trkpt>
      <trkpt lat="43.1682953238" lon="-4.2743542884">
        <ele>451.48</ele>
        <time>2018-05-19T17:55:13Z</time>
      </trkpt>
      <trkpt lat="43.1683117524" lon="-4.2744913325">
        <ele>451.96</ele>
        <time>2018-05-19T17:55:17Z</time>
      </trkpt>
      <trkpt lat="43.1683201343" lon="-4.2746595573">
        <ele>452.92</ele>
        <time>2018-05-19T17:55:22Z</time>
      </trkpt>
      <trkpt lat="43.1683046278" lon="-4.2747989483">
        <ele>452.92</ele>
        <time>2018-05-19T17:55:26Z</time>
      </trkpt>
      <trkpt lat="43.1682695076" lon="-4.2749452125">
        <ele>453.88</ele>
        <time>2018-05-19T17:55:31Z</time>
      </trkpt>
      <trkpt lat="43.1682390813" lon="-4.2750787362">
        <ele>455.32</ele>
        <time>2018-05-19T17:55:36Z</time>
      </trkpt>
      <trkpt lat="43.1682153605" lon="-4.2752120085">
        <ele>457.24</ele>
        <time>2018-05-19T17:55:41Z</time>
      </trkpt>
      <trkpt lat="43.1682048831" lon="-4.2753317021">
        <ele>458.21</ele>
        <time>2018-05-19T17:55:46Z</time>
      </trkpt>
      <trkpt lat="43.1681974232" lon="-4.2754581012">
        <ele>458.69</ele>
        <time>2018-05-19T17:55:51Z</time>
      </trkpt>
      <trkpt lat="43.1682273466" lon="-4.2755914573">
        <ele>459.65</ele>
        <time>2018-05-19T17:55:57Z</time>
      </trkpt>
      <trkpt lat="43.1682626344" lon="-4.2757146712">
        <ele>461.09</ele>
        <time>2018-05-19T17:56:02Z</time>
      </trkpt>
      <trkpt lat="43.1683092378" lon="-4.2758382205">
        <ele>462.05</ele>
        <time>2018-05-19T17:56:08Z</time>
      </trkpt>
      <trkpt lat="43.1683814060" lon="-4.2759258952">
        <ele>463.49</ele>
        <time>2018-05-19T17:56:13Z</time>
      </trkpt>
      <trkpt lat="43.1684421748" lon="-4.2760533839">
        <ele>464.45</ele>
        <time>2018-05-19T17:56:19Z</time>
      </trkpt>
      <trkpt lat="43.1685391534" lon="-4.2761152424">
        <ele>464.93</ele>
        <time>2018-05-19T17:56:24Z</time>
      </trkpt>
      <trkpt lat="43.1686403230" lon="-4.2761048488">
        <ele>466.38</ele>
        <time>2018-05-19T17:56:29Z</time>
      </trkpt>
      <trkpt lat="43.1687380560" lon="-4.2760342732">
        <ele>467.34</ele>
        <time>2018-05-19T17:56:34Z</time>
      </trkpt>
      <trkpt lat="43.1688175164" lon="-4.2759376299">
        <ele>468.30</ele>
        <time>2018-05-19T17:56:40Z</time>
      </trkpt>
      <trkpt lat="43.1688740943" lon="-4.2758227140">
        <ele>470.22</ele>
        <time>2018-05-19T17:56:46Z</time>
      </trkpt>
      <trkpt lat="43.1689659599" lon="-4.2757981550">
        <ele>471.18</ele>
        <time>2018-05-19T17:56:52Z</time>
      </trkpt>
      <trkpt lat="43.1690712366" lon="-4.2758102249">
        <ele>472.63</ele>
        <time>2018-05-19T17:56:58Z</time>
      </trkpt>
      <trkpt lat="43.1691468414" lon="-4.2759069521">
        <ele>474.55</ele>
        <time>2018-05-19T17:57:05Z</time>
      </trkpt>
      <trkpt lat="43.1691717356" lon="-4.2760324292">
        <ele>476.95</ele>
        <time>2018-05-19T17:57:12Z</time>
      </trkpt>
      <trkpt lat="43.1691800337" lon="-4.2761655338">
        <ele>478.87</ele>
        <time>2018-05-19T17:57:20Z</time>
      </trkpt>
      <trkpt lat="43.1691934448" lon="-4.2762965430">
        <ele>481.28</ele>
        <time>2018-05-19T17:57:28Z</time>
      </trkpt>
      <trkpt lat="43.1692077778" lon="-4.2764469143">
        <ele>483.68</ele>
        <time>2018-05-19T17:57:36Z</time>
      </trkpt>
      <trkpt lat="43.1692141481" lon="-4.2766003869">
        <ele>484.64</ele>
        <time>2018-05-19T17:57:44Z</time>
      </trkpt>
      <trkpt lat="43.1691993959" lon="-4.2767486628">
        <ele>487.05</ele>
        <time>2018-05-19T17:57:52Z</time>
      </trkpt>
      <trkpt lat="43.1691612583" lon="-4.2769043148">
        <ele>488.49</ele>
        <time>2018-05-19T17:58:00Z</time>
      </trkpt>
      <trkpt lat="43.1691330951" lon="-4.2770597152">
        <ele>490.41</ele>
        <time>2018-05-19T17:58:07Z</time>
      </trkpt>
      <trkpt lat="43.1691154093" lon="-4.2772131041">
        <ele>491.85</ele>
        <time>2018-05-19T17:58:14Z</time>
      </trkpt>
      <trkpt lat="43.1691020820" lon="-4.2773682531">
        <ele>493.77</ele>
        <time>2018-05-19T17:58:22Z</time>
      </trkpt>
      <trkpt lat="43.1690888386" lon="-4.2775166128">
        <ele>494.74</ele>
        <time>2018-05-19T17:58:29Z</time>
      </trkpt>
      <trkpt lat="43.1690565683" lon="-4.2776706722">
        <ele>494.74</ele>
        <time>2018-05-19T17:58:35Z</time>
      </trkpt>
      <trkpt lat="43.1690264773" lon="-4.2778342031">
        <ele>494.74</ele>
        <time>2018-05-19T17:58:40Z</time>
      </trkpt>
      <trkpt lat="43.1689751800" lon="-4.2779986560">
        <ele>494.74</ele>
        <time>2018-05-19T17:58:44Z</time>
      </trkpt>
      <trkpt lat="43.1689343601" lon="-4.2781157512">
        <ele>494.74</ele>
        <time>2018-05-19T17:58:46Z</time>
      </trkpt>
      <trkpt lat="43.1688708253" lon="-4.2782745883">
        <ele>493.77</ele>
        <time>2018-05-19T17:58:49Z</time>
      </trkpt>
      <trkpt lat="43.1688160077" lon="-4.2784213554">
        <ele>493.29</ele>
        <time>2018-05-19T17:58:52Z</time>
      </trkpt>
      <trkpt lat="43.1687815581" lon="-4.2785577290">
        <ele>491.85</ele>
        <time>2018-05-19T17:58:54Z</time>
      </trkpt>
      <trkpt lat="43.1687557418" lon="-4.2787025683">
        <ele>491.37</ele>
        <time>2018-05-19T17:58:56Z</time>
      </trkpt>
      <trkpt lat="43.1687209569" lon="-4.2788621597">
        <ele>490.41</ele>
        <time>2018-05-19T17:58:58Z</time>
      </trkpt>
      <trkpt lat="43.1686772872" lon="-4.2790364195">
        <ele>489.93</ele>
        <time>2018-05-19T17:59:00Z</time>
      </trkpt>
      <trkpt lat="43.1686429214" lon="-4.2791997828">
        <ele>489.93</ele>
        <time>2018-05-19T17:59:02Z</time>
      </trkpt>
      <trkpt lat="43.1686159316" lon="-4.2793555185">
        <ele>488.97</ele>
        <time>2018-05-19T17:59:04Z</time>
      </trkpt>
      <trkpt lat="43.1685801409" lon="-4.2795064766">
        <ele>488.97</ele>
        <time>2018-05-19T17:59:06Z</time>
      </trkpt>
      <trkpt lat="43.1685545761" lon="-4.2796936445">
        <ele>490.89</ele>
        <time>2018-05-19T17:59:09Z</time>
      </trkpt>
      <trkpt lat="43.1685478706" lon="-4.2798464466">
        <ele>492.81</ele>
        <time>2018-05-19T17:59:12Z</time>
      </trkpt>
      <trkpt lat="43.1685455237" lon="-4.2800013442">
        <ele>493.77</ele>
        <time>2018-05-19T17:59:16Z</time>
      </trkpt>
      <trkpt lat="43.1685501337" lon="-4.2801472731">
        <ele>494.74</ele>
        <time>2018-05-19T17:59:20Z</time>
      </trkpt>
      <trkpt lat="43.1685923785" lon="-4.2803035118">
        <ele>495.70</ele>
        <time>2018-05-19T17:59:25Z</time>
      </trkpt>
      <trkpt lat="43.1686448492" lon="-4.2804333474">
        <ele>497.14</ele>
        <time>2018-05-19T17:59:30Z</time>
      </trkpt>
      <trkpt lat="43.1686990801" lon="-4.2805538792">
        <ele>498.58</ele>
        <time>2018-05-19T17:59:35Z</time>
      </trkpt>
      <trkpt lat="43.1687543169" lon="-4.2806845531">
        <ele>499.54</ele>
        <time>2018-05-19T17:59:42Z</time>
      </trkpt>
      <trkpt lat="43.1687995791" lon="-4.2808336671">
        <ele>500.98</ele>
        <time>2018-05-19T17:59:48Z</time>
      </trkpt>
      <trkpt lat="43.1688101403" lon="-4.2809885647">
        <ele>501.95</ele>
        <time>2018-05-19T17:59:55Z</time>
      </trkpt>
      <trkpt lat="43.1687965617" lon="-4.2811406963">
        <ele>502.91</ele>
        <time>2018-05-19T18:00:01Z</time>
      </trkpt>
      <trkpt lat="43.1688060332" lon="-4.2812893912">
        <ele>503.87</ele>
        <time>2018-05-19T18:00:07Z</time>
      </trkpt>
      <trkpt lat="43.1688240543" lon="-4.2814355716">
        <ele>504.35</ele>
        <time>2018-05-19T18:00:13Z</time>
      </trkpt>
      <trkpt lat="43.1688486133" lon="-4.2815742083">
        <ele>505.31</ele>
        <time>2018-05-19T18:00:19Z</time>
      </trkpt>
      <trkpt lat="43.1688771117" lon="-4.2817352246">
        <ele>506.27</ele>
        <time>2018-05-19T18:00:26Z</time>
      </trkpt>
      <trkpt lat="43.1688937917" lon="-4.2818788067">
        <ele>506.75</ele>
        <time>2018-05-19T18:00:32Z</time>
      </trkpt>
      <trkpt lat="43.1689035986" lon="-4.2820471991">
        <ele>508.19</ele>
        <time>2018-05-19T18:00:39Z</time>
      </trkpt>
      <trkpt lat="43.1689442508" lon="-4.2822011746">
        <ele>509.64</ele>
        <time>2018-05-19T18:00:46Z</time>
      </trkpt>
      <trkpt lat="43.1689989008" lon="-4.2823410686">
        <ele>510.60</ele>
        <time>2018-05-19T18:00:53Z</time>
      </trkpt>
      <trkpt lat="43.1690569874" lon="-4.2824721616">
        <ele>511.56</ele>
        <time>2018-05-19T18:00:59Z</time>
      </trkpt>
      <trkpt lat="43.1691150740" lon="-4.2825918552">
        <ele>512.04</ele>
        <time>2018-05-19T18:01:05Z</time>
      </trkpt>
      <trkpt lat="43.1691926066" lon="-4.2826907616">
        <ele>512.04</ele>
        <time>2018-05-19T18:01:09Z</time>
      </trkpt>
      <trkpt lat="43.1692834664" lon="-4.2828014866">
        <ele>512.04</ele>
        <time>2018-05-19T18:01:13Z</time>
      </trkpt>
      <trkpt lat="43.1693807803" lon="-4.2828951124">
        <ele>512.52</ele>
        <time>2018-05-19T18:01:17Z</time>
      </trkpt>
      <trkpt lat="43.1695175730" lon="-4.2829635926">
        <ele>509.16</ele>
        <time>2018-05-19T18:01:20Z</time>
      </trkpt>
      <trkpt lat="43.1696238555" lon="-4.2830182426">
        <ele>508.67</ele>
        <time>2018-05-19T18:01:22Z</time>
      </trkpt>
      <trkpt lat="43.1697159726" lon="-4.2830480821">
        <ele>508.67</ele>
        <time>2018-05-19T18:01:24Z</time>
      </trkpt>
      <trkpt lat="43.1698316429" lon="-4.2830798496">
        <ele>508.67</ele>
        <time>2018-05-19T18:01:27Z</time>
      </trkpt>
      <trkpt lat="43.1699454691" lon="-4.2831413727">
        <ele>507.71</ele>
        <time>2018-05-19T18:01:30Z</time>
      </trkpt>
      <trkpt lat="43.1700325571" lon="-4.2832337413">
        <ele>506.75</ele>
        <time>2018-05-19T18:01:33Z</time>
      </trkpt>
      <trkpt lat="43.1701152027" lon="-4.2833722103">
        <ele>505.31</ele>
        <time>2018-05-19T18:01:36Z</time>
      </trkpt>
      <trkpt lat="43.1701631472" lon="-4.2835245933">
        <ele>503.87</ele>
        <time>2018-05-19T18:01:38Z</time>
      </trkpt>
      <trkpt lat="43.1701920647" lon="-4.2836760543">
        <ele>501.46</ele>
        <time>2018-05-19T18:01:40Z</time>
      </trkpt>
      <trkpt lat="43.1702505704" lon="-4.2838322930">
        <ele>501.46</ele>
        <time>2018-05-19T18:01:42Z</time>
      </trkpt>
      <trkpt lat="43.1703248341" lon="-4.2839445267">
        <ele>501.46</ele>
        <time>2018-05-19T18:01:44Z</time>
      </trkpt>
      <trkpt lat="43.1704058871" lon="-4.2840544973">
        <ele>503.39</ele>
        <time>2018-05-19T18:01:47Z</time>
      </trkpt>
      <trkpt lat="43.1704793964" lon="-4.2841873504">
        <ele>504.83</ele>
        <time>2018-05-19T18:01:52Z</time>
      </trkpt>
      <trkpt lat="43.1705584377" lon="-4.2843073793">
        <ele>505.79</ele>
        <time>2018-05-19T18:01:57Z</time>
      </trkpt>
      <trkpt lat="43.1706520636" lon="-4.2844255641">
        <ele>506.75</ele>
        <time>2018-05-19T18:02:03Z</time>
      </trkpt>
      <trkpt lat="43.1707626209" lon="-4.2845132388">
        <ele>508.19</ele>
        <time>2018-05-19T18:02:09Z</time>
      </trkpt>
      <trkpt lat="43.1708514690" lon="-4.2845926154">
        <ele>509.64</ele>
        <time>2018-05-19T18:02:15Z</time>
      </trkpt>
      <trkpt lat="43.1709340308" lon="-4.2846753448">
        <ele>511.56</ele>
        <time>2018-05-19T18:02:21Z</time>
      </trkpt>
      <trkpt lat="43.1710254773" lon="-4.2847431544">
        <ele>512.52</ele>
        <time>2018-05-19T18:02:27Z</time>
      </trkpt>
      <trkpt lat="43.1711139064" lon="-4.2848049290">
        <ele>513.48</ele>
        <time>2018-05-19T18:02:33Z</time>
      </trkpt>
      <trkpt lat="43.1712101307" lon="-4.2848729063">
        <ele>514.92</ele>
        <time>2018-05-19T18:02:40Z</time>
      </trkpt>
      <trkpt lat="43.1713126414" lon="-4.2849294841">
        <ele>515.88</ele>
        <time>2018-05-19T18:02:46Z</time>
      </trkpt>
      <trkpt lat="43.1713827141" lon="-4.2850218527">
        <ele>515.88</ele>
        <time>2018-05-19T18:02:50Z</time>
      </trkpt>
      <trkpt lat="43.1714559719" lon="-4.2851491738">
        <ele>515.88</ele>
        <time>2018-05-19T18:02:54Z</time>
      </trkpt>
      <trkpt lat="43.1715156510" lon="-4.2852889001">
        <ele>515.88</ele>
        <time>2018-05-19T18:02:58Z</time>
      </trkpt>
      <trkpt lat="43.1715659425" lon="-4.2854289617">
        <ele>516.37</ele>
        <time>2018-05-19T18:03:02Z</time>
      </trkpt>
      <trkpt lat="43.1716108695" lon="-4.2855817638">
        <ele>516.37</ele>
        <time>2018-05-19T18:03:06Z</time>
      </trkpt>
      <trkpt lat="43.1716735661" lon="-4.2857226636">
        <ele>516.85</ele>
        <time>2018-05-19T18:03:10Z</time>
      </trkpt>
      <trkpt lat="43.1717493385" lon="-4.2858436145">
        <ele>516.85</ele>
        <time>2018-05-19T18:03:14Z</time>
      </trkpt>
      <trkpt lat="43.1718397792" lon="-4.2859390005">
        <ele>517.81</ele>
        <time>2018-05-19T18:03:18Z</time>
      </trkpt>
      <trkpt lat="43.1719527673" lon="-4.2860156111">
        <ele>517.81</ele>
        <time>2018-05-19T18:03:22Z</time>
      </trkpt>
      <trkpt lat="43.1720696948" lon="-4.2860852648">
        <ele>515.88</ele>
        <time>2018-05-19T18:03:25Z</time>
      </trkpt>
      <trkpt lat="43.1721591298" lon="-4.2861306109">
        <ele>515.40</ele>
        <time>2018-05-19T18:03:27Z</time>
      </trkpt>
      <trkpt lat="43.1722615566" lon="-4.2861757055">
        <ele>514.92</ele>
        <time>2018-05-19T18:03:29Z</time>
      </trkpt>
      <trkpt lat="43.1723944098" lon="-4.2862070538">
        <ele>514.92</ele>
        <time>2018-05-19T18:03:32Z</time>
      </trkpt>
      <trkpt lat="43.1724829227" lon="-4.2862544116">
        <ele>514.92</ele>
        <time>2018-05-19T18:03:34Z</time>
      </trkpt>
      <trkpt lat="43.1725628860" lon="-4.2863420025">
        <ele>514.44</ele>
        <time>2018-05-19T18:03:36Z</time>
      </trkpt>
      <trkpt lat="43.1726302765" lon="-4.2864603549">
        <ele>513.00</ele>
        <time>2018-05-19T18:03:38Z</time>
      </trkpt>
      <trkpt lat="43.1727051269" lon="-4.2865820602">
        <ele>513.00</ele>
        <time>2018-05-19T18:03:40Z</time>
      </trkpt>
      <trkpt lat="43.1727951486" lon="-4.2867137399">
        <ele>513.48</ele>
        <time>2018-05-19T18:03:43Z</time>
      </trkpt>
      <trkpt lat="43.1728584319" lon="-4.2868395522">
        <ele>514.92</ele>
        <time>2018-05-19T18:03:46Z</time>
      </trkpt>
      <trkpt lat="43.1728973240" lon="-4.2869848944">
        <ele>514.92</ele>
        <time>2018-05-19T18:03:49Z</time>
      </trkpt>
      <trkpt lat="43.1729654688" lon="-4.2871039174">
        <ele>515.40</ele>
        <time>2018-05-19T18:03:53Z</time>
      </trkpt>
      <trkpt lat="43.1730352063" lon="-4.2872057576">
        <ele>515.88</ele>
        <time>2018-05-19T18:03:56Z</time>
      </trkpt>
      <trkpt lat="43.1730984896" lon="-4.2873367667">
        <ele>516.37</ele>
        <time>2018-05-19T18:03:59Z</time>
      </trkpt>
      <trkpt lat="43.1731676403" lon="-4.2874638364">
        <ele>516.85</ele>
        <time>2018-05-19T18:04:02Z</time>
      </trkpt>
      <trkpt lat="43.1732533872" lon="-4.2875782494">
        <ele>517.33</ele>
        <time>2018-05-19T18:04:05Z</time>
      </trkpt>
      <trkpt lat="43.1733315904" lon="-4.2876628228">
        <ele>517.81</ele>
        <time>2018-05-19T18:04:08Z</time>
      </trkpt>
      <trkpt lat="43.1734210253" lon="-4.2877603881">
        <ele>518.29</ele>
        <time>2018-05-19T18:04:11Z</time>
      </trkpt>
      <trkpt lat="43.1735209376" lon="-4.2878716160">
        <ele>518.29</ele>
        <time>2018-05-19T18:04:14Z</time>
      </trkpt>
      <trkpt lat="43.1736150663" lon="-4.2879860289">
        <ele>518.29</ele>
        <time>2018-05-19T18:04:17Z</time>
      </trkpt>
      <trkpt lat="43.1736873183" lon="-4.2880663276">
        <ele>518.29</ele>
        <time>2018-05-19T18:04:19Z</time>
      </trkpt>
      <trkpt lat="43.1737592351" lon="-4.2881475482">
        <ele>518.29</ele>
        <time>2018-05-19T18:04:21Z</time>
      </trkpt>
      <trkpt lat="43.1738366839" lon="-4.2882388271">
        <ele>516.37</ele>
        <time>2018-05-19T18:04:23Z</time>
      </trkpt>
      <trkpt lat="43.1739332434" lon="-4.2883389071">
        <ele>515.40</ele>
        <time>2018-05-19T18:04:25Z</time>
      </trkpt>
      <trkpt lat="43.1740442198" lon="-4.2884271685">
        <ele>514.44</ele>
        <time>2018-05-19T18:04:27Z</time>
      </trkpt>
      <trkpt lat="43.1741380133" lon="-4.2885114066">
        <ele>513.96</ele>
        <time>2018-05-19T18:04:29Z</time>
      </trkpt>
      <trkpt lat="43.1742314715" lon="-4.2886233889">
        <ele>513.96</ele>
        <time>2018-05-19T18:04:31Z</time>
      </trkpt>
      <trkpt lat="43.1743241753" lon="-4.2887169309">
        <ele>513.48</ele>
        <time>2018-05-19T18:04:33Z</time>
      </trkpt>
      <trkpt lat="43.1744239200" lon="-4.2887770291">
        <ele>512.52</ele>
        <time>2018-05-19T18:04:35Z</time>
      </trkpt>
      <trkpt lat="43.1745302863" lon="-4.2887939606">
        <ele>513.00</ele>
        <time>2018-05-19T18:04:37Z</time>
      </trkpt>
      <trkpt lat="43.1746669952" lon="-4.2887783702">
        <ele>512.52</ele>
        <time>2018-05-19T18:04:40Z</time>
      </trkpt>
      <trkpt lat="43.1747604534" lon="-4.2887624446">
        <ele>513.00</ele>
        <time>2018-05-19T18:04:42Z</time>
      </trkpt>
      <trkpt lat="43.1748531573" lon="-4.2887410708">
        <ele>513.00</ele>
        <time>2018-05-19T18:04:44Z</time>
      </trkpt>
      <trkpt lat="43.1749450229" lon="-4.2887210380">
        <ele>513.96</ele>
        <time>2018-05-19T18:04:46Z</time>
      </trkpt>
      <trkpt lat="43.1750497967" lon="-4.2886959761">
        <ele>513.96</ele>
        <time>2018-05-19T18:04:48Z</time>
      </trkpt>
      <trkpt lat="43.1751856674" lon="-4.2886917014">
        <ele>513.96</ele>
        <time>2018-05-19T18:04:51Z</time>
      </trkpt>
      <trkpt lat="43.1752829812" lon="-4.2887118179">
        <ele>513.96</ele>
        <time>2018-05-19T18:04:53Z</time>
      </trkpt>
      <trkpt lat="43.1753810495" lon="-4.2887387238">
        <ele>513.96</ele>
        <time>2018-05-19T18:04:55Z</time>
      </trkpt>
      <trkpt lat="43.1754886732" lon="-4.2887700722">
        <ele>513.00</ele>
        <time>2018-05-19T18:04:57Z</time>
      </trkpt>
      <trkpt lat="43.1756020803" lon="-4.2888121493">
        <ele>512.04</ele>
        <time>2018-05-19T18:04:59Z</time>
      </trkpt>
      <trkpt lat="43.1757268030" lon="-4.2888758518">
        <ele>511.56</ele>
        <time>2018-05-19T18:05:01Z</time>
      </trkpt>
      <trkpt lat="43.1758302357" lon="-4.2889344413">
        <ele>510.60</ele>
        <time>2018-05-19T18:05:03Z</time>
      </trkpt>
      <trkpt lat="43.1759464927" lon="-4.2889859062">
        <ele>511.08</ele>
        <time>2018-05-19T18:05:05Z</time>
      </trkpt>
      <trkpt lat="43.1760616601" lon="-4.2890080344">
        <ele>510.12</ele>
        <time>2018-05-19T18:05:07Z</time>
      </trkpt>
      <trkpt lat="43.1761817727" lon="-4.2890125606">
        <ele>510.12</ele>
        <time>2018-05-19T18:05:09Z</time>
      </trkpt>
      <trkpt lat="43.1763171405" lon="-4.2890166678">
        <ele>508.67</ele>
        <time>2018-05-19T18:05:11Z</time>
      </trkpt>
      <trkpt lat="43.1764610577" lon="-4.2890259717">
        <ele>508.19</ele>
        <time>2018-05-19T18:05:13Z</time>
      </trkpt>
      <trkpt lat="43.1765818410" lon="-4.2890382092">
        <ele>507.23</ele>
        <time>2018-05-19T18:05:15Z</time>
      </trkpt>
      <trkpt lat="43.1767089944" lon="-4.2890605051">
        <ele>506.75</ele>
        <time>2018-05-19T18:05:17Z</time>
      </trkpt>
      <trkpt lat="43.1768255029" lon="-4.2890907638">
        <ele>506.75</ele>
        <time>2018-05-19T18:05:19Z</time>
      </trkpt>
      <trkpt lat="43.1769477949" lon="-4.2891078629">
        <ele>506.27</ele>
        <time>2018-05-19T18:05:21Z</time>
      </trkpt>
      <trkpt lat="43.1770762894" lon="-4.2891206872">
        <ele>506.27</ele>
        <time>2018-05-19T18:05:23Z</time>
      </trkpt>
      <trkpt lat="43.1772195362" lon="-4.2891630996">
        <ele>504.83</ele>
        <time>2018-05-19T18:05:25Z</time>
      </trkpt>
      <trkpt lat="43.1773440912" lon="-4.2892109603">
        <ele>503.87</ele>
        <time>2018-05-19T18:05:27Z</time>
      </trkpt>
      <trkpt lat="43.1774749327" lon="-4.2892289814">
        <ele>503.39</ele>
        <time>2018-05-19T18:05:29Z</time>
      </trkpt>
      <trkpt lat="43.1776061933" lon="-4.2891843058">
        <ele>502.43</ele>
        <time>2018-05-19T18:05:31Z</time>
      </trkpt>
      <trkpt lat="43.1777384598" lon="-4.2891343497">
        <ele>501.46</ele>
        <time>2018-05-19T18:05:33Z</time>
      </trkpt>
      <trkpt lat="43.1778874062" lon="-4.2890900094">
        <ele>500.50</ele>
        <time>2018-05-19T18:05:35Z</time>
      </trkpt>
      <trkpt lat="43.1780222710" lon="-4.2890760954">
        <ele>498.58</ele>
        <time>2018-05-19T18:05:37Z</time>
      </trkpt>
      <trkpt lat="43.1781811919" lon="-4.2890798673">
        <ele>497.14</ele>
        <time>2018-05-19T18:05:39Z</time>
      </trkpt>
      <trkpt lat="43.1783373468" lon="-4.2891148198">
        <ele>496.18</ele>
        <time>2018-05-19T18:05:41Z</time>
      </trkpt>
      <trkpt lat="43.1784885563" lon="-4.2891885806">
        <ele>495.70</ele>
        <time>2018-05-19T18:05:43Z</time>
      </trkpt>
      <trkpt lat="43.1786274444" lon="-4.2892777640">
        <ele>495.22</ele>
        <time>2018-05-19T18:05:45Z</time>
      </trkpt>
      <trkpt lat="43.1787800789" lon="-4.2893561348">
        <ele>495.22</ele>
        <time>2018-05-19T18:05:47Z</time>
      </trkpt>
      <trkpt lat="43.1789147761" lon="-4.2894046661">
        <ele>494.26</ele>
        <time>2018-05-19T18:05:49Z</time>
      </trkpt>
      <trkpt lat="43.1790607050" lon="-4.2894644290">
        <ele>494.26</ele>
        <time>2018-05-19T18:05:51Z</time>
      </trkpt>
      <trkpt lat="43.1791762915" lon="-4.2895364296">
        <ele>494.26</ele>
        <time>2018-05-19T18:05:53Z</time>
      </trkpt>
      <trkpt lat="43.1792544946" lon="-4.2896085978">
        <ele>495.70</ele>
        <time>2018-05-19T18:05:55Z</time>
      </trkpt>
      <trkpt lat="43.1793344580" lon="-4.2896946799">
        <ele>497.14</ele>
        <time>2018-05-19T18:05:59Z</time>
      </trkpt>
      <trkpt lat="43.1794072967" lon="-4.2897851206">
        <ele>497.62</ele>
        <time>2018-05-19T18:06:04Z</time>
      </trkpt>
      <trkpt lat="43.1794886012" lon="-4.2899018805">
        <ele>498.58</ele>
        <time>2018-05-19T18:06:09Z</time>
      </trkpt>
      <trkpt lat="43.1795683131" lon="-4.2899955064">
        <ele>500.02</ele>
        <time>2018-05-19T18:06:14Z</time>
      </trkpt>
      <trkpt lat="43.1796592567" lon="-4.2901050579">
        <ele>500.98</ele>
        <time>2018-05-19T18:06:20Z</time>
      </trkpt>
      <trkpt lat="43.1797421537" lon="-4.2902105860">
        <ele>502.43</ele>
        <time>2018-05-19T18:06:25Z</time>
      </trkpt>
      <trkpt lat="43.1798385456" lon="-4.2903227359">
        <ele>502.91</ele>
        <time>2018-05-19T18:06:30Z</time>
      </trkpt>
      <trkpt lat="43.1799320877" lon="-4.2904337123">
        <ele>503.87</ele>
        <time>2018-05-19T18:06:36Z</time>
      </trkpt>
      <trkpt lat="43.1800309941" lon="-4.2905304395">
        <ele>505.31</ele>
        <time>2018-05-19T18:06:42Z</time>
      </trkpt>
      <trkpt lat="43.1801306549" lon="-4.2906781286">
        <ele>506.75</ele>
        <time>2018-05-19T18:06:48Z</time>
      </trkpt>
      <trkpt lat="43.1802441459" lon="-4.2907882668">
        <ele>507.23</ele>
        <time>2018-05-19T18:06:53Z</time>
      </trkpt>
      <trkpt lat="43.1803510152" lon="-4.2908545677">
        <ele>507.71</ele>
        <time>2018-05-19T18:06:57Z</time>
      </trkpt>
      <trkpt lat="43.1804603152" lon="-4.2909129895">
        <ele>508.67</ele>
        <time>2018-05-19T18:07:02Z</time>
      </trkpt>
      <trkpt lat="43.1805728003" lon="-4.2909659632">
        <ele>509.16</ele>
        <time>2018-05-19T18:07:08Z</time>
      </trkpt>
      <trkpt lat="43.1807030551" lon="-4.2910106387">
        <ele>511.08</ele>
        <time>2018-05-19T18:07:14Z</time>
      </trkpt>
      <trkpt lat="43.1808261853" lon="-4.2910416517">
        <ele>512.04</ele>
        <time>2018-05-19T18:07:20Z</time>
      </trkpt>
      <trkpt lat="43.1809323002" lon="-4.2910514586">
        <ele>512.52</ele>
        <time>2018-05-19T18:07:25Z</time>
      </trkpt>
      <trkpt lat="43.1810716074" lon="-4.2910731677">
        <ele>513.00</ele>
        <time>2018-05-19T18:07:30Z</time>
      </trkpt>
      <trkpt lat="43.1811757106" lon="-4.2911027558">
        <ele>513.00</ele>
        <time>2018-05-19T18:07:34Z</time>
      </trkpt>
      <trkpt lat="43.1812741980" lon="-4.2911636084">
        <ele>513.00</ele>
        <time>2018-05-19T18:07:37Z</time>
      </trkpt>
      <trkpt lat="43.1813884433" lon="-4.2912558932">
        <ele>513.00</ele>
        <time>2018-05-19T18:07:40Z</time>
      </trkpt>
      <trkpt lat="43.1814985815" lon="-4.2913104594">
        <ele>513.00</ele>
        <time>2018-05-19T18:07:43Z</time>
      </trkpt>
      <trkpt lat="43.1816017628" lon="-4.2913654447">
        <ele>511.56</ele>
        <time>2018-05-19T18:07:45Z</time>
      </trkpt>
      <trkpt lat="43.1817362085" lon="-4.2914423067">
        <ele>508.67</ele>
        <time>2018-05-19T18:07:48Z</time>
      </trkpt>
      <trkpt lat="43.1818530522" lon="-4.2914689612">
        <ele>508.19</ele>
        <time>2018-05-19T18:07:50Z</time>
      </trkpt>
      <trkpt lat="43.1819994003" lon="-4.2914769240">
        <ele>506.75</ele>
        <time>2018-05-19T18:07:52Z</time>
      </trkpt>
      <trkpt lat="43.1821516156" lon="-4.2914872337">
        <ele>504.35</ele>
        <time>2018-05-19T18:07:54Z</time>
      </trkpt>
      <trkpt lat="43.1823195051" lon="-4.2915272992">
        <ele>501.95</ele>
        <time>2018-05-19T18:07:56Z</time>
      </trkpt>
      <trkpt lat="43.1824541185" lon="-4.2915518582">
        <ele>500.02</ele>
        <time>2018-05-19T18:07:58Z</time>
      </trkpt>
      <trkpt lat="43.1826067530" lon="-4.2915669456">
        <ele>498.10</ele>
        <time>2018-05-19T18:08:00Z</time>
      </trkpt>
      <trkpt lat="43.1827629916" lon="-4.2915633414">
        <ele>496.18</ele>
        <time>2018-05-19T18:08:02Z</time>
      </trkpt>
      <trkpt lat="43.1828745548" lon="-4.2915382795">
        <ele>496.18</ele>
        <time>2018-05-19T18:08:04Z</time>
      </trkpt>
      <trkpt lat="43.1829781551" lon="-4.2915419675">
        <ele>495.22</ele>
        <time>2018-05-19T18:08:06Z</time>
      </trkpt>
      <trkpt lat="43.1831081584" lon="-4.2915960308">
        <ele>493.29</ele>
        <time>2018-05-19T18:08:09Z</time>
      </trkpt>
      <trkpt lat="43.1832213979" lon="-4.2916549556">
        <ele>492.33</ele>
        <time>2018-05-19T18:08:12Z</time>
      </trkpt>
      <trkpt lat="43.1833126768" lon="-4.2917188257">
        <ele>491.37</ele>
        <time>2018-05-19T18:08:15Z</time>
      </trkpt>
      <trkpt lat="43.1834088173" lon="-4.2918547802">
        <ele>490.41</ele>
        <time>2018-05-19T18:08:18Z</time>
      </trkpt>
      <trkpt lat="43.1834919658" lon="-4.2919931654">
        <ele>489.93</ele>
        <time>2018-05-19T18:08:21Z</time>
      </trkpt>
      <trkpt lat="43.1835553329" lon="-4.2921462189">
        <ele>489.45</ele>
        <time>2018-05-19T18:08:24Z</time>
      </trkpt>
      <trkpt lat="43.1836236455" lon="-4.2922885437">
        <ele>489.45</ele>
        <time>2018-05-19T18:08:27Z</time>
      </trkpt>
      <trkpt lat="43.1836847495" lon="-4.2924249172">
        <ele>488.97</ele>
        <time>2018-05-19T18:08:30Z</time>
      </trkpt>
      <trkpt lat="43.1837604381" lon="-4.2925348878">
        <ele>488.97</ele>
        <time>2018-05-19T18:08:33Z</time>
      </trkpt>
      <trkpt lat="43.1838607695" lon="-4.2926408350">
        <ele>488.97</ele>
        <time>2018-05-19T18:08:36Z</time>
      </trkpt>
      <trkpt lat="43.1839433312" lon="-4.2927052081">
        <ele>488.97</ele>
        <time>2018-05-19T18:08:38Z</time>
      </trkpt>
      <trkpt lat="43.1840335205" lon="-4.2928197887">
        <ele>488.97</ele>
        <time>2018-05-19T18:08:41Z</time>
      </trkpt>
      <trkpt lat="43.1841341034" lon="-4.2929082178">
        <ele>490.41</ele>
        <time>2018-05-19T18:08:44Z</time>
      </trkpt>
      <trkpt lat="43.1842404697" lon="-4.2929781228">
        <ele>490.89</ele>
        <time>2018-05-19T18:08:47Z</time>
      </trkpt>
      <trkpt lat="43.1843545474" lon="-4.2930098902">
        <ele>491.85</ele>
        <time>2018-05-19T18:08:50Z</time>
      </trkpt>
      <trkpt lat="43.1844466645" lon="-4.2930363771">
        <ele>492.81</ele>
        <time>2018-05-19T18:08:53Z</time>
      </trkpt>
      <trkpt lat="43.1845414639" lon="-4.2930919491">
        <ele>494.26</ele>
        <time>2018-05-19T18:08:57Z</time>
      </trkpt>
      <trkpt lat="43.1846244447" lon="-4.2931558192">
        <ele>494.26</ele>
        <time>2018-05-19T18:09:00Z</time>
      </trkpt>
      <trkpt lat="43.1847263686" lon="-4.2932239641">
        <ele>494.26</ele>
        <time>2018-05-19T18:09:04Z</time>
      </trkpt>
      <trkpt lat="43.1848308910" lon="-4.2932782788">
        <ele>495.22</ele>
        <time>2018-05-19T18:09:08Z</time>
      </trkpt>
      <trkpt lat="43.1849230081" lon="-4.2933216132">
        <ele>497.14</ele>
        <time>2018-05-19T18:09:12Z</time>
      </trkpt>
      <trkpt lat="43.1850166339" lon="-4.2933825497">
        <ele>498.10</ele>
        <time>2018-05-19T18:09:17Z</time>
      </trkpt>
      <trkpt lat="43.1851161271" lon="-4.2934467550">
        <ele>499.54</ele>
        <time>2018-05-19T18:09:22Z</time>
      </trkpt>
      <trkpt lat="43.1851347350" lon="-4.2936365213">
        <ele>498.10</ele>
        <time>2018-05-19T18:09:26Z</time>
      </trkpt>
      <trkpt lat="43.1851597130" lon="-4.2937749065">
        <ele>497.14</ele>
        <time>2018-05-19T18:09:28Z</time>
      </trkpt>
      <trkpt lat="43.1851933245" lon="-4.2939311452">
        <ele>496.66</ele>
        <time>2018-05-19T18:09:30Z</time>
      </trkpt>
      <trkpt lat="43.1852189731" lon="-4.2940764036">
        <ele>496.18</ele>
        <time>2018-05-19T18:09:32Z</time>
      </trkpt>
      <trkpt lat="43.1852365751" lon="-4.2942210753">
        <ele>496.18</ele>
        <time>2018-05-19T18:09:34Z</time>
      </trkpt>
      <trkpt lat="43.1852597930" lon="-4.2943891324">
        <ele>496.18</ele>
        <time>2018-05-19T18:09:37Z</time>
      </trkpt>
      <trkpt lat="43.1852724496" lon="-4.2945097480">
        <ele>497.62</ele>
        <time>2018-05-19T18:09:39Z</time>
      </trkpt>
      <trkpt lat="43.1852840167" lon="-4.2946412601">
        <ele>497.62</ele>
        <time>2018-05-19T18:09:41Z</time>
      </trkpt>
      <trkpt lat="43.1852980144" lon="-4.2947633844">
        <ele>497.62</ele>
        <time>2018-05-19T18:09:43Z</time>
      </trkpt>
      <trkpt lat="43.1853239145" lon="-4.2949479539">
        <ele>498.10</ele>
        <time>2018-05-19T18:09:46Z</time>
      </trkpt>
      <trkpt lat="43.1853478868" lon="-4.2950899433">
        <ele>498.58</ele>
        <time>2018-05-19T18:09:49Z</time>
      </trkpt>
      <trkpt lat="43.1853788998" lon="-4.2952544801">
        <ele>499.06</ele>
        <time>2018-05-19T18:09:52Z</time>
      </trkpt>
      <trkpt lat="43.1854009442" lon="-4.2953853216">
        <ele>499.06</ele>
        <time>2018-05-19T18:09:54Z</time>
      </trkpt>
      <trkpt lat="43.1854246650" lon="-4.2955175042">
        <ele>499.06</ele>
        <time>2018-05-19T18:09:56Z</time>
      </trkpt>
      <trkpt lat="43.1854510680" lon="-4.2956619244">
        <ele>499.06</ele>
        <time>2018-05-19T18:09:58Z</time>
      </trkpt>
      <trkpt lat="43.1854825839" lon="-4.2958224379">
        <ele>498.58</ele>
        <time>2018-05-19T18:10:00Z</time>
      </trkpt>
      <trkpt lat="43.1855120044" lon="-4.2959495913">
        <ele>498.58</ele>
        <time>2018-05-19T18:10:02Z</time>
      </trkpt>
      <trkpt lat="43.1855561770" lon="-4.2960747331">
        <ele>498.58</ele>
        <time>2018-05-19T18:10:04Z</time>
      </trkpt>
      <trkpt lat="43.1856115814" lon="-4.2962001264">
        <ele>498.58</ele>
        <time>2018-05-19T18:10:06Z</time>
      </trkpt>
      <trkpt lat="43.1856611185" lon="-4.2963160481">
        <ele>498.58</ele>
        <time>2018-05-19T18:10:08Z</time>
      </trkpt>
      <trkpt lat="43.1857175287" lon="-4.2964432854">
        <ele>498.58</ele>
        <time>2018-05-19T18:10:10Z</time>
      </trkpt>
      <trkpt lat="43.1857689098" lon="-4.2965711933">
        <ele>498.58</ele>
        <time>2018-05-19T18:10:12Z</time>
      </trkpt>
      <trkpt lat="43.1858292595" lon="-4.2967393342">
        <ele>498.58</ele>
        <time>2018-05-19T18:10:15Z</time>
      </trkpt>
      <trkpt lat="43.1859042775" lon="-4.2968907952">
        <ele>498.58</ele>
        <time>2018-05-19T18:10:18Z</time>
      </trkpt>
      <trkpt lat="43.1860012561" lon="-4.2970152665">
        <ele>498.58</ele>
        <time>2018-05-19T18:10:21Z</time>
      </trkpt>
      <trkpt lat="43.1860971451" lon="-4.2971326131">
        <ele>498.58</ele>
        <time>2018-05-19T18:10:24Z</time>
      </trkpt>
      <trkpt lat="43.1861660443" lon="-4.2972195335">
        <ele>498.58</ele>
        <time>2018-05-19T18:10:26Z</time>
      </trkpt>
      <trkpt lat="43.1862528808" lon="-4.2972974852">
        <ele>498.58</ele>
        <time>2018-05-19T18:10:28Z</time>
      </trkpt>
      <trkpt lat="43.1863475963" lon="-4.2973678932">
        <ele>498.58</ele>
        <time>2018-05-19T18:10:30Z</time>
      </trkpt>
      <trkpt lat="43.1864475925" lon="-4.2974365409">
        <ele>498.58</ele>
        <time>2018-05-19T18:10:32Z</time>
      </trkpt>
      <trkpt lat="43.1865792722" lon="-4.2975120619">
        <ele>497.62</ele>
        <time>2018-05-19T18:10:35Z</time>
      </trkpt>
      <trkpt lat="43.1866830401" lon="-4.2975366209">
        <ele>497.62</ele>
        <time>2018-05-19T18:10:37Z</time>
      </trkpt>
      <trkpt lat="43.1867886521" lon="-4.2975384649">
        <ele>497.62</ele>
        <time>2018-05-19T18:10:39Z</time>
      </trkpt>
      <trkpt lat="43.1868872233" lon="-4.2975135706">
        <ele>497.62</ele>
        <time>2018-05-19T18:10:41Z</time>
      </trkpt>
      <trkpt lat="43.1869956851" lon="-4.2974473536">
        <ele>497.62</ele>
        <time>2018-05-19T18:10:43Z</time>
      </trkpt>
      <trkpt lat="43.1870760676" lon="-4.2973789573">
        <ele>497.62</ele>
        <time>2018-05-19T18:10:45Z</time>
      </trkpt>
      <trkpt lat="43.1871562824" lon="-4.2972936295">
        <ele>496.66</ele>
        <time>2018-05-19T18:10:47Z</time>
      </trkpt>
      <trkpt lat="43.1872267742" lon="-4.2971932981">
        <ele>496.66</ele>
        <time>2018-05-19T18:10:49Z</time>
      </trkpt>
      <trkpt lat="43.1872898899" lon="-4.2970739398">
        <ele>496.66</ele>
        <time>2018-05-19T18:10:51Z</time>
      </trkpt>
      <trkpt lat="43.1873644888" lon="-4.2969367281">
        <ele>496.66</ele>
        <time>2018-05-19T18:10:53Z</time>
      </trkpt>
      <trkpt lat="43.1874186359" lon="-4.2968412582">
        <ele>496.66</ele>
        <time>2018-05-19T18:10:55Z</time>
      </trkpt>
      <trkpt lat="43.1874890439" lon="-4.2967392504">
        <ele>496.66</ele>
        <time>2018-05-19T18:10:57Z</time>
      </trkpt>
      <trkpt lat="43.1875603739" lon="-4.2966461275">
        <ele>496.66</ele>
        <time>2018-05-19T18:10:59Z</time>
      </trkpt>
      <trkpt lat="43.1876667403" lon="-4.2965313792">
        <ele>496.66</ele>
        <time>2018-05-19T18:11:02Z</time>
      </trkpt>
      <trkpt lat="43.1877555884" lon="-4.2964514997">
        <ele>496.66</ele>
        <time>2018-05-19T18:11:04Z</time>
      </trkpt>
      <trkpt lat="43.1878379826" lon="-4.2963745538">
        <ele>496.18</ele>
        <time>2018-05-19T18:11:06Z</time>
      </trkpt>
      <trkpt lat="43.1879319437" lon="-4.2962777428">
        <ele>495.70</ele>
        <time>2018-05-19T18:11:08Z</time>
      </trkpt>
      <trkpt lat="43.1880229712" lon="-4.2961618211">
        <ele>494.74</ele>
        <time>2018-05-19T18:11:10Z</time>
      </trkpt>
      <trkpt lat="43.1881121546" lon="-4.2960259505">
        <ele>494.26</ele>
        <time>2018-05-19T18:11:12Z</time>
      </trkpt>
      <trkpt lat="43.1882175989" lon="-4.2958796863">
        <ele>492.33</ele>
        <time>2018-05-19T18:11:14Z</time>
      </trkpt>
      <trkpt lat="43.1883362867" lon="-4.2957232799">
        <ele>490.41</ele>
        <time>2018-05-19T18:11:16Z</time>
      </trkpt>
      <trkpt lat="43.1884550583" lon="-4.2955825478">
        <ele>487.53</ele>
        <time>2018-05-19T18:11:18Z</time>
      </trkpt>
      <trkpt lat="43.1885357760" lon="-4.2955175880">
        <ele>486.08</ele>
        <time>2018-05-19T18:11:19Z</time>
      </trkpt>
      <trkpt lat="43.1886299048" lon="-4.2954672128">
        <ele>484.64</ele>
        <time>2018-05-19T18:11:20Z</time>
      </trkpt>
      <trkpt lat="43.1887218542" lon="-4.2954395525">
        <ele>484.16</ele>
        <time>2018-05-19T18:11:21Z</time>
      </trkpt>
      <trkpt lat="43.1888227724" lon="-4.2954212800">
        <ele>483.20</ele>
        <time>2018-05-19T18:11:22Z</time>
      </trkpt>
      <trkpt lat="43.1889142189" lon="-4.2953968048">
        <ele>483.68</ele>
        <time>2018-05-19T18:11:23Z</time>
      </trkpt>
      <trkpt lat="43.1890093535" lon="-4.2953629419">
        <ele>483.68</ele>
        <time>2018-05-19T18:11:24Z</time>
      </trkpt>
      <trkpt lat="43.1891068351" lon="-4.2953240499">
        <ele>483.20</ele>
        <time>2018-05-19T18:11:25Z</time>
      </trkpt>
      <trkpt lat="43.1892056577" lon="-4.2952778656">
        <ele>483.20</ele>
        <time>2018-05-19T18:11:26Z</time>
      </trkpt>
      <trkpt lat="43.1892888900" lon="-4.2952349503">
        <ele>482.72</ele>
        <time>2018-05-19T18:11:27Z</time>
      </trkpt>
      <trkpt lat="43.1894364115" lon="-4.2951592617">
        <ele>482.72</ele>
        <time>2018-05-19T18:11:29Z</time>
      </trkpt>
      <trkpt lat="43.1895956676" lon="-4.2950958107">
        <ele>481.76</ele>
        <time>2018-05-19T18:11:31Z</time>
      </trkpt>
      <trkpt lat="43.1897511519" lon="-4.2950487882">
        <ele>481.76</ele>
        <time>2018-05-19T18:11:33Z</time>
      </trkpt>
      <trkpt lat="43.1899018586" lon="-4.2950129975">
        <ele>481.76</ele>
        <time>2018-05-19T18:11:35Z</time>
      </trkpt>
      <trkpt lat="43.1900645513" lon="-4.2949722614">
        <ele>481.76</ele>
        <time>2018-05-19T18:11:37Z</time>
      </trkpt>
      <trkpt lat="43.1901938841" lon="-4.2949503846">
        <ele>483.20</ele>
        <time>2018-05-19T18:11:39Z</time>
      </trkpt>
      <trkpt lat="43.1903290842" lon="-4.2949265800">
        <ele>483.20</ele>
        <time>2018-05-19T18:11:41Z</time>
      </trkpt>
      <trkpt lat="43.1904631946" lon="-4.2948963214">
        <ele>483.20</ele>
        <time>2018-05-19T18:11:43Z</time>
      </trkpt>
      <trkpt lat="43.1905995682" lon="-4.2948539928">
        <ele>483.20</ele>
        <time>2018-05-19T18:11:45Z</time>
      </trkpt>
      <trkpt lat="43.1907510292" lon="-4.2948100716">
        <ele>481.28</ele>
        <time>2018-05-19T18:11:47Z</time>
      </trkpt>
      <trkpt lat="43.1909115426" lon="-4.2947829142">
        <ele>478.87</ele>
        <time>2018-05-19T18:11:49Z</time>
      </trkpt>
      <trkpt lat="43.1909863930" lon="-4.2947779689">
        <ele>476.95</ele>
        <time>2018-05-19T18:11:50Z</time>
      </trkpt>
      <trkpt lat="43.1910919212" lon="-4.2947757058">
        <ele>474.07</ele>
        <time>2018-05-19T18:11:51Z</time>
      </trkpt>
      <trkpt lat="43.1911979523" lon="-4.2947835010">
        <ele>472.63</ele>
        <time>2018-05-19T18:11:52Z</time>
      </trkpt>
      <trkpt lat="43.1913045701" lon="-4.2948010191">
        <ele>470.70</ele>
        <time>2018-05-19T18:11:53Z</time>
      </trkpt>
      <trkpt lat="43.1913940888" lon="-4.2948276736">
        <ele>470.70</ele>
        <time>2018-05-19T18:11:54Z</time>
      </trkpt>
      <trkpt lat="43.1915243436" lon="-4.2949161027">
        <ele>470.22</ele>
        <time>2018-05-19T18:11:56Z</time>
      </trkpt>
      <trkpt lat="43.1915853638" lon="-4.2950775381">
        <ele>468.30</ele>
        <time>2018-05-19T18:11:58Z</time>
      </trkpt>
      <trkpt lat="43.1915858667" lon="-4.2953001615">
        <ele>465.42</ele>
        <time>2018-05-19T18:12:00Z</time>
      </trkpt>
      <trkpt lat="43.1915873755" lon="-4.2955082003">
        <ele>463.49</ele>
        <time>2018-05-19T18:12:02Z</time>
      </trkpt>
      <trkpt lat="43.1915975176" lon="-4.2957186699">
        <ele>462.05</ele>
        <time>2018-05-19T18:12:04Z</time>
      </trkpt>
      <trkpt lat="43.1916367449" lon="-4.2959380243">
        <ele>460.13</ele>
        <time>2018-05-19T18:12:06Z</time>
      </trkpt>
      <trkpt lat="43.1917294487" lon="-4.2961544450">
        <ele>457.72</ele>
        <time>2018-05-19T18:12:08Z</time>
      </trkpt>
      <trkpt lat="43.1917997729" lon="-4.2962728813">
        <ele>456.76</ele>
        <time>2018-05-19T18:12:09Z</time>
      </trkpt>
      <trkpt lat="43.1918726955" lon="-4.2963898089">
        <ele>455.80</ele>
        <time>2018-05-19T18:12:10Z</time>
      </trkpt>
      <trkpt lat="43.1919608731" lon="-4.2965661641">
        <ele>454.36</ele>
        <time>2018-05-19T18:12:12Z</time>
      </trkpt>
      <trkpt lat="43.1920715142" lon="-4.2967151105">
        <ele>452.92</ele>
        <time>2018-05-19T18:12:14Z</time>
      </trkpt>
      <trkpt lat="43.1922255736" lon="-4.2967480514">
        <ele>451.48</ele>
        <time>2018-05-19T18:12:16Z</time>
      </trkpt>
      <trkpt lat="43.1924091373" lon="-4.2967302818">
        <ele>448.11</ele>
        <time>2018-05-19T18:12:18Z</time>
      </trkpt>
      <trkpt lat="43.1925099716" lon="-4.2967277672">
        <ele>445.23</ele>
        <time>2018-05-19T18:12:19Z</time>
      </trkpt>
      <trkpt lat="43.1926237140" lon="-4.2967366520">
        <ele>442.82</ele>
        <time>2018-05-19T18:12:20Z</time>
      </trkpt>
      <trkpt lat="43.1927304156" lon="-4.2967668269">
        <ele>441.86</ele>
        <time>2018-05-19T18:12:21Z</time>
      </trkpt>
      <trkpt lat="43.1928228680" lon="-4.2968117539">
        <ele>440.90</ele>
        <time>2018-05-19T18:12:22Z</time>
      </trkpt>
      <trkpt lat="43.1929023284" lon="-4.2968779709">
        <ele>440.42</ele>
        <time>2018-05-19T18:12:23Z</time>
      </trkpt>
      <trkpt lat="43.1930331700" lon="-4.2970404960">
        <ele>436.58</ele>
        <time>2018-05-19T18:12:25Z</time>
      </trkpt>
      <trkpt lat="43.1930991355" lon="-4.2971513048">
        <ele>436.58</ele>
        <time>2018-05-19T18:12:26Z</time>
      </trkpt>
      <trkpt lat="43.1931588985" lon="-4.2972596828">
        <ele>435.61</ele>
        <time>2018-05-19T18:12:27Z</time>
      </trkpt>
      <trkpt lat="43.1932181586" lon="-4.2973646242">
        <ele>433.69</ele>
        <time>2018-05-19T18:12:28Z</time>
      </trkpt>
      <trkpt lat="43.1932864711" lon="-4.2974713258">
        <ele>431.77</ele>
        <time>2018-05-19T18:12:29Z</time>
      </trkpt>
      <trkpt lat="43.1933587231" lon="-4.2975584138">
        <ele>430.81</ele>
        <time>2018-05-19T18:12:30Z</time>
      </trkpt>
      <trkpt lat="43.1935269479" lon="-4.2976596672">
        <ele>426.96</ele>
        <time>2018-05-19T18:12:32Z</time>
      </trkpt>
      <trkpt lat="43.1936372537" lon="-4.2976657860">
        <ele>425.04</ele>
        <time>2018-05-19T18:12:33Z</time>
      </trkpt>
      <trkpt lat="43.1937544327" lon="-4.2976489384">
        <ele>422.64</ele>
        <time>2018-05-19T18:12:34Z</time>
      </trkpt>
      <trkpt lat="43.1939880364" lon="-4.2976516206">
        <ele>417.83</ele>
        <time>2018-05-19T18:12:36Z</time>
      </trkpt>
      <trkpt lat="43.1941954046" lon="-4.2977150716">
        <ele>413.50</ele>
        <time>2018-05-19T18:12:38Z</time>
      </trkpt>
      <trkpt lat="43.1942950655" lon="-4.2977699731">
        <ele>412.06</ele>
        <time>2018-05-19T18:12:39Z</time>
      </trkpt>
      <trkpt lat="43.1943917926" lon="-4.2978511099">
        <ele>411.58</ele>
        <time>2018-05-19T18:12:40Z</time>
      </trkpt>
      <trkpt lat="43.1944662239" lon="-4.2979366891">
        <ele>410.62</ele>
        <time>2018-05-19T18:12:41Z</time>
      </trkpt>
      <trkpt lat="43.1945340335" lon="-4.2980433069">
        <ele>409.66</ele>
        <time>2018-05-19T18:12:42Z</time>
      </trkpt>
      <trkpt lat="43.1946085487" lon="-4.2982718814">
        <ele>408.70</ele>
        <time>2018-05-19T18:12:44Z</time>
      </trkpt>
      <trkpt lat="43.1946564093" lon="-4.2984737176">
        <ele>406.29</ele>
        <time>2018-05-19T18:12:46Z</time>
      </trkpt>
      <trkpt lat="43.1947486103" lon="-4.2985750549">
        <ele>404.37</ele>
        <time>2018-05-19T18:12:48Z</time>
      </trkpt>
      <trkpt lat="43.1948598381" lon="-4.2985077482">
        <ele>401.01</ele>
        <time>2018-05-19T18:12:50Z</time>
      </trkpt>
      <trkpt lat="43.1949747540" lon="-4.2983310577">
        <ele>398.12</ele>
        <time>2018-05-19T18:12:52Z</time>
      </trkpt>
      <trkpt lat="43.1950376183" lon="-4.2982253619">
        <ele>397.16</ele>
        <time>2018-05-19T18:12:53Z</time>
      </trkpt>
      <trkpt lat="43.1951048411" lon="-4.2981188279">
        <ele>396.20</ele>
        <time>2018-05-19T18:12:54Z</time>
      </trkpt>
      <trkpt lat="43.1951686274" lon="-4.2980131321">
        <ele>394.28</ele>
        <time>2018-05-19T18:12:55Z</time>
      </trkpt>
      <trkpt lat="43.1952253729" lon="-4.2979029939">
        <ele>393.32</ele>
        <time>2018-05-19T18:12:56Z</time>
      </trkpt>
      <trkpt lat="43.1952872314" lon="-4.2977688834">
        <ele>392.84</ele>
        <time>2018-05-19T18:12:57Z</time>
      </trkpt>
      <trkpt lat="43.1953436416" lon="-4.2976319231">
        <ele>391.87</ele>
        <time>2018-05-19T18:12:58Z</time>
      </trkpt>
      <trkpt lat="43.1953898259" lon="-4.2974958010">
        <ele>390.43</ele>
        <time>2018-05-19T18:12:59Z</time>
      </trkpt>
      <trkpt lat="43.1954351719" lon="-4.2973355390">
        <ele>388.99</ele>
        <time>2018-05-19T18:13:00Z</time>
      </trkpt>
      <trkpt lat="43.1954712141" lon="-4.2971981596">
        <ele>388.99</ele>
        <time>2018-05-19T18:13:01Z</time>
      </trkpt>
      <trkpt lat="43.1955303065" lon="-4.2970434297">
        <ele>388.51</ele>
        <time>2018-05-19T18:13:03Z</time>
      </trkpt>
      <trkpt lat="43.1956311408" lon="-4.2970389873">
        <ele>387.07</ele>
        <time>2018-05-19T18:13:05Z</time>
      </trkpt>
      <trkpt lat="43.1957119424" lon="-4.2972169351">
        <ele>384.18</ele>
        <time>2018-05-19T18:13:07Z</time>
      </trkpt>
      <trkpt lat="43.1957473978" lon="-4.2974577472">
        <ele>381.78</ele>
        <time>2018-05-19T18:13:09Z</time>
      </trkpt>
      <trkpt lat="43.1957734656" lon="-4.2975961324">
        <ele>379.86</ele>
        <time>2018-05-19T18:13:10Z</time>
      </trkpt>
      <trkpt lat="43.1958099268" lon="-4.2977432348">
        <ele>378.90</ele>
        <time>2018-05-19T18:13:11Z</time>
      </trkpt>
      <trkpt lat="43.1958641578" lon="-4.2979818676">
        <ele>377.45</ele>
        <time>2018-05-19T18:13:13Z</time>
      </trkpt>
      <trkpt lat="43.1958952546" lon="-4.2981166486">
        <ele>376.49</ele>
        <time>2018-05-19T18:13:14Z</time>
      </trkpt>
      <trkpt lat="43.1959323026" lon="-4.2982531898">
        <ele>375.05</ele>
        <time>2018-05-19T18:13:15Z</time>
      </trkpt>
      <trkpt lat="43.1959747151" lon="-4.2983915750">
        <ele>374.09</ele>
        <time>2018-05-19T18:13:16Z</time>
      </trkpt>
      <trkpt lat="43.1960180495" lon="-4.2985351570">
        <ele>373.13</ele>
        <time>2018-05-19T18:13:17Z</time>
      </trkpt>
      <trkpt lat="43.1960638147" lon="-4.2986794934">
        <ele>371.21</ele>
        <time>2018-05-19T18:13:18Z</time>
      </trkpt>
      <trkpt lat="43.1961151119" lon="-4.2988287751">
        <ele>369.76</ele>
        <time>2018-05-19T18:13:19Z</time>
      </trkpt>
      <trkpt lat="43.1961664092" lon="-4.2989868578">
        <ele>367.36</ele>
        <time>2018-05-19T18:13:20Z</time>
      </trkpt>
      <trkpt lat="43.1962146889" lon="-4.2991577648">
        <ele>366.40</ele>
        <time>2018-05-19T18:13:21Z</time>
      </trkpt>
      <trkpt lat="43.1962571014" lon="-4.2993146740">
        <ele>365.44</ele>
        <time>2018-05-19T18:13:22Z</time>
      </trkpt>
      <trkpt lat="43.1963583548" lon="-4.2995190248">
        <ele>364.00</ele>
        <time>2018-05-19T18:13:24Z</time>
      </trkpt>
      <trkpt lat="43.1964378990" lon="-4.2996069510">
        <ele>363.04</ele>
        <time>2018-05-19T18:13:25Z</time>
      </trkpt>
      <trkpt lat="43.1965226401" lon="-4.2996869981">
        <ele>363.04</ele>
        <time>2018-05-19T18:13:26Z</time>
      </trkpt>
      <trkpt lat="43.1965917908" lon="-4.2997786123">
        <ele>362.55</ele>
        <time>2018-05-19T18:13:27Z</time>
      </trkpt>
      <trkpt lat="43.1966399867" lon="-4.2998916842">
        <ele>361.59</ele>
        <time>2018-05-19T18:13:28Z</time>
      </trkpt>
      <trkpt lat="43.1966709998" lon="-4.3000237830">
        <ele>360.63</ele>
        <time>2018-05-19T18:13:29Z</time>
      </trkpt>
      <trkpt lat="43.1966889370" lon="-4.3001561332">
        <ele>359.67</ele>
        <time>2018-05-19T18:13:30Z</time>
      </trkpt>
      <trkpt lat="43.1967041083" lon="-4.3003097735">
        <ele>357.27</ele>
        <time>2018-05-19T18:13:31Z</time>
      </trkpt>
      <trkpt lat="43.1967254821" lon="-4.3004476558">
        <ele>355.83</ele>
        <time>2018-05-19T18:13:32Z</time>
      </trkpt>
      <trkpt lat="43.1967605185" lon="-4.3005756475">
        <ele>355.34</ele>
        <time>2018-05-19T18:13:33Z</time>
      </trkpt>
      <trkpt lat="43.1968668848" lon="-4.3007329758">
        <ele>353.42</ele>
        <time>2018-05-19T18:13:35Z</time>
      </trkpt>
      <trkpt lat="43.1970156636" lon="-4.3008584529">
        <ele>350.54</ele>
        <time>2018-05-19T18:13:37Z</time>
      </trkpt>
      <trkpt lat="43.1970996503" lon="-4.3009351473">
        <ele>350.06</ele>
        <time>2018-05-19T18:13:38Z</time>
      </trkpt>
      <trkpt lat="43.1971746683" lon="-4.3010118417">
        <ele>350.06</ele>
        <time>2018-05-19T18:13:39Z</time>
      </trkpt>
      <trkpt lat="43.1973240338" lon="-4.3011354748">
        <ele>348.62</ele>
        <time>2018-05-19T18:13:41Z</time>
      </trkpt>
      <trkpt lat="43.1975013111" lon="-4.3010929786">
        <ele>347.65</ele>
        <time>2018-05-19T18:13:43Z</time>
      </trkpt>
      <trkpt lat="43.1976398639" lon="-4.3009859417">
        <ele>346.21</ele>
        <time>2018-05-19T18:13:45Z</time>
      </trkpt>
      <trkpt lat="43.1977203302" lon="-4.3009322975">
        <ele>346.21</ele>
        <time>2018-05-19T18:13:46Z</time>
      </trkpt>
      <trkpt lat="43.1978870463" lon="-4.3008318823">
        <ele>344.77</ele>
        <time>2018-05-19T18:13:48Z</time>
      </trkpt>
      <trkpt lat="43.1979751401" lon="-4.3007791601">
        <ele>343.81</ele>
        <time>2018-05-19T18:13:49Z</time>
      </trkpt>
      <trkpt lat="43.1980584562" lon="-4.3007239234">
        <ele>343.81</ele>
        <time>2018-05-19T18:13:50Z</time>
      </trkpt>
      <trkpt lat="43.1981412694" lon="-4.3006680161">
        <ele>343.33</ele>
        <time>2018-05-19T18:13:51Z</time>
      </trkpt>
      <trkpt lat="43.1982291956" lon="-4.3006065767">
        <ele>342.37</ele>
        <time>2018-05-19T18:13:52Z</time>
      </trkpt>
      <trkpt lat="43.1983203068" lon="-4.3005292956">
        <ele>340.92</ele>
        <time>2018-05-19T18:13:53Z</time>
      </trkpt>
      <trkpt lat="43.1984124240" lon="-4.3004337419">
        <ele>339.48</ele>
        <time>2018-05-19T18:13:54Z</time>
      </trkpt>
      <trkpt lat="43.1985353865" lon="-4.3003025651">
        <ele>338.04</ele>
        <time>2018-05-19T18:13:56Z</time>
      </trkpt>
      <trkpt lat="43.1986339577" lon="-4.3002543692">
        <ele>335.64</ele>
        <time>2018-05-19T18:13:58Z</time>
      </trkpt>
      <trkpt lat="43.1986834109" lon="-4.3003249448">
        <ele>334.68</ele>
        <time>2018-05-19T18:14:09Z</time>
      </trkpt>
      <trkpt lat="43.1987138372" lon="-4.3004510086">
        <ele>331.79</ele>
        <time>2018-05-19T18:14:11Z</time>
      </trkpt>
      <trkpt lat="43.1987023540" lon="-4.3006004579">
        <ele>329.87</ele>
        <time>2018-05-19T18:14:13Z</time>
      </trkpt>
      <trkpt lat="43.1986720953" lon="-4.3007564452">
        <ele>327.95</ele>
        <time>2018-05-19T18:14:15Z</time>
      </trkpt>
      <trkpt lat="43.1986073870" lon="-4.3008944951">
        <ele>325.54</ele>
        <time>2018-05-19T18:14:17Z</time>
      </trkpt>
      <trkpt lat="43.1985203829" lon="-4.3010042980">
        <ele>322.66</ele>
        <time>2018-05-19T18:14:19Z</time>
      </trkpt>
      <trkpt lat="43.1984398328" lon="-4.3011130113">
        <ele>320.74</ele>
        <time>2018-05-19T18:14:21Z</time>
      </trkpt>
      <trkpt lat="43.1984968297" lon="-4.3012393266">
        <ele>317.85</ele>
        <time>2018-05-19T18:14:24Z</time>
      </trkpt>
      <trkpt lat="43.1985886954" lon="-4.3012066372">
        <ele>316.89</ele>
        <time>2018-05-19T18:14:26Z</time>
      </trkpt>
      <trkpt lat="43.1986712571" lon="-4.3011376541">
        <ele>315.93</ele>
        <time>2018-05-19T18:14:28Z</time>
      </trkpt>
      <trkpt lat="43.1987686548" lon="-4.3010348082">
        <ele>314.97</ele>
        <time>2018-05-19T18:14:30Z</time>
      </trkpt>
      <trkpt lat="43.1988782901" lon="-4.3009146955">
        <ele>313.05</ele>
        <time>2018-05-19T18:14:32Z</time>
      </trkpt>
      <trkpt lat="43.1990010012" lon="-4.3007923197">
        <ele>311.60</ele>
        <time>2018-05-19T18:14:34Z</time>
      </trkpt>
      <trkpt lat="43.1991430745" lon="-4.3006748892">
        <ele>309.20</ele>
        <time>2018-05-19T18:14:36Z</time>
      </trkpt>
      <trkpt lat="43.1992771011" lon="-4.3005850352">
        <ele>305.84</ele>
        <time>2018-05-19T18:14:38Z</time>
      </trkpt>
      <trkpt lat="43.1994295679" lon="-4.3005354144">
        <ele>301.99</ele>
        <time>2018-05-19T18:14:40Z</time>
      </trkpt>
      <trkpt lat="43.1996011455" lon="-4.3005375937">
        <ele>297.67</ele>
        <time>2018-05-19T18:14:42Z</time>
      </trkpt>
      <trkpt lat="43.1997797638" lon="-4.3005353305">
        <ele>293.34</ele>
        <time>2018-05-19T18:14:44Z</time>
      </trkpt>
      <trkpt lat="43.1999148801" lon="-4.3004917447">
        <ele>290.94</ele>
        <time>2018-05-19T18:14:46Z</time>
      </trkpt>
      <trkpt lat="43.2000308856" lon="-4.3004340772">
        <ele>289.01</ele>
        <time>2018-05-19T18:14:48Z</time>
      </trkpt>
      <trkpt lat="43.2001287863" lon="-4.3004577141">
        <ele>288.05</ele>
        <time>2018-05-19T18:14:51Z</time>
      </trkpt>
      <trkpt lat="43.2000671793" lon="-4.3005635776">
        <ele>287.57</ele>
        <time>2018-05-19T18:14:55Z</time>
      </trkpt>
      <trkpt lat="43.1999826897" lon="-4.3006459717">
        <ele>288.53</ele>
        <time>2018-05-19T18:14:58Z</time>
      </trkpt>
      <trkpt lat="43.1999023072" lon="-4.3007161282">
        <ele>288.53</ele>
        <time>2018-05-19T18:15:01Z</time>
      </trkpt>
      <trkpt lat="43.1998540275" lon="-4.3008424435">
        <ele>288.53</ele>
        <time>2018-05-19T18:15:04Z</time>
      </trkpt>
      <trkpt lat="43.1998765748" lon="-4.3009921443">
        <ele>288.53</ele>
        <time>2018-05-19T18:15:07Z</time>
      </trkpt>
      <trkpt lat="43.1999241002" lon="-4.3011488859">
        <ele>288.53</ele>
        <time>2018-05-19T18:15:10Z</time>
      </trkpt>
      <trkpt lat="43.1999729667" lon="-4.3013025261">
        <ele>288.05</ele>
        <time>2018-05-19T18:15:13Z</time>
      </trkpt>
      <trkpt lat="43.2000162173" lon="-4.3014631234">
        <ele>288.05</ele>
        <time>2018-05-19T18:15:16Z</time>
      </trkpt>
      <trkpt lat="43.2000209112" lon="-4.3015982397">
        <ele>288.05</ele>
        <time>2018-05-19T18:15:19Z</time>
      </trkpt>
      <trkpt lat="43.1999121141" lon="-4.3016645405">
        <ele>287.57</ele>
        <time>2018-05-19T18:15:22Z</time>
      </trkpt>
      <trkpt lat="43.1998109445" lon="-4.3017042708">
        <ele>286.13</ele>
        <time>2018-05-19T18:15:24Z</time>
      </trkpt>
      <trkpt lat="43.1997097749" lon="-4.3017525505">
        <ele>286.13</ele>
        <time>2018-05-19T18:15:26Z</time>
      </trkpt>
      <trkpt lat="43.1996159814" lon="-4.3018052727">
        <ele>286.13</ele>
        <time>2018-05-19T18:15:28Z</time>
      </trkpt>
      <trkpt lat="43.1995256245" lon="-4.3018628564">
        <ele>286.13</ele>
        <time>2018-05-19T18:15:30Z</time>
      </trkpt>
      <trkpt lat="43.1994016562" lon="-4.3019437417">
        <ele>286.13</ele>
        <time>2018-05-19T18:15:33Z</time>
      </trkpt>
      <trkpt lat="43.1992942840" lon="-4.3020287342">
        <ele>286.13</ele>
        <time>2018-05-19T18:15:36Z</time>
      </trkpt>
      <trkpt lat="43.1992125604" lon="-4.3020908441">
        <ele>286.13</ele>
        <time>2018-05-19T18:15:38Z</time>
      </trkpt>
      <trkpt lat="43.1991288252" lon="-4.3021445721">
        <ele>286.13</ele>
        <time>2018-05-19T18:15:40Z</time>
      </trkpt>
      <trkpt lat="43.1990274042" lon="-4.3022325821">
        <ele>287.57</ele>
        <time>2018-05-19T18:15:43Z</time>
      </trkpt>
      <trkpt lat="43.1989470217" lon="-4.3023638427">
        <ele>287.57</ele>
        <time>2018-05-19T18:15:46Z</time>
      </trkpt>
      <trkpt lat="43.1988946348" lon="-4.3025382701">
        <ele>287.57</ele>
        <time>2018-05-19T18:15:49Z</time>
      </trkpt>
      <trkpt lat="43.1988460198" lon="-4.3026754819">
        <ele>287.57</ele>
        <time>2018-05-19T18:15:52Z</time>
      </trkpt>
      <trkpt lat="43.1987903640" lon="-4.3028006237">
        <ele>288.05</ele>
        <time>2018-05-19T18:15:55Z</time>
      </trkpt>
      <trkpt lat="43.1987443473" lon="-4.3028756417">
        <ele>288.53</ele>
        <time>2018-05-19T18:16:51Z</time>
      </trkpt>
      <trkpt lat="43.1986853387" lon="-4.3029782362">
        <ele>288.53</ele>
        <time>2018-05-19T18:17:01Z</time>
      </trkpt>
      <trkpt lat="43.1986192893" lon="-4.3031145260">
        <ele>289.49</ele>
        <time>2018-05-19T18:17:06Z</time>
      </trkpt>
      <trkpt lat="43.1985703390" lon="-4.3032171205">
        <ele>289.49</ele>
        <time>2018-05-19T18:17:12Z</time>
      </trkpt>
      <trkpt lat="43.1984682474" lon="-4.3033052143">
        <ele>289.49</ele>
        <time>2018-05-19T18:17:16Z</time>
      </trkpt>
      <trkpt lat="43.1983664073" lon="-4.3033278454">
        <ele>289.97</ele>
        <time>2018-05-19T18:17:20Z</time>
      </trkpt>
      <trkpt lat="43.1982501503" lon="-4.3033721857">
        <ele>289.97</ele>
        <time>2018-05-19T18:17:24Z</time>
      </trkpt>
      <trkpt lat="43.1981493998" lon="-4.3034195434">
        <ele>289.49</ele>
        <time>2018-05-19T18:17:27Z</time>
      </trkpt>
      <trkpt lat="43.1980713643" lon="-4.3034882750">
        <ele>289.49</ele>
        <time>2018-05-19T18:17:30Z</time>
      </trkpt>
      <trkpt lat="43.1980026327" lon="-4.3035880197">
        <ele>289.49</ele>
        <time>2018-05-19T18:17:33Z</time>
      </trkpt>
      <trkpt lat="43.1979508325" lon="-4.3037011754">
        <ele>289.49</ele>
        <time>2018-05-19T18:17:36Z</time>
      </trkpt>
      <trkpt lat="43.1979031395" lon="-4.3038336933">
        <ele>289.49</ele>
        <time>2018-05-19T18:17:40Z</time>
      </trkpt>
      <trkpt lat="43.1978588831" lon="-4.3039554823">
        <ele>289.97</ele>
        <time>2018-05-19T18:17:44Z</time>
      </trkpt>
      <trkpt lat="43.1978244334" lon="-4.3040672131">
        <ele>290.46</ele>
        <time>2018-05-19T18:17:48Z</time>
      </trkpt>
      <trkpt lat="43.1977769081" lon="-4.3041983899">
        <ele>290.46</ele>
        <time>2018-05-19T18:17:53Z</time>
      </trkpt>
      <trkpt lat="43.1978256907" lon="-4.3043258786">
        <ele>290.46</ele>
        <time>2018-05-19T18:17:57Z</time>
      </trkpt>
      <trkpt lat="43.1978843641" lon="-4.3044361845">
        <ele>289.49</ele>
        <time>2018-05-19T18:18:00Z</time>
      </trkpt>
      <trkpt lat="43.1979428697" lon="-4.3045509327">
        <ele>289.49</ele>
        <time>2018-05-19T18:18:03Z</time>
      </trkpt>
      <trkpt lat="43.1980360765" lon="-4.3046152219">
        <ele>289.49</ele>
        <time>2018-05-19T18:18:06Z</time>
      </trkpt>
      <trkpt lat="43.1981407665" lon="-4.3046069238">
        <ele>289.49</ele>
        <time>2018-05-19T18:18:09Z</time>
      </trkpt>
      <trkpt lat="43.1982399244" lon="-4.3045873940">
        <ele>289.01</ele>
        <time>2018-05-19T18:18:12Z</time>
      </trkpt>
      <trkpt lat="43.1983338017" lon="-4.3045777548">
        <ele>288.05</ele>
        <time>2018-05-19T18:18:15Z</time>
      </trkpt>
      <trkpt lat="43.1984171178" lon="-4.3046233524">
        <ele>288.53</ele>
        <time>2018-05-19T18:18:20Z</time>
      </trkpt>
      <trkpt lat="43.1984205544" lon="-4.3047655094">
        <ele>288.05</ele>
        <time>2018-05-19T18:18:33Z</time>
      </trkpt>
      <trkpt lat="43.1984087359" lon="-4.3049116060">
        <ele>288.05</ele>
        <time>2018-05-19T18:18:38Z</time>
      </trkpt>
      <trkpt lat="43.1984590273" lon="-4.3050619774">
        <ele>288.05</ele>
        <time>2018-05-19T18:18:44Z</time>
      </trkpt>
      <trkpt lat="43.1984850951" lon="-4.3052268494">
        <ele>288.05</ele>
        <time>2018-05-19T18:18:49Z</time>
      </trkpt>
      <trkpt lat="43.1985425111" lon="-4.3053828366">
        <ele>289.49</ele>
        <time>2018-05-19T18:18:54Z</time>
      </trkpt>
      <trkpt lat="43.1985273398" lon="-4.3055470381">
        <ele>289.97</ele>
        <time>2018-05-19T18:19:00Z</time>
      </trkpt>
      <trkpt lat="43.1984399166" lon="-4.3056678213">
        <ele>289.97</ele>
        <time>2018-05-19T18:19:05Z</time>
      </trkpt>
      <trkpt lat="43.1983332150" lon="-4.3057551607">
        <ele>290.46</ele>
        <time>2018-05-19T18:19:09Z</time>
      </trkpt>
      <trkpt lat="43.1982207298" lon="-4.3058298435">
        <ele>290.46</ele>
        <time>2018-05-19T18:19:13Z</time>
      </trkpt>
      <trkpt lat="43.1981279422" lon="-4.3058747705">
        <ele>290.46</ele>
        <time>2018-05-19T18:19:17Z</time>
      </trkpt>
      <trkpt lat="43.1980624795" lon="-4.3059847411">
        <ele>292.38</ele>
        <time>2018-05-19T18:19:22Z</time>
      </trkpt>
      <trkpt lat="43.1979941670" lon="-4.3060912751">
        <ele>292.86</ele>
        <time>2018-05-19T18:19:27Z</time>
      </trkpt>
      <trkpt lat="43.1979694404" lon="-4.3062325940">
        <ele>293.34</ele>
        <time>2018-05-19T18:19:32Z</time>
      </trkpt>
      <trkpt lat="43.1979589630" lon="-4.3063786067">
        <ele>294.30</ele>
        <time>2018-05-19T18:19:37Z</time>
      </trkpt>
      <trkpt lat="43.1979658362" lon="-4.3065158185">
        <ele>296.22</ele>
        <time>2018-05-19T18:19:43Z</time>
      </trkpt>
      <trkpt lat="43.1980104279" lon="-4.3066277169">
        <ele>298.63</ele>
        <time>2018-05-19T18:19:50Z</time>
      </trkpt>
      <trkpt lat="43.1980716158" lon="-4.3067350052">
        <ele>301.03</ele>
        <time>2018-05-19T18:19:58Z</time>
      </trkpt>
      <trkpt lat="43.1981105078" lon="-4.3068707082">
        <ele>303.91</ele>
        <time>2018-05-19T18:20:06Z</time>
      </trkpt>
      <trkpt lat="43.1981178839" lon="-4.3070085905">
        <ele>306.32</ele>
        <time>2018-05-19T18:20:13Z</time>
      </trkpt>
      <trkpt lat="43.1981286127" lon="-4.3071499933">
        <ele>307.76</ele>
        <time>2018-05-19T18:20:20Z</time>
      </trkpt>
      <trkpt lat="43.1981381681" lon="-4.3072746322">
        <ele>310.16</ele>
        <time>2018-05-19T18:20:27Z</time>
      </trkpt>
      <trkpt lat="43.1981325522" lon="-4.3074048031">
        <ele>311.60</ele>
        <time>2018-05-19T18:20:34Z</time>
      </trkpt>
      <trkpt lat="43.1981131900" lon="-4.3075359799">
        <ele>312.57</ele>
        <time>2018-05-19T18:20:41Z</time>
      </trkpt>
      <trkpt lat="43.1980831828" lon="-4.3076712638">
        <ele>314.01</ele>
        <time>2018-05-19T18:20:49Z</time>
      </trkpt>
      <trkpt lat="43.1980733760" lon="-4.3078066316">
        <ele>314.97</ele>
        <time>2018-05-19T18:20:56Z</time>
      </trkpt>
      <trkpt lat="43.1980649941" lon="-4.3079466932">
        <ele>315.93</ele>
        <time>2018-05-19T18:21:03Z</time>
      </trkpt>
      <trkpt lat="43.1980551034" lon="-4.3080886826">
        <ele>317.85</ele>
        <time>2018-05-19T18:21:11Z</time>
      </trkpt>
      <trkpt lat="43.1980514154" lon="-4.3082181830">
        <ele>319.78</ele>
        <time>2018-05-19T18:21:18Z</time>
      </trkpt>
      <trkpt lat="43.1980546843" lon="-4.3083527125">
        <ele>321.22</ele>
        <time>2018-05-19T18:21:25Z</time>
      </trkpt>
      <trkpt lat="43.1980438717" lon="-4.3084815424">
        <ele>323.14</ele>
        <time>2018-05-19T18:21:33Z</time>
      </trkpt>
      <trkpt lat="43.1980219111" lon="-4.3086200953">
        <ele>325.06</ele>
        <time>2018-05-19T18:21:41Z</time>
      </trkpt>
      <trkpt lat="43.1979846954" lon="-4.3087469973">
        <ele>326.99</ele>
        <time>2018-05-19T18:21:49Z</time>
      </trkpt>
      <trkpt lat="43.1979411095" lon="-4.3088788446">
        <ele>328.43</ele>
        <time>2018-05-19T18:21:57Z</time>
      </trkpt>
      <trkpt lat="43.1978992838" lon="-4.3090065010">
        <ele>330.35</ele>
        <time>2018-05-19T18:22:05Z</time>
      </trkpt>
      <trkpt lat="43.1978596374" lon="-4.3091227580">
        <ele>331.79</ele>
        <time>2018-05-19T18:22:12Z</time>
      </trkpt>
      <trkpt lat="43.1978233438" lon="-4.3092513364">
        <ele>334.20</ele>
        <time>2018-05-19T18:22:20Z</time>
      </trkpt>
      <trkpt lat="43.1978116091" lon="-4.3093801662">
        <ele>335.64</ele>
        <time>2018-05-19T18:22:28Z</time>
      </trkpt>
      <trkpt lat="43.1977823563" lon="-4.3095118459">
        <ele>338.52</ele>
        <time>2018-05-19T18:22:36Z</time>
      </trkpt>
      <trkpt lat="43.1977791712" lon="-4.3096469622">
        <ele>340.92</ele>
        <time>2018-05-19T18:22:43Z</time>
      </trkpt>
      <trkpt lat="43.1977653410" lon="-4.3097863533">
        <ele>342.37</ele>
        <time>2018-05-19T18:22:51Z</time>
      </trkpt>
      <trkpt lat="43.1977375131" lon="-4.3099248223">
        <ele>344.77</ele>
        <time>2018-05-19T18:22:59Z</time>
      </trkpt>
      <trkpt lat="43.1977099366" lon="-4.3100657221">
        <ele>347.17</ele>
        <time>2018-05-19T18:23:07Z</time>
      </trkpt>
      <trkpt lat="43.1976792589" lon="-4.3102056999">
        <ele>349.10</ele>
        <time>2018-05-19T18:23:15Z</time>
      </trkpt>
      <trkpt lat="43.1976678595" lon="-4.3103493657">
        <ele>350.06</ele>
        <time>2018-05-19T18:23:23Z</time>
      </trkpt>
      <trkpt lat="43.1976724695" lon="-4.3104806263">
        <ele>351.50</ele>
        <time>2018-05-19T18:23:30Z</time>
      </trkpt>
      <trkpt lat="43.1976901554" lon="-4.3106122222">
        <ele>352.94</ele>
        <time>2018-05-19T18:23:37Z</time>
      </trkpt>
      <trkpt lat="43.1977262814" lon="-4.3107441533">
        <ele>354.38</ele>
        <time>2018-05-19T18:23:46Z</time>
      </trkpt>
      <trkpt lat="43.1977064162" lon="-4.3107931875">
        <ele>354.86</ele>
        <time>2018-05-19T18:24:13Z</time>
      </trkpt>
      <trkpt lat="43.1977120321" lon="-4.3107782677">
        <ele>354.86</ele>
        <time>2018-05-19T18:30:19Z</time>
      </trkpt>
      <trkpt lat="43.1976875570" lon="-4.3107729871">
        <ele>354.38</ele>
        <time>2018-05-19T18:40:10Z</time>
      </trkpt>
      <trkpt lat="43.1977525167" lon="-4.3108362705">
        <ele>354.38</ele>
        <time>2018-05-19T18:40:37Z</time>
      </trkpt>
      <trkpt lat="43.1977676880" lon="-4.3109653518">
        <ele>354.86</ele>
        <time>2018-05-19T18:41:00Z</time>
      </trkpt>
      <trkpt lat="43.1977833621" lon="-4.3111024797">
        <ele>355.34</ele>
        <time>2018-05-19T18:41:07Z</time>
      </trkpt>
      <trkpt lat="43.1977199949" lon="-4.3111893162">
        <ele>355.83</ele>
        <time>2018-05-19T18:41:25Z</time>
      </trkpt>
      <trkpt lat="43.1976243574" lon="-4.3112282082">
        <ele>356.79</ele>
        <time>2018-05-19T18:41:31Z</time>
      </trkpt>
      <trkpt lat="43.1975325756" lon="-4.3112698663">
        <ele>358.71</ele>
        <time>2018-05-19T18:41:37Z</time>
      </trkpt>
      <trkpt lat="43.1974508520" lon="-4.3113088422">
        <ele>359.67</ele>
        <time>2018-05-19T18:41:43Z</time>
      </trkpt>
      <trkpt lat="43.1973478384" lon="-4.3113191519">
        <ele>361.59</ele>
        <time>2018-05-19T18:41:50Z</time>
      </trkpt>
      <trkpt lat="43.1972723175" lon="-4.3112788349">
        <ele>362.55</ele>
        <time>2018-05-19T18:41:57Z</time>
      </trkpt>
      <trkpt lat="43.1972034182" lon="-4.3111894000">
        <ele>364.48</ele>
        <time>2018-05-19T18:42:05Z</time>
      </trkpt>
      <trkpt lat="43.1971400511" lon="-4.3111018930">
        <ele>365.92</ele>
        <time>2018-05-19T18:42:12Z</time>
      </trkpt>
      <trkpt lat="43.1970868260" lon="-4.3109806068">
        <ele>367.36</ele>
        <time>2018-05-19T18:42:20Z</time>
      </trkpt>
      <trkpt lat="43.1970455032" lon="-4.3108532019">
        <ele>369.28</ele>
        <time>2018-05-19T18:42:28Z</time>
      </trkpt>
      <trkpt lat="43.1970026717" lon="-4.3107445724">
        <ele>370.73</ele>
        <time>2018-05-19T18:42:35Z</time>
      </trkpt>
      <trkpt lat="43.1969688088" lon="-4.3106112164">
        <ele>371.69</ele>
        <time>2018-05-19T18:42:42Z</time>
      </trkpt>
      <trkpt lat="43.1969416514" lon="-4.3104859069">
        <ele>372.65</ele>
        <time>2018-05-19T18:42:49Z</time>
      </trkpt>
      <trkpt lat="43.1969093811" lon="-4.3103538081">
        <ele>373.61</ele>
        <time>2018-05-19T18:42:56Z</time>
      </trkpt>
      <trkpt lat="43.1968818884" lon="-4.3102207873">
        <ele>374.09</ele>
        <time>2018-05-19T18:43:02Z</time>
      </trkpt>
      <trkpt lat="43.1968573295" lon="-4.3100899458">
        <ele>374.57</ele>
        <time>2018-05-19T18:43:08Z</time>
      </trkpt>
      <trkpt lat="43.1968308426" lon="-4.3099693302">
        <ele>375.05</ele>
        <time>2018-05-19T18:43:14Z</time>
      </trkpt>
      <trkpt lat="43.1967971474" lon="-4.3098357227">
        <ele>376.01</ele>
        <time>2018-05-19T18:43:21Z</time>
      </trkpt>
      <trkpt lat="43.1967657153" lon="-4.3097130116">
        <ele>376.97</ele>
        <time>2018-05-19T18:43:28Z</time>
      </trkpt>
      <trkpt lat="43.1967336964" lon="-4.3095954135">
        <ele>378.42</ele>
        <time>2018-05-19T18:43:35Z</time>
      </trkpt>
      <trkpt lat="43.1967033539" lon="-4.3094602134">
        <ele>378.90</ele>
        <time>2018-05-19T18:43:42Z</time>
      </trkpt>
      <trkpt lat="43.1966662221" lon="-4.3093219958">
        <ele>380.34</ele>
        <time>2018-05-19T18:43:49Z</time>
      </trkpt>
      <trkpt lat="43.1966417469" lon="-4.3091841973">
        <ele>381.30</ele>
        <time>2018-05-19T18:43:56Z</time>
      </trkpt>
      <trkpt lat="43.1966170203" lon="-4.3090599775">
        <ele>381.78</ele>
        <time>2018-05-19T18:44:02Z</time>
      </trkpt>
      <trkpt lat="43.1965598557" lon="-4.3089538626">
        <ele>382.74</ele>
        <time>2018-05-19T18:44:08Z</time>
      </trkpt>
      <trkpt lat="43.1964724325" lon="-4.3089522701">
        <ele>383.70</ele>
        <time>2018-05-19T18:44:14Z</time>
      </trkpt>
      <trkpt lat="43.1964037009" lon="-4.3090542778">
        <ele>385.15</ele>
        <time>2018-05-19T18:44:21Z</time>
      </trkpt>
      <trkpt lat="43.1963897031" lon="-4.3091926631">
        <ele>386.59</ele>
        <time>2018-05-19T18:44:28Z</time>
      </trkpt>
      <trkpt lat="43.1963836681" lon="-4.3093432859">
        <ele>387.55</ele>
        <time>2018-05-19T18:44:35Z</time>
      </trkpt>
      <trkpt lat="43.1963809021" lon="-4.3094778992">
        <ele>388.99</ele>
        <time>2018-05-19T18:44:41Z</time>
      </trkpt>
      <trkpt lat="43.1963830814" lon="-4.3096115906">
        <ele>390.43</ele>
        <time>2018-05-19T18:44:48Z</time>
      </trkpt>
      <trkpt lat="43.1963877752" lon="-4.3097413424">
        <ele>391.87</ele>
        <time>2018-05-19T18:44:55Z</time>
      </trkpt>
      <trkpt lat="43.1963850092" lon="-4.3098742794">
        <ele>393.32</ele>
        <time>2018-05-19T18:45:02Z</time>
      </trkpt>
      <trkpt lat="43.1963820755" lon="-4.3100037798">
        <ele>394.28</ele>
        <time>2018-05-19T18:45:09Z</time>
      </trkpt>
      <trkpt lat="43.1963790581" lon="-4.3101313524">
        <ele>395.72</ele>
        <time>2018-05-19T18:45:16Z</time>
      </trkpt>
      <trkpt lat="43.1963696703" lon="-4.3102564942">
        <ele>397.16</ele>
        <time>2018-05-19T18:45:23Z</time>
      </trkpt>
      <trkpt lat="43.1963649765" lon="-4.3103955500">
        <ele>398.12</ele>
        <time>2018-05-19T18:45:30Z</time>
      </trkpt>
      <trkpt lat="43.1963666528" lon="-4.3105200212">
        <ele>398.60</ele>
        <time>2018-05-19T18:45:37Z</time>
      </trkpt>
      <trkpt lat="43.1963608693" lon="-4.3106603343">
        <ele>400.05</ele>
        <time>2018-05-19T18:45:44Z</time>
      </trkpt>
      <trkpt lat="43.1963577680" lon="-4.3107934389">
        <ele>401.49</ele>
        <time>2018-05-19T18:45:51Z</time>
      </trkpt>
      <trkpt lat="43.1963515654" lon="-4.3109200895">
        <ele>403.41</ele>
        <time>2018-05-19T18:45:59Z</time>
      </trkpt>
      <trkpt lat="43.1963455305" lon="-4.3110544514">
        <ele>404.37</ele>
        <time>2018-05-19T18:46:07Z</time>
      </trkpt>
      <trkpt lat="43.1963432673" lon="-4.3111878075">
        <ele>407.26</ele>
        <time>2018-05-19T18:46:15Z</time>
      </trkpt>
      <trkpt lat="43.1963503081" lon="-4.3113050703">
        <ele>408.70</ele>
        <time>2018-05-19T18:46:23Z</time>
      </trkpt>
      <trkpt lat="43.1963601988" lon="-4.3114442099">
        <ele>410.14</ele>
        <time>2018-05-19T18:46:31Z</time>
      </trkpt>
      <trkpt lat="43.1963762920" lon="-4.3115711957">
        <ele>412.06</ele>
        <time>2018-05-19T18:46:38Z</time>
      </trkpt>
      <trkpt lat="43.1963888649" lon="-4.3117066473">
        <ele>413.98</ele>
        <time>2018-05-19T18:46:46Z</time>
      </trkpt>
      <trkpt lat="43.1963538285" lon="-4.3118220661">
        <ele>415.91</ele>
        <time>2018-05-19T18:46:54Z</time>
      </trkpt>
      <trkpt lat="43.1962638907" lon="-4.3118500616">
        <ele>418.31</ele>
        <time>2018-05-19T18:47:02Z</time>
      </trkpt>
      <trkpt lat="43.1961712707" lon="-4.3118477985">
        <ele>419.75</ele>
        <time>2018-05-19T18:47:09Z</time>
      </trkpt>
      <trkpt lat="43.1960825901" lon="-4.3118426017">
        <ele>421.19</ele>
        <time>2018-05-19T18:47:16Z</time>
      </trkpt>
      <trkpt lat="43.1959901378" lon="-4.3118502293">
        <ele>422.64</ele>
        <time>2018-05-19T18:47:24Z</time>
      </trkpt>
      <trkpt lat="43.1958884653" lon="-4.3118463736">
        <ele>424.08</ele>
        <time>2018-05-19T18:47:32Z</time>
      </trkpt>
      <trkpt lat="43.1957943365" lon="-4.3118547555">
        <ele>424.56</ele>
        <time>2018-05-19T18:47:38Z</time>
      </trkpt>
      <trkpt lat="43.1956867129" lon="-4.3118591141">
        <ele>424.56</ele>
        <time>2018-05-19T18:47:43Z</time>
      </trkpt>
      <trkpt lat="43.1955808494" lon="-4.3118627183">
        <ele>425.04</ele>
        <time>2018-05-19T18:47:48Z</time>
      </trkpt>
      <trkpt lat="43.1954759080" lon="-4.3118607067">
        <ele>425.52</ele>
        <time>2018-05-19T18:47:54Z</time>
      </trkpt>
      <trkpt lat="43.1953863055" lon="-4.3118522409">
        <ele>427.44</ele>
        <time>2018-05-19T18:48:00Z</time>
      </trkpt>
      <trkpt lat="43.1952945236" lon="-4.3118570186">
        <ele>428.40</ele>
        <time>2018-05-19T18:48:06Z</time>
      </trkpt>
      <trkpt lat="43.1951898336" lon="-4.3118519895">
        <ele>429.85</ele>
        <time>2018-05-19T18:48:13Z</time>
      </trkpt>
      <trkpt lat="43.1950983033" lon="-4.3118505646">
        <ele>430.33</ele>
        <time>2018-05-19T18:48:19Z</time>
      </trkpt>
      <trkpt lat="43.1950455811" lon="-4.3119109143">
        <ele>432.25</ele>
        <time>2018-05-19T18:48:26Z</time>
      </trkpt>
      <trkpt lat="43.1951265503" lon="-4.3119651452">
        <ele>432.73</ele>
        <time>2018-05-19T18:48:32Z</time>
      </trkpt>
      <trkpt lat="43.1952231098" lon="-4.3119991757">
        <ele>433.21</ele>
        <time>2018-05-19T18:48:39Z</time>
      </trkpt>
      <trkpt lat="43.1953207590" lon="-4.3120399117">
        <ele>433.69</ele>
        <time>2018-05-19T18:48:45Z</time>
      </trkpt>
      <trkpt lat="43.1954186596" lon="-4.3120908737">
        <ele>434.17</ele>
        <time>2018-05-19T18:48:51Z</time>
      </trkpt>
      <trkpt lat="43.1955165602" lon="-4.3121456914">
        <ele>435.13</ele>
        <time>2018-05-19T18:48:57Z</time>
      </trkpt>
      <trkpt lat="43.1956078392" lon="-4.3122207094">
        <ele>436.10</ele>
        <time>2018-05-19T18:49:03Z</time>
      </trkpt>
      <trkpt lat="43.1956993695" lon="-4.3122666422">
        <ele>436.58</ele>
        <time>2018-05-19T18:49:09Z</time>
      </trkpt>
      <trkpt lat="43.1957929954" lon="-4.3123261537">
        <ele>438.02</ele>
        <time>2018-05-19T18:49:15Z</time>
      </trkpt>
      <trkpt lat="43.1958731264" lon="-4.3124148343">
        <ele>438.50</ele>
        <time>2018-05-19T18:49:21Z</time>
      </trkpt>
      <trkpt lat="43.1959211547" lon="-4.3125231285">
        <ele>439.46</ele>
        <time>2018-05-19T18:49:27Z</time>
      </trkpt>
      <trkpt lat="43.1959674228" lon="-4.3126347754">
        <ele>440.90</ele>
        <time>2018-05-19T18:49:33Z</time>
      </trkpt>
      <trkpt lat="43.1959303748" lon="-4.3127381243">
        <ele>442.82</ele>
        <time>2018-05-19T18:49:39Z</time>
      </trkpt>
      <trkpt lat="43.1958432868" lon="-4.3127397168">
        <ele>444.27</ele>
        <time>2018-05-19T18:49:46Z</time>
      </trkpt>
      <trkpt lat="43.1957483198" lon="-4.3127499428">
        <ele>447.15</ele>
        <time>2018-05-19T18:49:54Z</time>
      </trkpt>
      <trkpt lat="43.1956500839" lon="-4.3127617612">
        <ele>449.55</ele>
        <time>2018-05-19T18:50:02Z</time>
      </trkpt>
      <trkpt lat="43.1955520157" lon="-4.3127816264">
        <ele>451.48</ele>
        <time>2018-05-19T18:50:09Z</time>
      </trkpt>
      <trkpt lat="43.1954583898" lon="-4.3128074426">
        <ele>452.92</ele>
        <time>2018-05-19T18:50:17Z</time>
      </trkpt>
      <trkpt lat="43.1953694578" lon="-4.3128330074">
        <ele>454.84</ele>
        <time>2018-05-19T18:50:25Z</time>
      </trkpt>
      <trkpt lat="43.1952788495" lon="-4.3128636014">
        <ele>457.24</ele>
        <time>2018-05-19T18:50:33Z</time>
      </trkpt>
      <trkpt lat="43.1951798592" lon="-4.3128993083">
        <ele>459.17</ele>
        <time>2018-05-19T18:50:42Z</time>
      </trkpt>
      <trkpt lat="43.1950967107" lon="-4.3129415531">
        <ele>460.61</ele>
        <time>2018-05-19T18:50:50Z</time>
      </trkpt>
      <trkpt lat="43.1950024143" lon="-4.3129984662">
        <ele>462.53</ele>
        <time>2018-05-19T18:50:59Z</time>
      </trkpt>
      <trkpt lat="43.1949137338" lon="-4.3130502664">
        <ele>464.93</ele>
        <time>2018-05-19T18:51:07Z</time>
      </trkpt>
      <trkpt lat="43.1948350277" lon="-4.3131005578">
        <ele>466.86</ele>
        <time>2018-05-19T18:51:14Z</time>
      </trkpt>
      <trkpt lat="43.1947414856" lon="-4.3131286371">
        <ele>468.30</ele>
        <time>2018-05-19T18:51:22Z</time>
      </trkpt>
      <trkpt lat="43.1946489494" lon="-4.3131642602">
        <ele>470.22</ele>
        <time>2018-05-19T18:51:30Z</time>
      </trkpt>
      <trkpt lat="43.1945473608" lon="-4.3131801020">
        <ele>471.18</ele>
        <time>2018-05-19T18:51:38Z</time>
      </trkpt>
      <trkpt lat="43.1944523938" lon="-4.3131767493">
        <ele>473.11</ele>
        <time>2018-05-19T18:51:45Z</time>
      </trkpt>
      <trkpt lat="43.1943794712" lon="-4.3132371828">
        <ele>474.07</ele>
        <time>2018-05-19T18:51:53Z</time>
      </trkpt>
      <trkpt lat="43.1944199558" lon="-4.3133463152">
        <ele>476.47</ele>
        <time>2018-05-19T18:52:00Z</time>
      </trkpt>
      <trkpt lat="43.1944883522" lon="-4.3134339061">
        <ele>478.39</ele>
        <time>2018-05-19T18:52:08Z</time>
      </trkpt>
      <trkpt lat="43.1945608556" lon="-4.3135057390">
        <ele>479.84</ele>
        <time>2018-05-19T18:52:15Z</time>
      </trkpt>
      <trkpt lat="43.1946416572" lon="-4.3135640770">
        <ele>482.24</ele>
        <time>2018-05-19T18:52:23Z</time>
      </trkpt>
      <trkpt lat="43.1947210338" lon="-4.3136316352">
        <ele>484.16</ele>
        <time>2018-05-19T18:52:31Z</time>
      </trkpt>
      <trkpt lat="43.1947993208" lon="-4.3136930745">
        <ele>485.60</ele>
        <time>2018-05-19T18:52:38Z</time>
      </trkpt>
      <trkpt lat="43.1948748417" lon="-4.3137683440">
        <ele>487.05</ele>
        <time>2018-05-19T18:52:45Z</time>
      </trkpt>
      <trkpt lat="43.1949442439" lon="-4.3138658255">
        <ele>489.45</ele>
        <time>2018-05-19T18:52:53Z</time>
      </trkpt>
      <trkpt lat="43.1950051803" lon="-4.3139636423">
        <ele>491.37</ele>
        <time>2018-05-19T18:53:01Z</time>
      </trkpt>
      <trkpt lat="43.1950526219" lon="-4.3140774686">
        <ele>493.29</ele>
        <time>2018-05-19T18:53:09Z</time>
      </trkpt>
      <trkpt lat="43.1950910948" lon="-4.3141912110">
        <ele>495.70</ele>
        <time>2018-05-19T18:53:17Z</time>
      </trkpt>
      <trkpt lat="43.1951257121" lon="-4.3143124972">
        <ele>499.06</ele>
        <time>2018-05-19T18:53:25Z</time>
      </trkpt>
      <trkpt lat="43.1951513607" lon="-4.3144321907">
        <ele>501.46</ele>
        <time>2018-05-19T18:53:33Z</time>
      </trkpt>
      <trkpt lat="43.1951918453" lon="-4.3145617750">
        <ele>502.91</ele>
        <time>2018-05-19T18:53:41Z</time>
      </trkpt>
      <trkpt lat="43.1952429749" lon="-4.3146723323">
        <ele>503.87</ele>
        <time>2018-05-19T18:53:48Z</time>
      </trkpt>
      <trkpt lat="43.1952998042" lon="-4.3147721607">
        <ele>505.31</ele>
        <time>2018-05-19T18:53:55Z</time>
      </trkpt>
      <trkpt lat="43.1953600701" lon="-4.3148712348">
        <ele>505.79</ele>
        <time>2018-05-19T18:54:02Z</time>
      </trkpt>
      <trkpt lat="43.1954345852" lon="-4.3149824627">
        <ele>506.75</ele>
        <time>2018-05-19T18:54:10Z</time>
      </trkpt>
      <trkpt lat="43.1955018919" lon="-4.3150811177">
        <ele>507.23</ele>
        <time>2018-05-19T18:54:16Z</time>
      </trkpt>
      <trkpt lat="43.1955790054" lon="-4.3151824549">
        <ele>507.23</ele>
        <time>2018-05-19T18:54:23Z</time>
      </trkpt>
      <trkpt lat="43.1956523471" lon="-4.3152868096">
        <ele>507.71</ele>
        <time>2018-05-19T18:54:30Z</time>
      </trkpt>
      <trkpt lat="43.1957317237" lon="-4.3153899070">
        <ele>508.19</ele>
        <time>2018-05-19T18:54:36Z</time>
      </trkpt>
      <trkpt lat="43.1958007067" lon="-4.3154693674">
        <ele>508.67</ele>
        <time>2018-05-19T18:54:41Z</time>
      </trkpt>
      <trkpt lat="43.1958762277" lon="-4.3155552819">
        <ele>508.67</ele>
        <time>2018-05-19T18:54:46Z</time>
      </trkpt>
      <trkpt lat="43.1959500723" lon="-4.3156409450">
        <ele>508.67</ele>
        <time>2018-05-19T18:54:50Z</time>
      </trkpt>
      <trkpt lat="43.1960196421" lon="-4.3157338165">
        <ele>509.64</ele>
        <time>2018-05-19T18:54:55Z</time>
      </trkpt>
      <trkpt lat="43.1960778963" lon="-4.3158251792">
        <ele>510.60</ele>
        <time>2018-05-19T18:55:00Z</time>
      </trkpt>
      <trkpt lat="43.1961034611" lon="-4.3159526680">
        <ele>512.52</ele>
        <time>2018-05-19T18:55:06Z</time>
      </trkpt>
      <trkpt lat="43.1960998569" lon="-4.3160896283">
        <ele>514.44</ele>
        <time>2018-05-19T18:55:13Z</time>
      </trkpt>
      <trkpt lat="43.1960745435" lon="-4.3162240740">
        <ele>515.88</ele>
        <time>2018-05-19T18:55:20Z</time>
      </trkpt>
      <trkpt lat="43.1960474700" lon="-4.3163607828">
        <ele>516.85</ele>
        <time>2018-05-19T18:55:27Z</time>
      </trkpt>
      <trkpt lat="43.1960232463" lon="-4.3164947256">
        <ele>517.33</ele>
        <time>2018-05-19T18:55:33Z</time>
      </trkpt>
      <trkpt lat="43.1960047223" lon="-4.3166407384">
        <ele>517.33</ele>
        <time>2018-05-19T18:55:38Z</time>
      </trkpt>
      <trkpt lat="43.1959864497" lon="-4.3167682271">
        <ele>518.29</ele>
        <time>2018-05-19T18:55:43Z</time>
      </trkpt>
      <trkpt lat="43.1959844381" lon="-4.3169161677">
        <ele>518.77</ele>
        <time>2018-05-19T18:55:48Z</time>
      </trkpt>
      <trkpt lat="43.1960048061" lon="-4.3170704786">
        <ele>519.25</ele>
        <time>2018-05-19T18:55:53Z</time>
      </trkpt>
      <trkpt lat="43.1960368250" lon="-4.3172198441">
        <ele>519.25</ele>
        <time>2018-05-19T18:55:57Z</time>
      </trkpt>
      <trkpt lat="43.1960571092" lon="-4.3173929304">
        <ele>519.25</ele>
        <time>2018-05-19T18:56:01Z</time>
      </trkpt>
      <trkpt lat="43.1960524991" lon="-4.3175432179">
        <ele>519.25</ele>
        <time>2018-05-19T18:56:04Z</time>
      </trkpt>
      <trkpt lat="43.1960333046" lon="-4.3176675215">
        <ele>519.25</ele>
        <time>2018-05-19T18:56:07Z</time>
      </trkpt>
      <trkpt lat="43.1960070692" lon="-4.3178099301">
        <ele>520.21</ele>
        <time>2018-05-19T18:56:11Z</time>
      </trkpt>
      <trkpt lat="43.1959851086" lon="-4.3179560266">
        <ele>521.65</ele>
        <time>2018-05-19T18:56:16Z</time>
      </trkpt>
      <trkpt lat="43.1959633157" lon="-4.3181018718">
        <ele>523.09</ele>
        <time>2018-05-19T18:56:22Z</time>
      </trkpt>
      <trkpt lat="43.1959538441" lon="-4.3182500638">
        <ele>523.58</ele>
        <time>2018-05-19T18:56:27Z</time>
      </trkpt>
      <trkpt lat="43.1959543470" lon="-4.3184089009">
        <ele>523.58</ele>
        <time>2018-05-19T18:56:31Z</time>
      </trkpt>
      <trkpt lat="43.1959531736" lon="-4.3185701687">
        <ele>523.58</ele>
        <time>2018-05-19T18:56:35Z</time>
      </trkpt>
      <trkpt lat="43.1959540956" lon="-4.3187053688">
        <ele>523.58</ele>
        <time>2018-05-19T18:56:38Z</time>
      </trkpt>
      <trkpt lat="43.1959406845" lon="-4.3188855797">
        <ele>521.65</ele>
        <time>2018-05-19T18:56:41Z</time>
      </trkpt>
      <trkpt lat="43.1959315483" lon="-4.3190636113">
        <ele>521.65</ele>
        <time>2018-05-19T18:56:44Z</time>
      </trkpt>
      <trkpt lat="43.1959517486" lon="-4.3191886693">
        <ele>524.06</ele>
        <time>2018-05-19T18:56:48Z</time>
      </trkpt>
      <trkpt lat="43.1960146129" lon="-4.3193076085">
        <ele>524.54</ele>
        <time>2018-05-19T18:56:54Z</time>
      </trkpt>
      <trkpt lat="43.1961070653" lon="-4.3193732388">
        <ele>525.98</ele>
        <time>2018-05-19T18:57:01Z</time>
      </trkpt>
      <trkpt lat="43.1961978413" lon="-4.3194357678">
        <ele>529.34</ele>
        <time>2018-05-19T18:57:09Z</time>
      </trkpt>
      <trkpt lat="43.1962708477" lon="-4.3195164017">
        <ele>532.23</ele>
        <time>2018-05-19T18:57:17Z</time>
      </trkpt>
      <trkpt lat="43.1963143498" lon="-4.3196454830">
        <ele>534.63</ele>
        <time>2018-05-19T18:57:25Z</time>
      </trkpt>
      <trkpt lat="43.1963836681" lon="-4.3197517656">
        <ele>537.51</ele>
        <time>2018-05-19T18:57:33Z</time>
      </trkpt>
      <trkpt lat="43.1964444369" lon="-4.3198526837">
        <ele>539.92</ele>
        <time>2018-05-19T18:57:40Z</time>
      </trkpt>
      <trkpt lat="43.1965237297" lon="-4.3199343234">
        <ele>542.32</ele>
        <time>2018-05-19T18:57:47Z</time>
      </trkpt>
      <trkpt lat="43.1965881027" lon="-4.3200288713">
        <ele>543.76</ele>
        <time>2018-05-19T18:57:54Z</time>
      </trkpt>
      <trkpt lat="43.1966295931" lon="-4.3201466370">
        <ele>545.69</ele>
        <time>2018-05-19T18:58:01Z</time>
      </trkpt>
      <trkpt lat="43.1966673117" lon="-4.3202711083">
        <ele>547.13</ele>
        <time>2018-05-19T18:58:08Z</time>
      </trkpt>
      <trkpt lat="43.1967023481" lon="-4.3203926459">
        <ele>549.05</ele>
        <time>2018-05-19T18:58:15Z</time>
      </trkpt>
      <trkpt lat="43.1967299245" lon="-4.3205231521">
        <ele>550.97</ele>
        <time>2018-05-19T18:58:23Z</time>
      </trkpt>
      <trkpt lat="43.1966984086" lon="-4.3206517305">
        <ele>552.90</ele>
        <time>2018-05-19T18:58:30Z</time>
      </trkpt>
      <trkpt lat="43.1966164336" lon="-4.3207279220">
        <ele>554.34</ele>
        <time>2018-05-19T18:58:38Z</time>
      </trkpt>
      <trkpt lat="43.1965350453" lon="-4.3207985815">
        <ele>555.78</ele>
        <time>2018-05-19T18:58:46Z</time>
      </trkpt>
      <trkpt lat="43.1964589376" lon="-4.3208918720">
        <ele>557.70</ele>
        <time>2018-05-19T18:58:54Z</time>
      </trkpt>
      <trkpt lat="43.1963893678" lon="-4.3209876772">
        <ele>558.66</ele>
        <time>2018-05-19T18:59:02Z</time>
      </trkpt>
      <trkpt lat="43.1963177025" lon="-4.3211214524">
        <ele>561.07</ele>
        <time>2018-05-19T18:59:11Z</time>
      </trkpt>
      <trkpt lat="43.1962493900" lon="-4.3212607596">
        <ele>563.95</ele>
        <time>2018-05-19T18:59:19Z</time>
      </trkpt>
      <trkpt lat="43.1961731147" lon="-4.3213855661">
        <ele>565.39</ele>
        <time>2018-05-19T18:59:27Z</time>
      </trkpt>
      <trkpt lat="43.1960762199" lon="-4.3214240391">
        <ele>567.32</ele>
        <time>2018-05-19T18:59:34Z</time>
      </trkpt>
      <trkpt lat="43.1959882937" lon="-4.3214006536">
        <ele>569.72</ele>
        <time>2018-05-19T18:59:41Z</time>
      </trkpt>
      <trkpt lat="43.1959083304" lon="-4.3213534635">
        <ele>571.64</ele>
        <time>2018-05-19T18:59:48Z</time>
      </trkpt>
      <trkpt lat="43.1958134472" lon="-4.3213136494">
        <ele>573.56</ele>
        <time>2018-05-19T18:59:56Z</time>
      </trkpt>
      <trkpt lat="43.1957059074" lon="-4.3212477677">
        <ele>575.97</ele>
        <time>2018-05-19T19:00:05Z</time>
      </trkpt>
      <trkpt lat="43.1956082582" lon="-4.3212724105">
        <ele>578.37</ele>
        <time>2018-05-19T19:00:13Z</time>
      </trkpt>
      <trkpt lat="43.1955265347" lon="-4.3213555589">
        <ele>581.25</ele>
        <time>2018-05-19T19:00:21Z</time>
      </trkpt>
      <trkpt lat="43.1954696216" lon="-4.3214853108">
        <ele>582.22</ele>
        <time>2018-05-19T19:00:29Z</time>
      </trkpt>
      <trkpt lat="43.1954234373" lon="-4.3216175772">
        <ele>583.66</ele>
        <time>2018-05-19T19:00:36Z</time>
      </trkpt>
      <trkpt lat="43.1954105292" lon="-4.3216325808">
        <ele>584.14</ele>
        <time>2018-05-19T19:00:45Z</time>
      </trkpt>
      <trkpt lat="43.1953391992" lon="-4.3216364365">
        <ele>584.14</ele>
        <time>2018-05-19T19:00:52Z</time>
      </trkpt>
      <trkpt lat="43.1952676177" lon="-4.3217219319">
        <ele>586.06</ele>
        <time>2018-05-19T19:00:59Z</time>
      </trkpt>
      <trkpt lat="43.1951988023" lon="-4.3216461595">
        <ele>588.46</ele>
        <time>2018-05-19T19:01:06Z</time>
      </trkpt>
      <trkpt lat="43.1951582339" lon="-4.3215290643">
        <ele>589.91</ele>
        <time>2018-05-19T19:01:13Z</time>
      </trkpt>
      <trkpt lat="43.1951107923" lon="-4.3214020785">
        <ele>591.35</ele>
        <time>2018-05-19T19:01:20Z</time>
      </trkpt>
      <trkpt lat="43.1950309966" lon="-4.3214214407">
        <ele>592.31</ele>
        <time>2018-05-19T19:01:27Z</time>
      </trkpt>
      <trkpt lat="43.1949969660" lon="-4.3215625919">
        <ele>593.75</ele>
        <time>2018-05-19T19:01:34Z</time>
      </trkpt>
      <trkpt lat="43.1949734967" lon="-4.3216999713">
        <ele>594.71</ele>
        <time>2018-05-19T19:01:41Z</time>
      </trkpt>
      <trkpt lat="43.1949719880" lon="-4.3218241073">
        <ele>595.67</ele>
        <time>2018-05-19T19:01:47Z</time>
      </trkpt>
      <trkpt lat="43.1949888356" lon="-4.3219500873">
        <ele>597.60</ele>
        <time>2018-05-19T19:01:55Z</time>
      </trkpt>
      <trkpt lat="43.1950235367" lon="-4.3220648356">
        <ele>598.56</ele>
        <time>2018-05-19T19:02:02Z</time>
      </trkpt>
      <trkpt lat="43.1950729061" lon="-4.3221801706">
        <ele>600.00</ele>
        <time>2018-05-19T19:02:09Z</time>
      </trkpt>
      <trkpt lat="43.1950957887" lon="-4.3223046418">
        <ele>601.44</ele>
        <time>2018-05-19T19:02:15Z</time>
      </trkpt>
      <trkpt lat="43.1951006502" lon="-4.3224463798">
        <ele>601.92</ele>
        <time>2018-05-19T19:02:22Z</time>
      </trkpt>
      <trkpt lat="43.1951036677" lon="-4.3225770537">
        <ele>603.36</ele>
        <time>2018-05-19T19:02:28Z</time>
      </trkpt>
      <trkpt lat="43.1951003987" lon="-4.3227120861">
        <ele>604.81</ele>
        <time>2018-05-19T19:02:35Z</time>
      </trkpt>
      <trkpt lat="43.1950915977" lon="-4.3228439335">
        <ele>606.25</ele>
        <time>2018-05-19T19:02:42Z</time>
      </trkpt>
      <trkpt lat="43.1950935256" lon="-4.3229819834">
        <ele>607.21</ele>
        <time>2018-05-19T19:02:49Z</time>
      </trkpt>
      <trkpt lat="43.1951154862" lon="-4.3231122382">
        <ele>608.65</ele>
        <time>2018-05-19T19:02:56Z</time>
      </trkpt>
      <trkpt lat="43.1951485947" lon="-4.3232300878">
        <ele>609.61</ele>
        <time>2018-05-19T19:03:04Z</time>
      </trkpt>
      <trkpt lat="43.1951502711" lon="-4.3233543076">
        <ele>609.61</ele>
        <time>2018-05-19T19:03:11Z</time>
      </trkpt>
      <trkpt lat="43.1950768456" lon="-4.3234084547">
        <ele>611.54</ele>
        <time>2018-05-19T19:03:18Z</time>
      </trkpt>
      <trkpt lat="43.1950194295" lon="-4.3233220372">
        <ele>612.98</ele>
        <time>2018-05-19T19:03:24Z</time>
      </trkpt>
      <trkpt lat="43.1949632708" lon="-4.3232316803">
        <ele>613.94</ele>
        <time>2018-05-19T19:03:30Z</time>
      </trkpt>
      <trkpt lat="43.1948980596" lon="-4.3231322709">
        <ele>614.42</ele>
        <time>2018-05-19T19:03:36Z</time>
      </trkpt>
      <trkpt lat="43.1948191021" lon="-4.3230362982">
        <ele>615.38</ele>
        <time>2018-05-19T19:03:42Z</time>
      </trkpt>
      <trkpt lat="43.1947471853" lon="-4.3229363021">
        <ele>616.34</ele>
        <time>2018-05-19T19:03:48Z</time>
      </trkpt>
      <trkpt lat="43.1946875900" lon="-4.3228477892">
        <ele>617.78</ele>
        <time>2018-05-19T19:03:54Z</time>
      </trkpt>
      <trkpt lat="43.1946196128" lon="-4.3227366451">
        <ele>619.23</ele>
        <time>2018-05-19T19:04:01Z</time>
      </trkpt>
      <trkpt lat="43.1945473608" lon="-4.3226309493">
        <ele>620.67</ele>
        <time>2018-05-19T19:04:08Z</time>
      </trkpt>
      <trkpt lat="43.1944860891" lon="-4.3225196376">
        <ele>622.11</ele>
        <time>2018-05-19T19:04:15Z</time>
      </trkpt>
      <trkpt lat="43.1944487058" lon="-4.3223959208">
        <ele>622.11</ele>
        <time>2018-05-19T19:04:21Z</time>
      </trkpt>
      <trkpt lat="43.1944059581" lon="-4.3222680967">
        <ele>623.55</ele>
        <time>2018-05-19T19:04:27Z</time>
      </trkpt>
      <trkpt lat="43.1943492964" lon="-4.3221642449">
        <ele>624.03</ele>
        <time>2018-05-19T19:04:33Z</time>
      </trkpt>
      <trkpt lat="43.1942783855" lon="-4.3220595550">
        <ele>625.47</ele>
        <time>2018-05-19T19:04:40Z</time>
      </trkpt>
      <trkpt lat="43.1942146830" lon="-4.3219703715">
        <ele>626.44</ele>
        <time>2018-05-19T19:04:46Z</time>
      </trkpt>
      <trkpt lat="43.1941391621" lon="-4.3218937609">
        <ele>627.40</ele>
        <time>2018-05-19T19:04:52Z</time>
      </trkpt>
      <trkpt lat="43.1940610427" lon="-4.3217989616">
        <ele>628.84</ele>
        <time>2018-05-19T19:04:59Z</time>
      </trkpt>
      <trkpt lat="43.1939937361" lon="-4.3217021506">
        <ele>629.80</ele>
        <time>2018-05-19T19:05:06Z</time>
      </trkpt>
      <trkpt lat="43.1939322129" lon="-4.3216163199">
        <ele>630.76</ele>
        <time>2018-05-19T19:05:12Z</time>
      </trkpt>
      <trkpt lat="43.1938719470" lon="-4.3215179164">
        <ele>632.20</ele>
        <time>2018-05-19T19:05:18Z</time>
      </trkpt>
      <trkpt lat="43.1938076578" lon="-4.3214062694">
        <ele>632.68</ele>
        <time>2018-05-19T19:05:25Z</time>
      </trkpt>
      <trkpt lat="43.1937617250" lon="-4.3212889228">
        <ele>633.17</ele>
        <time>2018-05-19T19:05:30Z</time>
      </trkpt>
      <trkpt lat="43.1937070750" lon="-4.3211909384">
        <ele>634.61</ele>
        <time>2018-05-19T19:05:35Z</time>
      </trkpt>
      <trkpt lat="43.1936387625" lon="-4.3210839853">
        <ele>635.57</ele>
        <time>2018-05-19T19:05:41Z</time>
      </trkpt>
      <trkpt lat="43.1935677677" lon="-4.3209872581">
        <ele>636.53</ele>
        <time>2018-05-19T19:05:47Z</time>
      </trkpt>
      <trkpt lat="43.1935066637" lon="-4.3208894413">
        <ele>637.49</ele>
        <time>2018-05-19T19:05:53Z</time>
      </trkpt>
      <trkpt lat="43.1934440508" lon="-4.3207911216">
        <ele>638.45</ele>
        <time>2018-05-19T19:05:59Z</time>
      </trkpt>
      <trkpt lat="43.1933773309" lon="-4.3206911255">
        <ele>639.41</ele>
        <time>2018-05-19T19:06:05Z</time>
      </trkpt>
      <trkpt lat="43.1933180708" lon="-4.3205778021">
        <ele>640.38</ele>
        <time>2018-05-19T19:06:12Z</time>
      </trkpt>
      <trkpt lat="43.1932573020" lon="-4.3204764649">
        <ele>640.86</ele>
        <time>2018-05-19T19:06:18Z</time>
      </trkpt>
      <trkpt lat="43.1931956951" lon="-4.3203582801">
        <ele>641.82</ele>
        <time>2018-05-19T19:06:24Z</time>
      </trkpt>
      <trkpt lat="43.1931454875" lon="-4.3202554341">
        <ele>642.78</ele>
        <time>2018-05-19T19:06:30Z</time>
      </trkpt>
      <trkpt lat="43.1930801924" lon="-4.3201468885">
        <ele>643.74</ele>
        <time>2018-05-19T19:06:37Z</time>
      </trkpt>
      <trkpt lat="43.1930119637" lon="-4.3200354930">
        <ele>645.66</ele>
        <time>2018-05-19T19:06:44Z</time>
      </trkpt>
      <trkpt lat="43.1929633487" lon="-4.3199122790">
        <ele>647.10</ele>
        <time>2018-05-19T19:06:51Z</time>
      </trkpt>
      <trkpt lat="43.1929372810" lon="-4.3197857961">
        <ele>647.59</ele>
        <time>2018-05-19T19:06:58Z</time>
      </trkpt>
      <trkpt lat="43.1929065194" lon="-4.3196707964">
        <ele>648.07</ele>
        <time>2018-05-19T19:07:04Z</time>
      </trkpt>
      <trkpt lat="43.1928644422" lon="-4.3195532821">
        <ele>649.03</ele>
        <time>2018-05-19T19:07:11Z</time>
      </trkpt>
      <trkpt lat="43.1928465050" lon="-4.3194209319">
        <ele>649.51</ele>
        <time>2018-05-19T19:07:17Z</time>
      </trkpt>
      <trkpt lat="43.1927953754" lon="-4.3193175830">
        <ele>650.95</ele>
        <time>2018-05-19T19:07:23Z</time>
      </trkpt>
      <trkpt lat="43.1927115563" lon="-4.3193114642">
        <ele>651.91</ele>
        <time>2018-05-19T19:07:30Z</time>
      </trkpt>
      <trkpt lat="43.1926658750" lon="-4.3194242846">
        <ele>653.35</ele>
        <time>2018-05-19T19:07:37Z</time>
      </trkpt>
      <trkpt lat="43.1926416513" lon="-4.3195660226">
        <ele>654.80</ele>
        <time>2018-05-19T19:07:43Z</time>
      </trkpt>
      <trkpt lat="43.1926200259" lon="-4.3196955230">
        <ele>655.76</ele>
        <time>2018-05-19T19:07:49Z</time>
      </trkpt>
      <trkpt lat="43.1926163379" lon="-4.3198279571">
        <ele>656.72</ele>
        <time>2018-05-19T19:07:55Z</time>
      </trkpt>
      <trkpt lat="43.1926220376" lon="-4.3199639115">
        <ele>658.16</ele>
        <time>2018-05-19T19:08:01Z</time>
      </trkpt>
      <trkpt lat="43.1926272344" lon="-4.3200979382">
        <ele>659.60</ele>
        <time>2018-05-19T19:08:07Z</time>
      </trkpt>
      <trkpt lat="43.1926346943" lon="-4.3202271871">
        <ele>660.08</ele>
        <time>2018-05-19T19:08:13Z</time>
      </trkpt>
      <trkpt lat="43.1926352810" lon="-4.3203616329">
        <ele>661.04</ele>
        <time>2018-05-19T19:08:19Z</time>
      </trkpt>
      <trkpt lat="43.1926478539" lon="-4.3204975873">
        <ele>662.49</ele>
        <time>2018-05-19T19:08:25Z</time>
      </trkpt>
      <trkpt lat="43.1926555652" lon="-4.3206159398">
        <ele>663.45</ele>
        <time>2018-05-19T19:08:30Z</time>
      </trkpt>
      <trkpt lat="43.1926701497" lon="-4.3207449373">
        <ele>664.41</ele>
        <time>2018-05-19T19:08:36Z</time>
      </trkpt>
      <trkpt lat="43.1926678866" lon="-4.3208834063">
        <ele>664.89</ele>
        <time>2018-05-19T19:08:42Z</time>
      </trkpt>
      <trkpt lat="43.1926629413" lon="-4.3210085481">
        <ele>665.85</ele>
        <time>2018-05-19T19:08:48Z</time>
      </trkpt>
      <trkpt lat="43.1926693954" lon="-4.3211444188">
        <ele>666.81</ele>
        <time>2018-05-19T19:08:54Z</time>
      </trkpt>
      <trkpt lat="43.1926714908" lon="-4.3212692253">
        <ele>668.25</ele>
        <time>2018-05-19T19:09:00Z</time>
      </trkpt>
      <trkpt lat="43.1926812977" lon="-4.3214094546">
        <ele>669.22</ele>
        <time>2018-05-19T19:09:07Z</time>
      </trkpt>
      <trkpt lat="43.1926877517" lon="-4.3215465825">
        <ele>670.18</ele>
        <time>2018-05-19T19:09:14Z</time>
      </trkpt>
      <trkpt lat="43.1926813815" lon="-4.3216856383">
        <ele>671.14</ele>
        <time>2018-05-19T19:09:21Z</time>
      </trkpt>
      <trkpt lat="43.1926797051" lon="-4.3218129594">
        <ele>672.58</ele>
        <time>2018-05-19T19:09:27Z</time>
      </trkpt>
      <trkpt lat="43.1926634442" lon="-4.3219609838">
        <ele>673.54</ele>
        <time>2018-05-19T19:09:34Z</time>
      </trkpt>
      <trkpt lat="43.1926428247" lon="-4.3220854551">
        <ele>674.50</ele>
        <time>2018-05-19T19:09:40Z</time>
      </trkpt>
      <trkpt lat="43.1926205289" lon="-4.3222198170">
        <ele>675.46</ele>
        <time>2018-05-19T19:09:47Z</time>
      </trkpt>
      <trkpt lat="43.1925950479" lon="-4.3223439530">
        <ele>676.91</ele>
        <time>2018-05-19T19:09:53Z</time>
      </trkpt>
      <trkpt lat="43.1925605144" lon="-4.3224845175">
        <ele>676.91</ele>
        <time>2018-05-19T19:10:00Z</time>
      </trkpt>
      <trkpt lat="43.1925357040" lon="-4.3226164486">
        <ele>677.87</ele>
        <time>2018-05-19T19:10:07Z</time>
      </trkpt>
      <trkpt lat="43.1925331894" lon="-4.3227374833">
        <ele>678.83</ele>
        <time>2018-05-19T19:10:13Z</time>
      </trkpt>
      <trkpt lat="43.1925204489" lon="-4.3228613678">
        <ele>679.79</ele>
        <time>2018-05-19T19:10:19Z</time>
      </trkpt>
      <trkpt lat="43.1924863346" lon="-4.3230028544">
        <ele>680.75</ele>
        <time>2018-05-19T19:10:26Z</time>
      </trkpt>
      <trkpt lat="43.1924674753" lon="-4.3231342826">
        <ele>681.23</ele>
        <time>2018-05-19T19:10:32Z</time>
      </trkpt>
      <trkpt lat="43.1924514659" lon="-4.3232567422">
        <ele>681.71</ele>
        <time>2018-05-19T19:10:38Z</time>
      </trkpt>
      <trkpt lat="43.1924714986" lon="-4.3233907688">
        <ele>683.15</ele>
        <time>2018-05-19T19:10:45Z</time>
      </trkpt>
      <trkpt lat="43.1925118156" lon="-4.3235218618">
        <ele>685.08</ele>
        <time>2018-05-19T19:10:52Z</time>
      </trkpt>
      <trkpt lat="43.1925383862" lon="-4.3236543797">
        <ele>686.04</ele>
        <time>2018-05-19T19:10:59Z</time>
      </trkpt>
      <trkpt lat="43.1925465167" lon="-4.3237853888">
        <ele>687.48</ele>
        <time>2018-05-19T19:11:05Z</time>
      </trkpt>
      <trkpt lat="43.1925495341" lon="-4.3239114527">
        <ele>687.96</ele>
        <time>2018-05-19T19:11:11Z</time>
      </trkpt>
      <trkpt lat="43.1925551500" lon="-4.3240385223">
        <ele>688.44</ele>
        <time>2018-05-19T19:11:16Z</time>
      </trkpt>
      <trkpt lat="43.1925607659" lon="-4.3241794221">
        <ele>689.40</ele>
        <time>2018-05-19T19:11:22Z</time>
      </trkpt>
      <trkpt lat="43.1925675552" lon="-4.3242995348">
        <ele>691.33</ele>
        <time>2018-05-19T19:11:28Z</time>
      </trkpt>
      <trkpt lat="43.1925736740" lon="-4.3244251795">
        <ele>691.81</ele>
        <time>2018-05-19T19:11:34Z</time>
      </trkpt>
      <trkpt lat="43.1925919466" lon="-4.3245569430">
        <ele>692.77</ele>
        <time>2018-05-19T19:11:40Z</time>
      </trkpt>
      <trkpt lat="43.1926109735" lon="-4.3247024529">
        <ele>693.73</ele>
        <time>2018-05-19T19:11:46Z</time>
      </trkpt>
      <trkpt lat="43.1926175114" lon="-4.3248386588">
        <ele>694.69</ele>
        <time>2018-05-19T19:11:52Z</time>
      </trkpt>
      <trkpt lat="43.1926289946" lon="-4.3249685783">
        <ele>695.65</ele>
        <time>2018-05-19T19:11:58Z</time>
      </trkpt>
      <trkpt lat="43.1926438306" lon="-4.3250943068">
        <ele>696.13</ele>
        <time>2018-05-19T19:12:03Z</time>
      </trkpt>
      <trkpt lat="43.1926397234" lon="-4.3252195325">
        <ele>696.61</ele>
        <time>2018-05-19T19:12:08Z</time>
      </trkpt>
      <trkpt lat="43.1926455069" lon="-4.3253698200">
        <ele>697.09</ele>
        <time>2018-05-19T19:12:14Z</time>
      </trkpt>
      <trkpt lat="43.1926574092" lon="-4.3254999071">
        <ele>698.05</ele>
        <time>2018-05-19T19:12:19Z</time>
      </trkpt>
      <trkpt lat="43.1926621869" lon="-4.3256379571">
        <ele>699.02</ele>
        <time>2018-05-19T19:12:25Z</time>
      </trkpt>
      <trkpt lat="43.1926600076" lon="-4.3257720675">
        <ele>699.98</ele>
        <time>2018-05-19T19:12:31Z</time>
      </trkpt>
      <trkpt lat="43.1926781125" lon="-4.3259060942">
        <ele>701.42</ele>
        <time>2018-05-19T19:12:37Z</time>
      </trkpt>
      <trkpt lat="43.1927026715" lon="-4.3260296434">
        <ele>703.34</ele>
        <time>2018-05-19T19:12:43Z</time>
      </trkpt>
      <trkpt lat="43.1926999055" lon="-4.3261470739">
        <ele>704.78</ele>
        <time>2018-05-19T19:12:49Z</time>
      </trkpt>
      <trkpt lat="43.1927087065" lon="-4.3262954336">
        <ele>706.71</ele>
        <time>2018-05-19T19:12:56Z</time>
      </trkpt>
      <trkpt lat="43.1927158311" lon="-4.3264226709">
        <ele>707.19</ele>
        <time>2018-05-19T19:13:03Z</time>
      </trkpt>
      <trkpt lat="43.1927470118" lon="-4.3265531771">
        <ele>707.67</ele>
        <time>2018-05-19T19:13:09Z</time>
      </trkpt>
      <trkpt lat="43.1928059366" lon="-4.3266627286">
        <ele>708.15</ele>
        <time>2018-05-19T19:13:15Z</time>
      </trkpt>
      <trkpt lat="43.1928775180" lon="-4.3267572764">
        <ele>708.63</ele>
        <time>2018-05-19T19:13:21Z</time>
      </trkpt>
      <trkpt lat="43.1929517817" lon="-4.3268316239">
        <ele>709.59</ele>
        <time>2018-05-19T19:13:27Z</time>
      </trkpt>
      <trkpt lat="43.1930133048" lon="-4.3269348051">
        <ele>711.03</ele>
        <time>2018-05-19T19:13:33Z</time>
      </trkpt>
      <trkpt lat="43.1930888258" lon="-4.3270111643">
        <ele>711.99</ele>
        <time>2018-05-19T19:13:39Z</time>
      </trkpt>
      <trkpt lat="43.1931614969" lon="-4.3271025270">
        <ele>712.95</ele>
        <time>2018-05-19T19:13:45Z</time>
      </trkpt>
      <trkpt lat="43.1932424661" lon="-4.3271961529">
        <ele>713.92</ele>
        <time>2018-05-19T19:13:52Z</time>
      </trkpt>
      <trkpt lat="43.1933206692" lon="-4.3272860907">
        <ele>715.84</ele>
        <time>2018-05-19T19:13:59Z</time>
      </trkpt>
      <trkpt lat="43.1933972798" lon="-4.3273620307">
        <ele>717.28</ele>
        <time>2018-05-19T19:14:05Z</time>
      </trkpt>
      <trkpt lat="43.1934743933" lon="-4.3274326902">
        <ele>718.24</ele>
        <time>2018-05-19T19:14:12Z</time>
      </trkpt>
      <trkpt lat="43.1935650855" lon="-4.3274958897">
        <ele>719.20</ele>
        <time>2018-05-19T19:14:19Z</time>
      </trkpt>
      <trkpt lat="43.1936671771" lon="-4.3275325187">
        <ele>719.68</ele>
        <time>2018-05-19T19:14:26Z</time>
      </trkpt>
      <trkpt lat="43.1937661674" lon="-4.3275440857">
        <ele>719.68</ele>
        <time>2018-05-19T19:14:32Z</time>
      </trkpt>
      <trkpt lat="43.1938769761" lon="-4.3275539763">
        <ele>719.68</ele>
        <time>2018-05-19T19:14:38Z</time>
      </trkpt>
      <trkpt lat="43.1939818338" lon="-4.3275577482">
        <ele>720.16</ele>
        <time>2018-05-19T19:14:43Z</time>
      </trkpt>
      <trkpt lat="43.1940837577" lon="-4.3276112247">
        <ele>721.61</ele>
        <time>2018-05-19T19:14:49Z</time>
      </trkpt>
      <trkpt lat="43.1941719353" lon="-4.3276577443">
        <ele>723.05</ele>
        <time>2018-05-19T19:14:55Z</time>
      </trkpt>
      <trkpt lat="43.1942557544" lon="-4.3277350254">
        <ele>724.01</ele>
        <time>2018-05-19T19:15:02Z</time>
      </trkpt>
      <trkpt lat="43.1943384837" lon="-4.3278098758">
        <ele>724.97</ele>
        <time>2018-05-19T19:15:09Z</time>
      </trkpt>
      <trkpt lat="43.1944241468" lon="-4.3278745841">
        <ele>725.45</ele>
        <time>2018-05-19T19:15:15Z</time>
      </trkpt>
      <trkpt lat="43.1945248134" lon="-4.3279458303">
        <ele>726.89</ele>
        <time>2018-05-19T19:15:22Z</time>
      </trkpt>
      <trkpt lat="43.1946068723" lon="-4.3279994745">
        <ele>727.86</ele>
        <time>2018-05-19T19:15:27Z</time>
      </trkpt>
      <trkpt lat="43.1946787890" lon="-4.3280845508">
        <ele>728.34</ele>
        <time>2018-05-19T19:15:32Z</time>
      </trkpt>
      <trkpt lat="43.1947686430" lon="-4.3281535339">
        <ele>729.30</ele>
        <time>2018-05-19T19:15:38Z</time>
      </trkpt>
      <trkpt lat="43.1948519591" lon="-4.3282512669">
        <ele>730.26</ele>
        <time>2018-05-19T19:15:45Z</time>
      </trkpt>
      <trkpt lat="43.1949304137" lon="-4.3283302244">
        <ele>731.22</ele>
        <time>2018-05-19T19:15:51Z</time>
      </trkpt>
      <trkpt lat="43.1950058509" lon="-4.3284253590">
        <ele>732.66</ele>
        <time>2018-05-19T19:15:58Z</time>
      </trkpt>
      <trkpt lat="43.1950802822" lon="-4.3285295460">
        <ele>734.10</ele>
        <time>2018-05-19T19:16:05Z</time>
      </trkpt>
      <trkpt lat="43.1951547135" lon="-4.3286232557">
        <ele>735.07</ele>
        <time>2018-05-19T19:16:12Z</time>
      </trkpt>
      <trkpt lat="43.1952365208" lon="-4.3287135288">
        <ele>736.03</ele>
        <time>2018-05-19T19:16:19Z</time>
      </trkpt>
      <trkpt lat="43.1953069288" lon="-4.3287911452">
        <ele>736.99</ele>
        <time>2018-05-19T19:16:24Z</time>
      </trkpt>
      <trkpt lat="43.1953821145" lon="-4.3288804125">
        <ele>737.95</ele>
        <time>2018-05-19T19:16:31Z</time>
      </trkpt>
      <trkpt lat="43.1954617426" lon="-4.3289681710">
        <ele>738.91</ele>
        <time>2018-05-19T19:16:38Z</time>
      </trkpt>
      <trkpt lat="43.1955369283" lon="-4.3290303648">
        <ele>739.87</ele>
        <time>2018-05-19T19:16:44Z</time>
      </trkpt>
      <trkpt lat="43.1956214178" lon="-4.3290951569">
        <ele>741.79</ele>
        <time>2018-05-19T19:16:51Z</time>
      </trkpt>
      <trkpt lat="43.1957065780" lon="-4.3291563448">
        <ele>742.76</ele>
        <time>2018-05-19T19:16:58Z</time>
      </trkpt>
      <trkpt lat="43.1957915705" lon="-4.3292280100">
        <ele>743.72</ele>
        <time>2018-05-19T19:17:05Z</time>
      </trkpt>
      <trkpt lat="43.1958713662" lon="-4.3292911258">
        <ele>744.20</ele>
        <time>2018-05-19T19:17:11Z</time>
      </trkpt>
      <trkpt lat="43.1959597953" lon="-4.3293365557">
        <ele>744.68</ele>
        <time>2018-05-19T19:17:17Z</time>
      </trkpt>
      <trkpt lat="43.1960439496" lon="-4.3293936364">
        <ele>745.64</ele>
        <time>2018-05-19T19:17:23Z</time>
      </trkpt>
      <trkpt lat="43.1961265951" lon="-4.3294530641">
        <ele>746.60</ele>
        <time>2018-05-19T19:17:29Z</time>
      </trkpt>
      <trkpt lat="43.1962184608" lon="-4.3295031041">
        <ele>747.56</ele>
        <time>2018-05-19T19:17:35Z</time>
      </trkpt>
      <trkpt lat="43.1963081472" lon="-4.3295311835">
        <ele>749.00</ele>
        <time>2018-05-19T19:17:41Z</time>
      </trkpt>
      <trkpt lat="43.1964016892" lon="-4.3295829836">
        <ele>749.97</ele>
        <time>2018-05-19T19:17:48Z</time>
      </trkpt>
      <trkpt lat="43.1964917108" lon="-4.3296497874">
        <ele>750.93</ele>
        <time>2018-05-19T19:17:55Z</time>
      </trkpt>
      <trkpt lat="43.1965808105" lon="-4.3296647910">
        <ele>751.89</ele>
        <time>2018-05-19T19:18:01Z</time>
      </trkpt>
      <trkpt lat="43.1966795493" lon="-4.3296954688">
        <ele>753.81</ele>
        <time>2018-05-19T19:18:08Z</time>
      </trkpt>
      <trkpt lat="43.1967770308" lon="-4.3297453411">
        <ele>754.77</ele>
        <time>2018-05-19T19:18:15Z</time>
      </trkpt>
      <trkpt lat="43.1968795415" lon="-4.3297737557">
        <ele>755.73</ele>
        <time>2018-05-19T19:18:22Z</time>
      </trkpt>
      <trkpt lat="43.1969818007" lon="-4.3297985662">
        <ele>756.69</ele>
        <time>2018-05-19T19:18:29Z</time>
      </trkpt>
      <trkpt lat="43.1970721576" lon="-4.3298265617">
        <ele>757.66</ele>
        <time>2018-05-19T19:18:35Z</time>
      </trkpt>
      <trkpt lat="43.1971787754" lon="-4.3298422359">
        <ele>758.62</ele>
        <time>2018-05-19T19:18:42Z</time>
      </trkpt>
      <trkpt lat="43.1972892489" lon="-4.3298712373">
        <ele>759.58</ele>
        <time>2018-05-19T19:18:49Z</time>
      </trkpt>
      <trkpt lat="43.1973941065" lon="-4.3298794515">
        <ele>761.50</ele>
        <time>2018-05-19T19:18:56Z</time>
      </trkpt>
      <trkpt lat="43.1974936835" lon="-4.3298681360">
        <ele>762.46</ele>
        <time>2018-05-19T19:19:03Z</time>
      </trkpt>
      <trkpt lat="43.1975852139" lon="-4.3298633583">
        <ele>763.90</ele>
        <time>2018-05-19T19:19:09Z</time>
      </trkpt>
      <trkpt lat="43.1976811867" lon="-4.3298501149">
        <ele>764.87</ele>
        <time>2018-05-19T19:19:16Z</time>
      </trkpt>
      <trkpt lat="43.1977846194" lon="-4.3298355304">
        <ele>765.83</ele>
        <time>2018-05-19T19:19:23Z</time>
      </trkpt>
      <trkpt lat="43.1978814304" lon="-4.3298069481">
        <ele>766.79</ele>
        <time>2018-05-19T19:19:29Z</time>
      </trkpt>
      <trkpt lat="43.1979697756" lon="-4.3297866639">
        <ele>768.23</ele>
        <time>2018-05-19T19:19:35Z</time>
      </trkpt>
      <trkpt lat="43.1980710290" lon="-4.3297714088">
        <ele>768.71</ele>
        <time>2018-05-19T19:19:42Z</time>
      </trkpt>
      <trkpt lat="43.1981593743" lon="-4.3297519628">
        <ele>769.67</ele>
        <time>2018-05-19T19:19:48Z</time>
      </trkpt>
      <trkpt lat="43.1982473843" lon="-4.3297178484">
        <ele>770.15</ele>
        <time>2018-05-19T19:19:54Z</time>
      </trkpt>
      <trkpt lat="43.1983421836" lon="-4.3296823930">
        <ele>771.11</ele>
        <time>2018-05-19T19:20:00Z</time>
      </trkpt>
      <trkpt lat="43.1984398328" lon="-4.3296558224">
        <ele>772.56</ele>
        <time>2018-05-19T19:20:07Z</time>
      </trkpt>
      <trkpt lat="43.1985387392" lon="-4.3296083808">
        <ele>773.52</ele>
        <time>2018-05-19T19:20:14Z</time>
      </trkpt>
      <trkpt lat="43.1986200437" lon="-4.3295487855">
        <ele>774.48</ele>
        <time>2018-05-19T19:20:20Z</time>
      </trkpt>
      <trkpt lat="43.1987029407" lon="-4.3294655532">
        <ele>775.44</ele>
        <time>2018-05-19T19:20:27Z</time>
      </trkpt>
      <trkpt lat="43.1987733487" lon="-4.3293825723">
        <ele>777.36</ele>
        <time>2018-05-19T19:20:33Z</time>
      </trkpt>
      <trkpt lat="43.1988394819" lon="-4.3292862643">
        <ele>777.84</ele>
        <time>2018-05-19T19:20:40Z</time>
      </trkpt>
      <trkpt lat="43.1989062019" lon="-4.3291867711">
        <ele>778.81</ele>
        <time>2018-05-19T19:20:47Z</time>
      </trkpt>
      <trkpt lat="43.1989678927" lon="-4.3290645629">
        <ele>780.25</ele>
        <time>2018-05-19T19:20:54Z</time>
      </trkpt>
      <trkpt lat="43.1990219560" lon="-4.3289556820">
        <ele>781.21</ele>
        <time>2018-05-19T19:21:00Z</time>
      </trkpt>
      <trkpt lat="43.1990770251" lon="-4.3288363237">
        <ele>782.17</ele>
        <time>2018-05-19T19:21:07Z</time>
      </trkpt>
      <trkpt lat="43.1991375424" lon="-4.3287078291">
        <ele>783.13</ele>
        <time>2018-05-19T19:21:14Z</time>
      </trkpt>
      <trkpt lat="43.1991869118" lon="-4.3285785802">
        <ele>783.61</ele>
        <time>2018-05-19T19:21:21Z</time>
      </trkpt>
      <trkpt lat="43.1992474291" lon="-4.3284597248">
        <ele>784.57</ele>
        <time>2018-05-19T19:21:27Z</time>
      </trkpt>
      <trkpt lat="43.1992972177" lon="-4.3283556215">
        <ele>785.05</ele>
        <time>2018-05-19T19:21:33Z</time>
      </trkpt>
      <trkpt lat="43.1993534602" lon="-4.3282358442">
        <ele>786.02</ele>
        <time>2018-05-19T19:21:39Z</time>
      </trkpt>
      <trkpt lat="43.1994002312" lon="-4.3281298969">
        <ele>786.98</ele>
        <time>2018-05-19T19:21:44Z</time>
      </trkpt>
      <trkpt lat="43.1994568091" lon="-4.3280027434">
        <ele>788.42</ele>
        <time>2018-05-19T19:21:50Z</time>
      </trkpt>
      <trkpt lat="43.1995092798" lon="-4.3278900068">
        <ele>788.90</ele>
        <time>2018-05-19T19:21:55Z</time>
      </trkpt>
      <trkpt lat="43.1995680369" lon="-4.3277541362">
        <ele>788.90</ele>
        <time>2018-05-19T19:22:00Z</time>
      </trkpt>
      <trkpt lat="43.1996197533" lon="-4.3276383821">
        <ele>789.86</ele>
        <time>2018-05-19T19:22:05Z</time>
      </trkpt>
      <trkpt lat="43.1996821146" lon="-4.3275382183">
        <ele>790.34</ele>
        <time>2018-05-19T19:22:10Z</time>
      </trkpt>
      <trkpt lat="43.1997468229" lon="-4.3274373841">
        <ele>791.30</ele>
        <time>2018-05-19T19:22:15Z</time>
      </trkpt>
      <trkpt lat="43.1998124532" lon="-4.3273205403">
        <ele>791.78</ele>
        <time>2018-05-19T19:22:20Z</time>
      </trkpt>
      <trkpt lat="43.1998824421" lon="-4.3272350449">
        <ele>792.26</ele>
        <time>2018-05-19T19:22:24Z</time>
      </trkpt>
      <trkpt lat="43.1999605615" lon="-4.3271517288">
        <ele>792.74</ele>
        <time>2018-05-19T19:22:28Z</time>
      </trkpt>
      <trkpt lat="43.2000470627" lon="-4.3270943128">
        <ele>793.22</ele>
        <time>2018-05-19T19:22:32Z</time>
      </trkpt>
      <trkpt lat="43.2001520880" lon="-4.3270668201">
        <ele>793.71</ele>
        <time>2018-05-19T19:22:37Z</time>
      </trkpt>
      <trkpt lat="43.2002477255" lon="-4.3270545825">
        <ele>793.71</ele>
        <time>2018-05-19T19:22:41Z</time>
      </trkpt>
      <trkpt lat="43.2003397588" lon="-4.3270581868">
        <ele>793.71</ele>
        <time>2018-05-19T19:22:45Z</time>
      </trkpt>
      <trkpt lat="43.2004377432" lon="-4.3270918820">
        <ele>794.19</ele>
        <time>2018-05-19T19:22:49Z</time>
      </trkpt>
      <trkpt lat="43.2005332131" lon="-4.3271477055">
        <ele>794.67</ele>
        <time>2018-05-19T19:22:53Z</time>
      </trkpt>
      <trkpt lat="43.2006177865" lon="-4.3272072170">
        <ele>794.67</ele>
        <time>2018-05-19T19:22:57Z</time>
      </trkpt>
      <trkpt lat="43.2007135078" lon="-4.3272584304">
        <ele>795.15</ele>
        <time>2018-05-19T19:23:01Z</time>
      </trkpt>
      <trkpt lat="43.2007944770" lon="-4.3273160141">
        <ele>795.63</ele>
        <time>2018-05-19T19:23:05Z</time>
      </trkpt>
      <trkpt lat="43.2008803077" lon="-4.3274066225">
        <ele>796.59</ele>
        <time>2018-05-19T19:23:10Z</time>
      </trkpt>
      <trkpt lat="43.2009498775" lon="-4.3275041878">
        <ele>797.07</ele>
        <time>2018-05-19T19:23:15Z</time>
      </trkpt>
      <trkpt lat="43.2010355406" lon="-4.3275983166">
        <ele>797.55</ele>
        <time>2018-05-19T19:23:20Z</time>
      </trkpt>
      <trkpt lat="43.2011166774" lon="-4.3276992347">
        <ele>798.03</ele>
        <time>2018-05-19T19:23:25Z</time>
      </trkpt>
      <trkpt lat="43.2011902705" lon="-4.3277892563">
        <ele>798.99</ele>
        <time>2018-05-19T19:23:30Z</time>
      </trkpt>
      <trkpt lat="43.2012636121" lon="-4.3278753385">
        <ele>799.47</ele>
        <time>2018-05-19T19:23:35Z</time>
      </trkpt>
      <trkpt lat="43.2013348583" lon="-4.3279531226">
        <ele>800.44</ele>
        <time>2018-05-19T19:23:40Z</time>
      </trkpt>
      <trkpt lat="43.2014163304" lon="-4.3280565552">
        <ele>801.88</ele>
        <time>2018-05-19T19:23:46Z</time>
      </trkpt>
      <trkpt lat="43.2014856488" lon="-4.3281488400">
        <ele>802.36</ele>
        <time>2018-05-19T19:23:50Z</time>
      </trkpt>
      <trkpt lat="43.2015583199" lon="-4.3282329943">
        <ele>802.84</ele>
        <time>2018-05-19T19:23:54Z</time>
      </trkpt>
      <trkpt lat="43.2016428933" lon="-4.3283146340">
        <ele>803.80</ele>
        <time>2018-05-19T19:23:59Z</time>
      </trkpt>
      <trkpt lat="43.2017115410" lon="-4.3284066673">
        <ele>805.72</ele>
        <time>2018-05-19T19:24:05Z</time>
      </trkpt>
      <trkpt lat="43.2017781772" lon="-4.3285090942">
        <ele>807.16</ele>
        <time>2018-05-19T19:24:11Z</time>
      </trkpt>
      <trkpt lat="43.2018453162" lon="-4.3286030553">
        <ele>808.61</ele>
        <time>2018-05-19T19:24:17Z</time>
      </trkpt>
      <trkpt lat="43.2019367628" lon="-4.3286486529">
        <ele>809.09</ele>
        <time>2018-05-19T19:24:23Z</time>
      </trkpt>
      <trkpt lat="43.2020427939" lon="-4.3286645785">
        <ele>810.53</ele>
        <time>2018-05-19T19:24:29Z</time>
      </trkpt>
      <trkpt lat="43.2021438796" lon="-4.3286796659">
        <ele>811.01</ele>
        <time>2018-05-19T19:24:34Z</time>
      </trkpt>
      <trkpt lat="43.2022449654" lon="-4.3287188932">
        <ele>811.01</ele>
        <time>2018-05-19T19:24:38Z</time>
      </trkpt>
      <trkpt lat="43.2023378368" lon="-4.3287746329">
        <ele>811.97</ele>
        <time>2018-05-19T19:24:43Z</time>
      </trkpt>
      <trkpt lat="43.2024286129" lon="-4.3288338091">
        <ele>812.93</ele>
        <time>2018-05-19T19:24:48Z</time>
      </trkpt>
      <trkpt lat="43.2025160361" lon="-4.3288955837">
        <ele>813.41</ele>
        <time>2018-05-19T19:24:53Z</time>
      </trkpt>
      <trkpt lat="43.2026134338" lon="-4.3289730325">
        <ele>813.89</ele>
        <time>2018-05-19T19:24:58Z</time>
      </trkpt>
      <trkpt lat="43.2027084008" lon="-4.3290377408">
        <ele>813.89</ele>
        <time>2018-05-19T19:25:02Z</time>
      </trkpt>
      <trkpt lat="43.2027949020" lon="-4.3290980905">
        <ele>813.89</ele>
        <time>2018-05-19T19:25:06Z</time>
      </trkpt>
      <trkpt lat="43.2028803136" lon="-4.3291633017">
        <ele>813.89</ele>
        <time>2018-05-19T19:25:10Z</time>
      </trkpt>
      <trkpt lat="43.2029840816" lon="-4.3292473722">
        <ele>813.89</ele>
        <time>2018-05-19T19:25:14Z</time>
      </trkpt>
      <trkpt lat="43.2030708343" lon="-4.3293294311">
        <ele>813.89</ele>
        <time>2018-05-19T19:25:17Z</time>
      </trkpt>
      <trkpt lat="43.2031562459" lon="-4.3294190336">
        <ele>812.45</ele>
        <time>2018-05-19T19:25:20Z</time>
      </trkpt>
      <trkpt lat="43.2032416575" lon="-4.3294981588">
        <ele>812.45</ele>
        <time>2018-05-19T19:25:23Z</time>
      </trkpt>
      <trkpt lat="43.2033287454" lon="-4.3295624480">
        <ele>811.97</ele>
        <time>2018-05-19T19:25:26Z</time>
      </trkpt>
      <trkpt lat="43.2034144923" lon="-4.3296367116">
        <ele>811.97</ele>
        <time>2018-05-19T19:25:29Z</time>
      </trkpt>
      <trkpt lat="43.2035125606" lon="-4.3297225423">
        <ele>811.97</ele>
        <time>2018-05-19T19:25:33Z</time>
      </trkpt>
      <trkpt lat="43.2035959605" lon="-4.3297979794">
        <ele>811.97</ele>
        <time>2018-05-19T19:25:36Z</time>
      </trkpt>
      <trkpt lat="43.2036905922" lon="-4.3298761826">
        <ele>811.97</ele>
        <time>2018-05-19T19:25:39Z</time>
      </trkpt>
      <trkpt lat="43.2037798595" lon="-4.3299570680">
        <ele>811.97</ele>
        <time>2018-05-19T19:25:42Z</time>
      </trkpt>
      <trkpt lat="43.2038735691" lon="-4.3300440721">
        <ele>811.97</ele>
        <time>2018-05-19T19:25:45Z</time>
      </trkpt>
      <trkpt lat="43.2039753255" lon="-4.3301342614">
        <ele>811.97</ele>
        <time>2018-05-19T19:25:48Z</time>
      </trkpt>
      <trkpt lat="43.2040689513" lon="-4.3302205950">
        <ele>811.49</ele>
        <time>2018-05-19T19:25:51Z</time>
      </trkpt>
      <trkpt lat="43.2041805144" lon="-4.3303135503">
        <ele>811.01</ele>
        <time>2018-05-19T19:25:54Z</time>
      </trkpt>
      <trkpt lat="43.2042624895" lon="-4.3303768337">
        <ele>811.01</ele>
        <time>2018-05-19T19:25:56Z</time>
      </trkpt>
      <trkpt lat="43.2043847814" lon="-4.3304618262">
        <ele>811.01</ele>
        <time>2018-05-19T19:25:59Z</time>
      </trkpt>
      <trkpt lat="43.2044825144" lon="-4.3305332400">
        <ele>811.01</ele>
        <time>2018-05-19T19:26:02Z</time>
      </trkpt>
      <trkpt lat="43.2045896351" lon="-4.3305954337">
        <ele>811.01</ele>
        <time>2018-05-19T19:26:05Z</time>
      </trkpt>
      <trkpt lat="43.2047032099" lon="-4.3306612317">
        <ele>811.01</ele>
        <time>2018-05-19T19:26:08Z</time>
      </trkpt>
      <trkpt lat="43.2048051339" lon="-4.3307210784">
        <ele>811.01</ele>
        <time>2018-05-19T19:26:11Z</time>
      </trkpt>
      <trkpt lat="43.2049149368" lon="-4.3307863735">
        <ele>811.01</ele>
        <time>2018-05-19T19:26:14Z</time>
      </trkpt>
      <trkpt lat="43.2050268352" lon="-4.3308381736">
        <ele>811.01</ele>
        <time>2018-05-19T19:26:17Z</time>
      </trkpt>
      <trkpt lat="43.2051479537" lon="-4.3308845256">
        <ele>811.01</ele>
        <time>2018-05-19T19:26:20Z</time>
      </trkpt>
      <trkpt lat="43.2052743528" lon="-4.3309268542">
        <ele>811.01</ele>
        <time>2018-05-19T19:26:23Z</time>
      </trkpt>
      <trkpt lat="43.2053933758" lon="-4.3309564423">
        <ele>811.01</ele>
        <time>2018-05-19T19:26:26Z</time>
      </trkpt>
      <trkpt lat="43.2055087108" lon="-4.3309803307">
        <ele>812.45</ele>
        <time>2018-05-19T19:26:29Z</time>
      </trkpt>
      <trkpt lat="43.2056284882" lon="-4.3309947476">
        <ele>812.45</ele>
        <time>2018-05-19T19:26:32Z</time>
      </trkpt>
      <trkpt lat="43.2057457510" lon="-4.3309947476">
        <ele>812.45</ele>
        <time>2018-05-19T19:26:35Z</time>
      </trkpt>
      <trkpt lat="43.2058409695" lon="-4.3309757207">
        <ele>812.45</ele>
        <time>2018-05-19T19:26:37Z</time>
      </trkpt>
      <trkpt lat="43.2059553824" lon="-4.3309418578">
        <ele>812.45</ele>
        <time>2018-05-19T19:26:40Z</time>
      </trkpt>
      <trkpt lat="43.2060588989" lon="-4.3309086654">
        <ele>812.45</ele>
        <time>2018-05-19T19:26:43Z</time>
      </trkpt>
      <trkpt lat="43.2061606552" lon="-4.3308421969">
        <ele>812.45</ele>
        <time>2018-05-19T19:26:46Z</time>
      </trkpt>
      <trkpt lat="43.2062604837" lon="-4.3307846971">
        <ele>812.45</ele>
        <time>2018-05-19T19:26:49Z</time>
      </trkpt>
      <trkpt lat="43.2063848712" lon="-4.3307471462">
        <ele>812.45</ele>
        <time>2018-05-19T19:26:52Z</time>
      </trkpt>
      <trkpt lat="43.2064758986" lon="-4.3307188153">
        <ele>812.93</ele>
        <time>2018-05-19T19:26:55Z</time>
      </trkpt>
      <trkpt lat="43.2065735478" lon="-4.3306909036">
        <ele>814.37</ele>
        <time>2018-05-19T19:27:00Z</time>
      </trkpt>
      <trkpt lat="43.2066763937" lon="-4.3306499999">
        <ele>816.30</ele>
        <time>2018-05-19T19:27:06Z</time>
      </trkpt>
      <trkpt lat="43.2067733724" lon="-4.3306091800">
        <ele>818.22</ele>
        <time>2018-05-19T19:27:13Z</time>
      </trkpt>
      <trkpt lat="43.2068648189" lon="-4.3305596430">
        <ele>819.66</ele>
        <time>2018-05-19T19:27:19Z</time>
      </trkpt>
      <trkpt lat="43.2069498114" lon="-4.3304959405">
        <ele>820.14</ele>
        <time>2018-05-19T19:27:25Z</time>
      </trkpt>
      <trkpt lat="43.2070338819" lon="-4.3304244429">
        <ele>821.10</ele>
        <time>2018-05-19T19:27:31Z</time>
      </trkpt>
      <trkpt lat="43.2071093190" lon="-4.3303374387">
        <ele>823.03</ele>
        <time>2018-05-19T19:27:37Z</time>
      </trkpt>
      <trkpt lat="43.2071783021" lon="-4.3302314077">
        <ele>824.95</ele>
        <time>2018-05-19T19:27:44Z</time>
      </trkpt>
      <trkpt lat="43.2072468661" lon="-4.3301384524">
        <ele>825.91</ele>
        <time>2018-05-19T19:27:50Z</time>
      </trkpt>
      <trkpt lat="43.2073215488" lon="-4.3300473411">
        <ele>827.35</ele>
        <time>2018-05-19T19:27:56Z</time>
      </trkpt>
      <trkpt lat="43.2074140012" lon="-4.3299928587">
        <ele>828.79</ele>
        <time>2018-05-19T19:28:03Z</time>
      </trkpt>
      <trkpt lat="43.2075103093" lon="-4.3299647793">
        <ele>829.76</ele>
        <time>2018-05-19T19:28:09Z</time>
      </trkpt>
      <trkpt lat="43.2076062821" lon="-4.3299889192">
        <ele>831.20</ele>
        <time>2018-05-19T19:28:15Z</time>
      </trkpt>
      <trkpt lat="43.2077028416" lon="-4.3300353549">
        <ele>832.16</ele>
        <time>2018-05-19T19:28:21Z</time>
      </trkpt>
      <trkpt lat="43.2077916060" lon="-4.3301176652">
        <ele>833.12</ele>
        <time>2018-05-19T19:28:27Z</time>
      </trkpt>
      <trkpt lat="43.2078591641" lon="-4.3301998917">
        <ele>834.08</ele>
        <time>2018-05-19T19:28:33Z</time>
      </trkpt>
      <trkpt lat="43.2079195976" lon="-4.3303182442">
        <ele>834.56</ele>
        <time>2018-05-19T19:28:39Z</time>
      </trkpt>
      <trkpt lat="43.2079673745" lon="-4.3304316513">
        <ele>835.52</ele>
        <time>2018-05-19T19:28:44Z</time>
      </trkpt>
      <trkpt lat="43.2080250420" lon="-4.3305473216">
        <ele>836.96</ele>
        <time>2018-05-19T19:28:50Z</time>
      </trkpt>
      <trkpt lat="43.2080956176" lon="-4.3306528497">
        <ele>838.89</ele>
        <time>2018-05-19T19:28:56Z</time>
      </trkpt>
      <trkpt lat="43.2081566378" lon="-4.3307491578">
        <ele>839.37</ele>
        <time>2018-05-19T19:29:01Z</time>
      </trkpt>
      <trkpt lat="43.2082133833" lon="-4.3308469746">
        <ele>839.85</ele>
        <time>2018-05-19T19:29:06Z</time>
      </trkpt>
      <trkpt lat="43.2082816120" lon="-4.3309633993">
        <ele>840.81</ele>
        <time>2018-05-19T19:29:12Z</time>
      </trkpt>
      <trkpt lat="43.2083443087" lon="-4.3310818356">
        <ele>842.25</ele>
        <time>2018-05-19T19:29:18Z</time>
      </trkpt>
      <trkpt lat="43.2084053289" lon="-4.3311975058">
        <ele>843.21</ele>
        <time>2018-05-19T19:29:23Z</time>
      </trkpt>
      <trkpt lat="43.2084791735" lon="-4.3313195463">
        <ele>843.21</ele>
        <time>2018-05-19T19:29:27Z</time>
      </trkpt>
      <trkpt lat="43.2085371763" lon="-4.3314342946">
        <ele>843.21</ele>
        <time>2018-05-19T19:29:31Z</time>
      </trkpt>
      <trkpt lat="43.2085841149" lon="-4.3315746076">
        <ele>843.69</ele>
        <time>2018-05-19T19:29:35Z</time>
      </trkpt>
      <trkpt lat="43.2086367533" lon="-4.3317068741">
        <ele>844.18</ele>
        <time>2018-05-19T19:29:39Z</time>
      </trkpt>
      <trkpt lat="43.2086950913" lon="-4.3318404816">
        <ele>844.66</ele>
        <time>2018-05-19T19:29:43Z</time>
      </trkpt>
      <trkpt lat="43.2087499090" lon="-4.3319847342">
        <ele>845.14</ele>
        <time>2018-05-19T19:29:47Z</time>
      </trkpt>
      <trkpt lat="43.2088110130" lon="-4.3321348540">
        <ele>845.62</ele>
        <time>2018-05-19T19:29:51Z</time>
      </trkpt>
      <trkpt lat="43.2088660821" lon="-4.3322561402">
        <ele>845.62</ele>
        <time>2018-05-19T19:29:54Z</time>
      </trkpt>
      <trkpt lat="43.2089245878" lon="-4.3323787674">
        <ele>846.10</ele>
        <time>2018-05-19T19:29:57Z</time>
      </trkpt>
      <trkpt lat="43.2089769747" lon="-4.3325106148">
        <ele>846.58</ele>
        <time>2018-05-19T19:30:00Z</time>
      </trkpt>
      <trkpt lat="43.2090270985" lon="-4.3326414563">
        <ele>846.58</ele>
        <time>2018-05-19T19:30:03Z</time>
      </trkpt>
      <trkpt lat="43.2090762164" lon="-4.3327837810">
        <ele>846.58</ele>
        <time>2018-05-19T19:30:06Z</time>
      </trkpt>
      <trkpt lat="43.2091259211" lon="-4.3329196516">
        <ele>846.58</ele>
        <time>2018-05-19T19:30:09Z</time>
      </trkpt>
      <trkpt lat="43.2091733627" lon="-4.3330700230">
        <ele>847.06</ele>
        <time>2018-05-19T19:30:12Z</time>
      </trkpt>
      <trkpt lat="43.2092206366" lon="-4.3332295306">
        <ele>847.06</ele>
        <time>2018-05-19T19:30:15Z</time>
      </trkpt>
      <trkpt lat="43.2092584390" lon="-4.3333759625">
        <ele>847.06</ele>
        <time>2018-05-19T19:30:18Z</time>
      </trkpt>
      <trkpt lat="43.2092976663" lon="-4.3335435167">
        <ele>847.06</ele>
        <time>2018-05-19T19:30:21Z</time>
      </trkpt>
      <trkpt lat="43.2093346305" lon="-4.3337152619">
        <ele>847.06</ele>
        <time>2018-05-19T19:30:24Z</time>
      </trkpt>
      <trkpt lat="43.2093715109" lon="-4.3338672258">
        <ele>847.06</ele>
        <time>2018-05-19T19:30:27Z</time>
      </trkpt>
      <trkpt lat="43.2093956508" lon="-4.3339871708">
        <ele>845.62</ele>
        <time>2018-05-19T19:30:29Z</time>
      </trkpt>
      <trkpt lat="43.2093769591" lon="-4.3341578264">
        <ele>845.14</ele>
        <time>2018-05-19T19:30:32Z</time>
      </trkpt>
      <trkpt lat="43.2093262486" lon="-4.3342682999">
        <ele>847.06</ele>
        <time>2018-05-19T19:30:35Z</time>
      </trkpt>
      <trkpt lat="43.2092611212" lon="-4.3343562260">
        <ele>847.54</ele>
        <time>2018-05-19T19:30:38Z</time>
      </trkpt>
      <trkpt lat="43.2091747876" lon="-4.3344534561">
        <ele>848.98</ele>
        <time>2018-05-19T19:30:42Z</time>
      </trkpt>
      <trkpt lat="43.2090908848" lon="-4.3345318269">
        <ele>850.42</ele>
        <time>2018-05-19T19:30:46Z</time>
      </trkpt>
      <trkpt lat="43.2090008631" lon="-4.3346205074">
        <ele>850.90</ele>
        <time>2018-05-19T19:30:50Z</time>
      </trkpt>
      <trkpt lat="43.2089338917" lon="-4.3347109482">
        <ele>851.38</ele>
        <time>2018-05-19T19:30:53Z</time>
      </trkpt>
      <trkpt lat="43.2088487316" lon="-4.3348187394">
        <ele>851.38</ele>
        <time>2018-05-19T19:30:57Z</time>
      </trkpt>
      <trkpt lat="43.2087636553" lon="-4.3349309731">
        <ele>851.38</ele>
        <time>2018-05-19T19:31:01Z</time>
      </trkpt>
      <trkpt lat="43.2086877991" lon="-4.3350447156">
        <ele>849.94</ele>
        <time>2018-05-19T19:31:04Z</time>
      </trkpt>
      <trkpt lat="43.2086150441" lon="-4.3351647444">
        <ele>848.98</ele>
        <time>2018-05-19T19:31:07Z</time>
      </trkpt>
      <trkpt lat="43.2085432950" lon="-4.3352868687">
        <ele>848.02</ele>
        <time>2018-05-19T19:31:10Z</time>
      </trkpt>
      <trkpt lat="43.2084586378" lon="-4.3353955820">
        <ele>846.58</ele>
        <time>2018-05-19T19:31:13Z</time>
      </trkpt>
      <trkpt lat="43.2083842065" lon="-4.3354934826">
        <ele>845.62</ele>
        <time>2018-05-19T19:31:16Z</time>
      </trkpt>
      <trkpt lat="43.2083186600" lon="-4.3355710991">
        <ele>844.66</ele>
        <time>2018-05-19T19:31:27Z</time>
      </trkpt>
      <trkpt lat="43.2083354238" lon="-4.3355631363">
        <ele>844.66</ele>
        <time>2018-05-19T19:34:23Z</time>
      </trkpt>
      <trkpt lat="43.2084119506" lon="-4.3355966639">
        <ele>844.18</ele>
        <time>2018-05-19T19:34:42Z</time>
      </trkpt>
      <trkpt lat="43.2085118629" lon="-4.3355855998">
        <ele>843.21</ele>
        <time>2018-05-19T19:34:49Z</time>
      </trkpt>
      <trkpt lat="43.2086347416" lon="-4.3355813250">
        <ele>841.29</ele>
        <time>2018-05-19T19:34:52Z</time>
      </trkpt>
      <trkpt lat="43.2087380067" lon="-4.3355820794">
        <ele>839.85</ele>
        <time>2018-05-19T19:34:54Z</time>
      </trkpt>
      <trkpt lat="43.2088488154" lon="-4.3355810735">
        <ele>837.93</ele>
        <time>2018-05-19T19:34:56Z</time>
      </trkpt>
      <trkpt lat="43.2089664135" lon="-4.3355850130">
        <ele>836.48</ele>
        <time>2018-05-19T19:34:58Z</time>
      </trkpt>
      <trkpt lat="43.2090668287" lon="-4.3355881143">
        <ele>835.04</ele>
        <time>2018-05-19T19:35:00Z</time>
      </trkpt>
      <trkpt lat="43.2091893721" lon="-4.3355944846">
        <ele>833.60</ele>
        <time>2018-05-19T19:35:02Z</time>
      </trkpt>
      <trkpt lat="43.2093089819" lon="-4.3355973344">
        <ele>831.68</ele>
        <time>2018-05-19T19:35:04Z</time>
      </trkpt>
      <trkpt lat="43.2094331179" lon="-4.3355964962">
        <ele>830.72</ele>
        <time>2018-05-19T19:35:06Z</time>
      </trkpt>
      <trkpt lat="43.2095567510" lon="-4.3355855998">
        <ele>828.79</ele>
        <time>2018-05-19T19:35:08Z</time>
      </trkpt>
      <trkpt lat="43.2096793782" lon="-4.3355648965">
        <ele>826.87</ele>
        <time>2018-05-19T19:35:10Z</time>
      </trkpt>
      <trkpt lat="43.2098055258" lon="-4.3355442770">
        <ele>825.43</ele>
        <time>2018-05-19T19:35:12Z</time>
      </trkpt>
      <trkpt lat="43.2099381275" lon="-4.3355511501">
        <ele>823.51</ele>
        <time>2018-05-19T19:35:14Z</time>
      </trkpt>
      <trkpt lat="43.2100859843" lon="-4.3356280960">
        <ele>821.58</ele>
        <time>2018-05-19T19:35:16Z</time>
      </trkpt>
      <trkpt lat="43.2101890817" lon="-4.3357395753">
        <ele>820.62</ele>
        <time>2018-05-19T19:35:18Z</time>
      </trkpt>
      <trkpt lat="43.2102954481" lon="-4.3358829059">
        <ele>818.70</ele>
        <time>2018-05-19T19:35:20Z</time>
      </trkpt>
      <trkpt lat="43.2104013115" lon="-4.3360740971">
        <ele>817.26</ele>
        <time>2018-05-19T19:35:22Z</time>
      </trkpt>
      <trkpt lat="43.2104871422" lon="-4.3362636119">
        <ele>816.78</ele>
        <time>2018-05-19T19:35:24Z</time>
      </trkpt>
      <trkpt lat="43.2105792593" lon="-4.3364417274">
        <ele>819.18</ele>
        <time>2018-05-19T19:35:26Z</time>
      </trkpt>
      <trkpt lat="43.2106593903" lon="-4.3365253787">
        <ele>818.70</ele>
        <time>2018-05-19T19:35:28Z</time>
      </trkpt>
      <trkpt lat="43.2107662596" lon="-4.3365885783">
        <ele>819.18</ele>
        <time>2018-05-19T19:35:30Z</time>
      </trkpt>
      <trkpt lat="43.2108681835" lon="-4.3366240337">
        <ele>819.18</ele>
        <time>2018-05-19T19:35:32Z</time>
      </trkpt>
      <trkpt lat="43.2109844405" lon="-4.3366556335">
        <ele>820.14</ele>
        <time>2018-05-19T19:35:34Z</time>
      </trkpt>
      <trkpt lat="43.2111176290" lon="-4.3366967048">
        <ele>820.62</ele>
        <time>2018-05-19T19:35:37Z</time>
      </trkpt>
      <trkpt lat="43.2112080697" lon="-4.3367245328">
        <ele>821.10</ele>
        <time>2018-05-19T19:35:39Z</time>
      </trkpt>
      <trkpt lat="43.2112933975" lon="-4.3367465772">
        <ele>822.06</ele>
        <time>2018-05-19T19:35:41Z</time>
      </trkpt>
      <trkpt lat="43.2113889512" lon="-4.3367629219">
        <ele>822.55</ele>
        <time>2018-05-19T19:35:43Z</time>
      </trkpt>
      <trkpt lat="43.2115068845" lon="-4.3367759977">
        <ele>823.03</ele>
        <time>2018-05-19T19:35:46Z</time>
      </trkpt>
      <trkpt lat="43.2116243150" lon="-4.3367929291">
        <ele>823.51</ele>
        <time>2018-05-19T19:35:49Z</time>
      </trkpt>
      <trkpt lat="43.2117400691" lon="-4.3368214276">
        <ele>824.47</ele>
        <time>2018-05-19T19:35:52Z</time>
      </trkpt>
      <trkpt lat="43.2118516322" lon="-4.3368479144">
        <ele>824.47</ele>
        <time>2018-05-19T19:35:55Z</time>
      </trkpt>
      <trkpt lat="43.2119652908" lon="-4.3368942663">
        <ele>824.95</ele>
        <time>2018-05-19T19:35:58Z</time>
      </trkpt>
      <trkpt lat="43.2120641973" lon="-4.3369624112">
        <ele>825.91</ele>
        <time>2018-05-19T19:36:01Z</time>
      </trkpt>
      <trkpt lat="43.2121496089" lon="-4.3370660115">
        <ele>827.35</ele>
        <time>2018-05-19T19:36:05Z</time>
      </trkpt>
      <trkpt lat="43.2122106291" lon="-4.3371781614">
        <ele>828.31</ele>
        <time>2018-05-19T19:36:09Z</time>
      </trkpt>
      <trkpt lat="43.2122762594" lon="-4.3372916523">
        <ele>830.24</ele>
        <time>2018-05-19T19:36:14Z</time>
      </trkpt>
      <trkpt lat="43.2123437338" lon="-4.3373877928">
        <ele>831.68</ele>
        <time>2018-05-19T19:36:19Z</time>
      </trkpt>
      <trkpt lat="43.2124157343" lon="-4.3374686781">
        <ele>832.64</ele>
        <time>2018-05-19T19:36:24Z</time>
      </trkpt>
      <trkpt lat="43.2124895789" lon="-4.3375364877">
        <ele>833.60</ele>
        <time>2018-05-19T19:36:29Z</time>
      </trkpt>
      <trkpt lat="43.2125676144" lon="-4.3375991844">
        <ele>834.56</ele>
        <time>2018-05-19T19:36:34Z</time>
      </trkpt>
      <trkpt lat="43.2126645092" lon="-4.3376592826">
        <ele>836.00</ele>
        <time>2018-05-19T19:36:40Z</time>
      </trkpt>
      <trkpt lat="43.2127552852" lon="-4.3377016112">
        <ele>837.45</ele>
        <time>2018-05-19T19:36:45Z</time>
      </trkpt>
      <trkpt lat="43.2128399424" lon="-4.3377206381">
        <ele>837.93</ele>
        <time>2018-05-19T19:36:50Z</time>
      </trkpt>
      <trkpt lat="43.2129339036" lon="-4.3377225660">
        <ele>839.37</ele>
        <time>2018-05-19T19:36:55Z</time>
      </trkpt>
      <trkpt lat="43.2130306307" lon="-4.3377205543">
        <ele>839.85</ele>
        <time>2018-05-19T19:37:00Z</time>
      </trkpt>
      <trkpt lat="43.2131329738" lon="-4.3377470411">
        <ele>840.33</ele>
        <time>2018-05-19T19:37:05Z</time>
      </trkpt>
      <trkpt lat="43.2132283598" lon="-4.3377912138">
        <ele>840.33</ele>
        <time>2018-05-19T19:37:09Z</time>
      </trkpt>
      <trkpt lat="43.2133425213" lon="-4.3378531560">
        <ele>840.81</ele>
        <time>2018-05-19T19:37:13Z</time>
      </trkpt>
      <trkpt lat="43.2134555932" lon="-4.3379218038">
        <ele>840.81</ele>
        <time>2018-05-19T19:37:17Z</time>
      </trkpt>
      <trkpt lat="43.2135439385" lon="-4.3379737716">
        <ele>840.81</ele>
        <time>2018-05-19T19:37:20Z</time>
      </trkpt>
      <trkpt lat="43.2136521488" lon="-4.3380324449">
        <ele>840.81</ele>
        <time>2018-05-19T19:37:23Z</time>
      </trkpt>
      <trkpt lat="43.2137793861" lon="-4.3380782101">
        <ele>840.81</ele>
        <time>2018-05-19T19:37:26Z</time>
      </trkpt>
      <trkpt lat="43.2139036059" lon="-4.3380927108">
        <ele>840.81</ele>
        <time>2018-05-19T19:37:29Z</time>
      </trkpt>
      <trkpt lat="43.2140043564" lon="-4.3380939681">
        <ele>839.37</ele>
        <time>2018-05-19T19:37:31Z</time>
      </trkpt>
      <trkpt lat="43.2141206134" lon="-4.3380975723">
        <ele>838.89</ele>
        <time>2018-05-19T19:37:33Z</time>
      </trkpt>
      <trkpt lat="43.2142724097" lon="-4.3381085526">
        <ele>836.96</ele>
        <time>2018-05-19T19:37:35Z</time>
      </trkpt>
      <trkpt lat="43.2144020777" lon="-4.3381214608">
        <ele>835.52</ele>
        <time>2018-05-19T19:37:37Z</time>
      </trkpt>
      <trkpt lat="43.2145584002" lon="-4.3381417450">
        <ele>834.08</ele>
        <time>2018-05-19T19:37:39Z</time>
      </trkpt>
      <trkpt lat="43.2147195842" lon="-4.3381606042">
        <ele>833.60</ele>
        <time>2018-05-19T19:37:41Z</time>
      </trkpt>
      <trkpt lat="43.2148815226" lon="-4.3381868396">
        <ele>833.12</ele>
        <time>2018-05-19T19:37:43Z</time>
      </trkpt>
      <trkpt lat="43.2150464784" lon="-4.3382117338">
        <ele>832.64</ele>
        <time>2018-05-19T19:37:45Z</time>
      </trkpt>
      <trkpt lat="43.2151830196" lon="-4.3382312637">
        <ele>831.68</ele>
        <time>2018-05-19T19:37:47Z</time>
      </trkpt>
      <trkpt lat="43.2153257634" lon="-4.3382460158">
        <ele>831.20</ele>
        <time>2018-05-19T19:37:49Z</time>
      </trkpt>
      <trkpt lat="43.2154703513" lon="-4.3382591754">
        <ele>831.68</ele>
        <time>2018-05-19T19:37:51Z</time>
      </trkpt>
      <trkpt lat="43.2156228181" lon="-4.3382735085">
        <ele>831.20</ele>
        <time>2018-05-19T19:37:53Z</time>
      </trkpt>
      <trkpt lat="43.2157609519" lon="-4.3382819742">
        <ele>831.20</ele>
        <time>2018-05-19T19:37:55Z</time>
      </trkpt>
      <trkpt lat="43.2158999238" lon="-4.3382895179">
        <ele>831.68</ele>
        <time>2018-05-19T19:37:57Z</time>
      </trkpt>
      <trkpt lat="43.2160253171" lon="-4.3382952176">
        <ele>832.64</ele>
        <time>2018-05-19T19:37:59Z</time>
      </trkpt>
      <trkpt lat="43.2161407359" lon="-4.3383014202">
        <ele>833.12</ele>
        <time>2018-05-19T19:38:01Z</time>
      </trkpt>
      <trkpt lat="43.2162523828" lon="-4.3383165915">
        <ele>834.56</ele>
        <time>2018-05-19T19:38:03Z</time>
      </trkpt>
      <trkpt lat="43.2163418178" lon="-4.3383450061">
        <ele>834.56</ele>
        <time>2018-05-19T19:38:05Z</time>
      </trkpt>
      <trkpt lat="43.2164462563" lon="-4.3384037632">
        <ele>834.56</ele>
        <time>2018-05-19T19:38:07Z</time>
      </trkpt>
      <trkpt lat="43.2165564783" lon="-4.3384967186">
        <ele>833.12</ele>
        <time>2018-05-19T19:38:09Z</time>
      </trkpt>
      <trkpt lat="43.2166605815" lon="-4.3386247102">
        <ele>833.12</ele>
        <time>2018-05-19T19:38:11Z</time>
      </trkpt>
      <trkpt lat="43.2167381141" lon="-4.3387437332">
        <ele>833.12</ele>
        <time>2018-05-19T19:38:13Z</time>
      </trkpt>
      <trkpt lat="43.2168021519" lon="-4.3388649356">
        <ele>833.12</ele>
        <time>2018-05-19T19:38:15Z</time>
      </trkpt>
      <trkpt lat="43.2168583106" lon="-4.3389903288">
        <ele>833.12</ele>
        <time>2018-05-19T19:38:17Z</time>
      </trkpt>
      <trkpt lat="43.2169139665" lon="-4.3391161412">
        <ele>833.12</ele>
        <time>2018-05-19T19:38:19Z</time>
      </trkpt>
      <trkpt lat="43.2169696223" lon="-4.3392699491">
        <ele>833.12</ele>
        <time>2018-05-19T19:38:21Z</time>
      </trkpt>
      <trkpt lat="43.2170109451" lon="-4.3393824343">
        <ele>833.12</ele>
        <time>2018-05-19T19:38:23Z</time>
      </trkpt>
      <trkpt lat="43.2170585543" lon="-4.3395156227">
        <ele>833.12</ele>
        <time>2018-05-19T19:38:25Z</time>
      </trkpt>
      <trkpt lat="43.2171114441" lon="-4.3396410998">
        <ele>833.12</ele>
        <time>2018-05-19T19:38:27Z</time>
      </trkpt>
      <trkpt lat="43.2171800919" lon="-4.3397550937">
        <ele>833.12</ele>
        <time>2018-05-19T19:38:29Z</time>
      </trkpt>
      <trkpt lat="43.2172469795" lon="-4.3398441095">
        <ele>834.56</ele>
        <time>2018-05-19T19:38:31Z</time>
      </trkpt>
      <trkpt lat="43.2173311338" lon="-4.3399362266">
        <ele>834.56</ele>
        <time>2018-05-19T19:38:33Z</time>
      </trkpt>
      <trkpt lat="43.2174159586" lon="-4.3400310259">
        <ele>834.56</ele>
        <time>2018-05-19T19:38:35Z</time>
      </trkpt>
      <trkpt lat="43.2174976822" lon="-4.3401489593">
        <ele>833.12</ele>
        <time>2018-05-19T19:38:37Z</time>
      </trkpt>
      <trkpt lat="43.2175721973" lon="-4.3403209560">
        <ele>831.68</ele>
        <time>2018-05-19T19:38:39Z</time>
      </trkpt>
      <trkpt lat="43.2176331338" lon="-4.3404847383">
        <ele>830.72</ele>
        <time>2018-05-19T19:38:41Z</time>
      </trkpt>
      <trkpt lat="43.2177247480" lon="-4.3406600039">
        <ele>829.76</ele>
        <time>2018-05-19T19:38:43Z</time>
      </trkpt>
      <trkpt lat="43.2178339642" lon="-4.3408174999">
        <ele>829.27</ele>
        <time>2018-05-19T19:38:45Z</time>
      </trkpt>
      <trkpt lat="43.2179627940" lon="-4.3409535382">
        <ele>828.31</ele>
        <time>2018-05-19T19:38:47Z</time>
      </trkpt>
      <trkpt lat="43.2181181945" lon="-4.3410540372">
        <ele>826.87</ele>
        <time>2018-05-19T19:38:49Z</time>
      </trkpt>
      <trkpt lat="43.2182569988" lon="-4.3411143869">
        <ele>825.43</ele>
        <time>2018-05-19T19:38:51Z</time>
      </trkpt>
      <trkpt lat="43.2184305880" lon="-4.3411412928">
        <ele>822.55</ele>
        <time>2018-05-19T19:38:53Z</time>
      </trkpt>
      <trkpt lat="43.2185291592" lon="-4.3411439750">
        <ele>820.62</ele>
        <time>2018-05-19T19:38:54Z</time>
      </trkpt>
      <trkpt lat="43.2186269760" lon="-4.3411456514">
        <ele>819.66</ele>
        <time>2018-05-19T19:38:55Z</time>
      </trkpt>
      <trkpt lat="43.2187302411" lon="-4.3411479983">
        <ele>818.70</ele>
        <time>2018-05-19T19:38:56Z</time>
      </trkpt>
      <trkpt lat="43.2188411336" lon="-4.3411469925">
        <ele>818.22</ele>
        <time>2018-05-19T19:38:57Z</time>
      </trkpt>
      <trkpt lat="43.2189572230" lon="-4.3411391135">
        <ele>817.26</ele>
        <time>2018-05-19T19:38:58Z</time>
      </trkpt>
      <trkpt lat="43.2191443071" lon="-4.3411262892">
        <ele>815.34</ele>
        <time>2018-05-19T19:39:00Z</time>
      </trkpt>
      <trkpt lat="43.2192478236" lon="-4.3411143031">
        <ele>814.37</ele>
        <time>2018-05-19T19:39:01Z</time>
      </trkpt>
      <trkpt lat="43.2193554472" lon="-4.3410915043">
        <ele>813.41</ele>
        <time>2018-05-19T19:39:02Z</time>
      </trkpt>
      <trkpt lat="43.2194592990" lon="-4.3410661072">
        <ele>812.93</ele>
        <time>2018-05-19T19:39:03Z</time>
      </trkpt>
      <trkpt lat="43.2195661683" lon="-4.3410428055">
        <ele>812.45</ele>
        <time>2018-05-19T19:39:04Z</time>
      </trkpt>
      <trkpt lat="43.2196668349" lon="-4.3410253711">
        <ele>811.97</ele>
        <time>2018-05-19T19:39:05Z</time>
      </trkpt>
      <trkpt lat="43.2197775599" lon="-4.3410110381">
        <ele>811.97</ele>
        <time>2018-05-19T19:39:06Z</time>
      </trkpt>
      <trkpt lat="43.2198788971" lon="-4.3410047516">
        <ele>811.97</ele>
        <time>2018-05-19T19:39:07Z</time>
      </trkpt>
      <trkpt lat="43.2200330403" lon="-4.3409982137">
        <ele>811.97</ele>
        <time>2018-05-19T19:39:09Z</time>
      </trkpt>
      <trkpt lat="43.2201830763" lon="-4.3409809470">
        <ele>813.89</ele>
        <time>2018-05-19T19:39:11Z</time>
      </trkpt>
      <trkpt lat="43.2203124091" lon="-4.3409476709">
        <ele>814.85</ele>
        <time>2018-05-19T19:39:13Z</time>
      </trkpt>
      <trkpt lat="43.2204333600" lon="-4.3409023248">
        <ele>816.78</ele>
        <time>2018-05-19T19:39:15Z</time>
      </trkpt>
      <trkpt lat="43.2205365412" lon="-4.3408645224">
        <ele>816.78</ele>
        <time>2018-05-19T19:39:17Z</time>
      </trkpt>
      <trkpt lat="43.2206410635" lon="-4.3408241216">
        <ele>817.26</ele>
        <time>2018-05-19T19:39:19Z</time>
      </trkpt>
      <trkpt lat="43.2207491901" lon="-4.3407662865">
        <ele>817.26</ele>
        <time>2018-05-19T19:39:21Z</time>
      </trkpt>
      <trkpt lat="43.2208695542" lon="-4.3407201022">
        <ele>817.26</ele>
        <time>2018-05-19T19:39:23Z</time>
      </trkpt>
      <trkpt lat="43.2210078556" lon="-4.3406855687">
        <ele>815.82</ele>
        <time>2018-05-19T19:39:25Z</time>
      </trkpt>
      <trkpt lat="43.2211457379" lon="-4.3406626023">
        <ele>815.34</ele>
        <time>2018-05-19T19:39:27Z</time>
      </trkpt>
      <trkpt lat="43.2212948520" lon="-4.3406461738">
        <ele>813.41</ele>
        <time>2018-05-19T19:39:29Z</time>
      </trkpt>
      <trkpt lat="43.2214390207" lon="-4.3406298291">
        <ele>812.45</ele>
        <time>2018-05-19T19:39:31Z</time>
      </trkpt>
      <trkpt lat="43.2215933315" lon="-4.3406288233">
        <ele>811.49</ele>
        <time>2018-05-19T19:39:33Z</time>
      </trkpt>
      <trkpt lat="43.2217614725" lon="-4.3406547233">
        <ele>810.05</ele>
        <time>2018-05-19T19:39:35Z</time>
      </trkpt>
      <trkpt lat="43.2218521647" lon="-4.3406764325">
        <ele>808.61</ele>
        <time>2018-05-19T19:39:36Z</time>
      </trkpt>
      <trkpt lat="43.2219980098" lon="-4.3406974711">
        <ele>808.13</ele>
        <time>2018-05-19T19:39:38Z</time>
      </trkpt>
      <trkpt lat="43.2221602835" lon="-4.3406903464">
        <ele>806.20</ele>
        <time>2018-05-19T19:39:40Z</time>
      </trkpt>
      <trkpt lat="43.2222512271" lon="-4.3406759296">
        <ele>804.76</ele>
        <time>2018-05-19T19:39:41Z</time>
      </trkpt>
      <trkpt lat="43.2224280853" lon="-4.3406355288">
        <ele>803.80</ele>
        <time>2018-05-19T19:39:43Z</time>
      </trkpt>
      <trkpt lat="43.2226038538" lon="-4.3405543920">
        <ele>802.84</ele>
        <time>2018-05-19T19:39:45Z</time>
      </trkpt>
      <trkpt lat="43.2226937078" lon="-4.3404985685">
        <ele>802.84</ele>
        <time>2018-05-19T19:39:46Z</time>
      </trkpt>
      <trkpt lat="43.2228270639" lon="-4.3404103909">
        <ele>802.84</ele>
        <time>2018-05-19T19:39:48Z</time>
      </trkpt>
      <trkpt lat="43.2229659520" lon="-4.3403155077">
        <ele>802.84</ele>
        <time>2018-05-19T19:39:50Z</time>
      </trkpt>
      <trkpt lat="43.2231134735" lon="-4.3402258214">
        <ele>801.40</ele>
        <time>2018-05-19T19:39:52Z</time>
      </trkpt>
      <trkpt lat="43.2232775073" lon="-4.3401325308">
        <ele>799.47</ele>
        <time>2018-05-19T19:39:54Z</time>
      </trkpt>
      <trkpt lat="43.2233697921" lon="-4.3400850054">
        <ele>798.51</ele>
        <time>2018-05-19T19:39:55Z</time>
      </trkpt>
      <trkpt lat="43.2234777510" lon="-4.3400342949">
        <ele>797.07</ele>
        <time>2018-05-19T19:39:56Z</time>
      </trkpt>
      <trkpt lat="43.2236480713" lon="-4.3399546668">
        <ele>795.15</ele>
        <time>2018-05-19T19:39:58Z</time>
      </trkpt>
      <trkpt lat="43.2237377577" lon="-4.3399136793">
        <ele>794.67</ele>
        <time>2018-05-19T19:39:59Z</time>
      </trkpt>
      <trkpt lat="43.2238342334" lon="-4.3398694228">
        <ele>793.71</ele>
        <time>2018-05-19T19:40:00Z</time>
      </trkpt>
      <trkpt lat="43.2239311282" lon="-4.3398224842">
        <ele>792.74</ele>
        <time>2018-05-19T19:40:01Z</time>
      </trkpt>
      <trkpt lat="43.2240297832" lon="-4.3397767190">
        <ele>792.74</ele>
        <time>2018-05-19T19:40:02Z</time>
      </trkpt>
      <trkpt lat="43.2241310365" lon="-4.3397333007">
        <ele>791.78</ele>
        <time>2018-05-19T19:40:03Z</time>
      </trkpt>
      <trkpt lat="43.2242298592" lon="-4.3396964204">
        <ele>791.30</ele>
        <time>2018-05-19T19:40:04Z</time>
      </trkpt>
      <trkpt lat="43.2243309449" lon="-4.3396604620">
        <ele>791.78</ele>
        <time>2018-05-19T19:40:05Z</time>
      </trkpt>
      <trkpt lat="43.2244320307" lon="-4.3396255095">
        <ele>791.78</ele>
        <time>2018-05-19T19:40:06Z</time>
      </trkpt>
      <trkpt lat="43.2245808933" lon="-4.3395763077">
        <ele>791.78</ele>
        <time>2018-05-19T19:40:08Z</time>
      </trkpt>
      <trkpt lat="43.2247378025" lon="-4.3395189755">
        <ele>791.78</ele>
        <time>2018-05-19T19:40:10Z</time>
      </trkpt>
      <trkpt lat="43.2248955499" lon="-4.3394520879">
        <ele>791.30</ele>
        <time>2018-05-19T19:40:12Z</time>
      </trkpt>
      <trkpt lat="43.2250462566" lon="-4.3393402733">
        <ele>789.38</ele>
        <time>2018-05-19T19:40:14Z</time>
      </trkpt>
      <trkpt lat="43.2251130603" lon="-4.3392468989">
        <ele>787.46</ele>
        <time>2018-05-19T19:40:15Z</time>
      </trkpt>
      <trkpt lat="43.2251746673" lon="-4.3391355872">
        <ele>786.02</ele>
        <time>2018-05-19T19:40:16Z</time>
      </trkpt>
      <trkpt lat="43.2252713945" lon="-4.3389421329">
        <ele>784.09</ele>
        <time>2018-05-19T19:40:18Z</time>
      </trkpt>
      <trkpt lat="43.2253308222" lon="-4.3388332520">
        <ele>783.61</ele>
        <time>2018-05-19T19:40:19Z</time>
      </trkpt>
      <trkpt lat="43.2253895793" lon="-4.3387305737">
        <ele>783.13</ele>
        <time>2018-05-19T19:40:20Z</time>
      </trkpt>
      <trkpt lat="43.2254503481" lon="-4.3386247102">
        <ele>781.69</ele>
        <time>2018-05-19T19:40:21Z</time>
      </trkpt>
      <trkpt lat="43.2255066745" lon="-4.3385190144">
        <ele>781.69</ele>
        <time>2018-05-19T19:40:22Z</time>
      </trkpt>
      <trkpt lat="43.2255966961" lon="-4.3383210339">
        <ele>780.73</ele>
        <time>2018-05-19T19:40:24Z</time>
      </trkpt>
      <trkpt lat="43.2256708760" lon="-4.3381153420">
        <ele>781.21</ele>
        <time>2018-05-19T19:40:26Z</time>
      </trkpt>
      <trkpt lat="43.2257238496" lon="-4.3379536550">
        <ele>780.73</ele>
        <time>2018-05-19T19:40:28Z</time>
      </trkpt>
      <trkpt lat="43.2257722970" lon="-4.3377784733">
        <ele>780.73</ele>
        <time>2018-05-19T19:40:30Z</time>
      </trkpt>
      <trkpt lat="43.2258216664" lon="-4.3376216479">
        <ele>782.65</ele>
        <time>2018-05-19T19:40:32Z</time>
      </trkpt>
      <trkpt lat="43.2258837763" lon="-4.3374862801">
        <ele>783.61</ele>
        <time>2018-05-19T19:40:34Z</time>
      </trkpt>
      <trkpt lat="43.2259778213" lon="-4.3373601325">
        <ele>783.61</ele>
        <time>2018-05-19T19:40:36Z</time>
      </trkpt>
      <trkpt lat="43.2260709442" lon="-4.3372608069">
        <ele>783.61</ele>
        <time>2018-05-19T19:40:38Z</time>
      </trkpt>
      <trkpt lat="43.2261757180" lon="-4.3371711206">
        <ele>783.61</ele>
        <time>2018-05-19T19:40:40Z</time>
      </trkpt>
      <trkpt lat="43.2262809947" lon="-4.3370785005">
        <ele>783.61</ele>
        <time>2018-05-19T19:40:42Z</time>
      </trkpt>
      <trkpt lat="43.2263913006" lon="-4.3370042369">
        <ele>784.09</ele>
        <time>2018-05-19T19:40:44Z</time>
      </trkpt>
      <trkpt lat="43.2264904585" lon="-4.3369447254">
        <ele>783.61</ele>
        <time>2018-05-19T19:40:46Z</time>
      </trkpt>
      <trkpt lat="43.2266018540" lon="-4.3368907459">
        <ele>783.61</ele>
        <time>2018-05-19T19:40:48Z</time>
      </trkpt>
      <trkpt lat="43.2267178595" lon="-4.3368485849">
        <ele>783.61</ele>
        <time>2018-05-19T19:40:50Z</time>
      </trkpt>
      <trkpt lat="43.2268356252" lon="-4.3368074298">
        <ele>783.61</ele>
        <time>2018-05-19T19:40:52Z</time>
      </trkpt>
      <trkpt lat="43.2269721664" lon="-4.3367449008">
        <ele>781.69</ele>
        <time>2018-05-19T19:40:54Z</time>
      </trkpt>
      <trkpt lat="43.2270716596" lon="-4.3366617523">
        <ele>780.25</ele>
        <time>2018-05-19T19:40:56Z</time>
      </trkpt>
      <trkpt lat="43.2271746732" lon="-4.3365135603">
        <ele>779.29</ele>
        <time>2018-05-19T19:40:58Z</time>
      </trkpt>
      <trkpt lat="43.2272616774" lon="-4.3363337684">
        <ele>777.84</ele>
        <time>2018-05-19T19:41:00Z</time>
      </trkpt>
      <trkpt lat="43.2273410540" lon="-4.3361647055">
        <ele>777.84</ele>
        <time>2018-05-19T19:41:02Z</time>
      </trkpt>
      <trkpt lat="43.2274438161" lon="-4.3360228837">
        <ele>776.88</ele>
        <time>2018-05-19T19:41:04Z</time>
      </trkpt>
      <trkpt lat="43.2275783457" lon="-4.3359630369">
        <ele>775.92</ele>
        <time>2018-05-19T19:41:06Z</time>
      </trkpt>
      <trkpt lat="43.2277335785" lon="-4.3359744363">
        <ele>774.96</ele>
        <time>2018-05-19T19:41:08Z</time>
      </trkpt>
      <trkpt lat="43.2278919965" lon="-4.3360255659">
        <ele>773.52</ele>
        <time>2018-05-19T19:41:10Z</time>
      </trkpt>
      <trkpt lat="43.2280634902" lon="-4.3361032661">
        <ele>771.60</ele>
        <time>2018-05-19T19:41:12Z</time>
      </trkpt>
      <trkpt lat="43.2282030489" lon="-4.3361621071">
        <ele>770.63</ele>
        <time>2018-05-19T19:41:14Z</time>
      </trkpt>
      <trkpt lat="43.2283514086" lon="-4.3362204451">
        <ele>770.15</ele>
        <time>2018-05-19T19:41:16Z</time>
      </trkpt>
      <trkpt lat="43.2284964994" lon="-4.3362789508">
        <ele>767.75</ele>
        <time>2018-05-19T19:41:18Z</time>
      </trkpt>
      <trkpt lat="43.2286372315" lon="-4.3363507837">
        <ele>765.83</ele>
        <time>2018-05-19T19:41:20Z</time>
      </trkpt>
      <trkpt lat="43.2287596911" lon="-4.3364476785">
        <ele>764.39</ele>
        <time>2018-05-19T19:41:22Z</time>
      </trkpt>
      <trkpt lat="43.2288543228" lon="-4.3365891650">
        <ele>762.94</ele>
        <time>2018-05-19T19:41:24Z</time>
      </trkpt>
      <trkpt lat="43.2289056201" lon="-4.3367465772">
        <ele>761.50</ele>
        <time>2018-05-19T19:41:26Z</time>
      </trkpt>
      <trkpt lat="43.2289338671" lon="-4.3369006366">
        <ele>760.06</ele>
        <time>2018-05-19T19:41:28Z</time>
      </trkpt>
      <trkpt lat="43.2289635390" lon="-4.3370591383">
        <ele>758.14</ele>
        <time>2018-05-19T19:41:30Z</time>
      </trkpt>
      <trkpt lat="43.2289906126" lon="-4.3371841125">
        <ele>756.69</ele>
        <time>2018-05-19T19:41:32Z</time>
      </trkpt>
      <trkpt lat="43.2290316839" lon="-4.3373046443">
        <ele>754.77</ele>
        <time>2018-05-19T19:41:34Z</time>
      </trkpt>
      <trkpt lat="43.2291074563" lon="-4.3373849429">
        <ele>753.33</ele>
        <time>2018-05-19T19:41:36Z</time>
      </trkpt>
      <trkpt lat="43.2292222045" lon="-4.3373908103">
        <ele>750.93</ele>
        <time>2018-05-19T19:41:38Z</time>
      </trkpt>
      <trkpt lat="43.2293446641" lon="-4.3373380043">
        <ele>749.00</ele>
        <time>2018-05-19T19:41:40Z</time>
      </trkpt>
      <trkpt lat="43.2294687163" lon="-4.3372784089">
        <ele>747.08</ele>
        <time>2018-05-19T19:41:42Z</time>
      </trkpt>
      <trkpt lat="43.2295983844" lon="-4.3372280337">
        <ele>745.64</ele>
        <time>2018-05-19T19:41:44Z</time>
      </trkpt>
      <trkpt lat="43.2297328301" lon="-4.3371861242">
        <ele>744.68</ele>
        <time>2018-05-19T19:41:46Z</time>
      </trkpt>
      <trkpt lat="43.2298778370" lon="-4.3371414486">
        <ele>743.24</ele>
        <time>2018-05-19T19:41:48Z</time>
      </trkpt>
      <trkpt lat="43.2300090976" lon="-4.3371082563">
        <ele>742.28</ele>
        <time>2018-05-19T19:41:50Z</time>
      </trkpt>
      <trkpt lat="43.2301493268" lon="-4.3370796740">
        <ele>740.35</ele>
        <time>2018-05-19T19:41:52Z</time>
      </trkpt>
      <trkpt lat="43.2302930765" lon="-4.3370437156">
        <ele>738.43</ele>
        <time>2018-05-19T19:41:54Z</time>
      </trkpt>
      <trkpt lat="43.2304365747" lon="-4.3369811866">
        <ele>736.99</ele>
        <time>2018-05-19T19:41:56Z</time>
      </trkpt>
      <trkpt lat="43.2305957470" lon="-4.3368943501">
        <ele>735.07</ele>
        <time>2018-05-19T19:41:58Z</time>
      </trkpt>
      <trkpt lat="43.2307267562" lon="-4.3368224334">
        <ele>733.62</ele>
        <time>2018-05-19T19:42:00Z</time>
      </trkpt>
      <trkpt lat="43.2308726851" lon="-4.3367519416">
        <ele>732.18</ele>
        <time>2018-05-19T19:42:02Z</time>
      </trkpt>
      <trkpt lat="43.2310103159" lon="-4.3367029075">
        <ele>729.78</ele>
        <time>2018-05-19T19:42:04Z</time>
      </trkpt>
      <trkpt lat="43.2311554067" lon="-4.3366634287">
        <ele>728.34</ele>
        <time>2018-05-19T19:42:06Z</time>
      </trkpt>
      <trkpt lat="43.2312864996" lon="-4.3366280571">
        <ele>726.89</ele>
        <time>2018-05-19T19:42:08Z</time>
      </trkpt>
      <trkpt lat="43.2314230409" lon="-4.3365884945">
        <ele>725.45</ele>
        <time>2018-05-19T19:42:10Z</time>
      </trkpt>
      <trkpt lat="43.2315578219" lon="-4.3365216907">
        <ele>723.53</ele>
        <time>2018-05-19T19:42:12Z</time>
      </trkpt>
      <trkpt lat="43.2316916808" lon="-4.3364391290">
        <ele>721.61</ele>
        <time>2018-05-19T19:42:14Z</time>
      </trkpt>
      <trkpt lat="43.2318407111" lon="-4.3363551423">
        <ele>719.20</ele>
        <time>2018-05-19T19:42:16Z</time>
      </trkpt>
      <trkpt lat="43.2319625840" lon="-4.3362864945">
        <ele>716.32</ele>
        <time>2018-05-19T19:42:18Z</time>
      </trkpt>
      <trkpt lat="43.2321006339" lon="-4.3362123985">
        <ele>714.40</ele>
        <time>2018-05-19T19:42:20Z</time>
      </trkpt>
      <trkpt lat="43.2322446350" lon="-4.3361415714">
        <ele>711.99</ele>
        <time>2018-05-19T19:42:22Z</time>
      </trkpt>
      <trkpt lat="43.2323888876" lon="-4.3360534776">
        <ele>709.59</ele>
        <time>2018-05-19T19:42:24Z</time>
      </trkpt>
      <trkpt lat="43.2324722037" lon="-4.3359875958">
        <ele>708.63</ele>
        <time>2018-05-19T19:42:25Z</time>
      </trkpt>
      <trkpt lat="43.2325932384" lon="-4.3358973227">
        <ele>706.23</ele>
        <time>2018-05-19T19:42:27Z</time>
      </trkpt>
      <trkpt lat="43.2327320427" lon="-4.3358182814">
        <ele>704.78</ele>
        <time>2018-05-19T19:42:29Z</time>
      </trkpt>
      <trkpt lat="43.2328690030" lon="-4.3357395753">
        <ele>702.86</ele>
        <time>2018-05-19T19:42:31Z</time>
      </trkpt>
      <trkpt lat="43.2330007665" lon="-4.3356351368">
        <ele>700.46</ele>
        <time>2018-05-19T19:42:33Z</time>
      </trkpt>
      <trkpt lat="43.2330746949" lon="-4.3355662376">
        <ele>699.02</ele>
        <time>2018-05-19T19:42:34Z</time>
      </trkpt>
      <trkpt lat="43.2331937179" lon="-4.3354712706">
        <ele>697.57</ele>
        <time>2018-05-19T19:42:36Z</time>
      </trkpt>
      <trkpt lat="43.2333348691" lon="-4.3353872839">
        <ele>695.17</ele>
        <time>2018-05-19T19:42:38Z</time>
      </trkpt>
      <trkpt lat="43.2334664650" lon="-4.3353230786">
        <ele>693.73</ele>
        <time>2018-05-19T19:42:40Z</time>
      </trkpt>
      <trkpt lat="43.2335973904" lon="-4.3352475576">
        <ele>691.81</ele>
        <time>2018-05-19T19:42:42Z</time>
      </trkpt>
      <trkpt lat="43.2337322552" lon="-4.3351624813">
        <ele>688.92</ele>
        <time>2018-05-19T19:42:44Z</time>
      </trkpt>
      <trkpt lat="43.2338712271" lon="-4.3350858707">
        <ele>686.52</ele>
        <time>2018-05-19T19:42:46Z</time>
      </trkpt>
      <trkpt lat="43.2340111211" lon="-4.3350218330">
        <ele>684.12</ele>
        <time>2018-05-19T19:42:48Z</time>
      </trkpt>
      <trkpt lat="43.2341478299" lon="-4.3349629082">
        <ele>682.67</ele>
        <time>2018-05-19T19:42:50Z</time>
      </trkpt>
      <trkpt lat="43.2342969440" lon="-4.3348924164">
        <ele>680.75</ele>
        <time>2018-05-19T19:42:52Z</time>
      </trkpt>
      <trkpt lat="43.2344136201" lon="-4.3348242715">
        <ele>678.83</ele>
        <time>2018-05-19T19:42:54Z</time>
      </trkpt>
      <trkpt lat="43.2345340680" lon="-4.3347308133">
        <ele>677.39</ele>
        <time>2018-05-19T19:42:56Z</time>
      </trkpt>
      <trkpt lat="43.2346446253" lon="-4.3346163165">
        <ele>675.46</ele>
        <time>2018-05-19T19:42:58Z</time>
      </trkpt>
      <trkpt lat="43.2347544283" lon="-4.3344951142">
        <ele>672.58</ele>
        <time>2018-05-19T19:43:00Z</time>
      </trkpt>
      <trkpt lat="43.2348661590" lon="-4.3343764264">
        <ele>670.66</ele>
        <time>2018-05-19T19:43:02Z</time>
      </trkpt>
      <trkpt lat="43.2349757105" lon="-4.3342518713">
        <ele>668.25</ele>
        <time>2018-05-19T19:43:04Z</time>
      </trkpt>
      <trkpt lat="43.2350747846" lon="-4.3341146596">
        <ele>666.81</ele>
        <time>2018-05-19T19:43:06Z</time>
      </trkpt>
      <trkpt lat="43.2351606153" lon="-4.3339630309">
        <ele>664.41</ele>
        <time>2018-05-19T19:43:08Z</time>
      </trkpt>
      <trkpt lat="43.2352497987" lon="-4.3337975722">
        <ele>662.49</ele>
        <time>2018-05-19T19:43:10Z</time>
      </trkpt>
      <trkpt lat="43.2353298459" lon="-4.3336620368">
        <ele>660.08</ele>
        <time>2018-05-19T19:43:12Z</time>
      </trkpt>
      <trkpt lat="43.2354206219" lon="-4.3335060496">
        <ele>658.16</ele>
        <time>2018-05-19T19:43:14Z</time>
      </trkpt>
      <trkpt lat="43.2355015073" lon="-4.3333260901">
        <ele>655.76</ele>
        <time>2018-05-19T19:43:16Z</time>
      </trkpt>
      <trkpt lat="43.2355664670" lon="-4.3331473041">
        <ele>653.83</ele>
        <time>2018-05-19T19:43:18Z</time>
      </trkpt>
      <trkpt lat="43.2356099691" lon="-4.3329744693">
        <ele>652.39</ele>
        <time>2018-05-19T19:43:20Z</time>
      </trkpt>
      <trkpt lat="43.2356138248" lon="-4.3328211643">
        <ele>651.43</ele>
        <time>2018-05-19T19:43:22Z</time>
      </trkpt>
      <trkpt lat="43.2355924509" lon="-4.3326712959">
        <ele>649.99</ele>
        <time>2018-05-19T19:43:24Z</time>
      </trkpt>
      <trkpt lat="43.2355854101" lon="-4.3325538654">
        <ele>649.03</ele>
        <time>2018-05-19T19:43:26Z</time>
      </trkpt>
      <trkpt lat="43.2356736716" lon="-4.3324511033">
        <ele>648.55</ele>
        <time>2018-05-19T19:43:29Z</time>
      </trkpt>
      <trkpt lat="43.2357828878" lon="-4.3324849661">
        <ele>646.62</ele>
        <time>2018-05-19T19:43:32Z</time>
      </trkpt>
      <trkpt lat="43.2358752564" lon="-4.3325592298">
        <ele>645.66</ele>
        <time>2018-05-19T19:43:34Z</time>
      </trkpt>
      <trkpt lat="43.2359616738" lon="-4.3326507602">
        <ele>643.74</ele>
        <time>2018-05-19T19:43:36Z</time>
      </trkpt>
      <trkpt lat="43.2360395417" lon="-4.3327599764">
        <ele>641.82</ele>
        <time>2018-05-19T19:43:38Z</time>
      </trkpt>
      <trkpt lat="43.2361173257" lon="-4.3328869622">
        <ele>639.41</ele>
        <time>2018-05-19T19:43:41Z</time>
      </trkpt>
      <trkpt lat="43.2362208422" lon="-4.3328913208">
        <ele>637.49</ele>
        <time>2018-05-19T19:43:44Z</time>
      </trkpt>
      <trkpt lat="43.2362742350" lon="-4.3327789195">
        <ele>635.57</ele>
        <time>2018-05-19T19:43:46Z</time>
      </trkpt>
      <trkpt lat="43.2362996321" lon="-4.3326367624">
        <ele>633.17</ele>
        <time>2018-05-19T19:43:48Z</time>
      </trkpt>
      <trkpt lat="43.2363114506" lon="-4.3324817810">
        <ele>631.24</ele>
        <time>2018-05-19T19:43:50Z</time>
      </trkpt>
      <trkpt lat="43.2363067567" lon="-4.3323188368">
        <ele>629.32</ele>
        <time>2018-05-19T19:43:52Z</time>
      </trkpt>
      <trkpt lat="43.2362945192" lon="-4.3321377039">
        <ele>627.40</ele>
        <time>2018-05-19T19:43:54Z</time>
      </trkpt>
      <trkpt lat="43.2362690382" lon="-4.3319266476">
        <ele>624.99</ele>
        <time>2018-05-19T19:43:56Z</time>
      </trkpt>
      <trkpt lat="43.2362487540" lon="-4.3317615241">
        <ele>623.55</ele>
        <time>2018-05-19T19:43:58Z</time>
      </trkpt>
      <trkpt lat="43.2362174056" lon="-4.3315902818">
        <ele>621.63</ele>
        <time>2018-05-19T19:44:00Z</time>
      </trkpt>
      <trkpt lat="43.2361738198" lon="-4.3314150162">
        <ele>619.71</ele>
        <time>2018-05-19T19:44:02Z</time>
      </trkpt>
      <trkpt lat="43.2361311559" lon="-4.3312264234">
        <ele>617.78</ele>
        <time>2018-05-19T19:44:04Z</time>
      </trkpt>
      <trkpt lat="43.2361113746" lon="-4.3310244195">
        <ele>615.38</ele>
        <time>2018-05-19T19:44:06Z</time>
      </trkpt>
      <trkpt lat="43.2361366041" lon="-4.3308660854">
        <ele>613.94</ele>
        <time>2018-05-19T19:44:08Z</time>
      </trkpt>
      <trkpt lat="43.2362027373" lon="-4.3306901492">
        <ele>612.98</ele>
        <time>2018-05-19T19:44:10Z</time>
      </trkpt>
      <trkpt lat="43.2362936810" lon="-4.3305373471">
        <ele>611.06</ele>
        <time>2018-05-19T19:44:12Z</time>
      </trkpt>
      <trkpt lat="43.2364140451" lon="-4.3303585611">
        <ele>609.61</ele>
        <time>2018-05-19T19:44:14Z</time>
      </trkpt>
      <trkpt lat="43.2365247700" lon="-4.3302134704">
        <ele>608.17</ele>
        <time>2018-05-19T19:44:16Z</time>
      </trkpt>
      <trkpt lat="43.2366470620" lon="-4.3300371990">
        <ele>607.21</ele>
        <time>2018-05-19T19:44:18Z</time>
      </trkpt>
      <trkpt lat="43.2367510814" lon="-4.3298673816">
        <ele>607.21</ele>
        <time>2018-05-19T19:44:20Z</time>
      </trkpt>
      <trkpt lat="43.2368458807" lon="-4.3297039345">
        <ele>608.65</ele>
        <time>2018-05-19T19:44:22Z</time>
      </trkpt>
      <trkpt lat="43.2369200606" lon="-4.3295698240">
        <ele>609.13</ele>
        <time>2018-05-19T19:44:24Z</time>
      </trkpt>
      <trkpt lat="43.2369887922" lon="-4.3294299301">
        <ele>609.13</ele>
        <time>2018-05-19T19:44:26Z</time>
      </trkpt>
      <trkpt lat="43.2370507345" lon="-4.3292951491">
        <ele>609.61</ele>
        <time>2018-05-19T19:44:28Z</time>
      </trkpt>
      <trkpt lat="43.2371073123" lon="-4.3291664030">
        <ele>610.57</ele>
        <time>2018-05-19T19:44:30Z</time>
      </trkpt>
      <trkpt lat="43.2371615432" lon="-4.3290334661">
        <ele>611.06</ele>
        <time>2018-05-19T19:44:32Z</time>
      </trkpt>
      <trkpt lat="43.2372260839" lon="-4.3288809154">
        <ele>612.02</ele>
        <time>2018-05-19T19:44:35Z</time>
      </trkpt>
      <trkpt lat="43.2372726873" lon="-4.3287753034">
        <ele>612.50</ele>
        <time>2018-05-19T19:44:37Z</time>
      </trkpt>
      <trkpt lat="43.2373249903" lon="-4.3286631536">
        <ele>612.50</ele>
        <time>2018-05-19T19:44:39Z</time>
      </trkpt>
      <trkpt lat="43.2373784669" lon="-4.3285517581">
        <ele>612.98</ele>
        <time>2018-05-19T19:44:41Z</time>
      </trkpt>
      <trkpt lat="43.2374457736" lon="-4.3284080923">
        <ele>613.46</ele>
        <time>2018-05-19T19:44:44Z</time>
      </trkpt>
      <trkpt lat="43.2375136670" lon="-4.3282531947">
        <ele>613.94</ele>
        <time>2018-05-19T19:44:47Z</time>
      </trkpt>
      <trkpt lat="43.2375877630" lon="-4.3280960340">
        <ele>614.42</ele>
        <time>2018-05-19T19:44:50Z</time>
      </trkpt>
      <trkpt lat="43.2376759406" lon="-4.3279612530">
        <ele>614.42</ele>
        <time>2018-05-19T19:44:53Z</time>
      </trkpt>
      <trkpt lat="43.2377519645" lon="-4.3278707284">
        <ele>614.42</ele>
        <time>2018-05-19T19:44:55Z</time>
      </trkpt>
      <trkpt lat="43.2378351968" lon="-4.3277836405">
        <ele>614.42</ele>
        <time>2018-05-19T19:44:57Z</time>
      </trkpt>
      <trkpt lat="43.2379299123" lon="-4.3276803754">
        <ele>614.42</ele>
        <time>2018-05-19T19:44:59Z</time>
      </trkpt>
      <trkpt lat="43.2380093727" lon="-4.3276041001">
        <ele>614.42</ele>
        <time>2018-05-19T19:45:01Z</time>
      </trkpt>
      <trkpt lat="43.2380967122" lon="-4.3275118154">
        <ele>612.98</ele>
        <time>2018-05-19T19:45:03Z</time>
      </trkpt>
      <trkpt lat="43.2381786872" lon="-4.3274120707">
        <ele>612.98</ele>
        <time>2018-05-19T19:45:05Z</time>
      </trkpt>
      <trkpt lat="43.2382599916" lon="-4.3273092248">
        <ele>612.98</ele>
        <time>2018-05-19T19:45:07Z</time>
      </trkpt>
      <trkpt lat="43.2383563835" lon="-4.3271978293">
        <ele>612.98</ele>
        <time>2018-05-19T19:45:09Z</time>
      </trkpt>
      <trkpt lat="43.2384371851" lon="-4.3271124177">
        <ele>612.98</ele>
        <time>2018-05-19T19:45:11Z</time>
      </trkpt>
      <trkpt lat="43.2385207526" lon="-4.3270192947">
        <ele>612.02</ele>
        <time>2018-05-19T19:45:13Z</time>
      </trkpt>
      <trkpt lat="43.2387452200" lon="-4.3265701085">
        <ele>610.57</ele>
        <time>2018-05-19T19:45:19Z</time>
      </trkpt>
      <trkpt lat="43.2388214953" lon="-4.3263978604">
        <ele>608.65</ele>
        <time>2018-05-19T19:45:21Z</time>
      </trkpt>
      <trkpt lat="43.2389015425" lon="-4.3262689468">
        <ele>607.69</ele>
        <time>2018-05-19T19:45:23Z</time>
      </trkpt>
      <trkpt lat="43.2391048037" lon="-4.3261256162">
        <ele>606.73</ele>
        <time>2018-05-19T19:45:26Z</time>
      </trkpt>
      <trkpt lat="43.2392180432" lon="-4.3260811921">
        <ele>607.21</ele>
        <time>2018-05-19T19:45:29Z</time>
      </trkpt>
      <trkpt lat="43.2393333782" lon="-4.3260360137">
        <ele>606.73</ele>
        <time>2018-05-19T19:45:31Z</time>
      </trkpt>
      <trkpt lat="43.2396949735" lon="-4.3258366082">
        <ele>605.77</ele>
        <time>2018-05-19T19:45:36Z</time>
      </trkpt>
      <trkpt lat="43.2398022618" lon="-4.3257393781">
        <ele>605.77</ele>
        <time>2018-05-19T19:45:38Z</time>
      </trkpt>
      <trkpt lat="43.2399155851" lon="-4.3256367836">
        <ele>605.77</ele>
        <time>2018-05-19T19:45:40Z</time>
      </trkpt>
      <trkpt lat="43.2400031760" lon="-4.3255597539">
        <ele>605.77</ele>
        <time>2018-05-19T19:45:42Z</time>
      </trkpt>
      <trkpt lat="43.2402274758" lon="-4.3253449257">
        <ele>604.33</ele>
        <time>2018-05-19T19:45:47Z</time>
      </trkpt>
      <trkpt lat="43.2402630989" lon="-4.3252483662">
        <ele>603.85</ele>
        <time>2018-05-19T19:45:49Z</time>
      </trkpt>
      <trkpt lat="43.2403677050" lon="-4.3250153493">
        <ele>605.29</ele>
        <time>2018-05-19T19:45:54Z</time>
      </trkpt>
      <trkpt lat="43.2404883206" lon="-4.3248373177">
        <ele>606.25</ele>
        <time>2018-05-19T19:45:59Z</time>
      </trkpt>
      <trkpt lat="43.2405557111" lon="-4.3247384112">
        <ele>606.25</ele>
        <time>2018-05-19T19:46:02Z</time>
      </trkpt>
      <trkpt lat="43.2405846287" lon="-4.3246974237">
        <ele>608.17</ele>
        <time>2018-05-19T19:46:03Z</time>
      </trkpt>
      <trkpt lat="43.2407348324" lon="-4.3245123513">
        <ele>609.61</ele>
        <time>2018-05-19T19:46:09Z</time>
      </trkpt>
      <trkpt lat="43.2409087569" lon="-4.3243290391">
        <ele>610.09</ele>
        <time>2018-05-19T19:46:16Z</time>
      </trkpt>
      <trkpt lat="43.2409938332" lon="-4.3242510036">
        <ele>610.09</ele>
        <time>2018-05-19T19:46:19Z</time>
      </trkpt>
      <trkpt lat="43.2411422767" lon="-4.3241650052">
        <ele>611.06</ele>
        <time>2018-05-19T19:46:24Z</time>
      </trkpt>
      <trkpt lat="43.2412582822" lon="-4.3241202459">
        <ele>611.06</ele>
        <time>2018-05-19T19:46:28Z</time>
      </trkpt>
      <trkpt lat="43.2413586136" lon="-4.3240854610">
        <ele>612.98</ele>
        <time>2018-05-19T19:46:32Z</time>
      </trkpt>
      <trkpt lat="43.2414393313" lon="-4.3240604829">
        <ele>613.94</ele>
        <time>2018-05-19T19:46:35Z</time>
      </trkpt>
      <trkpt lat="43.2415591087" lon="-4.3240171485">
        <ele>614.90</ele>
        <time>2018-05-19T19:46:40Z</time>
      </trkpt>
      <trkpt lat="43.2416617032" lon="-4.3239770830">
        <ele>615.86</ele>
        <time>2018-05-19T19:46:44Z</time>
      </trkpt>
      <trkpt lat="43.2417660579" lon="-4.3239353411">
        <ele>616.34</ele>
        <time>2018-05-19T19:46:48Z</time>
      </trkpt>
      <trkpt lat="43.2418122422" lon="-4.3239193317">
        <ele>616.82</ele>
        <time>2018-05-19T19:46:50Z</time>
      </trkpt>
      <trkpt lat="43.2419652119" lon="-4.3238474149">
        <ele>617.30</ele>
        <time>2018-05-19T19:46:56Z</time>
      </trkpt>
      <trkpt lat="43.2420604303" lon="-4.3238319084">
        <ele>617.30</ele>
        <time>2018-05-19T19:46:59Z</time>
      </trkpt>
      <trkpt lat="43.2421836443" lon="-4.3238265440">
        <ele>617.78</ele>
        <time>2018-05-19T19:47:03Z</time>
      </trkpt>
      <trkpt lat="43.2422833052" lon="-4.3238092773">
        <ele>618.26</ele>
        <time>2018-05-19T19:47:06Z</time>
      </trkpt>
      <trkpt lat="43.2423976343" lon="-4.3237769231">
        <ele>618.75</ele>
        <time>2018-05-19T19:47:10Z</time>
      </trkpt>
      <trkpt lat="43.2424563076" lon="-4.3237543758">
        <ele>620.67</ele>
        <time>2018-05-19T19:47:12Z</time>
      </trkpt>
      <trkpt lat="43.2426430564" lon="-4.3236868177">
        <ele>621.63</ele>
        <time>2018-05-19T19:47:19Z</time>
      </trkpt>
      <trkpt lat="43.2427303959" lon="-4.3236486800">
        <ele>622.59</ele>
        <time>2018-05-19T19:47:22Z</time>
      </trkpt>
      <trkpt lat="43.2428322360" lon="-4.3236088660">
        <ele>623.07</ele>
        <time>2018-05-19T19:47:26Z</time>
      </trkpt>
      <trkpt lat="43.2429366745" lon="-4.3235475942">
        <ele>624.03</ele>
        <time>2018-05-19T19:47:30Z</time>
      </trkpt>
      <trkpt lat="43.2430323958" lon="-4.3234667927">
        <ele>624.51</ele>
        <time>2018-05-19T19:47:34Z</time>
      </trkpt>
      <trkpt lat="43.2431046478" lon="-4.3233470153">
        <ele>624.51</ele>
        <time>2018-05-19T19:47:38Z</time>
      </trkpt>
      <trkpt lat="43.2431537658" lon="-4.3232343625">
        <ele>624.99</ele>
        <time>2018-05-19T19:47:41Z</time>
      </trkpt>
      <trkpt lat="43.2432017103" lon="-4.3231076282">
        <ele>625.47</ele>
        <time>2018-05-19T19:47:45Z</time>
      </trkpt>
      <trkpt lat="43.2432594616" lon="-4.3229623698">
        <ele>626.44</ele>
        <time>2018-05-19T19:47:49Z</time>
      </trkpt>
      <trkpt lat="43.2433027122" lon="-4.3228187039">
        <ele>627.40</ele>
        <time>2018-05-19T19:47:53Z</time>
      </trkpt>
      <trkpt lat="43.2433503214" lon="-4.3226707634">
        <ele>627.88</ele>
        <time>2018-05-19T19:47:57Z</time>
      </trkpt>
      <trkpt lat="43.2433696836" lon="-4.3225431070">
        <ele>628.36</ele>
        <time>2018-05-19T19:48:00Z</time>
      </trkpt>
      <trkpt lat="43.2433858607" lon="-4.3224024586">
        <ele>629.32</ele>
        <time>2018-05-19T19:48:04Z</time>
      </trkpt>
      <trkpt lat="43.2434115093" lon="-4.3222611398">
        <ele>630.76</ele>
        <time>2018-05-19T19:48:08Z</time>
      </trkpt>
      <trkpt lat="43.2434385829" lon="-4.3221289571">
        <ele>631.24</ele>
        <time>2018-05-19T19:48:12Z</time>
      </trkpt>
      <trkpt lat="43.2434715237" lon="-4.3219924998">
        <ele>631.72</ele>
        <time>2018-05-19T19:48:16Z</time>
      </trkpt>
      <trkpt lat="43.2435082365" lon="-4.3218592275">
        <ele>633.17</ele>
        <time>2018-05-19T19:48:20Z</time>
      </trkpt>
      <trkpt lat="43.2435535826" lon="-4.3217277154">
        <ele>633.17</ele>
        <time>2018-05-19T19:48:24Z</time>
      </trkpt>
      <trkpt lat="43.2435957436" lon="-4.3216132186">
        <ele>634.61</ele>
        <time>2018-05-19T19:48:28Z</time>
      </trkpt>
      <trkpt lat="43.2436331268" lon="-4.3214760907">
        <ele>635.57</ele>
        <time>2018-05-19T19:48:33Z</time>
      </trkpt>
      <trkpt lat="43.2436562609" lon="-4.3213466741">
        <ele>636.53</ele>
        <time>2018-05-19T19:48:37Z</time>
      </trkpt>
      <trkpt lat="43.2436679956" lon="-4.3212228734">
        <ele>637.01</ele>
        <time>2018-05-19T19:48:41Z</time>
      </trkpt>
      <trkpt lat="43.2436767127" lon="-4.3210971449">
        <ele>637.49</ele>
        <time>2018-05-19T19:48:45Z</time>
      </trkpt>
      <trkpt lat="43.2436823286" lon="-4.3209681474">
        <ele>637.97</ele>
        <time>2018-05-19T19:48:49Z</time>
      </trkpt>
      <trkpt lat="43.2436987571" lon="-4.3208165187">
        <ele>637.97</ele>
        <time>2018-05-19T19:48:53Z</time>
      </trkpt>
      <trkpt lat="43.2437312789" lon="-4.3206796423">
        <ele>638.45</ele>
        <time>2018-05-19T19:48:57Z</time>
      </trkpt>
      <trkpt lat="43.2437738590" lon="-4.3205311988">
        <ele>638.45</ele>
        <time>2018-05-19T19:49:01Z</time>
      </trkpt>
      <trkpt lat="43.2438164391" lon="-4.3204164505">
        <ele>638.45</ele>
        <time>2018-05-19T19:49:04Z</time>
      </trkpt>
      <trkpt lat="43.2438701671" lon="-4.3202960026">
        <ele>638.93</ele>
        <time>2018-05-19T19:49:07Z</time>
      </trkpt>
      <trkpt lat="43.2439301815" lon="-4.3201569468">
        <ele>639.41</ele>
        <time>2018-05-19T19:49:11Z</time>
      </trkpt>
      <trkpt lat="43.2439746056" lon="-4.3200459704">
        <ele>639.89</ele>
        <time>2018-05-19T19:49:14Z</time>
      </trkpt>
      <trkpt lat="43.2440255675" lon="-4.3199408613">
        <ele>640.38</ele>
        <time>2018-05-19T19:49:17Z</time>
      </trkpt>
      <trkpt lat="43.2440861687" lon="-4.3198075891">
        <ele>640.86</ele>
        <time>2018-05-19T19:49:21Z</time>
      </trkpt>
      <trkpt lat="43.2441502064" lon="-4.3196705449">
        <ele>641.34</ele>
        <time>2018-05-19T19:49:25Z</time>
      </trkpt>
      <trkpt lat="43.2441970613" lon="-4.3195658550">
        <ele>641.82</ele>
        <time>2018-05-19T19:49:28Z</time>
      </trkpt>
      <trkpt lat="43.2442584168" lon="-4.3194293138">
        <ele>642.30</ele>
        <time>2018-05-19T19:49:32Z</time>
      </trkpt>
      <trkpt lat="43.2443339378" lon="-4.3193038367">
        <ele>643.74</ele>
        <time>2018-05-19T19:49:36Z</time>
      </trkpt>
      <trkpt lat="43.2443908509" lon="-4.3191874959">
        <ele>644.22</ele>
        <time>2018-05-19T19:49:40Z</time>
      </trkpt>
      <trkpt lat="43.2444447465" lon="-4.3190551456">
        <ele>645.18</ele>
        <time>2018-05-19T19:49:44Z</time>
      </trkpt>
      <trkpt lat="43.2445222791" lon="-4.3189554010">
        <ele>645.66</ele>
        <time>2018-05-19T19:49:48Z</time>
      </trkpt>
      <trkpt lat="43.2446131390" lon="-4.3189103901">
        <ele>646.14</ele>
        <time>2018-05-19T19:49:52Z</time>
      </trkpt>
      <trkpt lat="43.2447104529" lon="-4.3189173471">
        <ele>647.10</ele>
        <time>2018-05-19T19:49:56Z</time>
      </trkpt>
      <trkpt lat="43.2447998039" lon="-4.3189393077">
        <ele>647.59</ele>
        <time>2018-05-19T19:50:00Z</time>
      </trkpt>
      <trkpt lat="43.2448935136" lon="-4.3189546466">
        <ele>648.55</ele>
        <time>2018-05-19T19:50:04Z</time>
      </trkpt>
      <trkpt lat="43.2450045738" lon="-4.3189885933">
        <ele>649.51</ele>
        <time>2018-05-19T19:50:09Z</time>
      </trkpt>
      <trkpt lat="43.2451120298" lon="-4.3190178461">
        <ele>650.47</ele>
        <time>2018-05-19T19:50:14Z</time>
      </trkpt>
      <trkpt lat="43.2452186476" lon="-4.3190258928">
        <ele>650.95</ele>
        <time>2018-05-19T19:50:19Z</time>
      </trkpt>
      <trkpt lat="43.2453276962" lon="-4.3190376274">
        <ele>651.91</ele>
        <time>2018-05-19T19:50:24Z</time>
      </trkpt>
      <trkpt lat="43.2454334758" lon="-4.3190483563">
        <ele>652.87</ele>
        <time>2018-05-19T19:50:29Z</time>
      </trkpt>
      <trkpt lat="43.2455294486" lon="-4.3190443330">
        <ele>653.83</ele>
        <time>2018-05-19T19:50:33Z</time>
      </trkpt>
      <trkpt lat="43.2456112560" lon="-4.3189989030">
        <ele>653.83</ele>
        <time>2018-05-19T19:50:37Z</time>
      </trkpt>
      <trkpt lat="43.2456837595" lon="-4.3188698217">
        <ele>653.83</ele>
        <time>2018-05-19T19:50:41Z</time>
      </trkpt>
      <trkpt lat="43.2457158621" lon="-4.3187408242">
        <ele>653.83</ele>
        <time>2018-05-19T19:50:44Z</time>
      </trkpt>
      <trkpt lat="43.2457436062" lon="-4.3185979128">
        <ele>652.39</ele>
        <time>2018-05-19T19:50:47Z</time>
      </trkpt>
      <trkpt lat="43.2457867730" lon="-4.3184152711">
        <ele>651.91</ele>
        <time>2018-05-19T19:50:50Z</time>
      </trkpt>
      <trkpt lat="43.2458094880" lon="-4.3182840943">
        <ele>650.47</ele>
        <time>2018-05-19T19:50:52Z</time>
      </trkpt>
      <trkpt lat="43.2458294369" lon="-4.3181410152">
        <ele>649.51</ele>
        <time>2018-05-19T19:50:54Z</time>
      </trkpt>
      <trkpt lat="43.2458584383" lon="-4.3179920688">
        <ele>649.51</ele>
        <time>2018-05-19T19:50:56Z</time>
      </trkpt>
      <trkpt lat="43.2458939776" lon="-4.3178487383">
        <ele>649.03</ele>
        <time>2018-05-19T19:50:58Z</time>
      </trkpt>
      <trkpt lat="43.2459494658" lon="-4.3177074194">
        <ele>649.03</ele>
        <time>2018-05-19T19:51:00Z</time>
      </trkpt>
      <trkpt lat="43.2459991705" lon="-4.3175976165">
        <ele>648.55</ele>
        <time>2018-05-19T19:51:02Z</time>
      </trkpt>
      <trkpt lat="43.2460549101" lon="-4.3174883164">
        <ele>648.07</ele>
        <time>2018-05-19T19:51:04Z</time>
      </trkpt>
      <trkpt lat="43.2461132482" lon="-4.3173575588">
        <ele>646.14</ele>
        <time>2018-05-19T19:51:06Z</time>
      </trkpt>
      <trkpt lat="43.2461741846" lon="-4.3172036670">
        <ele>644.22</ele>
        <time>2018-05-19T19:51:08Z</time>
      </trkpt>
      <trkpt lat="43.2462578360" lon="-4.3170253001">
        <ele>642.30</ele>
        <time>2018-05-19T19:51:10Z</time>
      </trkpt>
      <trkpt lat="43.2463491987" lon="-4.3168932851">
        <ele>641.34</ele>
        <time>2018-05-19T19:51:12Z</time>
      </trkpt>
      <trkpt lat="43.2464300003" lon="-4.3167797942">
        <ele>641.34</ele>
        <time>2018-05-19T19:51:14Z</time>
      </trkpt>
      <trkpt lat="43.2465232071" lon="-4.3166761100">
        <ele>641.34</ele>
        <time>2018-05-19T19:51:16Z</time>
      </trkpt>
      <trkpt lat="43.2466114685" lon="-4.3165666424">
        <ele>641.34</ele>
        <time>2018-05-19T19:51:18Z</time>
      </trkpt>
      <trkpt lat="43.2466827147" lon="-4.3164523132">
        <ele>641.34</ele>
        <time>2018-05-19T19:51:20Z</time>
      </trkpt>
      <trkpt lat="43.2467519492" lon="-4.3163228966">
        <ele>641.34</ele>
        <time>2018-05-19T19:51:22Z</time>
      </trkpt>
      <trkpt lat="43.2468194235" lon="-4.3161841761">
        <ele>640.86</ele>
        <time>2018-05-19T19:51:24Z</time>
      </trkpt>
      <trkpt lat="43.2468869817" lon="-4.3160499819">
        <ele>640.38</ele>
        <time>2018-05-19T19:51:26Z</time>
      </trkpt>
      <trkpt lat="43.2469638437" lon="-4.3159077410">
        <ele>639.89</ele>
        <time>2018-05-19T19:51:28Z</time>
      </trkpt>
      <trkpt lat="43.2470197510" lon="-4.3157987762">
        <ele>639.41</ele>
        <time>2018-05-19T19:51:30Z</time>
      </trkpt>
      <trkpt lat="43.2470775861" lon="-4.3156908173">
        <ele>638.93</ele>
        <time>2018-05-19T19:51:32Z</time>
      </trkpt>
      <trkpt lat="43.2471331581" lon="-4.3155631609">
        <ele>638.45</ele>
        <time>2018-05-19T19:51:34Z</time>
      </trkpt>
      <trkpt lat="43.2471877243" lon="-4.3154241052">
        <ele>637.49</ele>
        <time>2018-05-19T19:51:36Z</time>
      </trkpt>
      <trkpt lat="43.2472360041" lon="-4.3152765837">
        <ele>636.05</ele>
        <time>2018-05-19T19:51:38Z</time>
      </trkpt>
      <trkpt lat="43.2472800091" lon="-4.3151245359">
        <ele>635.09</ele>
        <time>2018-05-19T19:51:40Z</time>
      </trkpt>
      <trkpt lat="43.2473149616" lon="-4.3149491865">
        <ele>633.65</ele>
        <time>2018-05-19T19:51:42Z</time>
      </trkpt>
      <trkpt lat="43.2473484892" lon="-4.3147424050">
        <ele>630.76</ele>
        <time>2018-05-19T19:51:44Z</time>
      </trkpt>
      <trkpt lat="43.2473884709" lon="-4.3144799676">
        <ele>627.88</ele>
        <time>2018-05-19T19:51:46Z</time>
      </trkpt>
      <trkpt lat="43.2474117726" lon="-4.3142476212">
        <ele>624.99</ele>
        <time>2018-05-19T19:51:48Z</time>
      </trkpt>
      <trkpt lat="43.2474220823" lon="-4.3141010217">
        <ele>624.03</ele>
        <time>2018-05-19T19:51:49Z</time>
      </trkpt>
      <trkpt lat="43.2474310510" lon="-4.3139682524">
        <ele>623.07</ele>
        <time>2018-05-19T19:51:50Z</time>
      </trkpt>
      <trkpt lat="43.2474395167" lon="-4.3138394225">
        <ele>622.59</ele>
        <time>2018-05-19T19:51:51Z</time>
      </trkpt>
      <trkpt lat="43.2474482339" lon="-4.3136981037">
        <ele>622.59</ele>
        <time>2018-05-19T19:51:52Z</time>
      </trkpt>
      <trkpt lat="43.2474532630" lon="-4.3135691900">
        <ele>621.63</ele>
        <time>2018-05-19T19:51:53Z</time>
      </trkpt>
      <trkpt lat="43.2474552747" lon="-4.3134251889">
        <ele>620.67</ele>
        <time>2018-05-19T19:51:54Z</time>
      </trkpt>
      <trkpt lat="43.2474563643" lon="-4.3132556230">
        <ele>620.19</ele>
        <time>2018-05-19T19:51:55Z</time>
      </trkpt>
      <trkpt lat="43.2474541012" lon="-4.3130149785">
        <ele>618.75</ele>
        <time>2018-05-19T19:51:57Z</time>
      </trkpt>
      <trkpt lat="43.2474515028" lon="-4.3128715642">
        <ele>618.26</ele>
        <time>2018-05-19T19:51:58Z</time>
      </trkpt>
      <trkpt lat="43.2474484015" lon="-4.3127480987">
        <ele>618.26</ele>
        <time>2018-05-19T19:51:59Z</time>
      </trkpt>
      <trkpt lat="43.2474437077" lon="-4.3126163352">
        <ele>618.26</ele>
        <time>2018-05-19T19:52:00Z</time>
      </trkpt>
      <trkpt lat="43.2474321406" lon="-4.3123956397">
        <ele>618.26</ele>
        <time>2018-05-19T19:52:02Z</time>
      </trkpt>
      <trkpt lat="43.2474157121" lon="-4.3121795543">
        <ele>621.63</ele>
        <time>2018-05-19T19:52:04Z</time>
      </trkpt>
      <trkpt lat="43.2474017981" lon="-4.3120316137">
        <ele>621.63</ele>
        <time>2018-05-19T19:52:06Z</time>
      </trkpt>
      <trkpt lat="43.2473821007" lon="-4.3118722737">
        <ele>622.11</ele>
        <time>2018-05-19T19:52:08Z</time>
      </trkpt>
      <trkpt lat="43.2473646663" lon="-4.3116958346">
        <ele>620.67</ele>
        <time>2018-05-19T19:52:10Z</time>
      </trkpt>
      <trkpt lat="43.2473401073" lon="-4.3114995304">
        <ele>619.23</ele>
        <time>2018-05-19T19:52:12Z</time>
      </trkpt>
      <trkpt lat="43.2473217510" lon="-4.3113607261">
        <ele>618.75</ele>
        <time>2018-05-19T19:52:13Z</time>
      </trkpt>
      <trkpt lat="43.2472967729" lon="-4.3111903220">
        <ele>618.26</ele>
        <time>2018-05-19T19:52:15Z</time>
      </trkpt>
      <trkpt lat="43.2472630776" lon="-4.3109779246">
        <ele>617.78</ele>
        <time>2018-05-19T19:52:17Z</time>
      </trkpt>
      <trkpt lat="43.2472248562" lon="-4.3107602466">
        <ele>616.34</ele>
        <time>2018-05-19T19:52:19Z</time>
      </trkpt>
      <trkpt lat="43.2471769117" lon="-4.3105339352">
        <ele>615.86</ele>
        <time>2018-05-19T19:52:21Z</time>
      </trkpt>
      <trkpt lat="43.2471467368" lon="-4.3104050215">
        <ele>615.86</ele>
        <time>2018-05-19T19:52:22Z</time>
      </trkpt>
      <trkpt lat="43.2471099403" lon="-4.3102349527">
        <ele>615.86</ele>
        <time>2018-05-19T19:52:24Z</time>
      </trkpt>
      <trkpt lat="43.2470740657" lon="-4.3100430910">
        <ele>615.86</ele>
        <time>2018-05-19T19:52:26Z</time>
      </trkpt>
      <trkpt lat="43.2470492553" lon="-4.3098689988">
        <ele>615.86</ele>
        <time>2018-05-19T19:52:28Z</time>
      </trkpt>
      <trkpt lat="43.2470306475" lon="-4.3096977565">
        <ele>617.30</ele>
        <time>2018-05-19T19:52:30Z</time>
      </trkpt>
      <trkpt lat="43.2470254507" lon="-4.3095001951">
        <ele>617.30</ele>
        <time>2018-05-19T19:52:32Z</time>
      </trkpt>
      <trkpt lat="43.2470197510" lon="-4.3093520869">
        <ele>617.78</ele>
        <time>2018-05-19T19:52:34Z</time>
      </trkpt>
      <trkpt lat="43.2470064238" lon="-4.3091934174">
        <ele>617.78</ele>
        <time>2018-05-19T19:52:36Z</time>
      </trkpt>
      <trkpt lat="43.2469816972" lon="-4.3090292998">
        <ele>617.78</ele>
        <time>2018-05-19T19:52:38Z</time>
      </trkpt>
      <trkpt lat="43.2469569705" lon="-4.3088754080">
        <ele>617.78</ele>
        <time>2018-05-19T19:52:40Z</time>
      </trkpt>
      <trkpt lat="43.2469395362" lon="-4.3086869828">
        <ele>617.78</ele>
        <time>2018-05-19T19:52:42Z</time>
      </trkpt>
      <trkpt lat="43.2469256222" lon="-4.3085495196">
        <ele>618.26</ele>
        <time>2018-05-19T19:52:44Z</time>
      </trkpt>
      <trkpt lat="43.2469095290" lon="-4.3083927780">
        <ele>618.26</ele>
        <time>2018-05-19T19:52:46Z</time>
      </trkpt>
      <trkpt lat="43.2468970399" lon="-4.3082377128">
        <ele>618.75</ele>
        <time>2018-05-19T19:52:48Z</time>
      </trkpt>
      <trkpt lat="43.2468846347" lon="-4.3080839887">
        <ele>618.75</ele>
        <time>2018-05-19T19:52:50Z</time>
      </trkpt>
      <trkpt lat="43.2468756661" lon="-4.3079402391">
        <ele>619.71</ele>
        <time>2018-05-19T19:52:52Z</time>
      </trkpt>
      <trkpt lat="43.2468682062" lon="-4.3077970762">
        <ele>619.71</ele>
        <time>2018-05-19T19:52:54Z</time>
      </trkpt>
      <trkpt lat="43.2468705531" lon="-4.3076472078">
        <ele>619.71</ele>
        <time>2018-05-19T19:52:56Z</time>
      </trkpt>
      <trkpt lat="43.2468822878" lon="-4.3074919749">
        <ele>619.71</ele>
        <time>2018-05-19T19:52:58Z</time>
      </trkpt>
      <trkpt lat="43.2468991354" lon="-4.3073116802">
        <ele>619.71</ele>
        <time>2018-05-19T19:53:00Z</time>
      </trkpt>
      <trkpt lat="43.2469091937" lon="-4.3071792461">
        <ele>619.71</ele>
        <time>2018-05-19T19:53:02Z</time>
      </trkpt>
      <trkpt lat="43.2469162345" lon="-4.3070165534">
        <ele>618.75</ele>
        <time>2018-05-19T19:53:04Z</time>
      </trkpt>
      <trkpt lat="43.2469158992" lon="-4.3068495858">
        <ele>618.26</ele>
        <time>2018-05-19T19:53:06Z</time>
      </trkpt>
      <trkpt lat="43.2469113730" lon="-4.3066602387">
        <ele>616.82</ele>
        <time>2018-05-19T19:53:08Z</time>
      </trkpt>
      <trkpt lat="43.2469018176" lon="-4.3064972945">
        <ele>616.82</ele>
        <time>2018-05-19T19:53:10Z</time>
      </trkpt>
      <trkpt lat="43.2468880713" lon="-4.3063105457">
        <ele>615.86</ele>
        <time>2018-05-19T19:53:12Z</time>
      </trkpt>
      <trkpt lat="43.2468669489" lon="-4.3061191868">
        <ele>614.42</ele>
        <time>2018-05-19T19:53:14Z</time>
      </trkpt>
      <trkpt lat="43.2468414679" lon="-4.3059185240">
        <ele>613.46</ele>
        <time>2018-05-19T19:53:16Z</time>
      </trkpt>
      <trkpt lat="43.2468073536" lon="-4.3056973256">
        <ele>612.02</ele>
        <time>2018-05-19T19:53:18Z</time>
      </trkpt>
      <trkpt lat="43.2467855606" lon="-4.3055128399">
        <ele>611.06</ele>
        <time>2018-05-19T19:53:20Z</time>
      </trkpt>
      <trkpt lat="43.2467987202" lon="-4.3052975927">
        <ele>609.13</ele>
        <time>2018-05-19T19:53:22Z</time>
      </trkpt>
      <trkpt lat="43.2468660269" lon="-4.3050723709">
        <ele>605.77</ele>
        <time>2018-05-19T19:53:24Z</time>
      </trkpt>
      <trkpt lat="43.2469079364" lon="-4.3049527612">
        <ele>604.81</ele>
        <time>2018-05-19T19:53:25Z</time>
      </trkpt>
      <trkpt lat="43.2469469961" lon="-4.3048339058">
        <ele>603.85</ele>
        <time>2018-05-19T19:53:26Z</time>
      </trkpt>
      <trkpt lat="43.2469853014" lon="-4.3047043215">
        <ele>602.40</ele>
        <time>2018-05-19T19:53:27Z</time>
      </trkpt>
      <trkpt lat="43.2470225170" lon="-4.3045491725">
        <ele>601.92</ele>
        <time>2018-05-19T19:53:28Z</time>
      </trkpt>
      <trkpt lat="43.2470683660" lon="-4.3043134734">
        <ele>600.96</ele>
        <time>2018-05-19T19:53:30Z</time>
      </trkpt>
      <trkpt lat="43.2470868062" lon="-4.3041900918">
        <ele>600.48</ele>
        <time>2018-05-19T19:53:31Z</time>
      </trkpt>
      <trkpt lat="43.2470982056" lon="-4.3040554784">
        <ele>600.48</ele>
        <time>2018-05-19T19:53:32Z</time>
      </trkpt>
      <trkpt lat="43.2471041568" lon="-4.3038601801">
        <ele>602.40</ele>
        <time>2018-05-19T19:53:34Z</time>
      </trkpt>
      <trkpt lat="43.2471028995" lon="-4.3036929611">
        <ele>604.33</ele>
        <time>2018-05-19T19:53:36Z</time>
      </trkpt>
      <trkpt lat="43.2470971998" lon="-4.3035419192">
        <ele>605.77</ele>
        <time>2018-05-19T19:53:38Z</time>
      </trkpt>
      <trkpt lat="43.2470857166" lon="-4.3034088984">
        <ele>607.69</ele>
        <time>2018-05-19T19:53:41Z</time>
      </trkpt>
      <trkpt lat="43.2470718864" lon="-4.3032835890">
        <ele>609.61</ele>
        <time>2018-05-19T19:53:44Z</time>
      </trkpt>
      <trkpt lat="43.2470470760" lon="-4.3031646498">
        <ele>610.57</ele>
        <time>2018-05-19T19:53:47Z</time>
      </trkpt>
      <trkpt lat="43.2470265403" lon="-4.3030189723">
        <ele>611.54</ele>
        <time>2018-05-19T19:53:51Z</time>
      </trkpt>
      <trkpt lat="43.2470171526" lon="-4.3028673436">
        <ele>612.02</ele>
        <time>2018-05-19T19:53:55Z</time>
      </trkpt>
      <trkpt lat="43.2470105309" lon="-4.3027212471">
        <ele>613.46</ele>
        <time>2018-05-19T19:53:59Z</time>
      </trkpt>
      <trkpt lat="43.2470103633" lon="-4.3025834486">
        <ele>613.94</ele>
        <time>2018-05-19T19:54:03Z</time>
      </trkpt>
      <trkpt lat="43.2470058370" lon="-4.3024350051">
        <ele>615.38</ele>
        <time>2018-05-19T19:54:07Z</time>
      </trkpt>
      <trkpt lat="43.2469980419" lon="-4.3022947758">
        <ele>615.86</ele>
        <time>2018-05-19T19:54:11Z</time>
      </trkpt>
      <trkpt lat="43.2469912525" lon="-4.3021529540">
        <ele>616.34</ele>
        <time>2018-05-19T19:54:15Z</time>
      </trkpt>
      <trkpt lat="43.2469901629" lon="-4.3020232022">
        <ele>617.30</ele>
        <time>2018-05-19T19:54:19Z</time>
      </trkpt>
      <trkpt lat="43.2469910849" lon="-4.3018760160">
        <ele>618.26</ele>
        <time>2018-05-19T19:54:24Z</time>
      </trkpt>
      <trkpt lat="43.2470009755" lon="-4.3017347809">
        <ele>619.23</ele>
        <time>2018-05-19T19:54:29Z</time>
      </trkpt>
      <trkpt lat="43.2470219303" lon="-4.3015939649">
        <ele>620.67</ele>
        <time>2018-05-19T19:54:34Z</time>
      </trkpt>
      <trkpt lat="43.2470508479" lon="-4.3014561664">
        <ele>621.63</ele>
        <time>2018-05-19T19:54:39Z</time>
      </trkpt>
      <trkpt lat="43.2470711321" lon="-4.3013166077">
        <ele>622.59</ele>
        <time>2018-05-19T19:54:44Z</time>
      </trkpt>
      <trkpt lat="43.2471000496" lon="-4.3011805695">
        <ele>623.55</ele>
        <time>2018-05-19T19:54:49Z</time>
      </trkpt>
      <trkpt lat="43.2471220102" lon="-4.3010530807">
        <ele>623.55</ele>
        <time>2018-05-19T19:54:53Z</time>
      </trkpt>
      <trkpt lat="43.2471513469" lon="-4.3009074032">
        <ele>623.55</ele>
        <time>2018-05-19T19:54:57Z</time>
      </trkpt>
      <trkpt lat="43.2471795939" lon="-4.3007869553">
        <ele>623.55</ele>
        <time>2018-05-19T19:55:00Z</time>
      </trkpt>
      <trkpt lat="43.2472090982" lon="-4.3006451335">
        <ele>623.55</ele>
        <time>2018-05-19T19:55:03Z</time>
      </trkpt>
      <trkpt lat="43.2472392730" lon="-4.3004978634">
        <ele>622.59</ele>
        <time>2018-05-19T19:55:06Z</time>
      </trkpt>
      <trkpt lat="43.2472685259" lon="-4.3003381882">
        <ele>622.59</ele>
        <time>2018-05-19T19:55:09Z</time>
      </trkpt>
      <trkpt lat="43.2473040652" lon="-4.3002188299">
        <ele>621.63</ele>
        <time>2018-05-19T19:55:11Z</time>
      </trkpt>
      <trkpt lat="43.2473455556" lon="-4.3000933528">
        <ele>620.67</ele>
        <time>2018-05-19T19:55:13Z</time>
      </trkpt>
      <trkpt lat="43.2473976910" lon="-4.2999672890">
        <ele>619.71</ele>
        <time>2018-05-19T19:55:16Z</time>
      </trkpt>
      <trkpt lat="43.2474579569" lon="-4.2998632696">
        <ele>618.75</ele>
        <time>2018-05-19T19:55:18Z</time>
      </trkpt>
      <trkpt lat="43.2475296222" lon="-4.2997662909">
        <ele>616.34</ele>
        <time>2018-05-19T19:55:20Z</time>
      </trkpt>
      <trkpt lat="43.2476076577" lon="-4.2996722460">
        <ele>615.86</ele>
        <time>2018-05-19T19:55:22Z</time>
      </trkpt>
      <trkpt lat="43.2476877049" lon="-4.2995708250">
        <ele>614.90</ele>
        <time>2018-05-19T19:55:25Z</time>
      </trkpt>
      <trkpt lat="43.2477473840" lon="-4.2994735111">
        <ele>613.46</ele>
        <time>2018-05-19T19:55:28Z</time>
      </trkpt>
      <trkpt lat="43.2478089072" lon="-4.2993623670">
        <ele>612.50</ele>
        <time>2018-05-19T19:55:31Z</time>
      </trkpt>
      <trkpt lat="43.2478742022" lon="-4.2991988361">
        <ele>610.57</ele>
        <time>2018-05-19T19:55:34Z</time>
      </trkpt>
      <trkpt lat="43.2479214761" lon="-4.2990567628">
        <ele>609.61</ele>
        <time>2018-05-19T19:55:36Z</time>
      </trkpt>
      <trkpt lat="43.2479745336" lon="-4.2989069782">
        <ele>608.65</ele>
        <time>2018-05-19T19:55:38Z</time>
      </trkpt>
      <trkpt lat="43.2480279263" lon="-4.2987509072">
        <ele>607.69</ele>
        <time>2018-05-19T19:55:40Z</time>
      </trkpt>
      <trkpt lat="43.2480835821" lon="-4.2985809222">
        <ele>606.73</ele>
        <time>2018-05-19T19:55:42Z</time>
      </trkpt>
      <trkpt lat="43.2481377292" lon="-4.2984114401">
        <ele>604.81</ele>
        <time>2018-05-19T19:55:44Z</time>
      </trkpt>
      <trkpt lat="43.2482026052" lon="-4.2982409522">
        <ele>603.85</ele>
        <time>2018-05-19T19:55:46Z</time>
      </trkpt>
      <trkpt lat="43.2482849993" lon="-4.2980758287">
        <ele>601.92</ele>
        <time>2018-05-19T19:55:48Z</time>
      </trkpt>
      <trkpt lat="43.2483829837" lon="-4.2979153991">
        <ele>600.00</ele>
        <time>2018-05-19T19:55:50Z</time>
      </trkpt>
      <trkpt lat="43.2484648749" lon="-4.2978029139">
        <ele>600.00</ele>
        <time>2018-05-19T19:55:52Z</time>
      </trkpt>
      <trkpt lat="43.2485683914" lon="-4.2976791132">
        <ele>597.60</ele>
        <time>2018-05-19T19:55:54Z</time>
      </trkpt>
      <trkpt lat="43.2486600894" lon="-4.2975535523">
        <ele>594.71</ele>
        <time>2018-05-19T19:55:56Z</time>
      </trkpt>
      <trkpt lat="43.2487451658" lon="-4.2974118143">
        <ele>592.79</ele>
        <time>2018-05-19T19:55:58Z</time>
      </trkpt>
      <trkpt lat="43.2488202676" lon="-4.2972606048">
        <ele>590.87</ele>
        <time>2018-05-19T19:56:00Z</time>
      </trkpt>
      <trkpt lat="43.2488926873" lon="-4.2970959842">
        <ele>587.98</ele>
        <time>2018-05-19T19:56:02Z</time>
      </trkpt>
      <trkpt lat="43.2489641849" lon="-4.2969394103">
        <ele>586.54</ele>
        <time>2018-05-19T19:56:04Z</time>
      </trkpt>
      <trkpt lat="43.2490336709" lon="-4.2967985105">
        <ele>583.66</ele>
        <time>2018-05-19T19:56:06Z</time>
      </trkpt>
      <trkpt lat="43.2491114549" lon="-4.2966547608">
        <ele>580.77</ele>
        <time>2018-05-19T19:56:08Z</time>
      </trkpt>
      <trkpt lat="43.2491832040" lon="-4.2965395097">
        <ele>578.37</ele>
        <time>2018-05-19T19:56:10Z</time>
      </trkpt>
      <trkpt lat="43.2492641732" lon="-4.2964029685">
        <ele>575.49</ele>
        <time>2018-05-19T19:56:12Z</time>
      </trkpt>
      <trkpt lat="43.2493392751" lon="-4.2962651700">
        <ele>572.12</ele>
        <time>2018-05-19T19:56:14Z</time>
      </trkpt>
      <trkpt lat="43.2494219206" lon="-4.2961144634">
        <ele>568.28</ele>
        <time>2018-05-19T19:56:16Z</time>
      </trkpt>
      <trkpt lat="43.2495286223" lon="-4.2959218472">
        <ele>565.39</ele>
        <time>2018-05-19T19:56:18Z</time>
      </trkpt>
      <trkpt lat="43.2496120222" lon="-4.2957629263">
        <ele>562.03</ele>
        <time>2018-05-19T19:56:20Z</time>
      </trkpt>
      <trkpt lat="43.2497053128" lon="-4.2955646943">
        <ele>559.62</ele>
        <time>2018-05-19T19:56:22Z</time>
      </trkpt>
      <trkpt lat="43.2497844379" lon="-4.2953566555">
        <ele>558.18</ele>
        <time>2018-05-19T19:56:24Z</time>
      </trkpt>
      <trkpt lat="43.2498467993" lon="-4.2951596808">
        <ele>557.70</ele>
        <time>2018-05-19T19:56:26Z</time>
      </trkpt>
      <trkpt lat="43.2499022875" lon="-4.2949715909">
        <ele>556.26</ele>
        <time>2018-05-19T19:56:28Z</time>
      </trkpt>
      <trkpt lat="43.2499638107" lon="-4.2948112451">
        <ele>555.30</ele>
        <time>2018-05-19T19:56:30Z</time>
      </trkpt>
      <trkpt lat="43.2500384934" lon="-4.2947047949">
        <ele>554.82</ele>
        <time>2018-05-19T19:56:32Z</time>
      </trkpt>
      <trkpt lat="43.2501271740" lon="-4.2946734466">
        <ele>553.38</ele>
        <time>2018-05-19T19:56:34Z</time>
      </trkpt>
      <trkpt lat="43.2502249070" lon="-4.2947233189">
        <ele>551.93</ele>
        <time>2018-05-19T19:56:36Z</time>
      </trkpt>
      <trkpt lat="43.2503292616" lon="-4.2948229797">
        <ele>550.01</ele>
        <time>2018-05-19T19:56:39Z</time>
      </trkpt>
      <trkpt lat="43.2504223008" lon="-4.2948125023">
        <ele>548.09</ele>
        <time>2018-05-19T19:56:42Z</time>
      </trkpt>
      <trkpt lat="43.2504516374" lon="-4.2946417630">
        <ele>545.69</ele>
        <time>2018-05-19T19:56:45Z</time>
      </trkpt>
      <trkpt lat="43.2504296768" lon="-4.2944545951">
        <ele>543.28</ele>
        <time>2018-05-19T19:56:48Z</time>
      </trkpt>
      <trkpt lat="43.2504129130" lon="-4.2943164613">
        <ele>541.84</ele>
        <time>2018-05-19T19:56:50Z</time>
      </trkpt>
      <trkpt lat="43.2503886893" lon="-4.2941840272">
        <ele>540.88</ele>
        <time>2018-05-19T19:56:52Z</time>
      </trkpt>
      <trkpt lat="43.2503725123" lon="-4.2940411996">
        <ele>538.48</ele>
        <time>2018-05-19T19:56:54Z</time>
      </trkpt>
      <trkpt lat="43.2504363824" lon="-4.2939153034">
        <ele>536.55</ele>
        <time>2018-05-19T19:56:56Z</time>
      </trkpt>
      <trkpt lat="43.2505564112" lon="-4.2938118707">
        <ele>534.63</ele>
        <time>2018-05-19T19:56:59Z</time>
      </trkpt>
      <trkpt lat="43.2506496180" lon="-4.2937332485">
        <ele>532.71</ele>
        <time>2018-05-19T19:57:01Z</time>
      </trkpt>
      <trkpt lat="43.2507515419" lon="-4.2936515249">
        <ele>530.30</ele>
        <time>2018-05-19T19:57:03Z</time>
      </trkpt>
      <trkpt lat="43.2508470956" lon="-4.2935830448">
        <ele>528.86</ele>
        <time>2018-05-19T19:57:05Z</time>
      </trkpt>
      <trkpt lat="43.2509631012" lon="-4.2935148161">
        <ele>525.98</ele>
        <time>2018-05-19T19:57:07Z</time>
      </trkpt>
      <trkpt lat="43.2510755025" lon="-4.2934746668">
        <ele>524.54</ele>
        <time>2018-05-19T19:57:09Z</time>
      </trkpt>
      <trkpt lat="43.2511879038" lon="-4.2934550531">
        <ele>523.09</ele>
        <time>2018-05-19T19:57:11Z</time>
      </trkpt>
      <trkpt lat="43.2512874808" lon="-4.2934496887">
        <ele>523.09</ele>
        <time>2018-05-19T19:57:13Z</time>
      </trkpt>
      <trkpt lat="43.2513785083" lon="-4.2934567295">
        <ele>522.61</ele>
        <time>2018-05-19T19:57:15Z</time>
      </trkpt>
      <trkpt lat="43.2514733076" lon="-4.2934295721">
        <ele>520.69</ele>
        <time>2018-05-19T19:57:17Z</time>
      </trkpt>
      <trkpt lat="43.2515743934" lon="-4.2934629321">
        <ele>519.25</ele>
        <time>2018-05-19T19:57:19Z</time>
      </trkpt>
      <trkpt lat="43.2516480703" lon="-4.2935575638">
        <ele>518.77</ele>
        <time>2018-05-19T19:57:21Z</time>
      </trkpt>
      <trkpt lat="43.2517347392" lon="-4.2936995532">
        <ele>517.33</ele>
        <time>2018-05-19T19:57:24Z</time>
      </trkpt>
      <trkpt lat="43.2517960109" lon="-4.2938225158">
        <ele>516.37</ele>
        <time>2018-05-19T19:57:26Z</time>
      </trkpt>
      <trkpt lat="43.2518364955" lon="-4.2939618230">
        <ele>514.92</ele>
        <time>2018-05-19T19:57:28Z</time>
      </trkpt>
      <trkpt lat="43.2518720347" lon="-4.2941110209">
        <ele>514.44</ele>
        <time>2018-05-19T19:57:30Z</time>
      </trkpt>
      <trkpt lat="43.2519319654" lon="-4.2942161299">
        <ele>513.00</ele>
        <time>2018-05-19T19:57:32Z</time>
      </trkpt>
      <trkpt lat="43.2520209812" lon="-4.2943022959">
        <ele>512.52</ele>
        <time>2018-05-19T19:57:34Z</time>
      </trkpt>
      <trkpt lat="43.2521161158" lon="-4.2943933234">
        <ele>511.56</ele>
        <time>2018-05-19T19:57:36Z</time>
      </trkpt>
      <trkpt lat="43.2522135973" lon="-4.2945113406">
        <ele>510.12</ele>
        <time>2018-05-19T19:57:38Z</time>
      </trkpt>
      <trkpt lat="43.2523044571" lon="-4.2946410924">
        <ele>508.67</ele>
        <time>2018-05-19T19:57:40Z</time>
      </trkpt>
      <trkpt lat="43.2523802295" lon="-4.2947811540">
        <ele>508.67</ele>
        <time>2018-05-19T19:57:42Z</time>
      </trkpt>
      <trkpt lat="43.2524477877" lon="-4.2948959861">
        <ele>507.23</ele>
        <time>2018-05-19T19:57:44Z</time>
      </trkpt>
      <trkpt lat="43.2525427546" lon="-4.2949754465">
        <ele>506.27</ele>
        <time>2018-05-19T19:57:46Z</time>
      </trkpt>
      <trkpt lat="43.2526606042" lon="-4.2950678989">
        <ele>504.83</ele>
        <time>2018-05-19T19:57:48Z</time>
      </trkpt>
      <trkpt lat="43.2527433336" lon="-4.2951367144">
        <ele>504.35</ele>
        <time>2018-05-19T19:57:50Z</time>
      </trkpt>
      <trkpt lat="43.2528540585" lon="-4.2951772828">
        <ele>503.39</ele>
        <time>2018-05-19T19:57:52Z</time>
      </trkpt>
      <trkpt lat="43.2529655378" lon="-4.2951806355">
        <ele>502.91</ele>
        <time>2018-05-19T19:57:54Z</time>
      </trkpt>
      <trkpt lat="43.2530696411" lon="-4.2952063680">
        <ele>502.91</ele>
        <time>2018-05-19T19:57:56Z</time>
      </trkpt>
      <trkpt lat="43.2531809527" lon="-4.2952851579">
        <ele>500.98</ele>
        <time>2018-05-19T19:57:58Z</time>
      </trkpt>
      <trkpt lat="43.2532467507" lon="-4.2953834776">
        <ele>500.02</ele>
        <time>2018-05-19T19:58:00Z</time>
      </trkpt>
      <trkpt lat="43.2532951981" lon="-4.2955301609">
        <ele>499.06</ele>
        <time>2018-05-19T19:58:02Z</time>
      </trkpt>
      <trkpt lat="43.2533065137" lon="-4.2956877407">
        <ele>498.58</ele>
        <time>2018-05-19T19:58:04Z</time>
      </trkpt>
      <trkpt lat="43.2532959525" lon="-4.2958483379">
        <ele>497.14</ele>
        <time>2018-05-19T19:58:06Z</time>
      </trkpt>
      <trkpt lat="43.2532817870" lon="-4.2959953565">
        <ele>496.66</ele>
        <time>2018-05-19T19:58:08Z</time>
      </trkpt>
      <trkpt lat="43.2532712258" lon="-4.2961572949">
        <ele>495.22</ele>
        <time>2018-05-19T19:58:10Z</time>
      </trkpt>
      <trkpt lat="43.2532685436" lon="-4.2963204067">
        <ele>494.74</ele>
        <time>2018-05-19T19:58:12Z</time>
      </trkpt>
      <trkpt lat="43.2532896660" lon="-4.2964831833">
        <ele>494.26</ele>
        <time>2018-05-19T19:58:14Z</time>
      </trkpt>
      <trkpt lat="43.2533483393" lon="-4.2966575269">
        <ele>492.81</ele>
        <time>2018-05-19T19:58:16Z</time>
      </trkpt>
      <trkpt lat="43.2533999719" lon="-4.2967955768">
        <ele>492.33</ele>
        <time>2018-05-19T19:58:18Z</time>
      </trkpt>
      <trkpt lat="43.2534408756" lon="-4.2969521508">
        <ele>490.89</ele>
        <time>2018-05-19T19:58:20Z</time>
      </trkpt>
      <trkpt lat="43.2534617465" lon="-4.2971111555">
        <ele>489.93</ele>
        <time>2018-05-19T19:58:22Z</time>
      </trkpt>
      <trkpt lat="43.2534918375" lon="-4.2972699925">
        <ele>489.45</ele>
        <time>2018-05-19T19:58:24Z</time>
      </trkpt>
      <trkpt lat="43.2535355072" lon="-4.2974201962">
        <ele>488.49</ele>
        <time>2018-05-19T19:58:26Z</time>
      </trkpt>
      <trkpt lat="43.2535396144" lon="-4.2975911871">
        <ele>487.53</ele>
        <time>2018-05-19T19:58:29Z</time>
      </trkpt>
      <trkpt lat="43.2535132952" lon="-4.2977465875">
        <ele>486.08</ele>
        <time>2018-05-19T19:58:32Z</time>
      </trkpt>
      <trkpt lat="43.2536106091" lon="-4.2977531254">
        <ele>484.64</ele>
        <time>2018-05-19T19:58:36Z</time>
      </trkpt>
      <trkpt lat="43.2536612358" lon="-4.2976232059">
        <ele>484.16</ele>
        <time>2018-05-19T19:58:38Z</time>
      </trkpt>
      <trkpt lat="43.2537107728" lon="-4.2974941246">
        <ele>483.68</ele>
        <time>2018-05-19T19:58:40Z</time>
      </trkpt>
      <trkpt lat="43.2537707873" lon="-4.2973581702">
        <ele>482.72</ele>
        <time>2018-05-19T19:58:42Z</time>
      </trkpt>
      <trkpt lat="43.2538006268" lon="-4.2972042784">
        <ele>481.76</ele>
        <time>2018-05-19T19:58:44Z</time>
      </trkpt>
      <trkpt lat="43.2537675183" lon="-4.2970360536">
        <ele>481.28</ele>
        <time>2018-05-19T19:58:46Z</time>
      </trkpt>
      <trkpt lat="43.2537344098" lon="-4.2969005182">
        <ele>480.80</ele>
        <time>2018-05-19T19:58:48Z</time>
      </trkpt>
      <trkpt lat="43.2537297159" lon="-4.2967452854">
        <ele>479.84</ele>
        <time>2018-05-19T19:58:50Z</time>
      </trkpt>
      <trkpt lat="43.2537723798" lon="-4.2965946626">
        <ele>479.84</ele>
        <time>2018-05-19T19:58:52Z</time>
      </trkpt>
      <trkpt lat="43.2538401894" lon="-4.2964451294">
        <ele>478.39</ele>
        <time>2018-05-19T19:58:54Z</time>
      </trkpt>
      <trkpt lat="43.2539416105" lon="-4.2963214964">
        <ele>477.91</ele>
        <time>2018-05-19T19:58:56Z</time>
      </trkpt>
      <trkpt lat="43.2540426962" lon="-4.2962644994">
        <ele>477.43</ele>
        <time>2018-05-19T19:58:58Z</time>
      </trkpt>
      <trkpt lat="43.2541561872" lon="-4.2962241825">
        <ele>476.47</ele>
        <time>2018-05-19T19:59:00Z</time>
      </trkpt>
      <trkpt lat="43.2542614639" lon="-4.2961762380">
        <ele>475.99</ele>
        <time>2018-05-19T19:59:02Z</time>
      </trkpt>
      <trkpt lat="43.2543493900" lon="-4.2961017229">
        <ele>475.99</ele>
        <time>2018-05-19T19:59:04Z</time>
      </trkpt>
      <trkpt lat="43.2544025313" lon="-4.2959796824">
        <ele>475.03</ele>
        <time>2018-05-19T19:59:06Z</time>
      </trkpt>
      <trkpt lat="43.2543986756" lon="-4.2958221026">
        <ele>473.59</ele>
        <time>2018-05-19T19:59:08Z</time>
      </trkpt>
      <trkpt lat="43.2543596160" lon="-4.2956708092">
        <ele>472.63</ele>
        <time>2018-05-19T19:59:10Z</time>
      </trkpt>
      <trkpt lat="43.2543058880" lon="-4.2955168337">
        <ele>471.66</ele>
        <time>2018-05-19T19:59:12Z</time>
      </trkpt>
      <trkpt lat="43.2542343903" lon="-4.2953431606">
        <ele>470.22</ele>
        <time>2018-05-19T19:59:14Z</time>
      </trkpt>
      <trkpt lat="43.2541766390" lon="-4.2952026799">
        <ele>470.22</ele>
        <time>2018-05-19T19:59:16Z</time>
      </trkpt>
      <trkpt lat="43.2541125175" lon="-4.2950516380">
        <ele>469.26</ele>
        <time>2018-05-19T19:59:18Z</time>
      </trkpt>
      <trkpt lat="43.2540479768" lon="-4.2948989198">
        <ele>467.82</ele>
        <time>2018-05-19T19:59:20Z</time>
      </trkpt>
      <trkpt lat="43.2539978530" lon="-4.2947417591">
        <ele>467.34</ele>
        <time>2018-05-19T19:59:22Z</time>
      </trkpt>
      <trkpt lat="43.2539892197" lon="-4.2945612967">
        <ele>466.38</ele>
        <time>2018-05-19T19:59:24Z</time>
      </trkpt>
      <trkpt lat="43.2540166285" lon="-4.2944163736">
        <ele>465.90</ele>
        <time>2018-05-19T19:59:26Z</time>
      </trkpt>
      <trkpt lat="43.2540258486" lon="-4.2942517530">
        <ele>464.93</ele>
        <time>2018-05-19T19:59:28Z</time>
      </trkpt>
      <trkpt lat="43.2539955061" lon="-4.2940824386">
        <ele>463.97</ele>
        <time>2018-05-19T19:59:30Z</time>
      </trkpt>
      <trkpt lat="43.2539447956" lon="-4.2939355038">
        <ele>463.49</ele>
        <time>2018-05-19T19:59:32Z</time>
      </trkpt>
      <trkpt lat="43.2539406046" lon="-4.2937661894">
        <ele>462.53</ele>
        <time>2018-05-19T19:59:34Z</time>
      </trkpt>
      <trkpt lat="43.2539894711" lon="-4.2936620023">
        <ele>462.05</ele>
        <time>2018-05-19T19:59:36Z</time>
      </trkpt>
      <trkpt lat="43.2540672552" lon="-4.2935560551">
        <ele>461.57</ele>
        <time>2018-05-19T19:59:38Z</time>
      </trkpt>
      <trkpt lat="43.2541146968" lon="-4.2934156582">
        <ele>460.13</ele>
        <time>2018-05-19T19:59:40Z</time>
      </trkpt>
      <trkpt lat="43.2541157864" lon="-4.2932470981">
        <ele>458.69</ele>
        <time>2018-05-19T19:59:42Z</time>
      </trkpt>
      <trkpt lat="43.2540895510" lon="-4.2930607684">
        <ele>457.72</ele>
        <time>2018-05-19T19:59:44Z</time>
      </trkpt>
      <trkpt lat="43.2540618908" lon="-4.2929108161">
        <ele>457.24</ele>
        <time>2018-05-19T19:59:46Z</time>
      </trkpt>
      <trkpt lat="43.2540275250" lon="-4.2927502189">
        <ele>456.28</ele>
        <time>2018-05-19T19:59:48Z</time>
      </trkpt>
      <trkpt lat="43.2539801672" lon="-4.2925806530">
        <ele>455.80</ele>
        <time>2018-05-19T19:59:50Z</time>
      </trkpt>
      <trkpt lat="43.2539297082" lon="-4.2924194690">
        <ele>454.36</ele>
        <time>2018-05-19T19:59:52Z</time>
      </trkpt>
      <trkpt lat="43.2538831886" lon="-4.2922242545">
        <ele>453.40</ele>
        <time>2018-05-19T19:59:54Z</time>
      </trkpt>
      <trkpt lat="43.2538587134" lon="-4.2920756433">
        <ele>452.44</ele>
        <time>2018-05-19T19:59:56Z</time>
      </trkpt>
      <trkpt lat="43.2538235933" lon="-4.2918937560">
        <ele>451.00</ele>
        <time>2018-05-19T19:59:58Z</time>
      </trkpt>
      <trkpt lat="43.2537840307" lon="-4.2917266209">
        <ele>449.07</ele>
        <time>2018-05-19T20:00:00Z</time>
      </trkpt>
      <trkpt lat="43.2537463121" lon="-4.2915697955">
        <ele>447.63</ele>
        <time>2018-05-19T20:00:02Z</time>
      </trkpt>
      <trkpt lat="43.2537209988" lon="-4.2914085276">
        <ele>446.67</ele>
        <time>2018-05-19T20:00:04Z</time>
      </trkpt>
      <trkpt lat="43.2537241001" lon="-4.2912552226">
        <ele>444.75</ele>
        <time>2018-05-19T20:00:06Z</time>
      </trkpt>
      <trkpt lat="43.2537474856" lon="-4.2910869140">
        <ele>443.31</ele>
        <time>2018-05-19T20:00:08Z</time>
      </trkpt>
      <trkpt lat="43.2537790854" lon="-4.2909305915">
        <ele>442.34</ele>
        <time>2018-05-19T20:00:10Z</time>
      </trkpt>
      <trkpt lat="43.2538083382" lon="-4.2907607742">
        <ele>440.42</ele>
        <time>2018-05-19T20:00:12Z</time>
      </trkpt>
      <trkpt lat="43.2538142893" lon="-4.2906051222">
        <ele>438.98</ele>
        <time>2018-05-19T20:00:14Z</time>
      </trkpt>
      <trkpt lat="43.2538370043" lon="-4.2904441897">
        <ele>438.02</ele>
        <time>2018-05-19T20:00:16Z</time>
      </trkpt>
      <trkpt lat="43.2538924925" lon="-4.2902891245">
        <ele>436.58</ele>
        <time>2018-05-19T20:00:18Z</time>
      </trkpt>
      <trkpt lat="43.2539464720" lon="-4.2901501525">
        <ele>435.61</ele>
        <time>2018-05-19T20:00:20Z</time>
      </trkpt>
      <trkpt lat="43.2539924048" lon="-4.2899888847">
        <ele>435.13</ele>
        <time>2018-05-19T20:00:22Z</time>
      </trkpt>
      <trkpt lat="43.2540471386" lon="-4.2898862902">
        <ele>433.69</ele>
        <time>2018-05-19T20:00:24Z</time>
      </trkpt>
      <trkpt lat="43.2541364897" lon="-4.2898080032">
        <ele>433.69</ele>
        <time>2018-05-19T20:00:26Z</time>
      </trkpt>
      <trkpt lat="43.2542373240" lon="-4.2897303868">
        <ele>432.73</ele>
        <time>2018-05-19T20:00:28Z</time>
      </trkpt>
      <trkpt lat="43.2543317042" lon="-4.2896329053">
        <ele>431.77</ele>
        <time>2018-05-19T20:00:30Z</time>
      </trkpt>
      <trkpt lat="43.2544401661" lon="-4.2895146366">
        <ele>429.37</ele>
        <time>2018-05-19T20:00:32Z</time>
      </trkpt>
      <trkpt lat="43.2545412518" lon="-4.2894124612">
        <ele>428.40</ele>
        <time>2018-05-19T20:00:34Z</time>
      </trkpt>
      <trkpt lat="43.2546471152" lon="-4.2893101182">
        <ele>427.44</ele>
        <time>2018-05-19T20:00:36Z</time>
      </trkpt>
      <trkpt lat="43.2547623664" lon="-4.2891903408">
        <ele>426.48</ele>
        <time>2018-05-19T20:00:38Z</time>
      </trkpt>
      <trkpt lat="43.2548834011" lon="-4.2890565656">
        <ele>425.52</ele>
        <time>2018-05-19T20:00:40Z</time>
      </trkpt>
      <trkpt lat="43.2549754344" lon="-4.2889502831">
        <ele>425.04</ele>
        <time>2018-05-19T20:00:42Z</time>
      </trkpt>
      <trkpt lat="43.2550745085" lon="-4.2888336070">
        <ele>424.08</ele>
        <time>2018-05-19T20:00:44Z</time>
      </trkpt>
      <trkpt lat="43.2551679667" lon="-4.2887127399">
        <ele>423.12</ele>
        <time>2018-05-19T20:00:46Z</time>
      </trkpt>
      <trkpt lat="43.2552682143" lon="-4.2885794677">
        <ele>422.64</ele>
        <time>2018-05-19T20:00:48Z</time>
      </trkpt>
      <trkpt lat="43.2553760894" lon="-4.2884425074">
        <ele>421.19</ele>
        <time>2018-05-19T20:00:50Z</time>
      </trkpt>
      <trkpt lat="43.2554905862" lon="-4.2883143481">
        <ele>420.23</ele>
        <time>2018-05-19T20:00:52Z</time>
      </trkpt>
      <trkpt lat="43.2556140516" lon="-4.2881956603">
        <ele>419.27</ele>
        <time>2018-05-19T20:00:54Z</time>
      </trkpt>
      <trkpt lat="43.2557245251" lon="-4.2880941555">
        <ele>419.27</ele>
        <time>2018-05-19T20:00:56Z</time>
      </trkpt>
      <trkpt lat="43.2558470685" lon="-4.2879905552">
        <ele>418.31</ele>
        <time>2018-05-19T20:00:58Z</time>
      </trkpt>
      <trkpt lat="43.2559549436" lon="-4.2878971808">
        <ele>417.35</ele>
        <time>2018-05-19T20:01:00Z</time>
      </trkpt>
      <trkpt lat="43.2560598850" lon="-4.2877709493">
        <ele>416.39</ele>
        <time>2018-05-19T20:01:02Z</time>
      </trkpt>
      <trkpt lat="43.2561485656" lon="-4.2876109388">
        <ele>415.43</ele>
        <time>2018-05-19T20:01:04Z</time>
      </trkpt>
      <trkpt lat="43.2562430296" lon="-4.2874614056">
        <ele>414.47</ele>
        <time>2018-05-19T20:01:06Z</time>
      </trkpt>
      <trkpt lat="43.2563541736" lon="-4.2873208411">
        <ele>414.47</ele>
        <time>2018-05-19T20:01:08Z</time>
      </trkpt>
      <trkpt lat="43.2564358134" lon="-4.2872121278">
        <ele>413.98</ele>
        <time>2018-05-19T20:01:10Z</time>
      </trkpt>
      <trkpt lat="43.2565063052" lon="-4.2871106230">
        <ele>413.98</ele>
        <time>2018-05-19T20:01:12Z</time>
      </trkpt>
      <trkpt lat="43.2566112466" lon="-4.2870681267">
        <ele>413.50</ele>
        <time>2018-05-19T20:01:15Z</time>
      </trkpt>
      <trkpt lat="43.2566181198" lon="-4.2872375250">
        <ele>412.06</ele>
        <time>2018-05-19T20:01:18Z</time>
      </trkpt>
      <trkpt lat="43.2565808203" lon="-4.2873682827">
        <ele>410.62</ele>
        <time>2018-05-19T20:01:20Z</time>
      </trkpt>
      <trkpt lat="43.2565287687" lon="-4.2875355016">
        <ele>409.66</ele>
        <time>2018-05-19T20:01:22Z</time>
      </trkpt>
      <trkpt lat="43.2564812433" lon="-4.2876927461">
        <ele>408.70</ele>
        <time>2018-05-19T20:01:24Z</time>
      </trkpt>
      <trkpt lat="43.2564323768" lon="-4.2878551036">
        <ele>408.22</ele>
        <time>2018-05-19T20:01:26Z</time>
      </trkpt>
      <trkpt lat="43.2563877013" lon="-4.2880255915">
        <ele>407.26</ele>
        <time>2018-05-19T20:01:28Z</time>
      </trkpt>
      <trkpt lat="43.2563468814" lon="-4.2882037908">
        <ele>405.81</ele>
        <time>2018-05-19T20:01:30Z</time>
      </trkpt>
      <trkpt lat="43.2563170418" lon="-4.2883843370">
        <ele>404.85</ele>
        <time>2018-05-19T20:01:32Z</time>
      </trkpt>
      <trkpt lat="43.2563080732" lon="-4.2885700800">
        <ele>404.37</ele>
        <time>2018-05-19T20:01:34Z</time>
      </trkpt>
      <trkpt lat="43.2562934048" lon="-4.2887588404">
        <ele>402.93</ele>
        <time>2018-05-19T20:01:36Z</time>
      </trkpt>
      <trkpt lat="43.2562448736" lon="-4.2889046855">
        <ele>401.97</ele>
        <time>2018-05-19T20:01:38Z</time>
      </trkpt>
      <trkpt lat="43.2561568636" lon="-4.2890147399">
        <ele>401.01</ele>
        <time>2018-05-19T20:01:40Z</time>
      </trkpt>
      <trkpt lat="43.2560570352" lon="-4.2891094554">
        <ele>400.05</ele>
        <time>2018-05-19T20:01:42Z</time>
      </trkpt>
      <trkpt lat="43.2559902314" lon="-4.2892490979">
        <ele>399.57</ele>
        <time>2018-05-19T20:01:44Z</time>
      </trkpt>
      <trkpt lat="43.2559686899" lon="-4.2894380260">
        <ele>399.08</ele>
        <time>2018-05-19T20:01:46Z</time>
      </trkpt>
      <trkpt lat="43.2559824362" lon="-4.2896113638">
        <ele>398.12</ele>
        <time>2018-05-19T20:01:48Z</time>
      </trkpt>
      <trkpt lat="43.2560256869" lon="-4.2897883058">
        <ele>396.68</ele>
        <time>2018-05-19T20:01:50Z</time>
      </trkpt>
      <trkpt lat="43.2560649142" lon="-4.2899604701">
        <ele>395.72</ele>
        <time>2018-05-19T20:01:52Z</time>
      </trkpt>
      <trkpt lat="43.2561169658" lon="-4.2901301198">
        <ele>393.32</ele>
        <time>2018-05-19T20:01:54Z</time>
      </trkpt>
      <trkpt lat="43.2562222425" lon="-4.2902982607">
        <ele>389.95</ele>
        <time>2018-05-19T20:01:56Z</time>
      </trkpt>
      <trkpt lat="43.2563286088" lon="-4.2904118355">
        <ele>388.51</ele>
        <time>2018-05-19T20:01:58Z</time>
      </trkpt>
      <trkpt lat="43.2564545050" lon="-4.2904909607">
        <ele>386.59</ele>
        <time>2018-05-19T20:02:00Z</time>
      </trkpt>
      <trkpt lat="43.2565779705" lon="-4.2905591056">
        <ele>386.11</ele>
        <time>2018-05-19T20:02:02Z</time>
      </trkpt>
      <trkpt lat="43.2567034476" lon="-4.2906297650">
        <ele>383.70</ele>
        <time>2018-05-19T20:02:04Z</time>
      </trkpt>
      <trkpt lat="43.2568290923" lon="-4.2907161824">
        <ele>381.78</ele>
        <time>2018-05-19T20:02:06Z</time>
      </trkpt>
      <trkpt lat="43.2569476962" lon="-4.2908278294">
        <ele>380.34</ele>
        <time>2018-05-19T20:02:08Z</time>
      </trkpt>
      <trkpt lat="43.2570698205" lon="-4.2909553181">
        <ele>378.42</ele>
        <time>2018-05-19T20:02:10Z</time>
      </trkpt>
      <trkpt lat="43.2571855746" lon="-4.2910838965">
        <ele>377.45</ele>
        <time>2018-05-19T20:02:12Z</time>
      </trkpt>
      <trkpt lat="43.2572934497" lon="-4.2912220303">
        <ele>376.01</ele>
        <time>2018-05-19T20:02:14Z</time>
      </trkpt>
      <trkpt lat="43.2573843934" lon="-4.2913605832">
        <ele>374.57</ele>
        <time>2018-05-19T20:02:16Z</time>
      </trkpt>
      <trkpt lat="43.2574872393" lon="-4.2914993037">
        <ele>372.65</ele>
        <time>2018-05-19T20:02:18Z</time>
      </trkpt>
      <trkpt lat="43.2575853914" lon="-4.2916222662">
        <ele>371.69</ele>
        <time>2018-05-19T20:02:20Z</time>
      </trkpt>
      <trkpt lat="43.2576899976" lon="-4.2917464022">
        <ele>371.21</ele>
        <time>2018-05-19T20:02:22Z</time>
      </trkpt>
      <trkpt lat="43.2578059193" lon="-4.2918494996">
        <ele>368.80</ele>
        <time>2018-05-19T20:02:24Z</time>
      </trkpt>
      <trkpt lat="43.2579102740" lon="-4.2919078376">
        <ele>366.88</ele>
        <time>2018-05-19T20:02:26Z</time>
      </trkpt>
      <trkpt lat="43.2580437977" lon="-4.2919661757">
        <ele>365.44</ele>
        <time>2018-05-19T20:02:28Z</time>
      </trkpt>
      <trkpt lat="43.2581647485" lon="-4.2920458037">
        <ele>364.48</ele>
        <time>2018-05-19T20:02:30Z</time>
      </trkpt>
      <trkpt lat="43.2582790777" lon="-4.2921628151">
        <ele>362.55</ele>
        <time>2018-05-19T20:02:32Z</time>
      </trkpt>
      <trkpt lat="43.2583804149" lon="-4.2923219875">
        <ele>361.59</ele>
        <time>2018-05-19T20:02:34Z</time>
      </trkpt>
      <trkpt lat="43.2584590372" lon="-4.2924681678">
        <ele>361.11</ele>
        <time>2018-05-19T20:02:36Z</time>
      </trkpt>
      <trkpt lat="43.2585410960" lon="-4.2926156055">
        <ele>360.63</ele>
        <time>2018-05-19T20:02:38Z</time>
      </trkpt>
      <trkpt lat="43.2586275972" lon="-4.2927443516">
        <ele>360.63</ele>
        <time>2018-05-19T20:02:40Z</time>
      </trkpt>
      <trkpt lat="43.2587142661" lon="-4.2928700801">
        <ele>360.63</ele>
        <time>2018-05-19T20:02:42Z</time>
      </trkpt>
      <trkpt lat="43.2587989233" lon="-4.2930145003">
        <ele>359.67</ele>
        <time>2018-05-19T20:02:44Z</time>
      </trkpt>
      <trkpt lat="43.2588629611" lon="-4.2931357026">
        <ele>358.71</ele>
        <time>2018-05-19T20:02:46Z</time>
      </trkpt>
      <trkpt lat="43.2589325309" lon="-4.2932680529">
        <ele>356.79</ele>
        <time>2018-05-19T20:02:48Z</time>
      </trkpt>
      <trkpt lat="43.2590168528" lon="-4.2934090365">
        <ele>354.38</ele>
        <time>2018-05-19T20:02:50Z</time>
      </trkpt>
      <trkpt lat="43.2591037732" lon="-4.2935327534">
        <ele>352.94</ele>
        <time>2018-05-19T20:02:52Z</time>
      </trkpt>
      <trkpt lat="43.2592056133" lon="-4.2936346773">
        <ele>350.54</ele>
        <time>2018-05-19T20:02:54Z</time>
      </trkpt>
      <trkpt lat="43.2592912763" lon="-4.2936780956">
        <ele>349.10</ele>
        <time>2018-05-19T20:02:56Z</time>
      </trkpt>
      <trkpt lat="43.2594018336" lon="-4.2937321588">
        <ele>346.69</ele>
        <time>2018-05-19T20:02:58Z</time>
      </trkpt>
      <trkpt lat="43.2594950404" lon="-4.2938386928">
        <ele>344.29</ele>
        <time>2018-05-19T20:03:00Z</time>
      </trkpt>
      <trkpt lat="43.2595549710" lon="-4.2940079235">
        <ele>342.37</ele>
        <time>2018-05-19T20:03:02Z</time>
      </trkpt>
      <trkpt lat="43.2595661189" lon="-4.2941422015">
        <ele>340.92</ele>
        <time>2018-05-19T20:03:04Z</time>
      </trkpt>
      <trkpt lat="43.2595757581" lon="-4.2943028826">
        <ele>339.48</ele>
        <time>2018-05-19T20:03:06Z</time>
      </trkpt>
      <trkpt lat="43.2596003171" lon="-4.2944750469">
        <ele>337.08</ele>
        <time>2018-05-19T20:03:08Z</time>
      </trkpt>
      <trkpt lat="43.2596473396" lon="-4.2946522404">
        <ele>334.68</ele>
        <time>2018-05-19T20:03:10Z</time>
      </trkpt>
      <trkpt lat="43.2597076055" lon="-4.2947787233">
        <ele>332.27</ele>
        <time>2018-05-19T20:03:12Z</time>
      </trkpt>
      <trkpt lat="43.2597879879" lon="-4.2948791385">
        <ele>330.35</ele>
        <time>2018-05-19T20:03:14Z</time>
      </trkpt>
      <trkpt lat="43.2598863915" lon="-4.2949226405">
        <ele>327.95</ele>
        <time>2018-05-19T20:03:16Z</time>
      </trkpt>
      <trkpt lat="43.2599967811" lon="-4.2948960699">
        <ele>326.02</ele>
        <time>2018-05-19T20:03:18Z</time>
      </trkpt>
      <trkpt lat="43.2601313945" lon="-4.2948255781">
        <ele>325.06</ele>
        <time>2018-05-19T20:03:20Z</time>
      </trkpt>
      <trkpt lat="43.2602448855" lon="-4.2947728559">
        <ele>324.58</ele>
        <time>2018-05-19T20:03:22Z</time>
      </trkpt>
      <trkpt lat="43.2603607234" lon="-4.2947312817">
        <ele>324.10</ele>
        <time>2018-05-19T20:03:24Z</time>
      </trkpt>
      <trkpt lat="43.2604854461" lon="-4.2946804035">
        <ele>323.62</ele>
        <time>2018-05-19T20:03:26Z</time>
      </trkpt>
      <trkpt lat="43.2605923992" lon="-4.2945839278">
        <ele>323.14</ele>
        <time>2018-05-19T20:03:28Z</time>
      </trkpt>
      <trkpt lat="43.2606581133" lon="-4.2944392562">
        <ele>322.18</ele>
        <time>2018-05-19T20:03:30Z</time>
      </trkpt>
      <trkpt lat="43.2606992684" lon="-4.2942781560">
        <ele>320.74</ele>
        <time>2018-05-19T20:03:32Z</time>
      </trkpt>
      <trkpt lat="43.2607598696" lon="-4.2941194866">
        <ele>318.81</ele>
        <time>2018-05-19T20:03:34Z</time>
      </trkpt>
      <trkpt lat="43.2608484663" lon="-4.2939736415">
        <ele>315.93</ele>
        <time>2018-05-19T20:03:36Z</time>
      </trkpt>
      <trkpt lat="43.2609401643" lon="-4.2938195821">
        <ele>313.53</ele>
        <time>2018-05-19T20:03:38Z</time>
      </trkpt>
      <trkpt lat="43.2609774638" lon="-4.2936888244">
        <ele>312.57</ele>
        <time>2018-05-19T20:03:40Z</time>
      </trkpt>
      <trkpt lat="43.2609646395" lon="-4.2935491819">
        <ele>310.64</ele>
        <time>2018-05-19T20:03:42Z</time>
      </trkpt>
      <trkpt lat="43.2608892024" lon="-4.2934351042">
        <ele>309.20</ele>
        <time>2018-05-19T20:03:44Z</time>
      </trkpt>
      <trkpt lat="43.2607685868" lon="-4.2933642771">
        <ele>308.24</ele>
        <time>2018-05-19T20:03:46Z</time>
      </trkpt>
      <trkpt lat="43.2606443670" lon="-4.2933683004">
        <ele>307.28</ele>
        <time>2018-05-19T20:03:48Z</time>
      </trkpt>
      <trkpt lat="43.2605356537" lon="-4.2933049332">
        <ele>306.80</ele>
        <time>2018-05-19T20:03:51Z</time>
      </trkpt>
      <trkpt lat="43.2605872024" lon="-4.2931376304">
        <ele>304.39</ele>
        <time>2018-05-19T20:03:54Z</time>
      </trkpt>
      <trkpt lat="43.2606790680" lon="-4.2930841539">
        <ele>303.43</ele>
        <time>2018-05-19T20:03:56Z</time>
      </trkpt>
      <trkpt lat="43.2607953250" lon="-4.2930629477">
        <ele>302.95</ele>
        <time>2018-05-19T20:03:59Z</time>
      </trkpt>
      <trkpt lat="43.2608518191" lon="-4.2930699885">
        <ele>302.47</ele>
        <time>2018-05-19T20:04:24Z</time>
      </trkpt>
      <trkpt lat="43.2609528210" lon="-4.2930995766">
        <ele>301.51</ele>
        <time>2018-05-19T20:05:07Z</time>
      </trkpt>
      <trkpt lat="43.2610828243" lon="-4.2931420729">
        <ele>299.59</ele>
        <time>2018-05-19T20:05:10Z</time>
      </trkpt>
      <trkpt lat="43.2611694932" lon="-4.2931813840">
        <ele>298.63</ele>
        <time>2018-05-19T20:05:12Z</time>
      </trkpt>
      <trkpt lat="43.2612673938" lon="-4.2932428233">
        <ele>297.18</ele>
        <time>2018-05-19T20:05:14Z</time>
      </trkpt>
      <trkpt lat="43.2613778673" lon="-4.2933610082">
        <ele>295.74</ele>
        <time>2018-05-19T20:05:17Z</time>
      </trkpt>
      <trkpt lat="43.2614564896" lon="-4.2934717331">
        <ele>294.30</ele>
        <time>2018-05-19T20:05:19Z</time>
      </trkpt>
      <trkpt lat="43.2615336869" lon="-4.2935944442">
        <ele>292.86</ele>
        <time>2018-05-19T20:05:21Z</time>
      </trkpt>
      <trkpt lat="43.2616169192" lon="-4.2937200051">
        <ele>290.94</ele>
        <time>2018-05-19T20:05:23Z</time>
      </trkpt>
      <trkpt lat="43.2617019955" lon="-4.2938236054">
        <ele>289.49</ele>
        <time>2018-05-19T20:05:25Z</time>
      </trkpt>
      <trkpt lat="43.2617872395" lon="-4.2939182371">
        <ele>288.53</ele>
        <time>2018-05-19T20:05:27Z</time>
      </trkpt>
      <trkpt lat="43.2618734054" lon="-4.2939941771">
        <ele>286.61</ele>
        <time>2018-05-19T20:05:29Z</time>
      </trkpt>
      <trkpt lat="43.2619728986" lon="-4.2940287106">
        <ele>284.69</ele>
        <time>2018-05-19T20:05:31Z</time>
      </trkpt>
      <trkpt lat="43.2620966155" lon="-4.2940287106">
        <ele>282.28</ele>
        <time>2018-05-19T20:05:33Z</time>
      </trkpt>
      <trkpt lat="43.2622222602" lon="-4.2939862143">
        <ele>280.36</ele>
        <time>2018-05-19T20:05:35Z</time>
      </trkpt>
      <trkpt lat="43.2623400260" lon="-4.2939069215">
        <ele>278.92</ele>
        <time>2018-05-19T20:05:37Z</time>
      </trkpt>
      <trkpt lat="43.2624313049" lon="-4.2937926762">
        <ele>277.48</ele>
        <time>2018-05-19T20:05:39Z</time>
      </trkpt>
      <trkpt lat="43.2624995336" lon="-4.2936475854">
        <ele>275.56</ele>
        <time>2018-05-19T20:05:41Z</time>
      </trkpt>
      <trkpt lat="43.2625584584" lon="-4.2934776004">
        <ele>273.15</ele>
        <time>2018-05-19T20:05:43Z</time>
      </trkpt>
      <trkpt lat="43.2626351528" lon="-4.2933014128">
        <ele>270.75</ele>
        <time>2018-05-19T20:05:45Z</time>
      </trkpt>
      <trkpt lat="43.2627013698" lon="-4.2931799591">
        <ele>269.79</ele>
        <time>2018-05-19T20:05:47Z</time>
      </trkpt>
      <trkpt lat="43.2627659943" lon="-4.2930394784">
        <ele>268.83</ele>
        <time>2018-05-19T20:05:49Z</time>
      </trkpt>
      <trkpt lat="43.2628200576" lon="-4.2928757798">
        <ele>267.38</ele>
        <time>2018-05-19T20:05:51Z</time>
      </trkpt>
      <trkpt lat="43.2628777251" lon="-4.2927238159">
        <ele>265.94</ele>
        <time>2018-05-19T20:05:53Z</time>
      </trkpt>
      <trkpt lat="43.2629457023" lon="-4.2925839219">
        <ele>265.46</ele>
        <time>2018-05-19T20:05:55Z</time>
      </trkpt>
      <trkpt lat="43.2630028669" lon="-4.2924527451">
        <ele>264.50</ele>
        <time>2018-05-19T20:05:57Z</time>
      </trkpt>
      <trkpt lat="43.2630278450" lon="-4.2922953330">
        <ele>262.58</ele>
        <time>2018-05-19T20:05:59Z</time>
      </trkpt>
      <trkpt lat="43.2630347181" lon="-4.2921326403">
        <ele>260.17</ele>
        <time>2018-05-19T20:06:01Z</time>
      </trkpt>
      <trkpt lat="43.2630504761" lon="-4.2919249367">
        <ele>257.29</ele>
        <time>2018-05-19T20:06:03Z</time>
      </trkpt>
      <trkpt lat="43.2630752027" lon="-4.2917713802">
        <ele>256.33</ele>
        <time>2018-05-19T20:06:05Z</time>
      </trkpt>
      <trkpt lat="43.2630825788" lon="-4.2916235235">
        <ele>254.89</ele>
        <time>2018-05-19T20:06:07Z</time>
      </trkpt>
      <trkpt lat="43.2630768791" lon="-4.2914730683">
        <ele>252.96</ele>
        <time>2018-05-19T20:06:09Z</time>
      </trkpt>
      <trkpt lat="43.2630667370" lon="-4.2913146503">
        <ele>250.56</ele>
        <time>2018-05-19T20:06:11Z</time>
      </trkpt>
      <trkpt lat="43.2630560081" lon="-4.2911523767">
        <ele>248.16</ele>
        <time>2018-05-19T20:06:13Z</time>
      </trkpt>
      <trkpt lat="43.2630411722" lon="-4.2909808829">
        <ele>246.23</ele>
        <time>2018-05-19T20:06:15Z</time>
      </trkpt>
      <trkpt lat="43.2630080637" lon="-4.2908235546">
        <ele>245.27</ele>
        <time>2018-05-19T20:06:17Z</time>
      </trkpt>
      <trkpt lat="43.2629537489" lon="-4.2906857561">
        <ele>244.79</ele>
        <time>2018-05-19T20:06:19Z</time>
      </trkpt>
      <trkpt lat="43.2628721092" lon="-4.2905114125">
        <ele>242.87</ele>
        <time>2018-05-19T20:06:21Z</time>
      </trkpt>
      <trkpt lat="43.2628019527" lon="-4.2903641425">
        <ele>242.39</ele>
        <time>2018-05-19T20:06:23Z</time>
      </trkpt>
      <trkpt lat="43.2627292816" lon="-4.2902068142">
        <ele>240.95</ele>
        <time>2018-05-19T20:06:25Z</time>
      </trkpt>
      <trkpt lat="43.2626603823" lon="-4.2900502402">
        <ele>240.47</ele>
        <time>2018-05-19T20:06:27Z</time>
      </trkpt>
      <trkpt lat="43.2625910640" lon="-4.2898893915">
        <ele>239.02</ele>
        <time>2018-05-19T20:06:29Z</time>
      </trkpt>
      <trkpt lat="43.2625147887" lon="-4.2897118628">
        <ele>237.58</ele>
        <time>2018-05-19T20:06:31Z</time>
      </trkpt>
      <trkpt lat="43.2624511700" lon="-4.2895540316">
        <ele>236.14</ele>
        <time>2018-05-19T20:06:33Z</time>
      </trkpt>
      <trkpt lat="43.2623873837" lon="-4.2893684562">
        <ele>235.18</ele>
        <time>2018-05-19T20:06:35Z</time>
      </trkpt>
      <trkpt lat="43.2623530179" lon="-4.2891978845">
        <ele>234.70</ele>
        <time>2018-05-19T20:06:37Z</time>
      </trkpt>
      <trkpt lat="43.2623142935" lon="-4.2890273128">
        <ele>234.70</ele>
        <time>2018-05-19T20:06:39Z</time>
      </trkpt>
      <trkpt lat="43.2622678578" lon="-4.2888400611">
        <ele>233.74</ele>
        <time>2018-05-19T20:06:41Z</time>
      </trkpt>
      <trkpt lat="43.2622363418" lon="-4.2886865884">
        <ele>233.74</ele>
        <time>2018-05-19T20:06:43Z</time>
      </trkpt>
      <trkpt lat="43.2622049935" lon="-4.2885129154">
        <ele>233.26</ele>
        <time>2018-05-19T20:06:45Z</time>
      </trkpt>
      <trkpt lat="43.2621919177" lon="-4.2883306928">
        <ele>232.30</ele>
        <time>2018-05-19T20:06:47Z</time>
      </trkpt>
      <trkpt lat="43.2622135431" lon="-4.2881587800">
        <ele>231.81</ele>
        <time>2018-05-19T20:06:49Z</time>
      </trkpt>
      <trkpt lat="43.2622615714" lon="-4.2879733723">
        <ele>231.81</ele>
        <time>2018-05-19T20:06:51Z</time>
      </trkpt>
      <trkpt lat="43.2623063307" lon="-4.2878317181">
        <ele>231.81</ele>
        <time>2018-05-19T20:06:53Z</time>
      </trkpt>
      <trkpt lat="43.2623584662" lon="-4.2876937520">
        <ele>231.81</ele>
        <time>2018-05-19T20:06:55Z</time>
      </trkpt>
      <trkpt lat="43.2624097634" lon="-4.2875446379">
        <ele>231.33</ele>
        <time>2018-05-19T20:06:57Z</time>
      </trkpt>
      <trkpt lat="43.2624571212" lon="-4.2873913329">
        <ele>231.33</ele>
        <time>2018-05-19T20:06:59Z</time>
      </trkpt>
      <trkpt lat="43.2624873798" lon="-4.2872488406">
        <ele>231.33</ele>
        <time>2018-05-19T20:07:01Z</time>
      </trkpt>
      <trkpt lat="43.2625132799" lon="-4.2870972957">
        <ele>232.30</ele>
        <time>2018-05-19T20:07:03Z</time>
      </trkpt>
      <trkpt lat="43.2625318877" lon="-4.2869393807">
        <ele>232.30</ele>
        <time>2018-05-19T20:07:05Z</time>
      </trkpt>
      <trkpt lat="43.2625479810" lon="-4.2867750116">
        <ele>232.30</ele>
        <time>2018-05-19T20:07:07Z</time>
      </trkpt>
      <trkpt lat="43.2625629008" lon="-4.2865934595">
        <ele>230.85</ele>
        <time>2018-05-19T20:07:09Z</time>
      </trkpt>
      <trkpt lat="43.2625781558" lon="-4.2864203732">
        <ele>229.89</ele>
        <time>2018-05-19T20:07:11Z</time>
      </trkpt>
      <trkpt lat="43.2625951711" lon="-4.2862273380">
        <ele>228.93</ele>
        <time>2018-05-19T20:07:13Z</time>
      </trkpt>
      <trkpt lat="43.2626098394" lon="-4.2860281002">
        <ele>228.45</ele>
        <time>2018-05-19T20:07:15Z</time>
      </trkpt>
      <trkpt lat="43.2626247592" lon="-4.2858209834">
        <ele>227.49</ele>
        <time>2018-05-19T20:07:17Z</time>
      </trkpt>
      <trkpt lat="43.2626395952" lon="-4.2855914030">
        <ele>227.01</ele>
        <time>2018-05-19T20:07:19Z</time>
      </trkpt>
      <trkpt lat="43.2626506593" lon="-4.2854052410">
        <ele>227.01</ele>
        <time>2018-05-19T20:07:21Z</time>
      </trkpt>
      <trkpt lat="43.2626618911" lon="-4.2852128763">
        <ele>226.53</ele>
        <time>2018-05-19T20:07:23Z</time>
      </trkpt>
      <trkpt lat="43.2626749668" lon="-4.2850248702">
        <ele>226.53</ele>
        <time>2018-05-19T20:07:25Z</time>
      </trkpt>
      <trkpt lat="43.2626881264" lon="-4.2848491017">
        <ele>227.01</ele>
        <time>2018-05-19T20:07:27Z</time>
      </trkpt>
      <trkpt lat="43.2627095003" lon="-4.2846812960">
        <ele>226.53</ele>
        <time>2018-05-19T20:07:29Z</time>
      </trkpt>
      <trkpt lat="43.2627426088" lon="-4.2844922841">
        <ele>225.57</ele>
        <time>2018-05-19T20:07:31Z</time>
      </trkpt>
      <trkpt lat="43.2627878711" lon="-4.2842857540">
        <ele>224.12</ele>
        <time>2018-05-19T20:07:33Z</time>
      </trkpt>
      <trkpt lat="43.2628506515" lon="-4.2840772960">
        <ele>223.16</ele>
        <time>2018-05-19T20:07:35Z</time>
      </trkpt>
      <trkpt lat="43.2629208080" lon="-4.2838490568">
        <ele>222.68</ele>
        <time>2018-05-19T20:07:37Z</time>
      </trkpt>
      <trkpt lat="43.2629790623" lon="-4.2836718634">
        <ele>222.20</ele>
        <time>2018-05-19T20:07:39Z</time>
      </trkpt>
      <trkpt lat="43.2630202174" lon="-4.2835563608">
        <ele>221.72</ele>
        <time>2018-05-19T20:07:40Z</time>
      </trkpt>
      <trkpt lat="43.2630874403" lon="-4.2833748087">
        <ele>220.76</ele>
        <time>2018-05-19T20:07:42Z</time>
      </trkpt>
      <trkpt lat="43.2631644700" lon="-4.2831811868">
        <ele>220.28</ele>
        <time>2018-05-19T20:07:44Z</time>
      </trkpt>
      <trkpt lat="43.2632637955" lon="-4.2829839606">
        <ele>220.76</ele>
        <time>2018-05-19T20:07:46Z</time>
      </trkpt>
      <trkpt lat="43.2633461896" lon="-4.2828324996">
        <ele>220.28</ele>
        <time>2018-05-19T20:07:48Z</time>
      </trkpt>
      <trkpt lat="43.2634336129" lon="-4.2826666217">
        <ele>220.28</ele>
        <time>2018-05-19T20:07:50Z</time>
      </trkpt>
      <trkpt lat="43.2635021769" lon="-4.2825124785">
        <ele>220.76</ele>
        <time>2018-05-19T20:07:52Z</time>
      </trkpt>
      <trkpt lat="43.2635604311" lon="-4.2823545635">
        <ele>222.68</ele>
        <time>2018-05-19T20:07:54Z</time>
      </trkpt>
      <trkpt lat="43.2636008319" lon="-4.2822155915">
        <ele>223.16</ele>
        <time>2018-05-19T20:07:56Z</time>
      </trkpt>
      <trkpt lat="43.2636355329" lon="-4.2820629571">
        <ele>223.64</ele>
        <time>2018-05-19T20:07:58Z</time>
      </trkpt>
      <trkpt lat="43.2636514585" lon="-4.2819280084">
        <ele>223.64</ele>
        <time>2018-05-19T20:08:00Z</time>
      </trkpt>
      <trkpt lat="43.2636570744" lon="-4.2817772180">
        <ele>224.12</ele>
        <time>2018-05-19T20:08:02Z</time>
      </trkpt>
      <trkpt lat="43.2636575773" lon="-4.2816115916">
        <ele>224.12</ele>
        <time>2018-05-19T20:08:04Z</time>
      </trkpt>
      <trkpt lat="43.2636530511" lon="-4.2814869527">
        <ele>224.61</ele>
        <time>2018-05-19T20:08:06Z</time>
      </trkpt>
      <trkpt lat="43.2636313420" lon="-4.2813545186">
        <ele>225.57</ele>
        <time>2018-05-19T20:08:08Z</time>
      </trkpt>
      <trkpt lat="43.2635922823" lon="-4.2812318914">
        <ele>226.05</ele>
        <time>2018-05-19T20:08:10Z</time>
      </trkpt>
      <trkpt lat="43.2635397278" lon="-4.2811220884">
        <ele>226.53</ele>
        <time>2018-05-19T20:08:12Z</time>
      </trkpt>
      <trkpt lat="43.2634830661" lon="-4.2810060829">
        <ele>226.53</ele>
        <time>2018-05-19T20:08:14Z</time>
      </trkpt>
      <trkpt lat="43.2634040248" lon="-4.2808562983">
        <ele>227.01</ele>
        <time>2018-05-19T20:08:17Z</time>
      </trkpt>
      <trkpt lat="43.2633414958" lon="-4.2807422206">
        <ele>227.01</ele>
        <time>2018-05-19T20:08:19Z</time>
      </trkpt>
      <trkpt lat="43.2632699143" lon="-4.2806085292">
        <ele>224.61</ele>
        <time>2018-05-19T20:08:21Z</time>
      </trkpt>
      <trkpt lat="43.2631896157" lon="-4.2804556433">
        <ele>223.16</ele>
        <time>2018-05-19T20:08:23Z</time>
      </trkpt>
      <trkpt lat="43.2631368935" lon="-4.2803502828">
        <ele>222.68</ele>
        <time>2018-05-19T20:08:24Z</time>
      </trkpt>
      <trkpt lat="43.2630691677" lon="-4.2802046053">
        <ele>222.20</ele>
        <time>2018-05-19T20:08:26Z</time>
      </trkpt>
      <trkpt lat="43.2630041242" lon="-4.2800289206">
        <ele>222.20</ele>
        <time>2018-05-19T20:08:28Z</time>
      </trkpt>
      <trkpt lat="43.2629608735" lon="-4.2798498832">
        <ele>221.24</ele>
        <time>2018-05-19T20:08:30Z</time>
      </trkpt>
      <trkpt lat="43.2629331294" lon="-4.2796736117">
        <ele>220.28</ele>
        <time>2018-05-19T20:08:32Z</time>
      </trkpt>
      <trkpt lat="43.2629087381" lon="-4.2794659920">
        <ele>218.84</ele>
        <time>2018-05-19T20:08:34Z</time>
      </trkpt>
      <trkpt lat="43.2628733665" lon="-4.2792980187">
        <ele>218.36</ele>
        <time>2018-05-19T20:08:36Z</time>
      </trkpt>
      <trkpt lat="43.2627999410" lon="-4.2791362479">
        <ele>217.88</ele>
        <time>2018-05-19T20:08:38Z</time>
      </trkpt>
      <trkpt lat="43.2626904733" lon="-4.2790614814">
        <ele>217.88</ele>
        <time>2018-05-19T20:08:40Z</time>
      </trkpt>
      <trkpt lat="43.2625649124" lon="-4.2790108547">
        <ele>217.88</ele>
        <time>2018-05-19T20:08:42Z</time>
      </trkpt>
      <trkpt lat="43.2624229230" lon="-4.2789272871">
        <ele>217.40</ele>
        <time>2018-05-19T20:08:44Z</time>
      </trkpt>
      <trkpt lat="43.2623121142" lon="-4.2788324878">
        <ele>215.95</ele>
        <time>2018-05-19T20:08:46Z</time>
      </trkpt>
      <trkpt lat="43.2621754892" lon="-4.2787069269">
        <ele>214.03</ele>
        <time>2018-05-19T20:08:48Z</time>
      </trkpt>
      <trkpt lat="43.2620478328" lon="-4.2786106188">
        <ele>213.55</ele>
        <time>2018-05-19T20:08:50Z</time>
      </trkpt>
      <trkpt lat="43.2619205117" lon="-4.2785216868">
        <ele>213.07</ele>
        <time>2018-05-19T20:08:52Z</time>
      </trkpt>
      <trkpt lat="43.2617699727" lon="-4.2784066871">
        <ele>211.63</ele>
        <time>2018-05-19T20:08:54Z</time>
      </trkpt>
      <trkpt lat="43.2616582420" lon="-4.2783119716">
        <ele>210.19</ele>
        <time>2018-05-19T20:08:56Z</time>
      </trkpt>
      <trkpt lat="43.2615355309" lon="-4.2781976424">
        <ele>209.22</ele>
        <time>2018-05-19T20:08:58Z</time>
      </trkpt>
      <trkpt lat="43.2614144962" lon="-4.2780803796">
        <ele>208.26</ele>
        <time>2018-05-19T20:09:00Z</time>
      </trkpt>
      <trkpt lat="43.2612878457" lon="-4.2779721692">
        <ele>206.82</ele>
        <time>2018-05-19T20:09:02Z</time>
      </trkpt>
      <trkpt lat="43.2611485384" lon="-4.2778575886">
        <ele>206.82</ele>
        <time>2018-05-19T20:09:04Z</time>
      </trkpt>
      <trkpt lat="43.2610409986" lon="-4.2777604423">
        <ele>205.86</ele>
        <time>2018-05-19T20:09:06Z</time>
      </trkpt>
      <trkpt lat="43.2609317824" lon="-4.2776444368">
        <ele>205.86</ele>
        <time>2018-05-19T20:09:08Z</time>
      </trkpt>
      <trkpt lat="43.2608355582" lon="-4.2775103264">
        <ele>205.86</ele>
        <time>2018-05-19T20:09:10Z</time>
      </trkpt>
      <trkpt lat="43.2607476320" lon="-4.2773540039">
        <ele>205.38</ele>
        <time>2018-05-19T20:09:12Z</time>
      </trkpt>
      <trkpt lat="43.2606745418" lon="-4.2771901377">
        <ele>204.90</ele>
        <time>2018-05-19T20:09:14Z</time>
      </trkpt>
      <trkpt lat="43.2606047206" lon="-4.2770214099">
        <ele>204.90</ele>
        <time>2018-05-19T20:09:16Z</time>
      </trkpt>
      <trkpt lat="43.2605336420" lon="-4.2768515926">
        <ele>204.90</ele>
        <time>2018-05-19T20:09:18Z</time>
      </trkpt>
      <trkpt lat="43.2604606356" lon="-4.2766788416">
        <ele>203.46</ele>
        <time>2018-05-19T20:09:20Z</time>
      </trkpt>
      <trkpt lat="43.2603810076" lon="-4.2764863092">
        <ele>203.46</ele>
        <time>2018-05-19T20:09:22Z</time>
      </trkpt>
      <trkpt lat="43.2603161316" lon="-4.2763142288">
        <ele>202.01</ele>
        <time>2018-05-19T20:09:24Z</time>
      </trkpt>
      <trkpt lat="43.2602625713" lon="-4.2761041783">
        <ele>201.53</ele>
        <time>2018-05-19T20:09:26Z</time>
      </trkpt>
      <trkpt lat="43.2602262776" lon="-4.2758774478">
        <ele>200.57</ele>
        <time>2018-05-19T20:09:28Z</time>
      </trkpt>
      <trkpt lat="43.2602122799" lon="-4.2756371386">
        <ele>200.57</ele>
        <time>2018-05-19T20:09:30Z</time>
      </trkpt>
      <trkpt lat="43.2602115255" lon="-4.2755167745">
        <ele>200.57</ele>
        <time>2018-05-19T20:09:31Z</time>
      </trkpt>
      <trkpt lat="43.2602106873" lon="-4.2753129266">
        <ele>200.09</ele>
        <time>2018-05-19T20:09:33Z</time>
      </trkpt>
      <trkpt lat="43.2602166384" lon="-4.2750902195">
        <ele>200.09</ele>
        <time>2018-05-19T20:09:35Z</time>
      </trkpt>
      <trkpt lat="43.2602225896" lon="-4.2748609744">
        <ele>199.61</ele>
        <time>2018-05-19T20:09:37Z</time>
      </trkpt>
      <trkpt lat="43.2602328993" lon="-4.2746565398">
        <ele>199.13</ele>
        <time>2018-05-19T20:09:39Z</time>
      </trkpt>
      <trkpt lat="43.2602414489" lon="-4.2745267879">
        <ele>198.17</ele>
        <time>2018-05-19T20:09:40Z</time>
      </trkpt>
      <trkpt lat="43.2602634933" lon="-4.2743294779">
        <ele>198.65</ele>
        <time>2018-05-19T20:09:42Z</time>
      </trkpt>
      <trkpt lat="43.2602966018" lon="-4.2741141468">
        <ele>198.17</ele>
        <time>2018-05-19T20:09:44Z</time>
      </trkpt>
      <trkpt lat="43.2603352424" lon="-4.2739139870">
        <ele>198.17</ele>
        <time>2018-05-19T20:09:46Z</time>
      </trkpt>
      <trkpt lat="43.2603780739" lon="-4.2737128213">
        <ele>197.69</ele>
        <time>2018-05-19T20:09:48Z</time>
      </trkpt>
      <trkpt lat="43.2604095899" lon="-4.2734977417">
        <ele>198.17</ele>
        <time>2018-05-19T20:09:50Z</time>
      </trkpt>
      <trkpt lat="43.2603913173" lon="-4.2733298521">
        <ele>197.21</ele>
        <time>2018-05-19T20:09:52Z</time>
      </trkpt>
      <trkpt lat="43.2603289559" lon="-4.2731717695">
        <ele>197.21</ele>
        <time>2018-05-19T20:09:54Z</time>
      </trkpt>
      <trkpt lat="43.2602278702" lon="-4.2730312888">
        <ele>196.73</ele>
        <time>2018-05-19T20:09:56Z</time>
      </trkpt>
      <trkpt lat="43.2601181511" lon="-4.2728602141">
        <ele>195.28</ele>
        <time>2018-05-19T20:09:58Z</time>
      </trkpt>
      <trkpt lat="43.2600831147" lon="-4.2727517523">
        <ele>195.28</ele>
        <time>2018-05-19T20:09:59Z</time>
      </trkpt>
      <trkpt lat="43.2600526884" lon="-4.2725476529">
        <ele>194.80</ele>
        <time>2018-05-19T20:10:01Z</time>
      </trkpt>
      <trkpt lat="43.2600225974" lon="-4.2723325733">
        <ele>194.32</ele>
        <time>2018-05-19T20:10:03Z</time>
      </trkpt>
      <trkpt lat="43.2599845435" lon="-4.2721223552">
        <ele>194.32</ele>
        <time>2018-05-19T20:10:05Z</time>
      </trkpt>
      <trkpt lat="43.2599126268" lon="-4.2719416413">
        <ele>194.32</ele>
        <time>2018-05-19T20:10:07Z</time>
      </trkpt>
      <trkpt lat="43.2597998064" lon="-4.2718409747">
        <ele>194.32</ele>
        <time>2018-05-19T20:10:09Z</time>
      </trkpt>
      <trkpt lat="43.2596490998" lon="-4.2718288209">
        <ele>194.32</ele>
        <time>2018-05-19T20:10:11Z</time>
      </trkpt>
      <trkpt lat="43.2595383748" lon="-4.2718641926">
        <ele>195.77</ele>
        <time>2018-05-19T20:10:13Z</time>
      </trkpt>
      <trkpt lat="43.2594142389" lon="-4.2718780227">
        <ele>196.25</ele>
        <time>2018-05-19T20:10:15Z</time>
      </trkpt>
      <trkpt lat="43.2592746802" lon="-4.2718165834">
        <ele>196.25</ele>
        <time>2018-05-19T20:10:17Z</time>
      </trkpt>
      <trkpt lat="43.2591548190" lon="-4.2716996558">
        <ele>196.25</ele>
        <time>2018-05-19T20:10:20Z</time>
      </trkpt>
      <trkpt lat="43.2590683177" lon="-4.2716088798">
        <ele>196.25</ele>
        <time>2018-05-19T20:10:21Z</time>
      </trkpt>
      <trkpt lat="43.2589792181" lon="-4.2715221271">
        <ele>196.25</ele>
        <time>2018-05-19T20:10:23Z</time>
      </trkpt>
      <trkpt lat="43.2588803954" lon="-4.2714257352">
        <ele>196.25</ele>
        <time>2018-05-19T20:10:25Z</time>
      </trkpt>
      <trkpt lat="43.2587707601" lon="-4.2713176087">
        <ele>196.25</ele>
        <time>2018-05-19T20:10:27Z</time>
      </trkpt>
      <trkpt lat="43.2586757094" lon="-4.2712381482">
        <ele>196.25</ele>
        <time>2018-05-19T20:10:29Z</time>
      </trkpt>
      <trkpt lat="43.2585541718" lon="-4.2711887788">
        <ele>196.25</ele>
        <time>2018-05-19T20:10:31Z</time>
      </trkpt>
      <trkpt lat="43.2584238332" lon="-4.2711598612">
        <ele>194.80</ele>
        <time>2018-05-19T20:10:33Z</time>
      </trkpt>
      <trkpt lat="43.2582983561" lon="-4.2711377330">
        <ele>194.80</ele>
        <time>2018-05-19T20:10:35Z</time>
      </trkpt>
      <trkpt lat="43.2581638265" lon="-4.2711379845">
        <ele>194.80</ele>
        <time>2018-05-19T20:10:37Z</time>
      </trkpt>
      <trkpt lat="43.2580590528" lon="-4.2711654771">
        <ele>194.80</ele>
        <time>2018-05-19T20:10:39Z</time>
      </trkpt>
      <trkpt lat="43.2579459809" lon="-4.2712217197">
        <ele>194.80</ele>
        <time>2018-05-19T20:10:41Z</time>
      </trkpt>
      <trkpt lat="43.2578388602" lon="-4.2712793872">
        <ele>194.80</ele>
        <time>2018-05-19T20:10:43Z</time>
      </trkpt>
      <trkpt lat="43.2577260397" lon="-4.2713320255">
        <ele>194.80</ele>
        <time>2018-05-19T20:10:45Z</time>
      </trkpt>
      <trkpt lat="43.2576035801" lon="-4.2713681515">
        <ele>196.73</ele>
        <time>2018-05-19T20:10:47Z</time>
      </trkpt>
      <trkpt lat="43.2575006504" lon="-4.2713713367">
        <ele>196.73</ele>
        <time>2018-05-19T20:10:49Z</time>
      </trkpt>
      <trkpt lat="43.2573862374" lon="-4.2713494599">
        <ele>196.73</ele>
        <time>2018-05-19T20:10:51Z</time>
      </trkpt>
      <trkpt lat="43.2572804578" lon="-4.2712874338">
        <ele>197.21</ele>
        <time>2018-05-19T20:10:53Z</time>
      </trkpt>
      <trkpt lat="43.2571937889" lon="-4.2711828277">
        <ele>198.17</ele>
        <time>2018-05-19T20:10:55Z</time>
      </trkpt>
      <trkpt lat="43.2571177650" lon="-4.2710355576">
        <ele>198.65</ele>
        <time>2018-05-19T20:10:57Z</time>
      </trkpt>
      <trkpt lat="43.2570735086" lon="-4.2709157802">
        <ele>199.13</ele>
        <time>2018-05-19T20:10:59Z</time>
      </trkpt>
      <trkpt lat="43.2570260670" lon="-4.2707657441">
        <ele>199.13</ele>
        <time>2018-05-19T20:11:01Z</time>
      </trkpt>
      <trkpt lat="43.2569815591" lon="-4.2706302088">
        <ele>199.13</ele>
        <time>2018-05-19T20:11:03Z</time>
      </trkpt>
      <trkpt lat="43.2569373026" lon="-4.2704801727">
        <ele>199.13</ele>
        <time>2018-05-19T20:11:05Z</time>
      </trkpt>
      <trkpt lat="43.2569382247" lon="-4.2703477386">
        <ele>199.61</ele>
        <time>2018-05-19T20:11:07Z</time>
      </trkpt>
      <trkpt lat="43.2570404839" lon="-4.2701837048">
        <ele>199.61</ele>
        <time>2018-05-19T20:11:11Z</time>
      </trkpt>
      <trkpt lat="43.2571279909" lon="-4.2701008078">
        <ele>199.61</ele>
        <time>2018-05-19T20:11:12Z</time>
      </trkpt>
      <trkpt lat="43.2572131511" lon="-4.2700187489">
        <ele>197.69</ele>
        <time>2018-05-19T20:11:14Z</time>
      </trkpt>
      <trkpt lat="43.2573064417" lon="-4.2699088622">
        <ele>197.21</ele>
        <time>2018-05-19T20:11:16Z</time>
      </trkpt>
      <trkpt lat="43.2574060187" lon="-4.2697806191">
        <ele>196.73</ele>
        <time>2018-05-19T20:11:18Z</time>
      </trkpt>
      <trkpt lat="43.2575066015" lon="-4.2696527112">
        <ele>196.25</ele>
        <time>2018-05-19T20:11:20Z</time>
      </trkpt>
      <trkpt lat="43.2576122973" lon="-4.2695261445">
        <ele>196.25</ele>
        <time>2018-05-19T20:11:22Z</time>
      </trkpt>
      <trkpt lat="43.2577278838" lon="-4.2693852447">
        <ele>194.80</ele>
        <time>2018-05-19T20:11:24Z</time>
      </trkpt>
      <trkpt lat="43.2578215096" lon="-4.2692681495">
        <ele>194.80</ele>
        <time>2018-05-19T20:11:26Z</time>
      </trkpt>
      <trkpt lat="43.2579259481" lon="-4.2691347934">
        <ele>194.80</ele>
        <time>2018-05-19T20:11:28Z</time>
      </trkpt>
      <trkpt lat="43.2580287941" lon="-4.2689957377">
        <ele>194.80</ele>
        <time>2018-05-19T20:11:30Z</time>
      </trkpt>
      <trkpt lat="43.2581235934" lon="-4.2688592803">
        <ele>194.32</ele>
        <time>2018-05-19T20:11:32Z</time>
      </trkpt>
      <trkpt lat="43.2582324743" lon="-4.2686922289">
        <ele>194.80</ele>
        <time>2018-05-19T20:11:34Z</time>
      </trkpt>
      <trkpt lat="43.2583079115" lon="-4.2685628962">
        <ele>194.32</ele>
        <time>2018-05-19T20:11:36Z</time>
      </trkpt>
      <trkpt lat="43.2583958376" lon="-4.2684116866">
        <ele>194.32</ele>
        <time>2018-05-19T20:11:38Z</time>
      </trkpt>
      <trkpt lat="43.2584825903" lon="-4.2682516761">
        <ele>194.32</ele>
        <time>2018-05-19T20:11:40Z</time>
      </trkpt>
      <trkpt lat="43.2585676666" lon="-4.2680971976">
        <ele>194.32</ele>
        <time>2018-05-19T20:11:42Z</time>
      </trkpt>
      <trkpt lat="43.2586640585" lon="-4.2679319903">
        <ele>194.32</ele>
        <time>2018-05-19T20:11:44Z</time>
      </trkpt>
      <trkpt lat="43.2587433513" lon="-4.2677963711">
        <ele>194.32</ele>
        <time>2018-05-19T20:11:46Z</time>
      </trkpt>
      <trkpt lat="43.2588359714" lon="-4.2676271405">
        <ele>194.32</ele>
        <time>2018-05-19T20:11:48Z</time>
      </trkpt>
      <trkpt lat="43.2589104027" lon="-4.2675012443">
        <ele>193.36</ele>
        <time>2018-05-19T20:11:50Z</time>
      </trkpt>
      <trkpt lat="43.2590028550" lon="-4.2673449218">
        <ele>193.36</ele>
        <time>2018-05-19T20:11:52Z</time>
      </trkpt>
      <trkpt lat="43.2590833213" lon="-4.2672027647">
        <ele>193.36</ele>
        <time>2018-05-19T20:11:54Z</time>
      </trkpt>
      <trkpt lat="43.2591602672" lon="-4.2670652177">
        <ele>193.36</ele>
        <time>2018-05-19T20:11:56Z</time>
      </trkpt>
      <trkpt lat="43.2592399791" lon="-4.2669212166">
        <ele>193.36</ele>
        <time>2018-05-19T20:11:58Z</time>
      </trkpt>
      <trkpt lat="43.2593158353" lon="-4.2667895369">
        <ele>193.84</ele>
        <time>2018-05-19T20:12:00Z</time>
      </trkpt>
      <trkpt lat="43.2594080362" lon="-4.2666281853">
        <ele>193.36</ele>
        <time>2018-05-19T20:12:02Z</time>
      </trkpt>
      <trkpt lat="43.2594786957" lon="-4.2665071506">
        <ele>193.36</ele>
        <time>2018-05-19T20:12:04Z</time>
      </trkpt>
      <trkpt lat="43.2595626824" lon="-4.2663659994">
        <ele>193.36</ele>
        <time>2018-05-19T20:12:06Z</time>
      </trkpt>
      <trkpt lat="43.2596449088" lon="-4.2662244290">
        <ele>193.36</ele>
        <time>2018-05-19T20:12:08Z</time>
      </trkpt>
      <trkpt lat="43.2597332541" lon="-4.2660570424">
        <ele>193.36</ele>
        <time>2018-05-19T20:12:10Z</time>
      </trkpt>
      <trkpt lat="43.2597993035" lon="-4.2659436353">
        <ele>192.88</ele>
        <time>2018-05-19T20:12:12Z</time>
      </trkpt>
      <trkpt lat="43.2598803565" lon="-4.2658080161">
        <ele>192.88</ele>
        <time>2018-05-19T20:12:14Z</time>
      </trkpt>
      <trkpt lat="43.2599584758" lon="-4.2656771746">
        <ele>192.88</ele>
        <time>2018-05-19T20:12:16Z</time>
      </trkpt>
      <trkpt lat="43.2600268722" lon="-4.2655565590">
        <ele>192.88</ele>
        <time>2018-05-19T20:12:18Z</time>
      </trkpt>
      <trkpt lat="43.2600985374" lon="-4.2654335126">
        <ele>192.88</ele>
        <time>2018-05-19T20:12:20Z</time>
      </trkpt>
      <trkpt lat="43.2601640001" lon="-4.2653190996">
        <ele>192.88</ele>
        <time>2018-05-19T20:12:22Z</time>
      </trkpt>
      <trkpt lat="43.2602333184" lon="-4.2651974782">
        <ele>192.88</ele>
        <time>2018-05-19T20:12:24Z</time>
      </trkpt>
      <trkpt lat="43.2603084203" lon="-4.2650747672">
        <ele>192.40</ele>
        <time>2018-05-19T20:12:26Z</time>
      </trkpt>
      <trkpt lat="43.2603809237" lon="-4.2649464402">
        <ele>192.40</ele>
        <time>2018-05-19T20:12:28Z</time>
      </trkpt>
      <trkpt lat="43.2604623958" lon="-4.2648002598">
        <ele>191.92</ele>
        <time>2018-05-19T20:12:30Z</time>
      </trkpt>
      <trkpt lat="43.2605285291" lon="-4.2646781355">
        <ele>191.92</ele>
        <time>2018-05-19T20:12:32Z</time>
      </trkpt>
      <trkpt lat="43.2606072351" lon="-4.2645364814">
        <ele>190.96</ele>
        <time>2018-05-19T20:12:34Z</time>
      </trkpt>
      <trkpt lat="43.2606868632" lon="-4.2643947434">
        <ele>190.96</ele>
        <time>2018-05-19T20:12:36Z</time>
      </trkpt>
      <trkpt lat="43.2607691735" lon="-4.2642500717">
        <ele>190.96</ele>
        <time>2018-05-19T20:12:38Z</time>
      </trkpt>
      <trkpt lat="43.2608510647" lon="-4.2641082499">
        <ele>190.96</ele>
        <time>2018-05-19T20:12:40Z</time>
      </trkpt>
      <trkpt lat="43.2609332073" lon="-4.2639686912">
        <ele>190.96</ele>
        <time>2018-05-19T20:12:42Z</time>
      </trkpt>
      <trkpt lat="43.2610125840" lon="-4.2638298869">
        <ele>190.48</ele>
        <time>2018-05-19T20:12:44Z</time>
      </trkpt>
      <trkpt lat="43.2610886917" lon="-4.2636845447">
        <ele>190.48</ele>
        <time>2018-05-19T20:12:46Z</time>
      </trkpt>
      <trkpt lat="43.2611777913" lon="-4.2635322455">
        <ele>190.48</ele>
        <time>2018-05-19T20:12:48Z</time>
      </trkpt>
      <trkpt lat="43.2612489536" lon="-4.2634021584">
        <ele>190.00</ele>
        <time>2018-05-19T20:12:50Z</time>
      </trkpt>
      <trkpt lat="43.2613264862" lon="-4.2632614262">
        <ele>189.52</ele>
        <time>2018-05-19T20:12:52Z</time>
      </trkpt>
      <trkpt lat="43.2614095509" lon="-4.2631147429">
        <ele>189.52</ele>
        <time>2018-05-19T20:12:54Z</time>
      </trkpt>
      <trkpt lat="43.2614916097" lon="-4.2629678920">
        <ele>189.04</ele>
        <time>2018-05-19T20:12:56Z</time>
      </trkpt>
      <trkpt lat="43.2615817152" lon="-4.2628023494">
        <ele>189.04</ele>
        <time>2018-05-19T20:12:58Z</time>
      </trkpt>
      <trkpt lat="43.2616515364" lon="-4.2626868468">
        <ele>188.56</ele>
        <time>2018-05-19T20:13:00Z</time>
      </trkpt>
      <trkpt lat="43.2617295720" lon="-4.2625403311">
        <ele>188.56</ele>
        <time>2018-05-19T20:13:02Z</time>
      </trkpt>
      <trkpt lat="43.2618065178" lon="-4.2623999342">
        <ele>188.56</ele>
        <time>2018-05-19T20:13:04Z</time>
      </trkpt>
      <trkpt lat="43.2618914265" lon="-4.2622467969">
        <ele>188.56</ele>
        <time>2018-05-19T20:13:06Z</time>
      </trkpt>
      <trkpt lat="43.2619596552" lon="-4.2621258460">
        <ele>188.56</ele>
        <time>2018-05-19T20:13:08Z</time>
      </trkpt>
      <trkpt lat="43.2620399538" lon="-4.2619909812">
        <ele>188.56</ele>
        <time>2018-05-19T20:13:10Z</time>
      </trkpt>
      <trkpt lat="43.2621212583" lon="-4.2618565354">
        <ele>188.56</ele>
        <time>2018-05-19T20:13:12Z</time>
      </trkpt>
      <trkpt lat="43.2621987909" lon="-4.2617213354">
        <ele>188.08</ele>
        <time>2018-05-19T20:13:14Z</time>
      </trkpt>
      <trkpt lat="43.2622902375" lon="-4.2615626659">
        <ele>187.11</ele>
        <time>2018-05-19T20:13:16Z</time>
      </trkpt>
      <trkpt lat="43.2623571251" lon="-4.2614462413">
        <ele>187.59</ele>
        <time>2018-05-19T20:13:18Z</time>
      </trkpt>
      <trkpt lat="43.2624374237" lon="-4.2613055930">
        <ele>187.11</ele>
        <time>2018-05-19T20:13:20Z</time>
      </trkpt>
      <trkpt lat="43.2625183091" lon="-4.2611656152">
        <ele>187.11</ele>
        <time>2018-05-19T20:13:22Z</time>
      </trkpt>
      <trkpt lat="43.2626038883" lon="-4.2610154115">
        <ele>186.63</ele>
        <time>2018-05-19T20:13:24Z</time>
      </trkpt>
      <trkpt lat="43.2626747992" lon="-4.2608885933">
        <ele>186.15</ele>
        <time>2018-05-19T20:13:26Z</time>
      </trkpt>
      <trkpt lat="43.2627548464" lon="-4.2607486993">
        <ele>186.15</ele>
        <time>2018-05-19T20:13:28Z</time>
      </trkpt>
      <trkpt lat="43.2628356479" lon="-4.2606136668">
        <ele>186.15</ele>
        <time>2018-05-19T20:13:30Z</time>
      </trkpt>
      <trkpt lat="43.2629074808" lon="-4.2604844179">
        <ele>186.15</ele>
        <time>2018-05-19T20:13:32Z</time>
      </trkpt>
      <trkpt lat="43.2629813254" lon="-4.2603551690">
        <ele>186.15</ele>
        <time>2018-05-19T20:13:34Z</time>
      </trkpt>
      <trkpt lat="43.2630615402" lon="-4.2602213100">
        <ele>185.67</ele>
        <time>2018-05-19T20:13:36Z</time>
      </trkpt>
      <trkpt lat="43.2631549984" lon="-4.2600640655">
        <ele>185.67</ele>
        <time>2018-05-19T20:13:38Z</time>
      </trkpt>
      <trkpt lat="43.2632461097" lon="-4.2599011213">
        <ele>185.19</ele>
        <time>2018-05-19T20:13:40Z</time>
      </trkpt>
      <trkpt lat="43.2633524761" lon="-4.2597074155">
        <ele>184.23</ele>
        <time>2018-05-19T20:13:42Z</time>
      </trkpt>
      <trkpt lat="43.2634365465" lon="-4.2595630791">
        <ele>184.23</ele>
        <time>2018-05-19T20:13:44Z</time>
      </trkpt>
      <trkpt lat="43.2635346148" lon="-4.2593868915">
        <ele>184.23</ele>
        <time>2018-05-19T20:13:46Z</time>
      </trkpt>
      <trkpt lat="43.2636255585" lon="-4.2592229415">
        <ele>184.23</ele>
        <time>2018-05-19T20:13:48Z</time>
      </trkpt>
      <trkpt lat="43.2637225371" lon="-4.2590452451">
        <ele>183.75</ele>
        <time>2018-05-19T20:13:50Z</time>
      </trkpt>
      <trkpt lat="43.2638102956" lon="-4.2588864081">
        <ele>183.75</ele>
        <time>2018-05-19T20:13:52Z</time>
      </trkpt>
      <trkpt lat="43.2639014069" lon="-4.2587219551">
        <ele>183.27</ele>
        <time>2018-05-19T20:13:54Z</time>
      </trkpt>
      <trkpt lat="43.2639972121" lon="-4.2585627828">
        <ele>183.27</ele>
        <time>2018-05-19T20:13:56Z</time>
      </trkpt>
      <trkpt lat="43.2640910055" lon="-4.2583979107">
        <ele>183.27</ele>
        <time>2018-05-19T20:13:58Z</time>
      </trkpt>
      <trkpt lat="43.2641944382" lon="-4.2582141794">
        <ele>182.79</ele>
        <time>2018-05-19T20:14:00Z</time>
      </trkpt>
      <trkpt lat="43.2642759942" lon="-4.2580708489">
        <ele>182.79</ele>
        <time>2018-05-19T20:14:02Z</time>
      </trkpt>
      <trkpt lat="43.2643690333" lon="-4.2579084076">
        <ele>182.79</ele>
        <time>2018-05-19T20:14:04Z</time>
      </trkpt>
      <trkpt lat="43.2644623239" lon="-4.2577428650">
        <ele>182.31</ele>
        <time>2018-05-19T20:14:06Z</time>
      </trkpt>
      <trkpt lat="43.2645577937" lon="-4.2575769033">
        <ele>182.31</ele>
        <time>2018-05-19T20:14:08Z</time>
      </trkpt>
      <trkpt lat="43.2646622322" lon="-4.2573977821">
        <ele>182.31</ele>
        <time>2018-05-19T20:14:10Z</time>
      </trkpt>
      <trkpt lat="43.2647465542" lon="-4.2572527751">
        <ele>182.31</ele>
        <time>2018-05-19T20:14:12Z</time>
      </trkpt>
      <trkpt lat="43.2648400124" lon="-4.2570869811">
        <ele>181.35</ele>
        <time>2018-05-19T20:14:14Z</time>
      </trkpt>
      <trkpt lat="43.2649340574" lon="-4.2569268867">
        <ele>181.35</ele>
        <time>2018-05-19T20:14:16Z</time>
      </trkpt>
      <trkpt lat="43.2650312036" lon="-4.2567553930">
        <ele>181.35</ele>
        <time>2018-05-19T20:14:18Z</time>
      </trkpt>
      <trkpt lat="43.2651263382" lon="-4.2565894313">
        <ele>181.35</ele>
        <time>2018-05-19T20:14:20Z</time>
      </trkpt>
      <trkpt lat="43.2652063854" lon="-4.2564495374">
        <ele>180.87</ele>
        <time>2018-05-19T20:14:22Z</time>
      </trkpt>
      <trkpt lat="43.2652949821" lon="-4.2562893592">
        <ele>180.87</ele>
        <time>2018-05-19T20:14:24Z</time>
      </trkpt>
      <trkpt lat="43.2653841656" lon="-4.2561347969">
        <ele>180.87</ele>
        <time>2018-05-19T20:14:26Z</time>
      </trkpt>
      <trkpt lat="43.2654759474" lon="-4.2559760436">
        <ele>180.87</ele>
        <time>2018-05-19T20:14:28Z</time>
      </trkpt>
      <trkpt lat="43.2655669749" lon="-4.2558223195">
        <ele>179.90</ele>
        <time>2018-05-19T20:14:30Z</time>
      </trkpt>
      <trkpt lat="43.2656570803" lon="-4.2556695174">
        <ele>179.90</ele>
        <time>2018-05-19T20:14:32Z</time>
      </trkpt>
      <trkpt lat="43.2657457609" lon="-4.2555147037">
        <ele>179.90</ele>
        <time>2018-05-19T20:14:34Z</time>
      </trkpt>
      <trkpt lat="43.2658350281" lon="-4.2553589679">
        <ele>179.90</ele>
        <time>2018-05-19T20:14:36Z</time>
      </trkpt>
      <trkpt lat="43.2659295760" lon="-4.2551951855">
        <ele>179.90</ele>
        <time>2018-05-19T20:14:38Z</time>
      </trkpt>
      <trkpt lat="43.2660060190" lon="-4.2550570518">
        <ele>179.90</ele>
        <time>2018-05-19T20:14:40Z</time>
      </trkpt>
      <trkpt lat="43.2660991419" lon="-4.2548874859">
        <ele>179.90</ele>
        <time>2018-05-19T20:14:42Z</time>
      </trkpt>
      <trkpt lat="43.2661789376" lon="-4.2547499388">
        <ele>179.90</ele>
        <time>2018-05-19T20:14:44Z</time>
      </trkpt>
      <trkpt lat="43.2662697136" lon="-4.2545872461">
        <ele>178.94</ele>
        <time>2018-05-19T20:14:46Z</time>
      </trkpt>
      <trkpt lat="43.2663510181" lon="-4.2544437479">
        <ele>178.94</ele>
        <time>2018-05-19T20:14:48Z</time>
      </trkpt>
      <trkpt lat="43.2664381899" lon="-4.2542917002">
        <ele>178.46</ele>
        <time>2018-05-19T20:14:50Z</time>
      </trkpt>
      <trkpt lat="43.2665241044" lon="-4.2541418318">
        <ele>178.94</ele>
        <time>2018-05-19T20:14:52Z</time>
      </trkpt>
      <trkpt lat="43.2666129526" lon="-4.2539896164">
        <ele>177.98</ele>
        <time>2018-05-19T20:14:54Z</time>
      </trkpt>
      <trkpt lat="43.2667104341" lon="-4.2538222298">
        <ele>177.98</ele>
        <time>2018-05-19T20:14:56Z</time>
      </trkpt>
      <trkpt lat="43.2667895593" lon="-4.2536818329">
        <ele>177.98</ele>
        <time>2018-05-19T20:14:58Z</time>
      </trkpt>
      <trkpt lat="43.2668769825" lon="-4.2535256781">
        <ele>177.50</ele>
        <time>2018-05-19T20:15:00Z</time>
      </trkpt>
      <trkpt lat="43.2669630647" lon="-4.2533655837">
        <ele>177.50</ele>
        <time>2018-05-19T20:15:02Z</time>
      </trkpt>
      <trkpt lat="43.2670545112" lon="-4.2532090098">
        <ele>177.50</ele>
        <time>2018-05-19T20:15:04Z</time>
      </trkpt>
      <trkpt lat="43.2671624701" lon="-4.2530251108">
        <ele>177.02</ele>
        <time>2018-05-19T20:15:06Z</time>
      </trkpt>
      <trkpt lat="43.2672415953" lon="-4.2528920900">
        <ele>177.02</ele>
        <time>2018-05-19T20:15:08Z</time>
      </trkpt>
      <trkpt lat="43.2673306111" lon="-4.2527284753">
        <ele>176.54</ele>
        <time>2018-05-19T20:15:10Z</time>
      </trkpt>
      <trkpt lat="43.2674198784" lon="-4.2525631841">
        <ele>176.54</ele>
        <time>2018-05-19T20:15:12Z</time>
      </trkpt>
      <trkpt lat="43.2675172761" lon="-4.2523937020">
        <ele>176.54</ele>
        <time>2018-05-19T20:15:14Z</time>
      </trkpt>
      <trkpt lat="43.2676046155" lon="-4.2522422411">
        <ele>176.06</ele>
        <time>2018-05-19T20:15:16Z</time>
      </trkpt>
      <trkpt lat="43.2676933799" lon="-4.2520865053">
        <ele>176.06</ele>
        <time>2018-05-19T20:15:18Z</time>
      </trkpt>
      <trkpt lat="43.2677859999" lon="-4.2519243155">
        <ele>176.06</ele>
        <time>2018-05-19T20:15:20Z</time>
      </trkpt>
      <trkpt lat="43.2678800449" lon="-4.2517621256">
        <ele>176.06</ele>
        <time>2018-05-19T20:15:22Z</time>
      </trkpt>
      <trkpt lat="43.2679831423" lon="-4.2515825853">
        <ele>175.58</ele>
        <time>2018-05-19T20:15:24Z</time>
      </trkpt>
      <trkpt lat="43.2680655364" lon="-4.2514324654">
        <ele>175.58</ele>
        <time>2018-05-19T20:15:26Z</time>
      </trkpt>
      <trkpt lat="43.2681625988" lon="-4.2512599658">
        <ele>174.62</ele>
        <time>2018-05-19T20:15:28Z</time>
      </trkpt>
      <trkpt lat="43.2682502735" lon="-4.2511047330">
        <ele>174.62</ele>
        <time>2018-05-19T20:15:30Z</time>
      </trkpt>
      <trkpt lat="43.2683413010" lon="-4.2509437166">
        <ele>174.62</ele>
        <time>2018-05-19T20:15:32Z</time>
      </trkpt>
      <trkpt lat="43.2684429735" lon="-4.2507637572">
        <ele>174.62</ele>
        <time>2018-05-19T20:15:34Z</time>
      </trkpt>
      <trkpt lat="43.2685241941" lon="-4.2506226897">
        <ele>174.14</ele>
        <time>2018-05-19T20:15:36Z</time>
      </trkpt>
      <trkpt lat="43.2686096895" lon="-4.2504718155">
        <ele>174.14</ele>
        <time>2018-05-19T20:15:38Z</time>
      </trkpt>
      <trkpt lat="43.2686977834" lon="-4.2503165826">
        <ele>174.14</ele>
        <time>2018-05-19T20:15:40Z</time>
      </trkpt>
      <trkpt lat="43.2687938400" lon="-4.2501502857">
        <ele>173.17</ele>
        <time>2018-05-19T20:15:42Z</time>
      </trkpt>
      <trkpt lat="43.2688492443" lon="-4.2500576656">
        <ele>173.17</ele>
        <time>2018-05-19T20:15:43Z</time>
      </trkpt>
      <trkpt lat="43.2689267769" lon="-4.2499238905">
        <ele>173.17</ele>
        <time>2018-05-19T20:15:45Z</time>
      </trkpt>
      <trkpt lat="43.2690171339" lon="-4.2497661430">
        <ele>173.17</ele>
        <time>2018-05-19T20:15:47Z</time>
      </trkpt>
      <trkpt lat="43.2691080775" lon="-4.2496061325">
        <ele>173.17</ele>
        <time>2018-05-19T20:15:49Z</time>
      </trkpt>
      <trkpt lat="43.2692019548" lon="-4.2494477145">
        <ele>172.69</ele>
        <time>2018-05-19T20:15:51Z</time>
      </trkpt>
      <trkpt lat="43.2692934014" lon="-4.2492897995">
        <ele>172.69</ele>
        <time>2018-05-19T20:15:53Z</time>
      </trkpt>
      <trkpt lat="43.2693805732" lon="-4.2491353210">
        <ele>172.21</ele>
        <time>2018-05-19T20:15:55Z</time>
      </trkpt>
      <trkpt lat="43.2694747020" lon="-4.2489695270">
        <ele>171.73</ele>
        <time>2018-05-19T20:15:57Z</time>
      </trkpt>
      <trkpt lat="43.2695578504" lon="-4.2488214187">
        <ele>171.73</ele>
        <time>2018-05-19T20:15:59Z</time>
      </trkpt>
      <trkpt lat="43.2696577627" lon="-4.2486469913">
        <ele>171.25</ele>
        <time>2018-05-19T20:16:01Z</time>
      </trkpt>
      <trkpt lat="43.2697347924" lon="-4.2485046666">
        <ele>171.25</ele>
        <time>2018-05-19T20:16:03Z</time>
      </trkpt>
      <trkpt lat="43.2698245626" lon="-4.2483477574">
        <ele>171.25</ele>
        <time>2018-05-19T20:16:05Z</time>
      </trkpt>
      <trkpt lat="43.2699176017" lon="-4.2481874954">
        <ele>171.25</ele>
        <time>2018-05-19T20:16:07Z</time>
      </trkpt>
      <trkpt lat="43.2699961402" lon="-4.2480444163">
        <ele>170.77</ele>
        <time>2018-05-19T20:16:09Z</time>
      </trkpt>
      <trkpt lat="43.2700830605" lon="-4.2478961404">
        <ele>170.77</ele>
        <time>2018-05-19T20:16:11Z</time>
      </trkpt>
      <trkpt lat="43.2701680530" lon="-4.2477476131">
        <ele>170.77</ele>
        <time>2018-05-19T20:16:13Z</time>
      </trkpt>
      <trkpt lat="43.2702498604" lon="-4.2475982476">
        <ele>170.77</ele>
        <time>2018-05-19T20:16:15Z</time>
      </trkpt>
      <trkpt lat="43.2703318354" lon="-4.2474517319">
        <ele>170.77</ele>
        <time>2018-05-19T20:16:17Z</time>
      </trkpt>
      <trkpt lat="43.2704185043" lon="-4.2473024502">
        <ele>170.77</ele>
        <time>2018-05-19T20:16:19Z</time>
      </trkpt>
      <trkpt lat="43.2705014013" lon="-4.2471628916">
        <ele>172.21</ele>
        <time>2018-05-19T20:16:21Z</time>
      </trkpt>
      <trkpt lat="43.2705776766" lon="-4.2470418569">
        <ele>172.21</ele>
        <time>2018-05-19T20:16:23Z</time>
      </trkpt>
      <trkpt lat="43.2706660219" lon="-4.2469070759">
        <ele>172.21</ele>
        <time>2018-05-19T20:16:25Z</time>
      </trkpt>
      <trkpt lat="43.2707500085" lon="-4.2467787489">
        <ele>172.21</ele>
        <time>2018-05-19T20:16:27Z</time>
      </trkpt>
      <trkpt lat="43.2708431315" lon="-4.2466537748">
        <ele>172.21</ele>
        <time>2018-05-19T20:16:29Z</time>
      </trkpt>
      <trkpt lat="43.2709429599" lon="-4.2465304770">
        <ele>172.21</ele>
        <time>2018-05-19T20:16:31Z</time>
      </trkpt>
      <trkpt lat="43.2710138708" lon="-4.2464473285">
        <ele>172.21</ele>
        <time>2018-05-19T20:16:32Z</time>
      </trkpt>
      <trkpt lat="43.2710940018" lon="-4.2463595700">
        <ele>172.21</ele>
        <time>2018-05-19T20:16:34Z</time>
      </trkpt>
      <trkpt lat="43.2711942494" lon="-4.2462541256">
        <ele>172.21</ele>
        <time>2018-05-19T20:16:36Z</time>
      </trkpt>
      <trkpt lat="43.2712980174" lon="-4.2461537942">
        <ele>172.21</ele>
        <time>2018-05-19T20:16:38Z</time>
      </trkpt>
      <trkpt lat="43.2714013662" lon="-4.2460653652">
        <ele>172.21</ele>
        <time>2018-05-19T20:16:40Z</time>
      </trkpt>
      <trkpt lat="43.2715229038" lon="-4.2459721584">
        <ele>172.21</ele>
        <time>2018-05-19T20:16:42Z</time>
      </trkpt>
      <trkpt lat="43.2716187928" lon="-4.2459024210">
        <ele>172.21</ele>
        <time>2018-05-19T20:16:44Z</time>
      </trkpt>
      <trkpt lat="43.2717316970" lon="-4.2458268162">
        <ele>172.21</ele>
        <time>2018-05-19T20:16:46Z</time>
      </trkpt>
      <trkpt lat="43.2718530670" lon="-4.2457583360">
        <ele>172.21</ele>
        <time>2018-05-19T20:16:48Z</time>
      </trkpt>
      <trkpt lat="43.2719911169" lon="-4.2456877604">
        <ele>172.69</ele>
        <time>2018-05-19T20:16:50Z</time>
      </trkpt>
      <trkpt lat="43.2720864192" lon="-4.2456471920">
        <ele>172.69</ele>
        <time>2018-05-19T20:16:52Z</time>
      </trkpt>
      <trkpt lat="43.2722124830" lon="-4.2455991637">
        <ele>172.21</ele>
        <time>2018-05-19T20:16:54Z</time>
      </trkpt>
      <trkpt lat="43.2723323442" lon="-4.2455590982">
        <ele>172.69</ele>
        <time>2018-05-19T20:16:56Z</time>
      </trkpt>
      <trkpt lat="43.2724652812" lon="-4.2455182783">
        <ele>172.69</ele>
        <time>2018-05-19T20:16:58Z</time>
      </trkpt>
      <trkpt lat="43.2726063486" lon="-4.2454849184">
        <ele>172.21</ele>
        <time>2018-05-19T20:17:00Z</time>
      </trkpt>
      <trkpt lat="43.2727168221" lon="-4.2454612814">
        <ele>172.21</ele>
        <time>2018-05-19T20:17:02Z</time>
      </trkpt>
      <trkpt lat="43.2728485018" lon="-4.2454394046">
        <ele>172.69</ele>
        <time>2018-05-19T20:17:04Z</time>
      </trkpt>
      <trkpt lat="43.2729806006" lon="-4.2454307713">
        <ele>172.69</ele>
        <time>2018-05-19T20:17:06Z</time>
      </trkpt>
      <trkpt lat="43.2731141243" lon="-4.2454289272">
        <ele>172.69</ele>
        <time>2018-05-19T20:17:08Z</time>
      </trkpt>
      <trkpt lat="43.2732493244" lon="-4.2454272509">
        <ele>172.69</ele>
        <time>2018-05-19T20:17:10Z</time>
      </trkpt>
      <trkpt lat="43.2733852789" lon="-4.2454337049">
        <ele>172.69</ele>
        <time>2018-05-19T20:17:12Z</time>
      </trkpt>
      <trkpt lat="43.2735263463" lon="-4.2454492953">
        <ele>172.69</ele>
        <time>2018-05-19T20:17:14Z</time>
      </trkpt>
      <trkpt lat="43.2736521587" lon="-4.2454630416">
        <ele>173.66</ele>
        <time>2018-05-19T20:17:16Z</time>
      </trkpt>
      <trkpt lat="43.2737824973" lon="-4.2454812303">
        <ele>174.14</ele>
        <time>2018-05-19T20:17:18Z</time>
      </trkpt>
      <trkpt lat="43.2739068847" lon="-4.2454902828">
        <ele>174.62</ele>
        <time>2018-05-19T20:17:20Z</time>
      </trkpt>
      <trkpt lat="43.2740124967" lon="-4.2454966530">
        <ele>175.10</ele>
        <time>2018-05-19T20:17:22Z</time>
      </trkpt>
      <trkpt lat="43.2741233055" lon="-4.2455067113">
        <ele>175.58</ele>
        <time>2018-05-19T20:17:24Z</time>
      </trkpt>
      <trkpt lat="43.2742337789" lon="-4.2455137521">
        <ele>175.58</ele>
        <time>2018-05-19T20:17:26Z</time>
      </trkpt>
      <trkpt lat="43.2743615191" lon="-4.2455252353">
        <ele>176.06</ele>
        <time>2018-05-19T20:17:28Z</time>
      </trkpt>
      <trkpt lat="43.2744766027" lon="-4.2455315217">
        <ele>176.06</ele>
        <time>2018-05-19T20:17:30Z</time>
      </trkpt>
      <trkpt lat="43.2745952066" lon="-4.2455431726">
        <ele>176.54</ele>
        <time>2018-05-19T20:17:32Z</time>
      </trkpt>
      <trkpt lat="43.2747147325" lon="-4.2455546558">
        <ele>176.54</ele>
        <time>2018-05-19T20:17:34Z</time>
      </trkpt>
      <trkpt lat="43.2748378627" lon="-4.2455606069">
        <ele>176.54</ele>
        <time>2018-05-19T20:17:36Z</time>
      </trkpt>
      <trkpt lat="43.2749702968" lon="-4.2455713358">
        <ele>176.54</ele>
        <time>2018-05-19T20:17:38Z</time>
      </trkpt>
      <trkpt lat="43.2750842068" lon="-4.2455854174">
        <ele>176.54</ele>
        <time>2018-05-19T20:17:40Z</time>
      </trkpt>
      <trkpt lat="43.2752111927" lon="-4.2455978226">
        <ele>176.54</ele>
        <time>2018-05-19T20:17:42Z</time>
      </trkpt>
      <trkpt lat="43.2753476501" lon="-4.2456064560">
        <ele>176.54</ele>
        <time>2018-05-19T20:17:44Z</time>
      </trkpt>
      <trkpt lat="43.2754904777" lon="-4.2456196994">
        <ele>176.54</ele>
        <time>2018-05-19T20:17:46Z</time>
      </trkpt>
      <trkpt lat="43.2756405137" lon="-4.2456290871">
        <ele>176.54</ele>
        <time>2018-05-19T20:17:48Z</time>
      </trkpt>
      <trkpt lat="43.2757617161" lon="-4.2456357926">
        <ele>175.10</ele>
        <time>2018-05-19T20:17:50Z</time>
      </trkpt>
      <trkpt lat="43.2759013586" lon="-4.2456364632">
        <ele>175.10</ele>
        <time>2018-05-19T20:17:52Z</time>
      </trkpt>
      <trkpt lat="43.2760409173" lon="-4.2456196994">
        <ele>175.10</ele>
        <time>2018-05-19T20:17:54Z</time>
      </trkpt>
      <trkpt lat="43.2761742733" lon="-4.2455849983">
        <ele>174.14</ele>
        <time>2018-05-19T20:17:56Z</time>
      </trkpt>
      <trkpt lat="43.2762970682" lon="-4.2455347069">
        <ele>174.14</ele>
        <time>2018-05-19T20:17:58Z</time>
      </trkpt>
      <trkpt lat="43.2764109783" lon="-4.2454664782">
        <ele>174.14</ele>
        <time>2018-05-19T20:18:00Z</time>
      </trkpt>
      <trkpt lat="43.2765136566" lon="-4.2453783005">
        <ele>174.14</ele>
        <time>2018-05-19T20:18:02Z</time>
      </trkpt>
      <trkpt lat="43.2766106352" lon="-4.2452619597">
        <ele>174.14</ele>
        <time>2018-05-19T20:18:04Z</time>
      </trkpt>
      <trkpt lat="43.2767016627" lon="-4.2451223172">
        <ele>174.14</ele>
        <time>2018-05-19T20:18:06Z</time>
      </trkpt>
      <trkpt lat="43.2767702267" lon="-4.2449881230">
        <ele>174.14</ele>
        <time>2018-05-19T20:18:08Z</time>
      </trkpt>
      <trkpt lat="43.2768263854" lon="-4.2448444571">
        <ele>174.14</ele>
        <time>2018-05-19T20:18:10Z</time>
      </trkpt>
      <trkpt lat="43.2768693846" lon="-4.2446964327">
        <ele>175.58</ele>
        <time>2018-05-19T20:18:12Z</time>
      </trkpt>
      <trkpt lat="43.2768946141" lon="-4.2445512582">
        <ele>176.06</ele>
        <time>2018-05-19T20:18:14Z</time>
      </trkpt>
      <trkpt lat="43.2769095339" lon="-4.2443749029">
        <ele>176.54</ele>
        <time>2018-05-19T20:18:16Z</time>
      </trkpt>
      <trkpt lat="43.2769110426" lon="-4.2442381103">
        <ele>176.54</ele>
        <time>2018-05-19T20:18:18Z</time>
      </trkpt>
      <trkpt lat="43.2769065164" lon="-4.2440811172">
        <ele>177.02</ele>
        <time>2018-05-19T20:18:20Z</time>
      </trkpt>
      <trkpt lat="43.2768874895" lon="-4.2439258005">
        <ele>177.02</ele>
        <time>2018-05-19T20:18:22Z</time>
      </trkpt>
      <trkpt lat="43.2768672891" lon="-4.2437670473">
        <ele>177.02</ele>
        <time>2018-05-19T20:18:24Z</time>
      </trkpt>
      <trkpt lat="43.2768482622" lon="-4.2435949668">
        <ele>177.50</ele>
        <time>2018-05-19T20:18:26Z</time>
      </trkpt>
      <trkpt lat="43.2768326718" lon="-4.2434451822">
        <ele>177.50</ele>
        <time>2018-05-19T20:18:28Z</time>
      </trkpt>
      <trkpt lat="43.2768145669" lon="-4.2432753649">
        <ele>177.50</ele>
        <time>2018-05-19T20:18:30Z</time>
      </trkpt>
      <trkpt lat="43.2767952885" lon="-4.2430996802">
        <ele>177.50</ele>
        <time>2018-05-19T20:18:32Z</time>
      </trkpt>
      <trkpt lat="43.2767812908" lon="-4.2429120094">
        <ele>177.50</ele>
        <time>2018-05-19T20:18:34Z</time>
      </trkpt>
      <trkpt lat="43.2767717354" lon="-4.2427244224">
        <ele>176.06</ele>
        <time>2018-05-19T20:18:36Z</time>
      </trkpt>
      <trkpt lat="43.2767614257" lon="-4.2425540183">
        <ele>175.58</ele>
        <time>2018-05-19T20:18:38Z</time>
      </trkpt>
      <trkpt lat="43.2767532114" lon="-4.2423551157">
        <ele>175.10</ele>
        <time>2018-05-19T20:18:40Z</time>
      </trkpt>
      <trkpt lat="43.2767485175" lon="-4.2421514355">
        <ele>174.62</ele>
        <time>2018-05-19T20:18:42Z</time>
      </trkpt>
      <trkpt lat="43.2767436560" lon="-4.2419393733">
        <ele>173.17</ele>
        <time>2018-05-19T20:18:44Z</time>
      </trkpt>
      <trkpt lat="43.2767404709" lon="-4.2418166623">
        <ele>173.17</ele>
        <time>2018-05-19T20:18:45Z</time>
      </trkpt>
      <trkpt lat="43.2767382916" lon="-4.2416307516">
        <ele>172.69</ele>
        <time>2018-05-19T20:18:47Z</time>
      </trkpt>
      <trkpt lat="43.2767366990" lon="-4.2414348666">
        <ele>172.21</ele>
        <time>2018-05-19T20:18:49Z</time>
      </trkpt>
      <trkpt lat="43.2767364476" lon="-4.2412356287">
        <ele>172.21</ele>
        <time>2018-05-19T20:18:51Z</time>
      </trkpt>
      <trkpt lat="43.2767356094" lon="-4.2410438508">
        <ele>171.73</ele>
        <time>2018-05-19T20:18:53Z</time>
      </trkpt>
      <trkpt lat="43.2767370343" lon="-4.2408429366">
        <ele>170.77</ele>
        <time>2018-05-19T20:18:55Z</time>
      </trkpt>
      <trkpt lat="43.2767456677" lon="-4.2406452075">
        <ele>170.77</ele>
        <time>2018-05-19T20:18:57Z</time>
      </trkpt>
      <trkpt lat="43.2767589949" lon="-4.2404465564">
        <ele>170.77</ele>
        <time>2018-05-19T20:18:59Z</time>
      </trkpt>
      <trkpt lat="43.2767804526" lon="-4.2402459774">
        <ele>170.29</ele>
        <time>2018-05-19T20:19:01Z</time>
      </trkpt>
      <trkpt lat="43.2768138964" lon="-4.2400358431">
        <ele>170.29</ele>
        <time>2018-05-19T20:19:03Z</time>
      </trkpt>
      <trkpt lat="43.2768551353" lon="-4.2398675345">
        <ele>170.29</ele>
        <time>2018-05-19T20:19:05Z</time>
      </trkpt>
      <trkpt lat="43.2769099530" lon="-4.2396827973">
        <ele>170.29</ele>
        <time>2018-05-19T20:19:07Z</time>
      </trkpt>
      <trkpt lat="43.2769750804" lon="-4.2395106331">
        <ele>170.29</ele>
        <time>2018-05-19T20:19:09Z</time>
      </trkpt>
      <trkpt lat="43.2770539541" lon="-4.2393407319">
        <ele>170.29</ele>
        <time>2018-05-19T20:19:11Z</time>
      </trkpt>
      <trkpt lat="43.2771421317" lon="-4.2391886003">
        <ele>170.29</ele>
        <time>2018-05-19T20:19:13Z</time>
      </trkpt>
      <trkpt lat="43.2772345003" lon="-4.2390521429">
        <ele>170.29</ele>
        <time>2018-05-19T20:19:15Z</time>
      </trkpt>
      <trkpt lat="43.2773332391" lon="-4.2389198765">
        <ele>170.29</ele>
        <time>2018-05-19T20:19:17Z</time>
      </trkpt>
      <trkpt lat="43.2774354145" lon="-4.2388075590">
        <ele>170.29</ele>
        <time>2018-05-19T20:19:19Z</time>
      </trkpt>
      <trkpt lat="43.2775546052" lon="-4.2386980914">
        <ele>170.29</ele>
        <time>2018-05-19T20:19:21Z</time>
      </trkpt>
      <trkpt lat="43.2776526734" lon="-4.2386260908">
        <ele>170.29</ele>
        <time>2018-05-19T20:19:23Z</time>
      </trkpt>
      <trkpt lat="43.2777681760" lon="-4.2385514081">
        <ele>170.29</ele>
        <time>2018-05-19T20:19:25Z</time>
      </trkpt>
      <trkpt lat="43.2778813317" lon="-4.2384882085">
        <ele>171.25</ele>
        <time>2018-05-19T20:19:27Z</time>
      </trkpt>
      <trkpt lat="43.2779977564" lon="-4.2384378333">
        <ele>171.73</ele>
        <time>2018-05-19T20:19:29Z</time>
      </trkpt>
      <trkpt lat="43.2781270053" lon="-4.2383939121">
        <ele>171.73</ele>
        <time>2018-05-19T20:19:31Z</time>
      </trkpt>
      <trkpt lat="43.2782295998" lon="-4.2383666709">
        <ele>171.73</ele>
        <time>2018-05-19T20:19:33Z</time>
      </trkpt>
      <trkpt lat="43.2783477008" lon="-4.2383450456">
        <ele>172.21</ele>
        <time>2018-05-19T20:19:35Z</time>
      </trkpt>
      <trkpt lat="43.2784638740" lon="-4.2383281142">
        <ele>172.21</ele>
        <time>2018-05-19T20:19:37Z</time>
      </trkpt>
      <trkpt lat="43.2785890996" lon="-4.2383119371">
        <ele>172.21</ele>
        <time>2018-05-19T20:19:39Z</time>
      </trkpt>
      <trkpt lat="43.2787248027" lon="-4.2382954247">
        <ele>172.69</ele>
        <time>2018-05-19T20:19:41Z</time>
      </trkpt>
      <trkpt lat="43.2788345218" lon="-4.2382833548">
        <ele>172.69</ele>
        <time>2018-05-19T20:19:43Z</time>
      </trkpt>
      <trkpt lat="43.2789546344" lon="-4.2382706981">
        <ele>172.69</ele>
        <time>2018-05-19T20:19:45Z</time>
      </trkpt>
      <trkpt lat="43.2790775131" lon="-4.2382464744">
        <ele>172.69</ele>
        <time>2018-05-19T20:19:47Z</time>
      </trkpt>
      <trkpt lat="43.2792218495" lon="-4.2382135335">
        <ele>172.69</ele>
        <time>2018-05-19T20:19:49Z</time>
      </trkpt>
      <trkpt lat="43.2793365140" lon="-4.2381722946">
        <ele>172.69</ele>
        <time>2018-05-19T20:19:51Z</time>
      </trkpt>
      <trkpt lat="43.2794434670" lon="-4.2381199915">
        <ele>172.69</ele>
        <time>2018-05-19T20:19:53Z</time>
      </trkpt>
      <trkpt lat="43.2795575447" lon="-4.2380485777">
        <ele>171.73</ele>
        <time>2018-05-19T20:19:55Z</time>
      </trkpt>
      <trkpt lat="43.2796696108" lon="-4.2379542813">
        <ele>171.25</ele>
        <time>2018-05-19T20:19:57Z</time>
      </trkpt>
      <trkpt lat="43.2797803357" lon="-4.2378516868">
        <ele>171.25</ele>
        <time>2018-05-19T20:19:59Z</time>
      </trkpt>
      <trkpt lat="43.2799004484" lon="-4.2377262935">
        <ele>170.77</ele>
        <time>2018-05-19T20:20:01Z</time>
      </trkpt>
      <trkpt lat="43.2799979299" lon="-4.2376186699">
        <ele>170.77</ele>
        <time>2018-05-19T20:20:03Z</time>
      </trkpt>
      <trkpt lat="43.2801032066" lon="-4.2375020776">
        <ele>170.77</ele>
        <time>2018-05-19T20:20:05Z</time>
      </trkpt>
      <trkpt lat="43.2802161109" lon="-4.2373852339">
        <ele>169.81</ele>
        <time>2018-05-19T20:20:07Z</time>
      </trkpt>
      <trkpt lat="43.2803301048" lon="-4.2372731678">
        <ele>169.81</ele>
        <time>2018-05-19T20:20:09Z</time>
      </trkpt>
      <trkpt lat="43.2804479543" lon="-4.2371664662">
        <ele>169.33</ele>
        <time>2018-05-19T20:20:11Z</time>
      </trkpt>
      <trkpt lat="43.2805693243" lon="-4.2370613571">
        <ele>169.33</ele>
        <time>2018-05-19T20:20:13Z</time>
      </trkpt>
      <trkpt lat="43.2806911971" lon="-4.2369681504">
        <ele>169.33</ele>
        <time>2018-05-19T20:20:15Z</time>
      </trkpt>
      <trkpt lat="43.2808291633" lon="-4.2368770391">
        <ele>168.37</ele>
        <time>2018-05-19T20:20:17Z</time>
      </trkpt>
      <trkpt lat="43.2809814624" lon="-4.2367824912">
        <ele>168.37</ele>
        <time>2018-05-19T20:20:19Z</time>
      </trkpt>
      <trkpt lat="43.2811009884" lon="-4.2367119994">
        <ele>167.89</ele>
        <time>2018-05-19T20:20:21Z</time>
      </trkpt>
      <trkpt lat="43.2812428102" lon="-4.2366256658">
        <ele>167.89</ele>
        <time>2018-05-19T20:20:23Z</time>
      </trkpt>
      <trkpt lat="43.2813811116" lon="-4.2365457024">
        <ele>167.41</ele>
        <time>2018-05-19T20:20:25Z</time>
      </trkpt>
      <trkpt lat="43.2815129589" lon="-4.2364692595">
        <ele>166.93</ele>
        <time>2018-05-19T20:20:27Z</time>
      </trkpt>
      <trkpt lat="43.2816661801" lon="-4.2363785673">
        <ele>166.45</ele>
        <time>2018-05-19T20:20:29Z</time>
      </trkpt>
      <trkpt lat="43.2817916572" lon="-4.2363016214">
        <ele>166.45</ele>
        <time>2018-05-19T20:20:31Z</time>
      </trkpt>
      <trkpt lat="43.2819324732" lon="-4.2362159584">
        <ele>165.96</ele>
        <time>2018-05-19T20:20:33Z</time>
      </trkpt>
      <trkpt lat="43.2820693497" lon="-4.2361370847">
        <ele>164.52</ele>
        <time>2018-05-19T20:20:35Z</time>
      </trkpt>
      <trkpt lat="43.2822160330" lon="-4.2360496614">
        <ele>164.04</ele>
        <time>2018-05-19T20:20:37Z</time>
      </trkpt>
      <trkpt lat="43.2823447790" lon="-4.2359751463">
        <ele>163.08</ele>
        <time>2018-05-19T20:20:39Z</time>
      </trkpt>
      <trkpt lat="43.2824758720" lon="-4.2358994577">
        <ele>162.12</ele>
        <time>2018-05-19T20:20:41Z</time>
      </trkpt>
      <trkpt lat="43.2826048695" lon="-4.2358212546">
        <ele>161.16</ele>
        <time>2018-05-19T20:20:43Z</time>
      </trkpt>
      <trkpt lat="43.2827397343" lon="-4.2357448116">
        <ele>161.16</ele>
        <time>2018-05-19T20:20:45Z</time>
      </trkpt>
      <trkpt lat="43.2828774489" lon="-4.2356615793">
        <ele>160.20</ele>
        <time>2018-05-19T20:20:47Z</time>
      </trkpt>
      <trkpt lat="43.2829825580" lon="-4.2355929315">
        <ele>159.72</ele>
        <time>2018-05-19T20:20:49Z</time>
      </trkpt>
      <trkpt lat="43.2830992341" lon="-4.2355241161">
        <ele>159.72</ele>
        <time>2018-05-19T20:20:51Z</time>
      </trkpt>
      <trkpt lat="43.2832139824" lon="-4.2354734894">
        <ele>159.72</ele>
        <time>2018-05-19T20:20:53Z</time>
      </trkpt>
      <trkpt lat="43.2833286468" lon="-4.2354703043">
        <ele>159.72</ele>
        <time>2018-05-19T20:20:55Z</time>
      </trkpt>
      <trkpt lat="43.2834562194" lon="-4.2355590686">
        <ele>159.72</ele>
        <time>2018-05-19T20:20:58Z</time>
      </trkpt>
      <trkpt lat="43.2835200895" lon="-4.2356938496">
        <ele>159.72</ele>
        <time>2018-05-19T20:21:00Z</time>
      </trkpt>
      <trkpt lat="43.2835678663" lon="-4.2358230986">
        <ele>159.72</ele>
        <time>2018-05-19T20:21:01Z</time>
      </trkpt>
      <trkpt lat="43.2836098596" lon="-4.2359510064">
        <ele>159.72</ele>
        <time>2018-05-19T20:21:03Z</time>
      </trkpt>
      <trkpt lat="43.2836609054" lon="-4.2361033894">
        <ele>159.72</ele>
        <time>2018-05-19T20:21:05Z</time>
      </trkpt>
      <trkpt lat="43.2837123703" lon="-4.2362620588">
        <ele>159.72</ele>
        <time>2018-05-19T20:21:07Z</time>
      </trkpt>
      <trkpt lat="43.2837545313" lon="-4.2363833450">
        <ele>159.72</ele>
        <time>2018-05-19T20:21:09Z</time>
      </trkpt>
      <trkpt lat="43.2838296331" lon="-4.2365089897">
        <ele>159.72</ele>
        <time>2018-05-19T20:21:11Z</time>
      </trkpt>
      <trkpt lat="43.2839227561" lon="-4.2365705129">
        <ele>159.24</ele>
        <time>2018-05-19T20:21:13Z</time>
      </trkpt>
      <trkpt lat="43.2840459701" lon="-4.2365664896">
        <ele>158.75</ele>
        <time>2018-05-19T20:21:15Z</time>
      </trkpt>
      <trkpt lat="43.2841814216" lon="-4.2364863586">
        <ele>158.75</ele>
        <time>2018-05-19T20:21:17Z</time>
      </trkpt>
      <trkpt lat="43.2843067311" lon="-4.2364084907">
        <ele>157.79</ele>
        <time>2018-05-19T20:21:19Z</time>
      </trkpt>
      <trkpt lat="43.2844239939" lon="-4.2363328021">
        <ele>157.31</ele>
        <time>2018-05-19T20:21:21Z</time>
      </trkpt>
      <trkpt lat="43.2845493034" lon="-4.2362584546">
        <ele>155.87</ele>
        <time>2018-05-19T20:21:23Z</time>
      </trkpt>
      <trkpt lat="43.2846944779" lon="-4.2361898068">
        <ele>155.39</ele>
        <time>2018-05-19T20:21:25Z</time>
      </trkpt>
      <trkpt lat="43.2848707493" lon="-4.2361401021">
        <ele>154.91</ele>
        <time>2018-05-19T20:21:27Z</time>
      </trkpt>
      <trkpt lat="43.2850236353" lon="-4.2361213267">
        <ele>153.95</ele>
        <time>2018-05-19T20:21:29Z</time>
      </trkpt>
      <trkpt lat="43.2851909380" lon="-4.2361213267">
        <ele>153.47</ele>
        <time>2018-05-19T20:21:31Z</time>
      </trkpt>
      <trkpt lat="43.2853544690" lon="-4.2361274455">
        <ele>153.47</ele>
        <time>2018-05-19T20:21:33Z</time>
      </trkpt>
      <trkpt lat="43.2855323330" lon="-4.2361239251">
        <ele>152.99</ele>
        <time>2018-05-19T20:21:35Z</time>
      </trkpt>
      <trkpt lat="43.2856921759" lon="-4.2361033056">
        <ele>152.99</ele>
        <time>2018-05-19T20:21:37Z</time>
      </trkpt>
      <trkpt lat="43.2858277950" lon="-4.2360862903">
        <ele>152.99</ele>
        <time>2018-05-19T20:21:39Z</time>
      </trkpt>
      <trkpt lat="43.2859769091" lon="-4.2360670958">
        <ele>152.99</ele>
        <time>2018-05-19T20:21:41Z</time>
      </trkpt>
      <trkpt lat="43.2861269452" lon="-4.2360453028">
        <ele>152.51</ele>
        <time>2018-05-19T20:21:43Z</time>
      </trkpt>
      <trkpt lat="43.2862889674" lon="-4.2360235937">
        <ele>152.51</ele>
        <time>2018-05-19T20:21:45Z</time>
      </trkpt>
      <trkpt lat="43.2864211500" lon="-4.2360099312">
        <ele>152.51</ele>
        <time>2018-05-19T20:21:47Z</time>
      </trkpt>
      <trkpt lat="43.2865672465" lon="-4.2359929997">
        <ele>152.51</ele>
        <time>2018-05-19T20:21:49Z</time>
      </trkpt>
      <trkpt lat="43.2867135108" lon="-4.2359779961">
        <ele>152.03</ele>
        <time>2018-05-19T20:21:51Z</time>
      </trkpt>
      <trkpt lat="43.2868575957" lon="-4.2359656747">
        <ele>151.54</ele>
        <time>2018-05-19T20:21:53Z</time>
      </trkpt>
      <trkpt lat="43.2870216295" lon="-4.2359414510">
        <ele>151.54</ele>
        <time>2018-05-19T20:21:55Z</time>
      </trkpt>
      <trkpt lat="43.2871575840" lon="-4.2359251902">
        <ele>151.06</ele>
        <time>2018-05-19T20:21:57Z</time>
      </trkpt>
      <trkpt lat="43.2873070333" lon="-4.2359137069">
        <ele>151.06</ele>
        <time>2018-05-19T20:21:59Z</time>
      </trkpt>
      <trkpt lat="43.2874563150" lon="-4.2359020561">
        <ele>151.06</ele>
        <time>2018-05-19T20:22:01Z</time>
      </trkpt>
      <trkpt lat="43.2876087818" lon="-4.2358896509">
        <ele>150.58</ele>
        <time>2018-05-19T20:22:03Z</time>
      </trkpt>
      <trkpt lat="43.2876990549" lon="-4.2358855437">
        <ele>150.58</ele>
        <time>2018-05-19T20:22:04Z</time>
      </trkpt>
      <trkpt lat="43.2878402900" lon="-4.2358801793">
        <ele>150.58</ele>
        <time>2018-05-19T20:22:06Z</time>
      </trkpt>
      <trkpt lat="43.2879981212" lon="-4.2358802631">
        <ele>150.10</ele>
        <time>2018-05-19T20:22:08Z</time>
      </trkpt>
      <trkpt lat="43.2881528512" lon="-4.2358746473">
        <ele>150.10</ele>
        <time>2018-05-19T20:22:10Z</time>
      </trkpt>
      <trkpt lat="43.2883089222" lon="-4.2358670197">
        <ele>150.10</ele>
        <time>2018-05-19T20:22:12Z</time>
      </trkpt>
      <trkpt lat="43.2884784043" lon="-4.2358672712">
        <ele>149.14</ele>
        <time>2018-05-19T20:22:14Z</time>
      </trkpt>
      <trkpt lat="43.2886172924" lon="-4.2358613200">
        <ele>149.14</ele>
        <time>2018-05-19T20:22:16Z</time>
      </trkpt>
      <trkpt lat="43.2887758780" lon="-4.2358561233">
        <ele>149.14</ele>
        <time>2018-05-19T20:22:18Z</time>
      </trkpt>
      <trkpt lat="43.2889347151" lon="-4.2358537763">
        <ele>148.66</ele>
        <time>2018-05-19T20:22:20Z</time>
      </trkpt>
      <trkpt lat="43.2891242299" lon="-4.2358518485">
        <ele>148.66</ele>
        <time>2018-05-19T20:22:22Z</time>
      </trkpt>
      <trkpt lat="43.2892503776" lon="-4.2358511779">
        <ele>148.18</ele>
        <time>2018-05-19T20:22:24Z</time>
      </trkpt>
      <trkpt lat="43.2894132379" lon="-4.2358508427">
        <ele>148.18</ele>
        <time>2018-05-19T20:22:26Z</time>
      </trkpt>
      <trkpt lat="43.2895208616" lon="-4.2358484119">
        <ele>148.18</ele>
        <time>2018-05-19T20:22:28Z</time>
      </trkpt>
      <trkpt lat="43.2896375377" lon="-4.2358418740">
        <ele>147.70</ele>
        <time>2018-05-19T20:22:29Z</time>
      </trkpt>
      <trkpt lat="43.2897906750" lon="-4.2358381022">
        <ele>147.70</ele>
        <time>2018-05-19T20:22:31Z</time>
      </trkpt>
      <trkpt lat="43.2899443991" lon="-4.2358395271">
        <ele>147.70</ele>
        <time>2018-05-19T20:22:33Z</time>
      </trkpt>
      <trkpt lat="43.2900956925" lon="-4.2358419579">
        <ele>147.70</ele>
        <time>2018-05-19T20:22:35Z</time>
      </trkpt>
      <trkpt lat="43.2902478240" lon="-4.2358423769">
        <ele>147.22</ele>
        <time>2018-05-19T20:22:37Z</time>
      </trkpt>
      <trkpt lat="43.2903401088" lon="-4.2358406167">
        <ele>147.22</ele>
        <time>2018-05-19T20:22:38Z</time>
      </trkpt>
      <trkpt lat="43.2904686034" lon="-4.2358369287">
        <ele>146.74</ele>
        <time>2018-05-19T20:22:40Z</time>
      </trkpt>
      <trkpt lat="43.2906325534" lon="-4.2358328216">
        <ele>146.74</ele>
        <time>2018-05-19T20:22:42Z</time>
      </trkpt>
      <trkpt lat="43.2907752134" lon="-4.2358347494">
        <ele>146.26</ele>
        <time>2018-05-19T20:22:44Z</time>
      </trkpt>
      <trkpt lat="43.2909190468" lon="-4.2358365934">
        <ele>146.26</ele>
        <time>2018-05-19T20:22:46Z</time>
      </trkpt>
      <trkpt lat="43.2910684962" lon="-4.2358372640">
        <ele>146.26</ele>
        <time>2018-05-19T20:22:48Z</time>
      </trkpt>
      <trkpt lat="43.2912171911" lon="-4.2358340789">
        <ele>145.78</ele>
        <time>2018-05-19T20:22:50Z</time>
      </trkpt>
      <trkpt lat="43.2913834881" lon="-4.2358316481">
        <ele>145.78</ele>
        <time>2018-05-19T20:22:52Z</time>
      </trkpt>
      <trkpt lat="43.2915295009" lon="-4.2358295526">
        <ele>145.78</ele>
        <time>2018-05-19T20:22:54Z</time>
      </trkpt>
      <trkpt lat="43.2916764356" lon="-4.2358256970">
        <ele>145.78</ele>
        <time>2018-05-19T20:22:56Z</time>
      </trkpt>
      <trkpt lat="43.2918291539" lon="-4.2358243559">
        <ele>145.30</ele>
        <time>2018-05-19T20:22:58Z</time>
      </trkpt>
      <trkpt lat="43.2919899188" lon="-4.2358211707">
        <ele>145.30</ele>
        <time>2018-05-19T20:23:00Z</time>
      </trkpt>
      <trkpt lat="43.2920784317" lon="-4.2358192429">
        <ele>145.30</ele>
        <time>2018-05-19T20:23:01Z</time>
      </trkpt>
      <trkpt lat="43.2922066748" lon="-4.2358162254">
        <ele>145.30</ele>
        <time>2018-05-19T20:23:03Z</time>
      </trkpt>
      <trkpt lat="43.2923544478" lon="-4.2358192429">
        <ele>144.82</ele>
        <time>2018-05-19T20:23:05Z</time>
      </trkpt>
      <trkpt lat="43.2925005443" lon="-4.2358407006">
        <ele>144.82</ele>
        <time>2018-05-19T20:23:07Z</time>
      </trkpt>
      <trkpt lat="43.2926618122" lon="-4.2358993739">
        <ele>144.34</ele>
        <time>2018-05-19T20:23:09Z</time>
      </trkpt>
      <trkpt lat="43.2927465532" lon="-4.2359418701">
        <ele>143.85</ele>
        <time>2018-05-19T20:23:10Z</time>
      </trkpt>
      <trkpt lat="43.2928682584" lon="-4.2360062432">
        <ele>143.37</ele>
        <time>2018-05-19T20:23:12Z</time>
      </trkpt>
      <trkpt lat="43.2929998543" lon="-4.2360791657">
        <ele>143.37</ele>
        <time>2018-05-19T20:23:14Z</time>
      </trkpt>
      <trkpt lat="43.2931350544" lon="-4.2361580394">
        <ele>143.37</ele>
        <time>2018-05-19T20:23:16Z</time>
      </trkpt>
      <trkpt lat="43.2932715956" lon="-4.2362508271">
        <ele>143.37</ele>
        <time>2018-05-19T20:23:18Z</time>
      </trkpt>
      <trkpt lat="43.2933902834" lon="-4.2363385018">
        <ele>143.37</ele>
        <time>2018-05-19T20:23:20Z</time>
      </trkpt>
      <trkpt lat="43.2935199514" lon="-4.2364339717">
        <ele>143.37</ele>
        <time>2018-05-19T20:23:22Z</time>
      </trkpt>
      <trkpt lat="43.2936364599" lon="-4.2365128454">
        <ele>143.37</ele>
        <time>2018-05-19T20:23:24Z</time>
      </trkpt>
      <trkpt lat="43.2937529683" lon="-4.2365899589">
        <ele>143.37</ele>
        <time>2018-05-19T20:23:26Z</time>
      </trkpt>
      <trkpt lat="43.2938718237" lon="-4.2366767954">
        <ele>142.89</ele>
        <time>2018-05-19T20:23:28Z</time>
      </trkpt>
      <trkpt lat="43.2939630188" lon="-4.2367470358">
        <ele>142.89</ele>
        <time>2018-05-19T20:23:30Z</time>
      </trkpt>
      <trkpt lat="43.2940703072" lon="-4.2368286755">
        <ele>142.89</ele>
        <time>2018-05-19T20:23:32Z</time>
      </trkpt>
      <trkpt lat="43.2941803616" lon="-4.2369190324">
        <ele>142.89</ele>
        <time>2018-05-19T20:23:34Z</time>
      </trkpt>
      <trkpt lat="43.2942752447" lon="-4.2370236386">
        <ele>142.89</ele>
        <time>2018-05-19T20:23:36Z</time>
      </trkpt>
      <trkpt lat="43.2943425514" lon="-4.2371218745">
        <ele>142.89</ele>
        <time>2018-05-19T20:23:38Z</time>
      </trkpt>
      <trkpt lat="43.2944036555" lon="-4.2372345272">
        <ele>142.89</ele>
        <time>2018-05-19T20:23:39Z</time>
      </trkpt>
      <trkpt lat="43.2944679447" lon="-4.2373655364">
        <ele>142.89</ele>
        <time>2018-05-19T20:23:41Z</time>
      </trkpt>
      <trkpt lat="43.2945420407" lon="-4.2374888342">
        <ele>142.89</ele>
        <time>2018-05-19T20:23:43Z</time>
      </trkpt>
      <trkpt lat="43.2946414500" lon="-4.2375750002">
        <ele>142.89</ele>
        <time>2018-05-19T20:23:45Z</time>
      </trkpt>
      <trkpt lat="43.2947474811" lon="-4.2376516107">
        <ele>142.41</ele>
        <time>2018-05-19T20:23:47Z</time>
      </trkpt>
      <trkpt lat="43.2948555239" lon="-4.2377183307">
        <ele>142.41</ele>
        <time>2018-05-19T20:23:49Z</time>
      </trkpt>
      <trkpt lat="43.2949700207" lon="-4.2377744894">
        <ele>142.41</ele>
        <time>2018-05-19T20:23:51Z</time>
      </trkpt>
      <trkpt lat="43.2950856909" lon="-4.2378365155">
        <ele>142.41</ele>
        <time>2018-05-19T20:23:53Z</time>
      </trkpt>
      <trkpt lat="43.2952168677" lon="-4.2379018944">
        <ele>142.41</ele>
        <time>2018-05-19T20:23:55Z</time>
      </trkpt>
      <trkpt lat="43.2953254133" lon="-4.2379589751">
        <ele>142.41</ele>
        <time>2018-05-19T20:23:57Z</time>
      </trkpt>
      <trkpt lat="43.2954372279" lon="-4.2380276229">
        <ele>142.41</ele>
        <time>2018-05-19T20:23:59Z</time>
      </trkpt>
      <trkpt lat="43.2955395710" lon="-4.2380889785">
        <ele>142.41</ele>
        <time>2018-05-19T20:24:01Z</time>
      </trkpt>
      <trkpt lat="43.2956492901" lon="-4.2381517589">
        <ele>142.41</ele>
        <time>2018-05-19T20:24:03Z</time>
      </trkpt>
      <trkpt lat="43.2957486156" lon="-4.2382023856">
        <ele>142.41</ele>
        <time>2018-05-19T20:24:05Z</time>
      </trkpt>
      <trkpt lat="43.2958725002" lon="-4.2382514197">
        <ele>141.93</ele>
        <time>2018-05-19T20:24:07Z</time>
      </trkpt>
      <trkpt lat="43.2960048504" lon="-4.2382820137">
        <ele>141.93</ele>
        <time>2018-05-19T20:24:09Z</time>
      </trkpt>
      <trkpt lat="43.2961492706" lon="-4.2382963467">
        <ele>141.93</ele>
        <time>2018-05-19T20:24:11Z</time>
      </trkpt>
      <trkpt lat="43.2962913439" lon="-4.2383015435">
        <ele>140.97</ele>
        <time>2018-05-19T20:24:13Z</time>
      </trkpt>
      <trkpt lat="43.2964178268" lon="-4.2383028846">
        <ele>140.97</ele>
        <time>2018-05-19T20:24:15Z</time>
      </trkpt>
      <trkpt lat="43.2965553738" lon="-4.2382988613">
        <ele>140.97</ele>
        <time>2018-05-19T20:24:17Z</time>
      </trkpt>
      <trkpt lat="43.2966917474" lon="-4.2382872943">
        <ele>140.97</ele>
        <time>2018-05-19T20:24:19Z</time>
      </trkpt>
      <trkpt lat="43.2968256902" lon="-4.2382777389">
        <ele>140.97</ele>
        <time>2018-05-19T20:24:21Z</time>
      </trkpt>
      <trkpt lat="43.2969666738" lon="-4.2382687703">
        <ele>140.49</ele>
        <time>2018-05-19T20:24:23Z</time>
      </trkpt>
      <trkpt lat="43.2971039694" lon="-4.2382583767">
        <ele>140.49</ele>
        <time>2018-05-19T20:24:25Z</time>
      </trkpt>
      <trkpt lat="43.2972410973" lon="-4.2382510845">
        <ele>140.49</ele>
        <time>2018-05-19T20:24:27Z</time>
      </trkpt>
      <trkpt lat="43.2973766327" lon="-4.2382350750">
        <ele>140.49</ele>
        <time>2018-05-19T20:24:29Z</time>
      </trkpt>
      <trkpt lat="43.2975280099" lon="-4.2382142041">
        <ele>140.49</ele>
        <time>2018-05-19T20:24:31Z</time>
      </trkpt>
      <trkpt lat="43.2976514753" lon="-4.2382006254">
        <ele>140.49</ele>
        <time>2018-05-19T20:24:33Z</time>
      </trkpt>
      <trkpt lat="43.2977899443" lon="-4.2381855380">
        <ele>140.49</ele>
        <time>2018-05-19T20:24:35Z</time>
      </trkpt>
      <trkpt lat="43.2979302574" lon="-4.2381704506">
        <ele>140.01</ele>
        <time>2018-05-19T20:24:37Z</time>
      </trkpt>
      <trkpt lat="43.2980699837" lon="-4.2381526809">
        <ele>140.01</ele>
        <time>2018-05-19T20:24:39Z</time>
      </trkpt>
      <trkpt lat="43.2982278988" lon="-4.2381360848">
        <ele>139.53</ele>
        <time>2018-05-19T20:24:41Z</time>
      </trkpt>
      <trkpt lat="43.2983423956" lon="-4.2381240148">
        <ele>139.53</ele>
        <time>2018-05-19T20:24:43Z</time>
      </trkpt>
      <trkpt lat="43.2984727342" lon="-4.2381101009">
        <ele>139.53</ele>
        <time>2018-05-19T20:24:45Z</time>
      </trkpt>
      <trkpt lat="43.2985969540" lon="-4.2380999587">
        <ele>139.53</ele>
        <time>2018-05-19T20:24:47Z</time>
      </trkpt>
      <trkpt lat="43.2987354230" lon="-4.2380915768">
        <ele>139.53</ele>
        <time>2018-05-19T20:24:49Z</time>
      </trkpt>
      <trkpt lat="43.2988545299" lon="-4.2380835302">
        <ele>139.53</ele>
        <time>2018-05-19T20:24:51Z</time>
      </trkpt>
      <trkpt lat="43.2989593036" lon="-4.2380743939">
        <ele>139.53</ele>
        <time>2018-05-19T20:24:53Z</time>
      </trkpt>
      <trkpt lat="43.2990608085" lon="-4.2380634136">
        <ele>139.05</ele>
        <time>2018-05-19T20:24:54Z</time>
      </trkpt>
      <trkpt lat="43.2991919853" lon="-4.2380497511">
        <ele>139.05</ele>
        <time>2018-05-19T20:24:56Z</time>
      </trkpt>
      <trkpt lat="43.2993247546" lon="-4.2380351666">
        <ele>138.57</ele>
        <time>2018-05-19T20:24:58Z</time>
      </trkpt>
      <trkpt lat="43.2994589489" lon="-4.2380232643">
        <ele>138.57</ele>
        <time>2018-05-19T20:25:00Z</time>
      </trkpt>
      <trkpt lat="43.2995936461" lon="-4.2380122840">
        <ele>138.57</ele>
        <time>2018-05-19T20:25:02Z</time>
      </trkpt>
      <trkpt lat="43.2997282594" lon="-4.2380010523">
        <ele>138.09</ele>
        <time>2018-05-19T20:25:04Z</time>
      </trkpt>
      <trkpt lat="43.2998674829" lon="-4.2379871383">
        <ele>138.09</ele>
        <time>2018-05-19T20:25:06Z</time>
      </trkpt>
      <trkpt lat="43.3000057004" lon="-4.2379729729">
        <ele>138.09</ele>
        <time>2018-05-19T20:25:08Z</time>
      </trkpt>
      <trkpt lat="43.3001219574" lon="-4.2379553709">
        <ele>137.61</ele>
        <time>2018-05-19T20:25:10Z</time>
      </trkpt>
      <trkpt lat="43.3002538048" lon="-4.2379375175">
        <ele>137.61</ele>
        <time>2018-05-19T20:25:12Z</time>
      </trkpt>
      <trkpt lat="43.3003850654" lon="-4.2379262857">
        <ele>137.61</ele>
        <time>2018-05-19T20:25:14Z</time>
      </trkpt>
      <trkpt lat="43.3005151525" lon="-4.2379120365">
        <ele>137.13</ele>
        <time>2018-05-19T20:25:16Z</time>
      </trkpt>
      <trkpt lat="43.3006618358" lon="-4.2378986254">
        <ele>137.13</ele>
        <time>2018-05-19T20:25:18Z</time>
      </trkpt>
      <trkpt lat="43.3007687889" lon="-4.2378841247">
        <ele>137.13</ele>
        <time>2018-05-19T20:25:20Z</time>
      </trkpt>
      <trkpt lat="43.3009037375" lon="-4.2378713842">
        <ele>137.13</ele>
        <time>2018-05-19T20:25:22Z</time>
      </trkpt>
      <trkpt lat="43.3010308072" lon="-4.2378582247">
        <ele>137.13</ele>
        <time>2018-05-19T20:25:24Z</time>
      </trkpt>
      <trkpt lat="43.3011651691" lon="-4.2378461547">
        <ele>137.13</ele>
        <time>2018-05-19T20:25:26Z</time>
      </trkpt>
      <trkpt lat="43.3012988605" lon="-4.2378314026">
        <ele>137.13</ele>
        <time>2018-05-19T20:25:28Z</time>
      </trkpt>
      <trkpt lat="43.3014271036" lon="-4.2378179915">
        <ele>137.13</ele>
        <time>2018-05-19T20:25:30Z</time>
      </trkpt>
      <trkpt lat="43.3015580289" lon="-4.2378059216">
        <ele>136.16</ele>
        <time>2018-05-19T20:25:32Z</time>
      </trkpt>
      <trkpt lat="43.3016979229" lon="-4.2377930135">
        <ele>136.16</ele>
        <time>2018-05-19T20:25:34Z</time>
      </trkpt>
      <trkpt lat="43.3018452767" lon="-4.2377798539">
        <ele>136.16</ele>
        <time>2018-05-19T20:25:36Z</time>
      </trkpt>
      <trkpt lat="43.3019574266" lon="-4.2377675325">
        <ele>135.68</ele>
        <time>2018-05-19T20:25:38Z</time>
      </trkpt>
      <trkpt lat="43.3020953089" lon="-4.2377562169">
        <ele>136.16</ele>
        <time>2018-05-19T20:25:40Z</time>
      </trkpt>
      <trkpt lat="43.3022176847" lon="-4.2377463263">
        <ele>135.68</ele>
        <time>2018-05-19T20:25:42Z</time>
      </trkpt>
      <trkpt lat="43.3023662120" lon="-4.2377309036">
        <ele>135.20</ele>
        <time>2018-05-19T20:25:44Z</time>
      </trkpt>
      <trkpt lat="43.3025150746" lon="-4.2377153970">
        <ele>135.20</ele>
        <time>2018-05-19T20:25:46Z</time>
      </trkpt>
      <trkpt lat="43.3026281465" lon="-4.2376980465">
        <ele>134.72</ele>
        <time>2018-05-19T20:25:48Z</time>
      </trkpt>
      <trkpt lat="43.3027609158" lon="-4.2376805283">
        <ele>134.72</ele>
        <time>2018-05-19T20:25:50Z</time>
      </trkpt>
      <trkpt lat="43.3028896619" lon="-4.2376661114">
        <ele>134.72</ele>
        <time>2018-05-19T20:25:52Z</time>
      </trkpt>
      <trkpt lat="43.3030392788" lon="-4.2376477551">
        <ele>134.72</ele>
        <time>2018-05-19T20:25:54Z</time>
      </trkpt>
      <trkpt lat="43.3031559549" lon="-4.2376357689">
        <ele>134.24</ele>
        <time>2018-05-19T20:25:56Z</time>
      </trkpt>
      <trkpt lat="43.3032856230" lon="-4.2376236152">
        <ele>133.76</ele>
        <time>2018-05-19T20:25:58Z</time>
      </trkpt>
      <trkpt lat="43.3034150396" lon="-4.2376128025">
        <ele>133.76</ele>
        <time>2018-05-19T20:26:00Z</time>
      </trkpt>
      <trkpt lat="43.3035362419" lon="-4.2376057617">
        <ele>133.76</ele>
        <time>2018-05-19T20:26:02Z</time>
      </trkpt>
      <trkpt lat="43.3036692627" lon="-4.2376140598">
        <ele>133.76</ele>
        <time>2018-05-19T20:26:04Z</time>
      </trkpt>
      <trkpt lat="43.3037731145" lon="-4.2376304884">
        <ele>133.76</ele>
        <time>2018-05-19T20:26:06Z</time>
      </trkpt>
      <trkpt lat="43.3038910478" lon="-4.2376521137">
        <ele>133.28</ele>
        <time>2018-05-19T20:26:08Z</time>
      </trkpt>
      <trkpt lat="43.3040130883" lon="-4.2376735713">
        <ele>133.28</ele>
        <time>2018-05-19T20:26:10Z</time>
      </trkpt>
      <trkpt lat="43.3041287586" lon="-4.2376950290">
        <ele>133.28</ele>
        <time>2018-05-19T20:26:12Z</time>
      </trkpt>
      <trkpt lat="43.3042575885" lon="-4.2377198394">
        <ele>132.80</ele>
        <time>2018-05-19T20:26:14Z</time>
      </trkpt>
      <trkpt lat="43.3043642063" lon="-4.2377309874">
        <ele>132.80</ele>
        <time>2018-05-19T20:26:16Z</time>
      </trkpt>
      <trkpt lat="43.3044761885" lon="-4.2377465777">
        <ele>132.80</ele>
        <time>2018-05-19T20:26:18Z</time>
      </trkpt>
      <trkpt lat="43.3047406375" lon="-4.2378150579">
        <ele>132.80</ele>
        <time>2018-05-19T20:26:23Z</time>
      </trkpt>
      <trkpt lat="43.3048268873" lon="-4.2378518544">
        <ele>132.80</ele>
        <time>2018-05-19T20:26:24Z</time>
      </trkpt>
      <trkpt lat="43.3049239498" lon="-4.2378899083">
        <ele>132.80</ele>
        <time>2018-05-19T20:26:26Z</time>
      </trkpt>
      <trkpt lat="43.3050298970" lon="-4.2379261181">
        <ele>132.80</ele>
        <time>2018-05-19T20:26:28Z</time>
      </trkpt>
      <trkpt lat="43.3051481657" lon="-4.2379554547">
        <ele>132.80</ele>
        <time>2018-05-19T20:26:30Z</time>
      </trkpt>
      <trkpt lat="43.3052607346" lon="-4.2379910778">
        <ele>132.80</ele>
        <time>2018-05-19T20:26:32Z</time>
      </trkpt>
      <trkpt lat="43.3053883910" lon="-4.2380312271">
        <ele>132.32</ele>
        <time>2018-05-19T20:26:34Z</time>
      </trkpt>
      <trkpt lat="43.3054919075" lon="-4.2380676884">
        <ele>131.84</ele>
        <time>2018-05-19T20:26:36Z</time>
      </trkpt>
      <trkpt lat="43.3056048956" lon="-4.2381067481">
        <ele>131.84</ele>
        <time>2018-05-19T20:26:38Z</time>
      </trkpt>
      <trkpt lat="43.3057173807" lon="-4.2381426226">
        <ele>131.84</ele>
        <time>2018-05-19T20:26:40Z</time>
      </trkpt>
      <trkpt lat="43.3058355656" lon="-4.2381716240">
        <ele>131.84</ele>
        <time>2018-05-19T20:26:42Z</time>
      </trkpt>
      <trkpt lat="43.3059675805" lon="-4.2381846160">
        <ele>131.84</ele>
        <time>2018-05-19T20:26:44Z</time>
      </trkpt>
      <trkpt lat="43.3060800657" lon="-4.2381741386">
        <ele>131.84</ele>
        <time>2018-05-19T20:26:46Z</time>
      </trkpt>
      <trkpt lat="43.3062016871" lon="-4.2381488252">
        <ele>131.84</ele>
        <time>2018-05-19T20:26:48Z</time>
      </trkpt>
      <trkpt lat="43.3063202072" lon="-4.2381176446">
        <ele>131.84</ele>
        <time>2018-05-19T20:26:50Z</time>
      </trkpt>
      <trkpt lat="43.3064357936" lon="-4.2380904034">
        <ele>131.84</ele>
        <time>2018-05-19T20:26:52Z</time>
      </trkpt>
      <trkpt lat="43.3065668866" lon="-4.2380550317">
        <ele>131.84</ele>
        <time>2018-05-19T20:26:54Z</time>
      </trkpt>
      <trkpt lat="43.3066604286" lon="-4.2380207498">
        <ele>131.84</ele>
        <time>2018-05-19T20:26:56Z</time>
      </trkpt>
      <trkpt lat="43.3067830559" lon="-4.2379756551">
        <ele>131.84</ele>
        <time>2018-05-19T20:26:58Z</time>
      </trkpt>
      <trkpt lat="43.3068907633" lon="-4.2379357573">
        <ele>131.84</ele>
        <time>2018-05-19T20:27:00Z</time>
      </trkpt>
      <trkpt lat="43.3069832157" lon="-4.2378887348">
        <ele>131.84</ele>
        <time>2018-05-19T20:27:02Z</time>
      </trkpt>
      <trkpt lat="43.3070835471" lon="-4.2378221825">
        <ele>131.84</ele>
        <time>2018-05-19T20:27:04Z</time>
      </trkpt>
      <trkpt lat="43.3071645163" lon="-4.2376818694">
        <ele>131.84</ele>
        <time>2018-05-19T20:27:07Z</time>
      </trkpt>
      <trkpt lat="43.3072205912" lon="-4.2375607509">
        <ele>131.84</ele>
        <time>2018-05-19T20:27:09Z</time>
      </trkpt>
      <trkpt lat="43.3072873950" lon="-4.2374502774">
        <ele>131.84</ele>
        <time>2018-05-19T20:27:11Z</time>
      </trkpt>
      <trkpt lat="43.3073696215" lon="-4.2373570707">
        <ele>131.84</ele>
        <time>2018-05-19T20:27:13Z</time>
      </trkpt>
      <trkpt lat="43.3074532729" lon="-4.2372739222">
        <ele>131.36</ele>
        <time>2018-05-19T20:27:15Z</time>
      </trkpt>
      <trkpt lat="43.3074924164" lon="-4.2371770274">
        <ele>131.36</ele>
        <time>2018-05-19T20:27:17Z</time>
      </trkpt>
      <trkpt lat="43.3074873034" lon="-4.2370391451">
        <ele>130.88</ele>
        <time>2018-05-19T20:27:19Z</time>
      </trkpt>
      <trkpt lat="43.3074706234" lon="-4.2369056214">
        <ele>130.88</ele>
        <time>2018-05-19T20:27:21Z</time>
      </trkpt>
      <trkpt lat="43.3074564580" lon="-4.2367790546">
        <ele>130.88</ele>
        <time>2018-05-19T20:27:23Z</time>
      </trkpt>
      <trkpt lat="43.3074716292" lon="-4.2366426811">
        <ele>130.88</ele>
        <time>2018-05-19T20:27:26Z</time>
      </trkpt>
      <trkpt lat="43.3075590525" lon="-4.2365838401">
        <ele>130.88</ele>
        <time>2018-05-19T20:27:29Z</time>
      </trkpt>
      <trkpt lat="43.3076632395" lon="-4.2365736142">
        <ele>130.88</ele>
        <time>2018-05-19T20:27:32Z</time>
      </trkpt>
      <trkpt lat="43.3077687677" lon="-4.2365594488">
        <ele>130.88</ele>
        <time>2018-05-19T20:27:35Z</time>
      </trkpt>
      <trkpt lat="43.3078630641" lon="-4.2365357280">
        <ele>130.88</ele>
        <time>2018-05-19T20:27:38Z</time>
      </trkpt>
      <trkpt lat="43.3079442009" lon="-4.2364188842">
        <ele>130.40</ele>
        <time>2018-05-19T20:27:42Z</time>
      </trkpt>
      <trkpt lat="43.3080067299" lon="-4.2362881266">
        <ele>129.92</ele>
        <time>2018-05-19T20:27:46Z</time>
      </trkpt>
      <trkpt lat="43.3080290258" lon="-4.2361635715">
        <ele>129.92</ele>
        <time>2018-05-19T20:27:49Z</time>
      </trkpt>
      <trkpt lat="43.3080236614" lon="-4.2359926645">
        <ele>129.43</ele>
        <time>2018-05-19T20:27:52Z</time>
      </trkpt>
      <trkpt lat="43.3080177102" lon="-4.2358209193">
        <ele>129.43</ele>
        <time>2018-05-19T20:27:55Z</time>
      </trkpt>
      <trkpt lat="43.3080099151" lon="-4.2356452346">
        <ele>129.43</ele>
        <time>2018-05-19T20:27:58Z</time>
      </trkpt>
      <trkpt lat="43.3079990186" lon="-4.2354682088">
        <ele>129.43</ele>
        <time>2018-05-19T20:28:01Z</time>
      </trkpt>
      <trkpt lat="43.3079968393" lon="-4.2353254650">
        <ele>129.43</ele>
        <time>2018-05-19T20:28:04Z</time>
      </trkpt>
      <trkpt lat="43.3079980966" lon="-4.2351658735">
        <ele>129.43</ele>
        <time>2018-05-19T20:28:08Z</time>
      </trkpt>
      <trkpt lat="43.3079911396" lon="-4.2350164242">
        <ele>129.43</ele>
        <time>2018-05-19T20:28:13Z</time>
      </trkpt>
    </trkseg>
  </trk>
</gpx>
